<?xml version="1.0" encoding="UTF-8" standalone="no" ?>
<gpx xmlns="http://www.topografix.com/GPX/1/1" xmlns:xsi="http://www.w3.org/2001/XMLSchema-instance" xsi:schemaLocation="http://www.topografix.com/GPX/1/1 http://www.topografix.com/GPX/1/1/gpx.xsd" version="1.1" creator="VisuGPX - https://www.visugpx.com">
  <metadata>
    <name>Balade du 09 août 2013</name>
    <desc><![CDATA[Passage par la Corniche des Cévennes]]></desc>
  </metadata>
  <trk>
    <name><![CDATA[ACTIVE LOG: 09 AOUT 2013 09:39]]></name>
    <trkseg>
      <trkpt lat="43.63501" lon="3.84704">
        <ele>65.51</ele>
        <time>2013-08-09T07:39:08Z</time>
      </trkpt>
      <trkpt lat="43.63502" lon="3.84707">
        <ele>65.99</ele>
        <time>2013-08-09T07:39:29Z</time>
      </trkpt>
      <trkpt lat="43.63526" lon="3.847">
        <ele>70.31</ele>
        <time>2013-08-09T07:39:37Z</time>
      </trkpt>
      <trkpt lat="43.63542" lon="3.84699">
        <ele>70.31</ele>
        <time>2013-08-09T07:39:42Z</time>
      </trkpt>
      <trkpt lat="43.63547" lon="3.84693">
        <ele>68.87</ele>
        <time>2013-08-09T07:39:44Z</time>
      </trkpt>
      <trkpt lat="43.63548" lon="3.84686">
        <ele>67.91</ele>
        <time>2013-08-09T07:39:45Z</time>
      </trkpt>
      <trkpt lat="43.63549" lon="3.84678">
        <ele>66.95</ele>
        <time>2013-08-09T07:39:46Z</time>
      </trkpt>
      <trkpt lat="43.63548" lon="3.8467">
        <ele>65.99</ele>
        <time>2013-08-09T07:39:47Z</time>
      </trkpt>
      <trkpt lat="43.63548" lon="3.84663">
        <ele>65.03</ele>
        <time>2013-08-09T07:39:48Z</time>
      </trkpt>
      <trkpt lat="43.63546" lon="3.84648">
        <ele>64.07</ele>
        <time>2013-08-09T07:39:50Z</time>
      </trkpt>
      <trkpt lat="43.63543" lon="3.8464">
        <ele>63.58</ele>
        <time>2013-08-09T07:39:51Z</time>
      </trkpt>
      <trkpt lat="43.63528" lon="3.84585">
        <ele>60.7</ele>
        <time>2013-08-09T07:39:58Z</time>
      </trkpt>
      <trkpt lat="43.63517" lon="3.84552">
        <ele>58.3</ele>
        <time>2013-08-09T07:40:06Z</time>
      </trkpt>
      <trkpt lat="43.63518" lon="3.84548">
        <ele>58.3</ele>
        <time>2013-08-09T07:40:07Z</time>
      </trkpt>
      <trkpt lat="43.6352" lon="3.84544">
        <ele>58.3</ele>
        <time>2013-08-09T07:40:08Z</time>
      </trkpt>
      <trkpt lat="43.63523" lon="3.8454">
        <ele>58.3</ele>
        <time>2013-08-09T07:40:09Z</time>
      </trkpt>
      <trkpt lat="43.63526" lon="3.84537">
        <ele>58.3</ele>
        <time>2013-08-09T07:40:10Z</time>
      </trkpt>
      <trkpt lat="43.63531" lon="3.84536">
        <ele>57.82</ele>
        <time>2013-08-09T07:40:11Z</time>
      </trkpt>
      <trkpt lat="43.63536" lon="3.84537">
        <ele>57.82</ele>
        <time>2013-08-09T07:40:12Z</time>
      </trkpt>
      <trkpt lat="43.6354" lon="3.84541">
        <ele>57.82</ele>
        <time>2013-08-09T07:40:13Z</time>
      </trkpt>
      <trkpt lat="43.63543" lon="3.84547">
        <ele>57.82</ele>
        <time>2013-08-09T07:40:14Z</time>
      </trkpt>
      <trkpt lat="43.63546" lon="3.84554">
        <ele>57.34</ele>
        <time>2013-08-09T07:40:15Z</time>
      </trkpt>
      <trkpt lat="43.63549" lon="3.84559">
        <ele>57.34</ele>
        <time>2013-08-09T07:40:16Z</time>
      </trkpt>
      <trkpt lat="43.63553" lon="3.84562">
        <ele>56.86</ele>
        <time>2013-08-09T07:40:17Z</time>
      </trkpt>
      <trkpt lat="43.63558" lon="3.84561">
        <ele>56.86</ele>
        <time>2013-08-09T07:40:18Z</time>
      </trkpt>
      <trkpt lat="43.63565" lon="3.84556">
        <ele>55.89</ele>
        <time>2013-08-09T07:40:19Z</time>
      </trkpt>
      <trkpt lat="43.6357" lon="3.84548">
        <ele>55.89</ele>
        <time>2013-08-09T07:40:20Z</time>
      </trkpt>
      <trkpt lat="43.63575" lon="3.84539">
        <ele>55.89</ele>
        <time>2013-08-09T07:40:21Z</time>
      </trkpt>
      <trkpt lat="43.63587" lon="3.8452">
        <ele>55.41</ele>
        <time>2013-08-09T07:40:23Z</time>
      </trkpt>
      <trkpt lat="43.63594" lon="3.84512">
        <ele>55.41</ele>
        <time>2013-08-09T07:40:24Z</time>
      </trkpt>
      <trkpt lat="43.636" lon="3.84506">
        <ele>55.41</ele>
        <time>2013-08-09T07:40:25Z</time>
      </trkpt>
      <trkpt lat="43.63629" lon="3.84477">
        <ele>55.41</ele>
        <time>2013-08-09T07:40:33Z</time>
      </trkpt>
      <trkpt lat="43.63628" lon="3.84478">
        <ele>54.93</ele>
        <time>2013-08-09T07:40:53Z</time>
      </trkpt>
      <trkpt lat="43.63633" lon="3.84474">
        <ele>55.41</ele>
        <time>2013-08-09T07:41:36Z</time>
      </trkpt>
      <trkpt lat="43.63638" lon="3.84473">
        <ele>55.41</ele>
        <time>2013-08-09T07:41:37Z</time>
      </trkpt>
      <trkpt lat="43.63644" lon="3.84474">
        <ele>55.41</ele>
        <time>2013-08-09T07:41:38Z</time>
      </trkpt>
      <trkpt lat="43.63651" lon="3.84479">
        <ele>55.89</ele>
        <time>2013-08-09T07:41:39Z</time>
      </trkpt>
      <trkpt lat="43.6366" lon="3.84485">
        <ele>56.37</ele>
        <time>2013-08-09T07:41:40Z</time>
      </trkpt>
      <trkpt lat="43.63669" lon="3.84493">
        <ele>56.86</ele>
        <time>2013-08-09T07:41:41Z</time>
      </trkpt>
      <trkpt lat="43.63769" lon="3.84587">
        <ele>57.82</ele>
        <time>2013-08-09T07:41:50Z</time>
      </trkpt>
      <trkpt lat="43.63911" lon="3.84674">
        <ele>57.82</ele>
        <time>2013-08-09T07:42:00Z</time>
      </trkpt>
      <trkpt lat="43.64248" lon="3.84788">
        <ele>70.31</ele>
        <time>2013-08-09T07:42:20Z</time>
      </trkpt>
      <trkpt lat="43.64331" lon="3.849">
        <ele>76.08</ele>
        <time>2013-08-09T07:42:27Z</time>
      </trkpt>
      <trkpt lat="43.64398" lon="3.85058">
        <ele>78</ele>
        <time>2013-08-09T07:42:35Z</time>
      </trkpt>
      <trkpt lat="43.64453" lon="3.85158">
        <ele>74.16</ele>
        <time>2013-08-09T07:42:43Z</time>
      </trkpt>
      <trkpt lat="43.64488" lon="3.85235">
        <ele>74.64</ele>
        <time>2013-08-09T07:42:52Z</time>
      </trkpt>
      <trkpt lat="43.6449" lon="3.85244">
        <ele>74.64</ele>
        <time>2013-08-09T07:42:53Z</time>
      </trkpt>
      <trkpt lat="43.64492" lon="3.85262">
        <ele>74.64</ele>
        <time>2013-08-09T07:42:55Z</time>
      </trkpt>
      <trkpt lat="43.64494" lon="3.85271">
        <ele>74.64</ele>
        <time>2013-08-09T07:42:56Z</time>
      </trkpt>
      <trkpt lat="43.64498" lon="3.85278">
        <ele>74.64</ele>
        <time>2013-08-09T07:42:57Z</time>
      </trkpt>
      <trkpt lat="43.64502" lon="3.85283">
        <ele>75.12</ele>
        <time>2013-08-09T07:42:58Z</time>
      </trkpt>
      <trkpt lat="43.64508" lon="3.85287">
        <ele>75.12</ele>
        <time>2013-08-09T07:42:59Z</time>
      </trkpt>
      <trkpt lat="43.64514" lon="3.8529">
        <ele>75.12</ele>
        <time>2013-08-09T07:43:00Z</time>
      </trkpt>
      <trkpt lat="43.6452" lon="3.85292">
        <ele>74.64</ele>
        <time>2013-08-09T07:43:01Z</time>
      </trkpt>
      <trkpt lat="43.64527" lon="3.85296">
        <ele>74.64</ele>
        <time>2013-08-09T07:43:02Z</time>
      </trkpt>
      <trkpt lat="43.64533" lon="3.85302">
        <ele>74.64</ele>
        <time>2013-08-09T07:43:03Z</time>
      </trkpt>
      <trkpt lat="43.64538" lon="3.8531">
        <ele>74.64</ele>
        <time>2013-08-09T07:43:04Z</time>
      </trkpt>
      <trkpt lat="43.64544" lon="3.85319">
        <ele>74.16</ele>
        <time>2013-08-09T07:43:05Z</time>
      </trkpt>
      <trkpt lat="43.64613" lon="3.85393">
        <ele>70.79</ele>
        <time>2013-08-09T07:43:13Z</time>
      </trkpt>
      <trkpt lat="43.64781" lon="3.85477">
        <ele>63.58</ele>
        <time>2013-08-09T07:43:27Z</time>
      </trkpt>
      <trkpt lat="43.64897" lon="3.85588">
        <ele>58.3</ele>
        <time>2013-08-09T07:43:37Z</time>
      </trkpt>
      <trkpt lat="43.64972" lon="3.8575">
        <ele>58.78</ele>
        <time>2013-08-09T07:43:46Z</time>
      </trkpt>
      <trkpt lat="43.65012" lon="3.85918">
        <ele>57.82</ele>
        <time>2013-08-09T07:43:55Z</time>
      </trkpt>
      <trkpt lat="43.65038" lon="3.86139">
        <ele>51.57</ele>
        <time>2013-08-09T07:44:06Z</time>
      </trkpt>
      <trkpt lat="43.65068" lon="3.8639">
        <ele>45.32</ele>
        <time>2013-08-09T07:44:20Z</time>
      </trkpt>
      <trkpt lat="43.65075" lon="3.86513">
        <ele>45.8</ele>
        <time>2013-08-09T07:44:29Z</time>
      </trkpt>
      <trkpt lat="43.65073" lon="3.86545">
        <ele>46.76</ele>
        <time>2013-08-09T07:44:36Z</time>
      </trkpt>
      <trkpt lat="43.6507" lon="3.8655">
        <ele>46.76</ele>
        <time>2013-08-09T07:44:37Z</time>
      </trkpt>
      <trkpt lat="43.65066" lon="3.86557">
        <ele>46.28</ele>
        <time>2013-08-09T07:44:38Z</time>
      </trkpt>
      <trkpt lat="43.6506" lon="3.86567">
        <ele>46.28</ele>
        <time>2013-08-09T07:44:39Z</time>
      </trkpt>
      <trkpt lat="43.65054" lon="3.86578">
        <ele>46.28</ele>
        <time>2013-08-09T07:44:40Z</time>
      </trkpt>
      <trkpt lat="43.65051" lon="3.86592">
        <ele>46.76</ele>
        <time>2013-08-09T07:44:41Z</time>
      </trkpt>
      <trkpt lat="43.65049" lon="3.86606">
        <ele>47.24</ele>
        <time>2013-08-09T07:44:42Z</time>
      </trkpt>
      <trkpt lat="43.65051" lon="3.86622">
        <ele>47.72</ele>
        <time>2013-08-09T07:44:43Z</time>
      </trkpt>
      <trkpt lat="43.65056" lon="3.86636">
        <ele>48.2</ele>
        <time>2013-08-09T07:44:44Z</time>
      </trkpt>
      <trkpt lat="43.65063" lon="3.86649">
        <ele>48.2</ele>
        <time>2013-08-09T07:44:45Z</time>
      </trkpt>
      <trkpt lat="43.65072" lon="3.8666">
        <ele>48.2</ele>
        <time>2013-08-09T07:44:46Z</time>
      </trkpt>
      <trkpt lat="43.6508" lon="3.8667">
        <ele>47.72</ele>
        <time>2013-08-09T07:44:47Z</time>
      </trkpt>
      <trkpt lat="43.65088" lon="3.86684">
        <ele>47.72</ele>
        <time>2013-08-09T07:44:48Z</time>
      </trkpt>
      <trkpt lat="43.65093" lon="3.86702">
        <ele>47.72</ele>
        <time>2013-08-09T07:44:49Z</time>
      </trkpt>
      <trkpt lat="43.65095" lon="3.86725">
        <ele>47.72</ele>
        <time>2013-08-09T07:44:50Z</time>
      </trkpt>
      <trkpt lat="43.65099" lon="3.8675">
        <ele>47.72</ele>
        <time>2013-08-09T07:44:51Z</time>
      </trkpt>
      <trkpt lat="43.6513" lon="3.86923">
        <ele>48.2</ele>
        <time>2013-08-09T07:44:57Z</time>
      </trkpt>
      <trkpt lat="43.65202" lon="3.87116">
        <ele>46.76</ele>
        <time>2013-08-09T07:45:05Z</time>
      </trkpt>
      <trkpt lat="43.65284" lon="3.87229">
        <ele>47.72</ele>
        <time>2013-08-09T07:45:12Z</time>
      </trkpt>
      <trkpt lat="43.65329" lon="3.87267">
        <ele>49.65</ele>
        <time>2013-08-09T07:45:17Z</time>
      </trkpt>
      <trkpt lat="43.65334" lon="3.87276">
        <ele>50.13</ele>
        <time>2013-08-09T07:45:18Z</time>
      </trkpt>
      <trkpt lat="43.65337" lon="3.87287">
        <ele>50.61</ele>
        <time>2013-08-09T07:45:19Z</time>
      </trkpt>
      <trkpt lat="43.65339" lon="3.873">
        <ele>50.61</ele>
        <time>2013-08-09T07:45:20Z</time>
      </trkpt>
      <trkpt lat="43.65342" lon="3.87314">
        <ele>50.61</ele>
        <time>2013-08-09T07:45:21Z</time>
      </trkpt>
      <trkpt lat="43.65347" lon="3.87328">
        <ele>51.09</ele>
        <time>2013-08-09T07:45:22Z</time>
      </trkpt>
      <trkpt lat="43.65354" lon="3.87341">
        <ele>51.09</ele>
        <time>2013-08-09T07:45:23Z</time>
      </trkpt>
      <trkpt lat="43.65362" lon="3.87353">
        <ele>51.57</ele>
        <time>2013-08-09T07:45:24Z</time>
      </trkpt>
      <trkpt lat="43.6537" lon="3.87364">
        <ele>51.57</ele>
        <time>2013-08-09T07:45:25Z</time>
      </trkpt>
      <trkpt lat="43.6538" lon="3.87375">
        <ele>52.05</ele>
        <time>2013-08-09T07:45:26Z</time>
      </trkpt>
      <trkpt lat="43.65438" lon="3.87429">
        <ele>53.97</ele>
        <time>2013-08-09T07:45:32Z</time>
      </trkpt>
      <trkpt lat="43.65448" lon="3.87434">
        <ele>53.97</ele>
        <time>2013-08-09T07:45:33Z</time>
      </trkpt>
      <trkpt lat="43.65457" lon="3.8744">
        <ele>54.45</ele>
        <time>2013-08-09T07:45:34Z</time>
      </trkpt>
      <trkpt lat="43.65465" lon="3.87446">
        <ele>54.45</ele>
        <time>2013-08-09T07:45:35Z</time>
      </trkpt>
      <trkpt lat="43.65472" lon="3.87455">
        <ele>54.45</ele>
        <time>2013-08-09T07:45:36Z</time>
      </trkpt>
      <trkpt lat="43.65476" lon="3.87468">
        <ele>54.93</ele>
        <time>2013-08-09T07:45:37Z</time>
      </trkpt>
      <trkpt lat="43.6548" lon="3.87485">
        <ele>54.93</ele>
        <time>2013-08-09T07:45:38Z</time>
      </trkpt>
      <trkpt lat="43.65483" lon="3.87504">
        <ele>54.93</ele>
        <time>2013-08-09T07:45:39Z</time>
      </trkpt>
      <trkpt lat="43.65486" lon="3.87526">
        <ele>54.93</ele>
        <time>2013-08-09T07:45:40Z</time>
      </trkpt>
      <trkpt lat="43.65488" lon="3.8755">
        <ele>54.45</ele>
        <time>2013-08-09T07:45:41Z</time>
      </trkpt>
      <trkpt lat="43.65488" lon="3.87575">
        <ele>53.97</ele>
        <time>2013-08-09T07:45:42Z</time>
      </trkpt>
      <trkpt lat="43.65488" lon="3.87603">
        <ele>53.49</ele>
        <time>2013-08-09T07:45:43Z</time>
      </trkpt>
      <trkpt lat="43.65476" lon="3.87894">
        <ele>54.45</ele>
        <time>2013-08-09T07:45:53Z</time>
      </trkpt>
      <trkpt lat="43.6547" lon="3.87921">
        <ele>54.45</ele>
        <time>2013-08-09T07:45:54Z</time>
      </trkpt>
      <trkpt lat="43.65461" lon="3.87947">
        <ele>54.45</ele>
        <time>2013-08-09T07:45:55Z</time>
      </trkpt>
      <trkpt lat="43.65449" lon="3.87972">
        <ele>54.45</ele>
        <time>2013-08-09T07:45:56Z</time>
      </trkpt>
      <trkpt lat="43.65436" lon="3.87995">
        <ele>54.93</ele>
        <time>2013-08-09T07:45:57Z</time>
      </trkpt>
      <trkpt lat="43.65421" lon="3.88016">
        <ele>54.93</ele>
        <time>2013-08-09T07:45:58Z</time>
      </trkpt>
      <trkpt lat="43.65407" lon="3.88036">
        <ele>55.41</ele>
        <time>2013-08-09T07:45:59Z</time>
      </trkpt>
      <trkpt lat="43.65263" lon="3.88228">
        <ele>50.61</ele>
        <time>2013-08-09T07:46:10Z</time>
      </trkpt>
      <trkpt lat="43.65159" lon="3.88317">
        <ele>53.97</ele>
        <time>2013-08-09T07:46:17Z</time>
      </trkpt>
      <trkpt lat="43.64953" lon="3.884">
        <ele>48.68</ele>
        <time>2013-08-09T07:46:28Z</time>
      </trkpt>
      <trkpt lat="43.64827" lon="3.88468">
        <ele>44.36</ele>
        <time>2013-08-09T07:46:35Z</time>
      </trkpt>
      <trkpt lat="43.64811" lon="3.88484">
        <ele>43.4</ele>
        <time>2013-08-09T07:46:36Z</time>
      </trkpt>
      <trkpt lat="43.64796" lon="3.88503">
        <ele>42.92</ele>
        <time>2013-08-09T07:46:37Z</time>
      </trkpt>
      <trkpt lat="43.64783" lon="3.88524">
        <ele>42.44</ele>
        <time>2013-08-09T07:46:38Z</time>
      </trkpt>
      <trkpt lat="43.6477" lon="3.88547">
        <ele>41.95</ele>
        <time>2013-08-09T07:46:39Z</time>
      </trkpt>
      <trkpt lat="43.64759" lon="3.88571">
        <ele>40.99</ele>
        <time>2013-08-09T07:46:40Z</time>
      </trkpt>
      <trkpt lat="43.6475" lon="3.88596">
        <ele>40.51</ele>
        <time>2013-08-09T07:46:41Z</time>
      </trkpt>
      <trkpt lat="43.64742" lon="3.88622">
        <ele>40.03</ele>
        <time>2013-08-09T07:46:42Z</time>
      </trkpt>
      <trkpt lat="43.64736" lon="3.88648">
        <ele>40.03</ele>
        <time>2013-08-09T07:46:43Z</time>
      </trkpt>
      <trkpt lat="43.64658" lon="3.88852">
        <ele>39.55</ele>
        <time>2013-08-09T07:46:52Z</time>
      </trkpt>
      <trkpt lat="43.64551" lon="3.89001">
        <ele>38.59</ele>
        <time>2013-08-09T07:47:00Z</time>
      </trkpt>
      <trkpt lat="43.6441" lon="3.89169">
        <ele>37.15</ele>
        <time>2013-08-09T07:47:10Z</time>
      </trkpt>
      <trkpt lat="43.64336" lon="3.89334">
        <ele>39.07</ele>
        <time>2013-08-09T07:47:18Z</time>
      </trkpt>
      <trkpt lat="43.64315" lon="3.89528">
        <ele>41.47</ele>
        <time>2013-08-09T07:47:26Z</time>
      </trkpt>
      <trkpt lat="43.64349" lon="3.89723">
        <ele>42.92</ele>
        <time>2013-08-09T07:47:34Z</time>
      </trkpt>
      <trkpt lat="43.64447" lon="3.90045">
        <ele>45.32</ele>
        <time>2013-08-09T07:47:47Z</time>
      </trkpt>
      <trkpt lat="43.64891" lon="3.91623">
        <ele>84.73</ele>
        <time>2013-08-09T07:48:54Z</time>
      </trkpt>
      <trkpt lat="43.64966" lon="3.91899">
        <ele>85.69</ele>
        <time>2013-08-09T07:49:05Z</time>
      </trkpt>
      <trkpt lat="43.65049" lon="3.92041">
        <ele>86.18</ele>
        <time>2013-08-09T07:49:13Z</time>
      </trkpt>
      <trkpt lat="43.65061" lon="3.92051">
        <ele>86.66</ele>
        <time>2013-08-09T07:49:14Z</time>
      </trkpt>
      <trkpt lat="43.65072" lon="3.92061">
        <ele>86.66</ele>
        <time>2013-08-09T07:49:15Z</time>
      </trkpt>
      <trkpt lat="43.65144" lon="3.92103">
        <ele>84.73</ele>
        <time>2013-08-09T07:49:23Z</time>
      </trkpt>
      <trkpt lat="43.65152" lon="3.92114">
        <ele>84.73</ele>
        <time>2013-08-09T07:49:26Z</time>
      </trkpt>
      <trkpt lat="43.65154" lon="3.92123">
        <ele>84.25</ele>
        <time>2013-08-09T07:49:27Z</time>
      </trkpt>
      <trkpt lat="43.65158" lon="3.92134">
        <ele>83.77</ele>
        <time>2013-08-09T07:49:28Z</time>
      </trkpt>
      <trkpt lat="43.65163" lon="3.92144">
        <ele>83.29</ele>
        <time>2013-08-09T07:49:29Z</time>
      </trkpt>
      <trkpt lat="43.6517" lon="3.92152">
        <ele>82.81</ele>
        <time>2013-08-09T07:49:30Z</time>
      </trkpt>
      <trkpt lat="43.65178" lon="3.92158">
        <ele>82.33</ele>
        <time>2013-08-09T07:49:31Z</time>
      </trkpt>
      <trkpt lat="43.65188" lon="3.9216">
        <ele>81.85</ele>
        <time>2013-08-09T07:49:32Z</time>
      </trkpt>
      <trkpt lat="43.65198" lon="3.92159">
        <ele>81.85</ele>
        <time>2013-08-09T07:49:33Z</time>
      </trkpt>
      <trkpt lat="43.65207" lon="3.92154">
        <ele>81.37</ele>
        <time>2013-08-09T07:49:34Z</time>
      </trkpt>
      <trkpt lat="43.65217" lon="3.92151">
        <ele>80.89</ele>
        <time>2013-08-09T07:49:35Z</time>
      </trkpt>
      <trkpt lat="43.65227" lon="3.9215">
        <ele>80.41</ele>
        <time>2013-08-09T07:49:36Z</time>
      </trkpt>
      <trkpt lat="43.65237" lon="3.92154">
        <ele>80.41</ele>
        <time>2013-08-09T07:49:37Z</time>
      </trkpt>
      <trkpt lat="43.65246" lon="3.92159">
        <ele>79.93</ele>
        <time>2013-08-09T07:49:38Z</time>
      </trkpt>
      <trkpt lat="43.65254" lon="3.92164">
        <ele>79.45</ele>
        <time>2013-08-09T07:49:39Z</time>
      </trkpt>
      <trkpt lat="43.65268" lon="3.92171">
        <ele>78.97</ele>
        <time>2013-08-09T07:49:44Z</time>
      </trkpt>
      <trkpt lat="43.65292" lon="3.92181">
        <ele>76.56</ele>
        <time>2013-08-09T07:50:40Z</time>
      </trkpt>
      <trkpt lat="43.65381" lon="3.92225">
        <ele>71.76</ele>
        <time>2013-08-09T07:50:46Z</time>
      </trkpt>
      <trkpt lat="43.65606" lon="3.9234">
        <ele>61.18</ele>
        <time>2013-08-09T07:50:58Z</time>
      </trkpt>
      <trkpt lat="43.6579" lon="3.92447">
        <ele>60.7</ele>
        <time>2013-08-09T07:51:07Z</time>
      </trkpt>
      <trkpt lat="43.65906" lon="3.92588">
        <ele>61.18</ele>
        <time>2013-08-09T07:51:14Z</time>
      </trkpt>
      <trkpt lat="43.65966" lon="3.92743">
        <ele>56.37</ele>
        <time>2013-08-09T07:51:20Z</time>
      </trkpt>
      <trkpt lat="43.65989" lon="3.92851">
        <ele>52.05</ele>
        <time>2013-08-09T07:51:26Z</time>
      </trkpt>
      <trkpt lat="43.65989" lon="3.92863">
        <ele>51.57</ele>
        <time>2013-08-09T07:51:27Z</time>
      </trkpt>
      <trkpt lat="43.65988" lon="3.92876">
        <ele>51.09</ele>
        <time>2013-08-09T07:51:28Z</time>
      </trkpt>
      <trkpt lat="43.65982" lon="3.9289">
        <ele>51.09</ele>
        <time>2013-08-09T07:51:29Z</time>
      </trkpt>
      <trkpt lat="43.65974" lon="3.92907">
        <ele>50.61</ele>
        <time>2013-08-09T07:51:30Z</time>
      </trkpt>
      <trkpt lat="43.65965" lon="3.92925">
        <ele>50.13</ele>
        <time>2013-08-09T07:51:31Z</time>
      </trkpt>
      <trkpt lat="43.65943" lon="3.9299">
        <ele>49.65</ele>
        <time>2013-08-09T07:51:34Z</time>
      </trkpt>
      <trkpt lat="43.65939" lon="3.93012">
        <ele>49.65</ele>
        <time>2013-08-09T07:51:35Z</time>
      </trkpt>
      <trkpt lat="43.65937" lon="3.93033">
        <ele>49.65</ele>
        <time>2013-08-09T07:51:36Z</time>
      </trkpt>
      <trkpt lat="43.65938" lon="3.93051">
        <ele>49.65</ele>
        <time>2013-08-09T07:51:37Z</time>
      </trkpt>
      <trkpt lat="43.65942" lon="3.93065">
        <ele>49.65</ele>
        <time>2013-08-09T07:51:38Z</time>
      </trkpt>
      <trkpt lat="43.65947" lon="3.93076">
        <ele>49.65</ele>
        <time>2013-08-09T07:51:39Z</time>
      </trkpt>
      <trkpt lat="43.65954" lon="3.93086">
        <ele>49.65</ele>
        <time>2013-08-09T07:51:40Z</time>
      </trkpt>
      <trkpt lat="43.65959" lon="3.93096">
        <ele>49.65</ele>
        <time>2013-08-09T07:51:41Z</time>
      </trkpt>
      <trkpt lat="43.65964" lon="3.93107">
        <ele>49.16</ele>
        <time>2013-08-09T07:51:42Z</time>
      </trkpt>
      <trkpt lat="43.65964" lon="3.93121">
        <ele>49.16</ele>
        <time>2013-08-09T07:51:43Z</time>
      </trkpt>
      <trkpt lat="43.65961" lon="3.93134">
        <ele>49.16</ele>
        <time>2013-08-09T07:51:44Z</time>
      </trkpt>
      <trkpt lat="43.65958" lon="3.9315">
        <ele>49.16</ele>
        <time>2013-08-09T07:51:45Z</time>
      </trkpt>
      <trkpt lat="43.65954" lon="3.93167">
        <ele>49.16</ele>
        <time>2013-08-09T07:51:46Z</time>
      </trkpt>
      <trkpt lat="43.65921" lon="3.93346">
        <ele>49.16</ele>
        <time>2013-08-09T07:51:56Z</time>
      </trkpt>
      <trkpt lat="43.65882" lon="3.9349">
        <ele>48.68</ele>
        <time>2013-08-09T07:52:06Z</time>
      </trkpt>
      <trkpt lat="43.65875" lon="3.93519">
        <ele>48.68</ele>
        <time>2013-08-09T07:52:09Z</time>
      </trkpt>
      <trkpt lat="43.65871" lon="3.93528">
        <ele>48.68</ele>
        <time>2013-08-09T07:52:10Z</time>
      </trkpt>
      <trkpt lat="43.65866" lon="3.93538">
        <ele>48.68</ele>
        <time>2013-08-09T07:52:11Z</time>
      </trkpt>
      <trkpt lat="43.65856" lon="3.93558">
        <ele>48.68</ele>
        <time>2013-08-09T07:52:13Z</time>
      </trkpt>
      <trkpt lat="43.65852" lon="3.9357">
        <ele>48.68</ele>
        <time>2013-08-09T07:52:14Z</time>
      </trkpt>
      <trkpt lat="43.65851" lon="3.93582">
        <ele>48.2</ele>
        <time>2013-08-09T07:52:15Z</time>
      </trkpt>
      <trkpt lat="43.65852" lon="3.93593">
        <ele>48.68</ele>
        <time>2013-08-09T07:52:16Z</time>
      </trkpt>
      <trkpt lat="43.65855" lon="3.93602">
        <ele>48.68</ele>
        <time>2013-08-09T07:52:17Z</time>
      </trkpt>
      <trkpt lat="43.65859" lon="3.9361">
        <ele>48.68</ele>
        <time>2013-08-09T07:52:18Z</time>
      </trkpt>
      <trkpt lat="43.65864" lon="3.93617">
        <ele>48.68</ele>
        <time>2013-08-09T07:52:19Z</time>
      </trkpt>
      <trkpt lat="43.65869" lon="3.93622">
        <ele>48.2</ele>
        <time>2013-08-09T07:52:20Z</time>
      </trkpt>
      <trkpt lat="43.65875" lon="3.93626">
        <ele>48.68</ele>
        <time>2013-08-09T07:52:21Z</time>
      </trkpt>
      <trkpt lat="43.65887" lon="3.9364">
        <ele>48.68</ele>
        <time>2013-08-09T07:52:23Z</time>
      </trkpt>
      <trkpt lat="43.65894" lon="3.9365">
        <ele>48.68</ele>
        <time>2013-08-09T07:52:24Z</time>
      </trkpt>
      <trkpt lat="43.65902" lon="3.93664">
        <ele>49.16</ele>
        <time>2013-08-09T07:52:25Z</time>
      </trkpt>
      <trkpt lat="43.65948" lon="3.9379">
        <ele>49.65</ele>
        <time>2013-08-09T07:52:32Z</time>
      </trkpt>
      <trkpt lat="43.65975" lon="3.93914">
        <ele>50.61</ele>
        <time>2013-08-09T07:52:37Z</time>
      </trkpt>
      <trkpt lat="43.66013" lon="3.94105">
        <ele>52.53</ele>
        <time>2013-08-09T07:52:43Z</time>
      </trkpt>
      <trkpt lat="43.66048" lon="3.94293">
        <ele>55.89</ele>
        <time>2013-08-09T07:52:49Z</time>
      </trkpt>
      <trkpt lat="43.6606" lon="3.94483">
        <ele>58.3</ele>
        <time>2013-08-09T07:52:56Z</time>
      </trkpt>
      <trkpt lat="43.66064" lon="3.94585">
        <ele>59.26</ele>
        <time>2013-08-09T07:53:01Z</time>
      </trkpt>
      <trkpt lat="43.66061" lon="3.94603">
        <ele>59.74</ele>
        <time>2013-08-09T07:53:02Z</time>
      </trkpt>
      <trkpt lat="43.66057" lon="3.94622">
        <ele>60.22</ele>
        <time>2013-08-09T07:53:03Z</time>
      </trkpt>
      <trkpt lat="43.66056" lon="3.94643">
        <ele>59.74</ele>
        <time>2013-08-09T07:53:04Z</time>
      </trkpt>
      <trkpt lat="43.66055" lon="3.94666">
        <ele>60.22</ele>
        <time>2013-08-09T07:53:05Z</time>
      </trkpt>
      <trkpt lat="43.66041" lon="3.94824">
        <ele>61.66</ele>
        <time>2013-08-09T07:53:11Z</time>
      </trkpt>
      <trkpt lat="43.6598" lon="3.9503">
        <ele>61.66</ele>
        <time>2013-08-09T07:53:20Z</time>
      </trkpt>
      <trkpt lat="43.65967" lon="3.95058">
        <ele>61.18</ele>
        <time>2013-08-09T07:53:22Z</time>
      </trkpt>
      <trkpt lat="43.6596" lon="3.95069">
        <ele>61.18</ele>
        <time>2013-08-09T07:53:23Z</time>
      </trkpt>
      <trkpt lat="43.65951" lon="3.95077">
        <ele>61.18</ele>
        <time>2013-08-09T07:53:24Z</time>
      </trkpt>
      <trkpt lat="43.65932" lon="3.95094">
        <ele>61.18</ele>
        <time>2013-08-09T07:53:26Z</time>
      </trkpt>
      <trkpt lat="43.65925" lon="3.95105">
        <ele>61.18</ele>
        <time>2013-08-09T07:53:27Z</time>
      </trkpt>
      <trkpt lat="43.65924" lon="3.95119">
        <ele>60.7</ele>
        <time>2013-08-09T07:53:28Z</time>
      </trkpt>
      <trkpt lat="43.65926" lon="3.95134">
        <ele>60.7</ele>
        <time>2013-08-09T07:53:29Z</time>
      </trkpt>
      <trkpt lat="43.6593" lon="3.95148">
        <ele>60.22</ele>
        <time>2013-08-09T07:53:30Z</time>
      </trkpt>
      <trkpt lat="43.65934" lon="3.95165">
        <ele>60.22</ele>
        <time>2013-08-09T07:53:31Z</time>
      </trkpt>
      <trkpt lat="43.65935" lon="3.95183">
        <ele>59.74</ele>
        <time>2013-08-09T07:53:32Z</time>
      </trkpt>
      <trkpt lat="43.65934" lon="3.95204">
        <ele>59.74</ele>
        <time>2013-08-09T07:53:33Z</time>
      </trkpt>
      <trkpt lat="43.65931" lon="3.95227">
        <ele>59.26</ele>
        <time>2013-08-09T07:53:34Z</time>
      </trkpt>
      <trkpt lat="43.65927" lon="3.95252">
        <ele>59.26</ele>
        <time>2013-08-09T07:53:35Z</time>
      </trkpt>
      <trkpt lat="43.6588" lon="3.95546">
        <ele>55.41</ele>
        <time>2013-08-09T07:53:45Z</time>
      </trkpt>
      <trkpt lat="43.65815" lon="3.95899">
        <ele>55.41</ele>
        <time>2013-08-09T07:53:57Z</time>
      </trkpt>
      <trkpt lat="43.65817" lon="3.96087">
        <ele>49.65</ele>
        <time>2013-08-09T07:54:04Z</time>
      </trkpt>
      <trkpt lat="43.65824" lon="3.96223">
        <ele>47.72</ele>
        <time>2013-08-09T07:54:11Z</time>
      </trkpt>
      <trkpt lat="43.65824" lon="3.96267">
        <ele>47.72</ele>
        <time>2013-08-09T07:54:18Z</time>
      </trkpt>
      <trkpt lat="43.65824" lon="3.96271">
        <ele>47.72</ele>
        <time>2013-08-09T07:54:34Z</time>
      </trkpt>
      <trkpt lat="43.65824" lon="3.96319">
        <ele>48.2</ele>
        <time>2013-08-09T07:54:41Z</time>
      </trkpt>
      <trkpt lat="43.65826" lon="3.96326">
        <ele>48.2</ele>
        <time>2013-08-09T07:54:42Z</time>
      </trkpt>
      <trkpt lat="43.65829" lon="3.96334">
        <ele>48.2</ele>
        <time>2013-08-09T07:54:43Z</time>
      </trkpt>
      <trkpt lat="43.65834" lon="3.96341">
        <ele>48.2</ele>
        <time>2013-08-09T07:54:44Z</time>
      </trkpt>
      <trkpt lat="43.65841" lon="3.96348">
        <ele>48.2</ele>
        <time>2013-08-09T07:54:45Z</time>
      </trkpt>
      <trkpt lat="43.6585" lon="3.96356">
        <ele>48.2</ele>
        <time>2013-08-09T07:54:46Z</time>
      </trkpt>
      <trkpt lat="43.65964" lon="3.9645">
        <ele>48.2</ele>
        <time>2013-08-09T07:54:57Z</time>
      </trkpt>
      <trkpt lat="43.66063" lon="3.96546">
        <ele>46.76</ele>
        <time>2013-08-09T07:55:05Z</time>
      </trkpt>
      <trkpt lat="43.66269" lon="3.9678">
        <ele>45.32</ele>
        <time>2013-08-09T07:55:23Z</time>
      </trkpt>
      <trkpt lat="43.66402" lon="3.9694">
        <ele>47.72</ele>
        <time>2013-08-09T07:55:36Z</time>
      </trkpt>
      <trkpt lat="43.66551" lon="3.97069">
        <ele>49.16</ele>
        <time>2013-08-09T07:55:50Z</time>
      </trkpt>
      <trkpt lat="43.66679" lon="3.9719">
        <ele>50.13</ele>
        <time>2013-08-09T07:56:01Z</time>
      </trkpt>
      <trkpt lat="43.66701" lon="3.97222">
        <ele>50.13</ele>
        <time>2013-08-09T07:56:03Z</time>
      </trkpt>
      <trkpt lat="43.66711" lon="3.9724">
        <ele>50.13</ele>
        <time>2013-08-09T07:56:04Z</time>
      </trkpt>
      <trkpt lat="43.66719" lon="3.97258">
        <ele>50.13</ele>
        <time>2013-08-09T07:56:05Z</time>
      </trkpt>
      <trkpt lat="43.66726" lon="3.97277">
        <ele>50.13</ele>
        <time>2013-08-09T07:56:06Z</time>
      </trkpt>
      <trkpt lat="43.66732" lon="3.97297">
        <ele>50.13</ele>
        <time>2013-08-09T07:56:07Z</time>
      </trkpt>
      <trkpt lat="43.66737" lon="3.97317">
        <ele>50.13</ele>
        <time>2013-08-09T07:56:08Z</time>
      </trkpt>
      <trkpt lat="43.66741" lon="3.97338">
        <ele>50.13</ele>
        <time>2013-08-09T07:56:09Z</time>
      </trkpt>
      <trkpt lat="43.66744" lon="3.97358">
        <ele>50.13</ele>
        <time>2013-08-09T07:56:10Z</time>
      </trkpt>
      <trkpt lat="43.66762" lon="3.97431">
        <ele>50.61</ele>
        <time>2013-08-09T07:56:14Z</time>
      </trkpt>
      <trkpt lat="43.6678" lon="3.97477">
        <ele>51.09</ele>
        <time>2013-08-09T07:56:19Z</time>
      </trkpt>
      <trkpt lat="43.66781" lon="3.97483">
        <ele>51.09</ele>
        <time>2013-08-09T07:56:20Z</time>
      </trkpt>
      <trkpt lat="43.6678" lon="3.97495">
        <ele>51.09</ele>
        <time>2013-08-09T07:56:21Z</time>
      </trkpt>
      <trkpt lat="43.66781" lon="3.97524">
        <ele>50.61</ele>
        <time>2013-08-09T07:56:23Z</time>
      </trkpt>
      <trkpt lat="43.66783" lon="3.97537">
        <ele>50.61</ele>
        <time>2013-08-09T07:56:24Z</time>
      </trkpt>
      <trkpt lat="43.66787" lon="3.97549">
        <ele>50.13</ele>
        <time>2013-08-09T07:56:25Z</time>
      </trkpt>
      <trkpt lat="43.66793" lon="3.97559">
        <ele>50.13</ele>
        <time>2013-08-09T07:56:26Z</time>
      </trkpt>
      <trkpt lat="43.66799" lon="3.97566">
        <ele>50.13</ele>
        <time>2013-08-09T07:56:27Z</time>
      </trkpt>
      <trkpt lat="43.66807" lon="3.97573">
        <ele>50.13</ele>
        <time>2013-08-09T07:56:28Z</time>
      </trkpt>
      <trkpt lat="43.66815" lon="3.97577">
        <ele>50.13</ele>
        <time>2013-08-09T07:56:29Z</time>
      </trkpt>
      <trkpt lat="43.66824" lon="3.97578">
        <ele>50.13</ele>
        <time>2013-08-09T07:56:30Z</time>
      </trkpt>
      <trkpt lat="43.66833" lon="3.97577">
        <ele>49.65</ele>
        <time>2013-08-09T07:56:31Z</time>
      </trkpt>
      <trkpt lat="43.66842" lon="3.97574">
        <ele>49.65</ele>
        <time>2013-08-09T07:56:32Z</time>
      </trkpt>
      <trkpt lat="43.6685" lon="3.97569">
        <ele>49.65</ele>
        <time>2013-08-09T07:56:33Z</time>
      </trkpt>
      <trkpt lat="43.66858" lon="3.97561">
        <ele>50.13</ele>
        <time>2013-08-09T07:56:34Z</time>
      </trkpt>
      <trkpt lat="43.66865" lon="3.97554">
        <ele>50.13</ele>
        <time>2013-08-09T07:56:35Z</time>
      </trkpt>
      <trkpt lat="43.66873" lon="3.97548">
        <ele>50.13</ele>
        <time>2013-08-09T07:56:36Z</time>
      </trkpt>
      <trkpt lat="43.66883" lon="3.97544">
        <ele>50.13</ele>
        <time>2013-08-09T07:56:37Z</time>
      </trkpt>
      <trkpt lat="43.66893" lon="3.97544">
        <ele>50.61</ele>
        <time>2013-08-09T07:56:38Z</time>
      </trkpt>
      <trkpt lat="43.66903" lon="3.97548">
        <ele>50.13</ele>
        <time>2013-08-09T07:56:39Z</time>
      </trkpt>
      <trkpt lat="43.66912" lon="3.97554">
        <ele>50.61</ele>
        <time>2013-08-09T07:56:40Z</time>
      </trkpt>
      <trkpt lat="43.66922" lon="3.97561">
        <ele>50.61</ele>
        <time>2013-08-09T07:56:41Z</time>
      </trkpt>
      <trkpt lat="43.66931" lon="3.97569">
        <ele>50.61</ele>
        <time>2013-08-09T07:56:42Z</time>
      </trkpt>
      <trkpt lat="43.66939" lon="3.97577">
        <ele>50.13</ele>
        <time>2013-08-09T07:56:43Z</time>
      </trkpt>
      <trkpt lat="43.66947" lon="3.97586">
        <ele>50.13</ele>
        <time>2013-08-09T07:56:44Z</time>
      </trkpt>
      <trkpt lat="43.66955" lon="3.97595">
        <ele>50.13</ele>
        <time>2013-08-09T07:56:45Z</time>
      </trkpt>
      <trkpt lat="43.66963" lon="3.97606">
        <ele>50.13</ele>
        <time>2013-08-09T07:56:46Z</time>
      </trkpt>
      <trkpt lat="43.67051" lon="3.9776">
        <ele>48.68</ele>
        <time>2013-08-09T07:56:57Z</time>
      </trkpt>
      <trkpt lat="43.67138" lon="3.97942">
        <ele>47.72</ele>
        <time>2013-08-09T07:57:08Z</time>
      </trkpt>
      <trkpt lat="43.67207" lon="3.98063">
        <ele>50.61</ele>
        <time>2013-08-09T07:57:16Z</time>
      </trkpt>
      <trkpt lat="43.67308" lon="3.98173">
        <ele>50.13</ele>
        <time>2013-08-09T07:57:26Z</time>
      </trkpt>
      <trkpt lat="43.67396" lon="3.98252">
        <ele>51.57</ele>
        <time>2013-08-09T07:57:35Z</time>
      </trkpt>
      <trkpt lat="43.67404" lon="3.98256">
        <ele>51.57</ele>
        <time>2013-08-09T07:57:36Z</time>
      </trkpt>
      <trkpt lat="43.67411" lon="3.98258">
        <ele>51.57</ele>
        <time>2013-08-09T07:57:37Z</time>
      </trkpt>
      <trkpt lat="43.67418" lon="3.98258">
        <ele>52.05</ele>
        <time>2013-08-09T07:57:38Z</time>
      </trkpt>
      <trkpt lat="43.67424" lon="3.98257">
        <ele>52.05</ele>
        <time>2013-08-09T07:57:39Z</time>
      </trkpt>
      <trkpt lat="43.6743" lon="3.98257">
        <ele>52.05</ele>
        <time>2013-08-09T07:57:40Z</time>
      </trkpt>
      <trkpt lat="43.67436" lon="3.98259">
        <ele>52.05</ele>
        <time>2013-08-09T07:57:41Z</time>
      </trkpt>
      <trkpt lat="43.67443" lon="3.98263">
        <ele>52.05</ele>
        <time>2013-08-09T07:57:42Z</time>
      </trkpt>
      <trkpt lat="43.67526" lon="3.98318">
        <ele>52.53</ele>
        <time>2013-08-09T07:57:52Z</time>
      </trkpt>
      <trkpt lat="43.67621" lon="3.98379">
        <ele>54.93</ele>
        <time>2013-08-09T07:58:05Z</time>
      </trkpt>
      <trkpt lat="43.67628" lon="3.98381">
        <ele>55.41</ele>
        <time>2013-08-09T07:58:06Z</time>
      </trkpt>
      <trkpt lat="43.67635" lon="3.98382">
        <ele>55.41</ele>
        <time>2013-08-09T07:58:07Z</time>
      </trkpt>
      <trkpt lat="43.67711" lon="3.98384">
        <ele>61.66</ele>
        <time>2013-08-09T07:58:20Z</time>
      </trkpt>
      <trkpt lat="43.67761" lon="3.98385">
        <ele>72.24</ele>
        <time>2013-08-09T07:58:31Z</time>
      </trkpt>
      <trkpt lat="43.67788" lon="3.98389">
        <ele>74.16</ele>
        <time>2013-08-09T07:58:41Z</time>
      </trkpt>
      <trkpt lat="43.67793" lon="3.98393">
        <ele>76.08</ele>
        <time>2013-08-09T07:58:59Z</time>
      </trkpt>
      <trkpt lat="43.67799" lon="3.98395">
        <ele>75.6</ele>
        <time>2013-08-09T07:59:00Z</time>
      </trkpt>
      <trkpt lat="43.67804" lon="3.98398">
        <ele>74.64</ele>
        <time>2013-08-09T07:59:01Z</time>
      </trkpt>
      <trkpt lat="43.6781" lon="3.98402">
        <ele>74.16</ele>
        <time>2013-08-09T07:59:02Z</time>
      </trkpt>
      <trkpt lat="43.67815" lon="3.98406">
        <ele>73.68</ele>
        <time>2013-08-09T07:59:03Z</time>
      </trkpt>
      <trkpt lat="43.67821" lon="3.98411">
        <ele>73.2</ele>
        <time>2013-08-09T07:59:04Z</time>
      </trkpt>
      <trkpt lat="43.67871" lon="3.98496">
        <ele>72.24</ele>
        <time>2013-08-09T07:59:15Z</time>
      </trkpt>
      <trkpt lat="43.67903" lon="3.98571">
        <ele>71.27</ele>
        <time>2013-08-09T07:59:28Z</time>
      </trkpt>
      <trkpt lat="43.67902" lon="3.98572">
        <ele>73.2</ele>
        <time>2013-08-09T07:59:47Z</time>
      </trkpt>
      <trkpt lat="43.67915" lon="3.9861">
        <ele>72.24</ele>
        <time>2013-08-09T07:59:53Z</time>
      </trkpt>
      <trkpt lat="43.67958" lon="3.98731">
        <ele>67.91</ele>
        <time>2013-08-09T08:00:01Z</time>
      </trkpt>
      <trkpt lat="43.67986" lon="3.98815">
        <ele>65.51</ele>
        <time>2013-08-09T08:00:06Z</time>
      </trkpt>
      <trkpt lat="43.67993" lon="3.9883">
        <ele>65.03</ele>
        <time>2013-08-09T08:00:07Z</time>
      </trkpt>
      <trkpt lat="43.681" lon="3.99021">
        <ele>57.34</ele>
        <time>2013-08-09T08:00:21Z</time>
      </trkpt>
      <trkpt lat="43.6818" lon="3.99161">
        <ele>55.89</ele>
        <time>2013-08-09T08:00:30Z</time>
      </trkpt>
      <trkpt lat="43.68194" lon="3.99179">
        <ele>55.41</ele>
        <time>2013-08-09T08:00:31Z</time>
      </trkpt>
      <trkpt lat="43.68368" lon="3.99371">
        <ele>48.2</ele>
        <time>2013-08-09T08:00:42Z</time>
      </trkpt>
      <trkpt lat="43.68441" lon="3.99462">
        <ele>47.72</ele>
        <time>2013-08-09T08:00:47Z</time>
      </trkpt>
      <trkpt lat="43.68459" lon="3.99477">
        <ele>47.24</ele>
        <time>2013-08-09T08:00:48Z</time>
      </trkpt>
      <trkpt lat="43.68479" lon="3.9949">
        <ele>47.72</ele>
        <time>2013-08-09T08:00:49Z</time>
      </trkpt>
      <trkpt lat="43.68717" lon="3.99642">
        <ele>48.2</ele>
        <time>2013-08-09T08:01:00Z</time>
      </trkpt>
      <trkpt lat="43.68819" lon="3.9975">
        <ele>49.16</ele>
        <time>2013-08-09T08:01:06Z</time>
      </trkpt>
      <trkpt lat="43.68828" lon="3.99772">
        <ele>49.16</ele>
        <time>2013-08-09T08:01:07Z</time>
      </trkpt>
      <trkpt lat="43.68837" lon="3.998">
        <ele>49.16</ele>
        <time>2013-08-09T08:01:08Z</time>
      </trkpt>
      <trkpt lat="43.68845" lon="3.9983">
        <ele>49.16</ele>
        <time>2013-08-09T08:01:09Z</time>
      </trkpt>
      <trkpt lat="43.68852" lon="3.99861">
        <ele>49.16</ele>
        <time>2013-08-09T08:01:10Z</time>
      </trkpt>
      <trkpt lat="43.68915" lon="4.00091">
        <ele>47.72</ele>
        <time>2013-08-09T08:01:18Z</time>
      </trkpt>
      <trkpt lat="43.69018" lon="4.00286">
        <ele>48.2</ele>
        <time>2013-08-09T08:01:26Z</time>
      </trkpt>
      <trkpt lat="43.69058" lon="4.00453">
        <ele>45.8</ele>
        <time>2013-08-09T08:01:32Z</time>
      </trkpt>
      <trkpt lat="43.69093" lon="4.00614">
        <ele>44.84</ele>
        <time>2013-08-09T08:01:38Z</time>
      </trkpt>
      <trkpt lat="43.69103" lon="4.00638">
        <ele>44.84</ele>
        <time>2013-08-09T08:01:39Z</time>
      </trkpt>
      <trkpt lat="43.69114" lon="4.00661">
        <ele>44.84</ele>
        <time>2013-08-09T08:01:40Z</time>
      </trkpt>
      <trkpt lat="43.69128" lon="4.00683">
        <ele>44.84</ele>
        <time>2013-08-09T08:01:41Z</time>
      </trkpt>
      <trkpt lat="43.69142" lon="4.00704">
        <ele>44.84</ele>
        <time>2013-08-09T08:01:42Z</time>
      </trkpt>
      <trkpt lat="43.69311" lon="4.0095">
        <ele>42.92</ele>
        <time>2013-08-09T08:01:54Z</time>
      </trkpt>
      <trkpt lat="43.69479" lon="4.01231">
        <ele>43.88</ele>
        <time>2013-08-09T08:02:07Z</time>
      </trkpt>
      <trkpt lat="43.69584" lon="4.01375">
        <ele>47.24</ele>
        <time>2013-08-09T08:02:14Z</time>
      </trkpt>
      <trkpt lat="43.6985" lon="4.01695">
        <ele>56.86</ele>
        <time>2013-08-09T08:02:29Z</time>
      </trkpt>
      <trkpt lat="43.70073" lon="4.0197">
        <ele>67.91</ele>
        <time>2013-08-09T08:02:42Z</time>
      </trkpt>
      <trkpt lat="43.70271" lon="4.02296">
        <ele>73.2</ele>
        <time>2013-08-09T08:02:55Z</time>
      </trkpt>
      <trkpt lat="43.70452" lon="4.02499">
        <ele>80.89</ele>
        <time>2013-08-09T08:03:05Z</time>
      </trkpt>
      <trkpt lat="43.70613" lon="4.02585">
        <ele>84.25</ele>
        <time>2013-08-09T08:03:12Z</time>
      </trkpt>
      <trkpt lat="43.70955" lon="4.0276">
        <ele>94.35</ele>
        <time>2013-08-09T08:03:27Z</time>
      </trkpt>
      <trkpt lat="43.71182" lon="4.02862">
        <ele>94.83</ele>
        <time>2013-08-09T08:03:37Z</time>
      </trkpt>
      <trkpt lat="43.71422" lon="4.0302">
        <ele>83.29</ele>
        <time>2013-08-09T08:03:48Z</time>
      </trkpt>
      <trkpt lat="43.71676" lon="4.03226">
        <ele>78.97</ele>
        <time>2013-08-09T08:04:00Z</time>
      </trkpt>
      <trkpt lat="43.71817" lon="4.0337">
        <ele>89.06</ele>
        <time>2013-08-09T08:04:08Z</time>
      </trkpt>
      <trkpt lat="43.71892" lon="4.03465">
        <ele>92.9</ele>
        <time>2013-08-09T08:04:13Z</time>
      </trkpt>
      <trkpt lat="43.71911" lon="4.0348">
        <ele>92.42</ele>
        <time>2013-08-09T08:04:14Z</time>
      </trkpt>
      <trkpt lat="43.72064" lon="4.03573">
        <ele>91.46</ele>
        <time>2013-08-09T08:04:22Z</time>
      </trkpt>
      <trkpt lat="43.72155" lon="4.03605">
        <ele>92.42</ele>
        <time>2013-08-09T08:04:29Z</time>
      </trkpt>
      <trkpt lat="43.72269" lon="4.03645">
        <ele>86.66</ele>
        <time>2013-08-09T08:04:39Z</time>
      </trkpt>
      <trkpt lat="43.72292" lon="4.03675">
        <ele>84.73</ele>
        <time>2013-08-09T08:04:42Z</time>
      </trkpt>
      <trkpt lat="43.72297" lon="4.03686">
        <ele>84.73</ele>
        <time>2013-08-09T08:04:43Z</time>
      </trkpt>
      <trkpt lat="43.72343" lon="4.03772">
        <ele>85.69</ele>
        <time>2013-08-09T08:04:52Z</time>
      </trkpt>
      <trkpt lat="43.72386" lon="4.03873">
        <ele>86.66</ele>
        <time>2013-08-09T08:05:03Z</time>
      </trkpt>
      <trkpt lat="43.72387" lon="4.03883">
        <ele>86.18</ele>
        <time>2013-08-09T08:05:04Z</time>
      </trkpt>
      <trkpt lat="43.72392" lon="4.03906">
        <ele>85.69</ele>
        <time>2013-08-09T08:05:06Z</time>
      </trkpt>
      <trkpt lat="43.72399" lon="4.03917">
        <ele>85.21</ele>
        <time>2013-08-09T08:05:07Z</time>
      </trkpt>
      <trkpt lat="43.72407" lon="4.03927">
        <ele>84.73</ele>
        <time>2013-08-09T08:05:08Z</time>
      </trkpt>
      <trkpt lat="43.72416" lon="4.03936">
        <ele>84.25</ele>
        <time>2013-08-09T08:05:09Z</time>
      </trkpt>
      <trkpt lat="43.72426" lon="4.03943">
        <ele>83.29</ele>
        <time>2013-08-09T08:05:10Z</time>
      </trkpt>
      <trkpt lat="43.72435" lon="4.0395">
        <ele>82.81</ele>
        <time>2013-08-09T08:05:11Z</time>
      </trkpt>
      <trkpt lat="43.72492" lon="4.03999">
        <ele>81.37</ele>
        <time>2013-08-09T08:05:18Z</time>
      </trkpt>
      <trkpt lat="43.72582" lon="4.04072">
        <ele>82.33</ele>
        <time>2013-08-09T08:05:23Z</time>
      </trkpt>
      <trkpt lat="43.7275" lon="4.04209">
        <ele>89.06</ele>
        <time>2013-08-09T08:05:30Z</time>
      </trkpt>
      <trkpt lat="43.72937" lon="4.04362">
        <ele>93.39</ele>
        <time>2013-08-09T08:05:39Z</time>
      </trkpt>
      <trkpt lat="43.73025" lon="4.04472">
        <ele>98.67</ele>
        <time>2013-08-09T08:05:46Z</time>
      </trkpt>
      <trkpt lat="43.73106" lon="4.0465">
        <ele>96.75</ele>
        <time>2013-08-09T08:05:56Z</time>
      </trkpt>
      <trkpt lat="43.73197" lon="4.04779">
        <ele>93.39</ele>
        <time>2013-08-09T08:06:04Z</time>
      </trkpt>
      <trkpt lat="43.73272" lon="4.04835">
        <ele>90.02</ele>
        <time>2013-08-09T08:06:10Z</time>
      </trkpt>
      <trkpt lat="43.73406" lon="4.04876">
        <ele>86.18</ele>
        <time>2013-08-09T08:06:16Z</time>
      </trkpt>
      <trkpt lat="43.73814" lon="4.04992">
        <ele>77.04</ele>
        <time>2013-08-09T08:06:33Z</time>
      </trkpt>
      <trkpt lat="43.74165" lon="4.05092">
        <ele>74.16</ele>
        <time>2013-08-09T08:06:48Z</time>
      </trkpt>
      <trkpt lat="43.74306" lon="4.05132">
        <ele>74.16</ele>
        <time>2013-08-09T08:06:56Z</time>
      </trkpt>
      <trkpt lat="43.74495" lon="4.052">
        <ele>72.72</ele>
        <time>2013-08-09T08:07:08Z</time>
      </trkpt>
      <trkpt lat="43.74626" lon="4.05318">
        <ele>73.2</ele>
        <time>2013-08-09T08:07:17Z</time>
      </trkpt>
      <trkpt lat="43.74754" lon="4.05447">
        <ele>75.12</ele>
        <time>2013-08-09T08:07:27Z</time>
      </trkpt>
      <trkpt lat="43.74906" lon="4.05604">
        <ele>76.56</ele>
        <time>2013-08-09T08:07:39Z</time>
      </trkpt>
      <trkpt lat="43.74927" lon="4.05636">
        <ele>76.56</ele>
        <time>2013-08-09T08:07:41Z</time>
      </trkpt>
      <trkpt lat="43.74936" lon="4.05654">
        <ele>76.56</ele>
        <time>2013-08-09T08:07:42Z</time>
      </trkpt>
      <trkpt lat="43.74943" lon="4.05673">
        <ele>76.56</ele>
        <time>2013-08-09T08:07:43Z</time>
      </trkpt>
      <trkpt lat="43.7495" lon="4.05693">
        <ele>77.04</ele>
        <time>2013-08-09T08:07:44Z</time>
      </trkpt>
      <trkpt lat="43.74956" lon="4.05715">
        <ele>77.04</ele>
        <time>2013-08-09T08:07:45Z</time>
      </trkpt>
      <trkpt lat="43.7496" lon="4.05736">
        <ele>77.04</ele>
        <time>2013-08-09T08:07:46Z</time>
      </trkpt>
      <trkpt lat="43.74963" lon="4.05759">
        <ele>77.04</ele>
        <time>2013-08-09T08:07:47Z</time>
      </trkpt>
      <trkpt lat="43.74963" lon="4.05782">
        <ele>77.04</ele>
        <time>2013-08-09T08:07:48Z</time>
      </trkpt>
      <trkpt lat="43.74962" lon="4.05804">
        <ele>77.52</ele>
        <time>2013-08-09T08:07:49Z</time>
      </trkpt>
      <trkpt lat="43.74961" lon="4.05827">
        <ele>77.52</ele>
        <time>2013-08-09T08:07:50Z</time>
      </trkpt>
      <trkpt lat="43.74935" lon="4.06084">
        <ele>79.93</ele>
        <time>2013-08-09T08:08:01Z</time>
      </trkpt>
      <trkpt lat="43.74923" lon="4.06313">
        <ele>75.6</ele>
        <time>2013-08-09T08:08:12Z</time>
      </trkpt>
      <trkpt lat="43.74962" lon="4.06503">
        <ele>70.31</ele>
        <time>2013-08-09T08:08:21Z</time>
      </trkpt>
      <trkpt lat="43.75037" lon="4.06757">
        <ele>65.03</ele>
        <time>2013-08-09T08:08:34Z</time>
      </trkpt>
      <trkpt lat="43.75135" lon="4.07085">
        <ele>59.74</ele>
        <time>2013-08-09T08:08:50Z</time>
      </trkpt>
      <trkpt lat="43.75144" lon="4.07103">
        <ele>59.74</ele>
        <time>2013-08-09T08:08:51Z</time>
      </trkpt>
      <trkpt lat="43.75154" lon="4.07119">
        <ele>59.74</ele>
        <time>2013-08-09T08:08:52Z</time>
      </trkpt>
      <trkpt lat="43.75166" lon="4.07134">
        <ele>60.22</ele>
        <time>2013-08-09T08:08:53Z</time>
      </trkpt>
      <trkpt lat="43.75178" lon="4.07148">
        <ele>60.7</ele>
        <time>2013-08-09T08:08:54Z</time>
      </trkpt>
      <trkpt lat="43.75323" lon="4.07325">
        <ele>61.66</ele>
        <time>2013-08-09T08:09:06Z</time>
      </trkpt>
      <trkpt lat="43.75471" lon="4.07501">
        <ele>59.74</ele>
        <time>2013-08-09T08:09:19Z</time>
      </trkpt>
      <trkpt lat="43.75607" lon="4.07633">
        <ele>55.41</ele>
        <time>2013-08-09T08:09:32Z</time>
      </trkpt>
      <trkpt lat="43.75693" lon="4.07663">
        <ele>51.09</ele>
        <time>2013-08-09T08:09:39Z</time>
      </trkpt>
      <trkpt lat="43.7579" lon="4.07655">
        <ele>48.2</ele>
        <time>2013-08-09T08:09:47Z</time>
      </trkpt>
      <trkpt lat="43.758" lon="4.07657">
        <ele>47.72</ele>
        <time>2013-08-09T08:09:48Z</time>
      </trkpt>
      <trkpt lat="43.75811" lon="4.07661">
        <ele>47.72</ele>
        <time>2013-08-09T08:09:49Z</time>
      </trkpt>
      <trkpt lat="43.75821" lon="4.07668">
        <ele>47.24</ele>
        <time>2013-08-09T08:09:50Z</time>
      </trkpt>
      <trkpt lat="43.75832" lon="4.07677">
        <ele>46.76</ele>
        <time>2013-08-09T08:09:51Z</time>
      </trkpt>
      <trkpt lat="43.75842" lon="4.07687">
        <ele>45.8</ele>
        <time>2013-08-09T08:09:52Z</time>
      </trkpt>
      <trkpt lat="43.75851" lon="4.07697">
        <ele>44.84</ele>
        <time>2013-08-09T08:09:53Z</time>
      </trkpt>
      <trkpt lat="43.7586" lon="4.07709">
        <ele>44.36</ele>
        <time>2013-08-09T08:09:54Z</time>
      </trkpt>
      <trkpt lat="43.75867" lon="4.0772">
        <ele>44.36</ele>
        <time>2013-08-09T08:09:55Z</time>
      </trkpt>
      <trkpt lat="43.75873" lon="4.07729">
        <ele>43.88</ele>
        <time>2013-08-09T08:09:56Z</time>
      </trkpt>
      <trkpt lat="43.75906" lon="4.07787">
        <ele>41.95</ele>
        <time>2013-08-09T08:10:05Z</time>
      </trkpt>
      <trkpt lat="43.75942" lon="4.07846">
        <ele>39.55</ele>
        <time>2013-08-09T08:10:11Z</time>
      </trkpt>
      <trkpt lat="43.75994" lon="4.07931">
        <ele>35.71</ele>
        <time>2013-08-09T08:10:21Z</time>
      </trkpt>
      <trkpt lat="43.76037" lon="4.08002">
        <ele>32.34</ele>
        <time>2013-08-09T08:10:28Z</time>
      </trkpt>
      <trkpt lat="43.76106" lon="4.08112">
        <ele>28.98</ele>
        <time>2013-08-09T08:10:40Z</time>
      </trkpt>
      <trkpt lat="43.76113" lon="4.08117">
        <ele>28.98</ele>
        <time>2013-08-09T08:10:41Z</time>
      </trkpt>
      <trkpt lat="43.76119" lon="4.08121">
        <ele>28.5</ele>
        <time>2013-08-09T08:10:42Z</time>
      </trkpt>
      <trkpt lat="43.76125" lon="4.08123">
        <ele>28.98</ele>
        <time>2013-08-09T08:10:43Z</time>
      </trkpt>
      <trkpt lat="43.76133" lon="4.08125">
        <ele>28.5</ele>
        <time>2013-08-09T08:10:44Z</time>
      </trkpt>
      <trkpt lat="43.76201" lon="4.08142">
        <ele>28.98</ele>
        <time>2013-08-09T08:10:51Z</time>
      </trkpt>
      <trkpt lat="43.7622" lon="4.08149">
        <ele>28.98</ele>
        <time>2013-08-09T08:10:53Z</time>
      </trkpt>
      <trkpt lat="43.7623" lon="4.08155">
        <ele>28.98</ele>
        <time>2013-08-09T08:10:54Z</time>
      </trkpt>
      <trkpt lat="43.7633" lon="4.0824">
        <ele>26.57</ele>
        <time>2013-08-09T08:11:03Z</time>
      </trkpt>
      <trkpt lat="43.76452" lon="4.08309">
        <ele>25.61</ele>
        <time>2013-08-09T08:11:12Z</time>
      </trkpt>
      <trkpt lat="43.76521" lon="4.08344">
        <ele>25.61</ele>
        <time>2013-08-09T08:11:18Z</time>
      </trkpt>
      <trkpt lat="43.76529" lon="4.08351">
        <ele>25.61</ele>
        <time>2013-08-09T08:11:19Z</time>
      </trkpt>
      <trkpt lat="43.76536" lon="4.0836">
        <ele>25.61</ele>
        <time>2013-08-09T08:11:20Z</time>
      </trkpt>
      <trkpt lat="43.7655" lon="4.08376">
        <ele>25.61</ele>
        <time>2013-08-09T08:11:22Z</time>
      </trkpt>
      <trkpt lat="43.76557" lon="4.08377">
        <ele>25.13</ele>
        <time>2013-08-09T08:11:23Z</time>
      </trkpt>
      <trkpt lat="43.76565" lon="4.08374">
        <ele>25.13</ele>
        <time>2013-08-09T08:11:24Z</time>
      </trkpt>
      <trkpt lat="43.76573" lon="4.08368">
        <ele>25.13</ele>
        <time>2013-08-09T08:11:25Z</time>
      </trkpt>
      <trkpt lat="43.76583" lon="4.08362">
        <ele>25.13</ele>
        <time>2013-08-09T08:11:26Z</time>
      </trkpt>
      <trkpt lat="43.76594" lon="4.08359">
        <ele>25.13</ele>
        <time>2013-08-09T08:11:27Z</time>
      </trkpt>
      <trkpt lat="43.76606" lon="4.08358">
        <ele>25.13</ele>
        <time>2013-08-09T08:11:28Z</time>
      </trkpt>
      <trkpt lat="43.7662" lon="4.08359">
        <ele>25.61</ele>
        <time>2013-08-09T08:11:29Z</time>
      </trkpt>
      <trkpt lat="43.76634" lon="4.0836">
        <ele>25.61</ele>
        <time>2013-08-09T08:11:30Z</time>
      </trkpt>
      <trkpt lat="43.76799" lon="4.08361">
        <ele>26.09</ele>
        <time>2013-08-09T08:11:40Z</time>
      </trkpt>
      <trkpt lat="43.76979" lon="4.08396">
        <ele>25.61</ele>
        <time>2013-08-09T08:11:51Z</time>
      </trkpt>
      <trkpt lat="43.77142" lon="4.08466">
        <ele>25.61</ele>
        <time>2013-08-09T08:12:02Z</time>
      </trkpt>
      <trkpt lat="43.77262" lon="4.08544">
        <ele>26.09</ele>
        <time>2013-08-09T08:12:10Z</time>
      </trkpt>
      <trkpt lat="43.7741" lon="4.08637">
        <ele>27.53</ele>
        <time>2013-08-09T08:12:20Z</time>
      </trkpt>
      <trkpt lat="43.77573" lon="4.08716">
        <ele>27.53</ele>
        <time>2013-08-09T08:12:31Z</time>
      </trkpt>
      <trkpt lat="43.77688" lon="4.08682">
        <ele>28.98</ele>
        <time>2013-08-09T08:12:38Z</time>
      </trkpt>
      <trkpt lat="43.77717" lon="4.08666">
        <ele>28.98</ele>
        <time>2013-08-09T08:12:40Z</time>
      </trkpt>
      <trkpt lat="43.77811" lon="4.08644">
        <ele>28.98</ele>
        <time>2013-08-09T08:12:47Z</time>
      </trkpt>
      <trkpt lat="43.77873" lon="4.08651">
        <ele>28.98</ele>
        <time>2013-08-09T08:12:54Z</time>
      </trkpt>
      <trkpt lat="43.77877" lon="4.08653">
        <ele>28.98</ele>
        <time>2013-08-09T08:12:55Z</time>
      </trkpt>
      <trkpt lat="43.77881" lon="4.08657">
        <ele>28.98</ele>
        <time>2013-08-09T08:12:56Z</time>
      </trkpt>
      <trkpt lat="43.77885" lon="4.08662">
        <ele>28.98</ele>
        <time>2013-08-09T08:12:57Z</time>
      </trkpt>
      <trkpt lat="43.7789" lon="4.08667">
        <ele>28.98</ele>
        <time>2013-08-09T08:12:58Z</time>
      </trkpt>
      <trkpt lat="43.77896" lon="4.08669">
        <ele>28.98</ele>
        <time>2013-08-09T08:12:59Z</time>
      </trkpt>
      <trkpt lat="43.77903" lon="4.08669">
        <ele>29.46</ele>
        <time>2013-08-09T08:13:00Z</time>
      </trkpt>
      <trkpt lat="43.7791" lon="4.08666">
        <ele>29.46</ele>
        <time>2013-08-09T08:13:01Z</time>
      </trkpt>
      <trkpt lat="43.77917" lon="4.08661">
        <ele>28.98</ele>
        <time>2013-08-09T08:13:02Z</time>
      </trkpt>
      <trkpt lat="43.77925" lon="4.08658">
        <ele>28.98</ele>
        <time>2013-08-09T08:13:03Z</time>
      </trkpt>
      <trkpt lat="43.77934" lon="4.08656">
        <ele>28.98</ele>
        <time>2013-08-09T08:13:04Z</time>
      </trkpt>
      <trkpt lat="43.77944" lon="4.08656">
        <ele>28.98</ele>
        <time>2013-08-09T08:13:05Z</time>
      </trkpt>
      <trkpt lat="43.78065" lon="4.08684">
        <ele>28.5</ele>
        <time>2013-08-09T08:13:18Z</time>
      </trkpt>
      <trkpt lat="43.78073" lon="4.08684">
        <ele>28.5</ele>
        <time>2013-08-09T08:13:19Z</time>
      </trkpt>
      <trkpt lat="43.7808" lon="4.08683">
        <ele>28.5</ele>
        <time>2013-08-09T08:13:20Z</time>
      </trkpt>
      <trkpt lat="43.78154" lon="4.08669">
        <ele>28.98</ele>
        <time>2013-08-09T08:13:32Z</time>
      </trkpt>
      <trkpt lat="43.7817" lon="4.08676">
        <ele>28.98</ele>
        <time>2013-08-09T08:13:41Z</time>
      </trkpt>
      <trkpt lat="43.78183" lon="4.08703">
        <ele>28.5</ele>
        <time>2013-08-09T08:13:53Z</time>
      </trkpt>
      <trkpt lat="43.78189" lon="4.08711">
        <ele>28.5</ele>
        <time>2013-08-09T08:13:55Z</time>
      </trkpt>
      <trkpt lat="43.78193" lon="4.08714">
        <ele>28.5</ele>
        <time>2013-08-09T08:13:56Z</time>
      </trkpt>
      <trkpt lat="43.78198" lon="4.08718">
        <ele>28.5</ele>
        <time>2013-08-09T08:13:57Z</time>
      </trkpt>
      <trkpt lat="43.78204" lon="4.08719">
        <ele>28.5</ele>
        <time>2013-08-09T08:13:58Z</time>
      </trkpt>
      <trkpt lat="43.7821" lon="4.0872">
        <ele>28.5</ele>
        <time>2013-08-09T08:13:59Z</time>
      </trkpt>
      <trkpt lat="43.78216" lon="4.0872">
        <ele>28.5</ele>
        <time>2013-08-09T08:14:00Z</time>
      </trkpt>
      <trkpt lat="43.78222" lon="4.08721">
        <ele>28.5</ele>
        <time>2013-08-09T08:14:01Z</time>
      </trkpt>
      <trkpt lat="43.78227" lon="4.08723">
        <ele>28.5</ele>
        <time>2013-08-09T08:14:02Z</time>
      </trkpt>
      <trkpt lat="43.78231" lon="4.08725">
        <ele>28.5</ele>
        <time>2013-08-09T08:14:03Z</time>
      </trkpt>
      <trkpt lat="43.78235" lon="4.08727">
        <ele>28.5</ele>
        <time>2013-08-09T08:14:04Z</time>
      </trkpt>
      <trkpt lat="43.78243" lon="4.08731">
        <ele>28.5</ele>
        <time>2013-08-09T08:14:06Z</time>
      </trkpt>
      <trkpt lat="43.78247" lon="4.08732">
        <ele>28.5</ele>
        <time>2013-08-09T08:14:07Z</time>
      </trkpt>
      <trkpt lat="43.78253" lon="4.08732">
        <ele>28.5</ele>
        <time>2013-08-09T08:14:08Z</time>
      </trkpt>
      <trkpt lat="43.78258" lon="4.08731">
        <ele>28.5</ele>
        <time>2013-08-09T08:14:09Z</time>
      </trkpt>
      <trkpt lat="43.78264" lon="4.08728">
        <ele>28.98</ele>
        <time>2013-08-09T08:14:10Z</time>
      </trkpt>
      <trkpt lat="43.7827" lon="4.08725">
        <ele>29.46</ele>
        <time>2013-08-09T08:14:11Z</time>
      </trkpt>
      <trkpt lat="43.78277" lon="4.08722">
        <ele>29.46</ele>
        <time>2013-08-09T08:14:12Z</time>
      </trkpt>
      <trkpt lat="43.78348" lon="4.08667">
        <ele>29.94</ele>
        <time>2013-08-09T08:14:21Z</time>
      </trkpt>
      <trkpt lat="43.7845" lon="4.08553">
        <ele>30.42</ele>
        <time>2013-08-09T08:14:34Z</time>
      </trkpt>
      <trkpt lat="43.78529" lon="4.08471">
        <ele>30.42</ele>
        <time>2013-08-09T08:14:44Z</time>
      </trkpt>
      <trkpt lat="43.78535" lon="4.08468">
        <ele>30.42</ele>
        <time>2013-08-09T08:14:45Z</time>
      </trkpt>
      <trkpt lat="43.78541" lon="4.08466">
        <ele>30.42</ele>
        <time>2013-08-09T08:14:46Z</time>
      </trkpt>
      <trkpt lat="43.78547" lon="4.08462">
        <ele>30.42</ele>
        <time>2013-08-09T08:14:47Z</time>
      </trkpt>
      <trkpt lat="43.78551" lon="4.08457">
        <ele>30.42</ele>
        <time>2013-08-09T08:14:48Z</time>
      </trkpt>
      <trkpt lat="43.78555" lon="4.0845">
        <ele>30.42</ele>
        <time>2013-08-09T08:14:49Z</time>
      </trkpt>
      <trkpt lat="43.78558" lon="4.08444">
        <ele>30.42</ele>
        <time>2013-08-09T08:14:50Z</time>
      </trkpt>
      <trkpt lat="43.78562" lon="4.08438">
        <ele>30.42</ele>
        <time>2013-08-09T08:14:51Z</time>
      </trkpt>
      <trkpt lat="43.78568" lon="4.08432">
        <ele>30.42</ele>
        <time>2013-08-09T08:14:52Z</time>
      </trkpt>
      <trkpt lat="43.78574" lon="4.08427">
        <ele>30.42</ele>
        <time>2013-08-09T08:14:53Z</time>
      </trkpt>
      <trkpt lat="43.78582" lon="4.08422">
        <ele>30.42</ele>
        <time>2013-08-09T08:14:54Z</time>
      </trkpt>
      <trkpt lat="43.7859" lon="4.08418">
        <ele>30.42</ele>
        <time>2013-08-09T08:14:55Z</time>
      </trkpt>
      <trkpt lat="43.78598" lon="4.08414">
        <ele>30.42</ele>
        <time>2013-08-09T08:14:56Z</time>
      </trkpt>
      <trkpt lat="43.78668" lon="4.08382">
        <ele>30.42</ele>
        <time>2013-08-09T08:15:07Z</time>
      </trkpt>
      <trkpt lat="43.78742" lon="4.08327">
        <ele>29.94</ele>
        <time>2013-08-09T08:15:19Z</time>
      </trkpt>
      <trkpt lat="43.7885" lon="4.08238">
        <ele>32.34</ele>
        <time>2013-08-09T08:15:31Z</time>
      </trkpt>
      <trkpt lat="43.78865" lon="4.0823">
        <ele>32.82</ele>
        <time>2013-08-09T08:15:33Z</time>
      </trkpt>
      <trkpt lat="43.78871" lon="4.08229">
        <ele>33.3</ele>
        <time>2013-08-09T08:15:34Z</time>
      </trkpt>
      <trkpt lat="43.78878" lon="4.08229">
        <ele>33.3</ele>
        <time>2013-08-09T08:15:35Z</time>
      </trkpt>
      <trkpt lat="43.78885" lon="4.08231">
        <ele>33.78</ele>
        <time>2013-08-09T08:15:36Z</time>
      </trkpt>
      <trkpt lat="43.78891" lon="4.08234">
        <ele>33.78</ele>
        <time>2013-08-09T08:15:37Z</time>
      </trkpt>
      <trkpt lat="43.78898" lon="4.08235">
        <ele>34.26</ele>
        <time>2013-08-09T08:15:38Z</time>
      </trkpt>
      <trkpt lat="43.78906" lon="4.08233">
        <ele>34.26</ele>
        <time>2013-08-09T08:15:39Z</time>
      </trkpt>
      <trkpt lat="43.78914" lon="4.08227">
        <ele>34.74</ele>
        <time>2013-08-09T08:15:40Z</time>
      </trkpt>
      <trkpt lat="43.7892" lon="4.08218">
        <ele>34.74</ele>
        <time>2013-08-09T08:15:41Z</time>
      </trkpt>
      <trkpt lat="43.78923" lon="4.08206">
        <ele>34.74</ele>
        <time>2013-08-09T08:15:42Z</time>
      </trkpt>
      <trkpt lat="43.78928" lon="4.08194">
        <ele>34.26</ele>
        <time>2013-08-09T08:15:43Z</time>
      </trkpt>
      <trkpt lat="43.78937" lon="4.08183">
        <ele>34.26</ele>
        <time>2013-08-09T08:15:44Z</time>
      </trkpt>
      <trkpt lat="43.78948" lon="4.08174">
        <ele>34.26</ele>
        <time>2013-08-09T08:15:45Z</time>
      </trkpt>
      <trkpt lat="43.78963" lon="4.08163">
        <ele>33.78</ele>
        <time>2013-08-09T08:15:46Z</time>
      </trkpt>
      <trkpt lat="43.78978" lon="4.08151">
        <ele>34.26</ele>
        <time>2013-08-09T08:15:47Z</time>
      </trkpt>
      <trkpt lat="43.78993" lon="4.08134">
        <ele>34.26</ele>
        <time>2013-08-09T08:15:48Z</time>
      </trkpt>
      <trkpt lat="43.79009" lon="4.08114">
        <ele>34.26</ele>
        <time>2013-08-09T08:15:49Z</time>
      </trkpt>
      <trkpt lat="43.79023" lon="4.08092">
        <ele>33.78</ele>
        <time>2013-08-09T08:15:50Z</time>
      </trkpt>
      <trkpt lat="43.79037" lon="4.08068">
        <ele>33.78</ele>
        <time>2013-08-09T08:15:51Z</time>
      </trkpt>
      <trkpt lat="43.79051" lon="4.08044">
        <ele>34.74</ele>
        <time>2013-08-09T08:15:52Z</time>
      </trkpt>
      <trkpt lat="43.79208" lon="4.07798">
        <ele>35.23</ele>
        <time>2013-08-09T08:16:03Z</time>
      </trkpt>
      <trkpt lat="43.79251" lon="4.07751">
        <ele>34.74</ele>
        <time>2013-08-09T08:16:06Z</time>
      </trkpt>
      <trkpt lat="43.79267" lon="4.0774">
        <ele>34.74</ele>
        <time>2013-08-09T08:16:07Z</time>
      </trkpt>
      <trkpt lat="43.79284" lon="4.07727">
        <ele>34.74</ele>
        <time>2013-08-09T08:16:08Z</time>
      </trkpt>
      <trkpt lat="43.79335" lon="4.07675">
        <ele>34.74</ele>
        <time>2013-08-09T08:16:11Z</time>
      </trkpt>
      <trkpt lat="43.79427" lon="4.07514">
        <ele>34.74</ele>
        <time>2013-08-09T08:16:18Z</time>
      </trkpt>
      <trkpt lat="43.7946" lon="4.07424">
        <ele>34.74</ele>
        <time>2013-08-09T08:16:22Z</time>
      </trkpt>
      <trkpt lat="43.79486" lon="4.07394">
        <ele>34.74</ele>
        <time>2013-08-09T08:16:24Z</time>
      </trkpt>
      <trkpt lat="43.79502" lon="4.07386">
        <ele>34.74</ele>
        <time>2013-08-09T08:16:25Z</time>
      </trkpt>
      <trkpt lat="43.79519" lon="4.07383">
        <ele>34.26</ele>
        <time>2013-08-09T08:16:26Z</time>
      </trkpt>
      <trkpt lat="43.79536" lon="4.07383">
        <ele>34.26</ele>
        <time>2013-08-09T08:16:27Z</time>
      </trkpt>
      <trkpt lat="43.79554" lon="4.07386">
        <ele>34.26</ele>
        <time>2013-08-09T08:16:28Z</time>
      </trkpt>
      <trkpt lat="43.79572" lon="4.07392">
        <ele>33.78</ele>
        <time>2013-08-09T08:16:29Z</time>
      </trkpt>
      <trkpt lat="43.79589" lon="4.07399">
        <ele>33.3</ele>
        <time>2013-08-09T08:16:30Z</time>
      </trkpt>
      <trkpt lat="43.79692" lon="4.07432">
        <ele>31.38</ele>
        <time>2013-08-09T08:16:36Z</time>
      </trkpt>
      <trkpt lat="43.7971" lon="4.07431">
        <ele>31.38</ele>
        <time>2013-08-09T08:16:37Z</time>
      </trkpt>
      <trkpt lat="43.79728" lon="4.07427">
        <ele>31.38</ele>
        <time>2013-08-09T08:16:38Z</time>
      </trkpt>
      <trkpt lat="43.79747" lon="4.07421">
        <ele>31.38</ele>
        <time>2013-08-09T08:16:39Z</time>
      </trkpt>
      <trkpt lat="43.79765" lon="4.07413">
        <ele>31.38</ele>
        <time>2013-08-09T08:16:40Z</time>
      </trkpt>
      <trkpt lat="43.79954" lon="4.0733">
        <ele>31.38</ele>
        <time>2013-08-09T08:16:50Z</time>
      </trkpt>
      <trkpt lat="43.80129" lon="4.07295">
        <ele>33.3</ele>
        <time>2013-08-09T08:16:57Z</time>
      </trkpt>
      <trkpt lat="43.8023" lon="4.07261">
        <ele>34.74</ele>
        <time>2013-08-09T08:17:03Z</time>
      </trkpt>
      <trkpt lat="43.8024" lon="4.07258">
        <ele>34.74</ele>
        <time>2013-08-09T08:17:04Z</time>
      </trkpt>
      <trkpt lat="43.8025" lon="4.07257">
        <ele>34.26</ele>
        <time>2013-08-09T08:17:05Z</time>
      </trkpt>
      <trkpt lat="43.80259" lon="4.07256">
        <ele>34.26</ele>
        <time>2013-08-09T08:17:06Z</time>
      </trkpt>
      <trkpt lat="43.80268" lon="4.07252">
        <ele>34.26</ele>
        <time>2013-08-09T08:17:07Z</time>
      </trkpt>
      <trkpt lat="43.80275" lon="4.07244">
        <ele>33.78</ele>
        <time>2013-08-09T08:17:08Z</time>
      </trkpt>
      <trkpt lat="43.80278" lon="4.07232">
        <ele>33.3</ele>
        <time>2013-08-09T08:17:09Z</time>
      </trkpt>
      <trkpt lat="43.80279" lon="4.07213">
        <ele>33.78</ele>
        <time>2013-08-09T08:17:10Z</time>
      </trkpt>
      <trkpt lat="43.80282" lon="4.07194">
        <ele>33.78</ele>
        <time>2013-08-09T08:17:11Z</time>
      </trkpt>
      <trkpt lat="43.80287" lon="4.07171">
        <ele>34.26</ele>
        <time>2013-08-09T08:17:12Z</time>
      </trkpt>
      <trkpt lat="43.80344" lon="4.07033">
        <ele>36.67</ele>
        <time>2013-08-09T08:17:17Z</time>
      </trkpt>
      <trkpt lat="43.80458" lon="4.06851">
        <ele>38.11</ele>
        <time>2013-08-09T08:17:23Z</time>
      </trkpt>
      <trkpt lat="43.80609" lon="4.06737">
        <ele>38.59</ele>
        <time>2013-08-09T08:17:29Z</time>
      </trkpt>
      <trkpt lat="43.80755" lon="4.06599">
        <ele>38.59</ele>
        <time>2013-08-09T08:17:35Z</time>
      </trkpt>
      <trkpt lat="43.80903" lon="4.0634">
        <ele>40.51</ele>
        <time>2013-08-09T08:17:43Z</time>
      </trkpt>
      <trkpt lat="43.8105" lon="4.06142">
        <ele>43.4</ele>
        <time>2013-08-09T08:17:50Z</time>
      </trkpt>
      <trkpt lat="43.81175" lon="4.06068">
        <ele>47.24</ele>
        <time>2013-08-09T08:17:55Z</time>
      </trkpt>
      <trkpt lat="43.81264" lon="4.06044">
        <ele>51.57</ele>
        <time>2013-08-09T08:18:00Z</time>
      </trkpt>
      <trkpt lat="43.813" lon="4.06041">
        <ele>53.01</ele>
        <time>2013-08-09T08:18:03Z</time>
      </trkpt>
      <trkpt lat="43.8131" lon="4.06044">
        <ele>53.01</ele>
        <time>2013-08-09T08:18:04Z</time>
      </trkpt>
      <trkpt lat="43.81321" lon="4.06046">
        <ele>53.49</ele>
        <time>2013-08-09T08:18:05Z</time>
      </trkpt>
      <trkpt lat="43.81329" lon="4.06047">
        <ele>53.49</ele>
        <time>2013-08-09T08:18:06Z</time>
      </trkpt>
      <trkpt lat="43.81337" lon="4.06043">
        <ele>53.97</ele>
        <time>2013-08-09T08:18:07Z</time>
      </trkpt>
      <trkpt lat="43.81346" lon="4.06034">
        <ele>54.45</ele>
        <time>2013-08-09T08:18:08Z</time>
      </trkpt>
      <trkpt lat="43.81358" lon="4.06024">
        <ele>54.45</ele>
        <time>2013-08-09T08:18:09Z</time>
      </trkpt>
      <trkpt lat="43.81373" lon="4.06013">
        <ele>54.93</ele>
        <time>2013-08-09T08:18:10Z</time>
      </trkpt>
      <trkpt lat="43.81492" lon="4.0594">
        <ele>62.14</ele>
        <time>2013-08-09T08:18:16Z</time>
      </trkpt>
      <trkpt lat="43.81628" lon="4.05803">
        <ele>70.79</ele>
        <time>2013-08-09T08:18:23Z</time>
      </trkpt>
      <trkpt lat="43.81814" lon="4.05584">
        <ele>86.66</ele>
        <time>2013-08-09T08:18:34Z</time>
      </trkpt>
      <trkpt lat="43.81826" lon="4.05561">
        <ele>88.58</ele>
        <time>2013-08-09T08:18:35Z</time>
      </trkpt>
      <trkpt lat="43.81835" lon="4.05534">
        <ele>89.54</ele>
        <time>2013-08-09T08:18:36Z</time>
      </trkpt>
      <trkpt lat="43.81843" lon="4.05504">
        <ele>90.5</ele>
        <time>2013-08-09T08:18:37Z</time>
      </trkpt>
      <trkpt lat="43.81847" lon="4.05473">
        <ele>91.46</ele>
        <time>2013-08-09T08:18:38Z</time>
      </trkpt>
      <trkpt lat="43.81849" lon="4.05441">
        <ele>91.94</ele>
        <time>2013-08-09T08:18:39Z</time>
      </trkpt>
      <trkpt lat="43.8185" lon="4.0541">
        <ele>91.46</ele>
        <time>2013-08-09T08:18:40Z</time>
      </trkpt>
      <trkpt lat="43.81856" lon="4.05354">
        <ele>90.5</ele>
        <time>2013-08-09T08:18:42Z</time>
      </trkpt>
      <trkpt lat="43.81862" lon="4.0533">
        <ele>89.54</ele>
        <time>2013-08-09T08:18:43Z</time>
      </trkpt>
      <trkpt lat="43.81871" lon="4.05308">
        <ele>88.1</ele>
        <time>2013-08-09T08:18:44Z</time>
      </trkpt>
      <trkpt lat="43.81882" lon="4.05288">
        <ele>86.66</ele>
        <time>2013-08-09T08:18:45Z</time>
      </trkpt>
      <trkpt lat="43.81898" lon="4.05272">
        <ele>85.69</ele>
        <time>2013-08-09T08:18:46Z</time>
      </trkpt>
      <trkpt lat="43.81916" lon="4.05259">
        <ele>84.73</ele>
        <time>2013-08-09T08:18:47Z</time>
      </trkpt>
      <trkpt lat="43.81939" lon="4.05251">
        <ele>83.29</ele>
        <time>2013-08-09T08:18:48Z</time>
      </trkpt>
      <trkpt lat="43.81962" lon="4.05243">
        <ele>81.85</ele>
        <time>2013-08-09T08:18:49Z</time>
      </trkpt>
      <trkpt lat="43.81986" lon="4.05237">
        <ele>80.41</ele>
        <time>2013-08-09T08:18:50Z</time>
      </trkpt>
      <trkpt lat="43.82252" lon="4.05183">
        <ele>71.27</ele>
        <time>2013-08-09T08:19:01Z</time>
      </trkpt>
      <trkpt lat="43.82404" lon="4.05187">
        <ele>71.27</ele>
        <time>2013-08-09T08:19:08Z</time>
      </trkpt>
      <trkpt lat="43.82421" lon="4.05182">
        <ele>71.76</ele>
        <time>2013-08-09T08:19:09Z</time>
      </trkpt>
      <trkpt lat="43.82437" lon="4.05172">
        <ele>71.76</ele>
        <time>2013-08-09T08:19:10Z</time>
      </trkpt>
      <trkpt lat="43.82454" lon="4.05158">
        <ele>71.27</ele>
        <time>2013-08-09T08:19:11Z</time>
      </trkpt>
      <trkpt lat="43.8247" lon="4.05141">
        <ele>70.79</ele>
        <time>2013-08-09T08:19:12Z</time>
      </trkpt>
      <trkpt lat="43.82486" lon="4.0512">
        <ele>70.31</ele>
        <time>2013-08-09T08:19:13Z</time>
      </trkpt>
      <trkpt lat="43.82502" lon="4.05097">
        <ele>69.35</ele>
        <time>2013-08-09T08:19:14Z</time>
      </trkpt>
      <trkpt lat="43.82594" lon="4.04925">
        <ele>60.7</ele>
        <time>2013-08-09T08:19:21Z</time>
      </trkpt>
      <trkpt lat="43.82627" lon="4.04844">
        <ele>57.82</ele>
        <time>2013-08-09T08:19:24Z</time>
      </trkpt>
      <trkpt lat="43.82641" lon="4.04819">
        <ele>57.34</ele>
        <time>2013-08-09T08:19:25Z</time>
      </trkpt>
      <trkpt lat="43.8275" lon="4.04653">
        <ele>50.13</ele>
        <time>2013-08-09T08:19:32Z</time>
      </trkpt>
      <trkpt lat="43.82762" lon="4.04625">
        <ele>49.16</ele>
        <time>2013-08-09T08:19:33Z</time>
      </trkpt>
      <trkpt lat="43.82773" lon="4.04595">
        <ele>48.68</ele>
        <time>2013-08-09T08:19:34Z</time>
      </trkpt>
      <trkpt lat="43.82782" lon="4.04563">
        <ele>48.2</ele>
        <time>2013-08-09T08:19:35Z</time>
      </trkpt>
      <trkpt lat="43.82791" lon="4.04531">
        <ele>47.72</ele>
        <time>2013-08-09T08:19:36Z</time>
      </trkpt>
      <trkpt lat="43.82821" lon="4.04442">
        <ele>46.76</ele>
        <time>2013-08-09T08:19:39Z</time>
      </trkpt>
      <trkpt lat="43.82836" lon="4.04416">
        <ele>46.76</ele>
        <time>2013-08-09T08:19:40Z</time>
      </trkpt>
      <trkpt lat="43.82854" lon="4.04392">
        <ele>46.76</ele>
        <time>2013-08-09T08:19:41Z</time>
      </trkpt>
      <trkpt lat="43.83087" lon="4.0411">
        <ele>52.53</ele>
        <time>2013-08-09T08:19:53Z</time>
      </trkpt>
      <trkpt lat="43.83208" lon="4.03955">
        <ele>55.89</ele>
        <time>2013-08-09T08:20:00Z</time>
      </trkpt>
      <trkpt lat="43.83228" lon="4.03937">
        <ele>56.37</ele>
        <time>2013-08-09T08:20:01Z</time>
      </trkpt>
      <trkpt lat="43.8325" lon="4.03921">
        <ele>56.86</ele>
        <time>2013-08-09T08:20:02Z</time>
      </trkpt>
      <trkpt lat="43.83364" lon="4.03805">
        <ele>59.26</ele>
        <time>2013-08-09T08:20:08Z</time>
      </trkpt>
      <trkpt lat="43.83454" lon="4.03627">
        <ele>64.07</ele>
        <time>2013-08-09T08:20:14Z</time>
      </trkpt>
      <trkpt lat="43.83643" lon="4.03294">
        <ele>73.2</ele>
        <time>2013-08-09T08:20:26Z</time>
      </trkpt>
      <trkpt lat="43.83749" lon="4.03166">
        <ele>77.52</ele>
        <time>2013-08-09T08:20:32Z</time>
      </trkpt>
      <trkpt lat="43.83948" lon="4.02967">
        <ele>87.14</ele>
        <time>2013-08-09T08:20:43Z</time>
      </trkpt>
      <trkpt lat="43.83996" lon="4.02924">
        <ele>90.02</ele>
        <time>2013-08-09T08:20:46Z</time>
      </trkpt>
      <trkpt lat="43.84016" lon="4.02914">
        <ele>91.46</ele>
        <time>2013-08-09T08:20:47Z</time>
      </trkpt>
      <trkpt lat="43.84059" lon="4.02901">
        <ele>94.83</ele>
        <time>2013-08-09T08:20:49Z</time>
      </trkpt>
      <trkpt lat="43.84083" lon="4.02901">
        <ele>95.31</ele>
        <time>2013-08-09T08:20:50Z</time>
      </trkpt>
      <trkpt lat="43.84222" lon="4.02869">
        <ele>103.96</ele>
        <time>2013-08-09T08:20:58Z</time>
      </trkpt>
      <trkpt lat="43.84236" lon="4.02861">
        <ele>104.92</ele>
        <time>2013-08-09T08:20:59Z</time>
      </trkpt>
      <trkpt lat="43.84248" lon="4.0285">
        <ele>106.36</ele>
        <time>2013-08-09T08:21:00Z</time>
      </trkpt>
      <trkpt lat="43.84258" lon="4.02839">
        <ele>107.32</ele>
        <time>2013-08-09T08:21:01Z</time>
      </trkpt>
      <trkpt lat="43.84267" lon="4.02826">
        <ele>107.81</ele>
        <time>2013-08-09T08:21:02Z</time>
      </trkpt>
      <trkpt lat="43.84274" lon="4.02813">
        <ele>108.29</ele>
        <time>2013-08-09T08:21:03Z</time>
      </trkpt>
      <trkpt lat="43.84279" lon="4.02797">
        <ele>108.77</ele>
        <time>2013-08-09T08:21:04Z</time>
      </trkpt>
      <trkpt lat="43.84279" lon="4.02777">
        <ele>109.73</ele>
        <time>2013-08-09T08:21:05Z</time>
      </trkpt>
      <trkpt lat="43.84275" lon="4.02756">
        <ele>110.69</ele>
        <time>2013-08-09T08:21:06Z</time>
      </trkpt>
      <trkpt lat="43.84271" lon="4.02737">
        <ele>112.13</ele>
        <time>2013-08-09T08:21:07Z</time>
      </trkpt>
      <trkpt lat="43.84267" lon="4.02717">
        <ele>113.57</ele>
        <time>2013-08-09T08:21:08Z</time>
      </trkpt>
      <trkpt lat="43.84261" lon="4.02697">
        <ele>115.01</ele>
        <time>2013-08-09T08:21:09Z</time>
      </trkpt>
      <trkpt lat="43.84255" lon="4.02677">
        <ele>115.5</ele>
        <time>2013-08-09T08:21:10Z</time>
      </trkpt>
      <trkpt lat="43.84211" lon="4.02511">
        <ele>118.86</ele>
        <time>2013-08-09T08:21:18Z</time>
      </trkpt>
      <trkpt lat="43.84212" lon="4.02489">
        <ele>118.86</ele>
        <time>2013-08-09T08:21:19Z</time>
      </trkpt>
      <trkpt lat="43.84216" lon="4.02466">
        <ele>118.86</ele>
        <time>2013-08-09T08:21:20Z</time>
      </trkpt>
      <trkpt lat="43.84225" lon="4.02405">
        <ele>119.34</ele>
        <time>2013-08-09T08:21:23Z</time>
      </trkpt>
      <trkpt lat="43.84224" lon="4.02384">
        <ele>119.34</ele>
        <time>2013-08-09T08:21:24Z</time>
      </trkpt>
      <trkpt lat="43.84221" lon="4.02366">
        <ele>119.34</ele>
        <time>2013-08-09T08:21:25Z</time>
      </trkpt>
      <trkpt lat="43.84214" lon="4.02349">
        <ele>119.82</ele>
        <time>2013-08-09T08:21:26Z</time>
      </trkpt>
      <trkpt lat="43.84208" lon="4.02335">
        <ele>119.34</ele>
        <time>2013-08-09T08:21:27Z</time>
      </trkpt>
      <trkpt lat="43.84203" lon="4.0232">
        <ele>119.34</ele>
        <time>2013-08-09T08:21:28Z</time>
      </trkpt>
      <trkpt lat="43.84202" lon="4.02304">
        <ele>119.34</ele>
        <time>2013-08-09T08:21:29Z</time>
      </trkpt>
      <trkpt lat="43.84206" lon="4.02291">
        <ele>118.38</ele>
        <time>2013-08-09T08:21:30Z</time>
      </trkpt>
      <trkpt lat="43.84212" lon="4.02279">
        <ele>117.9</ele>
        <time>2013-08-09T08:21:31Z</time>
      </trkpt>
      <trkpt lat="43.84222" lon="4.02267">
        <ele>117.42</ele>
        <time>2013-08-09T08:21:32Z</time>
      </trkpt>
      <trkpt lat="43.84233" lon="4.02258">
        <ele>116.46</ele>
        <time>2013-08-09T08:21:33Z</time>
      </trkpt>
      <trkpt lat="43.84247" lon="4.0225">
        <ele>115.5</ele>
        <time>2013-08-09T08:21:34Z</time>
      </trkpt>
      <trkpt lat="43.84262" lon="4.02242">
        <ele>114.53</ele>
        <time>2013-08-09T08:21:35Z</time>
      </trkpt>
      <trkpt lat="43.84318" lon="4.02205">
        <ele>112.13</ele>
        <time>2013-08-09T08:21:39Z</time>
      </trkpt>
      <trkpt lat="43.84331" lon="4.02192">
        <ele>111.65</ele>
        <time>2013-08-09T08:21:40Z</time>
      </trkpt>
      <trkpt lat="43.84341" lon="4.02177">
        <ele>111.17</ele>
        <time>2013-08-09T08:21:41Z</time>
      </trkpt>
      <trkpt lat="43.84372" lon="4.02136">
        <ele>109.73</ele>
        <time>2013-08-09T08:21:44Z</time>
      </trkpt>
      <trkpt lat="43.84384" lon="4.02126">
        <ele>109.25</ele>
        <time>2013-08-09T08:21:45Z</time>
      </trkpt>
      <trkpt lat="43.844" lon="4.02122">
        <ele>108.77</ele>
        <time>2013-08-09T08:21:46Z</time>
      </trkpt>
      <trkpt lat="43.84418" lon="4.02121">
        <ele>108.77</ele>
        <time>2013-08-09T08:21:47Z</time>
      </trkpt>
      <trkpt lat="43.84437" lon="4.02122">
        <ele>107.81</ele>
        <time>2013-08-09T08:21:48Z</time>
      </trkpt>
      <trkpt lat="43.84455" lon="4.02122">
        <ele>106.84</ele>
        <time>2013-08-09T08:21:49Z</time>
      </trkpt>
      <trkpt lat="43.84509" lon="4.02116">
        <ele>104.44</ele>
        <time>2013-08-09T08:21:52Z</time>
      </trkpt>
      <trkpt lat="43.84529" lon="4.0211">
        <ele>103.48</ele>
        <time>2013-08-09T08:21:53Z</time>
      </trkpt>
      <trkpt lat="43.84693" lon="4.02032">
        <ele>99.63</ele>
        <time>2013-08-09T08:22:01Z</time>
      </trkpt>
      <trkpt lat="43.84885" lon="4.01914">
        <ele>98.19</ele>
        <time>2013-08-09T08:22:10Z</time>
      </trkpt>
      <trkpt lat="43.85183" lon="4.01787">
        <ele>93.87</ele>
        <time>2013-08-09T08:22:23Z</time>
      </trkpt>
      <trkpt lat="43.85352" lon="4.01736">
        <ele>91.46</ele>
        <time>2013-08-09T08:22:31Z</time>
      </trkpt>
      <trkpt lat="43.85536" lon="4.01708">
        <ele>90.02</ele>
        <time>2013-08-09T08:22:40Z</time>
      </trkpt>
      <trkpt lat="43.85759" lon="4.01696">
        <ele>88.58</ele>
        <time>2013-08-09T08:22:51Z</time>
      </trkpt>
      <trkpt lat="43.86016" lon="4.01703">
        <ele>87.62</ele>
        <time>2013-08-09T08:23:03Z</time>
      </trkpt>
      <trkpt lat="43.86242" lon="4.01708">
        <ele>85.21</ele>
        <time>2013-08-09T08:23:14Z</time>
      </trkpt>
      <trkpt lat="43.86345" lon="4.01707">
        <ele>81.85</ele>
        <time>2013-08-09T08:23:19Z</time>
      </trkpt>
      <trkpt lat="43.86366" lon="4.017">
        <ele>80.89</ele>
        <time>2013-08-09T08:23:20Z</time>
      </trkpt>
      <trkpt lat="43.86386" lon="4.01689">
        <ele>79.93</ele>
        <time>2013-08-09T08:23:21Z</time>
      </trkpt>
      <trkpt lat="43.86537" lon="4.01612">
        <ele>71.27</ele>
        <time>2013-08-09T08:23:28Z</time>
      </trkpt>
      <trkpt lat="43.86722" lon="4.0157">
        <ele>70.79</ele>
        <time>2013-08-09T08:23:36Z</time>
      </trkpt>
      <trkpt lat="43.86855" lon="4.01547">
        <ele>70.31</ele>
        <time>2013-08-09T08:23:42Z</time>
      </trkpt>
      <trkpt lat="43.86879" lon="4.01551">
        <ele>69.83</ele>
        <time>2013-08-09T08:23:43Z</time>
      </trkpt>
      <trkpt lat="43.87054" lon="4.01583">
        <ele>68.87</ele>
        <time>2013-08-09T08:23:51Z</time>
      </trkpt>
      <trkpt lat="43.87134" lon="4.01586">
        <ele>70.31</ele>
        <time>2013-08-09T08:23:55Z</time>
      </trkpt>
      <trkpt lat="43.87153" lon="4.01582">
        <ele>70.79</ele>
        <time>2013-08-09T08:23:56Z</time>
      </trkpt>
      <trkpt lat="43.87173" lon="4.01575">
        <ele>71.27</ele>
        <time>2013-08-09T08:23:57Z</time>
      </trkpt>
      <trkpt lat="43.87192" lon="4.01565">
        <ele>72.24</ele>
        <time>2013-08-09T08:23:58Z</time>
      </trkpt>
      <trkpt lat="43.87212" lon="4.01552">
        <ele>73.2</ele>
        <time>2013-08-09T08:23:59Z</time>
      </trkpt>
      <trkpt lat="43.8723" lon="4.01537">
        <ele>74.16</ele>
        <time>2013-08-09T08:24:00Z</time>
      </trkpt>
      <trkpt lat="43.87248" lon="4.01519">
        <ele>75.12</ele>
        <time>2013-08-09T08:24:01Z</time>
      </trkpt>
      <trkpt lat="43.87265" lon="4.01501">
        <ele>75.6</ele>
        <time>2013-08-09T08:24:02Z</time>
      </trkpt>
      <trkpt lat="43.87281" lon="4.01483">
        <ele>76.56</ele>
        <time>2013-08-09T08:24:03Z</time>
      </trkpt>
      <trkpt lat="43.87428" lon="4.01339">
        <ele>83.77</ele>
        <time>2013-08-09T08:24:12Z</time>
      </trkpt>
      <trkpt lat="43.87602" lon="4.01271">
        <ele>87.14</ele>
        <time>2013-08-09T08:24:20Z</time>
      </trkpt>
      <trkpt lat="43.87679" lon="4.01236">
        <ele>87.14</ele>
        <time>2013-08-09T08:24:24Z</time>
      </trkpt>
      <trkpt lat="43.87696" lon="4.01221">
        <ele>87.14</ele>
        <time>2013-08-09T08:24:25Z</time>
      </trkpt>
      <trkpt lat="43.87713" lon="4.01202">
        <ele>86.66</ele>
        <time>2013-08-09T08:24:26Z</time>
      </trkpt>
      <trkpt lat="43.87902" lon="4.00969">
        <ele>82.33</ele>
        <time>2013-08-09T08:24:38Z</time>
      </trkpt>
      <trkpt lat="43.88015" lon="4.00782">
        <ele>80.89</ele>
        <time>2013-08-09T08:24:46Z</time>
      </trkpt>
      <trkpt lat="43.8803" lon="4.00763">
        <ele>80.41</ele>
        <time>2013-08-09T08:24:47Z</time>
      </trkpt>
      <trkpt lat="43.88047" lon="4.00747">
        <ele>79.45</ele>
        <time>2013-08-09T08:24:48Z</time>
      </trkpt>
      <trkpt lat="43.88066" lon="4.00735">
        <ele>78.48</ele>
        <time>2013-08-09T08:24:49Z</time>
      </trkpt>
      <trkpt lat="43.88086" lon="4.00726">
        <ele>77.52</ele>
        <time>2013-08-09T08:24:50Z</time>
      </trkpt>
      <trkpt lat="43.88111" lon="4.00723">
        <ele>76.56</ele>
        <time>2013-08-09T08:24:51Z</time>
      </trkpt>
      <trkpt lat="43.88134" lon="4.00722">
        <ele>75.6</ele>
        <time>2013-08-09T08:24:52Z</time>
      </trkpt>
      <trkpt lat="43.88157" lon="4.00722">
        <ele>75.6</ele>
        <time>2013-08-09T08:24:53Z</time>
      </trkpt>
      <trkpt lat="43.8818" lon="4.00725">
        <ele>74.64</ele>
        <time>2013-08-09T08:24:54Z</time>
      </trkpt>
      <trkpt lat="43.88203" lon="4.00729">
        <ele>74.64</ele>
        <time>2013-08-09T08:24:55Z</time>
      </trkpt>
      <trkpt lat="43.88224" lon="4.00736">
        <ele>74.64</ele>
        <time>2013-08-09T08:24:56Z</time>
      </trkpt>
      <trkpt lat="43.88311" lon="4.00757">
        <ele>76.56</ele>
        <time>2013-08-09T08:25:01Z</time>
      </trkpt>
      <trkpt lat="43.88331" lon="4.00755">
        <ele>76.08</ele>
        <time>2013-08-09T08:25:02Z</time>
      </trkpt>
      <trkpt lat="43.88351" lon="4.00751">
        <ele>76.08</ele>
        <time>2013-08-09T08:25:03Z</time>
      </trkpt>
      <trkpt lat="43.88372" lon="4.00742">
        <ele>75.6</ele>
        <time>2013-08-09T08:25:04Z</time>
      </trkpt>
      <trkpt lat="43.88394" lon="4.00728">
        <ele>75.12</ele>
        <time>2013-08-09T08:25:05Z</time>
      </trkpt>
      <trkpt lat="43.88418" lon="4.00708">
        <ele>74.64</ele>
        <time>2013-08-09T08:25:06Z</time>
      </trkpt>
      <trkpt lat="43.88443" lon="4.00688">
        <ele>74.64</ele>
        <time>2013-08-09T08:25:07Z</time>
      </trkpt>
      <trkpt lat="43.88645" lon="4.00522">
        <ele>74.16</ele>
        <time>2013-08-09T08:25:15Z</time>
      </trkpt>
      <trkpt lat="43.8877" lon="4.00413">
        <ele>75.12</ele>
        <time>2013-08-09T08:25:21Z</time>
      </trkpt>
      <trkpt lat="43.88806" lon="4.00383">
        <ele>75.12</ele>
        <time>2013-08-09T08:25:23Z</time>
      </trkpt>
      <trkpt lat="43.88822" lon="4.00363">
        <ele>75.6</ele>
        <time>2013-08-09T08:25:24Z</time>
      </trkpt>
      <trkpt lat="43.88838" lon="4.00343">
        <ele>75.6</ele>
        <time>2013-08-09T08:25:25Z</time>
      </trkpt>
      <trkpt lat="43.88853" lon="4.0032">
        <ele>76.08</ele>
        <time>2013-08-09T08:25:26Z</time>
      </trkpt>
      <trkpt lat="43.88866" lon="4.00297">
        <ele>76.08</ele>
        <time>2013-08-09T08:25:27Z</time>
      </trkpt>
      <trkpt lat="43.88878" lon="4.00273">
        <ele>76.56</ele>
        <time>2013-08-09T08:25:28Z</time>
      </trkpt>
      <trkpt lat="43.88936" lon="4.00196">
        <ele>77.52</ele>
        <time>2013-08-09T08:25:32Z</time>
      </trkpt>
      <trkpt lat="43.88954" lon="4.00185">
        <ele>78</ele>
        <time>2013-08-09T08:25:33Z</time>
      </trkpt>
      <trkpt lat="43.88975" lon="4.00178">
        <ele>78.48</ele>
        <time>2013-08-09T08:25:34Z</time>
      </trkpt>
      <trkpt lat="43.88995" lon="4.00173">
        <ele>79.45</ele>
        <time>2013-08-09T08:25:35Z</time>
      </trkpt>
      <trkpt lat="43.89015" lon="4.00169">
        <ele>79.93</ele>
        <time>2013-08-09T08:25:36Z</time>
      </trkpt>
      <trkpt lat="43.89205" lon="4.00158">
        <ele>79.93</ele>
        <time>2013-08-09T08:25:46Z</time>
      </trkpt>
      <trkpt lat="43.89224" lon="4.0016">
        <ele>79.45</ele>
        <time>2013-08-09T08:25:47Z</time>
      </trkpt>
      <trkpt lat="43.89243" lon="4.00167">
        <ele>78.97</ele>
        <time>2013-08-09T08:25:48Z</time>
      </trkpt>
      <trkpt lat="43.89261" lon="4.00177">
        <ele>78.97</ele>
        <time>2013-08-09T08:25:49Z</time>
      </trkpt>
      <trkpt lat="43.89278" lon="4.00191">
        <ele>78.48</ele>
        <time>2013-08-09T08:25:50Z</time>
      </trkpt>
      <trkpt lat="43.89292" lon="4.00211">
        <ele>78.48</ele>
        <time>2013-08-09T08:25:51Z</time>
      </trkpt>
      <trkpt lat="43.89305" lon="4.0023">
        <ele>78</ele>
        <time>2013-08-09T08:25:52Z</time>
      </trkpt>
      <trkpt lat="43.89319" lon="4.00247">
        <ele>77.52</ele>
        <time>2013-08-09T08:25:53Z</time>
      </trkpt>
      <trkpt lat="43.89334" lon="4.00261">
        <ele>77.04</ele>
        <time>2013-08-09T08:25:54Z</time>
      </trkpt>
      <trkpt lat="43.89369" lon="4.00281">
        <ele>75.6</ele>
        <time>2013-08-09T08:25:56Z</time>
      </trkpt>
      <trkpt lat="43.89391" lon="4.00284">
        <ele>75.12</ele>
        <time>2013-08-09T08:25:57Z</time>
      </trkpt>
      <trkpt lat="43.89413" lon="4.00285">
        <ele>74.64</ele>
        <time>2013-08-09T08:25:58Z</time>
      </trkpt>
      <trkpt lat="43.89435" lon="4.00283">
        <ele>74.16</ele>
        <time>2013-08-09T08:25:59Z</time>
      </trkpt>
      <trkpt lat="43.89456" lon="4.00278">
        <ele>74.16</ele>
        <time>2013-08-09T08:26:00Z</time>
      </trkpt>
      <trkpt lat="43.89586" lon="4.00248">
        <ele>74.16</ele>
        <time>2013-08-09T08:26:05Z</time>
      </trkpt>
      <trkpt lat="43.8978" lon="4.00193">
        <ele>75.12</ele>
        <time>2013-08-09T08:26:12Z</time>
      </trkpt>
      <trkpt lat="43.90055" lon="4.00119">
        <ele>74.64</ele>
        <time>2013-08-09T08:26:22Z</time>
      </trkpt>
      <trkpt lat="43.90211" lon="4.00117">
        <ele>78</ele>
        <time>2013-08-09T08:26:29Z</time>
      </trkpt>
      <trkpt lat="43.90243" lon="4.00123">
        <ele>78.48</ele>
        <time>2013-08-09T08:26:31Z</time>
      </trkpt>
      <trkpt lat="43.90257" lon="4.00129">
        <ele>78.48</ele>
        <time>2013-08-09T08:26:32Z</time>
      </trkpt>
      <trkpt lat="43.9028" lon="4.00139">
        <ele>79.45</ele>
        <time>2013-08-09T08:26:34Z</time>
      </trkpt>
      <trkpt lat="43.90291" lon="4.00141">
        <ele>79.45</ele>
        <time>2013-08-09T08:26:35Z</time>
      </trkpt>
      <trkpt lat="43.90341" lon="4.00159">
        <ele>79.93</ele>
        <time>2013-08-09T08:26:39Z</time>
      </trkpt>
      <trkpt lat="43.90356" lon="4.00174">
        <ele>79.93</ele>
        <time>2013-08-09T08:26:40Z</time>
      </trkpt>
      <trkpt lat="43.90371" lon="4.00191">
        <ele>79.93</ele>
        <time>2013-08-09T08:26:41Z</time>
      </trkpt>
      <trkpt lat="43.90498" lon="4.00358">
        <ele>79.93</ele>
        <time>2013-08-09T08:26:49Z</time>
      </trkpt>
      <trkpt lat="43.90557" lon="4.00447">
        <ele>78.97</ele>
        <time>2013-08-09T08:26:55Z</time>
      </trkpt>
      <trkpt lat="43.90558" lon="4.00453">
        <ele>78.97</ele>
        <time>2013-08-09T08:26:56Z</time>
      </trkpt>
      <trkpt lat="43.90559" lon="4.00456">
        <ele>78.97</ele>
        <time>2013-08-09T08:26:57Z</time>
      </trkpt>
      <trkpt lat="43.90561" lon="4.00466">
        <ele>78.97</ele>
        <time>2013-08-09T08:26:59Z</time>
      </trkpt>
      <trkpt lat="43.90562" lon="4.00478">
        <ele>78.97</ele>
        <time>2013-08-09T08:27:00Z</time>
      </trkpt>
      <trkpt lat="43.90565" lon="4.00491">
        <ele>78.97</ele>
        <time>2013-08-09T08:27:01Z</time>
      </trkpt>
      <trkpt lat="43.90569" lon="4.00502">
        <ele>78.48</ele>
        <time>2013-08-09T08:27:02Z</time>
      </trkpt>
      <trkpt lat="43.90575" lon="4.00511">
        <ele>78.48</ele>
        <time>2013-08-09T08:27:03Z</time>
      </trkpt>
      <trkpt lat="43.90581" lon="4.00517">
        <ele>78</ele>
        <time>2013-08-09T08:27:04Z</time>
      </trkpt>
      <trkpt lat="43.90593" lon="4.00514">
        <ele>78.48</ele>
        <time>2013-08-09T08:27:05Z</time>
      </trkpt>
      <trkpt lat="43.90603" lon="4.00508">
        <ele>78.48</ele>
        <time>2013-08-09T08:27:06Z</time>
      </trkpt>
      <trkpt lat="43.90615" lon="4.00501">
        <ele>78.48</ele>
        <time>2013-08-09T08:27:07Z</time>
      </trkpt>
      <trkpt lat="43.90629" lon="4.00498">
        <ele>78.48</ele>
        <time>2013-08-09T08:27:08Z</time>
      </trkpt>
      <trkpt lat="43.90643" lon="4.00496">
        <ele>78.97</ele>
        <time>2013-08-09T08:27:09Z</time>
      </trkpt>
      <trkpt lat="43.90657" lon="4.00491">
        <ele>78.97</ele>
        <time>2013-08-09T08:27:10Z</time>
      </trkpt>
      <trkpt lat="43.90672" lon="4.00482">
        <ele>78.97</ele>
        <time>2013-08-09T08:27:11Z</time>
      </trkpt>
      <trkpt lat="43.90686" lon="4.00471">
        <ele>79.45</ele>
        <time>2013-08-09T08:27:12Z</time>
      </trkpt>
      <trkpt lat="43.90698" lon="4.00459">
        <ele>79.45</ele>
        <time>2013-08-09T08:27:13Z</time>
      </trkpt>
      <trkpt lat="43.9071" lon="4.00446">
        <ele>79.93</ele>
        <time>2013-08-09T08:27:14Z</time>
      </trkpt>
      <trkpt lat="43.9072" lon="4.00433">
        <ele>79.93</ele>
        <time>2013-08-09T08:27:15Z</time>
      </trkpt>
      <trkpt lat="43.90729" lon="4.00419">
        <ele>80.41</ele>
        <time>2013-08-09T08:27:16Z</time>
      </trkpt>
      <trkpt lat="43.90783" lon="4.00346">
        <ele>80.89</ele>
        <time>2013-08-09T08:27:24Z</time>
      </trkpt>
      <trkpt lat="43.90809" lon="4.00325">
        <ele>81.37</ele>
        <time>2013-08-09T08:27:32Z</time>
      </trkpt>
      <trkpt lat="43.90855" lon="4.00305">
        <ele>82.33</ele>
        <time>2013-08-09T08:27:41Z</time>
      </trkpt>
      <trkpt lat="43.90882" lon="4.00295">
        <ele>82.81</ele>
        <time>2013-08-09T08:27:51Z</time>
      </trkpt>
      <trkpt lat="43.90913" lon="4.00284">
        <ele>82.81</ele>
        <time>2013-08-09T08:27:59Z</time>
      </trkpt>
      <trkpt lat="43.90963" lon="4.00265">
        <ele>85.69</ele>
        <time>2013-08-09T08:28:09Z</time>
      </trkpt>
      <trkpt lat="43.91008" lon="4.00232">
        <ele>87.62</ele>
        <time>2013-08-09T08:28:19Z</time>
      </trkpt>
      <trkpt lat="43.9103" lon="4.00213">
        <ele>88.58</ele>
        <time>2013-08-09T08:28:27Z</time>
      </trkpt>
      <trkpt lat="43.91042" lon="4.00198">
        <ele>88.1</ele>
        <time>2013-08-09T08:28:50Z</time>
      </trkpt>
      <trkpt lat="43.91047" lon="4.00195">
        <ele>88.1</ele>
        <time>2013-08-09T08:28:51Z</time>
      </trkpt>
      <trkpt lat="43.91052" lon="4.00193">
        <ele>88.1</ele>
        <time>2013-08-09T08:28:52Z</time>
      </trkpt>
      <trkpt lat="43.91058" lon="4.00195">
        <ele>87.62</ele>
        <time>2013-08-09T08:28:53Z</time>
      </trkpt>
      <trkpt lat="43.91064" lon="4.00199">
        <ele>87.14</ele>
        <time>2013-08-09T08:28:54Z</time>
      </trkpt>
      <trkpt lat="43.9107" lon="4.00207">
        <ele>87.14</ele>
        <time>2013-08-09T08:28:55Z</time>
      </trkpt>
      <trkpt lat="43.91077" lon="4.00216">
        <ele>87.14</ele>
        <time>2013-08-09T08:28:56Z</time>
      </trkpt>
      <trkpt lat="43.91119" lon="4.00271">
        <ele>88.58</ele>
        <time>2013-08-09T08:29:01Z</time>
      </trkpt>
      <trkpt lat="43.91143" lon="4.00301">
        <ele>90.02</ele>
        <time>2013-08-09T08:29:07Z</time>
      </trkpt>
      <trkpt lat="43.91147" lon="4.00306">
        <ele>90.02</ele>
        <time>2013-08-09T08:29:08Z</time>
      </trkpt>
      <trkpt lat="43.91153" lon="4.0031">
        <ele>90.5</ele>
        <time>2013-08-09T08:29:09Z</time>
      </trkpt>
      <trkpt lat="43.91159" lon="4.00314">
        <ele>90.5</ele>
        <time>2013-08-09T08:29:10Z</time>
      </trkpt>
      <trkpt lat="43.91166" lon="4.00317">
        <ele>90.5</ele>
        <time>2013-08-09T08:29:11Z</time>
      </trkpt>
      <trkpt lat="43.91174" lon="4.00319">
        <ele>90.5</ele>
        <time>2013-08-09T08:29:12Z</time>
      </trkpt>
      <trkpt lat="43.91182" lon="4.00321">
        <ele>90.5</ele>
        <time>2013-08-09T08:29:13Z</time>
      </trkpt>
      <trkpt lat="43.91272" lon="4.00336">
        <ele>92.9</ele>
        <time>2013-08-09T08:29:23Z</time>
      </trkpt>
      <trkpt lat="43.91361" lon="4.00366">
        <ele>95.79</ele>
        <time>2013-08-09T08:29:32Z</time>
      </trkpt>
      <trkpt lat="43.91454" lon="4.00405">
        <ele>96.27</ele>
        <time>2013-08-09T08:29:40Z</time>
      </trkpt>
      <trkpt lat="43.91572" lon="4.00452">
        <ele>95.79</ele>
        <time>2013-08-09T08:29:51Z</time>
      </trkpt>
      <trkpt lat="43.91681" lon="4.00515">
        <ele>94.83</ele>
        <time>2013-08-09T08:30:00Z</time>
      </trkpt>
      <trkpt lat="43.91812" lon="4.00603">
        <ele>95.79</ele>
        <time>2013-08-09T08:30:09Z</time>
      </trkpt>
      <trkpt lat="43.91828" lon="4.00611">
        <ele>95.79</ele>
        <time>2013-08-09T08:30:10Z</time>
      </trkpt>
      <trkpt lat="43.91844" lon="4.00615">
        <ele>96.27</ele>
        <time>2013-08-09T08:30:11Z</time>
      </trkpt>
      <trkpt lat="43.9186" lon="4.00615">
        <ele>96.27</ele>
        <time>2013-08-09T08:30:12Z</time>
      </trkpt>
      <trkpt lat="43.91876" lon="4.00611">
        <ele>96.27</ele>
        <time>2013-08-09T08:30:13Z</time>
      </trkpt>
      <trkpt lat="43.91899" lon="4.00601">
        <ele>96.75</ele>
        <time>2013-08-09T08:30:14Z</time>
      </trkpt>
      <trkpt lat="43.9192" lon="4.0059">
        <ele>97.23</ele>
        <time>2013-08-09T08:30:15Z</time>
      </trkpt>
      <trkpt lat="43.92015" lon="4.00553">
        <ele>100.11</ele>
        <time>2013-08-09T08:30:20Z</time>
      </trkpt>
      <trkpt lat="43.92182" lon="4.00541">
        <ele>102.52</ele>
        <time>2013-08-09T08:30:27Z</time>
      </trkpt>
      <trkpt lat="43.92402" lon="4.00501">
        <ele>105.4</ele>
        <time>2013-08-09T08:30:36Z</time>
      </trkpt>
      <trkpt lat="43.92769" lon="4.00404">
        <ele>113.09</ele>
        <time>2013-08-09T08:30:51Z</time>
      </trkpt>
      <trkpt lat="43.93058" lon="4.00323">
        <ele>116.94</ele>
        <time>2013-08-09T08:31:03Z</time>
      </trkpt>
      <trkpt lat="43.93242" lon="4.00274">
        <ele>115.01</ele>
        <time>2013-08-09T08:31:10Z</time>
      </trkpt>
      <trkpt lat="43.93634" lon="4.00156">
        <ele>110.21</ele>
        <time>2013-08-09T08:31:25Z</time>
      </trkpt>
      <trkpt lat="43.93748" lon="4.00132">
        <ele>110.21</ele>
        <time>2013-08-09T08:31:30Z</time>
      </trkpt>
      <trkpt lat="43.93772" lon="4.00136">
        <ele>110.21</ele>
        <time>2013-08-09T08:31:31Z</time>
      </trkpt>
      <trkpt lat="43.94006" lon="4.00186">
        <ele>105.4</ele>
        <time>2013-08-09T08:31:40Z</time>
      </trkpt>
      <trkpt lat="43.94405" lon="4.00243">
        <ele>101.08</ele>
        <time>2013-08-09T08:31:55Z</time>
      </trkpt>
      <trkpt lat="43.94526" lon="4.00257">
        <ele>100.6</ele>
        <time>2013-08-09T08:32:01Z</time>
      </trkpt>
      <trkpt lat="43.9454" lon="4.0025">
        <ele>100.6</ele>
        <time>2013-08-09T08:32:02Z</time>
      </trkpt>
      <trkpt lat="43.94554" lon="4.0024">
        <ele>100.11</ele>
        <time>2013-08-09T08:32:03Z</time>
      </trkpt>
      <trkpt lat="43.94568" lon="4.00226">
        <ele>99.63</ele>
        <time>2013-08-09T08:32:04Z</time>
      </trkpt>
      <trkpt lat="43.94581" lon="4.0021">
        <ele>99.15</ele>
        <time>2013-08-09T08:32:05Z</time>
      </trkpt>
      <trkpt lat="43.9462" lon="4.00184">
        <ele>98.67</ele>
        <time>2013-08-09T08:32:07Z</time>
      </trkpt>
      <trkpt lat="43.94642" lon="4.00175">
        <ele>98.67</ele>
        <time>2013-08-09T08:32:08Z</time>
      </trkpt>
      <trkpt lat="43.94822" lon="4.00104">
        <ele>103.48</ele>
        <time>2013-08-09T08:32:15Z</time>
      </trkpt>
      <trkpt lat="43.95066" lon="3.99977">
        <ele>103.48</ele>
        <time>2013-08-09T08:32:25Z</time>
      </trkpt>
      <trkpt lat="43.95359" lon="3.99862">
        <ele>103.48</ele>
        <time>2013-08-09T08:32:37Z</time>
      </trkpt>
      <trkpt lat="43.95528" lon="3.99727">
        <ele>104.44</ele>
        <time>2013-08-09T08:32:45Z</time>
      </trkpt>
      <trkpt lat="43.95543" lon="3.99711">
        <ele>104.44</ele>
        <time>2013-08-09T08:32:46Z</time>
      </trkpt>
      <trkpt lat="43.95554" lon="3.99691">
        <ele>103.96</ele>
        <time>2013-08-09T08:32:47Z</time>
      </trkpt>
      <trkpt lat="43.95565" lon="3.99669">
        <ele>103.96</ele>
        <time>2013-08-09T08:32:48Z</time>
      </trkpt>
      <trkpt lat="43.9559" lon="3.99619">
        <ele>103.96</ele>
        <time>2013-08-09T08:32:50Z</time>
      </trkpt>
      <trkpt lat="43.95608" lon="3.99595">
        <ele>104.44</ele>
        <time>2013-08-09T08:32:51Z</time>
      </trkpt>
      <trkpt lat="43.95629" lon="3.99575">
        <ele>103.96</ele>
        <time>2013-08-09T08:32:52Z</time>
      </trkpt>
      <trkpt lat="43.9577" lon="3.99458">
        <ele>103.48</ele>
        <time>2013-08-09T08:32:59Z</time>
      </trkpt>
      <trkpt lat="43.95787" lon="3.99455">
        <ele>103.48</ele>
        <time>2013-08-09T08:33:00Z</time>
      </trkpt>
      <trkpt lat="43.95804" lon="3.99459">
        <ele>103.96</ele>
        <time>2013-08-09T08:33:01Z</time>
      </trkpt>
      <trkpt lat="43.95822" lon="3.99469">
        <ele>104.92</ele>
        <time>2013-08-09T08:33:02Z</time>
      </trkpt>
      <trkpt lat="43.9584" lon="3.99482">
        <ele>105.88</ele>
        <time>2013-08-09T08:33:03Z</time>
      </trkpt>
      <trkpt lat="43.95858" lon="3.99497">
        <ele>106.36</ele>
        <time>2013-08-09T08:33:04Z</time>
      </trkpt>
      <trkpt lat="43.95947" lon="3.99558">
        <ele>108.29</ele>
        <time>2013-08-09T08:33:09Z</time>
      </trkpt>
      <trkpt lat="43.95963" lon="3.9956">
        <ele>107.81</ele>
        <time>2013-08-09T08:33:10Z</time>
      </trkpt>
      <trkpt lat="43.95979" lon="3.99557">
        <ele>106.84</ele>
        <time>2013-08-09T08:33:11Z</time>
      </trkpt>
      <trkpt lat="43.96002" lon="3.99544">
        <ele>107.32</ele>
        <time>2013-08-09T08:33:12Z</time>
      </trkpt>
      <trkpt lat="43.96022" lon="3.99529">
        <ele>107.81</ele>
        <time>2013-08-09T08:33:13Z</time>
      </trkpt>
      <trkpt lat="43.96043" lon="3.99511">
        <ele>108.77</ele>
        <time>2013-08-09T08:33:14Z</time>
      </trkpt>
      <trkpt lat="43.96065" lon="3.99492">
        <ele>110.21</ele>
        <time>2013-08-09T08:33:15Z</time>
      </trkpt>
      <trkpt lat="43.96189" lon="3.99403">
        <ele>118.38</ele>
        <time>2013-08-09T08:33:21Z</time>
      </trkpt>
      <trkpt lat="43.96235" lon="3.99394">
        <ele>120.3</ele>
        <time>2013-08-09T08:33:23Z</time>
      </trkpt>
      <trkpt lat="43.96397" lon="3.99343">
        <ele>121.26</ele>
        <time>2013-08-09T08:33:30Z</time>
      </trkpt>
      <trkpt lat="43.96421" lon="3.99343">
        <ele>121.26</ele>
        <time>2013-08-09T08:33:31Z</time>
      </trkpt>
      <trkpt lat="43.96631" lon="3.99354">
        <ele>127.03</ele>
        <time>2013-08-09T08:33:40Z</time>
      </trkpt>
      <trkpt lat="43.96791" lon="3.99324">
        <ele>133.28</ele>
        <time>2013-08-09T08:33:47Z</time>
      </trkpt>
      <trkpt lat="43.96864" lon="3.99301">
        <ele>134.72</ele>
        <time>2013-08-09T08:33:53Z</time>
      </trkpt>
      <trkpt lat="43.96907" lon="3.99284">
        <ele>136.16</ele>
        <time>2013-08-09T08:33:59Z</time>
      </trkpt>
      <trkpt lat="43.96971" lon="3.99259">
        <ele>138.09</ele>
        <time>2013-08-09T08:34:05Z</time>
      </trkpt>
      <trkpt lat="43.97025" lon="3.99248">
        <ele>139.53</ele>
        <time>2013-08-09T08:34:11Z</time>
      </trkpt>
      <trkpt lat="43.97138" lon="3.99254">
        <ele>144.82</ele>
        <time>2013-08-09T08:34:21Z</time>
      </trkpt>
      <trkpt lat="43.97234" lon="3.9927">
        <ele>149.62</ele>
        <time>2013-08-09T08:34:32Z</time>
      </trkpt>
      <trkpt lat="43.97331" lon="3.99275">
        <ele>154.43</ele>
        <time>2013-08-09T08:34:42Z</time>
      </trkpt>
      <trkpt lat="43.97423" lon="3.99262">
        <ele>156.83</ele>
        <time>2013-08-09T08:34:51Z</time>
      </trkpt>
      <trkpt lat="43.97488" lon="3.99262">
        <ele>157.31</ele>
        <time>2013-08-09T08:34:59Z</time>
      </trkpt>
      <trkpt lat="43.975" lon="3.99261">
        <ele>157.31</ele>
        <time>2013-08-09T08:35:00Z</time>
      </trkpt>
      <trkpt lat="43.97513" lon="3.99255">
        <ele>156.83</ele>
        <time>2013-08-09T08:35:01Z</time>
      </trkpt>
      <trkpt lat="43.97526" lon="3.99246">
        <ele>156.83</ele>
        <time>2013-08-09T08:35:02Z</time>
      </trkpt>
      <trkpt lat="43.9754" lon="3.99235">
        <ele>156.83</ele>
        <time>2013-08-09T08:35:03Z</time>
      </trkpt>
      <trkpt lat="43.97555" lon="3.99223">
        <ele>155.87</ele>
        <time>2013-08-09T08:35:04Z</time>
      </trkpt>
      <trkpt lat="43.97636" lon="3.99185">
        <ele>151.06</ele>
        <time>2013-08-09T08:35:09Z</time>
      </trkpt>
      <trkpt lat="43.97654" lon="3.99185">
        <ele>150.1</ele>
        <time>2013-08-09T08:35:10Z</time>
      </trkpt>
      <trkpt lat="43.97671" lon="3.99189">
        <ele>149.14</ele>
        <time>2013-08-09T08:35:11Z</time>
      </trkpt>
      <trkpt lat="43.97689" lon="3.99197">
        <ele>149.14</ele>
        <time>2013-08-09T08:35:12Z</time>
      </trkpt>
      <trkpt lat="43.97705" lon="3.99206">
        <ele>148.66</ele>
        <time>2013-08-09T08:35:13Z</time>
      </trkpt>
      <trkpt lat="43.97829" lon="3.99274">
        <ele>148.18</ele>
        <time>2013-08-09T08:35:20Z</time>
      </trkpt>
      <trkpt lat="43.97971" lon="3.99353">
        <ele>148.18</ele>
        <time>2013-08-09T08:35:28Z</time>
      </trkpt>
      <trkpt lat="43.98018" lon="3.99377">
        <ele>146.74</ele>
        <time>2013-08-09T08:35:31Z</time>
      </trkpt>
      <trkpt lat="43.98029" lon="3.9939">
        <ele>146.26</ele>
        <time>2013-08-09T08:35:32Z</time>
      </trkpt>
      <trkpt lat="43.98039" lon="3.99408">
        <ele>146.26</ele>
        <time>2013-08-09T08:35:33Z</time>
      </trkpt>
      <trkpt lat="43.98045" lon="3.99429">
        <ele>146.74</ele>
        <time>2013-08-09T08:35:34Z</time>
      </trkpt>
      <trkpt lat="43.9805" lon="3.9945">
        <ele>146.74</ele>
        <time>2013-08-09T08:35:35Z</time>
      </trkpt>
      <trkpt lat="43.98058" lon="3.99467">
        <ele>147.22</ele>
        <time>2013-08-09T08:35:36Z</time>
      </trkpt>
      <trkpt lat="43.98067" lon="3.99484">
        <ele>147.7</ele>
        <time>2013-08-09T08:35:37Z</time>
      </trkpt>
      <trkpt lat="43.98078" lon="3.99498">
        <ele>148.18</ele>
        <time>2013-08-09T08:35:38Z</time>
      </trkpt>
      <trkpt lat="43.98092" lon="3.99509">
        <ele>149.14</ele>
        <time>2013-08-09T08:35:39Z</time>
      </trkpt>
      <trkpt lat="43.98108" lon="3.99517">
        <ele>150.1</ele>
        <time>2013-08-09T08:35:40Z</time>
      </trkpt>
      <trkpt lat="43.98124" lon="3.99525">
        <ele>150.58</ele>
        <time>2013-08-09T08:35:41Z</time>
      </trkpt>
      <trkpt lat="43.9814" lon="3.99534">
        <ele>151.06</ele>
        <time>2013-08-09T08:35:42Z</time>
      </trkpt>
      <trkpt lat="43.98325" lon="3.99658">
        <ele>149.14</ele>
        <time>2013-08-09T08:35:53Z</time>
      </trkpt>
      <trkpt lat="43.98342" lon="3.99674">
        <ele>148.18</ele>
        <time>2013-08-09T08:35:54Z</time>
      </trkpt>
      <trkpt lat="43.98358" lon="3.99694">
        <ele>147.22</ele>
        <time>2013-08-09T08:35:55Z</time>
      </trkpt>
      <trkpt lat="43.98372" lon="3.99715">
        <ele>145.78</ele>
        <time>2013-08-09T08:35:56Z</time>
      </trkpt>
      <trkpt lat="43.98385" lon="3.99738">
        <ele>144.34</ele>
        <time>2013-08-09T08:35:57Z</time>
      </trkpt>
      <trkpt lat="43.98399" lon="3.99761">
        <ele>142.89</ele>
        <time>2013-08-09T08:35:58Z</time>
      </trkpt>
      <trkpt lat="43.98513" lon="3.99909">
        <ele>139.05</ele>
        <time>2013-08-09T08:36:06Z</time>
      </trkpt>
      <trkpt lat="43.98529" lon="3.99923">
        <ele>139.05</ele>
        <time>2013-08-09T08:36:07Z</time>
      </trkpt>
      <trkpt lat="43.98546" lon="3.99934">
        <ele>139.05</ele>
        <time>2013-08-09T08:36:08Z</time>
      </trkpt>
      <trkpt lat="43.98566" lon="3.99944">
        <ele>139.05</ele>
        <time>2013-08-09T08:36:09Z</time>
      </trkpt>
      <trkpt lat="43.98704" lon="4.00002">
        <ele>141.93</ele>
        <time>2013-08-09T08:36:15Z</time>
      </trkpt>
      <trkpt lat="43.98896" lon="4.00096">
        <ele>149.62</ele>
        <time>2013-08-09T08:36:24Z</time>
      </trkpt>
      <trkpt lat="43.99026" lon="4.00179">
        <ele>157.31</ele>
        <time>2013-08-09T08:36:30Z</time>
      </trkpt>
      <trkpt lat="43.99079" lon="4.00204">
        <ele>161.16</ele>
        <time>2013-08-09T08:36:33Z</time>
      </trkpt>
      <trkpt lat="43.99097" lon="4.00207">
        <ele>162.12</ele>
        <time>2013-08-09T08:36:34Z</time>
      </trkpt>
      <trkpt lat="43.99114" lon="4.00208">
        <ele>163.08</ele>
        <time>2013-08-09T08:36:35Z</time>
      </trkpt>
      <trkpt lat="43.9913" lon="4.00207">
        <ele>164.04</ele>
        <time>2013-08-09T08:36:36Z</time>
      </trkpt>
      <trkpt lat="43.99145" lon="4.00202">
        <ele>165</ele>
        <time>2013-08-09T08:36:37Z</time>
      </trkpt>
      <trkpt lat="43.9916" lon="4.00194">
        <ele>165.48</ele>
        <time>2013-08-09T08:36:38Z</time>
      </trkpt>
      <trkpt lat="43.99175" lon="4.00185">
        <ele>165.48</ele>
        <time>2013-08-09T08:36:39Z</time>
      </trkpt>
      <trkpt lat="43.9919" lon="4.00175">
        <ele>165.48</ele>
        <time>2013-08-09T08:36:40Z</time>
      </trkpt>
      <trkpt lat="43.99222" lon="4.00157">
        <ele>165.48</ele>
        <time>2013-08-09T08:36:42Z</time>
      </trkpt>
      <trkpt lat="43.99239" lon="4.00151">
        <ele>165.96</ele>
        <time>2013-08-09T08:36:43Z</time>
      </trkpt>
      <trkpt lat="43.99258" lon="4.00147">
        <ele>165.96</ele>
        <time>2013-08-09T08:36:44Z</time>
      </trkpt>
      <trkpt lat="43.9928" lon="4.00145">
        <ele>166.45</ele>
        <time>2013-08-09T08:36:45Z</time>
      </trkpt>
      <trkpt lat="43.99304" lon="4.00145">
        <ele>166.45</ele>
        <time>2013-08-09T08:36:46Z</time>
      </trkpt>
      <trkpt lat="43.99328" lon="4.00146">
        <ele>167.41</ele>
        <time>2013-08-09T08:36:47Z</time>
      </trkpt>
      <trkpt lat="43.99437" lon="4.00134">
        <ele>171.25</ele>
        <time>2013-08-09T08:36:52Z</time>
      </trkpt>
      <trkpt lat="43.99458" lon="4.00137">
        <ele>171.73</ele>
        <time>2013-08-09T08:36:53Z</time>
      </trkpt>
      <trkpt lat="43.99479" lon="4.00145">
        <ele>172.21</ele>
        <time>2013-08-09T08:36:54Z</time>
      </trkpt>
      <trkpt lat="43.995" lon="4.00159">
        <ele>171.73</ele>
        <time>2013-08-09T08:36:55Z</time>
      </trkpt>
      <trkpt lat="43.9952" lon="4.00175">
        <ele>171.73</ele>
        <time>2013-08-09T08:36:56Z</time>
      </trkpt>
      <trkpt lat="43.99537" lon="4.00192">
        <ele>171.25</ele>
        <time>2013-08-09T08:36:57Z</time>
      </trkpt>
      <trkpt lat="43.99556" lon="4.00208">
        <ele>171.25</ele>
        <time>2013-08-09T08:36:58Z</time>
      </trkpt>
      <trkpt lat="43.99576" lon="4.0022">
        <ele>170.77</ele>
        <time>2013-08-09T08:36:59Z</time>
      </trkpt>
      <trkpt lat="43.99597" lon="4.00229">
        <ele>170.77</ele>
        <time>2013-08-09T08:37:00Z</time>
      </trkpt>
      <trkpt lat="43.99619" lon="4.00234">
        <ele>170.77</ele>
        <time>2013-08-09T08:37:01Z</time>
      </trkpt>
      <trkpt lat="43.99644" lon="4.00236">
        <ele>170.77</ele>
        <time>2013-08-09T08:37:02Z</time>
      </trkpt>
      <trkpt lat="43.99668" lon="4.00237">
        <ele>170.77</ele>
        <time>2013-08-09T08:37:03Z</time>
      </trkpt>
      <trkpt lat="43.99787" lon="4.00244">
        <ele>174.14</ele>
        <time>2013-08-09T08:37:09Z</time>
      </trkpt>
      <trkpt lat="43.99801" lon="4.00252">
        <ele>174.62</ele>
        <time>2013-08-09T08:37:10Z</time>
      </trkpt>
      <trkpt lat="43.99816" lon="4.00264">
        <ele>175.1</ele>
        <time>2013-08-09T08:37:11Z</time>
      </trkpt>
      <trkpt lat="43.99831" lon="4.00277">
        <ele>176.06</ele>
        <time>2013-08-09T08:37:12Z</time>
      </trkpt>
      <trkpt lat="43.99845" lon="4.0029">
        <ele>177.5</ele>
        <time>2013-08-09T08:37:13Z</time>
      </trkpt>
      <trkpt lat="43.99957" lon="4.00378">
        <ele>181.35</ele>
        <time>2013-08-09T08:37:21Z</time>
      </trkpt>
      <trkpt lat="44.00036" lon="4.00416">
        <ele>179.42</ele>
        <time>2013-08-09T08:37:26Z</time>
      </trkpt>
      <trkpt lat="44.00049" lon="4.00428">
        <ele>178.94</ele>
        <time>2013-08-09T08:37:27Z</time>
      </trkpt>
      <trkpt lat="44.00061" lon="4.00445">
        <ele>178.46</ele>
        <time>2013-08-09T08:37:28Z</time>
      </trkpt>
      <trkpt lat="44.00071" lon="4.00464">
        <ele>178.46</ele>
        <time>2013-08-09T08:37:29Z</time>
      </trkpt>
      <trkpt lat="44.00082" lon="4.00483">
        <ele>178.94</ele>
        <time>2013-08-09T08:37:30Z</time>
      </trkpt>
      <trkpt lat="44.00094" lon="4.005">
        <ele>178.94</ele>
        <time>2013-08-09T08:37:31Z</time>
      </trkpt>
      <trkpt lat="44.00107" lon="4.00514">
        <ele>178.94</ele>
        <time>2013-08-09T08:37:32Z</time>
      </trkpt>
      <trkpt lat="44.00195" lon="4.00603">
        <ele>180.87</ele>
        <time>2013-08-09T08:37:39Z</time>
      </trkpt>
      <trkpt lat="44.00209" lon="4.00612">
        <ele>180.38</ele>
        <time>2013-08-09T08:37:40Z</time>
      </trkpt>
      <trkpt lat="44.00223" lon="4.00619">
        <ele>179.9</ele>
        <time>2013-08-09T08:37:41Z</time>
      </trkpt>
      <trkpt lat="44.00301" lon="4.00654">
        <ele>176.54</ele>
        <time>2013-08-09T08:37:46Z</time>
      </trkpt>
      <trkpt lat="44.00313" lon="4.00667">
        <ele>175.58</ele>
        <time>2013-08-09T08:37:47Z</time>
      </trkpt>
      <trkpt lat="44.00324" lon="4.00685">
        <ele>175.58</ele>
        <time>2013-08-09T08:37:48Z</time>
      </trkpt>
      <trkpt lat="44.00333" lon="4.00703">
        <ele>175.58</ele>
        <time>2013-08-09T08:37:49Z</time>
      </trkpt>
      <trkpt lat="44.00342" lon="4.00721">
        <ele>175.58</ele>
        <time>2013-08-09T08:37:50Z</time>
      </trkpt>
      <trkpt lat="44.00386" lon="4.00782">
        <ele>174.14</ele>
        <time>2013-08-09T08:37:54Z</time>
      </trkpt>
      <trkpt lat="44.004" lon="4.00794">
        <ele>174.14</ele>
        <time>2013-08-09T08:37:55Z</time>
      </trkpt>
      <trkpt lat="44.00415" lon="4.00805">
        <ele>173.66</ele>
        <time>2013-08-09T08:37:56Z</time>
      </trkpt>
      <trkpt lat="44.00479" lon="4.00835">
        <ele>172.69</ele>
        <time>2013-08-09T08:38:00Z</time>
      </trkpt>
      <trkpt lat="44.00497" lon="4.00838">
        <ele>172.21</ele>
        <time>2013-08-09T08:38:01Z</time>
      </trkpt>
      <trkpt lat="44.00711" lon="4.00851">
        <ele>167.89</ele>
        <time>2013-08-09T08:38:13Z</time>
      </trkpt>
      <trkpt lat="44.00896" lon="4.00851">
        <ele>161.64</ele>
        <time>2013-08-09T08:38:22Z</time>
      </trkpt>
      <trkpt lat="44.01145" lon="4.00876">
        <ele>150.1</ele>
        <time>2013-08-09T08:38:32Z</time>
      </trkpt>
      <trkpt lat="44.01387" lon="4.0092">
        <ele>146.26</ele>
        <time>2013-08-09T08:38:43Z</time>
      </trkpt>
      <trkpt lat="44.01553" lon="4.00885">
        <ele>140.97</ele>
        <time>2013-08-09T08:38:51Z</time>
      </trkpt>
      <trkpt lat="44.01696" lon="4.00837">
        <ele>137.13</ele>
        <time>2013-08-09T08:39:00Z</time>
      </trkpt>
      <trkpt lat="44.01834" lon="4.00784">
        <ele>136.64</ele>
        <time>2013-08-09T08:39:09Z</time>
      </trkpt>
      <trkpt lat="44.01913" lon="4.00772">
        <ele>136.16</ele>
        <time>2013-08-09T08:39:16Z</time>
      </trkpt>
      <trkpt lat="44.01925" lon="4.00769">
        <ele>136.16</ele>
        <time>2013-08-09T08:39:22Z</time>
      </trkpt>
      <trkpt lat="44.01942" lon="4.00766">
        <ele>135.68</ele>
        <time>2013-08-09T08:40:16Z</time>
      </trkpt>
      <trkpt lat="44.02004" lon="4.00759">
        <ele>137.61</ele>
        <time>2013-08-09T08:40:24Z</time>
      </trkpt>
      <trkpt lat="44.02119" lon="4.00748">
        <ele>136.16</ele>
        <time>2013-08-09T08:40:33Z</time>
      </trkpt>
      <trkpt lat="44.02264" lon="4.00715">
        <ele>134.72</ele>
        <time>2013-08-09T08:40:41Z</time>
      </trkpt>
      <trkpt lat="44.0244" lon="4.00657">
        <ele>132.32</ele>
        <time>2013-08-09T08:40:49Z</time>
      </trkpt>
      <trkpt lat="44.02693" lon="4.00642">
        <ele>131.36</ele>
        <time>2013-08-09T08:41:00Z</time>
      </trkpt>
      <trkpt lat="44.02734" lon="4.00638">
        <ele>131.36</ele>
        <time>2013-08-09T08:41:02Z</time>
      </trkpt>
      <trkpt lat="44.02756" lon="4.00632">
        <ele>131.36</ele>
        <time>2013-08-09T08:41:03Z</time>
      </trkpt>
      <trkpt lat="44.02884" lon="4.00551">
        <ele>132.32</ele>
        <time>2013-08-09T08:41:09Z</time>
      </trkpt>
      <trkpt lat="44.03052" lon="4.00363">
        <ele>133.28</ele>
        <time>2013-08-09T08:41:18Z</time>
      </trkpt>
      <trkpt lat="44.03097" lon="4.00314">
        <ele>132.8</ele>
        <time>2013-08-09T08:41:21Z</time>
      </trkpt>
      <trkpt lat="44.03113" lon="4.00306">
        <ele>132.8</ele>
        <time>2013-08-09T08:41:22Z</time>
      </trkpt>
      <trkpt lat="44.03131" lon="4.00301">
        <ele>132.8</ele>
        <time>2013-08-09T08:41:23Z</time>
      </trkpt>
      <trkpt lat="44.03236" lon="4.00285">
        <ele>131.84</ele>
        <time>2013-08-09T08:41:29Z</time>
      </trkpt>
      <trkpt lat="44.03252" lon="4.00287">
        <ele>131.84</ele>
        <time>2013-08-09T08:41:30Z</time>
      </trkpt>
      <trkpt lat="44.03393" lon="4.00318">
        <ele>131.36</ele>
        <time>2013-08-09T08:41:40Z</time>
      </trkpt>
      <trkpt lat="44.03499" lon="4.00329">
        <ele>129.92</ele>
        <time>2013-08-09T08:41:50Z</time>
      </trkpt>
      <trkpt lat="44.0352" lon="4.00331">
        <ele>129.92</ele>
        <time>2013-08-09T08:41:53Z</time>
      </trkpt>
      <trkpt lat="44.0353" lon="4.00331">
        <ele>129.92</ele>
        <time>2013-08-09T08:41:55Z</time>
      </trkpt>
      <trkpt lat="44.03559" lon="4.00333">
        <ele>130.88</ele>
        <time>2013-08-09T08:42:04Z</time>
      </trkpt>
      <trkpt lat="44.03568" lon="4.00338">
        <ele>130.88</ele>
        <time>2013-08-09T08:42:17Z</time>
      </trkpt>
      <trkpt lat="44.03589" lon="4.00341">
        <ele>130.4</ele>
        <time>2013-08-09T08:42:25Z</time>
      </trkpt>
      <trkpt lat="44.03596" lon="4.00331">
        <ele>129.92</ele>
        <time>2013-08-09T08:42:26Z</time>
      </trkpt>
      <trkpt lat="44.03615" lon="4.003">
        <ele>129.92</ele>
        <time>2013-08-09T08:42:28Z</time>
      </trkpt>
      <trkpt lat="44.03678" lon="4.00187">
        <ele>128.95</ele>
        <time>2013-08-09T08:42:34Z</time>
      </trkpt>
      <trkpt lat="44.03723" lon="4.00077">
        <ele>129.43</ele>
        <time>2013-08-09T08:42:40Z</time>
      </trkpt>
      <trkpt lat="44.03735" lon="4.00065">
        <ele>129.92</ele>
        <time>2013-08-09T08:42:41Z</time>
      </trkpt>
      <trkpt lat="44.03749" lon="4.00059">
        <ele>129.92</ele>
        <time>2013-08-09T08:42:42Z</time>
      </trkpt>
      <trkpt lat="44.03765" lon="4.00055">
        <ele>130.4</ele>
        <time>2013-08-09T08:42:43Z</time>
      </trkpt>
      <trkpt lat="44.03782" lon="4.00051">
        <ele>130.88</ele>
        <time>2013-08-09T08:42:44Z</time>
      </trkpt>
      <trkpt lat="44.03798" lon="4.00047">
        <ele>130.4</ele>
        <time>2013-08-09T08:42:45Z</time>
      </trkpt>
      <trkpt lat="44.03849" lon="4.00001">
        <ele>129.43</ele>
        <time>2013-08-09T08:42:50Z</time>
      </trkpt>
      <trkpt lat="44.0385" lon="3.99974">
        <ele>130.4</ele>
        <time>2013-08-09T08:42:51Z</time>
      </trkpt>
      <trkpt lat="44.03852" lon="3.99951">
        <ele>130.88</ele>
        <time>2013-08-09T08:42:52Z</time>
      </trkpt>
      <trkpt lat="44.03853" lon="3.99923">
        <ele>130.4</ele>
        <time>2013-08-09T08:42:53Z</time>
      </trkpt>
      <trkpt lat="44.03852" lon="3.99894">
        <ele>129.92</ele>
        <time>2013-08-09T08:42:54Z</time>
      </trkpt>
      <trkpt lat="44.03853" lon="3.99865">
        <ele>129.43</ele>
        <time>2013-08-09T08:42:55Z</time>
      </trkpt>
      <trkpt lat="44.03858" lon="3.99572">
        <ele>129.92</ele>
        <time>2013-08-09T08:43:05Z</time>
      </trkpt>
      <trkpt lat="44.03855" lon="3.99543">
        <ele>130.4</ele>
        <time>2013-08-09T08:43:06Z</time>
      </trkpt>
      <trkpt lat="44.03838" lon="3.99347">
        <ele>131.36</ele>
        <time>2013-08-09T08:43:13Z</time>
      </trkpt>
      <trkpt lat="44.03869" lon="3.99187">
        <ele>134.72</ele>
        <time>2013-08-09T08:43:19Z</time>
      </trkpt>
      <trkpt lat="44.03879" lon="3.99162">
        <ele>135.2</ele>
        <time>2013-08-09T08:43:20Z</time>
      </trkpt>
      <trkpt lat="44.03912" lon="3.99068">
        <ele>136.16</ele>
        <time>2013-08-09T08:43:24Z</time>
      </trkpt>
      <trkpt lat="44.03912" lon="3.99044">
        <ele>136.16</ele>
        <time>2013-08-09T08:43:25Z</time>
      </trkpt>
      <trkpt lat="44.03908" lon="3.98957">
        <ele>138.57</ele>
        <time>2013-08-09T08:43:29Z</time>
      </trkpt>
      <trkpt lat="44.03912" lon="3.98938">
        <ele>138.57</ele>
        <time>2013-08-09T08:43:30Z</time>
      </trkpt>
      <trkpt lat="44.03918" lon="3.98917">
        <ele>139.05</ele>
        <time>2013-08-09T08:43:31Z</time>
      </trkpt>
      <trkpt lat="44.03928" lon="3.98896">
        <ele>139.05</ele>
        <time>2013-08-09T08:43:32Z</time>
      </trkpt>
      <trkpt lat="44.0394" lon="3.98872">
        <ele>139.53</ele>
        <time>2013-08-09T08:43:33Z</time>
      </trkpt>
      <trkpt lat="44.03954" lon="3.98846">
        <ele>140.01</ele>
        <time>2013-08-09T08:43:34Z</time>
      </trkpt>
      <trkpt lat="44.03991" lon="3.98769">
        <ele>140.01</ele>
        <time>2013-08-09T08:43:38Z</time>
      </trkpt>
      <trkpt lat="44.04014" lon="3.98719">
        <ele>140.01</ele>
        <time>2013-08-09T08:43:44Z</time>
      </trkpt>
      <trkpt lat="44.04043" lon="3.98656">
        <ele>140.01</ele>
        <time>2013-08-09T08:43:52Z</time>
      </trkpt>
      <trkpt lat="44.04054" lon="3.98633">
        <ele>140.49</ele>
        <time>2013-08-09T08:44:00Z</time>
      </trkpt>
      <trkpt lat="44.04098" lon="3.98536">
        <ele>141.45</ele>
        <time>2013-08-09T08:44:08Z</time>
      </trkpt>
      <trkpt lat="44.04107" lon="3.98522">
        <ele>141.93</ele>
        <time>2013-08-09T08:44:09Z</time>
      </trkpt>
      <trkpt lat="44.04118" lon="3.98508">
        <ele>141.93</ele>
        <time>2013-08-09T08:44:10Z</time>
      </trkpt>
      <trkpt lat="44.04129" lon="3.98496">
        <ele>141.93</ele>
        <time>2013-08-09T08:44:11Z</time>
      </trkpt>
      <trkpt lat="44.04142" lon="3.98486">
        <ele>141.93</ele>
        <time>2013-08-09T08:44:12Z</time>
      </trkpt>
      <trkpt lat="44.04156" lon="3.98479">
        <ele>141.45</ele>
        <time>2013-08-09T08:44:13Z</time>
      </trkpt>
      <trkpt lat="44.04171" lon="3.98474">
        <ele>141.45</ele>
        <time>2013-08-09T08:44:14Z</time>
      </trkpt>
      <trkpt lat="44.04188" lon="3.98471">
        <ele>141.45</ele>
        <time>2013-08-09T08:44:15Z</time>
      </trkpt>
      <trkpt lat="44.04206" lon="3.98471">
        <ele>140.97</ele>
        <time>2013-08-09T08:44:16Z</time>
      </trkpt>
      <trkpt lat="44.04225" lon="3.98472">
        <ele>140.97</ele>
        <time>2013-08-09T08:44:17Z</time>
      </trkpt>
      <trkpt lat="44.04389" lon="3.98484">
        <ele>140.01</ele>
        <time>2013-08-09T08:44:25Z</time>
      </trkpt>
      <trkpt lat="44.04498" lon="3.9849">
        <ele>139.05</ele>
        <time>2013-08-09T08:44:32Z</time>
      </trkpt>
      <trkpt lat="44.04577" lon="3.98496">
        <ele>140.49</ele>
        <time>2013-08-09T08:44:41Z</time>
      </trkpt>
      <trkpt lat="44.04669" lon="3.98515">
        <ele>140.01</ele>
        <time>2013-08-09T08:44:52Z</time>
      </trkpt>
      <trkpt lat="44.04752" lon="3.98577">
        <ele>139.53</ele>
        <time>2013-08-09T08:45:01Z</time>
      </trkpt>
      <trkpt lat="44.04786" lon="3.98587">
        <ele>138.09</ele>
        <time>2013-08-09T08:45:04Z</time>
      </trkpt>
      <trkpt lat="44.048" lon="3.98586">
        <ele>138.09</ele>
        <time>2013-08-09T08:45:05Z</time>
      </trkpt>
      <trkpt lat="44.04813" lon="3.98583">
        <ele>137.61</ele>
        <time>2013-08-09T08:45:06Z</time>
      </trkpt>
      <trkpt lat="44.04825" lon="3.9858">
        <ele>137.61</ele>
        <time>2013-08-09T08:45:07Z</time>
      </trkpt>
      <trkpt lat="44.04836" lon="3.98576">
        <ele>137.13</ele>
        <time>2013-08-09T08:45:08Z</time>
      </trkpt>
      <trkpt lat="44.04846" lon="3.98571">
        <ele>137.13</ele>
        <time>2013-08-09T08:45:09Z</time>
      </trkpt>
      <trkpt lat="44.04855" lon="3.98566">
        <ele>136.64</ele>
        <time>2013-08-09T08:45:10Z</time>
      </trkpt>
      <trkpt lat="44.0489" lon="3.98549">
        <ele>137.61</ele>
        <time>2013-08-09T08:45:17Z</time>
      </trkpt>
      <trkpt lat="44.04909" lon="3.98544">
        <ele>140.49</ele>
        <time>2013-08-09T08:45:36Z</time>
      </trkpt>
      <trkpt lat="44.04961" lon="3.9852">
        <ele>138.57</ele>
        <time>2013-08-09T08:45:47Z</time>
      </trkpt>
      <trkpt lat="44.05003" lon="3.98519">
        <ele>139.53</ele>
        <time>2013-08-09T08:45:59Z</time>
      </trkpt>
      <trkpt lat="44.05051" lon="3.98521">
        <ele>139.05</ele>
        <time>2013-08-09T08:46:11Z</time>
      </trkpt>
      <trkpt lat="44.0506" lon="3.98521">
        <ele>140.97</ele>
        <time>2013-08-09T08:46:23Z</time>
      </trkpt>
      <trkpt lat="44.05079" lon="3.98518">
        <ele>145.78</ele>
        <time>2013-08-09T08:46:34Z</time>
      </trkpt>
      <trkpt lat="44.05139" lon="3.98523">
        <ele>144.82</ele>
        <time>2013-08-09T08:46:42Z</time>
      </trkpt>
      <trkpt lat="44.05229" lon="3.98532">
        <ele>143.37</ele>
        <time>2013-08-09T08:46:53Z</time>
      </trkpt>
      <trkpt lat="44.05283" lon="3.98538">
        <ele>145.78</ele>
        <time>2013-08-09T08:47:04Z</time>
      </trkpt>
      <trkpt lat="44.05321" lon="3.98541">
        <ele>149.14</ele>
        <time>2013-08-09T08:47:14Z</time>
      </trkpt>
      <trkpt lat="44.0534" lon="3.98548">
        <ele>153.47</ele>
        <time>2013-08-09T08:47:26Z</time>
      </trkpt>
      <trkpt lat="44.05356" lon="3.98541">
        <ele>155.39</ele>
        <time>2013-08-09T08:47:42Z</time>
      </trkpt>
      <trkpt lat="44.0536" lon="3.9854">
        <ele>156.83</ele>
        <time>2013-08-09T08:47:47Z</time>
      </trkpt>
      <trkpt lat="44.0536" lon="3.98541">
        <ele>156.35</ele>
        <time>2013-08-09T08:47:48Z</time>
      </trkpt>
      <trkpt lat="44.05361" lon="3.98543">
        <ele>155.87</ele>
        <time>2013-08-09T08:47:49Z</time>
      </trkpt>
      <trkpt lat="44.05366" lon="3.98558">
        <ele>152.99</ele>
        <time>2013-08-09T08:48:01Z</time>
      </trkpt>
      <trkpt lat="44.05368" lon="3.98613">
        <ele>150.58</ele>
        <time>2013-08-09T08:48:09Z</time>
      </trkpt>
      <trkpt lat="44.05368" lon="3.98625">
        <ele>150.1</ele>
        <time>2013-08-09T08:48:16Z</time>
      </trkpt>
      <trkpt lat="44.05368" lon="3.9863">
        <ele>149.14</ele>
        <time>2013-08-09T08:48:18Z</time>
      </trkpt>
      <trkpt lat="44.05366" lon="3.98632">
        <ele>147.22</ele>
        <time>2013-08-09T08:48:19Z</time>
      </trkpt>
      <trkpt lat="44.05365" lon="3.98634">
        <ele>146.74</ele>
        <time>2013-08-09T08:48:20Z</time>
      </trkpt>
      <trkpt lat="44.05371" lon="3.98658">
        <ele>144.82</ele>
        <time>2013-08-09T08:48:31Z</time>
      </trkpt>
      <trkpt lat="44.05376" lon="3.98657">
        <ele>142.89</ele>
        <time>2013-08-09T08:48:43Z</time>
      </trkpt>
      <trkpt lat="44.05373" lon="3.98658">
        <ele>139.53</ele>
        <time>2013-08-09T08:48:49Z</time>
      </trkpt>
      <trkpt lat="44.05377" lon="3.98646">
        <ele>182.31</ele>
        <time>2013-08-09T09:12:58Z</time>
      </trkpt>
      <trkpt lat="44.05375" lon="3.98656">
        <ele>153.95</ele>
        <time>2013-08-09T09:16:04Z</time>
      </trkpt>
      <trkpt lat="44.05381" lon="3.98669">
        <ele>154.91</ele>
        <time>2013-08-09T09:16:08Z</time>
      </trkpt>
      <trkpt lat="44.05383" lon="3.98675">
        <ele>155.87</ele>
        <time>2013-08-09T09:16:09Z</time>
      </trkpt>
      <trkpt lat="44.05384" lon="3.98704">
        <ele>157.31</ele>
        <time>2013-08-09T09:16:15Z</time>
      </trkpt>
      <trkpt lat="44.0538" lon="3.98705">
        <ele>156.83</ele>
        <time>2013-08-09T09:16:16Z</time>
      </trkpt>
      <trkpt lat="44.05373" lon="3.98706">
        <ele>155.39</ele>
        <time>2013-08-09T09:16:17Z</time>
      </trkpt>
      <trkpt lat="44.05331" lon="3.98718">
        <ele>148.66</ele>
        <time>2013-08-09T09:16:24Z</time>
      </trkpt>
      <trkpt lat="44.05325" lon="3.98722">
        <ele>148.18</ele>
        <time>2013-08-09T09:16:25Z</time>
      </trkpt>
      <trkpt lat="44.05316" lon="3.98731">
        <ele>146.74</ele>
        <time>2013-08-09T09:16:27Z</time>
      </trkpt>
      <trkpt lat="44.05311" lon="3.98733">
        <ele>145.78</ele>
        <time>2013-08-09T09:16:28Z</time>
      </trkpt>
      <trkpt lat="44.05286" lon="3.9874">
        <ele>142.41</ele>
        <time>2013-08-09T09:16:33Z</time>
      </trkpt>
      <trkpt lat="44.05281" lon="3.98739">
        <ele>141.93</ele>
        <time>2013-08-09T09:16:34Z</time>
      </trkpt>
      <trkpt lat="44.05277" lon="3.98737">
        <ele>141.45</ele>
        <time>2013-08-09T09:16:35Z</time>
      </trkpt>
      <trkpt lat="44.05274" lon="3.98734">
        <ele>140.97</ele>
        <time>2013-08-09T09:16:36Z</time>
      </trkpt>
      <trkpt lat="44.05272" lon="3.98729">
        <ele>140.49</ele>
        <time>2013-08-09T09:16:37Z</time>
      </trkpt>
      <trkpt lat="44.05271" lon="3.98723">
        <ele>140.01</ele>
        <time>2013-08-09T09:16:38Z</time>
      </trkpt>
      <trkpt lat="44.0527" lon="3.98716">
        <ele>139.53</ele>
        <time>2013-08-09T09:16:39Z</time>
      </trkpt>
      <trkpt lat="44.0527" lon="3.98708">
        <ele>139.53</ele>
        <time>2013-08-09T09:16:40Z</time>
      </trkpt>
      <trkpt lat="44.05268" lon="3.98666">
        <ele>139.05</ele>
        <time>2013-08-09T09:16:49Z</time>
      </trkpt>
      <trkpt lat="44.05267" lon="3.98659">
        <ele>137.61</ele>
        <time>2013-08-09T09:16:52Z</time>
      </trkpt>
      <trkpt lat="44.05265" lon="3.98657">
        <ele>137.13</ele>
        <time>2013-08-09T09:16:53Z</time>
      </trkpt>
      <trkpt lat="44.05262" lon="3.98657">
        <ele>136.64</ele>
        <time>2013-08-09T09:16:54Z</time>
      </trkpt>
      <trkpt lat="44.05259" lon="3.98657">
        <ele>136.16</ele>
        <time>2013-08-09T09:16:55Z</time>
      </trkpt>
      <trkpt lat="44.05255" lon="3.98658">
        <ele>136.16</ele>
        <time>2013-08-09T09:16:56Z</time>
      </trkpt>
      <trkpt lat="44.05199" lon="3.98674">
        <ele>135.2</ele>
        <time>2013-08-09T09:17:04Z</time>
      </trkpt>
      <trkpt lat="44.05089" lon="3.98713">
        <ele>133.28</ele>
        <time>2013-08-09T09:17:18Z</time>
      </trkpt>
      <trkpt lat="44.05012" lon="3.98722">
        <ele>132.8</ele>
        <time>2013-08-09T09:17:29Z</time>
      </trkpt>
      <trkpt lat="44.0498" lon="3.98718">
        <ele>130.88</ele>
        <time>2013-08-09T09:17:38Z</time>
      </trkpt>
      <trkpt lat="44.04979" lon="3.98715">
        <ele>131.36</ele>
        <time>2013-08-09T09:17:39Z</time>
      </trkpt>
      <trkpt lat="44.04977" lon="3.98712">
        <ele>132.32</ele>
        <time>2013-08-09T09:17:40Z</time>
      </trkpt>
      <trkpt lat="44.04977" lon="3.98709">
        <ele>132.8</ele>
        <time>2013-08-09T09:17:41Z</time>
      </trkpt>
      <trkpt lat="44.04979" lon="3.98697">
        <ele>125.11</ele>
        <time>2013-08-09T09:17:56Z</time>
      </trkpt>
      <trkpt lat="44.04978" lon="3.98691">
        <ele>110.69</ele>
        <time>2013-08-09T09:18:27Z</time>
      </trkpt>
      <trkpt lat="44.04975" lon="3.98687">
        <ele>124.63</ele>
        <time>2013-08-09T09:21:14Z</time>
      </trkpt>
      <trkpt lat="44.04976" lon="3.98687">
        <ele>125.11</ele>
        <time>2013-08-09T09:21:16Z</time>
      </trkpt>
      <trkpt lat="44.04974" lon="3.98655">
        <ele>136.64</ele>
        <time>2013-08-09T09:21:27Z</time>
      </trkpt>
      <trkpt lat="44.04982" lon="3.98655">
        <ele>136.16</ele>
        <time>2013-08-09T09:21:43Z</time>
      </trkpt>
      <trkpt lat="44.04983" lon="3.98661">
        <ele>141.93</ele>
        <time>2013-08-09T09:22:55Z</time>
      </trkpt>
      <trkpt lat="44.04977" lon="3.98658">
        <ele>130.88</ele>
        <time>2013-08-09T09:24:48Z</time>
      </trkpt>
      <trkpt lat="44.0498" lon="3.98692">
        <ele>131.36</ele>
        <time>2013-08-09T09:24:58Z</time>
      </trkpt>
      <trkpt lat="44.04984" lon="3.98698">
        <ele>132.32</ele>
        <time>2013-08-09T09:25:14Z</time>
      </trkpt>
      <trkpt lat="44.04984" lon="3.98713">
        <ele>131.36</ele>
        <time>2013-08-09T09:25:28Z</time>
      </trkpt>
      <trkpt lat="44.04991" lon="3.98717">
        <ele>130.4</ele>
        <time>2013-08-09T09:25:31Z</time>
      </trkpt>
      <trkpt lat="44.04997" lon="3.98717">
        <ele>130.4</ele>
        <time>2013-08-09T09:25:32Z</time>
      </trkpt>
      <trkpt lat="44.05003" lon="3.98717">
        <ele>130.4</ele>
        <time>2013-08-09T09:25:33Z</time>
      </trkpt>
      <trkpt lat="44.0501" lon="3.98718">
        <ele>129.92</ele>
        <time>2013-08-09T09:25:34Z</time>
      </trkpt>
      <trkpt lat="44.05088" lon="3.98709">
        <ele>130.88</ele>
        <time>2013-08-09T09:25:45Z</time>
      </trkpt>
      <trkpt lat="44.05159" lon="3.98689">
        <ele>135.2</ele>
        <time>2013-08-09T09:25:57Z</time>
      </trkpt>
      <trkpt lat="44.05169" lon="3.98734">
        <ele>134.24</ele>
        <time>2013-08-09T09:26:02Z</time>
      </trkpt>
      <trkpt lat="44.05173" lon="3.98753">
        <ele>134.24</ele>
        <time>2013-08-09T09:26:04Z</time>
      </trkpt>
      <trkpt lat="44.05178" lon="3.98766">
        <ele>134.24</ele>
        <time>2013-08-09T09:26:06Z</time>
      </trkpt>
      <trkpt lat="44.05183" lon="3.98768">
        <ele>134.24</ele>
        <time>2013-08-09T09:26:07Z</time>
      </trkpt>
      <trkpt lat="44.05189" lon="3.98766">
        <ele>133.76</ele>
        <time>2013-08-09T09:26:08Z</time>
      </trkpt>
      <trkpt lat="44.05195" lon="3.98763">
        <ele>133.76</ele>
        <time>2013-08-09T09:26:09Z</time>
      </trkpt>
      <trkpt lat="44.05202" lon="3.9876">
        <ele>133.76</ele>
        <time>2013-08-09T09:26:10Z</time>
      </trkpt>
      <trkpt lat="44.05248" lon="3.98747">
        <ele>132.8</ele>
        <time>2013-08-09T09:26:19Z</time>
      </trkpt>
      <trkpt lat="44.05251" lon="3.9875">
        <ele>132.8</ele>
        <time>2013-08-09T09:26:20Z</time>
      </trkpt>
      <trkpt lat="44.05253" lon="3.98755">
        <ele>132.32</ele>
        <time>2013-08-09T09:26:21Z</time>
      </trkpt>
      <trkpt lat="44.05254" lon="3.98761">
        <ele>132.8</ele>
        <time>2013-08-09T09:26:22Z</time>
      </trkpt>
      <trkpt lat="44.05254" lon="3.98774">
        <ele>132.32</ele>
        <time>2013-08-09T09:26:24Z</time>
      </trkpt>
      <trkpt lat="44.05255" lon="3.9878">
        <ele>132.32</ele>
        <time>2013-08-09T09:26:25Z</time>
      </trkpt>
      <trkpt lat="44.05262" lon="3.98796">
        <ele>131.84</ele>
        <time>2013-08-09T09:26:29Z</time>
      </trkpt>
      <trkpt lat="44.05266" lon="3.98797">
        <ele>131.84</ele>
        <time>2013-08-09T09:26:30Z</time>
      </trkpt>
      <trkpt lat="44.05269" lon="3.98797">
        <ele>131.36</ele>
        <time>2013-08-09T09:26:31Z</time>
      </trkpt>
      <trkpt lat="44.05273" lon="3.98796">
        <ele>131.36</ele>
        <time>2013-08-09T09:26:32Z</time>
      </trkpt>
      <trkpt lat="44.05275" lon="3.98795">
        <ele>131.36</ele>
        <time>2013-08-09T09:26:33Z</time>
      </trkpt>
      <trkpt lat="44.05277" lon="3.98794">
        <ele>131.36</ele>
        <time>2013-08-09T09:26:34Z</time>
      </trkpt>
      <trkpt lat="44.05281" lon="3.98794">
        <ele>130.88</ele>
        <time>2013-08-09T09:26:42Z</time>
      </trkpt>
      <trkpt lat="44.05284" lon="3.98798">
        <ele>130.4</ele>
        <time>2013-08-09T09:26:43Z</time>
      </trkpt>
      <trkpt lat="44.05285" lon="3.98805">
        <ele>130.4</ele>
        <time>2013-08-09T09:26:44Z</time>
      </trkpt>
      <trkpt lat="44.05297" lon="3.98898">
        <ele>130.4</ele>
        <time>2013-08-09T09:26:51Z</time>
      </trkpt>
      <trkpt lat="44.05303" lon="3.98927">
        <ele>130.4</ele>
        <time>2013-08-09T09:26:53Z</time>
      </trkpt>
      <trkpt lat="44.05308" lon="3.98939">
        <ele>130.4</ele>
        <time>2013-08-09T09:26:54Z</time>
      </trkpt>
      <trkpt lat="44.05315" lon="3.98949">
        <ele>130.4</ele>
        <time>2013-08-09T09:26:55Z</time>
      </trkpt>
      <trkpt lat="44.05325" lon="3.98955">
        <ele>130.4</ele>
        <time>2013-08-09T09:26:56Z</time>
      </trkpt>
      <trkpt lat="44.05336" lon="3.98958">
        <ele>130.88</ele>
        <time>2013-08-09T09:26:57Z</time>
      </trkpt>
      <trkpt lat="44.05349" lon="3.98958">
        <ele>130.88</ele>
        <time>2013-08-09T09:26:58Z</time>
      </trkpt>
      <trkpt lat="44.05362" lon="3.98956">
        <ele>130.88</ele>
        <time>2013-08-09T09:26:59Z</time>
      </trkpt>
      <trkpt lat="44.05435" lon="3.9895">
        <ele>131.84</ele>
        <time>2013-08-09T09:27:05Z</time>
      </trkpt>
      <trkpt lat="44.05447" lon="3.98954">
        <ele>131.84</ele>
        <time>2013-08-09T09:27:06Z</time>
      </trkpt>
      <trkpt lat="44.05458" lon="3.98961">
        <ele>132.8</ele>
        <time>2013-08-09T09:27:07Z</time>
      </trkpt>
      <trkpt lat="44.0548" lon="3.98976">
        <ele>134.72</ele>
        <time>2013-08-09T09:27:09Z</time>
      </trkpt>
      <trkpt lat="44.05491" lon="3.98981">
        <ele>135.68</ele>
        <time>2013-08-09T09:27:10Z</time>
      </trkpt>
      <trkpt lat="44.05501" lon="3.98981">
        <ele>136.16</ele>
        <time>2013-08-09T09:27:11Z</time>
      </trkpt>
      <trkpt lat="44.05511" lon="3.98979">
        <ele>136.64</ele>
        <time>2013-08-09T09:27:12Z</time>
      </trkpt>
      <trkpt lat="44.05519" lon="3.98974">
        <ele>136.64</ele>
        <time>2013-08-09T09:27:13Z</time>
      </trkpt>
      <trkpt lat="44.05525" lon="3.9897">
        <ele>136.64</ele>
        <time>2013-08-09T09:27:14Z</time>
      </trkpt>
      <trkpt lat="44.05529" lon="3.98967">
        <ele>136.64</ele>
        <time>2013-08-09T09:27:15Z</time>
      </trkpt>
      <trkpt lat="44.05537" lon="3.98961">
        <ele>138.57</ele>
        <time>2013-08-09T09:27:23Z</time>
      </trkpt>
      <trkpt lat="44.0555" lon="3.98956">
        <ele>138.57</ele>
        <time>2013-08-09T09:27:26Z</time>
      </trkpt>
      <trkpt lat="44.05555" lon="3.9895">
        <ele>138.09</ele>
        <time>2013-08-09T09:27:27Z</time>
      </trkpt>
      <trkpt lat="44.05558" lon="3.98942">
        <ele>138.09</ele>
        <time>2013-08-09T09:27:28Z</time>
      </trkpt>
      <trkpt lat="44.05559" lon="3.98933">
        <ele>137.61</ele>
        <time>2013-08-09T09:27:29Z</time>
      </trkpt>
      <trkpt lat="44.05558" lon="3.98924">
        <ele>137.13</ele>
        <time>2013-08-09T09:27:30Z</time>
      </trkpt>
      <trkpt lat="44.05559" lon="3.98915">
        <ele>136.64</ele>
        <time>2013-08-09T09:27:31Z</time>
      </trkpt>
      <trkpt lat="44.05561" lon="3.98907">
        <ele>136.64</ele>
        <time>2013-08-09T09:27:32Z</time>
      </trkpt>
      <trkpt lat="44.05566" lon="3.989">
        <ele>136.64</ele>
        <time>2013-08-09T09:27:33Z</time>
      </trkpt>
      <trkpt lat="44.05574" lon="3.98897">
        <ele>136.64</ele>
        <time>2013-08-09T09:27:34Z</time>
      </trkpt>
      <trkpt lat="44.05582" lon="3.98893">
        <ele>136.64</ele>
        <time>2013-08-09T09:27:35Z</time>
      </trkpt>
      <trkpt lat="44.05589" lon="3.98889">
        <ele>136.16</ele>
        <time>2013-08-09T09:27:36Z</time>
      </trkpt>
      <trkpt lat="44.05593" lon="3.98882">
        <ele>136.64</ele>
        <time>2013-08-09T09:27:37Z</time>
      </trkpt>
      <trkpt lat="44.05595" lon="3.98873">
        <ele>136.64</ele>
        <time>2013-08-09T09:27:38Z</time>
      </trkpt>
      <trkpt lat="44.05593" lon="3.98863">
        <ele>136.16</ele>
        <time>2013-08-09T09:27:39Z</time>
      </trkpt>
      <trkpt lat="44.05591" lon="3.98852">
        <ele>136.64</ele>
        <time>2013-08-09T09:27:40Z</time>
      </trkpt>
      <trkpt lat="44.05574" lon="3.98777">
        <ele>137.61</ele>
        <time>2013-08-09T09:27:49Z</time>
      </trkpt>
      <trkpt lat="44.05567" lon="3.98731">
        <ele>136.16</ele>
        <time>2013-08-09T09:28:00Z</time>
      </trkpt>
      <trkpt lat="44.05569" lon="3.98725">
        <ele>135.68</ele>
        <time>2013-08-09T09:28:01Z</time>
      </trkpt>
      <trkpt lat="44.05572" lon="3.9872">
        <ele>135.68</ele>
        <time>2013-08-09T09:28:02Z</time>
      </trkpt>
      <trkpt lat="44.05577" lon="3.98716">
        <ele>135.68</ele>
        <time>2013-08-09T09:28:03Z</time>
      </trkpt>
      <trkpt lat="44.05584" lon="3.98712">
        <ele>135.68</ele>
        <time>2013-08-09T09:28:04Z</time>
      </trkpt>
      <trkpt lat="44.05594" lon="3.98709">
        <ele>135.2</ele>
        <time>2013-08-09T09:28:05Z</time>
      </trkpt>
      <trkpt lat="44.05699" lon="3.98664">
        <ele>133.28</ele>
        <time>2013-08-09T09:28:13Z</time>
      </trkpt>
      <trkpt lat="44.05811" lon="3.98611">
        <ele>133.76</ele>
        <time>2013-08-09T09:28:23Z</time>
      </trkpt>
      <trkpt lat="44.05917" lon="3.98514">
        <ele>136.64</ele>
        <time>2013-08-09T09:28:34Z</time>
      </trkpt>
      <trkpt lat="44.05964" lon="3.9844">
        <ele>137.13</ele>
        <time>2013-08-09T09:28:41Z</time>
      </trkpt>
      <trkpt lat="44.05982" lon="3.98385">
        <ele>138.09</ele>
        <time>2013-08-09T09:28:45Z</time>
      </trkpt>
      <trkpt lat="44.05985" lon="3.98369">
        <ele>138.57</ele>
        <time>2013-08-09T09:28:46Z</time>
      </trkpt>
      <trkpt lat="44.05985" lon="3.98353">
        <ele>138.57</ele>
        <time>2013-08-09T09:28:47Z</time>
      </trkpt>
      <trkpt lat="44.05986" lon="3.98337">
        <ele>139.53</ele>
        <time>2013-08-09T09:28:48Z</time>
      </trkpt>
      <trkpt lat="44.05988" lon="3.98321">
        <ele>139.53</ele>
        <time>2013-08-09T09:28:49Z</time>
      </trkpt>
      <trkpt lat="44.05991" lon="3.98305">
        <ele>140.49</ele>
        <time>2013-08-09T09:28:50Z</time>
      </trkpt>
      <trkpt lat="44.05995" lon="3.9829">
        <ele>140.49</ele>
        <time>2013-08-09T09:28:51Z</time>
      </trkpt>
      <trkpt lat="44.05999" lon="3.98276">
        <ele>140.97</ele>
        <time>2013-08-09T09:28:52Z</time>
      </trkpt>
      <trkpt lat="44.06016" lon="3.982">
        <ele>141.45</ele>
        <time>2013-08-09T09:28:57Z</time>
      </trkpt>
      <trkpt lat="44.06017" lon="3.98183">
        <ele>141.45</ele>
        <time>2013-08-09T09:28:58Z</time>
      </trkpt>
      <trkpt lat="44.06016" lon="3.98165">
        <ele>141.45</ele>
        <time>2013-08-09T09:28:59Z</time>
      </trkpt>
      <trkpt lat="44.06014" lon="3.98146">
        <ele>141.45</ele>
        <time>2013-08-09T09:29:00Z</time>
      </trkpt>
      <trkpt lat="44.06009" lon="3.98127">
        <ele>141.93</ele>
        <time>2013-08-09T09:29:01Z</time>
      </trkpt>
      <trkpt lat="44.06005" lon="3.98109">
        <ele>141.93</ele>
        <time>2013-08-09T09:29:02Z</time>
      </trkpt>
      <trkpt lat="44.05955" lon="3.97928">
        <ele>142.89</ele>
        <time>2013-08-09T09:29:13Z</time>
      </trkpt>
      <trkpt lat="44.0592" lon="3.97791">
        <ele>143.37</ele>
        <time>2013-08-09T09:29:19Z</time>
      </trkpt>
      <trkpt lat="44.05881" lon="3.97637">
        <ele>142.41</ele>
        <time>2013-08-09T09:29:27Z</time>
      </trkpt>
      <trkpt lat="44.05857" lon="3.97532">
        <ele>142.89</ele>
        <time>2013-08-09T09:29:33Z</time>
      </trkpt>
      <trkpt lat="44.05856" lon="3.97516">
        <ele>143.37</ele>
        <time>2013-08-09T09:29:34Z</time>
      </trkpt>
      <trkpt lat="44.05858" lon="3.97499">
        <ele>143.37</ele>
        <time>2013-08-09T09:29:35Z</time>
      </trkpt>
      <trkpt lat="44.05861" lon="3.97483">
        <ele>143.37</ele>
        <time>2013-08-09T09:29:36Z</time>
      </trkpt>
      <trkpt lat="44.05866" lon="3.97468">
        <ele>143.37</ele>
        <time>2013-08-09T09:29:37Z</time>
      </trkpt>
      <trkpt lat="44.05873" lon="3.97453">
        <ele>142.89</ele>
        <time>2013-08-09T09:29:38Z</time>
      </trkpt>
      <trkpt lat="44.05881" lon="3.9744">
        <ele>143.37</ele>
        <time>2013-08-09T09:29:39Z</time>
      </trkpt>
      <trkpt lat="44.05891" lon="3.97428">
        <ele>143.37</ele>
        <time>2013-08-09T09:29:40Z</time>
      </trkpt>
      <trkpt lat="44.05903" lon="3.97418">
        <ele>143.37</ele>
        <time>2013-08-09T09:29:41Z</time>
      </trkpt>
      <trkpt lat="44.05916" lon="3.9741">
        <ele>143.37</ele>
        <time>2013-08-09T09:29:42Z</time>
      </trkpt>
      <trkpt lat="44.0593" lon="3.97404">
        <ele>143.37</ele>
        <time>2013-08-09T09:29:43Z</time>
      </trkpt>
      <trkpt lat="44.05944" lon="3.97398">
        <ele>143.37</ele>
        <time>2013-08-09T09:29:44Z</time>
      </trkpt>
      <trkpt lat="44.06034" lon="3.97358">
        <ele>142.89</ele>
        <time>2013-08-09T09:29:52Z</time>
      </trkpt>
      <trkpt lat="44.06153" lon="3.97303">
        <ele>144.34</ele>
        <time>2013-08-09T09:30:04Z</time>
      </trkpt>
      <trkpt lat="44.06175" lon="3.97285">
        <ele>144.82</ele>
        <time>2013-08-09T09:30:08Z</time>
      </trkpt>
      <trkpt lat="44.06181" lon="3.97283">
        <ele>145.3</ele>
        <time>2013-08-09T09:30:09Z</time>
      </trkpt>
      <trkpt lat="44.06188" lon="3.97283">
        <ele>145.3</ele>
        <time>2013-08-09T09:30:10Z</time>
      </trkpt>
      <trkpt lat="44.06195" lon="3.97283">
        <ele>145.3</ele>
        <time>2013-08-09T09:30:11Z</time>
      </trkpt>
      <trkpt lat="44.06203" lon="3.97282">
        <ele>145.3</ele>
        <time>2013-08-09T09:30:12Z</time>
      </trkpt>
      <trkpt lat="44.06211" lon="3.97279">
        <ele>145.3</ele>
        <time>2013-08-09T09:30:13Z</time>
      </trkpt>
      <trkpt lat="44.06219" lon="3.97275">
        <ele>145.3</ele>
        <time>2013-08-09T09:30:14Z</time>
      </trkpt>
      <trkpt lat="44.0631" lon="3.9724">
        <ele>143.85</ele>
        <time>2013-08-09T09:30:23Z</time>
      </trkpt>
      <trkpt lat="44.06415" lon="3.97195">
        <ele>143.37</ele>
        <time>2013-08-09T09:30:30Z</time>
      </trkpt>
      <trkpt lat="44.06538" lon="3.97143">
        <ele>143.85</ele>
        <time>2013-08-09T09:30:40Z</time>
      </trkpt>
      <trkpt lat="44.06572" lon="3.97131">
        <ele>145.3</ele>
        <time>2013-08-09T09:30:44Z</time>
      </trkpt>
      <trkpt lat="44.0658" lon="3.9713">
        <ele>145.3</ele>
        <time>2013-08-09T09:30:45Z</time>
      </trkpt>
      <trkpt lat="44.06587" lon="3.97131">
        <ele>145.78</ele>
        <time>2013-08-09T09:30:46Z</time>
      </trkpt>
      <trkpt lat="44.06594" lon="3.97132">
        <ele>146.26</ele>
        <time>2013-08-09T09:30:47Z</time>
      </trkpt>
      <trkpt lat="44.06601" lon="3.97129">
        <ele>146.74</ele>
        <time>2013-08-09T09:30:48Z</time>
      </trkpt>
      <trkpt lat="44.06608" lon="3.97123">
        <ele>147.22</ele>
        <time>2013-08-09T09:30:49Z</time>
      </trkpt>
      <trkpt lat="44.06615" lon="3.97116">
        <ele>147.7</ele>
        <time>2013-08-09T09:30:50Z</time>
      </trkpt>
      <trkpt lat="44.06623" lon="3.97108">
        <ele>147.7</ele>
        <time>2013-08-09T09:30:51Z</time>
      </trkpt>
      <trkpt lat="44.06632" lon="3.97101">
        <ele>148.18</ele>
        <time>2013-08-09T09:30:52Z</time>
      </trkpt>
      <trkpt lat="44.06642" lon="3.97096">
        <ele>148.66</ele>
        <time>2013-08-09T09:30:53Z</time>
      </trkpt>
      <trkpt lat="44.06652" lon="3.97091">
        <ele>148.66</ele>
        <time>2013-08-09T09:30:54Z</time>
      </trkpt>
      <trkpt lat="44.06826" lon="3.97021">
        <ele>155.39</ele>
        <time>2013-08-09T09:31:10Z</time>
      </trkpt>
      <trkpt lat="44.06967" lon="3.96962">
        <ele>161.64</ele>
        <time>2013-08-09T09:31:22Z</time>
      </trkpt>
      <trkpt lat="44.07131" lon="3.96895">
        <ele>177.02</ele>
        <time>2013-08-09T09:31:35Z</time>
      </trkpt>
      <trkpt lat="44.07249" lon="3.96862">
        <ele>184.23</ele>
        <time>2013-08-09T09:31:44Z</time>
      </trkpt>
      <trkpt lat="44.073" lon="3.96837">
        <ele>185.67</ele>
        <time>2013-08-09T09:31:48Z</time>
      </trkpt>
      <trkpt lat="44.07312" lon="3.96825">
        <ele>187.11</ele>
        <time>2013-08-09T09:31:49Z</time>
      </trkpt>
      <trkpt lat="44.07323" lon="3.96812">
        <ele>187.59</ele>
        <time>2013-08-09T09:31:50Z</time>
      </trkpt>
      <trkpt lat="44.07333" lon="3.96797">
        <ele>188.08</ele>
        <time>2013-08-09T09:31:51Z</time>
      </trkpt>
      <trkpt lat="44.07342" lon="3.96781">
        <ele>188.56</ele>
        <time>2013-08-09T09:31:52Z</time>
      </trkpt>
      <trkpt lat="44.0735" lon="3.96763">
        <ele>189.04</ele>
        <time>2013-08-09T09:31:53Z</time>
      </trkpt>
      <trkpt lat="44.07355" lon="3.96742">
        <ele>189.52</ele>
        <time>2013-08-09T09:31:54Z</time>
      </trkpt>
      <trkpt lat="44.07357" lon="3.96718">
        <ele>190</ele>
        <time>2013-08-09T09:31:55Z</time>
      </trkpt>
      <trkpt lat="44.07359" lon="3.96695">
        <ele>188.56</ele>
        <time>2013-08-09T09:31:56Z</time>
      </trkpt>
      <trkpt lat="44.07361" lon="3.96672">
        <ele>187.11</ele>
        <time>2013-08-09T09:31:57Z</time>
      </trkpt>
      <trkpt lat="44.07391" lon="3.96465">
        <ele>180.38</ele>
        <time>2013-08-09T09:32:06Z</time>
      </trkpt>
      <trkpt lat="44.07399" lon="3.96445">
        <ele>179.9</ele>
        <time>2013-08-09T09:32:07Z</time>
      </trkpt>
      <trkpt lat="44.07408" lon="3.96428">
        <ele>178.94</ele>
        <time>2013-08-09T09:32:08Z</time>
      </trkpt>
      <trkpt lat="44.07418" lon="3.96413">
        <ele>178.46</ele>
        <time>2013-08-09T09:32:09Z</time>
      </trkpt>
      <trkpt lat="44.07428" lon="3.96399">
        <ele>177.98</ele>
        <time>2013-08-09T09:32:10Z</time>
      </trkpt>
      <trkpt lat="44.07443" lon="3.96371">
        <ele>176.54</ele>
        <time>2013-08-09T09:32:12Z</time>
      </trkpt>
      <trkpt lat="44.07448" lon="3.96355">
        <ele>175.58</ele>
        <time>2013-08-09T09:32:13Z</time>
      </trkpt>
      <trkpt lat="44.07452" lon="3.96337">
        <ele>175.58</ele>
        <time>2013-08-09T09:32:14Z</time>
      </trkpt>
      <trkpt lat="44.07454" lon="3.96318">
        <ele>174.62</ele>
        <time>2013-08-09T09:32:15Z</time>
      </trkpt>
      <trkpt lat="44.07454" lon="3.96298">
        <ele>174.14</ele>
        <time>2013-08-09T09:32:16Z</time>
      </trkpt>
      <trkpt lat="44.07453" lon="3.96278">
        <ele>173.66</ele>
        <time>2013-08-09T09:32:17Z</time>
      </trkpt>
      <trkpt lat="44.07449" lon="3.96259">
        <ele>172.69</ele>
        <time>2013-08-09T09:32:18Z</time>
      </trkpt>
      <trkpt lat="44.07444" lon="3.9624">
        <ele>172.21</ele>
        <time>2013-08-09T09:32:19Z</time>
      </trkpt>
      <trkpt lat="44.07436" lon="3.96223">
        <ele>171.73</ele>
        <time>2013-08-09T09:32:20Z</time>
      </trkpt>
      <trkpt lat="44.07427" lon="3.96206">
        <ele>171.25</ele>
        <time>2013-08-09T09:32:21Z</time>
      </trkpt>
      <trkpt lat="44.07417" lon="3.9619">
        <ele>170.77</ele>
        <time>2013-08-09T09:32:22Z</time>
      </trkpt>
      <trkpt lat="44.07404" lon="3.96177">
        <ele>170.29</ele>
        <time>2013-08-09T09:32:23Z</time>
      </trkpt>
      <trkpt lat="44.07388" lon="3.96163">
        <ele>169.81</ele>
        <time>2013-08-09T09:32:24Z</time>
      </trkpt>
      <trkpt lat="44.07372" lon="3.96147">
        <ele>168.85</ele>
        <time>2013-08-09T09:32:25Z</time>
      </trkpt>
      <trkpt lat="44.07261" lon="3.96018">
        <ele>165.96</ele>
        <time>2013-08-09T09:32:32Z</time>
      </trkpt>
      <trkpt lat="44.0725" lon="3.95995">
        <ele>165.48</ele>
        <time>2013-08-09T09:32:33Z</time>
      </trkpt>
      <trkpt lat="44.07241" lon="3.95971">
        <ele>165</ele>
        <time>2013-08-09T09:32:34Z</time>
      </trkpt>
      <trkpt lat="44.07234" lon="3.95944">
        <ele>164.52</ele>
        <time>2013-08-09T09:32:35Z</time>
      </trkpt>
      <trkpt lat="44.0723" lon="3.95917">
        <ele>164.04</ele>
        <time>2013-08-09T09:32:36Z</time>
      </trkpt>
      <trkpt lat="44.07228" lon="3.95887">
        <ele>163.56</ele>
        <time>2013-08-09T09:32:37Z</time>
      </trkpt>
      <trkpt lat="44.07228" lon="3.95855">
        <ele>162.6</ele>
        <time>2013-08-09T09:32:38Z</time>
      </trkpt>
      <trkpt lat="44.07227" lon="3.95823">
        <ele>161.64</ele>
        <time>2013-08-09T09:32:39Z</time>
      </trkpt>
      <trkpt lat="44.07225" lon="3.95513">
        <ele>155.39</ele>
        <time>2013-08-09T09:32:49Z</time>
      </trkpt>
      <trkpt lat="44.07229" lon="3.95428">
        <ele>154.43</ele>
        <time>2013-08-09T09:32:52Z</time>
      </trkpt>
      <trkpt lat="44.07225" lon="3.95402">
        <ele>153.95</ele>
        <time>2013-08-09T09:32:53Z</time>
      </trkpt>
      <trkpt lat="44.07218" lon="3.95376">
        <ele>153.47</ele>
        <time>2013-08-09T09:32:54Z</time>
      </trkpt>
      <trkpt lat="44.07207" lon="3.95353">
        <ele>152.51</ele>
        <time>2013-08-09T09:32:55Z</time>
      </trkpt>
      <trkpt lat="44.0719" lon="3.95335">
        <ele>151.54</ele>
        <time>2013-08-09T09:32:56Z</time>
      </trkpt>
      <trkpt lat="44.07171" lon="3.95321">
        <ele>151.54</ele>
        <time>2013-08-09T09:32:57Z</time>
      </trkpt>
      <trkpt lat="44.07151" lon="3.95308">
        <ele>151.06</ele>
        <time>2013-08-09T09:32:58Z</time>
      </trkpt>
      <trkpt lat="44.0713" lon="3.95298">
        <ele>151.06</ele>
        <time>2013-08-09T09:32:59Z</time>
      </trkpt>
      <trkpt lat="44.07108" lon="3.95292">
        <ele>151.06</ele>
        <time>2013-08-09T09:33:00Z</time>
      </trkpt>
      <trkpt lat="44.07087" lon="3.95288">
        <ele>151.06</ele>
        <time>2013-08-09T09:33:01Z</time>
      </trkpt>
      <trkpt lat="44.07066" lon="3.95286">
        <ele>151.06</ele>
        <time>2013-08-09T09:33:02Z</time>
      </trkpt>
      <trkpt lat="44.07046" lon="3.95285">
        <ele>151.54</ele>
        <time>2013-08-09T09:33:03Z</time>
      </trkpt>
      <trkpt lat="44.07027" lon="3.95286">
        <ele>151.54</ele>
        <time>2013-08-09T09:33:04Z</time>
      </trkpt>
      <trkpt lat="44.06882" lon="3.95291">
        <ele>155.87</ele>
        <time>2013-08-09T09:33:13Z</time>
      </trkpt>
      <trkpt lat="44.06869" lon="3.95288">
        <ele>156.35</ele>
        <time>2013-08-09T09:33:14Z</time>
      </trkpt>
      <trkpt lat="44.06857" lon="3.95284">
        <ele>156.83</ele>
        <time>2013-08-09T09:33:15Z</time>
      </trkpt>
      <trkpt lat="44.06844" lon="3.95279">
        <ele>157.31</ele>
        <time>2013-08-09T09:33:16Z</time>
      </trkpt>
      <trkpt lat="44.06832" lon="3.95273">
        <ele>157.31</ele>
        <time>2013-08-09T09:33:17Z</time>
      </trkpt>
      <trkpt lat="44.0682" lon="3.95265">
        <ele>157.31</ele>
        <time>2013-08-09T09:33:18Z</time>
      </trkpt>
      <trkpt lat="44.06808" lon="3.95256">
        <ele>157.31</ele>
        <time>2013-08-09T09:33:19Z</time>
      </trkpt>
      <trkpt lat="44.06796" lon="3.95245">
        <ele>157.31</ele>
        <time>2013-08-09T09:33:20Z</time>
      </trkpt>
      <trkpt lat="44.06784" lon="3.95233">
        <ele>157.31</ele>
        <time>2013-08-09T09:33:21Z</time>
      </trkpt>
      <trkpt lat="44.06774" lon="3.95219">
        <ele>157.31</ele>
        <time>2013-08-09T09:33:22Z</time>
      </trkpt>
      <trkpt lat="44.06763" lon="3.95203">
        <ele>158.27</ele>
        <time>2013-08-09T09:33:23Z</time>
      </trkpt>
      <trkpt lat="44.06753" lon="3.95187">
        <ele>158.75</ele>
        <time>2013-08-09T09:33:24Z</time>
      </trkpt>
      <trkpt lat="44.06743" lon="3.95169">
        <ele>159.24</ele>
        <time>2013-08-09T09:33:25Z</time>
      </trkpt>
      <trkpt lat="44.06734" lon="3.95149">
        <ele>160.68</ele>
        <time>2013-08-09T09:33:26Z</time>
      </trkpt>
      <trkpt lat="44.06727" lon="3.95129">
        <ele>160.68</ele>
        <time>2013-08-09T09:33:27Z</time>
      </trkpt>
      <trkpt lat="44.06721" lon="3.95107">
        <ele>160.68</ele>
        <time>2013-08-09T09:33:28Z</time>
      </trkpt>
      <trkpt lat="44.06716" lon="3.95086">
        <ele>160.68</ele>
        <time>2013-08-09T09:33:29Z</time>
      </trkpt>
      <trkpt lat="44.06696" lon="3.94951">
        <ele>159.72</ele>
        <time>2013-08-09T09:33:35Z</time>
      </trkpt>
      <trkpt lat="44.06696" lon="3.94928">
        <ele>159.72</ele>
        <time>2013-08-09T09:33:36Z</time>
      </trkpt>
      <trkpt lat="44.06699" lon="3.94905">
        <ele>158.75</ele>
        <time>2013-08-09T09:33:37Z</time>
      </trkpt>
      <trkpt lat="44.06702" lon="3.94883">
        <ele>158.75</ele>
        <time>2013-08-09T09:33:38Z</time>
      </trkpt>
      <trkpt lat="44.06707" lon="3.94863">
        <ele>158.27</ele>
        <time>2013-08-09T09:33:39Z</time>
      </trkpt>
      <trkpt lat="44.06713" lon="3.94843">
        <ele>157.31</ele>
        <time>2013-08-09T09:33:40Z</time>
      </trkpt>
      <trkpt lat="44.06721" lon="3.94822">
        <ele>157.31</ele>
        <time>2013-08-09T09:33:41Z</time>
      </trkpt>
      <trkpt lat="44.06729" lon="3.94802">
        <ele>157.31</ele>
        <time>2013-08-09T09:33:42Z</time>
      </trkpt>
      <trkpt lat="44.06738" lon="3.94783">
        <ele>157.31</ele>
        <time>2013-08-09T09:33:43Z</time>
      </trkpt>
      <trkpt lat="44.06748" lon="3.94766">
        <ele>156.83</ele>
        <time>2013-08-09T09:33:44Z</time>
      </trkpt>
      <trkpt lat="44.06759" lon="3.94749">
        <ele>156.35</ele>
        <time>2013-08-09T09:33:45Z</time>
      </trkpt>
      <trkpt lat="44.06771" lon="3.94734">
        <ele>156.35</ele>
        <time>2013-08-09T09:33:46Z</time>
      </trkpt>
      <trkpt lat="44.06783" lon="3.9472">
        <ele>156.35</ele>
        <time>2013-08-09T09:33:47Z</time>
      </trkpt>
      <trkpt lat="44.06796" lon="3.94707">
        <ele>156.35</ele>
        <time>2013-08-09T09:33:48Z</time>
      </trkpt>
      <trkpt lat="44.0693" lon="3.94601">
        <ele>159.72</ele>
        <time>2013-08-09T09:33:58Z</time>
      </trkpt>
      <trkpt lat="44.07055" lon="3.94511">
        <ele>162.12</ele>
        <time>2013-08-09T09:34:08Z</time>
      </trkpt>
      <trkpt lat="44.07228" lon="3.94375">
        <ele>163.56</ele>
        <time>2013-08-09T09:34:21Z</time>
      </trkpt>
      <trkpt lat="44.07327" lon="3.94274">
        <ele>158.75</ele>
        <time>2013-08-09T09:34:29Z</time>
      </trkpt>
      <trkpt lat="44.07336" lon="3.94255">
        <ele>158.27</ele>
        <time>2013-08-09T09:34:30Z</time>
      </trkpt>
      <trkpt lat="44.0734" lon="3.94234">
        <ele>157.31</ele>
        <time>2013-08-09T09:34:31Z</time>
      </trkpt>
      <trkpt lat="44.07345" lon="3.94212">
        <ele>157.31</ele>
        <time>2013-08-09T09:34:32Z</time>
      </trkpt>
      <trkpt lat="44.07347" lon="3.94189">
        <ele>156.83</ele>
        <time>2013-08-09T09:34:33Z</time>
      </trkpt>
      <trkpt lat="44.07347" lon="3.94164">
        <ele>157.31</ele>
        <time>2013-08-09T09:34:34Z</time>
      </trkpt>
      <trkpt lat="44.07346" lon="3.94138">
        <ele>157.79</ele>
        <time>2013-08-09T09:34:35Z</time>
      </trkpt>
      <trkpt lat="44.07352" lon="3.93903">
        <ele>158.75</ele>
        <time>2013-08-09T09:34:43Z</time>
      </trkpt>
      <trkpt lat="44.07364" lon="3.93791">
        <ele>158.27</ele>
        <time>2013-08-09T09:34:48Z</time>
      </trkpt>
      <trkpt lat="44.07369" lon="3.93777">
        <ele>158.27</ele>
        <time>2013-08-09T09:34:49Z</time>
      </trkpt>
      <trkpt lat="44.07374" lon="3.93765">
        <ele>158.27</ele>
        <time>2013-08-09T09:34:50Z</time>
      </trkpt>
      <trkpt lat="44.07381" lon="3.93755">
        <ele>158.27</ele>
        <time>2013-08-09T09:34:51Z</time>
      </trkpt>
      <trkpt lat="44.0739" lon="3.93748">
        <ele>158.75</ele>
        <time>2013-08-09T09:34:52Z</time>
      </trkpt>
      <trkpt lat="44.074" lon="3.93743">
        <ele>158.75</ele>
        <time>2013-08-09T09:34:53Z</time>
      </trkpt>
      <trkpt lat="44.07411" lon="3.93742">
        <ele>159.24</ele>
        <time>2013-08-09T09:34:54Z</time>
      </trkpt>
      <trkpt lat="44.07423" lon="3.93748">
        <ele>159.72</ele>
        <time>2013-08-09T09:34:55Z</time>
      </trkpt>
      <trkpt lat="44.07434" lon="3.93757">
        <ele>160.2</ele>
        <time>2013-08-09T09:34:56Z</time>
      </trkpt>
      <trkpt lat="44.07445" lon="3.93769">
        <ele>160.2</ele>
        <time>2013-08-09T09:34:57Z</time>
      </trkpt>
      <trkpt lat="44.07457" lon="3.9378">
        <ele>160.2</ele>
        <time>2013-08-09T09:34:58Z</time>
      </trkpt>
      <trkpt lat="44.07495" lon="3.93818">
        <ele>160.68</ele>
        <time>2013-08-09T09:35:02Z</time>
      </trkpt>
      <trkpt lat="44.07504" lon="3.9382">
        <ele>160.2</ele>
        <time>2013-08-09T09:35:03Z</time>
      </trkpt>
      <trkpt lat="44.07513" lon="3.93817">
        <ele>159.72</ele>
        <time>2013-08-09T09:35:04Z</time>
      </trkpt>
      <trkpt lat="44.07521" lon="3.93806">
        <ele>159.72</ele>
        <time>2013-08-09T09:35:05Z</time>
      </trkpt>
      <trkpt lat="44.07529" lon="3.93788">
        <ele>159.24</ele>
        <time>2013-08-09T09:35:06Z</time>
      </trkpt>
      <trkpt lat="44.07537" lon="3.93766">
        <ele>159.24</ele>
        <time>2013-08-09T09:35:07Z</time>
      </trkpt>
      <trkpt lat="44.07546" lon="3.93743">
        <ele>159.24</ele>
        <time>2013-08-09T09:35:08Z</time>
      </trkpt>
      <trkpt lat="44.07568" lon="3.93698">
        <ele>159.24</ele>
        <time>2013-08-09T09:35:10Z</time>
      </trkpt>
      <trkpt lat="44.07583" lon="3.93677">
        <ele>159.24</ele>
        <time>2013-08-09T09:35:11Z</time>
      </trkpt>
      <trkpt lat="44.07599" lon="3.93657">
        <ele>159.24</ele>
        <time>2013-08-09T09:35:12Z</time>
      </trkpt>
      <trkpt lat="44.07734" lon="3.93478">
        <ele>159.72</ele>
        <time>2013-08-09T09:35:20Z</time>
      </trkpt>
      <trkpt lat="44.07745" lon="3.9345">
        <ele>159.72</ele>
        <time>2013-08-09T09:35:21Z</time>
      </trkpt>
      <trkpt lat="44.07754" lon="3.93421">
        <ele>159.72</ele>
        <time>2013-08-09T09:35:22Z</time>
      </trkpt>
      <trkpt lat="44.0776" lon="3.9339">
        <ele>159.72</ele>
        <time>2013-08-09T09:35:23Z</time>
      </trkpt>
      <trkpt lat="44.07763" lon="3.9336">
        <ele>159.24</ele>
        <time>2013-08-09T09:35:24Z</time>
      </trkpt>
      <trkpt lat="44.07762" lon="3.93328">
        <ele>160.2</ele>
        <time>2013-08-09T09:35:25Z</time>
      </trkpt>
      <trkpt lat="44.07761" lon="3.93297">
        <ele>159.72</ele>
        <time>2013-08-09T09:35:26Z</time>
      </trkpt>
      <trkpt lat="44.07752" lon="3.93266">
        <ele>159.72</ele>
        <time>2013-08-09T09:35:27Z</time>
      </trkpt>
      <trkpt lat="44.07741" lon="3.93236">
        <ele>159.72</ele>
        <time>2013-08-09T09:35:28Z</time>
      </trkpt>
      <trkpt lat="44.07727" lon="3.93207">
        <ele>159.72</ele>
        <time>2013-08-09T09:35:29Z</time>
      </trkpt>
      <trkpt lat="44.0771" lon="3.9318">
        <ele>159.72</ele>
        <time>2013-08-09T09:35:30Z</time>
      </trkpt>
      <trkpt lat="44.07692" lon="3.93156">
        <ele>160.2</ele>
        <time>2013-08-09T09:35:31Z</time>
      </trkpt>
      <trkpt lat="44.07674" lon="3.93133">
        <ele>161.16</ele>
        <time>2013-08-09T09:35:32Z</time>
      </trkpt>
      <trkpt lat="44.07613" lon="3.93051">
        <ele>165.96</ele>
        <time>2013-08-09T09:35:36Z</time>
      </trkpt>
      <trkpt lat="44.07604" lon="3.9303">
        <ele>166.93</ele>
        <time>2013-08-09T09:35:37Z</time>
      </trkpt>
      <trkpt lat="44.07597" lon="3.9301">
        <ele>167.41</ele>
        <time>2013-08-09T09:35:38Z</time>
      </trkpt>
      <trkpt lat="44.07594" lon="3.92987">
        <ele>168.37</ele>
        <time>2013-08-09T09:35:39Z</time>
      </trkpt>
      <trkpt lat="44.07598" lon="3.92964">
        <ele>170.29</ele>
        <time>2013-08-09T09:35:40Z</time>
      </trkpt>
      <trkpt lat="44.07603" lon="3.9294">
        <ele>171.73</ele>
        <time>2013-08-09T09:35:41Z</time>
      </trkpt>
      <trkpt lat="44.07609" lon="3.92917">
        <ele>174.14</ele>
        <time>2013-08-09T09:35:42Z</time>
      </trkpt>
      <trkpt lat="44.07621" lon="3.92899">
        <ele>175.58</ele>
        <time>2013-08-09T09:35:43Z</time>
      </trkpt>
      <trkpt lat="44.07636" lon="3.92883">
        <ele>177.02</ele>
        <time>2013-08-09T09:35:44Z</time>
      </trkpt>
      <trkpt lat="44.07661" lon="3.92878">
        <ele>180.87</ele>
        <time>2013-08-09T09:35:45Z</time>
      </trkpt>
      <trkpt lat="44.07686" lon="3.92878">
        <ele>182.31</ele>
        <time>2013-08-09T09:35:46Z</time>
      </trkpt>
      <trkpt lat="44.0771" lon="3.92875">
        <ele>183.27</ele>
        <time>2013-08-09T09:35:47Z</time>
      </trkpt>
      <trkpt lat="44.07845" lon="3.92826">
        <ele>180.87</ele>
        <time>2013-08-09T09:35:53Z</time>
      </trkpt>
      <trkpt lat="44.07864" lon="3.92805">
        <ele>179.42</ele>
        <time>2013-08-09T09:35:54Z</time>
      </trkpt>
      <trkpt lat="44.07881" lon="3.9278">
        <ele>178.46</ele>
        <time>2013-08-09T09:35:55Z</time>
      </trkpt>
      <trkpt lat="44.07897" lon="3.92752">
        <ele>177.5</ele>
        <time>2013-08-09T09:35:56Z</time>
      </trkpt>
      <trkpt lat="44.07913" lon="3.92723">
        <ele>177.5</ele>
        <time>2013-08-09T09:35:57Z</time>
      </trkpt>
      <trkpt lat="44.08095" lon="3.92402">
        <ele>179.9</ele>
        <time>2013-08-09T09:36:09Z</time>
      </trkpt>
      <trkpt lat="44.08212" lon="3.92259">
        <ele>175.58</ele>
        <time>2013-08-09T09:36:16Z</time>
      </trkpt>
      <trkpt lat="44.08399" lon="3.92064">
        <ele>174.62</ele>
        <time>2013-08-09T09:36:26Z</time>
      </trkpt>
      <trkpt lat="44.08582" lon="3.91907">
        <ele>184.71</ele>
        <time>2013-08-09T09:36:36Z</time>
      </trkpt>
      <trkpt lat="44.08837" lon="3.91763">
        <ele>197.69</ele>
        <time>2013-08-09T09:36:50Z</time>
      </trkpt>
      <trkpt lat="44.08956" lon="3.91704">
        <ele>203.46</ele>
        <time>2013-08-09T09:36:57Z</time>
      </trkpt>
      <trkpt lat="44.08974" lon="3.91701">
        <ele>204.42</ele>
        <time>2013-08-09T09:36:58Z</time>
      </trkpt>
      <trkpt lat="44.08992" lon="3.917">
        <ele>204.9</ele>
        <time>2013-08-09T09:36:59Z</time>
      </trkpt>
      <trkpt lat="44.09169" lon="3.91713">
        <ele>207.78</ele>
        <time>2013-08-09T09:37:08Z</time>
      </trkpt>
      <trkpt lat="44.0929" lon="3.91779">
        <ele>206.34</ele>
        <time>2013-08-09T09:37:14Z</time>
      </trkpt>
      <trkpt lat="44.09402" lon="3.91871">
        <ele>203.46</ele>
        <time>2013-08-09T09:37:20Z</time>
      </trkpt>
      <trkpt lat="44.09421" lon="3.91881">
        <ele>202.98</ele>
        <time>2013-08-09T09:37:21Z</time>
      </trkpt>
      <trkpt lat="44.09441" lon="3.91886">
        <ele>202.01</ele>
        <time>2013-08-09T09:37:22Z</time>
      </trkpt>
      <trkpt lat="44.09463" lon="3.91887">
        <ele>201.53</ele>
        <time>2013-08-09T09:37:23Z</time>
      </trkpt>
      <trkpt lat="44.09485" lon="3.91886">
        <ele>200.57</ele>
        <time>2013-08-09T09:37:24Z</time>
      </trkpt>
      <trkpt lat="44.09507" lon="3.91885">
        <ele>200.09</ele>
        <time>2013-08-09T09:37:25Z</time>
      </trkpt>
      <trkpt lat="44.09569" lon="3.91875">
        <ele>199.13</ele>
        <time>2013-08-09T09:37:28Z</time>
      </trkpt>
      <trkpt lat="44.09588" lon="3.91868">
        <ele>198.17</ele>
        <time>2013-08-09T09:37:29Z</time>
      </trkpt>
      <trkpt lat="44.09606" lon="3.91858">
        <ele>197.69</ele>
        <time>2013-08-09T09:37:30Z</time>
      </trkpt>
      <trkpt lat="44.09622" lon="3.91846">
        <ele>197.69</ele>
        <time>2013-08-09T09:37:31Z</time>
      </trkpt>
      <trkpt lat="44.09638" lon="3.91831">
        <ele>196.73</ele>
        <time>2013-08-09T09:37:32Z</time>
      </trkpt>
      <trkpt lat="44.09653" lon="3.91813">
        <ele>196.25</ele>
        <time>2013-08-09T09:37:33Z</time>
      </trkpt>
      <trkpt lat="44.09667" lon="3.91792">
        <ele>195.28</ele>
        <time>2013-08-09T09:37:34Z</time>
      </trkpt>
      <trkpt lat="44.09681" lon="3.91771">
        <ele>194.32</ele>
        <time>2013-08-09T09:37:35Z</time>
      </trkpt>
      <trkpt lat="44.09736" lon="3.9168">
        <ele>189.52</ele>
        <time>2013-08-09T09:37:40Z</time>
      </trkpt>
      <trkpt lat="44.09742" lon="3.91662">
        <ele>188.56</ele>
        <time>2013-08-09T09:37:41Z</time>
      </trkpt>
      <trkpt lat="44.09747" lon="3.91643">
        <ele>188.08</ele>
        <time>2013-08-09T09:37:42Z</time>
      </trkpt>
      <trkpt lat="44.09749" lon="3.91622">
        <ele>187.59</ele>
        <time>2013-08-09T09:37:43Z</time>
      </trkpt>
      <trkpt lat="44.09751" lon="3.916">
        <ele>186.63</ele>
        <time>2013-08-09T09:37:44Z</time>
      </trkpt>
      <trkpt lat="44.09752" lon="3.91579">
        <ele>186.63</ele>
        <time>2013-08-09T09:37:45Z</time>
      </trkpt>
      <trkpt lat="44.09758" lon="3.91436">
        <ele>186.15</ele>
        <time>2013-08-09T09:37:52Z</time>
      </trkpt>
      <trkpt lat="44.09763" lon="3.91417">
        <ele>186.15</ele>
        <time>2013-08-09T09:37:53Z</time>
      </trkpt>
      <trkpt lat="44.09831" lon="3.91183">
        <ele>187.59</ele>
        <time>2013-08-09T09:38:06Z</time>
      </trkpt>
      <trkpt lat="44.09843" lon="3.91053">
        <ele>186.15</ele>
        <time>2013-08-09T09:38:13Z</time>
      </trkpt>
      <trkpt lat="44.09842" lon="3.91034">
        <ele>185.67</ele>
        <time>2013-08-09T09:38:14Z</time>
      </trkpt>
      <trkpt lat="44.09819" lon="3.90777">
        <ele>183.27</ele>
        <time>2013-08-09T09:38:27Z</time>
      </trkpt>
      <trkpt lat="44.09809" lon="3.90641">
        <ele>187.59</ele>
        <time>2013-08-09T09:38:34Z</time>
      </trkpt>
      <trkpt lat="44.09804" lon="3.90623">
        <ele>188.08</ele>
        <time>2013-08-09T09:38:35Z</time>
      </trkpt>
      <trkpt lat="44.09779" lon="3.90444">
        <ele>189.52</ele>
        <time>2013-08-09T09:38:44Z</time>
      </trkpt>
      <trkpt lat="44.09797" lon="3.90261">
        <ele>188.08</ele>
        <time>2013-08-09T09:38:53Z</time>
      </trkpt>
      <trkpt lat="44.09825" lon="3.90132">
        <ele>187.59</ele>
        <time>2013-08-09T09:39:01Z</time>
      </trkpt>
      <trkpt lat="44.09896" lon="3.89994">
        <ele>188.56</ele>
        <time>2013-08-09T09:39:11Z</time>
      </trkpt>
      <trkpt lat="44.09943" lon="3.89847">
        <ele>188.08</ele>
        <time>2013-08-09T09:39:21Z</time>
      </trkpt>
      <trkpt lat="44.10003" lon="3.89619">
        <ele>185.67</ele>
        <time>2013-08-09T09:39:34Z</time>
      </trkpt>
      <trkpt lat="44.10069" lon="3.89533">
        <ele>185.67</ele>
        <time>2013-08-09T09:39:42Z</time>
      </trkpt>
      <trkpt lat="44.10109" lon="3.89509">
        <ele>186.63</ele>
        <time>2013-08-09T09:39:48Z</time>
      </trkpt>
      <trkpt lat="44.10114" lon="3.89509">
        <ele>186.63</ele>
        <time>2013-08-09T09:39:49Z</time>
      </trkpt>
      <trkpt lat="44.10124" lon="3.89509">
        <ele>186.63</ele>
        <time>2013-08-09T09:39:51Z</time>
      </trkpt>
      <trkpt lat="44.10129" lon="3.89506">
        <ele>186.63</ele>
        <time>2013-08-09T09:39:52Z</time>
      </trkpt>
      <trkpt lat="44.10134" lon="3.89503">
        <ele>187.11</ele>
        <time>2013-08-09T09:39:53Z</time>
      </trkpt>
      <trkpt lat="44.10139" lon="3.89499">
        <ele>187.11</ele>
        <time>2013-08-09T09:39:54Z</time>
      </trkpt>
      <trkpt lat="44.10146" lon="3.89495">
        <ele>187.59</ele>
        <time>2013-08-09T09:39:55Z</time>
      </trkpt>
      <trkpt lat="44.10155" lon="3.89491">
        <ele>187.59</ele>
        <time>2013-08-09T09:39:56Z</time>
      </trkpt>
      <trkpt lat="44.10255" lon="3.89434">
        <ele>193.84</ele>
        <time>2013-08-09T09:40:05Z</time>
      </trkpt>
      <trkpt lat="44.10266" lon="3.89423">
        <ele>194.32</ele>
        <time>2013-08-09T09:40:06Z</time>
      </trkpt>
      <trkpt lat="44.10277" lon="3.89411">
        <ele>194.8</ele>
        <time>2013-08-09T09:40:07Z</time>
      </trkpt>
      <trkpt lat="44.10287" lon="3.89397">
        <ele>195.28</ele>
        <time>2013-08-09T09:40:08Z</time>
      </trkpt>
      <trkpt lat="44.10296" lon="3.89382">
        <ele>196.25</ele>
        <time>2013-08-09T09:40:09Z</time>
      </trkpt>
      <trkpt lat="44.10305" lon="3.89367">
        <ele>196.73</ele>
        <time>2013-08-09T09:40:10Z</time>
      </trkpt>
      <trkpt lat="44.10314" lon="3.8935">
        <ele>197.21</ele>
        <time>2013-08-09T09:40:11Z</time>
      </trkpt>
      <trkpt lat="44.10402" lon="3.89148">
        <ele>206.82</ele>
        <time>2013-08-09T09:40:22Z</time>
      </trkpt>
      <trkpt lat="44.10466" lon="3.89046">
        <ele>208.74</ele>
        <time>2013-08-09T09:40:30Z</time>
      </trkpt>
      <trkpt lat="44.10581" lon="3.88871">
        <ele>202.01</ele>
        <time>2013-08-09T09:40:43Z</time>
      </trkpt>
      <trkpt lat="44.10627" lon="3.88711">
        <ele>196.73</ele>
        <time>2013-08-09T09:40:53Z</time>
      </trkpt>
      <trkpt lat="44.10644" lon="3.88646">
        <ele>199.13</ele>
        <time>2013-08-09T09:41:01Z</time>
      </trkpt>
      <trkpt lat="44.10654" lon="3.88616">
        <ele>199.61</ele>
        <time>2013-08-09T09:41:05Z</time>
      </trkpt>
      <trkpt lat="44.10686" lon="3.8854">
        <ele>200.09</ele>
        <time>2013-08-09T09:41:11Z</time>
      </trkpt>
      <trkpt lat="44.10768" lon="3.88363">
        <ele>203.94</ele>
        <time>2013-08-09T09:41:21Z</time>
      </trkpt>
      <trkpt lat="44.10799" lon="3.88199">
        <ele>205.38</ele>
        <time>2013-08-09T09:41:29Z</time>
      </trkpt>
      <trkpt lat="44.10812" lon="3.8807">
        <ele>205.38</ele>
        <time>2013-08-09T09:41:35Z</time>
      </trkpt>
      <trkpt lat="44.10811" lon="3.88049">
        <ele>204.9</ele>
        <time>2013-08-09T09:41:36Z</time>
      </trkpt>
      <trkpt lat="44.10808" lon="3.88028">
        <ele>203.94</ele>
        <time>2013-08-09T09:41:37Z</time>
      </trkpt>
      <trkpt lat="44.10804" lon="3.88007">
        <ele>203.46</ele>
        <time>2013-08-09T09:41:38Z</time>
      </trkpt>
      <trkpt lat="44.10798" lon="3.87987">
        <ele>202.98</ele>
        <time>2013-08-09T09:41:39Z</time>
      </trkpt>
      <trkpt lat="44.10791" lon="3.87968">
        <ele>202.01</ele>
        <time>2013-08-09T09:41:40Z</time>
      </trkpt>
      <trkpt lat="44.10783" lon="3.8795">
        <ele>201.05</ele>
        <time>2013-08-09T09:41:41Z</time>
      </trkpt>
      <trkpt lat="44.10774" lon="3.87933">
        <ele>200.57</ele>
        <time>2013-08-09T09:41:42Z</time>
      </trkpt>
      <trkpt lat="44.10766" lon="3.87918">
        <ele>199.61</ele>
        <time>2013-08-09T09:41:43Z</time>
      </trkpt>
      <trkpt lat="44.10745" lon="3.87874">
        <ele>197.69</ele>
        <time>2013-08-09T09:41:46Z</time>
      </trkpt>
      <trkpt lat="44.10741" lon="3.87859">
        <ele>197.21</ele>
        <time>2013-08-09T09:41:47Z</time>
      </trkpt>
      <trkpt lat="44.10737" lon="3.87841">
        <ele>196.73</ele>
        <time>2013-08-09T09:41:48Z</time>
      </trkpt>
      <trkpt lat="44.10736" lon="3.87823">
        <ele>195.77</ele>
        <time>2013-08-09T09:41:49Z</time>
      </trkpt>
      <trkpt lat="44.10735" lon="3.87806">
        <ele>195.28</ele>
        <time>2013-08-09T09:41:50Z</time>
      </trkpt>
      <trkpt lat="44.10735" lon="3.87789">
        <ele>195.28</ele>
        <time>2013-08-09T09:41:51Z</time>
      </trkpt>
      <trkpt lat="44.10748" lon="3.87662">
        <ele>193.36</ele>
        <time>2013-08-09T09:41:59Z</time>
      </trkpt>
      <trkpt lat="44.10757" lon="3.87645">
        <ele>194.32</ele>
        <time>2013-08-09T09:42:00Z</time>
      </trkpt>
      <trkpt lat="44.10766" lon="3.87628">
        <ele>195.28</ele>
        <time>2013-08-09T09:42:01Z</time>
      </trkpt>
      <trkpt lat="44.10776" lon="3.87613">
        <ele>195.28</ele>
        <time>2013-08-09T09:42:02Z</time>
      </trkpt>
      <trkpt lat="44.10787" lon="3.87597">
        <ele>195.28</ele>
        <time>2013-08-09T09:42:03Z</time>
      </trkpt>
      <trkpt lat="44.1086" lon="3.87489">
        <ele>197.69</ele>
        <time>2013-08-09T09:42:10Z</time>
      </trkpt>
      <trkpt lat="44.11024" lon="3.87355">
        <ele>200.09</ele>
        <time>2013-08-09T09:42:22Z</time>
      </trkpt>
      <trkpt lat="44.1104" lon="3.87348">
        <ele>200.57</ele>
        <time>2013-08-09T09:42:23Z</time>
      </trkpt>
      <trkpt lat="44.11161" lon="3.87339">
        <ele>203.94</ele>
        <time>2013-08-09T09:42:30Z</time>
      </trkpt>
      <trkpt lat="44.11238" lon="3.87327">
        <ele>203.46</ele>
        <time>2013-08-09T09:42:35Z</time>
      </trkpt>
      <trkpt lat="44.11364" lon="3.87252">
        <ele>201.53</ele>
        <time>2013-08-09T09:42:44Z</time>
      </trkpt>
      <trkpt lat="44.11375" lon="3.87238">
        <ele>201.05</ele>
        <time>2013-08-09T09:42:45Z</time>
      </trkpt>
      <trkpt lat="44.11423" lon="3.87173">
        <ele>199.61</ele>
        <time>2013-08-09T09:42:50Z</time>
      </trkpt>
      <trkpt lat="44.1143" lon="3.87155">
        <ele>199.13</ele>
        <time>2013-08-09T09:42:51Z</time>
      </trkpt>
      <trkpt lat="44.11435" lon="3.87137">
        <ele>199.13</ele>
        <time>2013-08-09T09:42:52Z</time>
      </trkpt>
      <trkpt lat="44.11439" lon="3.87118">
        <ele>200.09</ele>
        <time>2013-08-09T09:42:53Z</time>
      </trkpt>
      <trkpt lat="44.11444" lon="3.87099">
        <ele>199.61</ele>
        <time>2013-08-09T09:42:54Z</time>
      </trkpt>
      <trkpt lat="44.11466" lon="3.86907">
        <ele>204.42</ele>
        <time>2013-08-09T09:43:03Z</time>
      </trkpt>
      <trkpt lat="44.11455" lon="3.86799">
        <ele>205.86</ele>
        <time>2013-08-09T09:43:08Z</time>
      </trkpt>
      <trkpt lat="44.11446" lon="3.86778">
        <ele>205.86</ele>
        <time>2013-08-09T09:43:09Z</time>
      </trkpt>
      <trkpt lat="44.11436" lon="3.86754">
        <ele>205.86</ele>
        <time>2013-08-09T09:43:10Z</time>
      </trkpt>
      <trkpt lat="44.11424" lon="3.86728">
        <ele>205.38</ele>
        <time>2013-08-09T09:43:11Z</time>
      </trkpt>
      <trkpt lat="44.11409" lon="3.86701">
        <ele>204.9</ele>
        <time>2013-08-09T09:43:12Z</time>
      </trkpt>
      <trkpt lat="44.11314" lon="3.8651">
        <ele>203.46</ele>
        <time>2013-08-09T09:43:19Z</time>
      </trkpt>
      <trkpt lat="44.11245" lon="3.86358">
        <ele>204.9</ele>
        <time>2013-08-09T09:43:27Z</time>
      </trkpt>
      <trkpt lat="44.1124" lon="3.86344">
        <ele>204.9</ele>
        <time>2013-08-09T09:43:28Z</time>
      </trkpt>
      <trkpt lat="44.11237" lon="3.8633">
        <ele>206.34</ele>
        <time>2013-08-09T09:43:29Z</time>
      </trkpt>
      <trkpt lat="44.11235" lon="3.86314">
        <ele>206.82</ele>
        <time>2013-08-09T09:43:30Z</time>
      </trkpt>
      <trkpt lat="44.11233" lon="3.86297">
        <ele>207.3</ele>
        <time>2013-08-09T09:43:31Z</time>
      </trkpt>
      <trkpt lat="44.11233" lon="3.86281">
        <ele>207.78</ele>
        <time>2013-08-09T09:43:32Z</time>
      </trkpt>
      <trkpt lat="44.11231" lon="3.86265">
        <ele>208.74</ele>
        <time>2013-08-09T09:43:33Z</time>
      </trkpt>
      <trkpt lat="44.11227" lon="3.86249">
        <ele>209.7</ele>
        <time>2013-08-09T09:43:34Z</time>
      </trkpt>
      <trkpt lat="44.11223" lon="3.86234">
        <ele>210.19</ele>
        <time>2013-08-09T09:43:35Z</time>
      </trkpt>
      <trkpt lat="44.11213" lon="3.86208">
        <ele>211.15</ele>
        <time>2013-08-09T09:43:37Z</time>
      </trkpt>
      <trkpt lat="44.1121" lon="3.86194">
        <ele>212.11</ele>
        <time>2013-08-09T09:43:38Z</time>
      </trkpt>
      <trkpt lat="44.1121" lon="3.86181">
        <ele>212.59</ele>
        <time>2013-08-09T09:43:39Z</time>
      </trkpt>
      <trkpt lat="44.11211" lon="3.86167">
        <ele>214.51</ele>
        <time>2013-08-09T09:43:40Z</time>
      </trkpt>
      <trkpt lat="44.11216" lon="3.86154">
        <ele>214.99</ele>
        <time>2013-08-09T09:43:41Z</time>
      </trkpt>
      <trkpt lat="44.11222" lon="3.8614">
        <ele>215.47</ele>
        <time>2013-08-09T09:43:42Z</time>
      </trkpt>
      <trkpt lat="44.11259" lon="3.86006">
        <ele>218.84</ele>
        <time>2013-08-09T09:43:50Z</time>
      </trkpt>
      <trkpt lat="44.11279" lon="3.85933">
        <ele>220.76</ele>
        <time>2013-08-09T09:43:55Z</time>
      </trkpt>
      <trkpt lat="44.11284" lon="3.85925">
        <ele>220.28</ele>
        <time>2013-08-09T09:43:56Z</time>
      </trkpt>
      <trkpt lat="44.11289" lon="3.85921">
        <ele>220.28</ele>
        <time>2013-08-09T09:43:57Z</time>
      </trkpt>
      <trkpt lat="44.11295" lon="3.85919">
        <ele>221.72</ele>
        <time>2013-08-09T09:43:58Z</time>
      </trkpt>
      <trkpt lat="44.11302" lon="3.85922">
        <ele>223.16</ele>
        <time>2013-08-09T09:43:59Z</time>
      </trkpt>
      <trkpt lat="44.1131" lon="3.8593">
        <ele>224.12</ele>
        <time>2013-08-09T09:44:00Z</time>
      </trkpt>
      <trkpt lat="44.11317" lon="3.8594">
        <ele>223.64</ele>
        <time>2013-08-09T09:44:01Z</time>
      </trkpt>
      <trkpt lat="44.11324" lon="3.85951">
        <ele>223.64</ele>
        <time>2013-08-09T09:44:02Z</time>
      </trkpt>
      <trkpt lat="44.11329" lon="3.85963">
        <ele>223.64</ele>
        <time>2013-08-09T09:44:03Z</time>
      </trkpt>
      <trkpt lat="44.11336" lon="3.85976">
        <ele>223.16</ele>
        <time>2013-08-09T09:44:04Z</time>
      </trkpt>
      <trkpt lat="44.11343" lon="3.85989">
        <ele>223.16</ele>
        <time>2013-08-09T09:44:05Z</time>
      </trkpt>
      <trkpt lat="44.11351" lon="3.86">
        <ele>223.16</ele>
        <time>2013-08-09T09:44:06Z</time>
      </trkpt>
      <trkpt lat="44.11374" lon="3.8602">
        <ele>223.64</ele>
        <time>2013-08-09T09:44:08Z</time>
      </trkpt>
      <trkpt lat="44.11482" lon="3.86082">
        <ele>226.53</ele>
        <time>2013-08-09T09:44:13Z</time>
      </trkpt>
      <trkpt lat="44.11745" lon="3.86236">
        <ele>237.1</ele>
        <time>2013-08-09T09:44:25Z</time>
      </trkpt>
      <trkpt lat="44.11885" lon="3.86307">
        <ele>242.39</ele>
        <time>2013-08-09T09:44:33Z</time>
      </trkpt>
      <trkpt lat="44.11897" lon="3.86308">
        <ele>242.39</ele>
        <time>2013-08-09T09:44:34Z</time>
      </trkpt>
      <trkpt lat="44.11908" lon="3.86302">
        <ele>242.39</ele>
        <time>2013-08-09T09:44:35Z</time>
      </trkpt>
      <trkpt lat="44.11917" lon="3.8629">
        <ele>242.87</ele>
        <time>2013-08-09T09:44:36Z</time>
      </trkpt>
      <trkpt lat="44.11925" lon="3.86276">
        <ele>243.35</ele>
        <time>2013-08-09T09:44:37Z</time>
      </trkpt>
      <trkpt lat="44.11937" lon="3.86264">
        <ele>243.83</ele>
        <time>2013-08-09T09:44:38Z</time>
      </trkpt>
      <trkpt lat="44.11949" lon="3.86255">
        <ele>245.27</ele>
        <time>2013-08-09T09:44:39Z</time>
      </trkpt>
      <trkpt lat="44.11962" lon="3.86249">
        <ele>245.75</ele>
        <time>2013-08-09T09:44:40Z</time>
      </trkpt>
      <trkpt lat="44.11978" lon="3.8625">
        <ele>247.2</ele>
        <time>2013-08-09T09:44:41Z</time>
      </trkpt>
      <trkpt lat="44.11995" lon="3.86253">
        <ele>247.2</ele>
        <time>2013-08-09T09:44:42Z</time>
      </trkpt>
      <trkpt lat="44.12013" lon="3.8626">
        <ele>247.68</ele>
        <time>2013-08-09T09:44:43Z</time>
      </trkpt>
      <trkpt lat="44.1203" lon="3.86273">
        <ele>246.72</ele>
        <time>2013-08-09T09:44:44Z</time>
      </trkpt>
      <trkpt lat="44.12047" lon="3.86287">
        <ele>246.72</ele>
        <time>2013-08-09T09:44:45Z</time>
      </trkpt>
      <trkpt lat="44.12062" lon="3.86303">
        <ele>249.6</ele>
        <time>2013-08-09T09:44:46Z</time>
      </trkpt>
      <trkpt lat="44.12077" lon="3.86319">
        <ele>252</ele>
        <time>2013-08-09T09:44:47Z</time>
      </trkpt>
      <trkpt lat="44.12092" lon="3.86336">
        <ele>253.93</ele>
        <time>2013-08-09T09:44:48Z</time>
      </trkpt>
      <trkpt lat="44.12184" lon="3.86404">
        <ele>262.1</ele>
        <time>2013-08-09T09:44:54Z</time>
      </trkpt>
      <trkpt lat="44.12203" lon="3.86405">
        <ele>262.58</ele>
        <time>2013-08-09T09:44:55Z</time>
      </trkpt>
      <trkpt lat="44.12223" lon="3.86405">
        <ele>264.02</ele>
        <time>2013-08-09T09:44:56Z</time>
      </trkpt>
      <trkpt lat="44.12414" lon="3.86424">
        <ele>278.92</ele>
        <time>2013-08-09T09:45:05Z</time>
      </trkpt>
      <trkpt lat="44.12595" lon="3.86472">
        <ele>293.34</ele>
        <time>2013-08-09T09:45:14Z</time>
      </trkpt>
      <trkpt lat="44.12612" lon="3.8647">
        <ele>295.74</ele>
        <time>2013-08-09T09:45:15Z</time>
      </trkpt>
      <trkpt lat="44.12626" lon="3.86466">
        <ele>297.18</ele>
        <time>2013-08-09T09:45:16Z</time>
      </trkpt>
      <trkpt lat="44.12639" lon="3.8646">
        <ele>298.63</ele>
        <time>2013-08-09T09:45:17Z</time>
      </trkpt>
      <trkpt lat="44.12669" lon="3.8645">
        <ele>303.43</ele>
        <time>2013-08-09T09:45:20Z</time>
      </trkpt>
      <trkpt lat="44.12673" lon="3.86456">
        <ele>304.39</ele>
        <time>2013-08-09T09:45:21Z</time>
      </trkpt>
      <trkpt lat="44.12674" lon="3.86468">
        <ele>304.88</ele>
        <time>2013-08-09T09:45:22Z</time>
      </trkpt>
      <trkpt lat="44.1267" lon="3.86483">
        <ele>305.36</ele>
        <time>2013-08-09T09:45:23Z</time>
      </trkpt>
      <trkpt lat="44.12669" lon="3.86501">
        <ele>306.32</ele>
        <time>2013-08-09T09:45:24Z</time>
      </trkpt>
      <trkpt lat="44.12665" lon="3.8652">
        <ele>307.28</ele>
        <time>2013-08-09T09:45:25Z</time>
      </trkpt>
      <trkpt lat="44.12665" lon="3.8654">
        <ele>308.24</ele>
        <time>2013-08-09T09:45:26Z</time>
      </trkpt>
      <trkpt lat="44.12671" lon="3.86557">
        <ele>309.68</ele>
        <time>2013-08-09T09:45:27Z</time>
      </trkpt>
      <trkpt lat="44.12681" lon="3.8657">
        <ele>310.64</ele>
        <time>2013-08-09T09:45:28Z</time>
      </trkpt>
      <trkpt lat="44.12693" lon="3.86582">
        <ele>312.09</ele>
        <time>2013-08-09T09:45:29Z</time>
      </trkpt>
      <trkpt lat="44.12703" lon="3.86594">
        <ele>313.05</ele>
        <time>2013-08-09T09:45:30Z</time>
      </trkpt>
      <trkpt lat="44.12715" lon="3.86608">
        <ele>314.01</ele>
        <time>2013-08-09T09:45:31Z</time>
      </trkpt>
      <trkpt lat="44.12738" lon="3.86647">
        <ele>318.33</ele>
        <time>2013-08-09T09:45:34Z</time>
      </trkpt>
      <trkpt lat="44.12737" lon="3.86657">
        <ele>318.81</ele>
        <time>2013-08-09T09:45:35Z</time>
      </trkpt>
      <trkpt lat="44.12734" lon="3.86663">
        <ele>318.33</ele>
        <time>2013-08-09T09:45:36Z</time>
      </trkpt>
      <trkpt lat="44.12725" lon="3.86664">
        <ele>318.33</ele>
        <time>2013-08-09T09:45:37Z</time>
      </trkpt>
      <trkpt lat="44.12713" lon="3.86663">
        <ele>319.78</ele>
        <time>2013-08-09T09:45:38Z</time>
      </trkpt>
      <trkpt lat="44.12699" lon="3.86661">
        <ele>319.78</ele>
        <time>2013-08-09T09:45:39Z</time>
      </trkpt>
      <trkpt lat="44.12682" lon="3.86654">
        <ele>318.81</ele>
        <time>2013-08-09T09:45:40Z</time>
      </trkpt>
      <trkpt lat="44.12665" lon="3.86649">
        <ele>318.33</ele>
        <time>2013-08-09T09:45:41Z</time>
      </trkpt>
      <trkpt lat="44.12629" lon="3.8665">
        <ele>317.37</ele>
        <time>2013-08-09T09:45:43Z</time>
      </trkpt>
      <trkpt lat="44.12612" lon="3.86658">
        <ele>316.89</ele>
        <time>2013-08-09T09:45:44Z</time>
      </trkpt>
      <trkpt lat="44.12593" lon="3.86666">
        <ele>317.85</ele>
        <time>2013-08-09T09:45:45Z</time>
      </trkpt>
      <trkpt lat="44.12573" lon="3.86671">
        <ele>317.85</ele>
        <time>2013-08-09T09:45:46Z</time>
      </trkpt>
      <trkpt lat="44.12554" lon="3.86672">
        <ele>318.81</ele>
        <time>2013-08-09T09:45:47Z</time>
      </trkpt>
      <trkpt lat="44.12536" lon="3.86671">
        <ele>319.3</ele>
        <time>2013-08-09T09:45:48Z</time>
      </trkpt>
      <trkpt lat="44.12498" lon="3.86672">
        <ele>319.3</ele>
        <time>2013-08-09T09:45:51Z</time>
      </trkpt>
      <trkpt lat="44.12484" lon="3.86679">
        <ele>319.78</ele>
        <time>2013-08-09T09:45:53Z</time>
      </trkpt>
      <trkpt lat="44.12492" lon="3.86689">
        <ele>321.22</ele>
        <time>2013-08-09T09:45:54Z</time>
      </trkpt>
      <trkpt lat="44.1251" lon="3.86696">
        <ele>321.7</ele>
        <time>2013-08-09T09:45:55Z</time>
      </trkpt>
      <trkpt lat="44.12525" lon="3.86697">
        <ele>322.66</ele>
        <time>2013-08-09T09:45:56Z</time>
      </trkpt>
      <trkpt lat="44.1254" lon="3.867">
        <ele>322.66</ele>
        <time>2013-08-09T09:45:57Z</time>
      </trkpt>
      <trkpt lat="44.12596" lon="3.86703">
        <ele>326.5</ele>
        <time>2013-08-09T09:46:00Z</time>
      </trkpt>
      <trkpt lat="44.12614" lon="3.867">
        <ele>327.95</ele>
        <time>2013-08-09T09:46:01Z</time>
      </trkpt>
      <trkpt lat="44.12648" lon="3.86694">
        <ele>329.87</ele>
        <time>2013-08-09T09:46:03Z</time>
      </trkpt>
      <trkpt lat="44.12665" lon="3.86695">
        <ele>331.31</ele>
        <time>2013-08-09T09:46:04Z</time>
      </trkpt>
      <trkpt lat="44.12682" lon="3.86699">
        <ele>332.27</ele>
        <time>2013-08-09T09:46:05Z</time>
      </trkpt>
      <trkpt lat="44.12699" lon="3.86708">
        <ele>333.71</ele>
        <time>2013-08-09T09:46:06Z</time>
      </trkpt>
      <trkpt lat="44.12715" lon="3.86716">
        <ele>335.64</ele>
        <time>2013-08-09T09:46:07Z</time>
      </trkpt>
      <trkpt lat="44.12741" lon="3.86732">
        <ele>337.56</ele>
        <time>2013-08-09T09:46:09Z</time>
      </trkpt>
      <trkpt lat="44.1275" lon="3.86747">
        <ele>338.52</ele>
        <time>2013-08-09T09:46:10Z</time>
      </trkpt>
      <trkpt lat="44.12757" lon="3.86762">
        <ele>340.44</ele>
        <time>2013-08-09T09:46:11Z</time>
      </trkpt>
      <trkpt lat="44.12764" lon="3.86775">
        <ele>342.37</ele>
        <time>2013-08-09T09:46:12Z</time>
      </trkpt>
      <trkpt lat="44.12771" lon="3.86788">
        <ele>344.77</ele>
        <time>2013-08-09T09:46:13Z</time>
      </trkpt>
      <trkpt lat="44.1278" lon="3.86795">
        <ele>346.69</ele>
        <time>2013-08-09T09:46:15Z</time>
      </trkpt>
      <trkpt lat="44.12789" lon="3.86781">
        <ele>346.21</ele>
        <time>2013-08-09T09:46:16Z</time>
      </trkpt>
      <trkpt lat="44.12799" lon="3.86768">
        <ele>346.21</ele>
        <time>2013-08-09T09:46:17Z</time>
      </trkpt>
      <trkpt lat="44.12819" lon="3.86743">
        <ele>347.65</ele>
        <time>2013-08-09T09:46:19Z</time>
      </trkpt>
      <trkpt lat="44.12828" lon="3.86736">
        <ele>348.62</ele>
        <time>2013-08-09T09:46:20Z</time>
      </trkpt>
      <trkpt lat="44.12835" lon="3.86727">
        <ele>349.1</ele>
        <time>2013-08-09T09:46:21Z</time>
      </trkpt>
      <trkpt lat="44.12839" lon="3.86714">
        <ele>349.58</ele>
        <time>2013-08-09T09:46:22Z</time>
      </trkpt>
      <trkpt lat="44.12837" lon="3.86698">
        <ele>350.54</ele>
        <time>2013-08-09T09:46:23Z</time>
      </trkpt>
      <trkpt lat="44.12831" lon="3.86676">
        <ele>351.02</ele>
        <time>2013-08-09T09:46:24Z</time>
      </trkpt>
      <trkpt lat="44.12814" lon="3.8663">
        <ele>352.46</ele>
        <time>2013-08-09T09:46:26Z</time>
      </trkpt>
      <trkpt lat="44.12803" lon="3.86607">
        <ele>354.38</ele>
        <time>2013-08-09T09:46:27Z</time>
      </trkpt>
      <trkpt lat="44.12794" lon="3.86585">
        <ele>355.83</ele>
        <time>2013-08-09T09:46:28Z</time>
      </trkpt>
      <trkpt lat="44.12765" lon="3.86512">
        <ele>359.67</ele>
        <time>2013-08-09T09:46:32Z</time>
      </trkpt>
      <trkpt lat="44.12767" lon="3.86498">
        <ele>359.67</ele>
        <time>2013-08-09T09:46:33Z</time>
      </trkpt>
      <trkpt lat="44.12773" lon="3.86483">
        <ele>360.15</ele>
        <time>2013-08-09T09:46:34Z</time>
      </trkpt>
      <trkpt lat="44.12783" lon="3.8647">
        <ele>361.11</ele>
        <time>2013-08-09T09:46:35Z</time>
      </trkpt>
      <trkpt lat="44.12794" lon="3.8646">
        <ele>363.04</ele>
        <time>2013-08-09T09:46:36Z</time>
      </trkpt>
      <trkpt lat="44.12809" lon="3.86453">
        <ele>364.48</ele>
        <time>2013-08-09T09:46:37Z</time>
      </trkpt>
      <trkpt lat="44.12826" lon="3.86448">
        <ele>365.92</ele>
        <time>2013-08-09T09:46:38Z</time>
      </trkpt>
      <trkpt lat="44.12844" lon="3.86443">
        <ele>366.88</ele>
        <time>2013-08-09T09:46:39Z</time>
      </trkpt>
      <trkpt lat="44.12864" lon="3.86434">
        <ele>367.84</ele>
        <time>2013-08-09T09:46:40Z</time>
      </trkpt>
      <trkpt lat="44.12883" lon="3.86421">
        <ele>369.76</ele>
        <time>2013-08-09T09:46:41Z</time>
      </trkpt>
      <trkpt lat="44.129" lon="3.86403">
        <ele>370.73</ele>
        <time>2013-08-09T09:46:42Z</time>
      </trkpt>
      <trkpt lat="44.12915" lon="3.86384">
        <ele>371.69</ele>
        <time>2013-08-09T09:46:43Z</time>
      </trkpt>
      <trkpt lat="44.12928" lon="3.86365">
        <ele>372.65</ele>
        <time>2013-08-09T09:46:44Z</time>
      </trkpt>
      <trkpt lat="44.12945" lon="3.86336">
        <ele>375.05</ele>
        <time>2013-08-09T09:46:46Z</time>
      </trkpt>
      <trkpt lat="44.12947" lon="3.86324">
        <ele>375.53</ele>
        <time>2013-08-09T09:46:47Z</time>
      </trkpt>
      <trkpt lat="44.12945" lon="3.86314">
        <ele>376.49</ele>
        <time>2013-08-09T09:46:48Z</time>
      </trkpt>
      <trkpt lat="44.12938" lon="3.86308">
        <ele>377.45</ele>
        <time>2013-08-09T09:46:49Z</time>
      </trkpt>
      <trkpt lat="44.12928" lon="3.86301">
        <ele>377.45</ele>
        <time>2013-08-09T09:46:50Z</time>
      </trkpt>
      <trkpt lat="44.12912" lon="3.86302">
        <ele>378.42</ele>
        <time>2013-08-09T09:46:51Z</time>
      </trkpt>
      <trkpt lat="44.12897" lon="3.86299">
        <ele>379.38</ele>
        <time>2013-08-09T09:46:52Z</time>
      </trkpt>
      <trkpt lat="44.12882" lon="3.86293">
        <ele>379.86</ele>
        <time>2013-08-09T09:46:53Z</time>
      </trkpt>
      <trkpt lat="44.12868" lon="3.86285">
        <ele>380.34</ele>
        <time>2013-08-09T09:46:54Z</time>
      </trkpt>
      <trkpt lat="44.12858" lon="3.86272">
        <ele>381.3</ele>
        <time>2013-08-09T09:46:55Z</time>
      </trkpt>
      <trkpt lat="44.12853" lon="3.86254">
        <ele>380.82</ele>
        <time>2013-08-09T09:46:56Z</time>
      </trkpt>
      <trkpt lat="44.12851" lon="3.86232">
        <ele>382.26</ele>
        <time>2013-08-09T09:46:57Z</time>
      </trkpt>
      <trkpt lat="44.12848" lon="3.86211">
        <ele>384.66</ele>
        <time>2013-08-09T09:46:58Z</time>
      </trkpt>
      <trkpt lat="44.12845" lon="3.8619">
        <ele>386.11</ele>
        <time>2013-08-09T09:46:59Z</time>
      </trkpt>
      <trkpt lat="44.1284" lon="3.86171">
        <ele>387.07</ele>
        <time>2013-08-09T09:47:00Z</time>
      </trkpt>
      <trkpt lat="44.12835" lon="3.86157">
        <ele>388.03</ele>
        <time>2013-08-09T09:47:01Z</time>
      </trkpt>
      <trkpt lat="44.12828" lon="3.86149">
        <ele>388.99</ele>
        <time>2013-08-09T09:47:02Z</time>
      </trkpt>
      <trkpt lat="44.12819" lon="3.86149">
        <ele>390.43</ele>
        <time>2013-08-09T09:47:03Z</time>
      </trkpt>
      <trkpt lat="44.1281" lon="3.86154">
        <ele>391.87</ele>
        <time>2013-08-09T09:47:04Z</time>
      </trkpt>
      <trkpt lat="44.128" lon="3.86159">
        <ele>393.32</ele>
        <time>2013-08-09T09:47:05Z</time>
      </trkpt>
      <trkpt lat="44.12791" lon="3.86165">
        <ele>393.32</ele>
        <time>2013-08-09T09:47:06Z</time>
      </trkpt>
      <trkpt lat="44.12782" lon="3.86166">
        <ele>394.28</ele>
        <time>2013-08-09T09:47:07Z</time>
      </trkpt>
      <trkpt lat="44.12774" lon="3.86162">
        <ele>395.24</ele>
        <time>2013-08-09T09:47:08Z</time>
      </trkpt>
      <trkpt lat="44.12768" lon="3.86155">
        <ele>396.2</ele>
        <time>2013-08-09T09:47:09Z</time>
      </trkpt>
      <trkpt lat="44.1276" lon="3.86148">
        <ele>398.12</ele>
        <time>2013-08-09T09:47:10Z</time>
      </trkpt>
      <trkpt lat="44.12748" lon="3.86145">
        <ele>401.01</ele>
        <time>2013-08-09T09:47:11Z</time>
      </trkpt>
      <trkpt lat="44.12737" lon="3.86141">
        <ele>402.93</ele>
        <time>2013-08-09T09:47:12Z</time>
      </trkpt>
      <trkpt lat="44.12726" lon="3.86143">
        <ele>402.93</ele>
        <time>2013-08-09T09:47:13Z</time>
      </trkpt>
      <trkpt lat="44.12715" lon="3.86156">
        <ele>403.41</ele>
        <time>2013-08-09T09:47:14Z</time>
      </trkpt>
      <trkpt lat="44.12701" lon="3.86171">
        <ele>403.89</ele>
        <time>2013-08-09T09:47:15Z</time>
      </trkpt>
      <trkpt lat="44.12646" lon="3.86218">
        <ele>407.26</ele>
        <time>2013-08-09T09:47:19Z</time>
      </trkpt>
      <trkpt lat="44.1263" lon="3.86218">
        <ele>407.74</ele>
        <time>2013-08-09T09:47:20Z</time>
      </trkpt>
      <trkpt lat="44.12617" lon="3.86215">
        <ele>409.18</ele>
        <time>2013-08-09T09:47:21Z</time>
      </trkpt>
      <trkpt lat="44.12605" lon="3.86208">
        <ele>410.14</ele>
        <time>2013-08-09T09:47:22Z</time>
      </trkpt>
      <trkpt lat="44.12595" lon="3.86192">
        <ele>411.58</ele>
        <time>2013-08-09T09:47:23Z</time>
      </trkpt>
      <trkpt lat="44.12583" lon="3.86171">
        <ele>412.54</ele>
        <time>2013-08-09T09:47:24Z</time>
      </trkpt>
      <trkpt lat="44.12569" lon="3.86152">
        <ele>413.02</ele>
        <time>2013-08-09T09:47:25Z</time>
      </trkpt>
      <trkpt lat="44.12538" lon="3.86117">
        <ele>415.91</ele>
        <time>2013-08-09T09:47:27Z</time>
      </trkpt>
      <trkpt lat="44.1252" lon="3.86103">
        <ele>417.35</ele>
        <time>2013-08-09T09:47:28Z</time>
      </trkpt>
      <trkpt lat="44.125" lon="3.86091">
        <ele>418.79</ele>
        <time>2013-08-09T09:47:29Z</time>
      </trkpt>
      <trkpt lat="44.12394" lon="3.86048">
        <ele>425.04</ele>
        <time>2013-08-09T09:47:35Z</time>
      </trkpt>
      <trkpt lat="44.12381" lon="3.86038">
        <ele>425.52</ele>
        <time>2013-08-09T09:47:36Z</time>
      </trkpt>
      <trkpt lat="44.12368" lon="3.86024">
        <ele>426.96</ele>
        <time>2013-08-09T09:47:37Z</time>
      </trkpt>
      <trkpt lat="44.12359" lon="3.86007">
        <ele>428.89</ele>
        <time>2013-08-09T09:47:38Z</time>
      </trkpt>
      <trkpt lat="44.12352" lon="3.85985">
        <ele>430.33</ele>
        <time>2013-08-09T09:47:39Z</time>
      </trkpt>
      <trkpt lat="44.12343" lon="3.85965">
        <ele>431.29</ele>
        <time>2013-08-09T09:47:40Z</time>
      </trkpt>
      <trkpt lat="44.1233" lon="3.85949">
        <ele>432.73</ele>
        <time>2013-08-09T09:47:41Z</time>
      </trkpt>
      <trkpt lat="44.12314" lon="3.85934">
        <ele>433.69</ele>
        <time>2013-08-09T09:47:42Z</time>
      </trkpt>
      <trkpt lat="44.12295" lon="3.85923">
        <ele>435.13</ele>
        <time>2013-08-09T09:47:43Z</time>
      </trkpt>
      <trkpt lat="44.12275" lon="3.85916">
        <ele>436.1</ele>
        <time>2013-08-09T09:47:44Z</time>
      </trkpt>
      <trkpt lat="44.12256" lon="3.85915">
        <ele>437.54</ele>
        <time>2013-08-09T09:47:45Z</time>
      </trkpt>
      <trkpt lat="44.12238" lon="3.85915">
        <ele>438.5</ele>
        <time>2013-08-09T09:47:46Z</time>
      </trkpt>
      <trkpt lat="44.12183" lon="3.85896">
        <ele>442.34</ele>
        <time>2013-08-09T09:47:50Z</time>
      </trkpt>
      <trkpt lat="44.12175" lon="3.85875">
        <ele>443.79</ele>
        <time>2013-08-09T09:47:51Z</time>
      </trkpt>
      <trkpt lat="44.12167" lon="3.85855">
        <ele>445.71</ele>
        <time>2013-08-09T09:47:52Z</time>
      </trkpt>
      <trkpt lat="44.12127" lon="3.85748">
        <ele>452.44</ele>
        <time>2013-08-09T09:47:57Z</time>
      </trkpt>
      <trkpt lat="44.12124" lon="3.85725">
        <ele>453.4</ele>
        <time>2013-08-09T09:47:58Z</time>
      </trkpt>
      <trkpt lat="44.12123" lon="3.85701">
        <ele>454.36</ele>
        <time>2013-08-09T09:47:59Z</time>
      </trkpt>
      <trkpt lat="44.12124" lon="3.85678">
        <ele>455.32</ele>
        <time>2013-08-09T09:48:00Z</time>
      </trkpt>
      <trkpt lat="44.12127" lon="3.85658">
        <ele>457.24</ele>
        <time>2013-08-09T09:48:01Z</time>
      </trkpt>
      <trkpt lat="44.12136" lon="3.8564">
        <ele>458.69</ele>
        <time>2013-08-09T09:48:02Z</time>
      </trkpt>
      <trkpt lat="44.12148" lon="3.85626">
        <ele>460.13</ele>
        <time>2013-08-09T09:48:03Z</time>
      </trkpt>
      <trkpt lat="44.1216" lon="3.85615">
        <ele>462.05</ele>
        <time>2013-08-09T09:48:04Z</time>
      </trkpt>
      <trkpt lat="44.12173" lon="3.85607">
        <ele>463.49</ele>
        <time>2013-08-09T09:48:05Z</time>
      </trkpt>
      <trkpt lat="44.1219" lon="3.85603">
        <ele>465.42</ele>
        <time>2013-08-09T09:48:06Z</time>
      </trkpt>
      <trkpt lat="44.1221" lon="3.85602">
        <ele>466.86</ele>
        <time>2013-08-09T09:48:07Z</time>
      </trkpt>
      <trkpt lat="44.12232" lon="3.85601">
        <ele>468.78</ele>
        <time>2013-08-09T09:48:08Z</time>
      </trkpt>
      <trkpt lat="44.12253" lon="3.85601">
        <ele>470.22</ele>
        <time>2013-08-09T09:48:09Z</time>
      </trkpt>
      <trkpt lat="44.12366" lon="3.85592">
        <ele>479.84</ele>
        <time>2013-08-09T09:48:15Z</time>
      </trkpt>
      <trkpt lat="44.12382" lon="3.85585">
        <ele>480.32</ele>
        <time>2013-08-09T09:48:16Z</time>
      </trkpt>
      <trkpt lat="44.12397" lon="3.85574">
        <ele>481.28</ele>
        <time>2013-08-09T09:48:17Z</time>
      </trkpt>
      <trkpt lat="44.12409" lon="3.85561">
        <ele>482.24</ele>
        <time>2013-08-09T09:48:18Z</time>
      </trkpt>
      <trkpt lat="44.12418" lon="3.85548">
        <ele>482.72</ele>
        <time>2013-08-09T09:48:19Z</time>
      </trkpt>
      <trkpt lat="44.12427" lon="3.85538">
        <ele>483.68</ele>
        <time>2013-08-09T09:48:20Z</time>
      </trkpt>
      <trkpt lat="44.12437" lon="3.85531">
        <ele>484.16</ele>
        <time>2013-08-09T09:48:21Z</time>
      </trkpt>
      <trkpt lat="44.12448" lon="3.85528">
        <ele>484.64</ele>
        <time>2013-08-09T09:48:22Z</time>
      </trkpt>
      <trkpt lat="44.1246" lon="3.8553">
        <ele>485.6</ele>
        <time>2013-08-09T09:48:23Z</time>
      </trkpt>
      <trkpt lat="44.12473" lon="3.85535">
        <ele>486.56</ele>
        <time>2013-08-09T09:48:24Z</time>
      </trkpt>
      <trkpt lat="44.12486" lon="3.85541">
        <ele>487.53</ele>
        <time>2013-08-09T09:48:25Z</time>
      </trkpt>
      <trkpt lat="44.12512" lon="3.85549">
        <ele>489.45</ele>
        <time>2013-08-09T09:48:27Z</time>
      </trkpt>
      <trkpt lat="44.12526" lon="3.85551">
        <ele>489.93</ele>
        <time>2013-08-09T09:48:28Z</time>
      </trkpt>
      <trkpt lat="44.1254" lon="3.85551">
        <ele>490.89</ele>
        <time>2013-08-09T09:48:29Z</time>
      </trkpt>
      <trkpt lat="44.12553" lon="3.85549">
        <ele>491.85</ele>
        <time>2013-08-09T09:48:30Z</time>
      </trkpt>
      <trkpt lat="44.12568" lon="3.85545">
        <ele>492.81</ele>
        <time>2013-08-09T09:48:31Z</time>
      </trkpt>
      <trkpt lat="44.12583" lon="3.85539">
        <ele>493.29</ele>
        <time>2013-08-09T09:48:32Z</time>
      </trkpt>
      <trkpt lat="44.12599" lon="3.85529">
        <ele>494.26</ele>
        <time>2013-08-09T09:48:33Z</time>
      </trkpt>
      <trkpt lat="44.12617" lon="3.85513">
        <ele>495.22</ele>
        <time>2013-08-09T09:48:34Z</time>
      </trkpt>
      <trkpt lat="44.12635" lon="3.85494">
        <ele>496.18</ele>
        <time>2013-08-09T09:48:35Z</time>
      </trkpt>
      <trkpt lat="44.12653" lon="3.85475">
        <ele>496.66</ele>
        <time>2013-08-09T09:48:36Z</time>
      </trkpt>
      <trkpt lat="44.12701" lon="3.85432">
        <ele>499.54</ele>
        <time>2013-08-09T09:48:39Z</time>
      </trkpt>
      <trkpt lat="44.12719" lon="3.85422">
        <ele>500.5</ele>
        <time>2013-08-09T09:48:40Z</time>
      </trkpt>
      <trkpt lat="44.12738" lon="3.85414">
        <ele>501.46</ele>
        <time>2013-08-09T09:48:41Z</time>
      </trkpt>
      <trkpt lat="44.1279" lon="3.85387">
        <ele>504.35</ele>
        <time>2013-08-09T09:48:44Z</time>
      </trkpt>
      <trkpt lat="44.12803" lon="3.85374">
        <ele>504.83</ele>
        <time>2013-08-09T09:48:45Z</time>
      </trkpt>
      <trkpt lat="44.12815" lon="3.85361">
        <ele>505.79</ele>
        <time>2013-08-09T09:48:46Z</time>
      </trkpt>
      <trkpt lat="44.12836" lon="3.85336">
        <ele>507.71</ele>
        <time>2013-08-09T09:48:48Z</time>
      </trkpt>
      <trkpt lat="44.12849" lon="3.85327">
        <ele>508.19</ele>
        <time>2013-08-09T09:48:49Z</time>
      </trkpt>
      <trkpt lat="44.12863" lon="3.85321">
        <ele>509.16</ele>
        <time>2013-08-09T09:48:50Z</time>
      </trkpt>
      <trkpt lat="44.12877" lon="3.85321">
        <ele>509.64</ele>
        <time>2013-08-09T09:48:51Z</time>
      </trkpt>
      <trkpt lat="44.12893" lon="3.85326">
        <ele>510.6</ele>
        <time>2013-08-09T09:48:52Z</time>
      </trkpt>
      <trkpt lat="44.12908" lon="3.85335">
        <ele>511.08</ele>
        <time>2013-08-09T09:48:53Z</time>
      </trkpt>
      <trkpt lat="44.12922" lon="3.85343">
        <ele>512.52</ele>
        <time>2013-08-09T09:48:54Z</time>
      </trkpt>
      <trkpt lat="44.12935" lon="3.8535">
        <ele>513.48</ele>
        <time>2013-08-09T09:48:55Z</time>
      </trkpt>
      <trkpt lat="44.12948" lon="3.85354">
        <ele>514.44</ele>
        <time>2013-08-09T09:48:56Z</time>
      </trkpt>
      <trkpt lat="44.12961" lon="3.85352">
        <ele>514.92</ele>
        <time>2013-08-09T09:48:57Z</time>
      </trkpt>
      <trkpt lat="44.12973" lon="3.85346">
        <ele>515.4</ele>
        <time>2013-08-09T09:48:58Z</time>
      </trkpt>
      <trkpt lat="44.12984" lon="3.85332">
        <ele>515.4</ele>
        <time>2013-08-09T09:48:59Z</time>
      </trkpt>
      <trkpt lat="44.12994" lon="3.85317">
        <ele>516.37</ele>
        <time>2013-08-09T09:49:00Z</time>
      </trkpt>
      <trkpt lat="44.13002" lon="3.85298">
        <ele>516.85</ele>
        <time>2013-08-09T09:49:01Z</time>
      </trkpt>
      <trkpt lat="44.13008" lon="3.85279">
        <ele>517.33</ele>
        <time>2013-08-09T09:49:02Z</time>
      </trkpt>
      <trkpt lat="44.13013" lon="3.85261">
        <ele>517.81</ele>
        <time>2013-08-09T09:49:03Z</time>
      </trkpt>
      <trkpt lat="44.13015" lon="3.85243">
        <ele>518.77</ele>
        <time>2013-08-09T09:49:04Z</time>
      </trkpt>
      <trkpt lat="44.13016" lon="3.85226">
        <ele>519.25</ele>
        <time>2013-08-09T09:49:05Z</time>
      </trkpt>
      <trkpt lat="44.13018" lon="3.85209">
        <ele>520.21</ele>
        <time>2013-08-09T09:49:06Z</time>
      </trkpt>
      <trkpt lat="44.13023" lon="3.85194">
        <ele>520.69</ele>
        <time>2013-08-09T09:49:07Z</time>
      </trkpt>
      <trkpt lat="44.13031" lon="3.85181">
        <ele>521.65</ele>
        <time>2013-08-09T09:49:08Z</time>
      </trkpt>
      <trkpt lat="44.13042" lon="3.8517">
        <ele>522.61</ele>
        <time>2013-08-09T09:49:09Z</time>
      </trkpt>
      <trkpt lat="44.13055" lon="3.85163">
        <ele>523.09</ele>
        <time>2013-08-09T09:49:10Z</time>
      </trkpt>
      <trkpt lat="44.13071" lon="3.85157">
        <ele>524.06</ele>
        <time>2013-08-09T09:49:11Z</time>
      </trkpt>
      <trkpt lat="44.13091" lon="3.85148">
        <ele>525.02</ele>
        <time>2013-08-09T09:49:12Z</time>
      </trkpt>
      <trkpt lat="44.13113" lon="3.85132">
        <ele>525.98</ele>
        <time>2013-08-09T09:49:13Z</time>
      </trkpt>
      <trkpt lat="44.13195" lon="3.85065">
        <ele>531.75</ele>
        <time>2013-08-09T09:49:18Z</time>
      </trkpt>
      <trkpt lat="44.13201" lon="3.85051">
        <ele>532.71</ele>
        <time>2013-08-09T09:49:19Z</time>
      </trkpt>
      <trkpt lat="44.13203" lon="3.85036">
        <ele>533.67</ele>
        <time>2013-08-09T09:49:20Z</time>
      </trkpt>
      <trkpt lat="44.132" lon="3.85019">
        <ele>535.11</ele>
        <time>2013-08-09T09:49:21Z</time>
      </trkpt>
      <trkpt lat="44.13195" lon="3.85002">
        <ele>536.07</ele>
        <time>2013-08-09T09:49:22Z</time>
      </trkpt>
      <trkpt lat="44.1319" lon="3.84984">
        <ele>536.55</ele>
        <time>2013-08-09T09:49:23Z</time>
      </trkpt>
      <trkpt lat="44.13187" lon="3.84964">
        <ele>537.99</ele>
        <time>2013-08-09T09:49:24Z</time>
      </trkpt>
      <trkpt lat="44.1319" lon="3.84943">
        <ele>538.48</ele>
        <time>2013-08-09T09:49:25Z</time>
      </trkpt>
      <trkpt lat="44.13198" lon="3.84923">
        <ele>539.44</ele>
        <time>2013-08-09T09:49:26Z</time>
      </trkpt>
      <trkpt lat="44.1321" lon="3.84902">
        <ele>539.92</ele>
        <time>2013-08-09T09:49:27Z</time>
      </trkpt>
      <trkpt lat="44.13224" lon="3.84881">
        <ele>541.36</ele>
        <time>2013-08-09T09:49:28Z</time>
      </trkpt>
      <trkpt lat="44.13239" lon="3.84859">
        <ele>542.8</ele>
        <time>2013-08-09T09:49:29Z</time>
      </trkpt>
      <trkpt lat="44.13324" lon="3.84748">
        <ele>550.01</ele>
        <time>2013-08-09T09:49:35Z</time>
      </trkpt>
      <trkpt lat="44.13333" lon="3.84729">
        <ele>551.45</ele>
        <time>2013-08-09T09:49:36Z</time>
      </trkpt>
      <trkpt lat="44.13341" lon="3.84711">
        <ele>552.41</ele>
        <time>2013-08-09T09:49:37Z</time>
      </trkpt>
      <trkpt lat="44.13347" lon="3.84697">
        <ele>552.9</ele>
        <time>2013-08-09T09:49:38Z</time>
      </trkpt>
      <trkpt lat="44.13354" lon="3.84686">
        <ele>553.86</ele>
        <time>2013-08-09T09:49:39Z</time>
      </trkpt>
      <trkpt lat="44.13363" lon="3.84682">
        <ele>555.3</ele>
        <time>2013-08-09T09:49:40Z</time>
      </trkpt>
      <trkpt lat="44.13376" lon="3.84681">
        <ele>556.26</ele>
        <time>2013-08-09T09:49:41Z</time>
      </trkpt>
      <trkpt lat="44.13392" lon="3.84682">
        <ele>557.7</ele>
        <time>2013-08-09T09:49:42Z</time>
      </trkpt>
      <trkpt lat="44.1341" lon="3.84682">
        <ele>559.14</ele>
        <time>2013-08-09T09:49:43Z</time>
      </trkpt>
      <trkpt lat="44.13427" lon="3.84679">
        <ele>560.11</ele>
        <time>2013-08-09T09:49:44Z</time>
      </trkpt>
      <trkpt lat="44.13443" lon="3.84674">
        <ele>561.07</ele>
        <time>2013-08-09T09:49:45Z</time>
      </trkpt>
      <trkpt lat="44.13456" lon="3.84669">
        <ele>562.03</ele>
        <time>2013-08-09T09:49:46Z</time>
      </trkpt>
      <trkpt lat="44.13467" lon="3.84661">
        <ele>562.51</ele>
        <time>2013-08-09T09:49:47Z</time>
      </trkpt>
      <trkpt lat="44.13472" lon="3.84649">
        <ele>563.47</ele>
        <time>2013-08-09T09:49:48Z</time>
      </trkpt>
      <trkpt lat="44.13472" lon="3.84634">
        <ele>563.95</ele>
        <time>2013-08-09T09:49:49Z</time>
      </trkpt>
      <trkpt lat="44.1347" lon="3.84618">
        <ele>564.43</ele>
        <time>2013-08-09T09:49:50Z</time>
      </trkpt>
      <trkpt lat="44.13469" lon="3.846">
        <ele>565.39</ele>
        <time>2013-08-09T09:49:51Z</time>
      </trkpt>
      <trkpt lat="44.1347" lon="3.84579">
        <ele>566.35</ele>
        <time>2013-08-09T09:49:52Z</time>
      </trkpt>
      <trkpt lat="44.13474" lon="3.84556">
        <ele>567.32</ele>
        <time>2013-08-09T09:49:53Z</time>
      </trkpt>
      <trkpt lat="44.13478" lon="3.84533">
        <ele>568.28</ele>
        <time>2013-08-09T09:49:54Z</time>
      </trkpt>
      <trkpt lat="44.1348" lon="3.84511">
        <ele>569.24</ele>
        <time>2013-08-09T09:49:55Z</time>
      </trkpt>
      <trkpt lat="44.13479" lon="3.84492">
        <ele>569.72</ele>
        <time>2013-08-09T09:49:56Z</time>
      </trkpt>
      <trkpt lat="44.13474" lon="3.84477">
        <ele>570.2</ele>
        <time>2013-08-09T09:49:57Z</time>
      </trkpt>
      <trkpt lat="44.13467" lon="3.84464">
        <ele>570.2</ele>
        <time>2013-08-09T09:49:58Z</time>
      </trkpt>
      <trkpt lat="44.13455" lon="3.84454">
        <ele>570.68</ele>
        <time>2013-08-09T09:49:59Z</time>
      </trkpt>
      <trkpt lat="44.13443" lon="3.84445">
        <ele>571.64</ele>
        <time>2013-08-09T09:50:00Z</time>
      </trkpt>
      <trkpt lat="44.13431" lon="3.84436">
        <ele>572.6</ele>
        <time>2013-08-09T09:50:01Z</time>
      </trkpt>
      <trkpt lat="44.13421" lon="3.84427">
        <ele>572.6</ele>
        <time>2013-08-09T09:50:02Z</time>
      </trkpt>
      <trkpt lat="44.13415" lon="3.84416">
        <ele>573.56</ele>
        <time>2013-08-09T09:50:03Z</time>
      </trkpt>
      <trkpt lat="44.13414" lon="3.84402">
        <ele>574.04</ele>
        <time>2013-08-09T09:50:04Z</time>
      </trkpt>
      <trkpt lat="44.1342" lon="3.84389">
        <ele>575.97</ele>
        <time>2013-08-09T09:50:05Z</time>
      </trkpt>
      <trkpt lat="44.1343" lon="3.84375">
        <ele>576.93</ele>
        <time>2013-08-09T09:50:06Z</time>
      </trkpt>
      <trkpt lat="44.13442" lon="3.84358">
        <ele>578.37</ele>
        <time>2013-08-09T09:50:07Z</time>
      </trkpt>
      <trkpt lat="44.13457" lon="3.84339">
        <ele>579.81</ele>
        <time>2013-08-09T09:50:08Z</time>
      </trkpt>
      <trkpt lat="44.13509" lon="3.84268">
        <ele>585.1</ele>
        <time>2013-08-09T09:50:12Z</time>
      </trkpt>
      <trkpt lat="44.13515" lon="3.84247">
        <ele>586.06</ele>
        <time>2013-08-09T09:50:13Z</time>
      </trkpt>
      <trkpt lat="44.13517" lon="3.84223">
        <ele>587.02</ele>
        <time>2013-08-09T09:50:14Z</time>
      </trkpt>
      <trkpt lat="44.13516" lon="3.84196">
        <ele>589.43</ele>
        <time>2013-08-09T09:50:15Z</time>
      </trkpt>
      <trkpt lat="44.13512" lon="3.84169">
        <ele>591.35</ele>
        <time>2013-08-09T09:50:16Z</time>
      </trkpt>
      <trkpt lat="44.13507" lon="3.84145">
        <ele>592.79</ele>
        <time>2013-08-09T09:50:17Z</time>
      </trkpt>
      <trkpt lat="44.13501" lon="3.84119">
        <ele>594.23</ele>
        <time>2013-08-09T09:50:18Z</time>
      </trkpt>
      <trkpt lat="44.13496" lon="3.84092">
        <ele>595.19</ele>
        <time>2013-08-09T09:50:19Z</time>
      </trkpt>
      <trkpt lat="44.13494" lon="3.84064">
        <ele>596.15</ele>
        <time>2013-08-09T09:50:20Z</time>
      </trkpt>
      <trkpt lat="44.13495" lon="3.84037">
        <ele>597.6</ele>
        <time>2013-08-09T09:50:21Z</time>
      </trkpt>
      <trkpt lat="44.13497" lon="3.84013">
        <ele>598.56</ele>
        <time>2013-08-09T09:50:22Z</time>
      </trkpt>
      <trkpt lat="44.1351" lon="3.83875">
        <ele>603.85</ele>
        <time>2013-08-09T09:50:29Z</time>
      </trkpt>
      <trkpt lat="44.13515" lon="3.83857">
        <ele>602.88</ele>
        <time>2013-08-09T09:50:30Z</time>
      </trkpt>
      <trkpt lat="44.13521" lon="3.8384">
        <ele>602.88</ele>
        <time>2013-08-09T09:50:31Z</time>
      </trkpt>
      <trkpt lat="44.1353" lon="3.83824">
        <ele>603.36</ele>
        <time>2013-08-09T09:50:32Z</time>
      </trkpt>
      <trkpt lat="44.13539" lon="3.83807">
        <ele>602.88</ele>
        <time>2013-08-09T09:50:33Z</time>
      </trkpt>
      <trkpt lat="44.13573" lon="3.8373">
        <ele>604.81</ele>
        <time>2013-08-09T09:50:37Z</time>
      </trkpt>
      <trkpt lat="44.13579" lon="3.83706">
        <ele>604.33</ele>
        <time>2013-08-09T09:50:38Z</time>
      </trkpt>
      <trkpt lat="44.13612" lon="3.83563">
        <ele>597.6</ele>
        <time>2013-08-09T09:50:44Z</time>
      </trkpt>
      <trkpt lat="44.13623" lon="3.83541">
        <ele>596.15</ele>
        <time>2013-08-09T09:50:45Z</time>
      </trkpt>
      <trkpt lat="44.13635" lon="3.8352">
        <ele>594.71</ele>
        <time>2013-08-09T09:50:46Z</time>
      </trkpt>
      <trkpt lat="44.13648" lon="3.835">
        <ele>593.27</ele>
        <time>2013-08-09T09:50:47Z</time>
      </trkpt>
      <trkpt lat="44.13663" lon="3.83481">
        <ele>592.31</ele>
        <time>2013-08-09T09:50:48Z</time>
      </trkpt>
      <trkpt lat="44.13679" lon="3.83463">
        <ele>591.83</ele>
        <time>2013-08-09T09:50:49Z</time>
      </trkpt>
      <trkpt lat="44.13751" lon="3.83392">
        <ele>588.46</ele>
        <time>2013-08-09T09:50:54Z</time>
      </trkpt>
      <trkpt lat="44.13764" lon="3.8339">
        <ele>587.98</ele>
        <time>2013-08-09T09:50:55Z</time>
      </trkpt>
      <trkpt lat="44.13778" lon="3.83393">
        <ele>588.46</ele>
        <time>2013-08-09T09:50:56Z</time>
      </trkpt>
      <trkpt lat="44.13793" lon="3.83401">
        <ele>587.5</ele>
        <time>2013-08-09T09:50:57Z</time>
      </trkpt>
      <trkpt lat="44.13807" lon="3.83409">
        <ele>587.5</ele>
        <time>2013-08-09T09:50:58Z</time>
      </trkpt>
      <trkpt lat="44.1382" lon="3.83412">
        <ele>587.5</ele>
        <time>2013-08-09T09:50:59Z</time>
      </trkpt>
      <trkpt lat="44.13834" lon="3.83412">
        <ele>587.5</ele>
        <time>2013-08-09T09:51:00Z</time>
      </trkpt>
      <trkpt lat="44.1385" lon="3.83408">
        <ele>587.5</ele>
        <time>2013-08-09T09:51:01Z</time>
      </trkpt>
      <trkpt lat="44.13865" lon="3.83399">
        <ele>587.98</ele>
        <time>2013-08-09T09:51:02Z</time>
      </trkpt>
      <trkpt lat="44.13881" lon="3.83387">
        <ele>588.46</ele>
        <time>2013-08-09T09:51:03Z</time>
      </trkpt>
      <trkpt lat="44.13896" lon="3.83376">
        <ele>589.43</ele>
        <time>2013-08-09T09:51:04Z</time>
      </trkpt>
      <trkpt lat="44.13971" lon="3.83336">
        <ele>591.35</ele>
        <time>2013-08-09T09:51:09Z</time>
      </trkpt>
      <trkpt lat="44.13982" lon="3.83323">
        <ele>590.87</ele>
        <time>2013-08-09T09:51:10Z</time>
      </trkpt>
      <trkpt lat="44.13984" lon="3.83305">
        <ele>591.35</ele>
        <time>2013-08-09T09:51:11Z</time>
      </trkpt>
      <trkpt lat="44.13985" lon="3.83286">
        <ele>590.87</ele>
        <time>2013-08-09T09:51:12Z</time>
      </trkpt>
      <trkpt lat="44.13979" lon="3.83265">
        <ele>589.43</ele>
        <time>2013-08-09T09:51:13Z</time>
      </trkpt>
      <trkpt lat="44.13969" lon="3.83248">
        <ele>589.43</ele>
        <time>2013-08-09T09:51:14Z</time>
      </trkpt>
      <trkpt lat="44.13955" lon="3.83231">
        <ele>587.5</ele>
        <time>2013-08-09T09:51:15Z</time>
      </trkpt>
      <trkpt lat="44.13939" lon="3.83215">
        <ele>587.98</ele>
        <time>2013-08-09T09:51:16Z</time>
      </trkpt>
      <trkpt lat="44.13921" lon="3.83198">
        <ele>588.95</ele>
        <time>2013-08-09T09:51:17Z</time>
      </trkpt>
      <trkpt lat="44.13903" lon="3.83185">
        <ele>589.91</ele>
        <time>2013-08-09T09:51:18Z</time>
      </trkpt>
      <trkpt lat="44.13886" lon="3.83172">
        <ele>590.39</ele>
        <time>2013-08-09T09:51:19Z</time>
      </trkpt>
      <trkpt lat="44.13847" lon="3.83131">
        <ele>589.91</ele>
        <time>2013-08-09T09:51:22Z</time>
      </trkpt>
      <trkpt lat="44.1384" lon="3.83114">
        <ele>589.91</ele>
        <time>2013-08-09T09:51:23Z</time>
      </trkpt>
      <trkpt lat="44.1384" lon="3.83092">
        <ele>589.91</ele>
        <time>2013-08-09T09:51:24Z</time>
      </trkpt>
      <trkpt lat="44.13836" lon="3.83068">
        <ele>588.95</ele>
        <time>2013-08-09T09:51:25Z</time>
      </trkpt>
      <trkpt lat="44.13837" lon="3.83045">
        <ele>587.02</ele>
        <time>2013-08-09T09:51:26Z</time>
      </trkpt>
      <trkpt lat="44.13837" lon="3.8302">
        <ele>587.02</ele>
        <time>2013-08-09T09:51:27Z</time>
      </trkpt>
      <trkpt lat="44.13796" lon="3.82857">
        <ele>589.91</ele>
        <time>2013-08-09T09:51:33Z</time>
      </trkpt>
      <trkpt lat="44.1372" lon="3.82631">
        <ele>594.71</ele>
        <time>2013-08-09T09:51:42Z</time>
      </trkpt>
      <trkpt lat="44.13719" lon="3.82606">
        <ele>595.19</ele>
        <time>2013-08-09T09:51:43Z</time>
      </trkpt>
      <trkpt lat="44.1372" lon="3.8258">
        <ele>596.15</ele>
        <time>2013-08-09T09:51:44Z</time>
      </trkpt>
      <trkpt lat="44.13727" lon="3.82553">
        <ele>597.6</ele>
        <time>2013-08-09T09:51:45Z</time>
      </trkpt>
      <trkpt lat="44.13735" lon="3.82526">
        <ele>598.08</ele>
        <time>2013-08-09T09:51:46Z</time>
      </trkpt>
      <trkpt lat="44.13741" lon="3.82497">
        <ele>599.52</ele>
        <time>2013-08-09T09:51:47Z</time>
      </trkpt>
      <trkpt lat="44.13797" lon="3.82259">
        <ele>612.5</ele>
        <time>2013-08-09T09:51:56Z</time>
      </trkpt>
      <trkpt lat="44.13799" lon="3.82239">
        <ele>613.46</ele>
        <time>2013-08-09T09:51:57Z</time>
      </trkpt>
      <trkpt lat="44.13796" lon="3.82221">
        <ele>614.42</ele>
        <time>2013-08-09T09:51:58Z</time>
      </trkpt>
      <trkpt lat="44.13787" lon="3.82203">
        <ele>615.38</ele>
        <time>2013-08-09T09:51:59Z</time>
      </trkpt>
      <trkpt lat="44.13774" lon="3.82187">
        <ele>615.38</ele>
        <time>2013-08-09T09:52:00Z</time>
      </trkpt>
      <trkpt lat="44.13757" lon="3.8218">
        <ele>614.9</ele>
        <time>2013-08-09T09:52:01Z</time>
      </trkpt>
      <trkpt lat="44.13738" lon="3.82172">
        <ele>616.34</ele>
        <time>2013-08-09T09:52:02Z</time>
      </trkpt>
      <trkpt lat="44.13718" lon="3.82171">
        <ele>616.82</ele>
        <time>2013-08-09T09:52:03Z</time>
      </trkpt>
      <trkpt lat="44.13697" lon="3.82166">
        <ele>617.78</ele>
        <time>2013-08-09T09:52:04Z</time>
      </trkpt>
      <trkpt lat="44.1353" lon="3.82089">
        <ele>626.92</ele>
        <time>2013-08-09T09:52:12Z</time>
      </trkpt>
      <trkpt lat="44.13512" lon="3.82066">
        <ele>627.4</ele>
        <time>2013-08-09T09:52:13Z</time>
      </trkpt>
      <trkpt lat="44.13333" lon="3.81838">
        <ele>637.01</ele>
        <time>2013-08-09T09:52:23Z</time>
      </trkpt>
      <trkpt lat="44.13322" lon="3.8181">
        <ele>636.53</ele>
        <time>2013-08-09T09:52:24Z</time>
      </trkpt>
      <trkpt lat="44.13313" lon="3.81781">
        <ele>636.53</ele>
        <time>2013-08-09T09:52:25Z</time>
      </trkpt>
      <trkpt lat="44.13306" lon="3.8175">
        <ele>636.53</ele>
        <time>2013-08-09T09:52:26Z</time>
      </trkpt>
      <trkpt lat="44.13246" lon="3.81484">
        <ele>636.53</ele>
        <time>2013-08-09T09:52:35Z</time>
      </trkpt>
      <trkpt lat="44.13213" lon="3.81399">
        <ele>636.53</ele>
        <time>2013-08-09T09:52:39Z</time>
      </trkpt>
      <trkpt lat="44.13201" lon="3.81382">
        <ele>637.01</ele>
        <time>2013-08-09T09:52:40Z</time>
      </trkpt>
      <trkpt lat="44.13186" lon="3.81367">
        <ele>637.01</ele>
        <time>2013-08-09T09:52:41Z</time>
      </trkpt>
      <trkpt lat="44.13139" lon="3.81315">
        <ele>637.49</ele>
        <time>2013-08-09T09:52:44Z</time>
      </trkpt>
      <trkpt lat="44.13128" lon="3.8129">
        <ele>637.97</ele>
        <time>2013-08-09T09:52:45Z</time>
      </trkpt>
      <trkpt lat="44.13118" lon="3.81262">
        <ele>638.45</ele>
        <time>2013-08-09T09:52:46Z</time>
      </trkpt>
      <trkpt lat="44.13111" lon="3.81235">
        <ele>638.45</ele>
        <time>2013-08-09T09:52:47Z</time>
      </trkpt>
      <trkpt lat="44.13103" lon="3.81208">
        <ele>638.93</ele>
        <time>2013-08-09T09:52:48Z</time>
      </trkpt>
      <trkpt lat="44.13084" lon="3.81164">
        <ele>639.89</ele>
        <time>2013-08-09T09:52:50Z</time>
      </trkpt>
      <trkpt lat="44.13072" lon="3.81146">
        <ele>640.38</ele>
        <time>2013-08-09T09:52:51Z</time>
      </trkpt>
      <trkpt lat="44.13042" lon="3.81067">
        <ele>642.78</ele>
        <time>2013-08-09T09:52:55Z</time>
      </trkpt>
      <trkpt lat="44.13045" lon="3.81041">
        <ele>643.74</ele>
        <time>2013-08-09T09:52:56Z</time>
      </trkpt>
      <trkpt lat="44.1305" lon="3.81014">
        <ele>644.22</ele>
        <time>2013-08-09T09:52:57Z</time>
      </trkpt>
      <trkpt lat="44.13059" lon="3.80987">
        <ele>645.18</ele>
        <time>2013-08-09T09:52:58Z</time>
      </trkpt>
      <trkpt lat="44.13068" lon="3.80962">
        <ele>645.66</ele>
        <time>2013-08-09T09:52:59Z</time>
      </trkpt>
      <trkpt lat="44.13075" lon="3.80939">
        <ele>645.66</ele>
        <time>2013-08-09T09:53:00Z</time>
      </trkpt>
      <trkpt lat="44.13087" lon="3.80893">
        <ele>645.18</ele>
        <time>2013-08-09T09:53:02Z</time>
      </trkpt>
      <trkpt lat="44.1309" lon="3.80869">
        <ele>645.18</ele>
        <time>2013-08-09T09:53:03Z</time>
      </trkpt>
      <trkpt lat="44.1309" lon="3.80844">
        <ele>645.18</ele>
        <time>2013-08-09T09:53:04Z</time>
      </trkpt>
      <trkpt lat="44.13083" lon="3.80793">
        <ele>644.22</ele>
        <time>2013-08-09T09:53:06Z</time>
      </trkpt>
      <trkpt lat="44.13075" lon="3.80769">
        <ele>643.26</ele>
        <time>2013-08-09T09:53:07Z</time>
      </trkpt>
      <trkpt lat="44.13063" lon="3.80748">
        <ele>643.26</ele>
        <time>2013-08-09T09:53:08Z</time>
      </trkpt>
      <trkpt lat="44.13048" lon="3.80727">
        <ele>642.78</ele>
        <time>2013-08-09T09:53:09Z</time>
      </trkpt>
      <trkpt lat="44.13031" lon="3.80707">
        <ele>642.78</ele>
        <time>2013-08-09T09:53:10Z</time>
      </trkpt>
      <trkpt lat="44.13017" lon="3.80685">
        <ele>642.78</ele>
        <time>2013-08-09T09:53:11Z</time>
      </trkpt>
      <trkpt lat="44.12982" lon="3.80616">
        <ele>641.34</ele>
        <time>2013-08-09T09:53:14Z</time>
      </trkpt>
      <trkpt lat="44.12974" lon="3.80589">
        <ele>640.86</ele>
        <time>2013-08-09T09:53:15Z</time>
      </trkpt>
      <trkpt lat="44.12969" lon="3.8056">
        <ele>640.38</ele>
        <time>2013-08-09T09:53:16Z</time>
      </trkpt>
      <trkpt lat="44.12963" lon="3.80532">
        <ele>639.89</ele>
        <time>2013-08-09T09:53:17Z</time>
      </trkpt>
      <trkpt lat="44.12956" lon="3.80503">
        <ele>639.89</ele>
        <time>2013-08-09T09:53:18Z</time>
      </trkpt>
      <trkpt lat="44.12945" lon="3.80411">
        <ele>639.89</ele>
        <time>2013-08-09T09:53:21Z</time>
      </trkpt>
      <trkpt lat="44.12918" lon="3.80235">
        <ele>638.45</ele>
        <time>2013-08-09T09:53:27Z</time>
      </trkpt>
      <trkpt lat="44.12904" lon="3.80148">
        <ele>637.49</ele>
        <time>2013-08-09T09:53:30Z</time>
      </trkpt>
      <trkpt lat="44.12904" lon="3.80117">
        <ele>637.01</ele>
        <time>2013-08-09T09:53:31Z</time>
      </trkpt>
      <trkpt lat="44.12908" lon="3.80084">
        <ele>636.53</ele>
        <time>2013-08-09T09:53:32Z</time>
      </trkpt>
      <trkpt lat="44.12915" lon="3.80052">
        <ele>636.53</ele>
        <time>2013-08-09T09:53:33Z</time>
      </trkpt>
      <trkpt lat="44.12927" lon="3.80022">
        <ele>636.05</ele>
        <time>2013-08-09T09:53:34Z</time>
      </trkpt>
      <trkpt lat="44.12938" lon="3.79991">
        <ele>636.53</ele>
        <time>2013-08-09T09:53:35Z</time>
      </trkpt>
      <trkpt lat="44.1295" lon="3.79961">
        <ele>637.49</ele>
        <time>2013-08-09T09:53:36Z</time>
      </trkpt>
      <trkpt lat="44.13022" lon="3.79724">
        <ele>641.34</ele>
        <time>2013-08-09T09:53:44Z</time>
      </trkpt>
      <trkpt lat="44.13043" lon="3.79668">
        <ele>641.34</ele>
        <time>2013-08-09T09:53:46Z</time>
      </trkpt>
      <trkpt lat="44.13056" lon="3.79641">
        <ele>641.34</ele>
        <time>2013-08-09T09:53:47Z</time>
      </trkpt>
      <trkpt lat="44.13069" lon="3.79614">
        <ele>642.3</ele>
        <time>2013-08-09T09:53:48Z</time>
      </trkpt>
      <trkpt lat="44.1308" lon="3.79586">
        <ele>642.3</ele>
        <time>2013-08-09T09:53:49Z</time>
      </trkpt>
      <trkpt lat="44.1309" lon="3.79557">
        <ele>642.3</ele>
        <time>2013-08-09T09:53:50Z</time>
      </trkpt>
      <trkpt lat="44.1313" lon="3.79483">
        <ele>641.34</ele>
        <time>2013-08-09T09:53:53Z</time>
      </trkpt>
      <trkpt lat="44.13148" lon="3.79467">
        <ele>641.34</ele>
        <time>2013-08-09T09:53:54Z</time>
      </trkpt>
      <trkpt lat="44.13167" lon="3.79454">
        <ele>641.34</ele>
        <time>2013-08-09T09:53:55Z</time>
      </trkpt>
      <trkpt lat="44.13184" lon="3.79442">
        <ele>641.34</ele>
        <time>2013-08-09T09:53:56Z</time>
      </trkpt>
      <trkpt lat="44.13199" lon="3.79428">
        <ele>641.82</ele>
        <time>2013-08-09T09:53:57Z</time>
      </trkpt>
      <trkpt lat="44.13211" lon="3.79411">
        <ele>642.3</ele>
        <time>2013-08-09T09:53:58Z</time>
      </trkpt>
      <trkpt lat="44.13222" lon="3.7939">
        <ele>642.3</ele>
        <time>2013-08-09T09:53:59Z</time>
      </trkpt>
      <trkpt lat="44.13232" lon="3.79366">
        <ele>640.38</ele>
        <time>2013-08-09T09:54:00Z</time>
      </trkpt>
      <trkpt lat="44.13238" lon="3.79334">
        <ele>639.89</ele>
        <time>2013-08-09T09:54:01Z</time>
      </trkpt>
      <trkpt lat="44.1324" lon="3.79298">
        <ele>639.41</ele>
        <time>2013-08-09T09:54:02Z</time>
      </trkpt>
      <trkpt lat="44.13241" lon="3.79261">
        <ele>639.41</ele>
        <time>2013-08-09T09:54:03Z</time>
      </trkpt>
      <trkpt lat="44.13244" lon="3.79224">
        <ele>638.93</ele>
        <time>2013-08-09T09:54:04Z</time>
      </trkpt>
      <trkpt lat="44.13247" lon="3.79186">
        <ele>638.93</ele>
        <time>2013-08-09T09:54:05Z</time>
      </trkpt>
      <trkpt lat="44.13248" lon="3.7915">
        <ele>641.34</ele>
        <time>2013-08-09T09:54:06Z</time>
      </trkpt>
      <trkpt lat="44.13273" lon="3.78966">
        <ele>643.74</ele>
        <time>2013-08-09T09:54:12Z</time>
      </trkpt>
      <trkpt lat="44.13283" lon="3.78941">
        <ele>644.7</ele>
        <time>2013-08-09T09:54:13Z</time>
      </trkpt>
      <trkpt lat="44.13295" lon="3.7892">
        <ele>644.7</ele>
        <time>2013-08-09T09:54:14Z</time>
      </trkpt>
      <trkpt lat="44.1331" lon="3.78904">
        <ele>644.7</ele>
        <time>2013-08-09T09:54:15Z</time>
      </trkpt>
      <trkpt lat="44.13326" lon="3.7889">
        <ele>644.22</ele>
        <time>2013-08-09T09:54:16Z</time>
      </trkpt>
      <trkpt lat="44.13343" lon="3.7888">
        <ele>644.22</ele>
        <time>2013-08-09T09:54:17Z</time>
      </trkpt>
      <trkpt lat="44.13359" lon="3.78868">
        <ele>645.18</ele>
        <time>2013-08-09T09:54:18Z</time>
      </trkpt>
      <trkpt lat="44.13413" lon="3.788">
        <ele>646.14</ele>
        <time>2013-08-09T09:54:21Z</time>
      </trkpt>
      <trkpt lat="44.13558" lon="3.78561">
        <ele>649.99</ele>
        <time>2013-08-09T09:54:30Z</time>
      </trkpt>
      <trkpt lat="44.13581" lon="3.78519">
        <ele>651.91</ele>
        <time>2013-08-09T09:54:32Z</time>
      </trkpt>
      <trkpt lat="44.13588" lon="3.78495">
        <ele>653.35</ele>
        <time>2013-08-09T09:54:33Z</time>
      </trkpt>
      <trkpt lat="44.13593" lon="3.78468">
        <ele>654.31</ele>
        <time>2013-08-09T09:54:34Z</time>
      </trkpt>
      <trkpt lat="44.13595" lon="3.7844">
        <ele>655.76</ele>
        <time>2013-08-09T09:54:35Z</time>
      </trkpt>
      <trkpt lat="44.13595" lon="3.78412">
        <ele>655.76</ele>
        <time>2013-08-09T09:54:36Z</time>
      </trkpt>
      <trkpt lat="44.13595" lon="3.78385">
        <ele>657.2</ele>
        <time>2013-08-09T09:54:37Z</time>
      </trkpt>
      <trkpt lat="44.13599" lon="3.78338">
        <ele>658.16</ele>
        <time>2013-08-09T09:54:39Z</time>
      </trkpt>
      <trkpt lat="44.13603" lon="3.78319">
        <ele>659.6</ele>
        <time>2013-08-09T09:54:40Z</time>
      </trkpt>
      <trkpt lat="44.13611" lon="3.78304">
        <ele>661.04</ele>
        <time>2013-08-09T09:54:41Z</time>
      </trkpt>
      <trkpt lat="44.13624" lon="3.78294">
        <ele>662.01</ele>
        <time>2013-08-09T09:54:42Z</time>
      </trkpt>
      <trkpt lat="44.1364" lon="3.78284">
        <ele>663.45</ele>
        <time>2013-08-09T09:54:43Z</time>
      </trkpt>
      <trkpt lat="44.13659" lon="3.78275">
        <ele>665.37</ele>
        <time>2013-08-09T09:54:44Z</time>
      </trkpt>
      <trkpt lat="44.13675" lon="3.78262">
        <ele>667.77</ele>
        <time>2013-08-09T09:54:45Z</time>
      </trkpt>
      <trkpt lat="44.13704" lon="3.78235">
        <ele>670.66</ele>
        <time>2013-08-09T09:54:47Z</time>
      </trkpt>
      <trkpt lat="44.13717" lon="3.78228">
        <ele>671.14</ele>
        <time>2013-08-09T09:54:48Z</time>
      </trkpt>
      <trkpt lat="44.13729" lon="3.78228">
        <ele>671.62</ele>
        <time>2013-08-09T09:54:49Z</time>
      </trkpt>
      <trkpt lat="44.1374" lon="3.78233">
        <ele>673.06</ele>
        <time>2013-08-09T09:54:50Z</time>
      </trkpt>
      <trkpt lat="44.1375" lon="3.78243">
        <ele>674.02</ele>
        <time>2013-08-09T09:54:51Z</time>
      </trkpt>
      <trkpt lat="44.1376" lon="3.78253">
        <ele>674.98</ele>
        <time>2013-08-09T09:54:52Z</time>
      </trkpt>
      <trkpt lat="44.13769" lon="3.78261">
        <ele>676.91</ele>
        <time>2013-08-09T09:54:53Z</time>
      </trkpt>
      <trkpt lat="44.13778" lon="3.78266">
        <ele>677.87</ele>
        <time>2013-08-09T09:54:54Z</time>
      </trkpt>
      <trkpt lat="44.13784" lon="3.78266">
        <ele>678.83</ele>
        <time>2013-08-09T09:54:55Z</time>
      </trkpt>
      <trkpt lat="44.13787" lon="3.78267">
        <ele>679.31</ele>
        <time>2013-08-09T09:54:56Z</time>
      </trkpt>
      <trkpt lat="44.13789" lon="3.78269">
        <ele>680.27</ele>
        <time>2013-08-09T09:54:57Z</time>
      </trkpt>
      <trkpt lat="44.13791" lon="3.7827">
        <ele>681.23</ele>
        <time>2013-08-09T09:54:58Z</time>
      </trkpt>
      <trkpt lat="44.13793" lon="3.7827">
        <ele>682.19</ele>
        <time>2013-08-09T09:55:04Z</time>
      </trkpt>
      <trkpt lat="44.13794" lon="3.78268">
        <ele>682.19</ele>
        <time>2013-08-09T09:55:05Z</time>
      </trkpt>
      <trkpt lat="44.13794" lon="3.78266">
        <ele>682.19</ele>
        <time>2013-08-09T09:55:06Z</time>
      </trkpt>
      <trkpt lat="44.13794" lon="3.78264">
        <ele>682.19</ele>
        <time>2013-08-09T09:55:07Z</time>
      </trkpt>
      <trkpt lat="44.13797" lon="3.78252">
        <ele>682.19</ele>
        <time>2013-08-09T09:55:11Z</time>
      </trkpt>
      <trkpt lat="44.13801" lon="3.78245">
        <ele>682.67</ele>
        <time>2013-08-09T09:55:12Z</time>
      </trkpt>
      <trkpt lat="44.1381" lon="3.78231">
        <ele>683.63</ele>
        <time>2013-08-09T09:55:13Z</time>
      </trkpt>
      <trkpt lat="44.13879" lon="3.78154">
        <ele>687</ele>
        <time>2013-08-09T09:55:18Z</time>
      </trkpt>
      <trkpt lat="44.13996" lon="3.78062">
        <ele>701.42</ele>
        <time>2013-08-09T09:55:25Z</time>
      </trkpt>
      <trkpt lat="44.14136" lon="3.7799">
        <ele>707.19</ele>
        <time>2013-08-09T09:55:33Z</time>
      </trkpt>
      <trkpt lat="44.14153" lon="3.77978">
        <ele>707.19</ele>
        <time>2013-08-09T09:55:34Z</time>
      </trkpt>
      <trkpt lat="44.14169" lon="3.77961">
        <ele>706.71</ele>
        <time>2013-08-09T09:55:35Z</time>
      </trkpt>
      <trkpt lat="44.14185" lon="3.77939">
        <ele>706.23</ele>
        <time>2013-08-09T09:55:36Z</time>
      </trkpt>
      <trkpt lat="44.14201" lon="3.77916">
        <ele>705.75</ele>
        <time>2013-08-09T09:55:37Z</time>
      </trkpt>
      <trkpt lat="44.14312" lon="3.77759">
        <ele>702.38</ele>
        <time>2013-08-09T09:55:45Z</time>
      </trkpt>
      <trkpt lat="44.14345" lon="3.77732">
        <ele>700.46</ele>
        <time>2013-08-09T09:55:47Z</time>
      </trkpt>
      <trkpt lat="44.14363" lon="3.7772">
        <ele>699.98</ele>
        <time>2013-08-09T09:55:48Z</time>
      </trkpt>
      <trkpt lat="44.14575" lon="3.77584">
        <ele>683.63</ele>
        <time>2013-08-09T09:55:59Z</time>
      </trkpt>
      <trkpt lat="44.14639" lon="3.77555">
        <ele>678.83</ele>
        <time>2013-08-09T09:56:03Z</time>
      </trkpt>
      <trkpt lat="44.14654" lon="3.77555">
        <ele>677.39</ele>
        <time>2013-08-09T09:56:04Z</time>
      </trkpt>
      <trkpt lat="44.14669" lon="3.7756">
        <ele>675.46</ele>
        <time>2013-08-09T09:56:05Z</time>
      </trkpt>
      <trkpt lat="44.14683" lon="3.7757">
        <ele>672.1</ele>
        <time>2013-08-09T09:56:06Z</time>
      </trkpt>
      <trkpt lat="44.14694" lon="3.77584">
        <ele>670.18</ele>
        <time>2013-08-09T09:56:07Z</time>
      </trkpt>
      <trkpt lat="44.14704" lon="3.776">
        <ele>669.22</ele>
        <time>2013-08-09T09:56:08Z</time>
      </trkpt>
      <trkpt lat="44.14714" lon="3.77617">
        <ele>667.29</ele>
        <time>2013-08-09T09:56:09Z</time>
      </trkpt>
      <trkpt lat="44.1472" lon="3.77636">
        <ele>665.85</ele>
        <time>2013-08-09T09:56:10Z</time>
      </trkpt>
      <trkpt lat="44.14724" lon="3.77655">
        <ele>664.89</ele>
        <time>2013-08-09T09:56:11Z</time>
      </trkpt>
      <trkpt lat="44.14727" lon="3.77673">
        <ele>663.93</ele>
        <time>2013-08-09T09:56:12Z</time>
      </trkpt>
      <trkpt lat="44.14728" lon="3.77687">
        <ele>663.45</ele>
        <time>2013-08-09T09:56:13Z</time>
      </trkpt>
      <trkpt lat="44.14728" lon="3.77698">
        <ele>662.97</ele>
        <time>2013-08-09T09:56:14Z</time>
      </trkpt>
      <trkpt lat="44.14728" lon="3.77706">
        <ele>662.49</ele>
        <time>2013-08-09T09:56:15Z</time>
      </trkpt>
      <trkpt lat="44.14729" lon="3.77711">
        <ele>662.49</ele>
        <time>2013-08-09T09:56:16Z</time>
      </trkpt>
      <trkpt lat="44.1473" lon="3.77714">
        <ele>662.49</ele>
        <time>2013-08-09T09:56:17Z</time>
      </trkpt>
      <trkpt lat="44.14731" lon="3.77717">
        <ele>662.01</ele>
        <time>2013-08-09T09:56:18Z</time>
      </trkpt>
      <trkpt lat="44.14731" lon="3.77719">
        <ele>662.01</ele>
        <time>2013-08-09T09:56:19Z</time>
      </trkpt>
      <trkpt lat="44.14732" lon="3.77721">
        <ele>662.01</ele>
        <time>2013-08-09T09:56:20Z</time>
      </trkpt>
      <trkpt lat="44.14732" lon="3.77724">
        <ele>662.01</ele>
        <time>2013-08-09T09:56:21Z</time>
      </trkpt>
      <trkpt lat="44.14732" lon="3.77726">
        <ele>661.52</ele>
        <time>2013-08-09T09:56:22Z</time>
      </trkpt>
      <trkpt lat="44.14732" lon="3.77729">
        <ele>661.52</ele>
        <time>2013-08-09T09:56:23Z</time>
      </trkpt>
      <trkpt lat="44.14732" lon="3.7773">
        <ele>661.04</ele>
        <time>2013-08-09T09:56:24Z</time>
      </trkpt>
      <trkpt lat="44.14729" lon="3.7773">
        <ele>662.49</ele>
        <time>2013-08-09T09:56:41Z</time>
      </trkpt>
      <trkpt lat="44.1473" lon="3.77729">
        <ele>661.04</ele>
        <time>2013-08-09T09:57:05Z</time>
      </trkpt>
      <trkpt lat="44.14728" lon="3.77729">
        <ele>666.81</ele>
        <time>2013-08-09T10:02:21Z</time>
      </trkpt>
      <trkpt lat="44.14728" lon="3.7773">
        <ele>664.89</ele>
        <time>2013-08-09T10:02:27Z</time>
      </trkpt>
      <trkpt lat="44.14714" lon="3.77763">
        <ele>662.01</ele>
        <time>2013-08-09T10:02:33Z</time>
      </trkpt>
      <trkpt lat="44.14714" lon="3.7777">
        <ele>661.04</ele>
        <time>2013-08-09T10:02:34Z</time>
      </trkpt>
      <trkpt lat="44.14715" lon="3.77776">
        <ele>660.56</ele>
        <time>2013-08-09T10:02:35Z</time>
      </trkpt>
      <trkpt lat="44.14718" lon="3.77778">
        <ele>660.08</ele>
        <time>2013-08-09T10:02:36Z</time>
      </trkpt>
      <trkpt lat="44.14723" lon="3.77776">
        <ele>659.6</ele>
        <time>2013-08-09T10:02:37Z</time>
      </trkpt>
      <trkpt lat="44.14728" lon="3.77771">
        <ele>658.64</ele>
        <time>2013-08-09T10:02:38Z</time>
      </trkpt>
      <trkpt lat="44.14732" lon="3.77763">
        <ele>658.16</ele>
        <time>2013-08-09T10:02:39Z</time>
      </trkpt>
      <trkpt lat="44.14736" lon="3.77753">
        <ele>657.68</ele>
        <time>2013-08-09T10:02:40Z</time>
      </trkpt>
      <trkpt lat="44.1474" lon="3.77744">
        <ele>657.68</ele>
        <time>2013-08-09T10:02:41Z</time>
      </trkpt>
      <trkpt lat="44.14744" lon="3.77734">
        <ele>657.2</ele>
        <time>2013-08-09T10:02:42Z</time>
      </trkpt>
      <trkpt lat="44.14755" lon="3.77685">
        <ele>656.24</ele>
        <time>2013-08-09T10:02:50Z</time>
      </trkpt>
      <trkpt lat="44.14756" lon="3.77653">
        <ele>655.76</ele>
        <time>2013-08-09T10:03:02Z</time>
      </trkpt>
      <trkpt lat="44.1476" lon="3.77617">
        <ele>656.72</ele>
        <time>2013-08-09T10:03:17Z</time>
      </trkpt>
      <trkpt lat="44.14758" lon="3.77568">
        <ele>655.28</ele>
        <time>2013-08-09T10:03:20Z</time>
      </trkpt>
      <trkpt lat="44.14755" lon="3.77551">
        <ele>654.31</ele>
        <time>2013-08-09T10:03:21Z</time>
      </trkpt>
      <trkpt lat="44.14751" lon="3.77534">
        <ele>653.83</ele>
        <time>2013-08-09T10:03:22Z</time>
      </trkpt>
      <trkpt lat="44.14732" lon="3.77484">
        <ele>651.43</ele>
        <time>2013-08-09T10:03:26Z</time>
      </trkpt>
      <trkpt lat="44.14726" lon="3.77476">
        <ele>649.99</ele>
        <time>2013-08-09T10:03:27Z</time>
      </trkpt>
      <trkpt lat="44.14718" lon="3.77472">
        <ele>649.51</ele>
        <time>2013-08-09T10:03:28Z</time>
      </trkpt>
      <trkpt lat="44.14709" lon="3.7747">
        <ele>648.55</ele>
        <time>2013-08-09T10:03:29Z</time>
      </trkpt>
      <trkpt lat="44.147" lon="3.77467">
        <ele>647.59</ele>
        <time>2013-08-09T10:03:30Z</time>
      </trkpt>
      <trkpt lat="44.14692" lon="3.77461">
        <ele>647.1</ele>
        <time>2013-08-09T10:03:31Z</time>
      </trkpt>
      <trkpt lat="44.14685" lon="3.77453">
        <ele>646.14</ele>
        <time>2013-08-09T10:03:32Z</time>
      </trkpt>
      <trkpt lat="44.14682" lon="3.77442">
        <ele>645.18</ele>
        <time>2013-08-09T10:03:33Z</time>
      </trkpt>
      <trkpt lat="44.1468" lon="3.77432">
        <ele>644.7</ele>
        <time>2013-08-09T10:03:34Z</time>
      </trkpt>
      <trkpt lat="44.14682" lon="3.77421">
        <ele>644.22</ele>
        <time>2013-08-09T10:03:35Z</time>
      </trkpt>
      <trkpt lat="44.14686" lon="3.77411">
        <ele>643.74</ele>
        <time>2013-08-09T10:03:36Z</time>
      </trkpt>
      <trkpt lat="44.14692" lon="3.77401">
        <ele>643.26</ele>
        <time>2013-08-09T10:03:37Z</time>
      </trkpt>
      <trkpt lat="44.14698" lon="3.77393">
        <ele>642.78</ele>
        <time>2013-08-09T10:03:38Z</time>
      </trkpt>
      <trkpt lat="44.14703" lon="3.77386">
        <ele>641.82</ele>
        <time>2013-08-09T10:03:39Z</time>
      </trkpt>
      <trkpt lat="44.14709" lon="3.7738">
        <ele>641.34</ele>
        <time>2013-08-09T10:03:40Z</time>
      </trkpt>
      <trkpt lat="44.14719" lon="3.77368">
        <ele>640.38</ele>
        <time>2013-08-09T10:03:42Z</time>
      </trkpt>
      <trkpt lat="44.14723" lon="3.77362">
        <ele>640.38</ele>
        <time>2013-08-09T10:03:43Z</time>
      </trkpt>
      <trkpt lat="44.14725" lon="3.77353">
        <ele>639.89</ele>
        <time>2013-08-09T10:03:44Z</time>
      </trkpt>
      <trkpt lat="44.14726" lon="3.77345">
        <ele>639.89</ele>
        <time>2013-08-09T10:03:45Z</time>
      </trkpt>
      <trkpt lat="44.14725" lon="3.77338">
        <ele>638.93</ele>
        <time>2013-08-09T10:03:46Z</time>
      </trkpt>
      <trkpt lat="44.14726" lon="3.77329">
        <ele>638.45</ele>
        <time>2013-08-09T10:03:47Z</time>
      </trkpt>
      <trkpt lat="44.14729" lon="3.77304">
        <ele>636.53</ele>
        <time>2013-08-09T10:03:51Z</time>
      </trkpt>
      <trkpt lat="44.14731" lon="3.77301">
        <ele>636.05</ele>
        <time>2013-08-09T10:03:52Z</time>
      </trkpt>
      <trkpt lat="44.14733" lon="3.77299">
        <ele>635.57</ele>
        <time>2013-08-09T10:03:53Z</time>
      </trkpt>
      <trkpt lat="44.14735" lon="3.77298">
        <ele>635.09</ele>
        <time>2013-08-09T10:03:54Z</time>
      </trkpt>
      <trkpt lat="44.14737" lon="3.77296">
        <ele>634.61</ele>
        <time>2013-08-09T10:03:55Z</time>
      </trkpt>
      <trkpt lat="44.1478" lon="3.77257">
        <ele>629.8</ele>
        <time>2013-08-09T10:04:04Z</time>
      </trkpt>
      <trkpt lat="44.14792" lon="3.77242">
        <ele>629.32</ele>
        <time>2013-08-09T10:04:07Z</time>
      </trkpt>
      <trkpt lat="44.14795" lon="3.77236">
        <ele>629.32</ele>
        <time>2013-08-09T10:04:08Z</time>
      </trkpt>
      <trkpt lat="44.14797" lon="3.77229">
        <ele>629.8</ele>
        <time>2013-08-09T10:04:09Z</time>
      </trkpt>
      <trkpt lat="44.14799" lon="3.77221">
        <ele>630.28</ele>
        <time>2013-08-09T10:04:10Z</time>
      </trkpt>
      <trkpt lat="44.148" lon="3.77212">
        <ele>630.76</ele>
        <time>2013-08-09T10:04:11Z</time>
      </trkpt>
      <trkpt lat="44.14808" lon="3.77165">
        <ele>631.72</ele>
        <time>2013-08-09T10:04:16Z</time>
      </trkpt>
      <trkpt lat="44.14811" lon="3.77156">
        <ele>632.2</ele>
        <time>2013-08-09T10:04:17Z</time>
      </trkpt>
      <trkpt lat="44.14815" lon="3.77147">
        <ele>632.2</ele>
        <time>2013-08-09T10:04:18Z</time>
      </trkpt>
      <trkpt lat="44.14819" lon="3.77138">
        <ele>632.2</ele>
        <time>2013-08-09T10:04:19Z</time>
      </trkpt>
      <trkpt lat="44.14824" lon="3.77131">
        <ele>632.2</ele>
        <time>2013-08-09T10:04:20Z</time>
      </trkpt>
      <trkpt lat="44.14829" lon="3.77126">
        <ele>632.68</ele>
        <time>2013-08-09T10:04:21Z</time>
      </trkpt>
      <trkpt lat="44.14833" lon="3.77122">
        <ele>633.17</ele>
        <time>2013-08-09T10:04:22Z</time>
      </trkpt>
      <trkpt lat="44.14836" lon="3.77121">
        <ele>633.17</ele>
        <time>2013-08-09T10:04:23Z</time>
      </trkpt>
      <trkpt lat="44.14839" lon="3.77122">
        <ele>632.68</ele>
        <time>2013-08-09T10:04:24Z</time>
      </trkpt>
      <trkpt lat="44.14842" lon="3.77124">
        <ele>632.2</ele>
        <time>2013-08-09T10:04:25Z</time>
      </trkpt>
      <trkpt lat="44.14844" lon="3.77126">
        <ele>632.2</ele>
        <time>2013-08-09T10:04:26Z</time>
      </trkpt>
      <trkpt lat="44.1485" lon="3.77128">
        <ele>631.72</ele>
        <time>2013-08-09T10:04:30Z</time>
      </trkpt>
      <trkpt lat="44.14853" lon="3.77126">
        <ele>632.2</ele>
        <time>2013-08-09T10:04:31Z</time>
      </trkpt>
      <trkpt lat="44.14857" lon="3.7712">
        <ele>632.2</ele>
        <time>2013-08-09T10:04:32Z</time>
      </trkpt>
      <trkpt lat="44.14916" lon="3.77062">
        <ele>635.09</ele>
        <time>2013-08-09T10:04:39Z</time>
      </trkpt>
      <trkpt lat="44.14946" lon="3.77031">
        <ele>635.09</ele>
        <time>2013-08-09T10:04:42Z</time>
      </trkpt>
      <trkpt lat="44.14955" lon="3.77019">
        <ele>635.09</ele>
        <time>2013-08-09T10:04:43Z</time>
      </trkpt>
      <trkpt lat="44.14962" lon="3.77005">
        <ele>635.57</ele>
        <time>2013-08-09T10:04:44Z</time>
      </trkpt>
      <trkpt lat="44.14969" lon="3.76991">
        <ele>636.05</ele>
        <time>2013-08-09T10:04:45Z</time>
      </trkpt>
      <trkpt lat="44.14975" lon="3.76977">
        <ele>637.01</ele>
        <time>2013-08-09T10:04:46Z</time>
      </trkpt>
      <trkpt lat="44.1498" lon="3.76962">
        <ele>637.49</ele>
        <time>2013-08-09T10:04:47Z</time>
      </trkpt>
      <trkpt lat="44.14987" lon="3.76932">
        <ele>638.45</ele>
        <time>2013-08-09T10:04:49Z</time>
      </trkpt>
      <trkpt lat="44.14988" lon="3.76915">
        <ele>637.49</ele>
        <time>2013-08-09T10:04:50Z</time>
      </trkpt>
      <trkpt lat="44.14989" lon="3.76897">
        <ele>637.49</ele>
        <time>2013-08-09T10:04:51Z</time>
      </trkpt>
      <trkpt lat="44.14987" lon="3.76878">
        <ele>637.49</ele>
        <time>2013-08-09T10:04:52Z</time>
      </trkpt>
      <trkpt lat="44.14984" lon="3.76858">
        <ele>637.01</ele>
        <time>2013-08-09T10:04:53Z</time>
      </trkpt>
      <trkpt lat="44.14981" lon="3.76837">
        <ele>636.53</ele>
        <time>2013-08-09T10:04:54Z</time>
      </trkpt>
      <trkpt lat="44.14976" lon="3.7679">
        <ele>636.53</ele>
        <time>2013-08-09T10:04:56Z</time>
      </trkpt>
      <trkpt lat="44.14977" lon="3.76766">
        <ele>636.05</ele>
        <time>2013-08-09T10:04:57Z</time>
      </trkpt>
      <trkpt lat="44.14981" lon="3.76741">
        <ele>636.05</ele>
        <time>2013-08-09T10:04:58Z</time>
      </trkpt>
      <trkpt lat="44.14988" lon="3.76716">
        <ele>636.05</ele>
        <time>2013-08-09T10:04:59Z</time>
      </trkpt>
      <trkpt lat="44.14998" lon="3.76691">
        <ele>636.05</ele>
        <time>2013-08-09T10:05:00Z</time>
      </trkpt>
      <trkpt lat="44.15011" lon="3.76666">
        <ele>636.53</ele>
        <time>2013-08-09T10:05:01Z</time>
      </trkpt>
      <trkpt lat="44.15024" lon="3.7664">
        <ele>636.53</ele>
        <time>2013-08-09T10:05:02Z</time>
      </trkpt>
      <trkpt lat="44.15066" lon="3.76552">
        <ele>636.53</ele>
        <time>2013-08-09T10:05:06Z</time>
      </trkpt>
      <trkpt lat="44.1507" lon="3.76528">
        <ele>636.53</ele>
        <time>2013-08-09T10:05:07Z</time>
      </trkpt>
      <trkpt lat="44.15074" lon="3.76503">
        <ele>636.53</ele>
        <time>2013-08-09T10:05:08Z</time>
      </trkpt>
      <trkpt lat="44.15075" lon="3.76475">
        <ele>637.01</ele>
        <time>2013-08-09T10:05:09Z</time>
      </trkpt>
      <trkpt lat="44.15073" lon="3.76448">
        <ele>637.49</ele>
        <time>2013-08-09T10:05:10Z</time>
      </trkpt>
      <trkpt lat="44.15071" lon="3.76422">
        <ele>637.49</ele>
        <time>2013-08-09T10:05:11Z</time>
      </trkpt>
      <trkpt lat="44.15083" lon="3.76349">
        <ele>637.49</ele>
        <time>2013-08-09T10:05:14Z</time>
      </trkpt>
      <trkpt lat="44.15092" lon="3.76325">
        <ele>637.49</ele>
        <time>2013-08-09T10:05:15Z</time>
      </trkpt>
      <trkpt lat="44.15105" lon="3.76302">
        <ele>638.93</ele>
        <time>2013-08-09T10:05:16Z</time>
      </trkpt>
      <trkpt lat="44.15118" lon="3.7628">
        <ele>639.89</ele>
        <time>2013-08-09T10:05:17Z</time>
      </trkpt>
      <trkpt lat="44.15134" lon="3.76261">
        <ele>641.34</ele>
        <time>2013-08-09T10:05:18Z</time>
      </trkpt>
      <trkpt lat="44.15151" lon="3.76243">
        <ele>642.78</ele>
        <time>2013-08-09T10:05:19Z</time>
      </trkpt>
      <trkpt lat="44.15167" lon="3.76225">
        <ele>645.18</ele>
        <time>2013-08-09T10:05:20Z</time>
      </trkpt>
      <trkpt lat="44.15217" lon="3.76134">
        <ele>651.43</ele>
        <time>2013-08-09T10:05:24Z</time>
      </trkpt>
      <trkpt lat="44.15223" lon="3.76105">
        <ele>652.87</ele>
        <time>2013-08-09T10:05:25Z</time>
      </trkpt>
      <trkpt lat="44.15226" lon="3.76075">
        <ele>654.31</ele>
        <time>2013-08-09T10:05:26Z</time>
      </trkpt>
      <trkpt lat="44.15227" lon="3.76043">
        <ele>655.28</ele>
        <time>2013-08-09T10:05:27Z</time>
      </trkpt>
      <trkpt lat="44.15226" lon="3.76011">
        <ele>656.72</ele>
        <time>2013-08-09T10:05:28Z</time>
      </trkpt>
      <trkpt lat="44.15225" lon="3.75978">
        <ele>658.16</ele>
        <time>2013-08-09T10:05:29Z</time>
      </trkpt>
      <trkpt lat="44.15246" lon="3.75777">
        <ele>666.33</ele>
        <time>2013-08-09T10:05:35Z</time>
      </trkpt>
      <trkpt lat="44.15294" lon="3.75589">
        <ele>675.46</ele>
        <time>2013-08-09T10:05:42Z</time>
      </trkpt>
      <trkpt lat="44.15308" lon="3.75571">
        <ele>677.39</ele>
        <time>2013-08-09T10:05:43Z</time>
      </trkpt>
      <trkpt lat="44.15343" lon="3.75507">
        <ele>680.27</ele>
        <time>2013-08-09T10:05:46Z</time>
      </trkpt>
      <trkpt lat="44.1535" lon="3.75479">
        <ele>681.23</ele>
        <time>2013-08-09T10:05:47Z</time>
      </trkpt>
      <trkpt lat="44.15356" lon="3.75449">
        <ele>682.67</ele>
        <time>2013-08-09T10:05:48Z</time>
      </trkpt>
      <trkpt lat="44.15361" lon="3.75419">
        <ele>684.6</ele>
        <time>2013-08-09T10:05:49Z</time>
      </trkpt>
      <trkpt lat="44.15366" lon="3.75387">
        <ele>686.04</ele>
        <time>2013-08-09T10:05:50Z</time>
      </trkpt>
      <trkpt lat="44.15391" lon="3.75252">
        <ele>695.17</ele>
        <time>2013-08-09T10:05:55Z</time>
      </trkpt>
      <trkpt lat="44.15401" lon="3.75233">
        <ele>696.13</ele>
        <time>2013-08-09T10:05:56Z</time>
      </trkpt>
      <trkpt lat="44.15414" lon="3.75214">
        <ele>697.09</ele>
        <time>2013-08-09T10:05:57Z</time>
      </trkpt>
      <trkpt lat="44.15485" lon="3.75097">
        <ele>704.78</ele>
        <time>2013-08-09T10:06:02Z</time>
      </trkpt>
      <trkpt lat="44.15508" lon="3.75053">
        <ele>708.15</ele>
        <time>2013-08-09T10:06:04Z</time>
      </trkpt>
      <trkpt lat="44.15523" lon="3.75036">
        <ele>709.11</ele>
        <time>2013-08-09T10:06:05Z</time>
      </trkpt>
      <trkpt lat="44.15538" lon="3.75022">
        <ele>710.07</ele>
        <time>2013-08-09T10:06:06Z</time>
      </trkpt>
      <trkpt lat="44.15554" lon="3.75017">
        <ele>711.51</ele>
        <time>2013-08-09T10:06:07Z</time>
      </trkpt>
      <trkpt lat="44.15566" lon="3.75014">
        <ele>713.44</ele>
        <time>2013-08-09T10:06:08Z</time>
      </trkpt>
      <trkpt lat="44.15583" lon="3.75017">
        <ele>712.47</ele>
        <time>2013-08-09T10:06:09Z</time>
      </trkpt>
      <trkpt lat="44.15598" lon="3.75022">
        <ele>711.99</ele>
        <time>2013-08-09T10:06:10Z</time>
      </trkpt>
      <trkpt lat="44.15615" lon="3.75028">
        <ele>712.95</ele>
        <time>2013-08-09T10:06:11Z</time>
      </trkpt>
      <trkpt lat="44.15634" lon="3.75026">
        <ele>713.44</ele>
        <time>2013-08-09T10:06:12Z</time>
      </trkpt>
      <trkpt lat="44.15652" lon="3.75019">
        <ele>713.92</ele>
        <time>2013-08-09T10:06:13Z</time>
      </trkpt>
      <trkpt lat="44.15669" lon="3.75007">
        <ele>714.4</ele>
        <time>2013-08-09T10:06:14Z</time>
      </trkpt>
      <trkpt lat="44.15683" lon="3.74987">
        <ele>715.36</ele>
        <time>2013-08-09T10:06:15Z</time>
      </trkpt>
      <trkpt lat="44.15698" lon="3.74968">
        <ele>716.32</ele>
        <time>2013-08-09T10:06:16Z</time>
      </trkpt>
      <trkpt lat="44.15706" lon="3.74946">
        <ele>717.76</ele>
        <time>2013-08-09T10:06:17Z</time>
      </trkpt>
      <trkpt lat="44.15709" lon="3.7492">
        <ele>719.2</ele>
        <time>2013-08-09T10:06:18Z</time>
      </trkpt>
      <trkpt lat="44.15695" lon="3.74884">
        <ele>719.68</ele>
        <time>2013-08-09T10:06:19Z</time>
      </trkpt>
      <trkpt lat="44.15692" lon="3.74852">
        <ele>720.65</ele>
        <time>2013-08-09T10:06:20Z</time>
      </trkpt>
      <trkpt lat="44.15692" lon="3.74817">
        <ele>723.05</ele>
        <time>2013-08-09T10:06:21Z</time>
      </trkpt>
      <trkpt lat="44.15693" lon="3.74783">
        <ele>724.01</ele>
        <time>2013-08-09T10:06:22Z</time>
      </trkpt>
      <trkpt lat="44.1569" lon="3.74723">
        <ele>727.86</ele>
        <time>2013-08-09T10:06:24Z</time>
      </trkpt>
      <trkpt lat="44.15686" lon="3.74667">
        <ele>730.74</ele>
        <time>2013-08-09T10:06:26Z</time>
      </trkpt>
      <trkpt lat="44.1569" lon="3.74639">
        <ele>732.18</ele>
        <time>2013-08-09T10:06:27Z</time>
      </trkpt>
      <trkpt lat="44.15696" lon="3.74611">
        <ele>733.14</ele>
        <time>2013-08-09T10:06:28Z</time>
      </trkpt>
      <trkpt lat="44.15707" lon="3.74525">
        <ele>737.95</ele>
        <time>2013-08-09T10:06:31Z</time>
      </trkpt>
      <trkpt lat="44.15705" lon="3.74494">
        <ele>738.91</ele>
        <time>2013-08-09T10:06:32Z</time>
      </trkpt>
      <trkpt lat="44.15701" lon="3.74464">
        <ele>739.87</ele>
        <time>2013-08-09T10:06:33Z</time>
      </trkpt>
      <trkpt lat="44.15698" lon="3.74435">
        <ele>742.76</ele>
        <time>2013-08-09T10:06:34Z</time>
      </trkpt>
      <trkpt lat="44.15697" lon="3.74406">
        <ele>745.16</ele>
        <time>2013-08-09T10:06:35Z</time>
      </trkpt>
      <trkpt lat="44.15699" lon="3.74376">
        <ele>746.6</ele>
        <time>2013-08-09T10:06:36Z</time>
      </trkpt>
      <trkpt lat="44.15701" lon="3.74345">
        <ele>748.04</ele>
        <time>2013-08-09T10:06:37Z</time>
      </trkpt>
      <trkpt lat="44.15694" lon="3.74143">
        <ele>756.69</ele>
        <time>2013-08-09T10:06:43Z</time>
      </trkpt>
      <trkpt lat="44.15685" lon="3.73997">
        <ele>762.94</ele>
        <time>2013-08-09T10:06:48Z</time>
      </trkpt>
      <trkpt lat="44.15676" lon="3.73967">
        <ele>764.39</ele>
        <time>2013-08-09T10:06:49Z</time>
      </trkpt>
      <trkpt lat="44.15655" lon="3.73838">
        <ele>769.67</ele>
        <time>2013-08-09T10:06:53Z</time>
      </trkpt>
      <trkpt lat="44.15654" lon="3.73803">
        <ele>771.11</ele>
        <time>2013-08-09T10:06:54Z</time>
      </trkpt>
      <trkpt lat="44.15657" lon="3.73769">
        <ele>773.52</ele>
        <time>2013-08-09T10:06:55Z</time>
      </trkpt>
      <trkpt lat="44.15663" lon="3.73735">
        <ele>775.92</ele>
        <time>2013-08-09T10:06:56Z</time>
      </trkpt>
      <trkpt lat="44.1567" lon="3.73702">
        <ele>778.32</ele>
        <time>2013-08-09T10:06:57Z</time>
      </trkpt>
      <trkpt lat="44.15679" lon="3.7367">
        <ele>779.77</ele>
        <time>2013-08-09T10:06:58Z</time>
      </trkpt>
      <trkpt lat="44.15687" lon="3.73639">
        <ele>781.69</ele>
        <time>2013-08-09T10:06:59Z</time>
      </trkpt>
      <trkpt lat="44.15694" lon="3.73607">
        <ele>783.61</ele>
        <time>2013-08-09T10:07:00Z</time>
      </trkpt>
      <trkpt lat="44.15699" lon="3.73576">
        <ele>785.05</ele>
        <time>2013-08-09T10:07:01Z</time>
      </trkpt>
      <trkpt lat="44.15751" lon="3.73446">
        <ele>790.82</ele>
        <time>2013-08-09T10:07:06Z</time>
      </trkpt>
      <trkpt lat="44.1577" lon="3.73428">
        <ele>792.26</ele>
        <time>2013-08-09T10:07:07Z</time>
      </trkpt>
      <trkpt lat="44.15789" lon="3.73414">
        <ele>793.71</ele>
        <time>2013-08-09T10:07:08Z</time>
      </trkpt>
      <trkpt lat="44.15809" lon="3.73403">
        <ele>796.59</ele>
        <time>2013-08-09T10:07:09Z</time>
      </trkpt>
      <trkpt lat="44.15827" lon="3.73394">
        <ele>798.51</ele>
        <time>2013-08-09T10:07:10Z</time>
      </trkpt>
      <trkpt lat="44.15947" lon="3.73281">
        <ele>802.36</ele>
        <time>2013-08-09T10:07:17Z</time>
      </trkpt>
      <trkpt lat="44.15993" lon="3.73236">
        <ele>802.36</ele>
        <time>2013-08-09T10:07:20Z</time>
      </trkpt>
      <trkpt lat="44.16011" lon="3.73229">
        <ele>801.88</ele>
        <time>2013-08-09T10:07:21Z</time>
      </trkpt>
      <trkpt lat="44.16026" lon="3.7322">
        <ele>802.36</ele>
        <time>2013-08-09T10:07:22Z</time>
      </trkpt>
      <trkpt lat="44.16043" lon="3.73208">
        <ele>802.84</ele>
        <time>2013-08-09T10:07:23Z</time>
      </trkpt>
      <trkpt lat="44.16056" lon="3.73192">
        <ele>801.88</ele>
        <time>2013-08-09T10:07:24Z</time>
      </trkpt>
      <trkpt lat="44.16071" lon="3.73172">
        <ele>800.44</ele>
        <time>2013-08-09T10:07:25Z</time>
      </trkpt>
      <trkpt lat="44.1608" lon="3.7315">
        <ele>799.47</ele>
        <time>2013-08-09T10:07:26Z</time>
      </trkpt>
      <trkpt lat="44.16087" lon="3.73125">
        <ele>798.51</ele>
        <time>2013-08-09T10:07:27Z</time>
      </trkpt>
      <trkpt lat="44.16089" lon="3.73097">
        <ele>798.03</ele>
        <time>2013-08-09T10:07:28Z</time>
      </trkpt>
      <trkpt lat="44.1609" lon="3.73071">
        <ele>797.07</ele>
        <time>2013-08-09T10:07:29Z</time>
      </trkpt>
      <trkpt lat="44.16093" lon="3.73046">
        <ele>796.11</ele>
        <time>2013-08-09T10:07:30Z</time>
      </trkpt>
      <trkpt lat="44.16098" lon="3.73024">
        <ele>795.63</ele>
        <time>2013-08-09T10:07:31Z</time>
      </trkpt>
      <trkpt lat="44.16106" lon="3.73005">
        <ele>794.67</ele>
        <time>2013-08-09T10:07:32Z</time>
      </trkpt>
      <trkpt lat="44.16118" lon="3.72988">
        <ele>794.19</ele>
        <time>2013-08-09T10:07:33Z</time>
      </trkpt>
      <trkpt lat="44.16136" lon="3.72974">
        <ele>795.15</ele>
        <time>2013-08-09T10:07:34Z</time>
      </trkpt>
      <trkpt lat="44.16154" lon="3.72959">
        <ele>795.15</ele>
        <time>2013-08-09T10:07:35Z</time>
      </trkpt>
      <trkpt lat="44.16172" lon="3.72946">
        <ele>795.15</ele>
        <time>2013-08-09T10:07:36Z</time>
      </trkpt>
      <trkpt lat="44.16193" lon="3.72937">
        <ele>795.15</ele>
        <time>2013-08-09T10:07:37Z</time>
      </trkpt>
      <trkpt lat="44.16214" lon="3.72934">
        <ele>795.63</ele>
        <time>2013-08-09T10:07:38Z</time>
      </trkpt>
      <trkpt lat="44.16235" lon="3.72934">
        <ele>795.15</ele>
        <time>2013-08-09T10:07:39Z</time>
      </trkpt>
      <trkpt lat="44.16255" lon="3.72934">
        <ele>796.11</ele>
        <time>2013-08-09T10:07:40Z</time>
      </trkpt>
      <trkpt lat="44.16291" lon="3.72929">
        <ele>797.07</ele>
        <time>2013-08-09T10:07:42Z</time>
      </trkpt>
      <trkpt lat="44.16305" lon="3.72921">
        <ele>797.07</ele>
        <time>2013-08-09T10:07:43Z</time>
      </trkpt>
      <trkpt lat="44.16318" lon="3.72909">
        <ele>797.07</ele>
        <time>2013-08-09T10:07:44Z</time>
      </trkpt>
      <trkpt lat="44.16329" lon="3.7289">
        <ele>797.07</ele>
        <time>2013-08-09T10:07:45Z</time>
      </trkpt>
      <trkpt lat="44.16339" lon="3.72866">
        <ele>797.07</ele>
        <time>2013-08-09T10:07:46Z</time>
      </trkpt>
      <trkpt lat="44.16347" lon="3.72837">
        <ele>798.99</ele>
        <time>2013-08-09T10:07:47Z</time>
      </trkpt>
      <trkpt lat="44.16357" lon="3.7281">
        <ele>800.92</ele>
        <time>2013-08-09T10:07:48Z</time>
      </trkpt>
      <trkpt lat="44.16368" lon="3.72784">
        <ele>801.88</ele>
        <time>2013-08-09T10:07:49Z</time>
      </trkpt>
      <trkpt lat="44.16382" lon="3.72761">
        <ele>802.84</ele>
        <time>2013-08-09T10:07:50Z</time>
      </trkpt>
      <trkpt lat="44.16398" lon="3.72742">
        <ele>804.28</ele>
        <time>2013-08-09T10:07:51Z</time>
      </trkpt>
      <trkpt lat="44.16415" lon="3.72726">
        <ele>805.24</ele>
        <time>2013-08-09T10:07:52Z</time>
      </trkpt>
      <trkpt lat="44.16432" lon="3.72713">
        <ele>806.2</ele>
        <time>2013-08-09T10:07:53Z</time>
      </trkpt>
      <trkpt lat="44.16449" lon="3.72701">
        <ele>807.16</ele>
        <time>2013-08-09T10:07:54Z</time>
      </trkpt>
      <trkpt lat="44.1649" lon="3.72662">
        <ele>808.13</ele>
        <time>2013-08-09T10:07:57Z</time>
      </trkpt>
      <trkpt lat="44.16501" lon="3.72645">
        <ele>808.61</ele>
        <time>2013-08-09T10:07:58Z</time>
      </trkpt>
      <trkpt lat="44.1651" lon="3.72626">
        <ele>808.61</ele>
        <time>2013-08-09T10:07:59Z</time>
      </trkpt>
      <trkpt lat="44.16517" lon="3.72605">
        <ele>809.09</ele>
        <time>2013-08-09T10:08:00Z</time>
      </trkpt>
      <trkpt lat="44.16523" lon="3.72584">
        <ele>809.09</ele>
        <time>2013-08-09T10:08:01Z</time>
      </trkpt>
      <trkpt lat="44.16526" lon="3.72564">
        <ele>809.57</ele>
        <time>2013-08-09T10:08:02Z</time>
      </trkpt>
      <trkpt lat="44.16528" lon="3.72544">
        <ele>809.57</ele>
        <time>2013-08-09T10:08:03Z</time>
      </trkpt>
      <trkpt lat="44.16529" lon="3.72523">
        <ele>810.05</ele>
        <time>2013-08-09T10:08:04Z</time>
      </trkpt>
      <trkpt lat="44.16528" lon="3.72503">
        <ele>810.53</ele>
        <time>2013-08-09T10:08:05Z</time>
      </trkpt>
      <trkpt lat="44.16525" lon="3.72481">
        <ele>810.53</ele>
        <time>2013-08-09T10:08:06Z</time>
      </trkpt>
      <trkpt lat="44.16522" lon="3.72456">
        <ele>811.01</ele>
        <time>2013-08-09T10:08:07Z</time>
      </trkpt>
      <trkpt lat="44.1652" lon="3.72428">
        <ele>811.01</ele>
        <time>2013-08-09T10:08:08Z</time>
      </trkpt>
      <trkpt lat="44.16509" lon="3.72181">
        <ele>812.93</ele>
        <time>2013-08-09T10:08:16Z</time>
      </trkpt>
      <trkpt lat="44.16512" lon="3.72152">
        <ele>813.41</ele>
        <time>2013-08-09T10:08:17Z</time>
      </trkpt>
      <trkpt lat="44.16518" lon="3.72123">
        <ele>813.41</ele>
        <time>2013-08-09T10:08:18Z</time>
      </trkpt>
      <trkpt lat="44.1653" lon="3.72097">
        <ele>812.93</ele>
        <time>2013-08-09T10:08:19Z</time>
      </trkpt>
      <trkpt lat="44.16543" lon="3.72071">
        <ele>812.93</ele>
        <time>2013-08-09T10:08:20Z</time>
      </trkpt>
      <trkpt lat="44.16556" lon="3.72047">
        <ele>813.41</ele>
        <time>2013-08-09T10:08:21Z</time>
      </trkpt>
      <trkpt lat="44.1658" lon="3.71999">
        <ele>813.89</ele>
        <time>2013-08-09T10:08:23Z</time>
      </trkpt>
      <trkpt lat="44.16589" lon="3.71974">
        <ele>813.89</ele>
        <time>2013-08-09T10:08:24Z</time>
      </trkpt>
      <trkpt lat="44.16595" lon="3.71945">
        <ele>814.37</ele>
        <time>2013-08-09T10:08:25Z</time>
      </trkpt>
      <trkpt lat="44.16596" lon="3.71913">
        <ele>814.37</ele>
        <time>2013-08-09T10:08:26Z</time>
      </trkpt>
      <trkpt lat="44.16595" lon="3.7188">
        <ele>814.37</ele>
        <time>2013-08-09T10:08:27Z</time>
      </trkpt>
      <trkpt lat="44.16594" lon="3.71846">
        <ele>814.37</ele>
        <time>2013-08-09T10:08:28Z</time>
      </trkpt>
      <trkpt lat="44.1659" lon="3.71813">
        <ele>814.85</ele>
        <time>2013-08-09T10:08:29Z</time>
      </trkpt>
      <trkpt lat="44.16586" lon="3.71779">
        <ele>814.37</ele>
        <time>2013-08-09T10:08:30Z</time>
      </trkpt>
      <trkpt lat="44.16583" lon="3.71568">
        <ele>816.3</ele>
        <time>2013-08-09T10:08:37Z</time>
      </trkpt>
      <trkpt lat="44.16587" lon="3.71541">
        <ele>816.78</ele>
        <time>2013-08-09T10:08:38Z</time>
      </trkpt>
      <trkpt lat="44.16589" lon="3.71513">
        <ele>817.26</ele>
        <time>2013-08-09T10:08:39Z</time>
      </trkpt>
      <trkpt lat="44.16585" lon="3.71485">
        <ele>817.74</ele>
        <time>2013-08-09T10:08:40Z</time>
      </trkpt>
      <trkpt lat="44.16578" lon="3.71457">
        <ele>818.22</ele>
        <time>2013-08-09T10:08:41Z</time>
      </trkpt>
      <trkpt lat="44.16568" lon="3.71428">
        <ele>818.22</ele>
        <time>2013-08-09T10:08:42Z</time>
      </trkpt>
      <trkpt lat="44.16555" lon="3.71399">
        <ele>818.22</ele>
        <time>2013-08-09T10:08:43Z</time>
      </trkpt>
      <trkpt lat="44.16542" lon="3.71371">
        <ele>818.7</ele>
        <time>2013-08-09T10:08:44Z</time>
      </trkpt>
      <trkpt lat="44.1653" lon="3.71344">
        <ele>819.18</ele>
        <time>2013-08-09T10:08:45Z</time>
      </trkpt>
      <trkpt lat="44.16477" lon="3.71204">
        <ele>821.58</ele>
        <time>2013-08-09T10:08:51Z</time>
      </trkpt>
      <trkpt lat="44.16471" lon="3.71182">
        <ele>821.58</ele>
        <time>2013-08-09T10:08:52Z</time>
      </trkpt>
      <trkpt lat="44.16468" lon="3.71159">
        <ele>821.58</ele>
        <time>2013-08-09T10:08:53Z</time>
      </trkpt>
      <trkpt lat="44.16466" lon="3.71135">
        <ele>822.06</ele>
        <time>2013-08-09T10:08:54Z</time>
      </trkpt>
      <trkpt lat="44.16466" lon="3.71111">
        <ele>822.55</ele>
        <time>2013-08-09T10:08:55Z</time>
      </trkpt>
      <trkpt lat="44.16468" lon="3.71085">
        <ele>823.03</ele>
        <time>2013-08-09T10:08:56Z</time>
      </trkpt>
      <trkpt lat="44.16473" lon="3.71054">
        <ele>823.03</ele>
        <time>2013-08-09T10:08:57Z</time>
      </trkpt>
      <trkpt lat="44.16479" lon="3.71022">
        <ele>823.99</ele>
        <time>2013-08-09T10:08:58Z</time>
      </trkpt>
      <trkpt lat="44.16485" lon="3.70991">
        <ele>823.99</ele>
        <time>2013-08-09T10:08:59Z</time>
      </trkpt>
      <trkpt lat="44.16508" lon="3.70909">
        <ele>824.95</ele>
        <time>2013-08-09T10:09:02Z</time>
      </trkpt>
      <trkpt lat="44.16523" lon="3.70855">
        <ele>824.95</ele>
        <time>2013-08-09T10:09:04Z</time>
      </trkpt>
      <trkpt lat="44.16527" lon="3.70824">
        <ele>825.43</ele>
        <time>2013-08-09T10:09:05Z</time>
      </trkpt>
      <trkpt lat="44.16576" lon="3.70631">
        <ele>826.87</ele>
        <time>2013-08-09T10:09:11Z</time>
      </trkpt>
      <trkpt lat="44.16673" lon="3.70459">
        <ele>830.24</ele>
        <time>2013-08-09T10:09:17Z</time>
      </trkpt>
      <trkpt lat="44.16794" lon="3.7027">
        <ele>835.52</ele>
        <time>2013-08-09T10:09:24Z</time>
      </trkpt>
      <trkpt lat="44.16848" lon="3.70207">
        <ele>838.89</ele>
        <time>2013-08-09T10:09:27Z</time>
      </trkpt>
      <trkpt lat="44.16883" lon="3.70171">
        <ele>839.85</ele>
        <time>2013-08-09T10:09:29Z</time>
      </trkpt>
      <trkpt lat="44.16899" lon="3.7015">
        <ele>840.33</ele>
        <time>2013-08-09T10:09:30Z</time>
      </trkpt>
      <trkpt lat="44.16976" lon="3.7005">
        <ele>843.21</ele>
        <time>2013-08-09T10:09:36Z</time>
      </trkpt>
      <trkpt lat="44.16985" lon="3.70033">
        <ele>843.21</ele>
        <time>2013-08-09T10:09:37Z</time>
      </trkpt>
      <trkpt lat="44.16993" lon="3.70014">
        <ele>843.21</ele>
        <time>2013-08-09T10:09:38Z</time>
      </trkpt>
      <trkpt lat="44.17035" lon="3.69873">
        <ele>844.18</ele>
        <time>2013-08-09T10:09:46Z</time>
      </trkpt>
      <trkpt lat="44.17035" lon="3.6985">
        <ele>844.18</ele>
        <time>2013-08-09T10:09:47Z</time>
      </trkpt>
      <trkpt lat="44.17041" lon="3.69672">
        <ele>844.18</ele>
        <time>2013-08-09T10:09:53Z</time>
      </trkpt>
      <trkpt lat="44.17045" lon="3.69449">
        <ele>843.21</ele>
        <time>2013-08-09T10:10:00Z</time>
      </trkpt>
      <trkpt lat="44.17051" lon="3.69418">
        <ele>843.21</ele>
        <time>2013-08-09T10:10:01Z</time>
      </trkpt>
      <trkpt lat="44.17061" lon="3.69388">
        <ele>843.21</ele>
        <time>2013-08-09T10:10:02Z</time>
      </trkpt>
      <trkpt lat="44.17073" lon="3.69358">
        <ele>843.21</ele>
        <time>2013-08-09T10:10:03Z</time>
      </trkpt>
      <trkpt lat="44.17086" lon="3.69329">
        <ele>843.69</ele>
        <time>2013-08-09T10:10:04Z</time>
      </trkpt>
      <trkpt lat="44.17172" lon="3.69209">
        <ele>846.1</ele>
        <time>2013-08-09T10:10:09Z</time>
      </trkpt>
      <trkpt lat="44.17195" lon="3.69191">
        <ele>847.06</ele>
        <time>2013-08-09T10:10:10Z</time>
      </trkpt>
      <trkpt lat="44.17219" lon="3.69174">
        <ele>848.02</ele>
        <time>2013-08-09T10:10:11Z</time>
      </trkpt>
      <trkpt lat="44.1736" lon="3.69011">
        <ele>852.35</ele>
        <time>2013-08-09T10:10:18Z</time>
      </trkpt>
      <trkpt lat="44.1753" lon="3.68823">
        <ele>858.59</ele>
        <time>2013-08-09T10:10:26Z</time>
      </trkpt>
      <trkpt lat="44.17608" lon="3.68757">
        <ele>858.11</ele>
        <time>2013-08-09T10:10:30Z</time>
      </trkpt>
      <trkpt lat="44.17653" lon="3.68741">
        <ele>859.08</ele>
        <time>2013-08-09T10:10:32Z</time>
      </trkpt>
      <trkpt lat="44.17744" lon="3.68694">
        <ele>857.63</ele>
        <time>2013-08-09T10:10:36Z</time>
      </trkpt>
      <trkpt lat="44.17766" lon="3.68672">
        <ele>856.67</ele>
        <time>2013-08-09T10:10:37Z</time>
      </trkpt>
      <trkpt lat="44.17787" lon="3.68648">
        <ele>857.15</ele>
        <time>2013-08-09T10:10:38Z</time>
      </trkpt>
      <trkpt lat="44.17962" lon="3.68492">
        <ele>857.15</ele>
        <time>2013-08-09T10:10:46Z</time>
      </trkpt>
      <trkpt lat="44.18055" lon="3.6842">
        <ele>856.67</ele>
        <time>2013-08-09T10:10:51Z</time>
      </trkpt>
      <trkpt lat="44.18074" lon="3.68418">
        <ele>856.19</ele>
        <time>2013-08-09T10:10:52Z</time>
      </trkpt>
      <trkpt lat="44.18093" lon="3.68422">
        <ele>856.19</ele>
        <time>2013-08-09T10:10:53Z</time>
      </trkpt>
      <trkpt lat="44.18112" lon="3.68429">
        <ele>855.71</ele>
        <time>2013-08-09T10:10:54Z</time>
      </trkpt>
      <trkpt lat="44.18129" lon="3.68436">
        <ele>856.67</ele>
        <time>2013-08-09T10:10:55Z</time>
      </trkpt>
      <trkpt lat="44.18143" lon="3.68444">
        <ele>856.67</ele>
        <time>2013-08-09T10:10:56Z</time>
      </trkpt>
      <trkpt lat="44.18155" lon="3.68451">
        <ele>856.67</ele>
        <time>2013-08-09T10:10:57Z</time>
      </trkpt>
      <trkpt lat="44.18164" lon="3.68459">
        <ele>856.67</ele>
        <time>2013-08-09T10:10:58Z</time>
      </trkpt>
      <trkpt lat="44.18173" lon="3.68467">
        <ele>856.67</ele>
        <time>2013-08-09T10:10:59Z</time>
      </trkpt>
      <trkpt lat="44.1818" lon="3.68476">
        <ele>857.15</ele>
        <time>2013-08-09T10:11:00Z</time>
      </trkpt>
      <trkpt lat="44.18215" lon="3.68513">
        <ele>858.11</ele>
        <time>2013-08-09T10:11:05Z</time>
      </trkpt>
      <trkpt lat="44.18222" lon="3.68517">
        <ele>858.11</ele>
        <time>2013-08-09T10:11:06Z</time>
      </trkpt>
      <trkpt lat="44.18228" lon="3.6852">
        <ele>858.11</ele>
        <time>2013-08-09T10:11:07Z</time>
      </trkpt>
      <trkpt lat="44.18233" lon="3.68522">
        <ele>858.11</ele>
        <time>2013-08-09T10:11:08Z</time>
      </trkpt>
      <trkpt lat="44.18238" lon="3.68522">
        <ele>857.63</ele>
        <time>2013-08-09T10:11:09Z</time>
      </trkpt>
      <trkpt lat="44.18243" lon="3.68521">
        <ele>857.63</ele>
        <time>2013-08-09T10:11:10Z</time>
      </trkpt>
      <trkpt lat="44.18247" lon="3.68519">
        <ele>857.15</ele>
        <time>2013-08-09T10:11:11Z</time>
      </trkpt>
      <trkpt lat="44.18251" lon="3.68517">
        <ele>857.15</ele>
        <time>2013-08-09T10:11:12Z</time>
      </trkpt>
      <trkpt lat="44.18276" lon="3.68504">
        <ele>857.15</ele>
        <time>2013-08-09T10:11:22Z</time>
      </trkpt>
      <trkpt lat="44.18277" lon="3.68504">
        <ele>857.63</ele>
        <time>2013-08-09T10:11:38Z</time>
      </trkpt>
      <trkpt lat="44.18272" lon="3.68503">
        <ele>858.11</ele>
        <time>2013-08-09T10:13:08Z</time>
      </trkpt>
      <trkpt lat="44.18273" lon="3.68501">
        <ele>857.63</ele>
        <time>2013-08-09T10:13:09Z</time>
      </trkpt>
      <trkpt lat="44.18273" lon="3.68497">
        <ele>857.63</ele>
        <time>2013-08-09T10:13:10Z</time>
      </trkpt>
      <trkpt lat="44.18272" lon="3.68492">
        <ele>857.63</ele>
        <time>2013-08-09T10:13:11Z</time>
      </trkpt>
      <trkpt lat="44.1827" lon="3.68487">
        <ele>857.15</ele>
        <time>2013-08-09T10:13:12Z</time>
      </trkpt>
      <trkpt lat="44.18269" lon="3.68481">
        <ele>857.15</ele>
        <time>2013-08-09T10:13:13Z</time>
      </trkpt>
      <trkpt lat="44.18268" lon="3.68474">
        <ele>856.67</ele>
        <time>2013-08-09T10:13:14Z</time>
      </trkpt>
      <trkpt lat="44.18268" lon="3.68468">
        <ele>856.67</ele>
        <time>2013-08-09T10:13:15Z</time>
      </trkpt>
      <trkpt lat="44.18267" lon="3.68461">
        <ele>856.67</ele>
        <time>2013-08-09T10:13:16Z</time>
      </trkpt>
      <trkpt lat="44.18263" lon="3.6837">
        <ele>856.19</ele>
        <time>2013-08-09T10:13:25Z</time>
      </trkpt>
      <trkpt lat="44.18267" lon="3.68241">
        <ele>854.27</ele>
        <time>2013-08-09T10:13:31Z</time>
      </trkpt>
      <trkpt lat="44.18288" lon="3.68049">
        <ele>849.46</ele>
        <time>2013-08-09T10:13:38Z</time>
      </trkpt>
      <trkpt lat="44.18299" lon="3.67911">
        <ele>845.62</ele>
        <time>2013-08-09T10:13:43Z</time>
      </trkpt>
      <trkpt lat="44.18297" lon="3.67883">
        <ele>844.66</ele>
        <time>2013-08-09T10:13:44Z</time>
      </trkpt>
      <trkpt lat="44.18295" lon="3.67855">
        <ele>843.69</ele>
        <time>2013-08-09T10:13:45Z</time>
      </trkpt>
      <trkpt lat="44.18295" lon="3.67827">
        <ele>842.73</ele>
        <time>2013-08-09T10:13:46Z</time>
      </trkpt>
      <trkpt lat="44.18298" lon="3.67798">
        <ele>842.73</ele>
        <time>2013-08-09T10:13:47Z</time>
      </trkpt>
      <trkpt lat="44.18303" lon="3.67769">
        <ele>842.25</ele>
        <time>2013-08-09T10:13:48Z</time>
      </trkpt>
      <trkpt lat="44.1831" lon="3.67739">
        <ele>841.77</ele>
        <time>2013-08-09T10:13:49Z</time>
      </trkpt>
      <trkpt lat="44.18393" lon="3.67553">
        <ele>837.45</ele>
        <time>2013-08-09T10:13:56Z</time>
      </trkpt>
      <trkpt lat="44.18494" lon="3.67359">
        <ele>835.52</ele>
        <time>2013-08-09T10:14:03Z</time>
      </trkpt>
      <trkpt lat="44.18606" lon="3.67143">
        <ele>834.56</ele>
        <time>2013-08-09T10:14:12Z</time>
      </trkpt>
      <trkpt lat="44.1866" lon="3.66988">
        <ele>833.6</ele>
        <time>2013-08-09T10:14:18Z</time>
      </trkpt>
      <trkpt lat="44.18673" lon="3.66967">
        <ele>833.12</ele>
        <time>2013-08-09T10:14:19Z</time>
      </trkpt>
      <trkpt lat="44.1869" lon="3.66949">
        <ele>833.12</ele>
        <time>2013-08-09T10:14:20Z</time>
      </trkpt>
      <trkpt lat="44.18709" lon="3.66936">
        <ele>833.12</ele>
        <time>2013-08-09T10:14:21Z</time>
      </trkpt>
      <trkpt lat="44.18728" lon="3.66925">
        <ele>833.6</ele>
        <time>2013-08-09T10:14:22Z</time>
      </trkpt>
      <trkpt lat="44.18748" lon="3.66915">
        <ele>833.6</ele>
        <time>2013-08-09T10:14:23Z</time>
      </trkpt>
      <trkpt lat="44.18769" lon="3.66908">
        <ele>833.12</ele>
        <time>2013-08-09T10:14:24Z</time>
      </trkpt>
      <trkpt lat="44.18789" lon="3.66911">
        <ele>832.64</ele>
        <time>2013-08-09T10:14:25Z</time>
      </trkpt>
      <trkpt lat="44.1881" lon="3.66912">
        <ele>833.6</ele>
        <time>2013-08-09T10:14:26Z</time>
      </trkpt>
      <trkpt lat="44.18831" lon="3.6692">
        <ele>833.12</ele>
        <time>2013-08-09T10:14:27Z</time>
      </trkpt>
      <trkpt lat="44.18851" lon="3.66924">
        <ele>832.16</ele>
        <time>2013-08-09T10:14:28Z</time>
      </trkpt>
      <trkpt lat="44.18872" lon="3.66925">
        <ele>831.2</ele>
        <time>2013-08-09T10:14:29Z</time>
      </trkpt>
      <trkpt lat="44.18894" lon="3.6692">
        <ele>830.24</ele>
        <time>2013-08-09T10:14:30Z</time>
      </trkpt>
      <trkpt lat="44.19108" lon="3.66845">
        <ele>822.06</ele>
        <time>2013-08-09T10:14:39Z</time>
      </trkpt>
      <trkpt lat="44.19251" lon="3.6676">
        <ele>817.74</ele>
        <time>2013-08-09T10:14:46Z</time>
      </trkpt>
      <trkpt lat="44.19267" lon="3.66744">
        <ele>817.26</ele>
        <time>2013-08-09T10:14:47Z</time>
      </trkpt>
      <trkpt lat="44.1928" lon="3.66726">
        <ele>816.3</ele>
        <time>2013-08-09T10:14:48Z</time>
      </trkpt>
      <trkpt lat="44.19326" lon="3.66644">
        <ele>814.37</ele>
        <time>2013-08-09T10:14:53Z</time>
      </trkpt>
      <trkpt lat="44.19332" lon="3.66627">
        <ele>813.41</ele>
        <time>2013-08-09T10:14:54Z</time>
      </trkpt>
      <trkpt lat="44.19337" lon="3.66607">
        <ele>812.93</ele>
        <time>2013-08-09T10:14:55Z</time>
      </trkpt>
      <trkpt lat="44.19341" lon="3.66585">
        <ele>811.97</ele>
        <time>2013-08-09T10:14:56Z</time>
      </trkpt>
      <trkpt lat="44.19343" lon="3.66562">
        <ele>811.01</ele>
        <time>2013-08-09T10:14:57Z</time>
      </trkpt>
      <trkpt lat="44.19345" lon="3.6654">
        <ele>810.05</ele>
        <time>2013-08-09T10:14:58Z</time>
      </trkpt>
      <trkpt lat="44.19345" lon="3.66363">
        <ele>801.88</ele>
        <time>2013-08-09T10:15:05Z</time>
      </trkpt>
      <trkpt lat="44.19343" lon="3.66306">
        <ele>799.95</ele>
        <time>2013-08-09T10:15:07Z</time>
      </trkpt>
      <trkpt lat="44.19345" lon="3.66277">
        <ele>798.99</ele>
        <time>2013-08-09T10:15:08Z</time>
      </trkpt>
      <trkpt lat="44.19348" lon="3.66246">
        <ele>797.55</ele>
        <time>2013-08-09T10:15:09Z</time>
      </trkpt>
      <trkpt lat="44.19382" lon="3.6604">
        <ele>788.9</ele>
        <time>2013-08-09T10:15:16Z</time>
      </trkpt>
      <trkpt lat="44.19391" lon="3.66014">
        <ele>787.94</ele>
        <time>2013-08-09T10:15:17Z</time>
      </trkpt>
      <trkpt lat="44.19403" lon="3.65989">
        <ele>787.46</ele>
        <time>2013-08-09T10:15:18Z</time>
      </trkpt>
      <trkpt lat="44.19483" lon="3.65812">
        <ele>781.21</ele>
        <time>2013-08-09T10:15:26Z</time>
      </trkpt>
      <trkpt lat="44.19488" lon="3.65793">
        <ele>780.73</ele>
        <time>2013-08-09T10:15:27Z</time>
      </trkpt>
      <trkpt lat="44.19491" lon="3.65775">
        <ele>779.77</ele>
        <time>2013-08-09T10:15:28Z</time>
      </trkpt>
      <trkpt lat="44.19493" lon="3.65758">
        <ele>778.81</ele>
        <time>2013-08-09T10:15:29Z</time>
      </trkpt>
      <trkpt lat="44.19495" lon="3.65742">
        <ele>778.32</ele>
        <time>2013-08-09T10:15:30Z</time>
      </trkpt>
      <trkpt lat="44.19498" lon="3.65684">
        <ele>774.96</ele>
        <time>2013-08-09T10:15:36Z</time>
      </trkpt>
      <trkpt lat="44.19515" lon="3.65531">
        <ele>771.11</ele>
        <time>2013-08-09T10:15:47Z</time>
      </trkpt>
      <trkpt lat="44.1952" lon="3.65415">
        <ele>774.96</ele>
        <time>2013-08-09T10:15:57Z</time>
      </trkpt>
      <trkpt lat="44.19514" lon="3.65242">
        <ele>788.42</ele>
        <time>2013-08-09T10:16:08Z</time>
      </trkpt>
      <trkpt lat="44.1951" lon="3.65223">
        <ele>790.82</ele>
        <time>2013-08-09T10:16:09Z</time>
      </trkpt>
      <trkpt lat="44.19505" lon="3.65203">
        <ele>793.22</ele>
        <time>2013-08-09T10:16:10Z</time>
      </trkpt>
      <trkpt lat="44.19464" lon="3.65076">
        <ele>808.13</ele>
        <time>2013-08-09T10:16:16Z</time>
      </trkpt>
      <trkpt lat="44.19455" lon="3.65059">
        <ele>810.53</ele>
        <time>2013-08-09T10:16:17Z</time>
      </trkpt>
      <trkpt lat="44.19444" lon="3.65044">
        <ele>811.97</ele>
        <time>2013-08-09T10:16:18Z</time>
      </trkpt>
      <trkpt lat="44.19433" lon="3.65029">
        <ele>813.89</ele>
        <time>2013-08-09T10:16:19Z</time>
      </trkpt>
      <trkpt lat="44.19424" lon="3.65012">
        <ele>815.34</ele>
        <time>2013-08-09T10:16:20Z</time>
      </trkpt>
      <trkpt lat="44.19417" lon="3.64992">
        <ele>817.26</ele>
        <time>2013-08-09T10:16:21Z</time>
      </trkpt>
      <trkpt lat="44.19412" lon="3.6497">
        <ele>819.18</ele>
        <time>2013-08-09T10:16:22Z</time>
      </trkpt>
      <trkpt lat="44.19408" lon="3.64949">
        <ele>821.1</ele>
        <time>2013-08-09T10:16:23Z</time>
      </trkpt>
      <trkpt lat="44.19406" lon="3.6493">
        <ele>823.03</ele>
        <time>2013-08-09T10:16:24Z</time>
      </trkpt>
      <trkpt lat="44.19399" lon="3.64901">
        <ele>826.39</ele>
        <time>2013-08-09T10:16:26Z</time>
      </trkpt>
      <trkpt lat="44.19393" lon="3.64894">
        <ele>827.83</ele>
        <time>2013-08-09T10:16:27Z</time>
      </trkpt>
      <trkpt lat="44.19386" lon="3.64893">
        <ele>828.79</ele>
        <time>2013-08-09T10:16:28Z</time>
      </trkpt>
      <trkpt lat="44.19376" lon="3.64898">
        <ele>830.72</ele>
        <time>2013-08-09T10:16:29Z</time>
      </trkpt>
      <trkpt lat="44.19366" lon="3.64905">
        <ele>831.2</ele>
        <time>2013-08-09T10:16:30Z</time>
      </trkpt>
      <trkpt lat="44.19358" lon="3.6491">
        <ele>831.68</ele>
        <time>2013-08-09T10:16:31Z</time>
      </trkpt>
      <trkpt lat="44.19351" lon="3.64913">
        <ele>832.16</ele>
        <time>2013-08-09T10:16:32Z</time>
      </trkpt>
      <trkpt lat="44.19346" lon="3.64911">
        <ele>832.64</ele>
        <time>2013-08-09T10:16:33Z</time>
      </trkpt>
      <trkpt lat="44.19344" lon="3.64906">
        <ele>833.12</ele>
        <time>2013-08-09T10:16:34Z</time>
      </trkpt>
      <trkpt lat="44.19345" lon="3.649">
        <ele>834.08</ele>
        <time>2013-08-09T10:16:35Z</time>
      </trkpt>
      <trkpt lat="44.19352" lon="3.64892">
        <ele>835.04</ele>
        <time>2013-08-09T10:16:36Z</time>
      </trkpt>
      <trkpt lat="44.19361" lon="3.64886">
        <ele>836</ele>
        <time>2013-08-09T10:16:37Z</time>
      </trkpt>
      <trkpt lat="44.19373" lon="3.64879">
        <ele>836.96</ele>
        <time>2013-08-09T10:16:38Z</time>
      </trkpt>
      <trkpt lat="44.19384" lon="3.64871">
        <ele>837.93</ele>
        <time>2013-08-09T10:16:39Z</time>
      </trkpt>
      <trkpt lat="44.19403" lon="3.6486">
        <ele>839.37</ele>
        <time>2013-08-09T10:16:41Z</time>
      </trkpt>
      <trkpt lat="44.19413" lon="3.64863">
        <ele>840.33</ele>
        <time>2013-08-09T10:16:42Z</time>
      </trkpt>
      <trkpt lat="44.1942" lon="3.64875">
        <ele>841.77</ele>
        <time>2013-08-09T10:16:43Z</time>
      </trkpt>
      <trkpt lat="44.19425" lon="3.6489">
        <ele>841.77</ele>
        <time>2013-08-09T10:16:44Z</time>
      </trkpt>
      <trkpt lat="44.19431" lon="3.64906">
        <ele>842.25</ele>
        <time>2013-08-09T10:16:45Z</time>
      </trkpt>
      <trkpt lat="44.19438" lon="3.64921">
        <ele>842.73</ele>
        <time>2013-08-09T10:16:46Z</time>
      </trkpt>
      <trkpt lat="44.19446" lon="3.64935">
        <ele>843.69</ele>
        <time>2013-08-09T10:16:47Z</time>
      </trkpt>
      <trkpt lat="44.19456" lon="3.64945">
        <ele>844.66</ele>
        <time>2013-08-09T10:16:48Z</time>
      </trkpt>
      <trkpt lat="44.19467" lon="3.64951">
        <ele>845.14</ele>
        <time>2013-08-09T10:16:49Z</time>
      </trkpt>
      <trkpt lat="44.19478" lon="3.64954">
        <ele>846.1</ele>
        <time>2013-08-09T10:16:50Z</time>
      </trkpt>
      <trkpt lat="44.19489" lon="3.6495">
        <ele>846.58</ele>
        <time>2013-08-09T10:16:51Z</time>
      </trkpt>
      <trkpt lat="44.19497" lon="3.64943">
        <ele>847.54</ele>
        <time>2013-08-09T10:16:52Z</time>
      </trkpt>
      <trkpt lat="44.19501" lon="3.64933">
        <ele>848.02</ele>
        <time>2013-08-09T10:16:53Z</time>
      </trkpt>
      <trkpt lat="44.19502" lon="3.64919">
        <ele>848.98</ele>
        <time>2013-08-09T10:16:54Z</time>
      </trkpt>
      <trkpt lat="44.195" lon="3.64904">
        <ele>849.94</ele>
        <time>2013-08-09T10:16:55Z</time>
      </trkpt>
      <trkpt lat="44.19497" lon="3.6489">
        <ele>850.42</ele>
        <time>2013-08-09T10:16:56Z</time>
      </trkpt>
      <trkpt lat="44.19491" lon="3.64876">
        <ele>851.87</ele>
        <time>2013-08-09T10:16:57Z</time>
      </trkpt>
      <trkpt lat="44.19486" lon="3.64861">
        <ele>853.31</ele>
        <time>2013-08-09T10:16:58Z</time>
      </trkpt>
      <trkpt lat="44.1947" lon="3.64811">
        <ele>857.15</ele>
        <time>2013-08-09T10:17:02Z</time>
      </trkpt>
      <trkpt lat="44.19466" lon="3.64802">
        <ele>858.59</ele>
        <time>2013-08-09T10:17:03Z</time>
      </trkpt>
      <trkpt lat="44.19458" lon="3.64798">
        <ele>860.04</ele>
        <time>2013-08-09T10:17:04Z</time>
      </trkpt>
      <trkpt lat="44.19446" lon="3.64798">
        <ele>860.52</ele>
        <time>2013-08-09T10:17:05Z</time>
      </trkpt>
      <trkpt lat="44.19433" lon="3.64799">
        <ele>861.96</ele>
        <time>2013-08-09T10:17:06Z</time>
      </trkpt>
      <trkpt lat="44.19417" lon="3.64798">
        <ele>862.92</ele>
        <time>2013-08-09T10:17:07Z</time>
      </trkpt>
      <trkpt lat="44.19402" lon="3.64796">
        <ele>864.36</ele>
        <time>2013-08-09T10:17:08Z</time>
      </trkpt>
      <trkpt lat="44.19388" lon="3.64791">
        <ele>865.32</ele>
        <time>2013-08-09T10:17:09Z</time>
      </trkpt>
      <trkpt lat="44.19375" lon="3.64781">
        <ele>866.77</ele>
        <time>2013-08-09T10:17:10Z</time>
      </trkpt>
      <trkpt lat="44.19364" lon="3.64765">
        <ele>868.21</ele>
        <time>2013-08-09T10:17:11Z</time>
      </trkpt>
      <trkpt lat="44.19354" lon="3.64747">
        <ele>869.65</ele>
        <time>2013-08-09T10:17:12Z</time>
      </trkpt>
      <trkpt lat="44.19344" lon="3.6473">
        <ele>871.57</ele>
        <time>2013-08-09T10:17:13Z</time>
      </trkpt>
      <trkpt lat="44.19333" lon="3.64715">
        <ele>873.01</ele>
        <time>2013-08-09T10:17:14Z</time>
      </trkpt>
      <trkpt lat="44.19319" lon="3.64703">
        <ele>874.94</ele>
        <time>2013-08-09T10:17:15Z</time>
      </trkpt>
      <trkpt lat="44.19305" lon="3.64694">
        <ele>876.38</ele>
        <time>2013-08-09T10:17:16Z</time>
      </trkpt>
      <trkpt lat="44.1929" lon="3.64691">
        <ele>877.82</ele>
        <time>2013-08-09T10:17:17Z</time>
      </trkpt>
      <trkpt lat="44.19274" lon="3.64694">
        <ele>879.74</ele>
        <time>2013-08-09T10:17:18Z</time>
      </trkpt>
      <trkpt lat="44.19259" lon="3.64697">
        <ele>881.67</ele>
        <time>2013-08-09T10:17:19Z</time>
      </trkpt>
      <trkpt lat="44.19245" lon="3.647">
        <ele>883.11</ele>
        <time>2013-08-09T10:17:20Z</time>
      </trkpt>
      <trkpt lat="44.1922" lon="3.64701">
        <ele>885.99</ele>
        <time>2013-08-09T10:17:22Z</time>
      </trkpt>
      <trkpt lat="44.1921" lon="3.64694">
        <ele>887.43</ele>
        <time>2013-08-09T10:17:23Z</time>
      </trkpt>
      <trkpt lat="44.19201" lon="3.64683">
        <ele>888.88</ele>
        <time>2013-08-09T10:17:24Z</time>
      </trkpt>
      <trkpt lat="44.19195" lon="3.64669">
        <ele>889.84</ele>
        <time>2013-08-09T10:17:25Z</time>
      </trkpt>
      <trkpt lat="44.19192" lon="3.64652">
        <ele>891.28</ele>
        <time>2013-08-09T10:17:26Z</time>
      </trkpt>
      <trkpt lat="44.19193" lon="3.64637">
        <ele>892.24</ele>
        <time>2013-08-09T10:17:27Z</time>
      </trkpt>
      <trkpt lat="44.19198" lon="3.64624">
        <ele>893.2</ele>
        <time>2013-08-09T10:17:28Z</time>
      </trkpt>
      <trkpt lat="44.19207" lon="3.64612">
        <ele>894.64</ele>
        <time>2013-08-09T10:17:29Z</time>
      </trkpt>
      <trkpt lat="44.19218" lon="3.646">
        <ele>895.61</ele>
        <time>2013-08-09T10:17:30Z</time>
      </trkpt>
      <trkpt lat="44.19231" lon="3.64588">
        <ele>897.53</ele>
        <time>2013-08-09T10:17:31Z</time>
      </trkpt>
      <trkpt lat="44.19243" lon="3.64576">
        <ele>898.49</ele>
        <time>2013-08-09T10:17:32Z</time>
      </trkpt>
      <trkpt lat="44.1931" lon="3.64502">
        <ele>905.7</ele>
        <time>2013-08-09T10:17:39Z</time>
      </trkpt>
      <trkpt lat="44.1932" lon="3.64495">
        <ele>906.18</ele>
        <time>2013-08-09T10:17:40Z</time>
      </trkpt>
      <trkpt lat="44.1933" lon="3.64492">
        <ele>907.14</ele>
        <time>2013-08-09T10:17:41Z</time>
      </trkpt>
      <trkpt lat="44.19341" lon="3.64493">
        <ele>907.62</ele>
        <time>2013-08-09T10:17:42Z</time>
      </trkpt>
      <trkpt lat="44.19352" lon="3.64497">
        <ele>907.62</ele>
        <time>2013-08-09T10:17:43Z</time>
      </trkpt>
      <trkpt lat="44.19363" lon="3.64502">
        <ele>908.58</ele>
        <time>2013-08-09T10:17:44Z</time>
      </trkpt>
      <trkpt lat="44.19433" lon="3.64517">
        <ele>911.95</ele>
        <time>2013-08-09T10:17:49Z</time>
      </trkpt>
      <trkpt lat="44.19536" lon="3.64515">
        <ele>916.75</ele>
        <time>2013-08-09T10:17:54Z</time>
      </trkpt>
      <trkpt lat="44.19579" lon="3.64513">
        <ele>918.68</ele>
        <time>2013-08-09T10:17:57Z</time>
      </trkpt>
      <trkpt lat="44.19589" lon="3.64506">
        <ele>919.16</ele>
        <time>2013-08-09T10:17:58Z</time>
      </trkpt>
      <trkpt lat="44.19596" lon="3.64493">
        <ele>920.12</ele>
        <time>2013-08-09T10:17:59Z</time>
      </trkpt>
      <trkpt lat="44.19603" lon="3.64476">
        <ele>921.08</ele>
        <time>2013-08-09T10:18:00Z</time>
      </trkpt>
      <trkpt lat="44.1961" lon="3.64455">
        <ele>922.04</ele>
        <time>2013-08-09T10:18:01Z</time>
      </trkpt>
      <trkpt lat="44.19615" lon="3.64431">
        <ele>923.48</ele>
        <time>2013-08-09T10:18:02Z</time>
      </trkpt>
      <trkpt lat="44.19619" lon="3.64406">
        <ele>924.93</ele>
        <time>2013-08-09T10:18:03Z</time>
      </trkpt>
      <trkpt lat="44.19623" lon="3.64379">
        <ele>926.37</ele>
        <time>2013-08-09T10:18:04Z</time>
      </trkpt>
      <trkpt lat="44.19667" lon="3.64108">
        <ele>944.63</ele>
        <time>2013-08-09T10:18:14Z</time>
      </trkpt>
      <trkpt lat="44.19673" lon="3.64086">
        <ele>946.56</ele>
        <time>2013-08-09T10:18:15Z</time>
      </trkpt>
      <trkpt lat="44.19681" lon="3.64064">
        <ele>948</ele>
        <time>2013-08-09T10:18:16Z</time>
      </trkpt>
      <trkpt lat="44.19691" lon="3.64043">
        <ele>949.92</ele>
        <time>2013-08-09T10:18:17Z</time>
      </trkpt>
      <trkpt lat="44.19768" lon="3.63857">
        <ele>962.9</ele>
        <time>2013-08-09T10:18:25Z</time>
      </trkpt>
      <trkpt lat="44.19778" lon="3.63817">
        <ele>965.3</ele>
        <time>2013-08-09T10:18:27Z</time>
      </trkpt>
      <trkpt lat="44.19779" lon="3.63798">
        <ele>966.74</ele>
        <time>2013-08-09T10:18:28Z</time>
      </trkpt>
      <trkpt lat="44.19777" lon="3.63779">
        <ele>967.7</ele>
        <time>2013-08-09T10:18:29Z</time>
      </trkpt>
      <trkpt lat="44.19771" lon="3.63762">
        <ele>969.15</ele>
        <time>2013-08-09T10:18:30Z</time>
      </trkpt>
      <trkpt lat="44.19764" lon="3.63748">
        <ele>970.11</ele>
        <time>2013-08-09T10:18:31Z</time>
      </trkpt>
      <trkpt lat="44.19756" lon="3.63736">
        <ele>971.07</ele>
        <time>2013-08-09T10:18:32Z</time>
      </trkpt>
      <trkpt lat="44.19742" lon="3.63712">
        <ele>972.99</ele>
        <time>2013-08-09T10:18:35Z</time>
      </trkpt>
      <trkpt lat="44.19741" lon="3.63706">
        <ele>973.95</ele>
        <time>2013-08-09T10:18:36Z</time>
      </trkpt>
      <trkpt lat="44.19744" lon="3.63705">
        <ele>974.43</ele>
        <time>2013-08-09T10:18:37Z</time>
      </trkpt>
      <trkpt lat="44.19749" lon="3.63708">
        <ele>974.91</ele>
        <time>2013-08-09T10:18:38Z</time>
      </trkpt>
      <trkpt lat="44.19754" lon="3.63713">
        <ele>974.91</ele>
        <time>2013-08-09T10:18:39Z</time>
      </trkpt>
      <trkpt lat="44.19759" lon="3.63723">
        <ele>976.36</ele>
        <time>2013-08-09T10:18:40Z</time>
      </trkpt>
      <trkpt lat="44.19764" lon="3.63735">
        <ele>976.84</ele>
        <time>2013-08-09T10:18:41Z</time>
      </trkpt>
      <trkpt lat="44.19771" lon="3.63748">
        <ele>977.8</ele>
        <time>2013-08-09T10:18:42Z</time>
      </trkpt>
      <trkpt lat="44.1978" lon="3.63759">
        <ele>978.76</ele>
        <time>2013-08-09T10:18:43Z</time>
      </trkpt>
      <trkpt lat="44.1979" lon="3.63769">
        <ele>980.2</ele>
        <time>2013-08-09T10:18:44Z</time>
      </trkpt>
      <trkpt lat="44.19799" lon="3.6378">
        <ele>981.16</ele>
        <time>2013-08-09T10:18:45Z</time>
      </trkpt>
      <trkpt lat="44.19807" lon="3.63796">
        <ele>982.12</ele>
        <time>2013-08-09T10:18:46Z</time>
      </trkpt>
      <trkpt lat="44.1981" lon="3.63816">
        <ele>983.09</ele>
        <time>2013-08-09T10:18:47Z</time>
      </trkpt>
      <trkpt lat="44.19811" lon="3.63836">
        <ele>984.05</ele>
        <time>2013-08-09T10:18:48Z</time>
      </trkpt>
      <trkpt lat="44.19809" lon="3.63859">
        <ele>985.49</ele>
        <time>2013-08-09T10:18:49Z</time>
      </trkpt>
      <trkpt lat="44.19807" lon="3.63882">
        <ele>986.45</ele>
        <time>2013-08-09T10:18:50Z</time>
      </trkpt>
      <trkpt lat="44.19794" lon="3.63981">
        <ele>992.7</ele>
        <time>2013-08-09T10:18:54Z</time>
      </trkpt>
      <trkpt lat="44.19786" lon="3.64007">
        <ele>994.14</ele>
        <time>2013-08-09T10:18:55Z</time>
      </trkpt>
      <trkpt lat="44.19745" lon="3.64126">
        <ele>1001.83</ele>
        <time>2013-08-09T10:19:01Z</time>
      </trkpt>
      <trkpt lat="44.19744" lon="3.64141">
        <ele>1002.31</ele>
        <time>2013-08-09T10:19:02Z</time>
      </trkpt>
      <trkpt lat="44.19744" lon="3.64156">
        <ele>1003.27</ele>
        <time>2013-08-09T10:19:03Z</time>
      </trkpt>
      <trkpt lat="44.19747" lon="3.64171">
        <ele>1004.23</ele>
        <time>2013-08-09T10:19:04Z</time>
      </trkpt>
      <trkpt lat="44.19756" lon="3.64183">
        <ele>1005.2</ele>
        <time>2013-08-09T10:19:05Z</time>
      </trkpt>
      <trkpt lat="44.19766" lon="3.64192">
        <ele>1006.16</ele>
        <time>2013-08-09T10:19:06Z</time>
      </trkpt>
      <trkpt lat="44.19779" lon="3.64199">
        <ele>1007.12</ele>
        <time>2013-08-09T10:19:07Z</time>
      </trkpt>
      <trkpt lat="44.19792" lon="3.642">
        <ele>1008.08</ele>
        <time>2013-08-09T10:19:08Z</time>
      </trkpt>
      <trkpt lat="44.19806" lon="3.64198">
        <ele>1008.56</ele>
        <time>2013-08-09T10:19:09Z</time>
      </trkpt>
      <trkpt lat="44.19818" lon="3.64191">
        <ele>1010</ele>
        <time>2013-08-09T10:19:10Z</time>
      </trkpt>
      <trkpt lat="44.19831" lon="3.64179">
        <ele>1010.96</ele>
        <time>2013-08-09T10:19:11Z</time>
      </trkpt>
      <trkpt lat="44.19844" lon="3.64167">
        <ele>1012.41</ele>
        <time>2013-08-09T10:19:12Z</time>
      </trkpt>
      <trkpt lat="44.19857" lon="3.64152">
        <ele>1013.37</ele>
        <time>2013-08-09T10:19:13Z</time>
      </trkpt>
      <trkpt lat="44.19917" lon="3.64095">
        <ele>1020.1</ele>
        <time>2013-08-09T10:19:17Z</time>
      </trkpt>
      <trkpt lat="44.19934" lon="3.64085">
        <ele>1022.02</ele>
        <time>2013-08-09T10:19:18Z</time>
      </trkpt>
      <trkpt lat="44.19952" lon="3.64078">
        <ele>1023.94</ele>
        <time>2013-08-09T10:19:19Z</time>
      </trkpt>
      <trkpt lat="44.19972" lon="3.64074">
        <ele>1025.38</ele>
        <time>2013-08-09T10:19:20Z</time>
      </trkpt>
      <trkpt lat="44.19993" lon="3.64076">
        <ele>1027.31</ele>
        <time>2013-08-09T10:19:21Z</time>
      </trkpt>
      <trkpt lat="44.20014" lon="3.64079">
        <ele>1029.23</ele>
        <time>2013-08-09T10:19:22Z</time>
      </trkpt>
      <trkpt lat="44.20035" lon="3.64084">
        <ele>1031.15</ele>
        <time>2013-08-09T10:19:23Z</time>
      </trkpt>
      <trkpt lat="44.20179" lon="3.64104">
        <ele>1043.65</ele>
        <time>2013-08-09T10:19:31Z</time>
      </trkpt>
      <trkpt lat="44.20213" lon="3.64096">
        <ele>1046.53</ele>
        <time>2013-08-09T10:19:33Z</time>
      </trkpt>
      <trkpt lat="44.20229" lon="3.64088">
        <ele>1047.97</ele>
        <time>2013-08-09T10:19:34Z</time>
      </trkpt>
      <trkpt lat="44.20244" lon="3.64077">
        <ele>1048.94</ele>
        <time>2013-08-09T10:19:35Z</time>
      </trkpt>
      <trkpt lat="44.20258" lon="3.64062">
        <ele>1049.42</ele>
        <time>2013-08-09T10:19:36Z</time>
      </trkpt>
      <trkpt lat="44.20273" lon="3.64044">
        <ele>1049.42</ele>
        <time>2013-08-09T10:19:37Z</time>
      </trkpt>
      <trkpt lat="44.20288" lon="3.64025">
        <ele>1049.42</ele>
        <time>2013-08-09T10:19:38Z</time>
      </trkpt>
      <trkpt lat="44.20439" lon="3.63829">
        <ele>1047.01</ele>
        <time>2013-08-09T10:19:47Z</time>
      </trkpt>
      <trkpt lat="44.20546" lon="3.63608">
        <ele>1044.61</ele>
        <time>2013-08-09T10:19:55Z</time>
      </trkpt>
      <trkpt lat="44.20601" lon="3.63486">
        <ele>1044.61</ele>
        <time>2013-08-09T10:20:00Z</time>
      </trkpt>
      <trkpt lat="44.20615" lon="3.63465">
        <ele>1044.61</ele>
        <time>2013-08-09T10:20:01Z</time>
      </trkpt>
      <trkpt lat="44.20632" lon="3.63447">
        <ele>1044.61</ele>
        <time>2013-08-09T10:20:02Z</time>
      </trkpt>
      <trkpt lat="44.20651" lon="3.63435">
        <ele>1044.61</ele>
        <time>2013-08-09T10:20:03Z</time>
      </trkpt>
      <trkpt lat="44.20671" lon="3.63425">
        <ele>1044.13</ele>
        <time>2013-08-09T10:20:04Z</time>
      </trkpt>
      <trkpt lat="44.20693" lon="3.63417">
        <ele>1043.65</ele>
        <time>2013-08-09T10:20:05Z</time>
      </trkpt>
      <trkpt lat="44.20715" lon="3.6341">
        <ele>1043.17</ele>
        <time>2013-08-09T10:20:06Z</time>
      </trkpt>
      <trkpt lat="44.20851" lon="3.63338">
        <ele>1041.25</ele>
        <time>2013-08-09T10:20:13Z</time>
      </trkpt>
      <trkpt lat="44.20894" lon="3.63302">
        <ele>1041.73</ele>
        <time>2013-08-09T10:20:16Z</time>
      </trkpt>
      <trkpt lat="44.20908" lon="3.63285">
        <ele>1041.73</ele>
        <time>2013-08-09T10:20:17Z</time>
      </trkpt>
      <trkpt lat="44.2092" lon="3.63266">
        <ele>1041.73</ele>
        <time>2013-08-09T10:20:18Z</time>
      </trkpt>
      <trkpt lat="44.20956" lon="3.63199">
        <ele>1042.21</ele>
        <time>2013-08-09T10:20:23Z</time>
      </trkpt>
      <trkpt lat="44.2096" lon="3.63192">
        <ele>1042.21</ele>
        <time>2013-08-09T10:20:29Z</time>
      </trkpt>
      <trkpt lat="44.20976" lon="3.63155">
        <ele>1042.69</ele>
        <time>2013-08-09T10:21:42Z</time>
      </trkpt>
      <trkpt lat="44.21031" lon="3.6304">
        <ele>1042.69</ele>
        <time>2013-08-09T10:21:49Z</time>
      </trkpt>
      <trkpt lat="44.21131" lon="3.62904">
        <ele>1037.88</ele>
        <time>2013-08-09T10:21:56Z</time>
      </trkpt>
      <trkpt lat="44.21282" lon="3.62762">
        <ele>1038.36</ele>
        <time>2013-08-09T10:22:05Z</time>
      </trkpt>
      <trkpt lat="44.21497" lon="3.62642">
        <ele>1038.84</ele>
        <time>2013-08-09T10:22:16Z</time>
      </trkpt>
      <trkpt lat="44.21821" lon="3.62431">
        <ele>1038.36</ele>
        <time>2013-08-09T10:22:31Z</time>
      </trkpt>
      <trkpt lat="44.22126" lon="3.62228">
        <ele>1040.28</ele>
        <time>2013-08-09T10:22:45Z</time>
      </trkpt>
      <trkpt lat="44.22379" lon="3.62036">
        <ele>1042.21</ele>
        <time>2013-08-09T10:22:57Z</time>
      </trkpt>
      <trkpt lat="44.22615" lon="3.61906">
        <ele>1046.53</ele>
        <time>2013-08-09T10:23:08Z</time>
      </trkpt>
      <trkpt lat="44.22778" lon="3.61857">
        <ele>1051.34</ele>
        <time>2013-08-09T10:23:16Z</time>
      </trkpt>
      <trkpt lat="44.22906" lon="3.61873">
        <ele>1050.38</ele>
        <time>2013-08-09T10:23:23Z</time>
      </trkpt>
      <trkpt lat="44.23114" lon="3.61897">
        <ele>1039.32</ele>
        <time>2013-08-09T10:23:32Z</time>
      </trkpt>
      <trkpt lat="44.2316" lon="3.61897">
        <ele>1036.92</ele>
        <time>2013-08-09T10:23:34Z</time>
      </trkpt>
      <trkpt lat="44.23183" lon="3.61893">
        <ele>1035.48</ele>
        <time>2013-08-09T10:23:35Z</time>
      </trkpt>
      <trkpt lat="44.23208" lon="3.61884">
        <ele>1034.04</ele>
        <time>2013-08-09T10:23:36Z</time>
      </trkpt>
      <trkpt lat="44.23425" lon="3.61787">
        <ele>1027.31</ele>
        <time>2013-08-09T10:23:45Z</time>
      </trkpt>
      <trkpt lat="44.23621" lon="3.61719">
        <ele>1023.94</ele>
        <time>2013-08-09T10:23:54Z</time>
      </trkpt>
      <trkpt lat="44.23738" lon="3.61711">
        <ele>1020.1</ele>
        <time>2013-08-09T10:24:00Z</time>
      </trkpt>
      <trkpt lat="44.23886" lon="3.61704">
        <ele>1015.77</ele>
        <time>2013-08-09T10:24:08Z</time>
      </trkpt>
      <trkpt lat="44.24099" lon="3.61677">
        <ele>1018.65</ele>
        <time>2013-08-09T10:24:20Z</time>
      </trkpt>
      <trkpt lat="44.24118" lon="3.61684">
        <ele>1018.65</ele>
        <time>2013-08-09T10:24:21Z</time>
      </trkpt>
      <trkpt lat="44.24136" lon="3.61699">
        <ele>1019.13</ele>
        <time>2013-08-09T10:24:22Z</time>
      </trkpt>
      <trkpt lat="44.24152" lon="3.61718">
        <ele>1019.62</ele>
        <time>2013-08-09T10:24:23Z</time>
      </trkpt>
      <trkpt lat="44.24168" lon="3.61737">
        <ele>1020.1</ele>
        <time>2013-08-09T10:24:24Z</time>
      </trkpt>
      <trkpt lat="44.24185" lon="3.61759">
        <ele>1020.58</ele>
        <time>2013-08-09T10:24:25Z</time>
      </trkpt>
      <trkpt lat="44.24282" lon="3.61929">
        <ele>1022.98</ele>
        <time>2013-08-09T10:24:31Z</time>
      </trkpt>
      <trkpt lat="44.24402" lon="3.62139">
        <ele>1019.13</ele>
        <time>2013-08-09T10:24:39Z</time>
      </trkpt>
      <trkpt lat="44.2442" lon="3.62158">
        <ele>1018.17</ele>
        <time>2013-08-09T10:24:40Z</time>
      </trkpt>
      <trkpt lat="44.24442" lon="3.62171">
        <ele>1017.21</ele>
        <time>2013-08-09T10:24:41Z</time>
      </trkpt>
      <trkpt lat="44.24465" lon="3.62184">
        <ele>1016.25</ele>
        <time>2013-08-09T10:24:42Z</time>
      </trkpt>
      <trkpt lat="44.24488" lon="3.62197">
        <ele>1015.29</ele>
        <time>2013-08-09T10:24:43Z</time>
      </trkpt>
      <trkpt lat="44.2451" lon="3.62214">
        <ele>1014.33</ele>
        <time>2013-08-09T10:24:44Z</time>
      </trkpt>
      <trkpt lat="44.24532" lon="3.62237">
        <ele>1013.85</ele>
        <time>2013-08-09T10:24:45Z</time>
      </trkpt>
      <trkpt lat="44.24551" lon="3.62262">
        <ele>1013.37</ele>
        <time>2013-08-09T10:24:46Z</time>
      </trkpt>
      <trkpt lat="44.24709" lon="3.6251">
        <ele>1018.65</ele>
        <time>2013-08-09T10:24:55Z</time>
      </trkpt>
      <trkpt lat="44.24764" lon="3.62587">
        <ele>1022.02</ele>
        <time>2013-08-09T10:24:59Z</time>
      </trkpt>
      <trkpt lat="44.24778" lon="3.62601">
        <ele>1022.5</ele>
        <time>2013-08-09T10:25:00Z</time>
      </trkpt>
      <trkpt lat="44.24795" lon="3.62607">
        <ele>1023.46</ele>
        <time>2013-08-09T10:25:01Z</time>
      </trkpt>
      <trkpt lat="44.24812" lon="3.62611">
        <ele>1023.94</ele>
        <time>2013-08-09T10:25:02Z</time>
      </trkpt>
      <trkpt lat="44.24832" lon="3.62609">
        <ele>1024.9</ele>
        <time>2013-08-09T10:25:03Z</time>
      </trkpt>
      <trkpt lat="44.24851" lon="3.62604">
        <ele>1025.38</ele>
        <time>2013-08-09T10:25:04Z</time>
      </trkpt>
      <trkpt lat="44.2487" lon="3.62595">
        <ele>1026.34</ele>
        <time>2013-08-09T10:25:05Z</time>
      </trkpt>
      <trkpt lat="44.2489" lon="3.62584">
        <ele>1026.83</ele>
        <time>2013-08-09T10:25:06Z</time>
      </trkpt>
      <trkpt lat="44.24909" lon="3.62571">
        <ele>1027.79</ele>
        <time>2013-08-09T10:25:07Z</time>
      </trkpt>
      <trkpt lat="44.25128" lon="3.6244">
        <ele>1031.63</ele>
        <time>2013-08-09T10:25:17Z</time>
      </trkpt>
      <trkpt lat="44.25373" lon="3.62336">
        <ele>1032.59</ele>
        <time>2013-08-09T10:25:27Z</time>
      </trkpt>
      <trkpt lat="44.25758" lon="3.6223">
        <ele>1018.65</ele>
        <time>2013-08-09T10:25:42Z</time>
      </trkpt>
      <trkpt lat="44.25893" lon="3.62198">
        <ele>1006.16</ele>
        <time>2013-08-09T10:25:48Z</time>
      </trkpt>
      <trkpt lat="44.25915" lon="3.62199">
        <ele>1003.75</ele>
        <time>2013-08-09T10:25:49Z</time>
      </trkpt>
      <trkpt lat="44.25937" lon="3.62204">
        <ele>1001.35</ele>
        <time>2013-08-09T10:25:50Z</time>
      </trkpt>
      <trkpt lat="44.2603" lon="3.62228">
        <ele>991.26</ele>
        <time>2013-08-09T10:25:55Z</time>
      </trkpt>
      <trkpt lat="44.26045" lon="3.62225">
        <ele>988.85</ele>
        <time>2013-08-09T10:25:56Z</time>
      </trkpt>
      <trkpt lat="44.26059" lon="3.62217">
        <ele>986.93</ele>
        <time>2013-08-09T10:25:57Z</time>
      </trkpt>
      <trkpt lat="44.26073" lon="3.62204">
        <ele>984.53</ele>
        <time>2013-08-09T10:25:58Z</time>
      </trkpt>
      <trkpt lat="44.26088" lon="3.62188">
        <ele>982.12</ele>
        <time>2013-08-09T10:25:59Z</time>
      </trkpt>
      <trkpt lat="44.26103" lon="3.6217">
        <ele>980.2</ele>
        <time>2013-08-09T10:26:00Z</time>
      </trkpt>
      <trkpt lat="44.26238" lon="3.62006">
        <ele>962.9</ele>
        <time>2013-08-09T10:26:08Z</time>
      </trkpt>
      <trkpt lat="44.26273" lon="3.61969">
        <ele>959.53</ele>
        <time>2013-08-09T10:26:10Z</time>
      </trkpt>
      <trkpt lat="44.26335" lon="3.6193">
        <ele>952.8</ele>
        <time>2013-08-09T10:26:14Z</time>
      </trkpt>
      <trkpt lat="44.26348" lon="3.61928">
        <ele>950.88</ele>
        <time>2013-08-09T10:26:15Z</time>
      </trkpt>
      <trkpt lat="44.26373" lon="3.61927">
        <ele>948</ele>
        <time>2013-08-09T10:26:17Z</time>
      </trkpt>
      <trkpt lat="44.26384" lon="3.61931">
        <ele>946.56</ele>
        <time>2013-08-09T10:26:18Z</time>
      </trkpt>
      <trkpt lat="44.26395" lon="3.61932">
        <ele>945.59</ele>
        <time>2013-08-09T10:26:19Z</time>
      </trkpt>
      <trkpt lat="44.26405" lon="3.61929">
        <ele>943.67</ele>
        <time>2013-08-09T10:26:20Z</time>
      </trkpt>
      <trkpt lat="44.26414" lon="3.61922">
        <ele>942.23</ele>
        <time>2013-08-09T10:26:21Z</time>
      </trkpt>
      <trkpt lat="44.26419" lon="3.61909">
        <ele>941.27</ele>
        <time>2013-08-09T10:26:22Z</time>
      </trkpt>
      <trkpt lat="44.26423" lon="3.61893">
        <ele>939.83</ele>
        <time>2013-08-09T10:26:23Z</time>
      </trkpt>
      <trkpt lat="44.26426" lon="3.61871">
        <ele>939.35</ele>
        <time>2013-08-09T10:26:24Z</time>
      </trkpt>
      <trkpt lat="44.2643" lon="3.61849">
        <ele>937.9</ele>
        <time>2013-08-09T10:26:25Z</time>
      </trkpt>
      <trkpt lat="44.26435" lon="3.61804">
        <ele>935.02</ele>
        <time>2013-08-09T10:26:27Z</time>
      </trkpt>
      <trkpt lat="44.26434" lon="3.6178">
        <ele>933.58</ele>
        <time>2013-08-09T10:26:28Z</time>
      </trkpt>
      <trkpt lat="44.26431" lon="3.61755">
        <ele>932.14</ele>
        <time>2013-08-09T10:26:29Z</time>
      </trkpt>
      <trkpt lat="44.26424" lon="3.6169">
        <ele>929.73</ele>
        <time>2013-08-09T10:26:32Z</time>
      </trkpt>
      <trkpt lat="44.26425" lon="3.61671">
        <ele>928.77</ele>
        <time>2013-08-09T10:26:33Z</time>
      </trkpt>
      <trkpt lat="44.26427" lon="3.61653">
        <ele>927.81</ele>
        <time>2013-08-09T10:26:34Z</time>
      </trkpt>
      <trkpt lat="44.26431" lon="3.61636">
        <ele>927.81</ele>
        <time>2013-08-09T10:26:35Z</time>
      </trkpt>
      <trkpt lat="44.26436" lon="3.6162">
        <ele>926.85</ele>
        <time>2013-08-09T10:26:36Z</time>
      </trkpt>
      <trkpt lat="44.26443" lon="3.61604">
        <ele>925.89</ele>
        <time>2013-08-09T10:26:37Z</time>
      </trkpt>
      <trkpt lat="44.26451" lon="3.61587">
        <ele>925.41</ele>
        <time>2013-08-09T10:26:38Z</time>
      </trkpt>
      <trkpt lat="44.26516" lon="3.61448">
        <ele>916.27</ele>
        <time>2013-08-09T10:26:48Z</time>
      </trkpt>
      <trkpt lat="44.2657" lon="3.61357">
        <ele>911.47</ele>
        <time>2013-08-09T10:26:53Z</time>
      </trkpt>
      <trkpt lat="44.26687" lon="3.61161">
        <ele>898.97</ele>
        <time>2013-08-09T10:27:01Z</time>
      </trkpt>
      <trkpt lat="44.26764" lon="3.61037">
        <ele>890.32</ele>
        <time>2013-08-09T10:27:07Z</time>
      </trkpt>
      <trkpt lat="44.26768" lon="3.61019">
        <ele>889.36</ele>
        <time>2013-08-09T10:27:08Z</time>
      </trkpt>
      <trkpt lat="44.26766" lon="3.60998">
        <ele>888.4</ele>
        <time>2013-08-09T10:27:09Z</time>
      </trkpt>
      <trkpt lat="44.26763" lon="3.60975">
        <ele>887.43</ele>
        <time>2013-08-09T10:27:10Z</time>
      </trkpt>
      <trkpt lat="44.26762" lon="3.60952">
        <ele>886.47</ele>
        <time>2013-08-09T10:27:11Z</time>
      </trkpt>
      <trkpt lat="44.26764" lon="3.60927">
        <ele>885.51</ele>
        <time>2013-08-09T10:27:12Z</time>
      </trkpt>
      <trkpt lat="44.26768" lon="3.60904">
        <ele>884.55</ele>
        <time>2013-08-09T10:27:13Z</time>
      </trkpt>
      <trkpt lat="44.26774" lon="3.60883">
        <ele>883.59</ele>
        <time>2013-08-09T10:27:14Z</time>
      </trkpt>
      <trkpt lat="44.26783" lon="3.60864">
        <ele>883.11</ele>
        <time>2013-08-09T10:27:15Z</time>
      </trkpt>
      <trkpt lat="44.26796" lon="3.60845">
        <ele>882.15</ele>
        <time>2013-08-09T10:27:16Z</time>
      </trkpt>
      <trkpt lat="44.26812" lon="3.60828">
        <ele>882.15</ele>
        <time>2013-08-09T10:27:17Z</time>
      </trkpt>
      <trkpt lat="44.2683" lon="3.60813">
        <ele>881.67</ele>
        <time>2013-08-09T10:27:18Z</time>
      </trkpt>
      <trkpt lat="44.26849" lon="3.608">
        <ele>881.67</ele>
        <time>2013-08-09T10:27:19Z</time>
      </trkpt>
      <trkpt lat="44.26868" lon="3.60789">
        <ele>880.71</ele>
        <time>2013-08-09T10:27:20Z</time>
      </trkpt>
      <trkpt lat="44.26919" lon="3.60756">
        <ele>878.78</ele>
        <time>2013-08-09T10:27:23Z</time>
      </trkpt>
      <trkpt lat="44.26934" lon="3.60742">
        <ele>877.82</ele>
        <time>2013-08-09T10:27:24Z</time>
      </trkpt>
      <trkpt lat="44.26947" lon="3.60721">
        <ele>876.86</ele>
        <time>2013-08-09T10:27:25Z</time>
      </trkpt>
      <trkpt lat="44.26958" lon="3.60696">
        <ele>875.9</ele>
        <time>2013-08-09T10:27:26Z</time>
      </trkpt>
      <trkpt lat="44.26967" lon="3.60667">
        <ele>875.42</ele>
        <time>2013-08-09T10:27:27Z</time>
      </trkpt>
      <trkpt lat="44.26974" lon="3.60638">
        <ele>873.5</ele>
        <time>2013-08-09T10:27:28Z</time>
      </trkpt>
      <trkpt lat="44.2698" lon="3.60611">
        <ele>872.05</ele>
        <time>2013-08-09T10:27:29Z</time>
      </trkpt>
      <trkpt lat="44.27004" lon="3.60511">
        <ele>866.77</ele>
        <time>2013-08-09T10:27:33Z</time>
      </trkpt>
      <trkpt lat="44.27014" lon="3.60488">
        <ele>865.32</ele>
        <time>2013-08-09T10:27:34Z</time>
      </trkpt>
      <trkpt lat="44.27026" lon="3.60468">
        <ele>864.36</ele>
        <time>2013-08-09T10:27:35Z</time>
      </trkpt>
      <trkpt lat="44.27039" lon="3.60451">
        <ele>863.4</ele>
        <time>2013-08-09T10:27:36Z</time>
      </trkpt>
      <trkpt lat="44.27052" lon="3.60436">
        <ele>861.96</ele>
        <time>2013-08-09T10:27:37Z</time>
      </trkpt>
      <trkpt lat="44.27065" lon="3.60423">
        <ele>861</ele>
        <time>2013-08-09T10:27:38Z</time>
      </trkpt>
      <trkpt lat="44.27144" lon="3.60319">
        <ele>854.27</ele>
        <time>2013-08-09T10:27:46Z</time>
      </trkpt>
      <trkpt lat="44.27234" lon="3.60172">
        <ele>839.37</ele>
        <time>2013-08-09T10:27:55Z</time>
      </trkpt>
      <trkpt lat="44.27304" lon="3.60034">
        <ele>826.39</ele>
        <time>2013-08-09T10:28:01Z</time>
      </trkpt>
      <trkpt lat="44.27351" lon="3.59948">
        <ele>818.22</ele>
        <time>2013-08-09T10:28:06Z</time>
      </trkpt>
      <trkpt lat="44.27354" lon="3.59933">
        <ele>816.78</ele>
        <time>2013-08-09T10:28:07Z</time>
      </trkpt>
      <trkpt lat="44.27351" lon="3.5992">
        <ele>815.34</ele>
        <time>2013-08-09T10:28:08Z</time>
      </trkpt>
      <trkpt lat="44.27344" lon="3.59907">
        <ele>813.89</ele>
        <time>2013-08-09T10:28:09Z</time>
      </trkpt>
      <trkpt lat="44.27335" lon="3.59895">
        <ele>811.49</ele>
        <time>2013-08-09T10:28:10Z</time>
      </trkpt>
      <trkpt lat="44.27323" lon="3.59885">
        <ele>809.57</ele>
        <time>2013-08-09T10:28:11Z</time>
      </trkpt>
      <trkpt lat="44.2731" lon="3.59879">
        <ele>808.13</ele>
        <time>2013-08-09T10:28:12Z</time>
      </trkpt>
      <trkpt lat="44.27299" lon="3.59874">
        <ele>807.64</ele>
        <time>2013-08-09T10:28:13Z</time>
      </trkpt>
      <trkpt lat="44.27284" lon="3.59868">
        <ele>807.16</ele>
        <time>2013-08-09T10:28:15Z</time>
      </trkpt>
      <trkpt lat="44.27281" lon="3.59864">
        <ele>806.2</ele>
        <time>2013-08-09T10:28:16Z</time>
      </trkpt>
      <trkpt lat="44.27281" lon="3.59859">
        <ele>805.72</ele>
        <time>2013-08-09T10:28:17Z</time>
      </trkpt>
      <trkpt lat="44.27286" lon="3.59856">
        <ele>804.28</ele>
        <time>2013-08-09T10:28:18Z</time>
      </trkpt>
      <trkpt lat="44.27295" lon="3.59855">
        <ele>803.32</ele>
        <time>2013-08-09T10:28:19Z</time>
      </trkpt>
      <trkpt lat="44.27306" lon="3.59857">
        <ele>802.84</ele>
        <time>2013-08-09T10:28:20Z</time>
      </trkpt>
      <trkpt lat="44.27318" lon="3.5986">
        <ele>801.88</ele>
        <time>2013-08-09T10:28:21Z</time>
      </trkpt>
      <trkpt lat="44.27335" lon="3.59857">
        <ele>800.92</ele>
        <time>2013-08-09T10:28:22Z</time>
      </trkpt>
      <trkpt lat="44.27351" lon="3.59853">
        <ele>798.51</ele>
        <time>2013-08-09T10:28:23Z</time>
      </trkpt>
      <trkpt lat="44.27367" lon="3.59844">
        <ele>796.59</ele>
        <time>2013-08-09T10:28:24Z</time>
      </trkpt>
      <trkpt lat="44.27384" lon="3.59835">
        <ele>794.19</ele>
        <time>2013-08-09T10:28:25Z</time>
      </trkpt>
      <trkpt lat="44.27505" lon="3.59751">
        <ele>781.69</ele>
        <time>2013-08-09T10:28:32Z</time>
      </trkpt>
      <trkpt lat="44.27644" lon="3.5963">
        <ele>766.31</ele>
        <time>2013-08-09T10:28:40Z</time>
      </trkpt>
      <trkpt lat="44.27655" lon="3.5961">
        <ele>765.35</ele>
        <time>2013-08-09T10:28:41Z</time>
      </trkpt>
      <trkpt lat="44.27663" lon="3.5959">
        <ele>764.39</ele>
        <time>2013-08-09T10:28:42Z</time>
      </trkpt>
      <trkpt lat="44.27669" lon="3.5957">
        <ele>763.42</ele>
        <time>2013-08-09T10:28:43Z</time>
      </trkpt>
      <trkpt lat="44.27677" lon="3.5955">
        <ele>762.46</ele>
        <time>2013-08-09T10:28:44Z</time>
      </trkpt>
      <trkpt lat="44.27686" lon="3.59529">
        <ele>761.5</ele>
        <time>2013-08-09T10:28:45Z</time>
      </trkpt>
      <trkpt lat="44.27696" lon="3.59509">
        <ele>760.54</ele>
        <time>2013-08-09T10:28:46Z</time>
      </trkpt>
      <trkpt lat="44.27724" lon="3.59458">
        <ele>758.14</ele>
        <time>2013-08-09T10:28:49Z</time>
      </trkpt>
      <trkpt lat="44.27735" lon="3.59445">
        <ele>757.18</ele>
        <time>2013-08-09T10:28:50Z</time>
      </trkpt>
      <trkpt lat="44.27749" lon="3.59438">
        <ele>756.21</ele>
        <time>2013-08-09T10:28:51Z</time>
      </trkpt>
      <trkpt lat="44.27765" lon="3.59434">
        <ele>755.73</ele>
        <time>2013-08-09T10:28:52Z</time>
      </trkpt>
      <trkpt lat="44.27782" lon="3.59431">
        <ele>754.77</ele>
        <time>2013-08-09T10:28:53Z</time>
      </trkpt>
      <trkpt lat="44.27802" lon="3.5943">
        <ele>753.81</ele>
        <time>2013-08-09T10:28:54Z</time>
      </trkpt>
      <trkpt lat="44.27823" lon="3.5943">
        <ele>752.37</ele>
        <time>2013-08-09T10:28:55Z</time>
      </trkpt>
      <trkpt lat="44.27901" lon="3.59438">
        <ele>746.12</ele>
        <time>2013-08-09T10:28:59Z</time>
      </trkpt>
      <trkpt lat="44.2792" lon="3.59437">
        <ele>744.68</ele>
        <time>2013-08-09T10:29:00Z</time>
      </trkpt>
      <trkpt lat="44.27939" lon="3.59432">
        <ele>743.24</ele>
        <time>2013-08-09T10:29:01Z</time>
      </trkpt>
      <trkpt lat="44.27957" lon="3.59423">
        <ele>741.79</ele>
        <time>2013-08-09T10:29:02Z</time>
      </trkpt>
      <trkpt lat="44.27975" lon="3.59414">
        <ele>740.83</ele>
        <time>2013-08-09T10:29:03Z</time>
      </trkpt>
      <trkpt lat="44.28009" lon="3.59399">
        <ele>737.95</ele>
        <time>2013-08-09T10:29:05Z</time>
      </trkpt>
      <trkpt lat="44.28025" lon="3.59394">
        <ele>736.51</ele>
        <time>2013-08-09T10:29:06Z</time>
      </trkpt>
      <trkpt lat="44.2804" lon="3.59394">
        <ele>735.55</ele>
        <time>2013-08-09T10:29:07Z</time>
      </trkpt>
      <trkpt lat="44.28052" lon="3.59396">
        <ele>734.58</ele>
        <time>2013-08-09T10:29:08Z</time>
      </trkpt>
      <trkpt lat="44.28061" lon="3.59403">
        <ele>733.14</ele>
        <time>2013-08-09T10:29:09Z</time>
      </trkpt>
      <trkpt lat="44.28068" lon="3.59414">
        <ele>731.7</ele>
        <time>2013-08-09T10:29:10Z</time>
      </trkpt>
      <trkpt lat="44.28072" lon="3.59429">
        <ele>730.26</ele>
        <time>2013-08-09T10:29:11Z</time>
      </trkpt>
      <trkpt lat="44.28073" lon="3.59448">
        <ele>728.82</ele>
        <time>2013-08-09T10:29:12Z</time>
      </trkpt>
      <trkpt lat="44.28069" lon="3.59469">
        <ele>727.37</ele>
        <time>2013-08-09T10:29:13Z</time>
      </trkpt>
      <trkpt lat="44.28064" lon="3.5949">
        <ele>725.93</ele>
        <time>2013-08-09T10:29:14Z</time>
      </trkpt>
      <trkpt lat="44.28057" lon="3.59511">
        <ele>724.49</ele>
        <time>2013-08-09T10:29:15Z</time>
      </trkpt>
      <trkpt lat="44.28045" lon="3.59531">
        <ele>723.05</ele>
        <time>2013-08-09T10:29:16Z</time>
      </trkpt>
      <trkpt lat="44.28033" lon="3.5955">
        <ele>721.61</ele>
        <time>2013-08-09T10:29:17Z</time>
      </trkpt>
      <trkpt lat="44.28019" lon="3.59568">
        <ele>720.16</ele>
        <time>2013-08-09T10:29:18Z</time>
      </trkpt>
      <trkpt lat="44.28004" lon="3.59585">
        <ele>718.72</ele>
        <time>2013-08-09T10:29:19Z</time>
      </trkpt>
      <trkpt lat="44.27988" lon="3.59599">
        <ele>716.32</ele>
        <time>2013-08-09T10:29:20Z</time>
      </trkpt>
      <trkpt lat="44.27972" lon="3.59611">
        <ele>714.88</ele>
        <time>2013-08-09T10:29:21Z</time>
      </trkpt>
      <trkpt lat="44.27955" lon="3.59622">
        <ele>713.44</ele>
        <time>2013-08-09T10:29:22Z</time>
      </trkpt>
      <trkpt lat="44.27927" lon="3.59646">
        <ele>710.55</ele>
        <time>2013-08-09T10:29:24Z</time>
      </trkpt>
      <trkpt lat="44.27917" lon="3.59663">
        <ele>709.11</ele>
        <time>2013-08-09T10:29:25Z</time>
      </trkpt>
      <trkpt lat="44.27909" lon="3.59682">
        <ele>707.67</ele>
        <time>2013-08-09T10:29:26Z</time>
      </trkpt>
      <trkpt lat="44.27903" lon="3.597">
        <ele>706.71</ele>
        <time>2013-08-09T10:29:27Z</time>
      </trkpt>
      <trkpt lat="44.27893" lon="3.59718">
        <ele>705.26</ele>
        <time>2013-08-09T10:29:28Z</time>
      </trkpt>
      <trkpt lat="44.27879" lon="3.59733">
        <ele>704.3</ele>
        <time>2013-08-09T10:29:29Z</time>
      </trkpt>
      <trkpt lat="44.27864" lon="3.59749">
        <ele>702.86</ele>
        <time>2013-08-09T10:29:30Z</time>
      </trkpt>
      <trkpt lat="44.27847" lon="3.59766">
        <ele>701.9</ele>
        <time>2013-08-09T10:29:31Z</time>
      </trkpt>
      <trkpt lat="44.27831" lon="3.59782">
        <ele>700.94</ele>
        <time>2013-08-09T10:29:32Z</time>
      </trkpt>
      <trkpt lat="44.27788" lon="3.5983">
        <ele>698.05</ele>
        <time>2013-08-09T10:29:35Z</time>
      </trkpt>
      <trkpt lat="44.27776" lon="3.59849">
        <ele>697.09</ele>
        <time>2013-08-09T10:29:36Z</time>
      </trkpt>
      <trkpt lat="44.27765" lon="3.59871">
        <ele>695.65</ele>
        <time>2013-08-09T10:29:37Z</time>
      </trkpt>
      <trkpt lat="44.27673" lon="3.6005">
        <ele>687.48</ele>
        <time>2013-08-09T10:29:46Z</time>
      </trkpt>
      <trkpt lat="44.27658" lon="3.60081">
        <ele>685.56</ele>
        <time>2013-08-09T10:29:49Z</time>
      </trkpt>
      <trkpt lat="44.27658" lon="3.60089">
        <ele>684.6</ele>
        <time>2013-08-09T10:29:50Z</time>
      </trkpt>
      <trkpt lat="44.27661" lon="3.6009">
        <ele>684.12</ele>
        <time>2013-08-09T10:29:51Z</time>
      </trkpt>
      <trkpt lat="44.27669" lon="3.60086">
        <ele>684.12</ele>
        <time>2013-08-09T10:29:52Z</time>
      </trkpt>
      <trkpt lat="44.27678" lon="3.60081">
        <ele>683.15</ele>
        <time>2013-08-09T10:29:53Z</time>
      </trkpt>
      <trkpt lat="44.27685" lon="3.60071">
        <ele>682.19</ele>
        <time>2013-08-09T10:29:54Z</time>
      </trkpt>
      <trkpt lat="44.27694" lon="3.60057">
        <ele>681.71</ele>
        <time>2013-08-09T10:29:55Z</time>
      </trkpt>
      <trkpt lat="44.27703" lon="3.6004">
        <ele>681.23</ele>
        <time>2013-08-09T10:29:56Z</time>
      </trkpt>
      <trkpt lat="44.27735" lon="3.59991">
        <ele>676.42</ele>
        <time>2013-08-09T10:29:59Z</time>
      </trkpt>
      <trkpt lat="44.27748" lon="3.59977">
        <ele>674.98</ele>
        <time>2013-08-09T10:30:00Z</time>
      </trkpt>
      <trkpt lat="44.27763" lon="3.59966">
        <ele>673.54</ele>
        <time>2013-08-09T10:30:01Z</time>
      </trkpt>
      <trkpt lat="44.2778" lon="3.59957">
        <ele>672.58</ele>
        <time>2013-08-09T10:30:02Z</time>
      </trkpt>
      <trkpt lat="44.27799" lon="3.59949">
        <ele>671.14</ele>
        <time>2013-08-09T10:30:03Z</time>
      </trkpt>
      <trkpt lat="44.27874" lon="3.59898">
        <ele>662.49</ele>
        <time>2013-08-09T10:30:07Z</time>
      </trkpt>
      <trkpt lat="44.27895" lon="3.59888">
        <ele>660.08</ele>
        <time>2013-08-09T10:30:08Z</time>
      </trkpt>
      <trkpt lat="44.28057" lon="3.59819">
        <ele>642.78</ele>
        <time>2013-08-09T10:30:15Z</time>
      </trkpt>
      <trkpt lat="44.28102" lon="3.5981">
        <ele>637.01</ele>
        <time>2013-08-09T10:30:17Z</time>
      </trkpt>
      <trkpt lat="44.28174" lon="3.59804">
        <ele>627.88</ele>
        <time>2013-08-09T10:30:21Z</time>
      </trkpt>
      <trkpt lat="44.28191" lon="3.59796">
        <ele>625.96</ele>
        <time>2013-08-09T10:30:22Z</time>
      </trkpt>
      <trkpt lat="44.28208" lon="3.59783">
        <ele>624.03</ele>
        <time>2013-08-09T10:30:23Z</time>
      </trkpt>
      <trkpt lat="44.28226" lon="3.59767">
        <ele>621.63</ele>
        <time>2013-08-09T10:30:24Z</time>
      </trkpt>
      <trkpt lat="44.28245" lon="3.59745">
        <ele>619.23</ele>
        <time>2013-08-09T10:30:25Z</time>
      </trkpt>
      <trkpt lat="44.28265" lon="3.59722">
        <ele>617.3</ele>
        <time>2013-08-09T10:30:26Z</time>
      </trkpt>
      <trkpt lat="44.28378" lon="3.59559">
        <ele>600.48</ele>
        <time>2013-08-09T10:30:33Z</time>
      </trkpt>
      <trkpt lat="44.28381" lon="3.59534">
        <ele>597.6</ele>
        <time>2013-08-09T10:30:34Z</time>
      </trkpt>
      <trkpt lat="44.28382" lon="3.59509">
        <ele>595.67</ele>
        <time>2013-08-09T10:30:35Z</time>
      </trkpt>
      <trkpt lat="44.28384" lon="3.59484">
        <ele>593.27</ele>
        <time>2013-08-09T10:30:36Z</time>
      </trkpt>
      <trkpt lat="44.28385" lon="3.59459">
        <ele>591.35</ele>
        <time>2013-08-09T10:30:37Z</time>
      </trkpt>
      <trkpt lat="44.28383" lon="3.59436">
        <ele>589.91</ele>
        <time>2013-08-09T10:30:38Z</time>
      </trkpt>
      <trkpt lat="44.2838" lon="3.59416">
        <ele>587.98</ele>
        <time>2013-08-09T10:30:39Z</time>
      </trkpt>
      <trkpt lat="44.28377" lon="3.59398">
        <ele>586.54</ele>
        <time>2013-08-09T10:30:40Z</time>
      </trkpt>
      <trkpt lat="44.28378" lon="3.59385">
        <ele>585.58</ele>
        <time>2013-08-09T10:30:41Z</time>
      </trkpt>
      <trkpt lat="44.28383" lon="3.59374">
        <ele>584.62</ele>
        <time>2013-08-09T10:30:42Z</time>
      </trkpt>
      <trkpt lat="44.28392" lon="3.59367">
        <ele>584.14</ele>
        <time>2013-08-09T10:30:43Z</time>
      </trkpt>
      <trkpt lat="44.28403" lon="3.59367">
        <ele>583.18</ele>
        <time>2013-08-09T10:30:44Z</time>
      </trkpt>
      <trkpt lat="44.28411" lon="3.59374">
        <ele>582.7</ele>
        <time>2013-08-09T10:30:45Z</time>
      </trkpt>
      <trkpt lat="44.28419" lon="3.59387">
        <ele>582.7</ele>
        <time>2013-08-09T10:30:46Z</time>
      </trkpt>
      <trkpt lat="44.28426" lon="3.59405">
        <ele>582.7</ele>
        <time>2013-08-09T10:30:47Z</time>
      </trkpt>
      <trkpt lat="44.28432" lon="3.59425">
        <ele>582.7</ele>
        <time>2013-08-09T10:30:48Z</time>
      </trkpt>
      <trkpt lat="44.28439" lon="3.59449">
        <ele>583.18</ele>
        <time>2013-08-09T10:30:49Z</time>
      </trkpt>
      <trkpt lat="44.28445" lon="3.59475">
        <ele>584.62</ele>
        <time>2013-08-09T10:30:50Z</time>
      </trkpt>
      <trkpt lat="44.28449" lon="3.59503">
        <ele>586.54</ele>
        <time>2013-08-09T10:30:51Z</time>
      </trkpt>
      <trkpt lat="44.28453" lon="3.59532">
        <ele>589.43</ele>
        <time>2013-08-09T10:30:52Z</time>
      </trkpt>
      <trkpt lat="44.28455" lon="3.59562">
        <ele>592.31</ele>
        <time>2013-08-09T10:30:53Z</time>
      </trkpt>
      <trkpt lat="44.28456" lon="3.59593">
        <ele>595.67</ele>
        <time>2013-08-09T10:30:54Z</time>
      </trkpt>
      <trkpt lat="44.28462" lon="3.59737">
        <ele>605.77</ele>
        <time>2013-08-09T10:31:00Z</time>
      </trkpt>
      <trkpt lat="44.28468" lon="3.59747">
        <ele>607.21</ele>
        <time>2013-08-09T10:31:01Z</time>
      </trkpt>
      <trkpt lat="44.28476" lon="3.59751">
        <ele>608.17</ele>
        <time>2013-08-09T10:31:02Z</time>
      </trkpt>
      <trkpt lat="44.28488" lon="3.59749">
        <ele>608.65</ele>
        <time>2013-08-09T10:31:03Z</time>
      </trkpt>
      <trkpt lat="44.285" lon="3.59738">
        <ele>611.06</ele>
        <time>2013-08-09T10:31:04Z</time>
      </trkpt>
      <trkpt lat="44.28515" lon="3.59725">
        <ele>612.5</ele>
        <time>2013-08-09T10:31:05Z</time>
      </trkpt>
      <trkpt lat="44.28531" lon="3.5971">
        <ele>613.94</ele>
        <time>2013-08-09T10:31:06Z</time>
      </trkpt>
      <trkpt lat="44.28548" lon="3.59694">
        <ele>615.86</ele>
        <time>2013-08-09T10:31:07Z</time>
      </trkpt>
      <trkpt lat="44.28567" lon="3.5968">
        <ele>617.3</ele>
        <time>2013-08-09T10:31:08Z</time>
      </trkpt>
      <trkpt lat="44.28586" lon="3.59668">
        <ele>619.23</ele>
        <time>2013-08-09T10:31:09Z</time>
      </trkpt>
      <trkpt lat="44.28606" lon="3.59659">
        <ele>620.19</ele>
        <time>2013-08-09T10:31:10Z</time>
      </trkpt>
      <trkpt lat="44.28627" lon="3.59653">
        <ele>622.11</ele>
        <time>2013-08-09T10:31:11Z</time>
      </trkpt>
      <trkpt lat="44.28646" lon="3.59649">
        <ele>623.55</ele>
        <time>2013-08-09T10:31:12Z</time>
      </trkpt>
      <trkpt lat="44.28665" lon="3.59643">
        <ele>624.51</ele>
        <time>2013-08-09T10:31:13Z</time>
      </trkpt>
      <trkpt lat="44.2868" lon="3.59633">
        <ele>625.47</ele>
        <time>2013-08-09T10:31:14Z</time>
      </trkpt>
      <trkpt lat="44.28693" lon="3.59616">
        <ele>626.92</ele>
        <time>2013-08-09T10:31:15Z</time>
      </trkpt>
      <trkpt lat="44.28704" lon="3.59595">
        <ele>628.36</ele>
        <time>2013-08-09T10:31:16Z</time>
      </trkpt>
      <trkpt lat="44.28716" lon="3.59575">
        <ele>628.36</ele>
        <time>2013-08-09T10:31:17Z</time>
      </trkpt>
      <trkpt lat="44.2873" lon="3.59557">
        <ele>629.8</ele>
        <time>2013-08-09T10:31:18Z</time>
      </trkpt>
      <trkpt lat="44.28747" lon="3.59546">
        <ele>631.24</ele>
        <time>2013-08-09T10:31:19Z</time>
      </trkpt>
      <trkpt lat="44.28766" lon="3.59536">
        <ele>631.72</ele>
        <time>2013-08-09T10:31:20Z</time>
      </trkpt>
      <trkpt lat="44.28785" lon="3.59522">
        <ele>632.68</ele>
        <time>2013-08-09T10:31:21Z</time>
      </trkpt>
      <trkpt lat="44.28803" lon="3.59505">
        <ele>633.17</ele>
        <time>2013-08-09T10:31:22Z</time>
      </trkpt>
      <trkpt lat="44.28821" lon="3.59485">
        <ele>633.65</ele>
        <time>2013-08-09T10:31:23Z</time>
      </trkpt>
      <trkpt lat="44.28837" lon="3.59466">
        <ele>634.61</ele>
        <time>2013-08-09T10:31:24Z</time>
      </trkpt>
      <trkpt lat="44.28893" lon="3.59412">
        <ele>636.53</ele>
        <time>2013-08-09T10:31:28Z</time>
      </trkpt>
      <trkpt lat="44.28903" lon="3.59411">
        <ele>637.01</ele>
        <time>2013-08-09T10:31:29Z</time>
      </trkpt>
      <trkpt lat="44.28913" lon="3.59415">
        <ele>637.01</ele>
        <time>2013-08-09T10:31:30Z</time>
      </trkpt>
      <trkpt lat="44.28922" lon="3.59425">
        <ele>637.01</ele>
        <time>2013-08-09T10:31:31Z</time>
      </trkpt>
      <trkpt lat="44.28926" lon="3.59439">
        <ele>637.97</ele>
        <time>2013-08-09T10:31:32Z</time>
      </trkpt>
      <trkpt lat="44.28926" lon="3.59457">
        <ele>637.97</ele>
        <time>2013-08-09T10:31:33Z</time>
      </trkpt>
      <trkpt lat="44.28923" lon="3.59476">
        <ele>637.97</ele>
        <time>2013-08-09T10:31:34Z</time>
      </trkpt>
      <trkpt lat="44.28917" lon="3.59499">
        <ele>638.45</ele>
        <time>2013-08-09T10:31:35Z</time>
      </trkpt>
      <trkpt lat="44.28912" lon="3.59523">
        <ele>638.93</ele>
        <time>2013-08-09T10:31:36Z</time>
      </trkpt>
      <trkpt lat="44.28909" lon="3.59548">
        <ele>639.41</ele>
        <time>2013-08-09T10:31:37Z</time>
      </trkpt>
      <trkpt lat="44.28909" lon="3.59571">
        <ele>639.41</ele>
        <time>2013-08-09T10:31:38Z</time>
      </trkpt>
      <trkpt lat="44.28914" lon="3.5959">
        <ele>638.45</ele>
        <time>2013-08-09T10:31:39Z</time>
      </trkpt>
      <trkpt lat="44.28922" lon="3.59606">
        <ele>638.93</ele>
        <time>2013-08-09T10:31:40Z</time>
      </trkpt>
      <trkpt lat="44.28935" lon="3.59617">
        <ele>638.93</ele>
        <time>2013-08-09T10:31:41Z</time>
      </trkpt>
      <trkpt lat="44.28952" lon="3.59624">
        <ele>639.89</ele>
        <time>2013-08-09T10:31:42Z</time>
      </trkpt>
      <trkpt lat="44.28972" lon="3.59631">
        <ele>641.34</ele>
        <time>2013-08-09T10:31:43Z</time>
      </trkpt>
      <trkpt lat="44.2899" lon="3.5964">
        <ele>641.82</ele>
        <time>2013-08-09T10:31:44Z</time>
      </trkpt>
      <trkpt lat="44.29008" lon="3.59656">
        <ele>642.3</ele>
        <time>2013-08-09T10:31:45Z</time>
      </trkpt>
      <trkpt lat="44.29022" lon="3.59676">
        <ele>643.26</ele>
        <time>2013-08-09T10:31:46Z</time>
      </trkpt>
      <trkpt lat="44.29035" lon="3.59699">
        <ele>643.74</ele>
        <time>2013-08-09T10:31:47Z</time>
      </trkpt>
      <trkpt lat="44.29045" lon="3.59722">
        <ele>643.74</ele>
        <time>2013-08-09T10:31:48Z</time>
      </trkpt>
      <trkpt lat="44.29053" lon="3.59747">
        <ele>644.22</ele>
        <time>2013-08-09T10:31:49Z</time>
      </trkpt>
      <trkpt lat="44.29059" lon="3.59772">
        <ele>644.7</ele>
        <time>2013-08-09T10:31:50Z</time>
      </trkpt>
      <trkpt lat="44.29066" lon="3.59795">
        <ele>645.18</ele>
        <time>2013-08-09T10:31:51Z</time>
      </trkpt>
      <trkpt lat="44.29074" lon="3.59815">
        <ele>645.18</ele>
        <time>2013-08-09T10:31:52Z</time>
      </trkpt>
      <trkpt lat="44.29084" lon="3.59832">
        <ele>645.66</ele>
        <time>2013-08-09T10:31:53Z</time>
      </trkpt>
      <trkpt lat="44.29095" lon="3.59839">
        <ele>646.14</ele>
        <time>2013-08-09T10:31:54Z</time>
      </trkpt>
      <trkpt lat="44.29106" lon="3.5984">
        <ele>646.62</ele>
        <time>2013-08-09T10:31:55Z</time>
      </trkpt>
      <trkpt lat="44.29121" lon="3.59832">
        <ele>645.66</ele>
        <time>2013-08-09T10:31:56Z</time>
      </trkpt>
      <trkpt lat="44.29135" lon="3.59817">
        <ele>645.66</ele>
        <time>2013-08-09T10:31:57Z</time>
      </trkpt>
      <trkpt lat="44.29148" lon="3.59796">
        <ele>646.62</ele>
        <time>2013-08-09T10:31:58Z</time>
      </trkpt>
      <trkpt lat="44.29161" lon="3.59774">
        <ele>647.59</ele>
        <time>2013-08-09T10:31:59Z</time>
      </trkpt>
      <trkpt lat="44.29175" lon="3.5975">
        <ele>648.07</ele>
        <time>2013-08-09T10:32:00Z</time>
      </trkpt>
      <trkpt lat="44.29205" lon="3.59703">
        <ele>649.03</ele>
        <time>2013-08-09T10:32:02Z</time>
      </trkpt>
      <trkpt lat="44.29222" lon="3.59684">
        <ele>649.03</ele>
        <time>2013-08-09T10:32:03Z</time>
      </trkpt>
      <trkpt lat="44.29239" lon="3.59667">
        <ele>649.51</ele>
        <time>2013-08-09T10:32:04Z</time>
      </trkpt>
      <trkpt lat="44.29257" lon="3.59653">
        <ele>650.47</ele>
        <time>2013-08-09T10:32:05Z</time>
      </trkpt>
      <trkpt lat="44.29276" lon="3.59646">
        <ele>650.95</ele>
        <time>2013-08-09T10:32:06Z</time>
      </trkpt>
      <trkpt lat="44.29296" lon="3.59645">
        <ele>651.43</ele>
        <time>2013-08-09T10:32:07Z</time>
      </trkpt>
      <trkpt lat="44.29317" lon="3.59644">
        <ele>651.43</ele>
        <time>2013-08-09T10:32:08Z</time>
      </trkpt>
      <trkpt lat="44.29336" lon="3.59643">
        <ele>651.43</ele>
        <time>2013-08-09T10:32:09Z</time>
      </trkpt>
      <trkpt lat="44.29355" lon="3.59638">
        <ele>651.91</ele>
        <time>2013-08-09T10:32:10Z</time>
      </trkpt>
      <trkpt lat="44.29371" lon="3.59628">
        <ele>651.91</ele>
        <time>2013-08-09T10:32:11Z</time>
      </trkpt>
      <trkpt lat="44.29386" lon="3.59615">
        <ele>652.39</ele>
        <time>2013-08-09T10:32:12Z</time>
      </trkpt>
      <trkpt lat="44.29401" lon="3.59598">
        <ele>652.87</ele>
        <time>2013-08-09T10:32:13Z</time>
      </trkpt>
      <trkpt lat="44.29414" lon="3.59583">
        <ele>653.35</ele>
        <time>2013-08-09T10:32:14Z</time>
      </trkpt>
      <trkpt lat="44.29428" lon="3.59572">
        <ele>653.83</ele>
        <time>2013-08-09T10:32:15Z</time>
      </trkpt>
      <trkpt lat="44.29443" lon="3.59568">
        <ele>654.31</ele>
        <time>2013-08-09T10:32:16Z</time>
      </trkpt>
      <trkpt lat="44.2946" lon="3.59571">
        <ele>654.31</ele>
        <time>2013-08-09T10:32:17Z</time>
      </trkpt>
      <trkpt lat="44.29476" lon="3.59579">
        <ele>654.8</ele>
        <time>2013-08-09T10:32:18Z</time>
      </trkpt>
      <trkpt lat="44.29492" lon="3.59591">
        <ele>654.8</ele>
        <time>2013-08-09T10:32:19Z</time>
      </trkpt>
      <trkpt lat="44.29508" lon="3.59601">
        <ele>654.8</ele>
        <time>2013-08-09T10:32:20Z</time>
      </trkpt>
      <trkpt lat="44.29526" lon="3.59609">
        <ele>654.8</ele>
        <time>2013-08-09T10:32:21Z</time>
      </trkpt>
      <trkpt lat="44.29543" lon="3.59611">
        <ele>654.8</ele>
        <time>2013-08-09T10:32:22Z</time>
      </trkpt>
      <trkpt lat="44.2956" lon="3.59611">
        <ele>654.8</ele>
        <time>2013-08-09T10:32:23Z</time>
      </trkpt>
      <trkpt lat="44.29576" lon="3.59609">
        <ele>655.28</ele>
        <time>2013-08-09T10:32:24Z</time>
      </trkpt>
      <trkpt lat="44.2959" lon="3.59609">
        <ele>655.28</ele>
        <time>2013-08-09T10:32:25Z</time>
      </trkpt>
      <trkpt lat="44.29602" lon="3.59614">
        <ele>655.28</ele>
        <time>2013-08-09T10:32:26Z</time>
      </trkpt>
      <trkpt lat="44.29613" lon="3.59626">
        <ele>655.28</ele>
        <time>2013-08-09T10:32:27Z</time>
      </trkpt>
      <trkpt lat="44.29621" lon="3.59643">
        <ele>655.28</ele>
        <time>2013-08-09T10:32:28Z</time>
      </trkpt>
      <trkpt lat="44.29626" lon="3.59666">
        <ele>655.28</ele>
        <time>2013-08-09T10:32:29Z</time>
      </trkpt>
      <trkpt lat="44.29626" lon="3.59692">
        <ele>654.31</ele>
        <time>2013-08-09T10:32:30Z</time>
      </trkpt>
      <trkpt lat="44.29624" lon="3.59719">
        <ele>653.83</ele>
        <time>2013-08-09T10:32:31Z</time>
      </trkpt>
      <trkpt lat="44.29621" lon="3.59747">
        <ele>653.35</ele>
        <time>2013-08-09T10:32:32Z</time>
      </trkpt>
      <trkpt lat="44.2961" lon="3.59855">
        <ele>650.47</ele>
        <time>2013-08-09T10:32:36Z</time>
      </trkpt>
      <trkpt lat="44.29613" lon="3.59883">
        <ele>649.51</ele>
        <time>2013-08-09T10:32:37Z</time>
      </trkpt>
      <trkpt lat="44.29618" lon="3.59912">
        <ele>648.55</ele>
        <time>2013-08-09T10:32:38Z</time>
      </trkpt>
      <trkpt lat="44.29639" lon="3.59982">
        <ele>645.18</ele>
        <time>2013-08-09T10:32:41Z</time>
      </trkpt>
      <trkpt lat="44.2965" lon="3.59995">
        <ele>643.74</ele>
        <time>2013-08-09T10:32:42Z</time>
      </trkpt>
      <trkpt lat="44.29663" lon="3.60004">
        <ele>642.78</ele>
        <time>2013-08-09T10:32:43Z</time>
      </trkpt>
      <trkpt lat="44.29679" lon="3.60007">
        <ele>641.82</ele>
        <time>2013-08-09T10:32:44Z</time>
      </trkpt>
      <trkpt lat="44.29697" lon="3.60003">
        <ele>640.86</ele>
        <time>2013-08-09T10:32:45Z</time>
      </trkpt>
      <trkpt lat="44.29717" lon="3.59998">
        <ele>639.89</ele>
        <time>2013-08-09T10:32:46Z</time>
      </trkpt>
      <trkpt lat="44.2974" lon="3.59991">
        <ele>638.93</ele>
        <time>2013-08-09T10:32:47Z</time>
      </trkpt>
      <trkpt lat="44.29766" lon="3.59981">
        <ele>638.45</ele>
        <time>2013-08-09T10:32:48Z</time>
      </trkpt>
      <trkpt lat="44.29793" lon="3.59972">
        <ele>637.01</ele>
        <time>2013-08-09T10:32:49Z</time>
      </trkpt>
      <trkpt lat="44.29966" lon="3.59944">
        <ele>626.92</ele>
        <time>2013-08-09T10:32:56Z</time>
      </trkpt>
      <trkpt lat="44.29984" lon="3.59944">
        <ele>625.47</ele>
        <time>2013-08-09T10:32:57Z</time>
      </trkpt>
      <trkpt lat="44.3" lon="3.5995">
        <ele>623.55</ele>
        <time>2013-08-09T10:32:58Z</time>
      </trkpt>
      <trkpt lat="44.30015" lon="3.59963">
        <ele>622.11</ele>
        <time>2013-08-09T10:32:59Z</time>
      </trkpt>
      <trkpt lat="44.30029" lon="3.59978">
        <ele>620.67</ele>
        <time>2013-08-09T10:33:00Z</time>
      </trkpt>
      <trkpt lat="44.30042" lon="3.59997">
        <ele>619.71</ele>
        <time>2013-08-09T10:33:01Z</time>
      </trkpt>
      <trkpt lat="44.30056" lon="3.60013">
        <ele>618.75</ele>
        <time>2013-08-09T10:33:02Z</time>
      </trkpt>
      <trkpt lat="44.30073" lon="3.60026">
        <ele>617.3</ele>
        <time>2013-08-09T10:33:03Z</time>
      </trkpt>
      <trkpt lat="44.3009" lon="3.60033">
        <ele>616.34</ele>
        <time>2013-08-09T10:33:04Z</time>
      </trkpt>
      <trkpt lat="44.30108" lon="3.60033">
        <ele>614.9</ele>
        <time>2013-08-09T10:33:05Z</time>
      </trkpt>
      <trkpt lat="44.30126" lon="3.60026">
        <ele>613.46</ele>
        <time>2013-08-09T10:33:06Z</time>
      </trkpt>
      <trkpt lat="44.30141" lon="3.60015">
        <ele>612.5</ele>
        <time>2013-08-09T10:33:07Z</time>
      </trkpt>
      <trkpt lat="44.30159" lon="3.59993">
        <ele>610.09</ele>
        <time>2013-08-09T10:33:08Z</time>
      </trkpt>
      <trkpt lat="44.30182" lon="3.59964">
        <ele>608.65</ele>
        <time>2013-08-09T10:33:09Z</time>
      </trkpt>
      <trkpt lat="44.30196" lon="3.59933">
        <ele>606.73</ele>
        <time>2013-08-09T10:33:10Z</time>
      </trkpt>
      <trkpt lat="44.3021" lon="3.59905">
        <ele>605.77</ele>
        <time>2013-08-09T10:33:11Z</time>
      </trkpt>
      <trkpt lat="44.30222" lon="3.59875">
        <ele>605.29</ele>
        <time>2013-08-09T10:33:12Z</time>
      </trkpt>
      <trkpt lat="44.30236" lon="3.59847">
        <ele>603.85</ele>
        <time>2013-08-09T10:33:13Z</time>
      </trkpt>
      <trkpt lat="44.30324" lon="3.59686">
        <ele>598.08</ele>
        <time>2013-08-09T10:33:20Z</time>
      </trkpt>
      <trkpt lat="44.3034" lon="3.59671">
        <ele>597.12</ele>
        <time>2013-08-09T10:33:21Z</time>
      </trkpt>
      <trkpt lat="44.30358" lon="3.59661">
        <ele>596.15</ele>
        <time>2013-08-09T10:33:22Z</time>
      </trkpt>
      <trkpt lat="44.30378" lon="3.59654">
        <ele>595.67</ele>
        <time>2013-08-09T10:33:23Z</time>
      </trkpt>
      <trkpt lat="44.304" lon="3.59647">
        <ele>594.71</ele>
        <time>2013-08-09T10:33:24Z</time>
      </trkpt>
      <trkpt lat="44.30423" lon="3.59641">
        <ele>593.27</ele>
        <time>2013-08-09T10:33:25Z</time>
      </trkpt>
      <trkpt lat="44.30529" lon="3.5962">
        <ele>587.98</ele>
        <time>2013-08-09T10:33:30Z</time>
      </trkpt>
      <trkpt lat="44.30548" lon="3.59622">
        <ele>586.54</ele>
        <time>2013-08-09T10:33:31Z</time>
      </trkpt>
      <trkpt lat="44.30567" lon="3.59628">
        <ele>585.58</ele>
        <time>2013-08-09T10:33:32Z</time>
      </trkpt>
      <trkpt lat="44.30584" lon="3.59638">
        <ele>584.62</ele>
        <time>2013-08-09T10:33:33Z</time>
      </trkpt>
      <trkpt lat="44.306" lon="3.5965">
        <ele>584.14</ele>
        <time>2013-08-09T10:33:34Z</time>
      </trkpt>
      <trkpt lat="44.30615" lon="3.59663">
        <ele>583.18</ele>
        <time>2013-08-09T10:33:35Z</time>
      </trkpt>
      <trkpt lat="44.30732" lon="3.59728">
        <ele>578.37</ele>
        <time>2013-08-09T10:33:41Z</time>
      </trkpt>
      <trkpt lat="44.3094" lon="3.59822">
        <ele>567.8</ele>
        <time>2013-08-09T10:33:50Z</time>
      </trkpt>
      <trkpt lat="44.31042" lon="3.59859">
        <ele>564.43</ele>
        <time>2013-08-09T10:33:55Z</time>
      </trkpt>
      <trkpt lat="44.31063" lon="3.5986">
        <ele>563.47</ele>
        <time>2013-08-09T10:33:56Z</time>
      </trkpt>
      <trkpt lat="44.31084" lon="3.59855">
        <ele>562.03</ele>
        <time>2013-08-09T10:33:57Z</time>
      </trkpt>
      <trkpt lat="44.31241" lon="3.59829">
        <ele>556.74</ele>
        <time>2013-08-09T10:34:05Z</time>
      </trkpt>
      <trkpt lat="44.31334" lon="3.5979">
        <ele>555.3</ele>
        <time>2013-08-09T10:34:11Z</time>
      </trkpt>
      <trkpt lat="44.31388" lon="3.59775">
        <ele>554.34</ele>
        <time>2013-08-09T10:34:14Z</time>
      </trkpt>
      <trkpt lat="44.31408" lon="3.59774">
        <ele>554.34</ele>
        <time>2013-08-09T10:34:15Z</time>
      </trkpt>
      <trkpt lat="44.31517" lon="3.5977">
        <ele>553.38</ele>
        <time>2013-08-09T10:34:20Z</time>
      </trkpt>
      <trkpt lat="44.31538" lon="3.59775">
        <ele>553.38</ele>
        <time>2013-08-09T10:34:21Z</time>
      </trkpt>
      <trkpt lat="44.31559" lon="3.59783">
        <ele>552.9</ele>
        <time>2013-08-09T10:34:22Z</time>
      </trkpt>
      <trkpt lat="44.31675" lon="3.59809">
        <ele>554.34</ele>
        <time>2013-08-09T10:34:28Z</time>
      </trkpt>
      <trkpt lat="44.31836" lon="3.59793">
        <ele>554.82</ele>
        <time>2013-08-09T10:34:38Z</time>
      </trkpt>
      <trkpt lat="44.3187" lon="3.59784">
        <ele>554.82</ele>
        <time>2013-08-09T10:34:41Z</time>
      </trkpt>
      <trkpt lat="44.31878" lon="3.59785">
        <ele>554.82</ele>
        <time>2013-08-09T10:34:42Z</time>
      </trkpt>
      <trkpt lat="44.31885" lon="3.59787">
        <ele>555.3</ele>
        <time>2013-08-09T10:34:43Z</time>
      </trkpt>
      <trkpt lat="44.3189" lon="3.59792">
        <ele>555.78</ele>
        <time>2013-08-09T10:34:44Z</time>
      </trkpt>
      <trkpt lat="44.31895" lon="3.59796">
        <ele>555.78</ele>
        <time>2013-08-09T10:34:45Z</time>
      </trkpt>
      <trkpt lat="44.31899" lon="3.59794">
        <ele>555.78</ele>
        <time>2013-08-09T10:34:46Z</time>
      </trkpt>
      <trkpt lat="44.31904" lon="3.59788">
        <ele>555.78</ele>
        <time>2013-08-09T10:34:47Z</time>
      </trkpt>
      <trkpt lat="44.31909" lon="3.59779">
        <ele>555.78</ele>
        <time>2013-08-09T10:34:48Z</time>
      </trkpt>
      <trkpt lat="44.31918" lon="3.59771">
        <ele>555.78</ele>
        <time>2013-08-09T10:34:49Z</time>
      </trkpt>
      <trkpt lat="44.31928" lon="3.59764">
        <ele>555.3</ele>
        <time>2013-08-09T10:34:50Z</time>
      </trkpt>
      <trkpt lat="44.31941" lon="3.5976">
        <ele>555.3</ele>
        <time>2013-08-09T10:34:51Z</time>
      </trkpt>
      <trkpt lat="44.32028" lon="3.5972">
        <ele>553.86</ele>
        <time>2013-08-09T10:35:00Z</time>
      </trkpt>
      <trkpt lat="44.32068" lon="3.59693">
        <ele>553.86</ele>
        <time>2013-08-09T10:35:06Z</time>
      </trkpt>
      <trkpt lat="44.32075" lon="3.59688">
        <ele>553.38</ele>
        <time>2013-08-09T10:35:07Z</time>
      </trkpt>
      <trkpt lat="44.32158" lon="3.59653">
        <ele>553.38</ele>
        <time>2013-08-09T10:35:19Z</time>
      </trkpt>
      <trkpt lat="44.32193" lon="3.59647">
        <ele>554.34</ele>
        <time>2013-08-09T10:35:25Z</time>
      </trkpt>
      <trkpt lat="44.322" lon="3.59645">
        <ele>553.86</ele>
        <time>2013-08-09T10:35:26Z</time>
      </trkpt>
      <trkpt lat="44.32284" lon="3.59625">
        <ele>557.22</ele>
        <time>2013-08-09T10:35:39Z</time>
      </trkpt>
      <trkpt lat="44.32287" lon="3.59619">
        <ele>557.22</ele>
        <time>2013-08-09T10:35:41Z</time>
      </trkpt>
      <trkpt lat="44.32286" lon="3.59614">
        <ele>557.22</ele>
        <time>2013-08-09T10:35:42Z</time>
      </trkpt>
      <trkpt lat="44.32283" lon="3.59607">
        <ele>557.7</ele>
        <time>2013-08-09T10:35:43Z</time>
      </trkpt>
      <trkpt lat="44.32256" lon="3.59544">
        <ele>558.66</ele>
        <time>2013-08-09T10:35:52Z</time>
      </trkpt>
      <trkpt lat="44.32254" lon="3.59539">
        <ele>557.22</ele>
        <time>2013-08-09T10:35:58Z</time>
      </trkpt>
      <trkpt lat="44.32254" lon="3.59537">
        <ele>558.18</ele>
        <time>2013-08-09T10:35:59Z</time>
      </trkpt>
      <trkpt lat="44.32256" lon="3.59535">
        <ele>558.18</ele>
        <time>2013-08-09T10:36:00Z</time>
      </trkpt>
      <trkpt lat="44.32258" lon="3.59532">
        <ele>557.7</ele>
        <time>2013-08-09T10:36:01Z</time>
      </trkpt>
      <trkpt lat="44.32261" lon="3.59529">
        <ele>557.22</ele>
        <time>2013-08-09T10:36:02Z</time>
      </trkpt>
      <trkpt lat="44.32263" lon="3.59526">
        <ele>556.26</ele>
        <time>2013-08-09T10:36:03Z</time>
      </trkpt>
      <trkpt lat="44.32286" lon="3.59501">
        <ele>555.78</ele>
        <time>2013-08-09T10:36:12Z</time>
      </trkpt>
      <trkpt lat="44.32291" lon="3.59497">
        <ele>555.3</ele>
        <time>2013-08-09T10:36:13Z</time>
      </trkpt>
      <trkpt lat="44.32296" lon="3.59493">
        <ele>554.82</ele>
        <time>2013-08-09T10:36:14Z</time>
      </trkpt>
      <trkpt lat="44.32302" lon="3.59489">
        <ele>554.34</ele>
        <time>2013-08-09T10:36:15Z</time>
      </trkpt>
      <trkpt lat="44.32311" lon="3.59482">
        <ele>554.34</ele>
        <time>2013-08-09T10:36:17Z</time>
      </trkpt>
      <trkpt lat="44.32322" lon="3.59471">
        <ele>559.62</ele>
        <time>2013-08-09T10:36:25Z</time>
      </trkpt>
      <trkpt lat="44.32322" lon="3.59469">
        <ele>559.62</ele>
        <time>2013-08-09T10:36:27Z</time>
      </trkpt>
      <trkpt lat="44.32321" lon="3.59466">
        <ele>560.11</ele>
        <time>2013-08-09T10:36:28Z</time>
      </trkpt>
      <trkpt lat="44.3232" lon="3.59463">
        <ele>559.62</ele>
        <time>2013-08-09T10:36:29Z</time>
      </trkpt>
      <trkpt lat="44.32313" lon="3.59448">
        <ele>560.59</ele>
        <time>2013-08-09T10:36:32Z</time>
      </trkpt>
      <trkpt lat="44.32312" lon="3.59442">
        <ele>560.59</ele>
        <time>2013-08-09T10:36:33Z</time>
      </trkpt>
      <trkpt lat="44.32313" lon="3.59438">
        <ele>560.59</ele>
        <time>2013-08-09T10:36:34Z</time>
      </trkpt>
      <trkpt lat="44.32314" lon="3.59435">
        <ele>560.59</ele>
        <time>2013-08-09T10:36:35Z</time>
      </trkpt>
      <trkpt lat="44.32315" lon="3.59433">
        <ele>560.59</ele>
        <time>2013-08-09T10:36:36Z</time>
      </trkpt>
      <trkpt lat="44.32317" lon="3.59431">
        <ele>560.59</ele>
        <time>2013-08-09T10:36:37Z</time>
      </trkpt>
      <trkpt lat="44.3232" lon="3.5943">
        <ele>562.03</ele>
        <time>2013-08-09T10:36:38Z</time>
      </trkpt>
      <trkpt lat="44.32322" lon="3.59429">
        <ele>562.51</ele>
        <time>2013-08-09T10:36:39Z</time>
      </trkpt>
      <trkpt lat="44.32354" lon="3.59409">
        <ele>562.03</ele>
        <time>2013-08-09T10:36:50Z</time>
      </trkpt>
      <trkpt lat="44.32361" lon="3.59405">
        <ele>569.24</ele>
        <time>2013-08-09T10:37:10Z</time>
      </trkpt>
      <trkpt lat="44.3236" lon="3.59407">
        <ele>562.51</ele>
        <time>2013-08-09T10:37:29Z</time>
      </trkpt>
      <trkpt lat="44.32358" lon="3.59409">
        <ele>563.47</ele>
        <time>2013-08-09T10:37:30Z</time>
      </trkpt>
      <trkpt lat="44.32326" lon="3.59433">
        <ele>565.87</ele>
        <time>2013-08-09T10:37:40Z</time>
      </trkpt>
      <trkpt lat="44.32314" lon="3.59437">
        <ele>571.16</ele>
        <time>2013-08-09T10:37:43Z</time>
      </trkpt>
      <trkpt lat="44.32312" lon="3.59435">
        <ele>571.64</ele>
        <time>2013-08-09T10:37:44Z</time>
      </trkpt>
      <trkpt lat="44.3231" lon="3.59431">
        <ele>571.16</ele>
        <time>2013-08-09T10:37:45Z</time>
      </trkpt>
      <trkpt lat="44.32309" lon="3.59426">
        <ele>571.16</ele>
        <time>2013-08-09T10:37:46Z</time>
      </trkpt>
      <trkpt lat="44.32307" lon="3.59421">
        <ele>571.16</ele>
        <time>2013-08-09T10:37:47Z</time>
      </trkpt>
      <trkpt lat="44.32302" lon="3.59404">
        <ele>570.68</ele>
        <time>2013-08-09T10:37:50Z</time>
      </trkpt>
      <trkpt lat="44.323" lon="3.59399">
        <ele>570.68</ele>
        <time>2013-08-09T10:37:51Z</time>
      </trkpt>
      <trkpt lat="44.32295" lon="3.59389">
        <ele>570.2</ele>
        <time>2013-08-09T10:37:53Z</time>
      </trkpt>
      <trkpt lat="44.32293" lon="3.59383">
        <ele>570.2</ele>
        <time>2013-08-09T10:37:54Z</time>
      </trkpt>
      <trkpt lat="44.32292" lon="3.59376">
        <ele>569.72</ele>
        <time>2013-08-09T10:37:55Z</time>
      </trkpt>
      <trkpt lat="44.32291" lon="3.5937">
        <ele>569.72</ele>
        <time>2013-08-09T10:37:56Z</time>
      </trkpt>
      <trkpt lat="44.32291" lon="3.59363">
        <ele>569.24</ele>
        <time>2013-08-09T10:37:57Z</time>
      </trkpt>
      <trkpt lat="44.32292" lon="3.59357">
        <ele>568.28</ele>
        <time>2013-08-09T10:37:58Z</time>
      </trkpt>
      <trkpt lat="44.32294" lon="3.59343">
        <ele>566.35</ele>
        <time>2013-08-09T10:38:00Z</time>
      </trkpt>
      <trkpt lat="44.32297" lon="3.59337">
        <ele>565.87</ele>
        <time>2013-08-09T10:38:01Z</time>
      </trkpt>
      <trkpt lat="44.323" lon="3.59331">
        <ele>565.39</ele>
        <time>2013-08-09T10:38:02Z</time>
      </trkpt>
      <trkpt lat="44.32303" lon="3.59326">
        <ele>564.91</ele>
        <time>2013-08-09T10:38:03Z</time>
      </trkpt>
      <trkpt lat="44.32307" lon="3.59322">
        <ele>564.43</ele>
        <time>2013-08-09T10:38:04Z</time>
      </trkpt>
      <trkpt lat="44.3232" lon="3.59277">
        <ele>563.47</ele>
        <time>2013-08-09T10:38:14Z</time>
      </trkpt>
      <trkpt lat="44.3232" lon="3.59269">
        <ele>563.47</ele>
        <time>2013-08-09T10:38:16Z</time>
      </trkpt>
      <trkpt lat="44.32319" lon="3.59266">
        <ele>562.99</ele>
        <time>2013-08-09T10:38:17Z</time>
      </trkpt>
      <trkpt lat="44.32317" lon="3.59263">
        <ele>562.99</ele>
        <time>2013-08-09T10:38:18Z</time>
      </trkpt>
      <trkpt lat="44.32315" lon="3.59262">
        <ele>562.99</ele>
        <time>2013-08-09T10:38:19Z</time>
      </trkpt>
      <trkpt lat="44.32312" lon="3.59259">
        <ele>562.51</ele>
        <time>2013-08-09T10:38:20Z</time>
      </trkpt>
      <trkpt lat="44.32294" lon="3.59247">
        <ele>563.47</ele>
        <time>2013-08-09T10:38:29Z</time>
      </trkpt>
      <trkpt lat="44.32292" lon="3.59249">
        <ele>564.43</ele>
        <time>2013-08-09T10:38:36Z</time>
      </trkpt>
      <trkpt lat="44.32291" lon="3.59251">
        <ele>564.43</ele>
        <time>2013-08-09T10:38:37Z</time>
      </trkpt>
      <trkpt lat="44.32291" lon="3.59254">
        <ele>564.43</ele>
        <time>2013-08-09T10:38:38Z</time>
      </trkpt>
      <trkpt lat="44.32291" lon="3.59257">
        <ele>563.95</ele>
        <time>2013-08-09T10:38:39Z</time>
      </trkpt>
      <trkpt lat="44.32291" lon="3.59261">
        <ele>563.95</ele>
        <time>2013-08-09T10:38:40Z</time>
      </trkpt>
      <trkpt lat="44.32291" lon="3.59265">
        <ele>563.95</ele>
        <time>2013-08-09T10:38:41Z</time>
      </trkpt>
      <trkpt lat="44.32291" lon="3.5927">
        <ele>563.47</ele>
        <time>2013-08-09T10:38:42Z</time>
      </trkpt>
      <trkpt lat="44.3229" lon="3.59285">
        <ele>563.47</ele>
        <time>2013-08-09T10:38:45Z</time>
      </trkpt>
      <trkpt lat="44.32283" lon="3.59334">
        <ele>562.99</ele>
        <time>2013-08-09T10:38:53Z</time>
      </trkpt>
      <trkpt lat="44.32283" lon="3.5934">
        <ele>562.99</ele>
        <time>2013-08-09T10:38:54Z</time>
      </trkpt>
      <trkpt lat="44.32283" lon="3.59346">
        <ele>562.99</ele>
        <time>2013-08-09T10:38:55Z</time>
      </trkpt>
      <trkpt lat="44.32285" lon="3.59351">
        <ele>562.51</ele>
        <time>2013-08-09T10:38:56Z</time>
      </trkpt>
      <trkpt lat="44.32286" lon="3.59354">
        <ele>562.51</ele>
        <time>2013-08-09T10:38:57Z</time>
      </trkpt>
      <trkpt lat="44.32288" lon="3.59355">
        <ele>562.51</ele>
        <time>2013-08-09T10:38:58Z</time>
      </trkpt>
      <trkpt lat="44.3229" lon="3.59355">
        <ele>562.51</ele>
        <time>2013-08-09T10:38:59Z</time>
      </trkpt>
      <trkpt lat="44.32292" lon="3.59354">
        <ele>562.03</ele>
        <time>2013-08-09T10:39:00Z</time>
      </trkpt>
      <trkpt lat="44.32293" lon="3.59352">
        <ele>562.03</ele>
        <time>2013-08-09T10:39:01Z</time>
      </trkpt>
      <trkpt lat="44.32294" lon="3.59349">
        <ele>561.55</ele>
        <time>2013-08-09T10:39:02Z</time>
      </trkpt>
      <trkpt lat="44.32295" lon="3.59345">
        <ele>561.55</ele>
        <time>2013-08-09T10:39:03Z</time>
      </trkpt>
      <trkpt lat="44.32296" lon="3.5934">
        <ele>561.55</ele>
        <time>2013-08-09T10:39:04Z</time>
      </trkpt>
      <trkpt lat="44.32297" lon="3.59335">
        <ele>562.03</ele>
        <time>2013-08-09T10:39:05Z</time>
      </trkpt>
      <trkpt lat="44.32305" lon="3.59255">
        <ele>561.55</ele>
        <time>2013-08-09T10:39:21Z</time>
      </trkpt>
      <trkpt lat="44.32302" lon="3.59251">
        <ele>561.55</ele>
        <time>2013-08-09T10:39:22Z</time>
      </trkpt>
      <trkpt lat="44.323" lon="3.59249">
        <ele>561.55</ele>
        <time>2013-08-09T10:39:23Z</time>
      </trkpt>
      <trkpt lat="44.32293" lon="3.59244">
        <ele>562.03</ele>
        <time>2013-08-09T10:39:34Z</time>
      </trkpt>
      <trkpt lat="44.32294" lon="3.59244">
        <ele>565.87</ele>
        <time>2013-08-09T10:39:55Z</time>
      </trkpt>
      <trkpt lat="44.32293" lon="3.59246">
        <ele>566.83</ele>
        <time>2013-08-09T10:40:01Z</time>
      </trkpt>
      <trkpt lat="44.32293" lon="3.59248">
        <ele>566.35</ele>
        <time>2013-08-09T10:40:02Z</time>
      </trkpt>
      <trkpt lat="44.32294" lon="3.59252">
        <ele>566.35</ele>
        <time>2013-08-09T10:40:03Z</time>
      </trkpt>
      <trkpt lat="44.3229" lon="3.59289">
        <ele>565.39</ele>
        <time>2013-08-09T10:40:13Z</time>
      </trkpt>
      <trkpt lat="44.32288" lon="3.59292">
        <ele>564.91</ele>
        <time>2013-08-09T10:40:23Z</time>
      </trkpt>
      <trkpt lat="44.32286" lon="3.59292">
        <ele>564.91</ele>
        <time>2013-08-09T10:40:24Z</time>
      </trkpt>
      <trkpt lat="44.32285" lon="3.59293">
        <ele>564.91</ele>
        <time>2013-08-09T10:40:25Z</time>
      </trkpt>
      <trkpt lat="44.32284" lon="3.59294">
        <ele>563.95</ele>
        <time>2013-08-09T10:40:39Z</time>
      </trkpt>
      <trkpt lat="44.32277" lon="3.59295">
        <ele>563.95</ele>
        <time>2013-08-09T12:34:41Z</time>
      </trkpt>
      <trkpt lat="44.32276" lon="3.59295">
        <ele>579.33</ele>
        <time>2013-08-09T12:36:00Z</time>
      </trkpt>
      <trkpt lat="44.3228" lon="3.59385">
        <ele>578.37</ele>
        <time>2013-08-09T12:36:17Z</time>
      </trkpt>
      <trkpt lat="44.32282" lon="3.5939">
        <ele>578.37</ele>
        <time>2013-08-09T12:36:18Z</time>
      </trkpt>
      <trkpt lat="44.32285" lon="3.59395">
        <ele>578.85</ele>
        <time>2013-08-09T12:36:19Z</time>
      </trkpt>
      <trkpt lat="44.31907" lon="3.59769">
        <ele>586.06</ele>
        <time>2013-08-09T12:37:59Z</time>
      </trkpt>
      <trkpt lat="44.31901" lon="3.59773">
        <ele>585.1</ele>
        <time>2013-08-09T12:38:06Z</time>
      </trkpt>
      <trkpt lat="44.31902" lon="3.59776">
        <ele>581.25</ele>
        <time>2013-08-09T12:38:47Z</time>
      </trkpt>
      <trkpt lat="44.31862" lon="3.59786">
        <ele>581.25</ele>
        <time>2013-08-09T12:38:59Z</time>
      </trkpt>
      <trkpt lat="44.31776" lon="3.59806">
        <ele>576.93</ele>
        <time>2013-08-09T12:39:08Z</time>
      </trkpt>
      <trkpt lat="44.31648" lon="3.59812">
        <ele>564.43</ele>
        <time>2013-08-09T12:39:18Z</time>
      </trkpt>
      <trkpt lat="44.31541" lon="3.59785">
        <ele>563.95</ele>
        <time>2013-08-09T12:39:28Z</time>
      </trkpt>
      <trkpt lat="44.31512" lon="3.59773">
        <ele>563.95</ele>
        <time>2013-08-09T12:39:31Z</time>
      </trkpt>
      <trkpt lat="44.31502" lon="3.59772">
        <ele>563.95</ele>
        <time>2013-08-09T12:39:32Z</time>
      </trkpt>
      <trkpt lat="44.3149" lon="3.59773">
        <ele>563.95</ele>
        <time>2013-08-09T12:39:33Z</time>
      </trkpt>
      <trkpt lat="44.31391" lon="3.59777">
        <ele>564.43</ele>
        <time>2013-08-09T12:39:39Z</time>
      </trkpt>
      <trkpt lat="44.31357" lon="3.5978">
        <ele>564.43</ele>
        <time>2013-08-09T12:39:41Z</time>
      </trkpt>
      <trkpt lat="44.31341" lon="3.59785">
        <ele>564.43</ele>
        <time>2013-08-09T12:39:42Z</time>
      </trkpt>
      <trkpt lat="44.31325" lon="3.59791">
        <ele>564.91</ele>
        <time>2013-08-09T12:39:43Z</time>
      </trkpt>
      <trkpt lat="44.31175" lon="3.59836">
        <ele>565.39</ele>
        <time>2013-08-09T12:39:52Z</time>
      </trkpt>
      <trkpt lat="44.31037" lon="3.59855">
        <ele>565.87</ele>
        <time>2013-08-09T12:40:00Z</time>
      </trkpt>
      <trkpt lat="44.3102" lon="3.59852">
        <ele>565.87</ele>
        <time>2013-08-09T12:40:01Z</time>
      </trkpt>
      <trkpt lat="44.31002" lon="3.59847">
        <ele>565.87</ele>
        <time>2013-08-09T12:40:02Z</time>
      </trkpt>
      <trkpt lat="44.30816" lon="3.59765">
        <ele>565.87</ele>
        <time>2013-08-09T12:40:12Z</time>
      </trkpt>
      <trkpt lat="44.30617" lon="3.59665">
        <ele>565.87</ele>
        <time>2013-08-09T12:40:22Z</time>
      </trkpt>
      <trkpt lat="44.30542" lon="3.59616">
        <ele>565.87</ele>
        <time>2013-08-09T12:40:26Z</time>
      </trkpt>
      <trkpt lat="44.30522" lon="3.59612">
        <ele>565.87</ele>
        <time>2013-08-09T12:40:27Z</time>
      </trkpt>
      <trkpt lat="44.305" lon="3.59618">
        <ele>565.87</ele>
        <time>2013-08-09T12:40:28Z</time>
      </trkpt>
      <trkpt lat="44.30351" lon="3.59664">
        <ele>566.35</ele>
        <time>2013-08-09T12:40:35Z</time>
      </trkpt>
      <trkpt lat="44.30333" lon="3.5968">
        <ele>566.35</ele>
        <time>2013-08-09T12:40:36Z</time>
      </trkpt>
      <trkpt lat="44.30317" lon="3.59699">
        <ele>566.35</ele>
        <time>2013-08-09T12:40:37Z</time>
      </trkpt>
      <trkpt lat="44.30301" lon="3.59722">
        <ele>566.35</ele>
        <time>2013-08-09T12:40:38Z</time>
      </trkpt>
      <trkpt lat="44.30286" lon="3.59745">
        <ele>566.35</ele>
        <time>2013-08-09T12:40:39Z</time>
      </trkpt>
      <trkpt lat="44.30195" lon="3.59931">
        <ele>565.87</ele>
        <time>2013-08-09T12:40:46Z</time>
      </trkpt>
      <trkpt lat="44.30133" lon="3.60022">
        <ele>567.32</ele>
        <time>2013-08-09T12:40:51Z</time>
      </trkpt>
      <trkpt lat="44.30118" lon="3.60029">
        <ele>567.32</ele>
        <time>2013-08-09T12:40:52Z</time>
      </trkpt>
      <trkpt lat="44.30101" lon="3.6003">
        <ele>567.32</ele>
        <time>2013-08-09T12:40:53Z</time>
      </trkpt>
      <trkpt lat="44.30083" lon="3.60023">
        <ele>567.32</ele>
        <time>2013-08-09T12:40:54Z</time>
      </trkpt>
      <trkpt lat="44.30066" lon="3.60011">
        <ele>567.32</ele>
        <time>2013-08-09T12:40:55Z</time>
      </trkpt>
      <trkpt lat="44.3005" lon="3.59993">
        <ele>567.32</ele>
        <time>2013-08-09T12:40:56Z</time>
      </trkpt>
      <trkpt lat="44.30036" lon="3.59971">
        <ele>567.32</ele>
        <time>2013-08-09T12:40:57Z</time>
      </trkpt>
      <trkpt lat="44.30023" lon="3.59953">
        <ele>567.8</ele>
        <time>2013-08-09T12:40:58Z</time>
      </trkpt>
      <trkpt lat="44.29994" lon="3.59928">
        <ele>567.8</ele>
        <time>2013-08-09T12:41:00Z</time>
      </trkpt>
      <trkpt lat="44.29977" lon="3.59922">
        <ele>568.28</ele>
        <time>2013-08-09T12:41:01Z</time>
      </trkpt>
      <trkpt lat="44.29957" lon="3.59928">
        <ele>568.28</ele>
        <time>2013-08-09T12:41:02Z</time>
      </trkpt>
      <trkpt lat="44.29823" lon="3.59951">
        <ele>568.76</ele>
        <time>2013-08-09T12:41:09Z</time>
      </trkpt>
      <trkpt lat="44.2971" lon="3.59986">
        <ele>569.24</ele>
        <time>2013-08-09T12:41:16Z</time>
      </trkpt>
      <trkpt lat="44.29698" lon="3.59988">
        <ele>569.72</ele>
        <time>2013-08-09T12:41:17Z</time>
      </trkpt>
      <trkpt lat="44.29686" lon="3.59986">
        <ele>569.72</ele>
        <time>2013-08-09T12:41:18Z</time>
      </trkpt>
      <trkpt lat="44.29675" lon="3.59981">
        <ele>569.72</ele>
        <time>2013-08-09T12:41:19Z</time>
      </trkpt>
      <trkpt lat="44.29667" lon="3.5997">
        <ele>569.72</ele>
        <time>2013-08-09T12:41:20Z</time>
      </trkpt>
      <trkpt lat="44.2966" lon="3.59956">
        <ele>569.72</ele>
        <time>2013-08-09T12:41:21Z</time>
      </trkpt>
      <trkpt lat="44.29655" lon="3.59939">
        <ele>569.72</ele>
        <time>2013-08-09T12:41:22Z</time>
      </trkpt>
      <trkpt lat="44.29651" lon="3.59922">
        <ele>569.72</ele>
        <time>2013-08-09T12:41:23Z</time>
      </trkpt>
      <trkpt lat="44.29648" lon="3.59904">
        <ele>569.72</ele>
        <time>2013-08-09T12:41:24Z</time>
      </trkpt>
      <trkpt lat="44.29638" lon="3.59828">
        <ele>570.2</ele>
        <time>2013-08-09T12:41:28Z</time>
      </trkpt>
      <trkpt lat="44.29638" lon="3.59809">
        <ele>570.2</ele>
        <time>2013-08-09T12:41:29Z</time>
      </trkpt>
      <trkpt lat="44.2964" lon="3.59788">
        <ele>570.2</ele>
        <time>2013-08-09T12:41:30Z</time>
      </trkpt>
      <trkpt lat="44.29657" lon="3.59642">
        <ele>570.68</ele>
        <time>2013-08-09T12:41:36Z</time>
      </trkpt>
      <trkpt lat="44.29655" lon="3.59622">
        <ele>570.68</ele>
        <time>2013-08-09T12:41:37Z</time>
      </trkpt>
      <trkpt lat="44.2965" lon="3.59605">
        <ele>571.16</ele>
        <time>2013-08-09T12:41:38Z</time>
      </trkpt>
      <trkpt lat="44.29641" lon="3.5959">
        <ele>571.16</ele>
        <time>2013-08-09T12:41:39Z</time>
      </trkpt>
      <trkpt lat="44.29626" lon="3.59581">
        <ele>571.16</ele>
        <time>2013-08-09T12:41:40Z</time>
      </trkpt>
      <trkpt lat="44.29613" lon="3.59577">
        <ele>570.68</ele>
        <time>2013-08-09T12:41:41Z</time>
      </trkpt>
      <trkpt lat="44.29599" lon="3.59584">
        <ele>570.68</ele>
        <time>2013-08-09T12:41:42Z</time>
      </trkpt>
      <trkpt lat="44.29582" lon="3.59587">
        <ele>575.97</ele>
        <time>2013-08-09T12:41:43Z</time>
      </trkpt>
      <trkpt lat="44.29567" lon="3.59589">
        <ele>579.33</ele>
        <time>2013-08-09T12:41:44Z</time>
      </trkpt>
      <trkpt lat="44.29548" lon="3.59589">
        <ele>591.83</ele>
        <time>2013-08-09T12:41:45Z</time>
      </trkpt>
      <trkpt lat="44.2953" lon="3.59586">
        <ele>601.44</ele>
        <time>2013-08-09T12:41:46Z</time>
      </trkpt>
      <trkpt lat="44.29513" lon="3.59581">
        <ele>610.09</ele>
        <time>2013-08-09T12:41:47Z</time>
      </trkpt>
      <trkpt lat="44.29498" lon="3.59573">
        <ele>616.34</ele>
        <time>2013-08-09T12:41:48Z</time>
      </trkpt>
      <trkpt lat="44.29485" lon="3.59566">
        <ele>620.67</ele>
        <time>2013-08-09T12:41:49Z</time>
      </trkpt>
      <trkpt lat="44.29471" lon="3.5956">
        <ele>625.47</ele>
        <time>2013-08-09T12:41:50Z</time>
      </trkpt>
      <trkpt lat="44.29455" lon="3.59558">
        <ele>633.65</ele>
        <time>2013-08-09T12:41:51Z</time>
      </trkpt>
      <trkpt lat="44.2944" lon="3.59558">
        <ele>637.97</ele>
        <time>2013-08-09T12:41:52Z</time>
      </trkpt>
      <trkpt lat="44.29426" lon="3.59564">
        <ele>641.34</ele>
        <time>2013-08-09T12:41:53Z</time>
      </trkpt>
      <trkpt lat="44.29413" lon="3.59576">
        <ele>643.74</ele>
        <time>2013-08-09T12:41:54Z</time>
      </trkpt>
      <trkpt lat="44.29402" lon="3.59589">
        <ele>645.18</ele>
        <time>2013-08-09T12:41:55Z</time>
      </trkpt>
      <trkpt lat="44.29392" lon="3.59601">
        <ele>645.66</ele>
        <time>2013-08-09T12:41:56Z</time>
      </trkpt>
      <trkpt lat="44.29372" lon="3.59624">
        <ele>647.59</ele>
        <time>2013-08-09T12:41:58Z</time>
      </trkpt>
      <trkpt lat="44.2936" lon="3.59633">
        <ele>648.55</ele>
        <time>2013-08-09T12:41:59Z</time>
      </trkpt>
      <trkpt lat="44.29348" lon="3.59639">
        <ele>648.55</ele>
        <time>2013-08-09T12:42:00Z</time>
      </trkpt>
      <trkpt lat="44.29334" lon="3.59643">
        <ele>649.51</ele>
        <time>2013-08-09T12:42:01Z</time>
      </trkpt>
      <trkpt lat="44.2932" lon="3.59644">
        <ele>650.47</ele>
        <time>2013-08-09T12:42:02Z</time>
      </trkpt>
      <trkpt lat="44.29305" lon="3.59644">
        <ele>651.43</ele>
        <time>2013-08-09T12:42:03Z</time>
      </trkpt>
      <trkpt lat="44.29278" lon="3.59646">
        <ele>651.43</ele>
        <time>2013-08-09T12:42:05Z</time>
      </trkpt>
      <trkpt lat="44.29265" lon="3.5965">
        <ele>651.43</ele>
        <time>2013-08-09T12:42:06Z</time>
      </trkpt>
      <trkpt lat="44.29252" lon="3.59657">
        <ele>651.43</ele>
        <time>2013-08-09T12:42:07Z</time>
      </trkpt>
      <trkpt lat="44.2924" lon="3.59666">
        <ele>651.91</ele>
        <time>2013-08-09T12:42:08Z</time>
      </trkpt>
      <trkpt lat="44.29228" lon="3.59676">
        <ele>651.91</ele>
        <time>2013-08-09T12:42:09Z</time>
      </trkpt>
      <trkpt lat="44.29216" lon="3.59688">
        <ele>652.39</ele>
        <time>2013-08-09T12:42:10Z</time>
      </trkpt>
      <trkpt lat="44.29205" lon="3.59705">
        <ele>652.39</ele>
        <time>2013-08-09T12:42:11Z</time>
      </trkpt>
      <trkpt lat="44.29192" lon="3.59725">
        <ele>652.39</ele>
        <time>2013-08-09T12:42:12Z</time>
      </trkpt>
      <trkpt lat="44.2918" lon="3.59748">
        <ele>652.39</ele>
        <time>2013-08-09T12:42:13Z</time>
      </trkpt>
      <trkpt lat="44.29119" lon="3.59834">
        <ele>653.35</ele>
        <time>2013-08-09T12:42:18Z</time>
      </trkpt>
      <trkpt lat="44.29108" lon="3.59842">
        <ele>652.87</ele>
        <time>2013-08-09T12:42:19Z</time>
      </trkpt>
      <trkpt lat="44.29096" lon="3.59838">
        <ele>652.39</ele>
        <time>2013-08-09T12:42:20Z</time>
      </trkpt>
      <trkpt lat="44.29084" lon="3.59831">
        <ele>651.91</ele>
        <time>2013-08-09T12:42:21Z</time>
      </trkpt>
      <trkpt lat="44.29074" lon="3.59819">
        <ele>652.39</ele>
        <time>2013-08-09T12:42:22Z</time>
      </trkpt>
      <trkpt lat="44.29066" lon="3.59804">
        <ele>652.87</ele>
        <time>2013-08-09T12:42:23Z</time>
      </trkpt>
      <trkpt lat="44.29059" lon="3.59784">
        <ele>652.87</ele>
        <time>2013-08-09T12:42:24Z</time>
      </trkpt>
      <trkpt lat="44.29053" lon="3.59761">
        <ele>652.87</ele>
        <time>2013-08-09T12:42:25Z</time>
      </trkpt>
      <trkpt lat="44.29045" lon="3.59735">
        <ele>652.87</ele>
        <time>2013-08-09T12:42:26Z</time>
      </trkpt>
      <trkpt lat="44.29036" lon="3.59708">
        <ele>652.39</ele>
        <time>2013-08-09T12:42:27Z</time>
      </trkpt>
      <trkpt lat="44.29024" lon="3.59683">
        <ele>650.95</ele>
        <time>2013-08-09T12:42:28Z</time>
      </trkpt>
      <trkpt lat="44.29011" lon="3.5966">
        <ele>650.47</ele>
        <time>2013-08-09T12:42:29Z</time>
      </trkpt>
      <trkpt lat="44.28997" lon="3.5964">
        <ele>649.03</ele>
        <time>2013-08-09T12:42:30Z</time>
      </trkpt>
      <trkpt lat="44.28981" lon="3.59627">
        <ele>648.07</ele>
        <time>2013-08-09T12:42:31Z</time>
      </trkpt>
      <trkpt lat="44.28965" lon="3.59619">
        <ele>647.59</ele>
        <time>2013-08-09T12:42:32Z</time>
      </trkpt>
      <trkpt lat="44.28949" lon="3.59612">
        <ele>646.62</ele>
        <time>2013-08-09T12:42:33Z</time>
      </trkpt>
      <trkpt lat="44.28922" lon="3.59597">
        <ele>645.66</ele>
        <time>2013-08-09T12:42:35Z</time>
      </trkpt>
      <trkpt lat="44.28913" lon="3.59584">
        <ele>644.7</ele>
        <time>2013-08-09T12:42:36Z</time>
      </trkpt>
      <trkpt lat="44.28907" lon="3.59568">
        <ele>644.22</ele>
        <time>2013-08-09T12:42:37Z</time>
      </trkpt>
      <trkpt lat="44.28905" lon="3.59547">
        <ele>643.74</ele>
        <time>2013-08-09T12:42:38Z</time>
      </trkpt>
      <trkpt lat="44.28906" lon="3.59525">
        <ele>643.26</ele>
        <time>2013-08-09T12:42:39Z</time>
      </trkpt>
      <trkpt lat="44.2891" lon="3.59501">
        <ele>642.3</ele>
        <time>2013-08-09T12:42:40Z</time>
      </trkpt>
      <trkpt lat="44.28916" lon="3.59478">
        <ele>641.82</ele>
        <time>2013-08-09T12:42:41Z</time>
      </trkpt>
      <trkpt lat="44.28921" lon="3.59458">
        <ele>640.86</ele>
        <time>2013-08-09T12:42:42Z</time>
      </trkpt>
      <trkpt lat="44.28924" lon="3.59424">
        <ele>639.41</ele>
        <time>2013-08-09T12:42:44Z</time>
      </trkpt>
      <trkpt lat="44.28917" lon="3.59414">
        <ele>638.45</ele>
        <time>2013-08-09T12:42:45Z</time>
      </trkpt>
      <trkpt lat="44.28907" lon="3.59408">
        <ele>637.97</ele>
        <time>2013-08-09T12:42:46Z</time>
      </trkpt>
      <trkpt lat="44.28896" lon="3.59408">
        <ele>637.49</ele>
        <time>2013-08-09T12:42:47Z</time>
      </trkpt>
      <trkpt lat="44.28883" lon="3.59414">
        <ele>637.01</ele>
        <time>2013-08-09T12:42:48Z</time>
      </trkpt>
      <trkpt lat="44.2887" lon="3.59428">
        <ele>637.01</ele>
        <time>2013-08-09T12:42:49Z</time>
      </trkpt>
      <trkpt lat="44.28855" lon="3.59444">
        <ele>636.53</ele>
        <time>2013-08-09T12:42:50Z</time>
      </trkpt>
      <trkpt lat="44.2884" lon="3.5946">
        <ele>637.01</ele>
        <time>2013-08-09T12:42:51Z</time>
      </trkpt>
      <trkpt lat="44.28764" lon="3.59539">
        <ele>636.53</ele>
        <time>2013-08-09T12:42:57Z</time>
      </trkpt>
      <trkpt lat="44.28752" lon="3.59546">
        <ele>636.53</ele>
        <time>2013-08-09T12:42:58Z</time>
      </trkpt>
      <trkpt lat="44.2874" lon="3.5955">
        <ele>636.53</ele>
        <time>2013-08-09T12:42:59Z</time>
      </trkpt>
      <trkpt lat="44.28729" lon="3.59552">
        <ele>637.49</ele>
        <time>2013-08-09T12:43:00Z</time>
      </trkpt>
      <trkpt lat="44.28719" lon="3.59553">
        <ele>637.97</ele>
        <time>2013-08-09T12:43:01Z</time>
      </trkpt>
      <trkpt lat="44.28712" lon="3.59554">
        <ele>637.01</ele>
        <time>2013-08-09T12:43:02Z</time>
      </trkpt>
      <trkpt lat="44.28705" lon="3.59557">
        <ele>637.01</ele>
        <time>2013-08-09T12:43:03Z</time>
      </trkpt>
      <trkpt lat="44.28699" lon="3.59563">
        <ele>637.01</ele>
        <time>2013-08-09T12:43:04Z</time>
      </trkpt>
      <trkpt lat="44.28695" lon="3.59574">
        <ele>637.49</ele>
        <time>2013-08-09T12:43:05Z</time>
      </trkpt>
      <trkpt lat="44.28691" lon="3.59588">
        <ele>637.49</ele>
        <time>2013-08-09T12:43:06Z</time>
      </trkpt>
      <trkpt lat="44.28686" lon="3.59601">
        <ele>637.49</ele>
        <time>2013-08-09T12:43:07Z</time>
      </trkpt>
      <trkpt lat="44.28679" lon="3.59614">
        <ele>637.01</ele>
        <time>2013-08-09T12:43:08Z</time>
      </trkpt>
      <trkpt lat="44.2867" lon="3.59624">
        <ele>637.49</ele>
        <time>2013-08-09T12:43:09Z</time>
      </trkpt>
      <trkpt lat="44.28659" lon="3.59632">
        <ele>637.49</ele>
        <time>2013-08-09T12:43:10Z</time>
      </trkpt>
      <trkpt lat="44.28647" lon="3.59637">
        <ele>637.49</ele>
        <time>2013-08-09T12:43:11Z</time>
      </trkpt>
      <trkpt lat="44.28633" lon="3.59639">
        <ele>637.01</ele>
        <time>2013-08-09T12:43:12Z</time>
      </trkpt>
      <trkpt lat="44.2862" lon="3.59639">
        <ele>637.01</ele>
        <time>2013-08-09T12:43:13Z</time>
      </trkpt>
      <trkpt lat="44.28606" lon="3.5964">
        <ele>637.49</ele>
        <time>2013-08-09T12:43:14Z</time>
      </trkpt>
      <trkpt lat="44.28592" lon="3.59643">
        <ele>637.49</ele>
        <time>2013-08-09T12:43:15Z</time>
      </trkpt>
      <trkpt lat="44.28578" lon="3.59647">
        <ele>637.49</ele>
        <time>2013-08-09T12:43:16Z</time>
      </trkpt>
      <trkpt lat="44.28564" lon="3.59653">
        <ele>637.49</ele>
        <time>2013-08-09T12:43:17Z</time>
      </trkpt>
      <trkpt lat="44.28551" lon="3.59661">
        <ele>637.49</ele>
        <time>2013-08-09T12:43:18Z</time>
      </trkpt>
      <trkpt lat="44.2854" lon="3.59669">
        <ele>637.49</ele>
        <time>2013-08-09T12:43:19Z</time>
      </trkpt>
      <trkpt lat="44.28521" lon="3.59679">
        <ele>637.49</ele>
        <time>2013-08-09T12:43:21Z</time>
      </trkpt>
      <trkpt lat="44.28512" lon="3.59679">
        <ele>637.01</ele>
        <time>2013-08-09T12:43:22Z</time>
      </trkpt>
      <trkpt lat="44.28504" lon="3.59676">
        <ele>637.01</ele>
        <time>2013-08-09T12:43:23Z</time>
      </trkpt>
      <trkpt lat="44.28495" lon="3.59669">
        <ele>637.01</ele>
        <time>2013-08-09T12:43:24Z</time>
      </trkpt>
      <trkpt lat="44.28489" lon="3.59659">
        <ele>637.01</ele>
        <time>2013-08-09T12:43:25Z</time>
      </trkpt>
      <trkpt lat="44.28485" lon="3.59646">
        <ele>636.53</ele>
        <time>2013-08-09T12:43:26Z</time>
      </trkpt>
      <trkpt lat="44.28482" lon="3.5963">
        <ele>636.53</ele>
        <time>2013-08-09T12:43:27Z</time>
      </trkpt>
      <trkpt lat="44.28481" lon="3.59612">
        <ele>636.53</ele>
        <time>2013-08-09T12:43:28Z</time>
      </trkpt>
      <trkpt lat="44.2848" lon="3.59591">
        <ele>636.53</ele>
        <time>2013-08-09T12:43:29Z</time>
      </trkpt>
      <trkpt lat="44.2848" lon="3.59569">
        <ele>636.53</ele>
        <time>2013-08-09T12:43:30Z</time>
      </trkpt>
      <trkpt lat="44.28454" lon="3.59418">
        <ele>637.01</ele>
        <time>2013-08-09T12:43:37Z</time>
      </trkpt>
      <trkpt lat="44.284" lon="3.59261">
        <ele>637.01</ele>
        <time>2013-08-09T12:43:45Z</time>
      </trkpt>
      <trkpt lat="44.28358" lon="3.59154">
        <ele>637.01</ele>
        <time>2013-08-09T12:43:50Z</time>
      </trkpt>
      <trkpt lat="44.28346" lon="3.59134">
        <ele>637.01</ele>
        <time>2013-08-09T12:43:51Z</time>
      </trkpt>
      <trkpt lat="44.28269" lon="3.58958">
        <ele>636.05</ele>
        <time>2013-08-09T12:44:00Z</time>
      </trkpt>
      <trkpt lat="44.28267" lon="3.58942">
        <ele>636.05</ele>
        <time>2013-08-09T12:44:01Z</time>
      </trkpt>
      <trkpt lat="44.28269" lon="3.58927">
        <ele>635.57</ele>
        <time>2013-08-09T12:44:02Z</time>
      </trkpt>
      <trkpt lat="44.28276" lon="3.58913">
        <ele>635.57</ele>
        <time>2013-08-09T12:44:03Z</time>
      </trkpt>
      <trkpt lat="44.28285" lon="3.58899">
        <ele>635.09</ele>
        <time>2013-08-09T12:44:04Z</time>
      </trkpt>
      <trkpt lat="44.28295" lon="3.58883">
        <ele>634.61</ele>
        <time>2013-08-09T12:44:05Z</time>
      </trkpt>
      <trkpt lat="44.28342" lon="3.58784">
        <ele>634.13</ele>
        <time>2013-08-09T12:44:11Z</time>
      </trkpt>
      <trkpt lat="44.28346" lon="3.58772">
        <ele>634.13</ele>
        <time>2013-08-09T12:44:12Z</time>
      </trkpt>
      <trkpt lat="44.28347" lon="3.5876">
        <ele>634.13</ele>
        <time>2013-08-09T12:44:13Z</time>
      </trkpt>
      <trkpt lat="44.28345" lon="3.5875">
        <ele>634.13</ele>
        <time>2013-08-09T12:44:14Z</time>
      </trkpt>
      <trkpt lat="44.28338" lon="3.58742">
        <ele>634.13</ele>
        <time>2013-08-09T12:44:15Z</time>
      </trkpt>
      <trkpt lat="44.28326" lon="3.58743">
        <ele>634.13</ele>
        <time>2013-08-09T12:44:16Z</time>
      </trkpt>
      <trkpt lat="44.28314" lon="3.58746">
        <ele>633.65</ele>
        <time>2013-08-09T12:44:17Z</time>
      </trkpt>
      <trkpt lat="44.28301" lon="3.58748">
        <ele>633.65</ele>
        <time>2013-08-09T12:44:18Z</time>
      </trkpt>
      <trkpt lat="44.28288" lon="3.58746">
        <ele>633.65</ele>
        <time>2013-08-09T12:44:19Z</time>
      </trkpt>
      <trkpt lat="44.28276" lon="3.5874">
        <ele>633.65</ele>
        <time>2013-08-09T12:44:20Z</time>
      </trkpt>
      <trkpt lat="44.28264" lon="3.58731">
        <ele>633.65</ele>
        <time>2013-08-09T12:44:21Z</time>
      </trkpt>
      <trkpt lat="44.28251" lon="3.58721">
        <ele>633.65</ele>
        <time>2013-08-09T12:44:22Z</time>
      </trkpt>
      <trkpt lat="44.28239" lon="3.58711">
        <ele>633.65</ele>
        <time>2013-08-09T12:44:23Z</time>
      </trkpt>
      <trkpt lat="44.28226" lon="3.58703">
        <ele>633.65</ele>
        <time>2013-08-09T12:44:24Z</time>
      </trkpt>
      <trkpt lat="44.28214" lon="3.58696">
        <ele>633.65</ele>
        <time>2013-08-09T12:44:25Z</time>
      </trkpt>
      <trkpt lat="44.28184" lon="3.58682">
        <ele>633.65</ele>
        <time>2013-08-09T12:44:28Z</time>
      </trkpt>
      <trkpt lat="44.28174" lon="3.58684">
        <ele>634.13</ele>
        <time>2013-08-09T12:44:29Z</time>
      </trkpt>
      <trkpt lat="44.28162" lon="3.58696">
        <ele>634.13</ele>
        <time>2013-08-09T12:44:30Z</time>
      </trkpt>
      <trkpt lat="44.28152" lon="3.5871">
        <ele>634.61</ele>
        <time>2013-08-09T12:44:31Z</time>
      </trkpt>
      <trkpt lat="44.28142" lon="3.58726">
        <ele>634.13</ele>
        <time>2013-08-09T12:44:32Z</time>
      </trkpt>
      <trkpt lat="44.28132" lon="3.58742">
        <ele>634.13</ele>
        <time>2013-08-09T12:44:33Z</time>
      </trkpt>
      <trkpt lat="44.28077" lon="3.5881">
        <ele>629.32</ele>
        <time>2013-08-09T12:44:39Z</time>
      </trkpt>
      <trkpt lat="44.28069" lon="3.58815">
        <ele>627.88</ele>
        <time>2013-08-09T12:44:40Z</time>
      </trkpt>
      <trkpt lat="44.2806" lon="3.58816">
        <ele>626.92</ele>
        <time>2013-08-09T12:44:41Z</time>
      </trkpt>
      <trkpt lat="44.28051" lon="3.58813">
        <ele>626.44</ele>
        <time>2013-08-09T12:44:42Z</time>
      </trkpt>
      <trkpt lat="44.28042" lon="3.58802">
        <ele>626.44</ele>
        <time>2013-08-09T12:44:43Z</time>
      </trkpt>
      <trkpt lat="44.28035" lon="3.58785">
        <ele>625.96</ele>
        <time>2013-08-09T12:44:44Z</time>
      </trkpt>
      <trkpt lat="44.28026" lon="3.58766">
        <ele>624.51</ele>
        <time>2013-08-09T12:44:45Z</time>
      </trkpt>
      <trkpt lat="44.28015" lon="3.58748">
        <ele>624.03</ele>
        <time>2013-08-09T12:44:46Z</time>
      </trkpt>
      <trkpt lat="44.28004" lon="3.58731">
        <ele>623.55</ele>
        <time>2013-08-09T12:44:47Z</time>
      </trkpt>
      <trkpt lat="44.27945" lon="3.58626">
        <ele>623.55</ele>
        <time>2013-08-09T12:44:53Z</time>
      </trkpt>
      <trkpt lat="44.27934" lon="3.58612">
        <ele>623.07</ele>
        <time>2013-08-09T12:44:54Z</time>
      </trkpt>
      <trkpt lat="44.27921" lon="3.586">
        <ele>623.07</ele>
        <time>2013-08-09T12:44:55Z</time>
      </trkpt>
      <trkpt lat="44.27907" lon="3.58585">
        <ele>623.07</ele>
        <time>2013-08-09T12:44:56Z</time>
      </trkpt>
      <trkpt lat="44.27894" lon="3.5857">
        <ele>623.07</ele>
        <time>2013-08-09T12:44:57Z</time>
      </trkpt>
      <trkpt lat="44.2788" lon="3.58556">
        <ele>622.59</ele>
        <time>2013-08-09T12:44:58Z</time>
      </trkpt>
      <trkpt lat="44.27865" lon="3.58544">
        <ele>623.07</ele>
        <time>2013-08-09T12:44:59Z</time>
      </trkpt>
      <trkpt lat="44.27849" lon="3.58536">
        <ele>622.59</ele>
        <time>2013-08-09T12:45:00Z</time>
      </trkpt>
      <trkpt lat="44.27832" lon="3.58531">
        <ele>622.59</ele>
        <time>2013-08-09T12:45:01Z</time>
      </trkpt>
      <trkpt lat="44.27816" lon="3.58527">
        <ele>622.11</ele>
        <time>2013-08-09T12:45:02Z</time>
      </trkpt>
      <trkpt lat="44.278" lon="3.58524">
        <ele>622.11</ele>
        <time>2013-08-09T12:45:03Z</time>
      </trkpt>
      <trkpt lat="44.27761" lon="3.58514">
        <ele>623.07</ele>
        <time>2013-08-09T12:45:06Z</time>
      </trkpt>
      <trkpt lat="44.27751" lon="3.58518">
        <ele>623.07</ele>
        <time>2013-08-09T12:45:07Z</time>
      </trkpt>
      <trkpt lat="44.27741" lon="3.58528">
        <ele>623.07</ele>
        <time>2013-08-09T12:45:08Z</time>
      </trkpt>
      <trkpt lat="44.2773" lon="3.58541">
        <ele>622.59</ele>
        <time>2013-08-09T12:45:09Z</time>
      </trkpt>
      <trkpt lat="44.27719" lon="3.58556">
        <ele>622.59</ele>
        <time>2013-08-09T12:45:10Z</time>
      </trkpt>
      <trkpt lat="44.27706" lon="3.58572">
        <ele>623.07</ele>
        <time>2013-08-09T12:45:11Z</time>
      </trkpt>
      <trkpt lat="44.27592" lon="3.58738">
        <ele>626.44</ele>
        <time>2013-08-09T12:45:21Z</time>
      </trkpt>
      <trkpt lat="44.27572" lon="3.58772">
        <ele>626.44</ele>
        <time>2013-08-09T12:45:23Z</time>
      </trkpt>
      <trkpt lat="44.27565" lon="3.58789">
        <ele>626.44</ele>
        <time>2013-08-09T12:45:24Z</time>
      </trkpt>
      <trkpt lat="44.27561" lon="3.58807">
        <ele>626.92</ele>
        <time>2013-08-09T12:45:25Z</time>
      </trkpt>
      <trkpt lat="44.27544" lon="3.58858">
        <ele>626.92</ele>
        <time>2013-08-09T12:45:28Z</time>
      </trkpt>
      <trkpt lat="44.27533" lon="3.58873">
        <ele>626.92</ele>
        <time>2013-08-09T12:45:29Z</time>
      </trkpt>
      <trkpt lat="44.27513" lon="3.58902">
        <ele>626.44</ele>
        <time>2013-08-09T12:45:31Z</time>
      </trkpt>
      <trkpt lat="44.27506" lon="3.58919">
        <ele>626.44</ele>
        <time>2013-08-09T12:45:32Z</time>
      </trkpt>
      <trkpt lat="44.275" lon="3.58939">
        <ele>626.44</ele>
        <time>2013-08-09T12:45:33Z</time>
      </trkpt>
      <trkpt lat="44.27496" lon="3.58962">
        <ele>626.44</ele>
        <time>2013-08-09T12:45:34Z</time>
      </trkpt>
      <trkpt lat="44.27492" lon="3.58985">
        <ele>626.44</ele>
        <time>2013-08-09T12:45:35Z</time>
      </trkpt>
      <trkpt lat="44.27473" lon="3.59068">
        <ele>626.44</ele>
        <time>2013-08-09T12:45:39Z</time>
      </trkpt>
      <trkpt lat="44.27466" lon="3.59087">
        <ele>626.44</ele>
        <time>2013-08-09T12:45:40Z</time>
      </trkpt>
      <trkpt lat="44.27456" lon="3.59104">
        <ele>625.96</ele>
        <time>2013-08-09T12:45:41Z</time>
      </trkpt>
      <trkpt lat="44.27446" lon="3.5912">
        <ele>625.96</ele>
        <time>2013-08-09T12:45:42Z</time>
      </trkpt>
      <trkpt lat="44.27435" lon="3.59134">
        <ele>625.96</ele>
        <time>2013-08-09T12:45:43Z</time>
      </trkpt>
      <trkpt lat="44.27423" lon="3.59145">
        <ele>625.96</ele>
        <time>2013-08-09T12:45:44Z</time>
      </trkpt>
      <trkpt lat="44.2741" lon="3.59153">
        <ele>625.96</ele>
        <time>2013-08-09T12:45:45Z</time>
      </trkpt>
      <trkpt lat="44.27396" lon="3.59157">
        <ele>625.96</ele>
        <time>2013-08-09T12:45:46Z</time>
      </trkpt>
      <trkpt lat="44.27382" lon="3.59158">
        <ele>625.96</ele>
        <time>2013-08-09T12:45:47Z</time>
      </trkpt>
      <trkpt lat="44.27367" lon="3.59157">
        <ele>625.96</ele>
        <time>2013-08-09T12:45:48Z</time>
      </trkpt>
      <trkpt lat="44.27351" lon="3.59154">
        <ele>625.47</ele>
        <time>2013-08-09T12:45:49Z</time>
      </trkpt>
      <trkpt lat="44.27322" lon="3.59144">
        <ele>625.47</ele>
        <time>2013-08-09T12:45:51Z</time>
      </trkpt>
      <trkpt lat="44.27309" lon="3.59136">
        <ele>625.47</ele>
        <time>2013-08-09T12:45:52Z</time>
      </trkpt>
      <trkpt lat="44.27297" lon="3.59127">
        <ele>625.47</ele>
        <time>2013-08-09T12:45:53Z</time>
      </trkpt>
      <trkpt lat="44.27286" lon="3.59116">
        <ele>625.47</ele>
        <time>2013-08-09T12:45:54Z</time>
      </trkpt>
      <trkpt lat="44.27277" lon="3.59103">
        <ele>624.99</ele>
        <time>2013-08-09T12:45:55Z</time>
      </trkpt>
      <trkpt lat="44.27271" lon="3.59088">
        <ele>624.99</ele>
        <time>2013-08-09T12:45:56Z</time>
      </trkpt>
      <trkpt lat="44.27267" lon="3.59072">
        <ele>624.99</ele>
        <time>2013-08-09T12:45:57Z</time>
      </trkpt>
      <trkpt lat="44.27262" lon="3.59052">
        <ele>624.99</ele>
        <time>2013-08-09T12:45:58Z</time>
      </trkpt>
      <trkpt lat="44.27256" lon="3.59029">
        <ele>624.99</ele>
        <time>2013-08-09T12:45:59Z</time>
      </trkpt>
      <trkpt lat="44.27192" lon="3.58861">
        <ele>625.47</ele>
        <time>2013-08-09T12:46:06Z</time>
      </trkpt>
      <trkpt lat="44.27179" lon="3.58843">
        <ele>625.47</ele>
        <time>2013-08-09T12:46:07Z</time>
      </trkpt>
      <trkpt lat="44.27164" lon="3.58827">
        <ele>625.47</ele>
        <time>2013-08-09T12:46:08Z</time>
      </trkpt>
      <trkpt lat="44.27149" lon="3.58811">
        <ele>625.47</ele>
        <time>2013-08-09T12:46:09Z</time>
      </trkpt>
      <trkpt lat="44.27136" lon="3.58793">
        <ele>624.99</ele>
        <time>2013-08-09T12:46:10Z</time>
      </trkpt>
      <trkpt lat="44.27122" lon="3.58774">
        <ele>624.99</ele>
        <time>2013-08-09T12:46:11Z</time>
      </trkpt>
      <trkpt lat="44.27005" lon="3.58591">
        <ele>624.99</ele>
        <time>2013-08-09T12:46:20Z</time>
      </trkpt>
      <trkpt lat="44.26873" lon="3.58309">
        <ele>624.51</ele>
        <time>2013-08-09T12:46:32Z</time>
      </trkpt>
      <trkpt lat="44.26861" lon="3.58287">
        <ele>624.51</ele>
        <time>2013-08-09T12:46:33Z</time>
      </trkpt>
      <trkpt lat="44.26847" lon="3.58266">
        <ele>624.51</ele>
        <time>2013-08-09T12:46:34Z</time>
      </trkpt>
      <trkpt lat="44.26832" lon="3.58246">
        <ele>624.51</ele>
        <time>2013-08-09T12:46:35Z</time>
      </trkpt>
      <trkpt lat="44.26686" lon="3.58088">
        <ele>623.55</ele>
        <time>2013-08-09T12:46:44Z</time>
      </trkpt>
      <trkpt lat="44.26654" lon="3.58044">
        <ele>621.63</ele>
        <time>2013-08-09T12:46:47Z</time>
      </trkpt>
      <trkpt lat="44.26643" lon="3.58035">
        <ele>622.11</ele>
        <time>2013-08-09T12:46:48Z</time>
      </trkpt>
      <trkpt lat="44.26632" lon="3.58036">
        <ele>620.19</ele>
        <time>2013-08-09T12:46:49Z</time>
      </trkpt>
      <trkpt lat="44.2662" lon="3.58044">
        <ele>620.19</ele>
        <time>2013-08-09T12:46:50Z</time>
      </trkpt>
      <trkpt lat="44.26606" lon="3.58053">
        <ele>620.19</ele>
        <time>2013-08-09T12:46:51Z</time>
      </trkpt>
      <trkpt lat="44.26592" lon="3.58066">
        <ele>620.67</ele>
        <time>2013-08-09T12:46:52Z</time>
      </trkpt>
      <trkpt lat="44.26577" lon="3.58082">
        <ele>620.67</ele>
        <time>2013-08-09T12:46:53Z</time>
      </trkpt>
      <trkpt lat="44.26564" lon="3.58095">
        <ele>620.19</ele>
        <time>2013-08-09T12:46:54Z</time>
      </trkpt>
      <trkpt lat="44.26551" lon="3.58105">
        <ele>620.19</ele>
        <time>2013-08-09T12:46:55Z</time>
      </trkpt>
      <trkpt lat="44.26539" lon="3.58113">
        <ele>619.71</ele>
        <time>2013-08-09T12:46:56Z</time>
      </trkpt>
      <trkpt lat="44.26526" lon="3.58117">
        <ele>620.19</ele>
        <time>2013-08-09T12:46:57Z</time>
      </trkpt>
      <trkpt lat="44.26511" lon="3.58117">
        <ele>620.19</ele>
        <time>2013-08-09T12:46:58Z</time>
      </trkpt>
      <trkpt lat="44.26497" lon="3.58119">
        <ele>621.63</ele>
        <time>2013-08-09T12:46:59Z</time>
      </trkpt>
      <trkpt lat="44.26483" lon="3.58121">
        <ele>622.11</ele>
        <time>2013-08-09T12:47:00Z</time>
      </trkpt>
      <trkpt lat="44.2647" lon="3.58128">
        <ele>622.59</ele>
        <time>2013-08-09T12:47:01Z</time>
      </trkpt>
      <trkpt lat="44.26458" lon="3.5814">
        <ele>623.07</ele>
        <time>2013-08-09T12:47:02Z</time>
      </trkpt>
      <trkpt lat="44.26448" lon="3.58154">
        <ele>623.55</ele>
        <time>2013-08-09T12:47:03Z</time>
      </trkpt>
      <trkpt lat="44.26437" lon="3.58172">
        <ele>624.03</ele>
        <time>2013-08-09T12:47:04Z</time>
      </trkpt>
      <trkpt lat="44.26427" lon="3.58189">
        <ele>624.51</ele>
        <time>2013-08-09T12:47:05Z</time>
      </trkpt>
      <trkpt lat="44.26384" lon="3.58244">
        <ele>624.99</ele>
        <time>2013-08-09T12:47:09Z</time>
      </trkpt>
      <trkpt lat="44.26372" lon="3.58253">
        <ele>624.99</ele>
        <time>2013-08-09T12:47:10Z</time>
      </trkpt>
      <trkpt lat="44.26359" lon="3.58259">
        <ele>624.99</ele>
        <time>2013-08-09T12:47:11Z</time>
      </trkpt>
      <trkpt lat="44.26344" lon="3.58262">
        <ele>624.99</ele>
        <time>2013-08-09T12:47:12Z</time>
      </trkpt>
      <trkpt lat="44.26328" lon="3.58261">
        <ele>624.99</ele>
        <time>2013-08-09T12:47:13Z</time>
      </trkpt>
      <trkpt lat="44.2631" lon="3.58257">
        <ele>625.47</ele>
        <time>2013-08-09T12:47:14Z</time>
      </trkpt>
      <trkpt lat="44.26292" lon="3.58251">
        <ele>625.47</ele>
        <time>2013-08-09T12:47:15Z</time>
      </trkpt>
      <trkpt lat="44.26274" lon="3.58244">
        <ele>625.47</ele>
        <time>2013-08-09T12:47:16Z</time>
      </trkpt>
      <trkpt lat="44.26144" lon="3.58238">
        <ele>625.96</ele>
        <time>2013-08-09T12:47:23Z</time>
      </trkpt>
      <trkpt lat="44.26076" lon="3.58242">
        <ele>625.96</ele>
        <time>2013-08-09T12:47:27Z</time>
      </trkpt>
      <trkpt lat="44.2606" lon="3.58246">
        <ele>625.96</ele>
        <time>2013-08-09T12:47:28Z</time>
      </trkpt>
      <trkpt lat="44.26028" lon="3.58255">
        <ele>625.96</ele>
        <time>2013-08-09T12:47:30Z</time>
      </trkpt>
      <trkpt lat="44.26012" lon="3.58256">
        <ele>625.96</ele>
        <time>2013-08-09T12:47:31Z</time>
      </trkpt>
      <trkpt lat="44.25996" lon="3.58255">
        <ele>625.96</ele>
        <time>2013-08-09T12:47:32Z</time>
      </trkpt>
      <trkpt lat="44.25983" lon="3.58253">
        <ele>625.96</ele>
        <time>2013-08-09T12:47:33Z</time>
      </trkpt>
      <trkpt lat="44.25971" lon="3.58251">
        <ele>625.96</ele>
        <time>2013-08-09T12:47:34Z</time>
      </trkpt>
      <trkpt lat="44.25961" lon="3.58252">
        <ele>625.96</ele>
        <time>2013-08-09T12:47:35Z</time>
      </trkpt>
      <trkpt lat="44.25952" lon="3.58256">
        <ele>625.96</ele>
        <time>2013-08-09T12:47:36Z</time>
      </trkpt>
      <trkpt lat="44.25943" lon="3.5826">
        <ele>625.47</ele>
        <time>2013-08-09T12:47:37Z</time>
      </trkpt>
      <trkpt lat="44.25935" lon="3.58263">
        <ele>625.47</ele>
        <time>2013-08-09T12:47:38Z</time>
      </trkpt>
      <trkpt lat="44.25925" lon="3.58263">
        <ele>625.47</ele>
        <time>2013-08-09T12:47:39Z</time>
      </trkpt>
      <trkpt lat="44.25915" lon="3.58262">
        <ele>625.47</ele>
        <time>2013-08-09T12:47:40Z</time>
      </trkpt>
      <trkpt lat="44.25841" lon="3.58253">
        <ele>624.99</ele>
        <time>2013-08-09T12:47:46Z</time>
      </trkpt>
      <trkpt lat="44.25829" lon="3.58255">
        <ele>624.99</ele>
        <time>2013-08-09T12:47:47Z</time>
      </trkpt>
      <trkpt lat="44.25817" lon="3.58259">
        <ele>624.99</ele>
        <time>2013-08-09T12:47:48Z</time>
      </trkpt>
      <trkpt lat="44.25691" lon="3.58301">
        <ele>624.99</ele>
        <time>2013-08-09T12:47:58Z</time>
      </trkpt>
      <trkpt lat="44.2568" lon="3.58301">
        <ele>624.51</ele>
        <time>2013-08-09T12:47:59Z</time>
      </trkpt>
      <trkpt lat="44.25658" lon="3.58298">
        <ele>624.51</ele>
        <time>2013-08-09T12:48:01Z</time>
      </trkpt>
      <trkpt lat="44.25648" lon="3.58294">
        <ele>624.51</ele>
        <time>2013-08-09T12:48:02Z</time>
      </trkpt>
      <trkpt lat="44.25639" lon="3.58287">
        <ele>624.51</ele>
        <time>2013-08-09T12:48:03Z</time>
      </trkpt>
      <trkpt lat="44.25631" lon="3.58277">
        <ele>624.51</ele>
        <time>2013-08-09T12:48:04Z</time>
      </trkpt>
      <trkpt lat="44.25625" lon="3.58265">
        <ele>624.51</ele>
        <time>2013-08-09T12:48:05Z</time>
      </trkpt>
      <trkpt lat="44.25619" lon="3.58255">
        <ele>624.51</ele>
        <time>2013-08-09T12:48:06Z</time>
      </trkpt>
      <trkpt lat="44.25612" lon="3.58248">
        <ele>624.51</ele>
        <time>2013-08-09T12:48:07Z</time>
      </trkpt>
      <trkpt lat="44.25604" lon="3.58243">
        <ele>624.51</ele>
        <time>2013-08-09T12:48:08Z</time>
      </trkpt>
      <trkpt lat="44.25597" lon="3.58244">
        <ele>624.51</ele>
        <time>2013-08-09T12:48:09Z</time>
      </trkpt>
      <trkpt lat="44.2559" lon="3.58252">
        <ele>624.51</ele>
        <time>2013-08-09T12:48:10Z</time>
      </trkpt>
      <trkpt lat="44.25585" lon="3.58263">
        <ele>624.51</ele>
        <time>2013-08-09T12:48:11Z</time>
      </trkpt>
      <trkpt lat="44.25583" lon="3.58279">
        <ele>624.03</ele>
        <time>2013-08-09T12:48:12Z</time>
      </trkpt>
      <trkpt lat="44.25585" lon="3.58296">
        <ele>623.55</ele>
        <time>2013-08-09T12:48:13Z</time>
      </trkpt>
      <trkpt lat="44.25585" lon="3.58311">
        <ele>623.55</ele>
        <time>2013-08-09T12:48:14Z</time>
      </trkpt>
      <trkpt lat="44.25585" lon="3.58357">
        <ele>623.55</ele>
        <time>2013-08-09T12:48:17Z</time>
      </trkpt>
      <trkpt lat="44.25582" lon="3.58369">
        <ele>623.55</ele>
        <time>2013-08-09T12:48:18Z</time>
      </trkpt>
      <trkpt lat="44.25577" lon="3.58377">
        <ele>623.55</ele>
        <time>2013-08-09T12:48:19Z</time>
      </trkpt>
      <trkpt lat="44.25569" lon="3.5838">
        <ele>623.55</ele>
        <time>2013-08-09T12:48:20Z</time>
      </trkpt>
      <trkpt lat="44.2556" lon="3.58379">
        <ele>623.55</ele>
        <time>2013-08-09T12:48:21Z</time>
      </trkpt>
      <trkpt lat="44.25551" lon="3.58374">
        <ele>623.55</ele>
        <time>2013-08-09T12:48:22Z</time>
      </trkpt>
      <trkpt lat="44.25543" lon="3.58364">
        <ele>623.55</ele>
        <time>2013-08-09T12:48:23Z</time>
      </trkpt>
      <trkpt lat="44.25534" lon="3.58359">
        <ele>623.55</ele>
        <time>2013-08-09T12:48:24Z</time>
      </trkpt>
      <trkpt lat="44.25525" lon="3.58356">
        <ele>623.55</ele>
        <time>2013-08-09T12:48:25Z</time>
      </trkpt>
      <trkpt lat="44.25516" lon="3.58358">
        <ele>624.03</ele>
        <time>2013-08-09T12:48:26Z</time>
      </trkpt>
      <trkpt lat="44.25509" lon="3.58364">
        <ele>624.03</ele>
        <time>2013-08-09T12:48:27Z</time>
      </trkpt>
      <trkpt lat="44.25501" lon="3.58372">
        <ele>624.03</ele>
        <time>2013-08-09T12:48:28Z</time>
      </trkpt>
      <trkpt lat="44.25493" lon="3.58377">
        <ele>624.03</ele>
        <time>2013-08-09T12:48:29Z</time>
      </trkpt>
      <trkpt lat="44.25483" lon="3.5838">
        <ele>624.03</ele>
        <time>2013-08-09T12:48:30Z</time>
      </trkpt>
      <trkpt lat="44.25472" lon="3.58381">
        <ele>624.03</ele>
        <time>2013-08-09T12:48:31Z</time>
      </trkpt>
      <trkpt lat="44.2546" lon="3.58379">
        <ele>624.03</ele>
        <time>2013-08-09T12:48:32Z</time>
      </trkpt>
      <trkpt lat="44.25448" lon="3.58376">
        <ele>624.03</ele>
        <time>2013-08-09T12:48:33Z</time>
      </trkpt>
      <trkpt lat="44.2534" lon="3.58334">
        <ele>624.03</ele>
        <time>2013-08-09T12:48:42Z</time>
      </trkpt>
      <trkpt lat="44.2533" lon="3.58323">
        <ele>624.03</ele>
        <time>2013-08-09T12:48:43Z</time>
      </trkpt>
      <trkpt lat="44.25319" lon="3.5831">
        <ele>624.03</ele>
        <time>2013-08-09T12:48:44Z</time>
      </trkpt>
      <trkpt lat="44.25223" lon="3.58174">
        <ele>624.51</ele>
        <time>2013-08-09T12:48:52Z</time>
      </trkpt>
      <trkpt lat="44.25101" lon="3.58043">
        <ele>624.51</ele>
        <time>2013-08-09T12:49:01Z</time>
      </trkpt>
      <trkpt lat="44.2509" lon="3.58031">
        <ele>624.51</ele>
        <time>2013-08-09T12:49:02Z</time>
      </trkpt>
      <trkpt lat="44.2508" lon="3.58017">
        <ele>624.51</ele>
        <time>2013-08-09T12:49:03Z</time>
      </trkpt>
      <trkpt lat="44.25072" lon="3.58001">
        <ele>624.03</ele>
        <time>2013-08-09T12:49:04Z</time>
      </trkpt>
      <trkpt lat="44.25066" lon="3.57985">
        <ele>624.03</ele>
        <time>2013-08-09T12:49:05Z</time>
      </trkpt>
      <trkpt lat="44.25059" lon="3.57969">
        <ele>623.55</ele>
        <time>2013-08-09T12:49:06Z</time>
      </trkpt>
      <trkpt lat="44.25052" lon="3.57955">
        <ele>623.55</ele>
        <time>2013-08-09T12:49:07Z</time>
      </trkpt>
      <trkpt lat="44.25043" lon="3.57944">
        <ele>623.55</ele>
        <time>2013-08-09T12:49:08Z</time>
      </trkpt>
      <trkpt lat="44.25032" lon="3.57935">
        <ele>623.07</ele>
        <time>2013-08-09T12:49:09Z</time>
      </trkpt>
      <trkpt lat="44.2502" lon="3.57927">
        <ele>623.07</ele>
        <time>2013-08-09T12:49:10Z</time>
      </trkpt>
      <trkpt lat="44.25007" lon="3.57924">
        <ele>623.07</ele>
        <time>2013-08-09T12:49:11Z</time>
      </trkpt>
      <trkpt lat="44.24994" lon="3.57926">
        <ele>623.07</ele>
        <time>2013-08-09T12:49:12Z</time>
      </trkpt>
      <trkpt lat="44.24981" lon="3.57933">
        <ele>623.07</ele>
        <time>2013-08-09T12:49:13Z</time>
      </trkpt>
      <trkpt lat="44.24968" lon="3.57943">
        <ele>623.07</ele>
        <time>2013-08-09T12:49:14Z</time>
      </trkpt>
      <trkpt lat="44.24956" lon="3.57953">
        <ele>622.59</ele>
        <time>2013-08-09T12:49:15Z</time>
      </trkpt>
      <trkpt lat="44.24917" lon="3.57972">
        <ele>622.59</ele>
        <time>2013-08-09T12:49:18Z</time>
      </trkpt>
      <trkpt lat="44.24903" lon="3.57975">
        <ele>622.59</ele>
        <time>2013-08-09T12:49:19Z</time>
      </trkpt>
      <trkpt lat="44.24822" lon="3.57976">
        <ele>622.11</ele>
        <time>2013-08-09T12:49:25Z</time>
      </trkpt>
      <trkpt lat="44.2481" lon="3.57979">
        <ele>622.11</ele>
        <time>2013-08-09T12:49:26Z</time>
      </trkpt>
      <trkpt lat="44.248" lon="3.57985">
        <ele>621.63</ele>
        <time>2013-08-09T12:49:27Z</time>
      </trkpt>
      <trkpt lat="44.24791" lon="3.57993">
        <ele>621.63</ele>
        <time>2013-08-09T12:49:28Z</time>
      </trkpt>
      <trkpt lat="44.24781" lon="3.58004">
        <ele>622.11</ele>
        <time>2013-08-09T12:49:29Z</time>
      </trkpt>
      <trkpt lat="44.24771" lon="3.58016">
        <ele>622.11</ele>
        <time>2013-08-09T12:49:30Z</time>
      </trkpt>
      <trkpt lat="44.2472" lon="3.58082">
        <ele>620.67</ele>
        <time>2013-08-09T12:49:35Z</time>
      </trkpt>
      <trkpt lat="44.2471" lon="3.58098">
        <ele>620.67</ele>
        <time>2013-08-09T12:49:36Z</time>
      </trkpt>
      <trkpt lat="44.24651" lon="3.58241">
        <ele>618.75</ele>
        <time>2013-08-09T12:49:43Z</time>
      </trkpt>
      <trkpt lat="44.24611" lon="3.58341">
        <ele>618.75</ele>
        <time>2013-08-09T12:49:49Z</time>
      </trkpt>
      <trkpt lat="44.24593" lon="3.58373">
        <ele>618.75</ele>
        <time>2013-08-09T12:49:52Z</time>
      </trkpt>
      <trkpt lat="44.24585" lon="3.58381">
        <ele>618.75</ele>
        <time>2013-08-09T12:49:53Z</time>
      </trkpt>
      <trkpt lat="44.24577" lon="3.58387">
        <ele>618.75</ele>
        <time>2013-08-09T12:49:54Z</time>
      </trkpt>
      <trkpt lat="44.24569" lon="3.58388">
        <ele>619.23</ele>
        <time>2013-08-09T12:49:55Z</time>
      </trkpt>
      <trkpt lat="44.24559" lon="3.58386">
        <ele>619.23</ele>
        <time>2013-08-09T12:49:56Z</time>
      </trkpt>
      <trkpt lat="44.24549" lon="3.5838">
        <ele>619.23</ele>
        <time>2013-08-09T12:49:57Z</time>
      </trkpt>
      <trkpt lat="44.24539" lon="3.58372">
        <ele>619.71</ele>
        <time>2013-08-09T12:49:58Z</time>
      </trkpt>
      <trkpt lat="44.24529" lon="3.58363">
        <ele>619.71</ele>
        <time>2013-08-09T12:49:59Z</time>
      </trkpt>
      <trkpt lat="44.24499" lon="3.58339">
        <ele>619.71</ele>
        <time>2013-08-09T12:50:02Z</time>
      </trkpt>
      <trkpt lat="44.24492" lon="3.58329">
        <ele>619.71</ele>
        <time>2013-08-09T12:50:03Z</time>
      </trkpt>
      <trkpt lat="44.24452" lon="3.58269">
        <ele>620.19</ele>
        <time>2013-08-09T12:50:09Z</time>
      </trkpt>
      <trkpt lat="44.24442" lon="3.58263">
        <ele>620.19</ele>
        <time>2013-08-09T12:50:10Z</time>
      </trkpt>
      <trkpt lat="44.24432" lon="3.58258">
        <ele>620.67</ele>
        <time>2013-08-09T12:50:11Z</time>
      </trkpt>
      <trkpt lat="44.24422" lon="3.58253">
        <ele>621.15</ele>
        <time>2013-08-09T12:50:12Z</time>
      </trkpt>
      <trkpt lat="44.24413" lon="3.58246">
        <ele>621.63</ele>
        <time>2013-08-09T12:50:13Z</time>
      </trkpt>
      <trkpt lat="44.24405" lon="3.58238">
        <ele>621.63</ele>
        <time>2013-08-09T12:50:14Z</time>
      </trkpt>
      <trkpt lat="44.24377" lon="3.58217">
        <ele>621.63</ele>
        <time>2013-08-09T12:50:17Z</time>
      </trkpt>
      <trkpt lat="44.24299" lon="3.58186">
        <ele>621.15</ele>
        <time>2013-08-09T12:50:25Z</time>
      </trkpt>
      <trkpt lat="44.24286" lon="3.5818">
        <ele>621.63</ele>
        <time>2013-08-09T12:50:27Z</time>
      </trkpt>
      <trkpt lat="44.2428" lon="3.58175">
        <ele>621.15</ele>
        <time>2013-08-09T12:50:28Z</time>
      </trkpt>
      <trkpt lat="44.24275" lon="3.58167">
        <ele>621.63</ele>
        <time>2013-08-09T12:50:29Z</time>
      </trkpt>
      <trkpt lat="44.24273" lon="3.58157">
        <ele>621.63</ele>
        <time>2013-08-09T12:50:30Z</time>
      </trkpt>
      <trkpt lat="44.24272" lon="3.58145">
        <ele>621.63</ele>
        <time>2013-08-09T12:50:31Z</time>
      </trkpt>
      <trkpt lat="44.24273" lon="3.58133">
        <ele>621.63</ele>
        <time>2013-08-09T12:50:32Z</time>
      </trkpt>
      <trkpt lat="44.24277" lon="3.5812">
        <ele>621.63</ele>
        <time>2013-08-09T12:50:33Z</time>
      </trkpt>
      <trkpt lat="44.24281" lon="3.58108">
        <ele>621.63</ele>
        <time>2013-08-09T12:50:34Z</time>
      </trkpt>
      <trkpt lat="44.24291" lon="3.58055">
        <ele>622.59</ele>
        <time>2013-08-09T12:50:39Z</time>
      </trkpt>
      <trkpt lat="44.24291" lon="3.58044">
        <ele>622.11</ele>
        <time>2013-08-09T12:50:40Z</time>
      </trkpt>
      <trkpt lat="44.24289" lon="3.58033">
        <ele>622.11</ele>
        <time>2013-08-09T12:50:41Z</time>
      </trkpt>
      <trkpt lat="44.24283" lon="3.58022">
        <ele>622.11</ele>
        <time>2013-08-09T12:50:42Z</time>
      </trkpt>
      <trkpt lat="44.24276" lon="3.58013">
        <ele>622.11</ele>
        <time>2013-08-09T12:50:43Z</time>
      </trkpt>
      <trkpt lat="44.24267" lon="3.58005">
        <ele>622.11</ele>
        <time>2013-08-09T12:50:44Z</time>
      </trkpt>
      <trkpt lat="44.24256" lon="3.57999">
        <ele>622.11</ele>
        <time>2013-08-09T12:50:45Z</time>
      </trkpt>
      <trkpt lat="44.24246" lon="3.57994">
        <ele>622.11</ele>
        <time>2013-08-09T12:50:46Z</time>
      </trkpt>
      <trkpt lat="44.24229" lon="3.57984">
        <ele>622.11</ele>
        <time>2013-08-09T12:50:48Z</time>
      </trkpt>
      <trkpt lat="44.24222" lon="3.57976">
        <ele>622.11</ele>
        <time>2013-08-09T12:50:49Z</time>
      </trkpt>
      <trkpt lat="44.24166" lon="3.57923">
        <ele>623.07</ele>
        <time>2013-08-09T12:50:57Z</time>
      </trkpt>
      <trkpt lat="44.24122" lon="3.57858">
        <ele>622.59</ele>
        <time>2013-08-09T12:51:05Z</time>
      </trkpt>
      <trkpt lat="44.24113" lon="3.5784">
        <ele>622.59</ele>
        <time>2013-08-09T12:51:07Z</time>
      </trkpt>
      <trkpt lat="44.24108" lon="3.57833">
        <ele>622.59</ele>
        <time>2013-08-09T12:51:08Z</time>
      </trkpt>
      <trkpt lat="44.24104" lon="3.57829">
        <ele>622.59</ele>
        <time>2013-08-09T12:51:09Z</time>
      </trkpt>
      <trkpt lat="44.24099" lon="3.57826">
        <ele>622.59</ele>
        <time>2013-08-09T12:51:10Z</time>
      </trkpt>
      <trkpt lat="44.24095" lon="3.57823">
        <ele>622.59</ele>
        <time>2013-08-09T12:51:11Z</time>
      </trkpt>
      <trkpt lat="44.24091" lon="3.57822">
        <ele>622.59</ele>
        <time>2013-08-09T12:51:12Z</time>
      </trkpt>
      <trkpt lat="44.24087" lon="3.57821">
        <ele>622.59</ele>
        <time>2013-08-09T12:51:13Z</time>
      </trkpt>
      <trkpt lat="44.24083" lon="3.5782">
        <ele>622.59</ele>
        <time>2013-08-09T12:51:14Z</time>
      </trkpt>
      <trkpt lat="44.24012" lon="3.57823">
        <ele>622.59</ele>
        <time>2013-08-09T12:51:24Z</time>
      </trkpt>
      <trkpt lat="44.2398" lon="3.57834">
        <ele>622.59</ele>
        <time>2013-08-09T12:51:29Z</time>
      </trkpt>
      <trkpt lat="44.23959" lon="3.57854">
        <ele>622.59</ele>
        <time>2013-08-09T12:51:34Z</time>
      </trkpt>
      <trkpt lat="44.23956" lon="3.5786">
        <ele>622.59</ele>
        <time>2013-08-09T12:51:35Z</time>
      </trkpt>
      <trkpt lat="44.23953" lon="3.57868">
        <ele>622.59</ele>
        <time>2013-08-09T12:51:36Z</time>
      </trkpt>
      <trkpt lat="44.23951" lon="3.57876">
        <ele>622.11</ele>
        <time>2013-08-09T12:51:37Z</time>
      </trkpt>
      <trkpt lat="44.2395" lon="3.57883">
        <ele>622.11</ele>
        <time>2013-08-09T12:51:38Z</time>
      </trkpt>
      <trkpt lat="44.23938" lon="3.57937">
        <ele>622.59</ele>
        <time>2013-08-09T12:51:44Z</time>
      </trkpt>
      <trkpt lat="44.2393" lon="3.57944">
        <ele>622.59</ele>
        <time>2013-08-09T12:51:45Z</time>
      </trkpt>
      <trkpt lat="44.23922" lon="3.57949">
        <ele>622.59</ele>
        <time>2013-08-09T12:51:46Z</time>
      </trkpt>
      <trkpt lat="44.23913" lon="3.57951">
        <ele>622.59</ele>
        <time>2013-08-09T12:51:47Z</time>
      </trkpt>
      <trkpt lat="44.23903" lon="3.5795">
        <ele>623.07</ele>
        <time>2013-08-09T12:51:48Z</time>
      </trkpt>
      <trkpt lat="44.23894" lon="3.57948">
        <ele>623.07</ele>
        <time>2013-08-09T12:51:49Z</time>
      </trkpt>
      <trkpt lat="44.23886" lon="3.57945">
        <ele>623.07</ele>
        <time>2013-08-09T12:51:50Z</time>
      </trkpt>
      <trkpt lat="44.23879" lon="3.57941">
        <ele>623.07</ele>
        <time>2013-08-09T12:51:51Z</time>
      </trkpt>
      <trkpt lat="44.23874" lon="3.57937">
        <ele>623.07</ele>
        <time>2013-08-09T12:51:52Z</time>
      </trkpt>
      <trkpt lat="44.23869" lon="3.57932">
        <ele>623.07</ele>
        <time>2013-08-09T12:51:53Z</time>
      </trkpt>
      <trkpt lat="44.2386" lon="3.57922">
        <ele>623.07</ele>
        <time>2013-08-09T12:51:55Z</time>
      </trkpt>
      <trkpt lat="44.23856" lon="3.57916">
        <ele>623.07</ele>
        <time>2013-08-09T12:51:56Z</time>
      </trkpt>
      <trkpt lat="44.23853" lon="3.57908">
        <ele>623.07</ele>
        <time>2013-08-09T12:51:57Z</time>
      </trkpt>
      <trkpt lat="44.2385" lon="3.57898">
        <ele>622.59</ele>
        <time>2013-08-09T12:51:58Z</time>
      </trkpt>
      <trkpt lat="44.23848" lon="3.57888">
        <ele>622.59</ele>
        <time>2013-08-09T12:51:59Z</time>
      </trkpt>
      <trkpt lat="44.23828" lon="3.57773">
        <ele>622.59</ele>
        <time>2013-08-09T12:52:09Z</time>
      </trkpt>
      <trkpt lat="44.23824" lon="3.57761">
        <ele>622.59</ele>
        <time>2013-08-09T12:52:10Z</time>
      </trkpt>
      <trkpt lat="44.23818" lon="3.57751">
        <ele>622.59</ele>
        <time>2013-08-09T12:52:11Z</time>
      </trkpt>
      <trkpt lat="44.23811" lon="3.57742">
        <ele>622.59</ele>
        <time>2013-08-09T12:52:12Z</time>
      </trkpt>
      <trkpt lat="44.23804" lon="3.57733">
        <ele>622.59</ele>
        <time>2013-08-09T12:52:13Z</time>
      </trkpt>
      <trkpt lat="44.23758" lon="3.57684">
        <ele>623.07</ele>
        <time>2013-08-09T12:52:19Z</time>
      </trkpt>
      <trkpt lat="44.23751" lon="3.57673">
        <ele>623.07</ele>
        <time>2013-08-09T12:52:20Z</time>
      </trkpt>
      <trkpt lat="44.23745" lon="3.5766">
        <ele>623.07</ele>
        <time>2013-08-09T12:52:21Z</time>
      </trkpt>
      <trkpt lat="44.23728" lon="3.57608">
        <ele>623.07</ele>
        <time>2013-08-09T12:52:25Z</time>
      </trkpt>
      <trkpt lat="44.23727" lon="3.57596">
        <ele>623.07</ele>
        <time>2013-08-09T12:52:26Z</time>
      </trkpt>
      <trkpt lat="44.23727" lon="3.57585">
        <ele>622.59</ele>
        <time>2013-08-09T12:52:27Z</time>
      </trkpt>
      <trkpt lat="44.23726" lon="3.57575">
        <ele>622.59</ele>
        <time>2013-08-09T12:52:28Z</time>
      </trkpt>
      <trkpt lat="44.23723" lon="3.57565">
        <ele>622.59</ele>
        <time>2013-08-09T12:52:29Z</time>
      </trkpt>
      <trkpt lat="44.23718" lon="3.57558">
        <ele>622.59</ele>
        <time>2013-08-09T12:52:30Z</time>
      </trkpt>
      <trkpt lat="44.2371" lon="3.57554">
        <ele>622.59</ele>
        <time>2013-08-09T12:52:31Z</time>
      </trkpt>
      <trkpt lat="44.23701" lon="3.57555">
        <ele>622.11</ele>
        <time>2013-08-09T12:52:32Z</time>
      </trkpt>
      <trkpt lat="44.2369" lon="3.5756">
        <ele>622.11</ele>
        <time>2013-08-09T12:52:33Z</time>
      </trkpt>
      <trkpt lat="44.23679" lon="3.57563">
        <ele>622.59</ele>
        <time>2013-08-09T12:52:34Z</time>
      </trkpt>
      <trkpt lat="44.23666" lon="3.57564">
        <ele>622.59</ele>
        <time>2013-08-09T12:52:35Z</time>
      </trkpt>
      <trkpt lat="44.23654" lon="3.57562">
        <ele>622.59</ele>
        <time>2013-08-09T12:52:36Z</time>
      </trkpt>
      <trkpt lat="44.23642" lon="3.57559">
        <ele>622.11</ele>
        <time>2013-08-09T12:52:37Z</time>
      </trkpt>
      <trkpt lat="44.2363" lon="3.57555">
        <ele>622.11</ele>
        <time>2013-08-09T12:52:38Z</time>
      </trkpt>
      <trkpt lat="44.23607" lon="3.57549">
        <ele>622.11</ele>
        <time>2013-08-09T12:52:40Z</time>
      </trkpt>
      <trkpt lat="44.23595" lon="3.57549">
        <ele>622.11</ele>
        <time>2013-08-09T12:52:41Z</time>
      </trkpt>
      <trkpt lat="44.23583" lon="3.57551">
        <ele>622.11</ele>
        <time>2013-08-09T12:52:42Z</time>
      </trkpt>
      <trkpt lat="44.23571" lon="3.57555">
        <ele>622.11</ele>
        <time>2013-08-09T12:52:43Z</time>
      </trkpt>
      <trkpt lat="44.23559" lon="3.57559">
        <ele>622.11</ele>
        <time>2013-08-09T12:52:44Z</time>
      </trkpt>
      <trkpt lat="44.23451" lon="3.57642">
        <ele>622.59</ele>
        <time>2013-08-09T12:52:54Z</time>
      </trkpt>
      <trkpt lat="44.23396" lon="3.57753">
        <ele>621.15</ele>
        <time>2013-08-09T12:53:02Z</time>
      </trkpt>
      <trkpt lat="44.23394" lon="3.57767">
        <ele>620.67</ele>
        <time>2013-08-09T12:53:03Z</time>
      </trkpt>
      <trkpt lat="44.23391" lon="3.57794">
        <ele>619.71</ele>
        <time>2013-08-09T12:53:05Z</time>
      </trkpt>
      <trkpt lat="44.23384" lon="3.57835">
        <ele>619.71</ele>
        <time>2013-08-09T12:53:08Z</time>
      </trkpt>
      <trkpt lat="44.2338" lon="3.57849">
        <ele>619.71</ele>
        <time>2013-08-09T12:53:09Z</time>
      </trkpt>
      <trkpt lat="44.23373" lon="3.57862">
        <ele>620.19</ele>
        <time>2013-08-09T12:53:10Z</time>
      </trkpt>
      <trkpt lat="44.23366" lon="3.57873">
        <ele>620.19</ele>
        <time>2013-08-09T12:53:11Z</time>
      </trkpt>
      <trkpt lat="44.23358" lon="3.57882">
        <ele>620.67</ele>
        <time>2013-08-09T12:53:12Z</time>
      </trkpt>
      <trkpt lat="44.23349" lon="3.57888">
        <ele>620.67</ele>
        <time>2013-08-09T12:53:13Z</time>
      </trkpt>
      <trkpt lat="44.23339" lon="3.5789">
        <ele>620.67</ele>
        <time>2013-08-09T12:53:14Z</time>
      </trkpt>
      <trkpt lat="44.23329" lon="3.57888">
        <ele>620.67</ele>
        <time>2013-08-09T12:53:15Z</time>
      </trkpt>
      <trkpt lat="44.23319" lon="3.57879">
        <ele>621.15</ele>
        <time>2013-08-09T12:53:16Z</time>
      </trkpt>
      <trkpt lat="44.2331" lon="3.57867">
        <ele>621.15</ele>
        <time>2013-08-09T12:53:17Z</time>
      </trkpt>
      <trkpt lat="44.23303" lon="3.57851">
        <ele>621.15</ele>
        <time>2013-08-09T12:53:18Z</time>
      </trkpt>
      <trkpt lat="44.23296" lon="3.57835">
        <ele>621.15</ele>
        <time>2013-08-09T12:53:19Z</time>
      </trkpt>
      <trkpt lat="44.2329" lon="3.57818">
        <ele>621.15</ele>
        <time>2013-08-09T12:53:20Z</time>
      </trkpt>
      <trkpt lat="44.23248" lon="3.57722">
        <ele>620.67</ele>
        <time>2013-08-09T12:53:28Z</time>
      </trkpt>
      <trkpt lat="44.23234" lon="3.57701">
        <ele>620.67</ele>
        <time>2013-08-09T12:53:30Z</time>
      </trkpt>
      <trkpt lat="44.23224" lon="3.57691">
        <ele>620.67</ele>
        <time>2013-08-09T12:53:31Z</time>
      </trkpt>
      <trkpt lat="44.23213" lon="3.57682">
        <ele>620.67</ele>
        <time>2013-08-09T12:53:32Z</time>
      </trkpt>
      <trkpt lat="44.23201" lon="3.57674">
        <ele>620.67</ele>
        <time>2013-08-09T12:53:33Z</time>
      </trkpt>
      <trkpt lat="44.23188" lon="3.57668">
        <ele>620.67</ele>
        <time>2013-08-09T12:53:34Z</time>
      </trkpt>
      <trkpt lat="44.23174" lon="3.57662">
        <ele>620.67</ele>
        <time>2013-08-09T12:53:35Z</time>
      </trkpt>
      <trkpt lat="44.23161" lon="3.57658">
        <ele>620.67</ele>
        <time>2013-08-09T12:53:36Z</time>
      </trkpt>
      <trkpt lat="44.23124" lon="3.57649">
        <ele>620.67</ele>
        <time>2013-08-09T12:53:39Z</time>
      </trkpt>
      <trkpt lat="44.23113" lon="3.57648">
        <ele>620.67</ele>
        <time>2013-08-09T12:53:40Z</time>
      </trkpt>
      <trkpt lat="44.23102" lon="3.57649">
        <ele>620.67</ele>
        <time>2013-08-09T12:53:41Z</time>
      </trkpt>
      <trkpt lat="44.23091" lon="3.57651">
        <ele>620.67</ele>
        <time>2013-08-09T12:53:42Z</time>
      </trkpt>
      <trkpt lat="44.2308" lon="3.57653">
        <ele>620.67</ele>
        <time>2013-08-09T12:53:43Z</time>
      </trkpt>
      <trkpt lat="44.22969" lon="3.57693">
        <ele>621.15</ele>
        <time>2013-08-09T12:53:54Z</time>
      </trkpt>
      <trkpt lat="44.22945" lon="3.57701">
        <ele>621.63</ele>
        <time>2013-08-09T12:53:57Z</time>
      </trkpt>
      <trkpt lat="44.22936" lon="3.57703">
        <ele>621.63</ele>
        <time>2013-08-09T12:53:58Z</time>
      </trkpt>
      <trkpt lat="44.22928" lon="3.57702">
        <ele>621.63</ele>
        <time>2013-08-09T12:53:59Z</time>
      </trkpt>
      <trkpt lat="44.22911" lon="3.57697">
        <ele>621.63</ele>
        <time>2013-08-09T12:54:01Z</time>
      </trkpt>
      <trkpt lat="44.22893" lon="3.57691">
        <ele>621.63</ele>
        <time>2013-08-09T12:54:03Z</time>
      </trkpt>
      <trkpt lat="44.22885" lon="3.57687">
        <ele>621.63</ele>
        <time>2013-08-09T12:54:04Z</time>
      </trkpt>
      <trkpt lat="44.22877" lon="3.5768">
        <ele>622.11</ele>
        <time>2013-08-09T12:54:05Z</time>
      </trkpt>
      <trkpt lat="44.2287" lon="3.57673">
        <ele>622.11</ele>
        <time>2013-08-09T12:54:06Z</time>
      </trkpt>
      <trkpt lat="44.22864" lon="3.57665">
        <ele>622.11</ele>
        <time>2013-08-09T12:54:07Z</time>
      </trkpt>
      <trkpt lat="44.22859" lon="3.57655">
        <ele>622.11</ele>
        <time>2013-08-09T12:54:08Z</time>
      </trkpt>
      <trkpt lat="44.22855" lon="3.57644">
        <ele>622.11</ele>
        <time>2013-08-09T12:54:09Z</time>
      </trkpt>
      <trkpt lat="44.22853" lon="3.57633">
        <ele>622.11</ele>
        <time>2013-08-09T12:54:10Z</time>
      </trkpt>
      <trkpt lat="44.22852" lon="3.57623">
        <ele>622.11</ele>
        <time>2013-08-09T12:54:11Z</time>
      </trkpt>
      <trkpt lat="44.22852" lon="3.57615">
        <ele>621.63</ele>
        <time>2013-08-09T12:54:12Z</time>
      </trkpt>
      <trkpt lat="44.22851" lon="3.57608">
        <ele>621.63</ele>
        <time>2013-08-09T12:54:13Z</time>
      </trkpt>
      <trkpt lat="44.22849" lon="3.57603">
        <ele>622.11</ele>
        <time>2013-08-09T12:54:14Z</time>
      </trkpt>
      <trkpt lat="44.22845" lon="3.57601">
        <ele>622.11</ele>
        <time>2013-08-09T12:54:15Z</time>
      </trkpt>
      <trkpt lat="44.22839" lon="3.576">
        <ele>621.63</ele>
        <time>2013-08-09T12:54:16Z</time>
      </trkpt>
      <trkpt lat="44.2283" lon="3.57602">
        <ele>621.63</ele>
        <time>2013-08-09T12:54:17Z</time>
      </trkpt>
      <trkpt lat="44.22819" lon="3.57605">
        <ele>621.63</ele>
        <time>2013-08-09T12:54:18Z</time>
      </trkpt>
      <trkpt lat="44.22807" lon="3.5761">
        <ele>621.63</ele>
        <time>2013-08-09T12:54:19Z</time>
      </trkpt>
      <trkpt lat="44.22675" lon="3.57658">
        <ele>622.11</ele>
        <time>2013-08-09T12:54:27Z</time>
      </trkpt>
      <trkpt lat="44.22606" lon="3.57694">
        <ele>622.11</ele>
        <time>2013-08-09T12:54:31Z</time>
      </trkpt>
      <trkpt lat="44.2259" lon="3.57709">
        <ele>622.11</ele>
        <time>2013-08-09T12:54:32Z</time>
      </trkpt>
      <trkpt lat="44.22575" lon="3.57726">
        <ele>622.11</ele>
        <time>2013-08-09T12:54:33Z</time>
      </trkpt>
      <trkpt lat="44.22561" lon="3.57744">
        <ele>622.11</ele>
        <time>2013-08-09T12:54:34Z</time>
      </trkpt>
      <trkpt lat="44.22549" lon="3.57763">
        <ele>622.11</ele>
        <time>2013-08-09T12:54:35Z</time>
      </trkpt>
      <trkpt lat="44.22538" lon="3.57784">
        <ele>622.11</ele>
        <time>2013-08-09T12:54:36Z</time>
      </trkpt>
      <trkpt lat="44.22527" lon="3.57807">
        <ele>622.11</ele>
        <time>2013-08-09T12:54:37Z</time>
      </trkpt>
      <trkpt lat="44.22453" lon="3.57937">
        <ele>622.59</ele>
        <time>2013-08-09T12:54:44Z</time>
      </trkpt>
      <trkpt lat="44.22436" lon="3.57957">
        <ele>623.07</ele>
        <time>2013-08-09T12:54:46Z</time>
      </trkpt>
      <trkpt lat="44.22428" lon="3.57964">
        <ele>623.07</ele>
        <time>2013-08-09T12:54:47Z</time>
      </trkpt>
      <trkpt lat="44.22418" lon="3.57968">
        <ele>623.55</ele>
        <time>2013-08-09T12:54:48Z</time>
      </trkpt>
      <trkpt lat="44.22408" lon="3.57967">
        <ele>623.55</ele>
        <time>2013-08-09T12:54:49Z</time>
      </trkpt>
      <trkpt lat="44.22397" lon="3.57963">
        <ele>623.55</ele>
        <time>2013-08-09T12:54:50Z</time>
      </trkpt>
      <trkpt lat="44.22386" lon="3.57955">
        <ele>623.55</ele>
        <time>2013-08-09T12:54:51Z</time>
      </trkpt>
      <trkpt lat="44.22373" lon="3.57945">
        <ele>623.55</ele>
        <time>2013-08-09T12:54:52Z</time>
      </trkpt>
      <trkpt lat="44.22358" lon="3.57935">
        <ele>624.03</ele>
        <time>2013-08-09T12:54:53Z</time>
      </trkpt>
      <trkpt lat="44.22282" lon="3.57868">
        <ele>623.55</ele>
        <time>2013-08-09T12:54:59Z</time>
      </trkpt>
      <trkpt lat="44.22272" lon="3.57853">
        <ele>623.07</ele>
        <time>2013-08-09T12:55:00Z</time>
      </trkpt>
      <trkpt lat="44.22265" lon="3.57834">
        <ele>622.11</ele>
        <time>2013-08-09T12:55:01Z</time>
      </trkpt>
      <trkpt lat="44.22258" lon="3.57815">
        <ele>622.11</ele>
        <time>2013-08-09T12:55:02Z</time>
      </trkpt>
      <trkpt lat="44.22252" lon="3.57797">
        <ele>621.15</ele>
        <time>2013-08-09T12:55:03Z</time>
      </trkpt>
      <trkpt lat="44.22247" lon="3.57779">
        <ele>620.67</ele>
        <time>2013-08-09T12:55:04Z</time>
      </trkpt>
      <trkpt lat="44.22241" lon="3.57762">
        <ele>621.15</ele>
        <time>2013-08-09T12:55:05Z</time>
      </trkpt>
      <trkpt lat="44.22235" lon="3.57691">
        <ele>619.71</ele>
        <time>2013-08-09T12:55:09Z</time>
      </trkpt>
      <trkpt lat="44.22239" lon="3.57671">
        <ele>619.71</ele>
        <time>2013-08-09T12:55:10Z</time>
      </trkpt>
      <trkpt lat="44.22245" lon="3.57651">
        <ele>619.71</ele>
        <time>2013-08-09T12:55:11Z</time>
      </trkpt>
      <trkpt lat="44.22251" lon="3.57632">
        <ele>619.71</ele>
        <time>2013-08-09T12:55:12Z</time>
      </trkpt>
      <trkpt lat="44.22256" lon="3.57612">
        <ele>619.23</ele>
        <time>2013-08-09T12:55:13Z</time>
      </trkpt>
      <trkpt lat="44.2226" lon="3.57593">
        <ele>619.23</ele>
        <time>2013-08-09T12:55:14Z</time>
      </trkpt>
      <trkpt lat="44.22265" lon="3.57574">
        <ele>618.75</ele>
        <time>2013-08-09T12:55:15Z</time>
      </trkpt>
      <trkpt lat="44.22272" lon="3.57556">
        <ele>618.75</ele>
        <time>2013-08-09T12:55:16Z</time>
      </trkpt>
      <trkpt lat="44.22279" lon="3.5754">
        <ele>618.75</ele>
        <time>2013-08-09T12:55:17Z</time>
      </trkpt>
      <trkpt lat="44.22289" lon="3.57526">
        <ele>619.23</ele>
        <time>2013-08-09T12:55:18Z</time>
      </trkpt>
      <trkpt lat="44.22297" lon="3.57513">
        <ele>619.23</ele>
        <time>2013-08-09T12:55:19Z</time>
      </trkpt>
      <trkpt lat="44.22303" lon="3.575">
        <ele>619.71</ele>
        <time>2013-08-09T12:55:20Z</time>
      </trkpt>
      <trkpt lat="44.22306" lon="3.57474">
        <ele>619.23</ele>
        <time>2013-08-09T12:55:22Z</time>
      </trkpt>
      <trkpt lat="44.22299" lon="3.57464">
        <ele>620.19</ele>
        <time>2013-08-09T12:55:23Z</time>
      </trkpt>
      <trkpt lat="44.22286" lon="3.57455">
        <ele>621.15</ele>
        <time>2013-08-09T12:55:24Z</time>
      </trkpt>
      <trkpt lat="44.22269" lon="3.5745">
        <ele>621.15</ele>
        <time>2013-08-09T12:55:25Z</time>
      </trkpt>
      <trkpt lat="44.22251" lon="3.57449">
        <ele>621.15</ele>
        <time>2013-08-09T12:55:26Z</time>
      </trkpt>
      <trkpt lat="44.22233" lon="3.57452">
        <ele>621.63</ele>
        <time>2013-08-09T12:55:27Z</time>
      </trkpt>
      <trkpt lat="44.22216" lon="3.57458">
        <ele>621.63</ele>
        <time>2013-08-09T12:55:28Z</time>
      </trkpt>
      <trkpt lat="44.22199" lon="3.57462">
        <ele>622.11</ele>
        <time>2013-08-09T12:55:29Z</time>
      </trkpt>
      <trkpt lat="44.22125" lon="3.57486">
        <ele>622.11</ele>
        <time>2013-08-09T12:55:34Z</time>
      </trkpt>
      <trkpt lat="44.22113" lon="3.57495">
        <ele>622.59</ele>
        <time>2013-08-09T12:55:35Z</time>
      </trkpt>
      <trkpt lat="44.22101" lon="3.57508">
        <ele>622.59</ele>
        <time>2013-08-09T12:55:36Z</time>
      </trkpt>
      <trkpt lat="44.2209" lon="3.57523">
        <ele>622.59</ele>
        <time>2013-08-09T12:55:37Z</time>
      </trkpt>
      <trkpt lat="44.2208" lon="3.57538">
        <ele>622.59</ele>
        <time>2013-08-09T12:55:38Z</time>
      </trkpt>
      <trkpt lat="44.22072" lon="3.57555">
        <ele>622.59</ele>
        <time>2013-08-09T12:55:39Z</time>
      </trkpt>
      <trkpt lat="44.22065" lon="3.57571">
        <ele>622.59</ele>
        <time>2013-08-09T12:55:40Z</time>
      </trkpt>
      <trkpt lat="44.22061" lon="3.57589">
        <ele>622.59</ele>
        <time>2013-08-09T12:55:41Z</time>
      </trkpt>
      <trkpt lat="44.2206" lon="3.57609">
        <ele>621.63</ele>
        <time>2013-08-09T12:55:42Z</time>
      </trkpt>
      <trkpt lat="44.22061" lon="3.57631">
        <ele>621.15</ele>
        <time>2013-08-09T12:55:43Z</time>
      </trkpt>
      <trkpt lat="44.22065" lon="3.57653">
        <ele>621.15</ele>
        <time>2013-08-09T12:55:44Z</time>
      </trkpt>
      <trkpt lat="44.22069" lon="3.57675">
        <ele>621.15</ele>
        <time>2013-08-09T12:55:45Z</time>
      </trkpt>
      <trkpt lat="44.22073" lon="3.57696">
        <ele>621.15</ele>
        <time>2013-08-09T12:55:46Z</time>
      </trkpt>
      <trkpt lat="44.22079" lon="3.57736">
        <ele>621.63</ele>
        <time>2013-08-09T12:55:48Z</time>
      </trkpt>
      <trkpt lat="44.22079" lon="3.57755">
        <ele>621.63</ele>
        <time>2013-08-09T12:55:49Z</time>
      </trkpt>
      <trkpt lat="44.22078" lon="3.57773">
        <ele>621.63</ele>
        <time>2013-08-09T12:55:50Z</time>
      </trkpt>
      <trkpt lat="44.22074" lon="3.57789">
        <ele>622.11</ele>
        <time>2013-08-09T12:55:51Z</time>
      </trkpt>
      <trkpt lat="44.22068" lon="3.57805">
        <ele>622.11</ele>
        <time>2013-08-09T12:55:52Z</time>
      </trkpt>
      <trkpt lat="44.22059" lon="3.57822">
        <ele>622.11</ele>
        <time>2013-08-09T12:55:53Z</time>
      </trkpt>
      <trkpt lat="44.21996" lon="3.57942">
        <ele>622.11</ele>
        <time>2013-08-09T12:55:58Z</time>
      </trkpt>
      <trkpt lat="44.21895" lon="3.58114">
        <ele>621.63</ele>
        <time>2013-08-09T12:56:06Z</time>
      </trkpt>
      <trkpt lat="44.21892" lon="3.58133">
        <ele>621.63</ele>
        <time>2013-08-09T12:56:07Z</time>
      </trkpt>
      <trkpt lat="44.21893" lon="3.58153">
        <ele>621.63</ele>
        <time>2013-08-09T12:56:08Z</time>
      </trkpt>
      <trkpt lat="44.21899" lon="3.58171">
        <ele>621.15</ele>
        <time>2013-08-09T12:56:09Z</time>
      </trkpt>
      <trkpt lat="44.2191" lon="3.58187">
        <ele>621.15</ele>
        <time>2013-08-09T12:56:10Z</time>
      </trkpt>
      <trkpt lat="44.21924" lon="3.58199">
        <ele>621.15</ele>
        <time>2013-08-09T12:56:11Z</time>
      </trkpt>
      <trkpt lat="44.2194" lon="3.58211">
        <ele>621.15</ele>
        <time>2013-08-09T12:56:12Z</time>
      </trkpt>
      <trkpt lat="44.21958" lon="3.58218">
        <ele>621.63</ele>
        <time>2013-08-09T12:56:13Z</time>
      </trkpt>
      <trkpt lat="44.21976" lon="3.58222">
        <ele>622.11</ele>
        <time>2013-08-09T12:56:14Z</time>
      </trkpt>
      <trkpt lat="44.21991" lon="3.58227">
        <ele>622.59</ele>
        <time>2013-08-09T12:56:15Z</time>
      </trkpt>
      <trkpt lat="44.22019" lon="3.58243">
        <ele>623.07</ele>
        <time>2013-08-09T12:56:17Z</time>
      </trkpt>
      <trkpt lat="44.2203" lon="3.58254">
        <ele>623.07</ele>
        <time>2013-08-09T12:56:18Z</time>
      </trkpt>
      <trkpt lat="44.2204" lon="3.58269">
        <ele>623.55</ele>
        <time>2013-08-09T12:56:19Z</time>
      </trkpt>
      <trkpt lat="44.22048" lon="3.58287">
        <ele>623.55</ele>
        <time>2013-08-09T12:56:20Z</time>
      </trkpt>
      <trkpt lat="44.22054" lon="3.58308">
        <ele>623.55</ele>
        <time>2013-08-09T12:56:21Z</time>
      </trkpt>
      <trkpt lat="44.22058" lon="3.58332">
        <ele>623.55</ele>
        <time>2013-08-09T12:56:22Z</time>
      </trkpt>
      <trkpt lat="44.22062" lon="3.58354">
        <ele>623.55</ele>
        <time>2013-08-09T12:56:23Z</time>
      </trkpt>
      <trkpt lat="44.22064" lon="3.58376">
        <ele>623.55</ele>
        <time>2013-08-09T12:56:24Z</time>
      </trkpt>
      <trkpt lat="44.22064" lon="3.58398">
        <ele>624.03</ele>
        <time>2013-08-09T12:56:25Z</time>
      </trkpt>
      <trkpt lat="44.22061" lon="3.58421">
        <ele>624.03</ele>
        <time>2013-08-09T12:56:26Z</time>
      </trkpt>
      <trkpt lat="44.22057" lon="3.58443">
        <ele>624.51</ele>
        <time>2013-08-09T12:56:27Z</time>
      </trkpt>
      <trkpt lat="44.22053" lon="3.58465">
        <ele>624.51</ele>
        <time>2013-08-09T12:56:28Z</time>
      </trkpt>
      <trkpt lat="44.22046" lon="3.58485">
        <ele>624.99</ele>
        <time>2013-08-09T12:56:29Z</time>
      </trkpt>
      <trkpt lat="44.22036" lon="3.58504">
        <ele>624.99</ele>
        <time>2013-08-09T12:56:30Z</time>
      </trkpt>
      <trkpt lat="44.22024" lon="3.5852">
        <ele>624.99</ele>
        <time>2013-08-09T12:56:31Z</time>
      </trkpt>
      <trkpt lat="44.2201" lon="3.58532">
        <ele>625.47</ele>
        <time>2013-08-09T12:56:32Z</time>
      </trkpt>
      <trkpt lat="44.21995" lon="3.58541">
        <ele>624.99</ele>
        <time>2013-08-09T12:56:33Z</time>
      </trkpt>
      <trkpt lat="44.21978" lon="3.58545">
        <ele>624.99</ele>
        <time>2013-08-09T12:56:34Z</time>
      </trkpt>
      <trkpt lat="44.21962" lon="3.58544">
        <ele>624.99</ele>
        <time>2013-08-09T12:56:35Z</time>
      </trkpt>
      <trkpt lat="44.21945" lon="3.58537">
        <ele>624.99</ele>
        <time>2013-08-09T12:56:36Z</time>
      </trkpt>
      <trkpt lat="44.21931" lon="3.58521">
        <ele>626.44</ele>
        <time>2013-08-09T12:56:37Z</time>
      </trkpt>
      <trkpt lat="44.21917" lon="3.58504">
        <ele>627.4</ele>
        <time>2013-08-09T12:56:38Z</time>
      </trkpt>
      <trkpt lat="44.21907" lon="3.58484">
        <ele>627.4</ele>
        <time>2013-08-09T12:56:39Z</time>
      </trkpt>
      <trkpt lat="44.21894" lon="3.58463">
        <ele>628.36</ele>
        <time>2013-08-09T12:56:40Z</time>
      </trkpt>
      <trkpt lat="44.21882" lon="3.58443">
        <ele>628.36</ele>
        <time>2013-08-09T12:56:41Z</time>
      </trkpt>
      <trkpt lat="44.21863" lon="3.58402">
        <ele>627.88</ele>
        <time>2013-08-09T12:56:43Z</time>
      </trkpt>
      <trkpt lat="44.21856" lon="3.5838">
        <ele>627.88</ele>
        <time>2013-08-09T12:56:44Z</time>
      </trkpt>
      <trkpt lat="44.21835" lon="3.58327">
        <ele>627.88</ele>
        <time>2013-08-09T12:56:47Z</time>
      </trkpt>
      <trkpt lat="44.21826" lon="3.58314">
        <ele>627.88</ele>
        <time>2013-08-09T12:56:48Z</time>
      </trkpt>
      <trkpt lat="44.21815" lon="3.58304">
        <ele>627.88</ele>
        <time>2013-08-09T12:56:49Z</time>
      </trkpt>
      <trkpt lat="44.21802" lon="3.58298">
        <ele>627.88</ele>
        <time>2013-08-09T12:56:50Z</time>
      </trkpt>
      <trkpt lat="44.21787" lon="3.58296">
        <ele>628.36</ele>
        <time>2013-08-09T12:56:51Z</time>
      </trkpt>
      <trkpt lat="44.21771" lon="3.58297">
        <ele>628.84</ele>
        <time>2013-08-09T12:56:52Z</time>
      </trkpt>
      <trkpt lat="44.21753" lon="3.583">
        <ele>628.84</ele>
        <time>2013-08-09T12:56:53Z</time>
      </trkpt>
      <trkpt lat="44.21736" lon="3.58308">
        <ele>628.36</ele>
        <time>2013-08-09T12:56:54Z</time>
      </trkpt>
      <trkpt lat="44.21718" lon="3.58316">
        <ele>628.84</ele>
        <time>2013-08-09T12:56:55Z</time>
      </trkpt>
      <trkpt lat="44.21701" lon="3.58328">
        <ele>628.84</ele>
        <time>2013-08-09T12:56:56Z</time>
      </trkpt>
      <trkpt lat="44.21686" lon="3.5834">
        <ele>629.32</ele>
        <time>2013-08-09T12:56:57Z</time>
      </trkpt>
      <trkpt lat="44.21671" lon="3.58351">
        <ele>629.32</ele>
        <time>2013-08-09T12:56:58Z</time>
      </trkpt>
      <trkpt lat="44.21645" lon="3.58375">
        <ele>629.32</ele>
        <time>2013-08-09T12:57:00Z</time>
      </trkpt>
      <trkpt lat="44.21634" lon="3.58393">
        <ele>629.8</ele>
        <time>2013-08-09T12:57:01Z</time>
      </trkpt>
      <trkpt lat="44.21625" lon="3.58414">
        <ele>629.8</ele>
        <time>2013-08-09T12:57:02Z</time>
      </trkpt>
      <trkpt lat="44.21602" lon="3.58475">
        <ele>629.32</ele>
        <time>2013-08-09T12:57:05Z</time>
      </trkpt>
      <trkpt lat="44.21599" lon="3.58494">
        <ele>628.84</ele>
        <time>2013-08-09T12:57:06Z</time>
      </trkpt>
      <trkpt lat="44.21599" lon="3.58513">
        <ele>628.84</ele>
        <time>2013-08-09T12:57:07Z</time>
      </trkpt>
      <trkpt lat="44.216" lon="3.58534">
        <ele>628.84</ele>
        <time>2013-08-09T12:57:08Z</time>
      </trkpt>
      <trkpt lat="44.216" lon="3.58555">
        <ele>628.84</ele>
        <time>2013-08-09T12:57:09Z</time>
      </trkpt>
      <trkpt lat="44.21597" lon="3.58575">
        <ele>628.84</ele>
        <time>2013-08-09T12:57:10Z</time>
      </trkpt>
      <trkpt lat="44.21592" lon="3.58596">
        <ele>629.32</ele>
        <time>2013-08-09T12:57:11Z</time>
      </trkpt>
      <trkpt lat="44.21583" lon="3.58618">
        <ele>629.8</ele>
        <time>2013-08-09T12:57:12Z</time>
      </trkpt>
      <trkpt lat="44.21576" lon="3.58639">
        <ele>629.8</ele>
        <time>2013-08-09T12:57:13Z</time>
      </trkpt>
      <trkpt lat="44.21549" lon="3.587">
        <ele>629.8</ele>
        <time>2013-08-09T12:57:16Z</time>
      </trkpt>
      <trkpt lat="44.21537" lon="3.58716">
        <ele>629.8</ele>
        <time>2013-08-09T12:57:17Z</time>
      </trkpt>
      <trkpt lat="44.21523" lon="3.58729">
        <ele>630.28</ele>
        <time>2013-08-09T12:57:18Z</time>
      </trkpt>
      <trkpt lat="44.21508" lon="3.58739">
        <ele>630.28</ele>
        <time>2013-08-09T12:57:19Z</time>
      </trkpt>
      <trkpt lat="44.21492" lon="3.58746">
        <ele>630.76</ele>
        <time>2013-08-09T12:57:20Z</time>
      </trkpt>
      <trkpt lat="44.21473" lon="3.5875">
        <ele>630.76</ele>
        <time>2013-08-09T12:57:21Z</time>
      </trkpt>
      <trkpt lat="44.21453" lon="3.58755">
        <ele>631.24</ele>
        <time>2013-08-09T12:57:22Z</time>
      </trkpt>
      <trkpt lat="44.21381" lon="3.58765">
        <ele>631.24</ele>
        <time>2013-08-09T12:57:26Z</time>
      </trkpt>
      <trkpt lat="44.21363" lon="3.58761">
        <ele>631.24</ele>
        <time>2013-08-09T12:57:27Z</time>
      </trkpt>
      <trkpt lat="44.21345" lon="3.58755">
        <ele>631.72</ele>
        <time>2013-08-09T12:57:28Z</time>
      </trkpt>
      <trkpt lat="44.21238" lon="3.58723">
        <ele>631.24</ele>
        <time>2013-08-09T12:57:34Z</time>
      </trkpt>
      <trkpt lat="44.21217" lon="3.58726">
        <ele>631.24</ele>
        <time>2013-08-09T12:57:35Z</time>
      </trkpt>
      <trkpt lat="44.21078" lon="3.58751">
        <ele>633.65</ele>
        <time>2013-08-09T12:57:43Z</time>
      </trkpt>
      <trkpt lat="44.21066" lon="3.58758">
        <ele>634.13</ele>
        <time>2013-08-09T12:57:44Z</time>
      </trkpt>
      <trkpt lat="44.21056" lon="3.58763">
        <ele>634.61</ele>
        <time>2013-08-09T12:57:45Z</time>
      </trkpt>
      <trkpt lat="44.21045" lon="3.58766">
        <ele>635.09</ele>
        <time>2013-08-09T12:57:46Z</time>
      </trkpt>
      <trkpt lat="44.21035" lon="3.58765">
        <ele>635.57</ele>
        <time>2013-08-09T12:57:47Z</time>
      </trkpt>
      <trkpt lat="44.21024" lon="3.58757">
        <ele>636.53</ele>
        <time>2013-08-09T12:57:48Z</time>
      </trkpt>
      <trkpt lat="44.21014" lon="3.58743">
        <ele>637.01</ele>
        <time>2013-08-09T12:57:49Z</time>
      </trkpt>
      <trkpt lat="44.21004" lon="3.58724">
        <ele>636.53</ele>
        <time>2013-08-09T12:57:50Z</time>
      </trkpt>
      <trkpt lat="44.20994" lon="3.58704">
        <ele>637.01</ele>
        <time>2013-08-09T12:57:51Z</time>
      </trkpt>
      <trkpt lat="44.20986" lon="3.58683">
        <ele>637.01</ele>
        <time>2013-08-09T12:57:52Z</time>
      </trkpt>
      <trkpt lat="44.2098" lon="3.58659">
        <ele>637.01</ele>
        <time>2013-08-09T12:57:53Z</time>
      </trkpt>
      <trkpt lat="44.20972" lon="3.58635">
        <ele>637.49</ele>
        <time>2013-08-09T12:57:54Z</time>
      </trkpt>
      <trkpt lat="44.20927" lon="3.58428">
        <ele>637.97</ele>
        <time>2013-08-09T12:58:02Z</time>
      </trkpt>
      <trkpt lat="44.20887" lon="3.58246">
        <ele>640.38</ele>
        <time>2013-08-09T12:58:10Z</time>
      </trkpt>
      <trkpt lat="44.20876" lon="3.5823">
        <ele>639.89</ele>
        <time>2013-08-09T12:58:11Z</time>
      </trkpt>
      <trkpt lat="44.20863" lon="3.58217">
        <ele>639.89</ele>
        <time>2013-08-09T12:58:12Z</time>
      </trkpt>
      <trkpt lat="44.20849" lon="3.58206">
        <ele>639.89</ele>
        <time>2013-08-09T12:58:13Z</time>
      </trkpt>
      <trkpt lat="44.20834" lon="3.58197">
        <ele>640.38</ele>
        <time>2013-08-09T12:58:14Z</time>
      </trkpt>
      <trkpt lat="44.2082" lon="3.58189">
        <ele>640.38</ele>
        <time>2013-08-09T12:58:15Z</time>
      </trkpt>
      <trkpt lat="44.20808" lon="3.58183">
        <ele>640.38</ele>
        <time>2013-08-09T12:58:16Z</time>
      </trkpt>
      <trkpt lat="44.20796" lon="3.58179">
        <ele>641.34</ele>
        <time>2013-08-09T12:58:17Z</time>
      </trkpt>
      <trkpt lat="44.20782" lon="3.58182">
        <ele>640.86</ele>
        <time>2013-08-09T12:58:18Z</time>
      </trkpt>
      <trkpt lat="44.20767" lon="3.58184">
        <ele>641.82</ele>
        <time>2013-08-09T12:58:19Z</time>
      </trkpt>
      <trkpt lat="44.2075" lon="3.58188">
        <ele>641.34</ele>
        <time>2013-08-09T12:58:20Z</time>
      </trkpt>
      <trkpt lat="44.20629" lon="3.58184">
        <ele>643.74</ele>
        <time>2013-08-09T12:58:27Z</time>
      </trkpt>
      <trkpt lat="44.2055" lon="3.58159">
        <ele>645.18</ele>
        <time>2013-08-09T12:58:32Z</time>
      </trkpt>
      <trkpt lat="44.20537" lon="3.58159">
        <ele>645.66</ele>
        <time>2013-08-09T12:58:33Z</time>
      </trkpt>
      <trkpt lat="44.20525" lon="3.58161">
        <ele>645.66</ele>
        <time>2013-08-09T12:58:34Z</time>
      </trkpt>
      <trkpt lat="44.20515" lon="3.58166">
        <ele>646.14</ele>
        <time>2013-08-09T12:58:35Z</time>
      </trkpt>
      <trkpt lat="44.20507" lon="3.58176">
        <ele>646.14</ele>
        <time>2013-08-09T12:58:36Z</time>
      </trkpt>
      <trkpt lat="44.20502" lon="3.58189">
        <ele>646.14</ele>
        <time>2013-08-09T12:58:37Z</time>
      </trkpt>
      <trkpt lat="44.205" lon="3.58208">
        <ele>646.62</ele>
        <time>2013-08-09T12:58:38Z</time>
      </trkpt>
      <trkpt lat="44.20499" lon="3.58226">
        <ele>647.1</ele>
        <time>2013-08-09T12:58:39Z</time>
      </trkpt>
      <trkpt lat="44.20499" lon="3.58246">
        <ele>648.07</ele>
        <time>2013-08-09T12:58:40Z</time>
      </trkpt>
      <trkpt lat="44.20502" lon="3.58267">
        <ele>648.55</ele>
        <time>2013-08-09T12:58:41Z</time>
      </trkpt>
      <trkpt lat="44.20503" lon="3.58289">
        <ele>649.03</ele>
        <time>2013-08-09T12:58:42Z</time>
      </trkpt>
      <trkpt lat="44.20516" lon="3.58377">
        <ele>649.51</ele>
        <time>2013-08-09T12:58:46Z</time>
      </trkpt>
      <trkpt lat="44.20522" lon="3.58398">
        <ele>649.51</ele>
        <time>2013-08-09T12:58:47Z</time>
      </trkpt>
      <trkpt lat="44.20584" lon="3.58568">
        <ele>650.47</ele>
        <time>2013-08-09T12:58:55Z</time>
      </trkpt>
      <trkpt lat="44.20625" lon="3.58694">
        <ele>651.43</ele>
        <time>2013-08-09T12:59:03Z</time>
      </trkpt>
      <trkpt lat="44.20634" lon="3.58745">
        <ele>651.91</ele>
        <time>2013-08-09T12:59:06Z</time>
      </trkpt>
      <trkpt lat="44.20634" lon="3.58761">
        <ele>651.91</ele>
        <time>2013-08-09T12:59:07Z</time>
      </trkpt>
      <trkpt lat="44.20633" lon="3.58775">
        <ele>652.39</ele>
        <time>2013-08-09T12:59:08Z</time>
      </trkpt>
      <trkpt lat="44.20629" lon="3.5879">
        <ele>652.87</ele>
        <time>2013-08-09T12:59:09Z</time>
      </trkpt>
      <trkpt lat="44.20626" lon="3.58804">
        <ele>652.87</ele>
        <time>2013-08-09T12:59:10Z</time>
      </trkpt>
      <trkpt lat="44.2062" lon="3.58832">
        <ele>651.91</ele>
        <time>2013-08-09T12:59:12Z</time>
      </trkpt>
      <trkpt lat="44.20618" lon="3.58848">
        <ele>652.39</ele>
        <time>2013-08-09T12:59:13Z</time>
      </trkpt>
      <trkpt lat="44.20616" lon="3.58864">
        <ele>652.39</ele>
        <time>2013-08-09T12:59:14Z</time>
      </trkpt>
      <trkpt lat="44.20616" lon="3.58881">
        <ele>652.39</ele>
        <time>2013-08-09T12:59:15Z</time>
      </trkpt>
      <trkpt lat="44.20617" lon="3.58897">
        <ele>651.91</ele>
        <time>2013-08-09T12:59:16Z</time>
      </trkpt>
      <trkpt lat="44.20619" lon="3.58913">
        <ele>651.91</ele>
        <time>2013-08-09T12:59:17Z</time>
      </trkpt>
      <trkpt lat="44.20623" lon="3.58928">
        <ele>651.91</ele>
        <time>2013-08-09T12:59:18Z</time>
      </trkpt>
      <trkpt lat="44.20627" lon="3.58944">
        <ele>651.91</ele>
        <time>2013-08-09T12:59:19Z</time>
      </trkpt>
      <trkpt lat="44.20634" lon="3.58961">
        <ele>651.91</ele>
        <time>2013-08-09T12:59:20Z</time>
      </trkpt>
      <trkpt lat="44.20641" lon="3.58978">
        <ele>651.91</ele>
        <time>2013-08-09T12:59:21Z</time>
      </trkpt>
      <trkpt lat="44.2067" lon="3.59075">
        <ele>652.87</ele>
        <time>2013-08-09T12:59:27Z</time>
      </trkpt>
      <trkpt lat="44.20668" lon="3.59092">
        <ele>652.87</ele>
        <time>2013-08-09T12:59:28Z</time>
      </trkpt>
      <trkpt lat="44.20663" lon="3.59109">
        <ele>652.87</ele>
        <time>2013-08-09T12:59:29Z</time>
      </trkpt>
      <trkpt lat="44.20656" lon="3.59126">
        <ele>653.35</ele>
        <time>2013-08-09T12:59:30Z</time>
      </trkpt>
      <trkpt lat="44.20649" lon="3.59142">
        <ele>653.83</ele>
        <time>2013-08-09T12:59:31Z</time>
      </trkpt>
      <trkpt lat="44.20642" lon="3.59157">
        <ele>653.83</ele>
        <time>2013-08-09T12:59:32Z</time>
      </trkpt>
      <trkpt lat="44.20587" lon="3.59271">
        <ele>656.24</ele>
        <time>2013-08-09T12:59:41Z</time>
      </trkpt>
      <trkpt lat="44.20581" lon="3.59288">
        <ele>656.24</ele>
        <time>2013-08-09T12:59:42Z</time>
      </trkpt>
      <trkpt lat="44.20576" lon="3.59308">
        <ele>656.24</ele>
        <time>2013-08-09T12:59:43Z</time>
      </trkpt>
      <trkpt lat="44.20557" lon="3.59388">
        <ele>656.72</ele>
        <time>2013-08-09T12:59:48Z</time>
      </trkpt>
      <trkpt lat="44.2054" lon="3.59403">
        <ele>657.2</ele>
        <time>2013-08-09T12:59:51Z</time>
      </trkpt>
      <trkpt lat="44.20532" lon="3.59402">
        <ele>657.68</ele>
        <time>2013-08-09T12:59:52Z</time>
      </trkpt>
      <trkpt lat="44.20521" lon="3.59393">
        <ele>658.64</ele>
        <time>2013-08-09T12:59:53Z</time>
      </trkpt>
      <trkpt lat="44.2051" lon="3.59383">
        <ele>658.64</ele>
        <time>2013-08-09T12:59:54Z</time>
      </trkpt>
      <trkpt lat="44.20497" lon="3.59372">
        <ele>659.12</ele>
        <time>2013-08-09T12:59:55Z</time>
      </trkpt>
      <trkpt lat="44.20386" lon="3.59275">
        <ele>661.52</ele>
        <time>2013-08-09T13:00:03Z</time>
      </trkpt>
      <trkpt lat="44.20306" lon="3.59202">
        <ele>663.45</ele>
        <time>2013-08-09T13:00:09Z</time>
      </trkpt>
      <trkpt lat="44.20278" lon="3.59168">
        <ele>664.41</ele>
        <time>2013-08-09T13:00:12Z</time>
      </trkpt>
      <trkpt lat="44.2027" lon="3.59162">
        <ele>664.41</ele>
        <time>2013-08-09T13:00:13Z</time>
      </trkpt>
      <trkpt lat="44.20261" lon="3.59158">
        <ele>664.89</ele>
        <time>2013-08-09T13:00:14Z</time>
      </trkpt>
      <trkpt lat="44.2025" lon="3.59161">
        <ele>665.37</ele>
        <time>2013-08-09T13:00:15Z</time>
      </trkpt>
      <trkpt lat="44.20238" lon="3.59169">
        <ele>665.37</ele>
        <time>2013-08-09T13:00:16Z</time>
      </trkpt>
      <trkpt lat="44.20225" lon="3.59177">
        <ele>665.85</ele>
        <time>2013-08-09T13:00:17Z</time>
      </trkpt>
      <trkpt lat="44.20156" lon="3.59212">
        <ele>667.77</ele>
        <time>2013-08-09T13:00:23Z</time>
      </trkpt>
      <trkpt lat="44.20147" lon="3.59212">
        <ele>667.77</ele>
        <time>2013-08-09T13:00:24Z</time>
      </trkpt>
      <trkpt lat="44.20137" lon="3.59206">
        <ele>668.25</ele>
        <time>2013-08-09T13:00:25Z</time>
      </trkpt>
      <trkpt lat="44.20128" lon="3.59196">
        <ele>668.25</ele>
        <time>2013-08-09T13:00:26Z</time>
      </trkpt>
      <trkpt lat="44.20119" lon="3.59182">
        <ele>668.73</ele>
        <time>2013-08-09T13:00:27Z</time>
      </trkpt>
      <trkpt lat="44.20109" lon="3.59169">
        <ele>668.73</ele>
        <time>2013-08-09T13:00:28Z</time>
      </trkpt>
      <trkpt lat="44.20075" lon="3.59122">
        <ele>670.18</ele>
        <time>2013-08-09T13:00:32Z</time>
      </trkpt>
      <trkpt lat="44.20065" lon="3.59113">
        <ele>670.66</ele>
        <time>2013-08-09T13:00:33Z</time>
      </trkpt>
      <trkpt lat="44.20054" lon="3.59105">
        <ele>670.66</ele>
        <time>2013-08-09T13:00:34Z</time>
      </trkpt>
      <trkpt lat="44.20041" lon="3.591">
        <ele>671.14</ele>
        <time>2013-08-09T13:00:35Z</time>
      </trkpt>
      <trkpt lat="44.20027" lon="3.591">
        <ele>671.62</ele>
        <time>2013-08-09T13:00:36Z</time>
      </trkpt>
      <trkpt lat="44.20013" lon="3.59102">
        <ele>672.1</ele>
        <time>2013-08-09T13:00:37Z</time>
      </trkpt>
      <trkpt lat="44.19998" lon="3.59104">
        <ele>672.1</ele>
        <time>2013-08-09T13:00:38Z</time>
      </trkpt>
      <trkpt lat="44.19973" lon="3.5911">
        <ele>673.06</ele>
        <time>2013-08-09T13:00:40Z</time>
      </trkpt>
      <trkpt lat="44.19962" lon="3.59116">
        <ele>673.06</ele>
        <time>2013-08-09T13:00:41Z</time>
      </trkpt>
      <trkpt lat="44.19953" lon="3.59124">
        <ele>673.54</ele>
        <time>2013-08-09T13:00:42Z</time>
      </trkpt>
      <trkpt lat="44.19945" lon="3.59136">
        <ele>673.54</ele>
        <time>2013-08-09T13:00:43Z</time>
      </trkpt>
      <trkpt lat="44.19939" lon="3.59151">
        <ele>674.02</ele>
        <time>2013-08-09T13:00:44Z</time>
      </trkpt>
      <trkpt lat="44.19935" lon="3.59169">
        <ele>674.02</ele>
        <time>2013-08-09T13:00:45Z</time>
      </trkpt>
      <trkpt lat="44.19932" lon="3.59188">
        <ele>674.02</ele>
        <time>2013-08-09T13:00:46Z</time>
      </trkpt>
      <trkpt lat="44.1993" lon="3.59205">
        <ele>674.5</ele>
        <time>2013-08-09T13:00:47Z</time>
      </trkpt>
      <trkpt lat="44.19929" lon="3.5922">
        <ele>674.98</ele>
        <time>2013-08-09T13:00:48Z</time>
      </trkpt>
      <trkpt lat="44.1993" lon="3.59235">
        <ele>674.98</ele>
        <time>2013-08-09T13:00:49Z</time>
      </trkpt>
      <trkpt lat="44.19934" lon="3.5925">
        <ele>675.46</ele>
        <time>2013-08-09T13:00:50Z</time>
      </trkpt>
      <trkpt lat="44.1994" lon="3.59267">
        <ele>675.94</ele>
        <time>2013-08-09T13:00:51Z</time>
      </trkpt>
      <trkpt lat="44.19946" lon="3.59285">
        <ele>676.42</ele>
        <time>2013-08-09T13:00:52Z</time>
      </trkpt>
      <trkpt lat="44.19975" lon="3.59368">
        <ele>678.35</ele>
        <time>2013-08-09T13:00:57Z</time>
      </trkpt>
      <trkpt lat="44.19982" lon="3.5938">
        <ele>678.83</ele>
        <time>2013-08-09T13:00:58Z</time>
      </trkpt>
      <trkpt lat="44.1999" lon="3.5939">
        <ele>679.31</ele>
        <time>2013-08-09T13:00:59Z</time>
      </trkpt>
      <trkpt lat="44.20001" lon="3.59399">
        <ele>679.79</ele>
        <time>2013-08-09T13:01:00Z</time>
      </trkpt>
      <trkpt lat="44.20014" lon="3.59406">
        <ele>679.79</ele>
        <time>2013-08-09T13:01:01Z</time>
      </trkpt>
      <trkpt lat="44.20027" lon="3.59413">
        <ele>680.27</ele>
        <time>2013-08-09T13:01:02Z</time>
      </trkpt>
      <trkpt lat="44.20057" lon="3.59434">
        <ele>682.19</ele>
        <time>2013-08-09T13:01:05Z</time>
      </trkpt>
      <trkpt lat="44.20063" lon="3.59445">
        <ele>682.19</ele>
        <time>2013-08-09T13:01:06Z</time>
      </trkpt>
      <trkpt lat="44.20066" lon="3.59457">
        <ele>682.67</ele>
        <time>2013-08-09T13:01:07Z</time>
      </trkpt>
      <trkpt lat="44.20064" lon="3.59468">
        <ele>683.15</ele>
        <time>2013-08-09T13:01:08Z</time>
      </trkpt>
      <trkpt lat="44.20057" lon="3.59476">
        <ele>683.63</ele>
        <time>2013-08-09T13:01:09Z</time>
      </trkpt>
      <trkpt lat="44.20047" lon="3.59482">
        <ele>684.12</ele>
        <time>2013-08-09T13:01:10Z</time>
      </trkpt>
      <trkpt lat="44.20034" lon="3.59486">
        <ele>684.6</ele>
        <time>2013-08-09T13:01:11Z</time>
      </trkpt>
      <trkpt lat="44.20019" lon="3.59489">
        <ele>685.08</ele>
        <time>2013-08-09T13:01:12Z</time>
      </trkpt>
      <trkpt lat="44.20004" lon="3.59492">
        <ele>685.56</ele>
        <time>2013-08-09T13:01:13Z</time>
      </trkpt>
      <trkpt lat="44.19887" lon="3.59524">
        <ele>690.36</ele>
        <time>2013-08-09T13:01:22Z</time>
      </trkpt>
      <trkpt lat="44.19879" lon="3.59523">
        <ele>691.33</ele>
        <time>2013-08-09T13:01:23Z</time>
      </trkpt>
      <trkpt lat="44.19872" lon="3.59515">
        <ele>691.33</ele>
        <time>2013-08-09T13:01:24Z</time>
      </trkpt>
      <trkpt lat="44.19869" lon="3.59504">
        <ele>691.81</ele>
        <time>2013-08-09T13:01:25Z</time>
      </trkpt>
      <trkpt lat="44.19868" lon="3.59491">
        <ele>692.29</ele>
        <time>2013-08-09T13:01:26Z</time>
      </trkpt>
      <trkpt lat="44.1987" lon="3.59479">
        <ele>692.77</ele>
        <time>2013-08-09T13:01:27Z</time>
      </trkpt>
      <trkpt lat="44.19874" lon="3.59468">
        <ele>693.25</ele>
        <time>2013-08-09T13:01:28Z</time>
      </trkpt>
      <trkpt lat="44.19876" lon="3.59456">
        <ele>693.25</ele>
        <time>2013-08-09T13:01:29Z</time>
      </trkpt>
      <trkpt lat="44.19876" lon="3.59445">
        <ele>694.21</ele>
        <time>2013-08-09T13:01:30Z</time>
      </trkpt>
      <trkpt lat="44.19872" lon="3.59436">
        <ele>694.21</ele>
        <time>2013-08-09T13:01:31Z</time>
      </trkpt>
      <trkpt lat="44.19866" lon="3.59428">
        <ele>694.69</ele>
        <time>2013-08-09T13:01:32Z</time>
      </trkpt>
      <trkpt lat="44.19859" lon="3.59423">
        <ele>695.17</ele>
        <time>2013-08-09T13:01:33Z</time>
      </trkpt>
      <trkpt lat="44.19851" lon="3.59421">
        <ele>695.65</ele>
        <time>2013-08-09T13:01:34Z</time>
      </trkpt>
      <trkpt lat="44.19843" lon="3.59421">
        <ele>695.65</ele>
        <time>2013-08-09T13:01:35Z</time>
      </trkpt>
      <trkpt lat="44.19834" lon="3.59423">
        <ele>696.13</ele>
        <time>2013-08-09T13:01:36Z</time>
      </trkpt>
      <trkpt lat="44.19827" lon="3.59428">
        <ele>696.13</ele>
        <time>2013-08-09T13:01:37Z</time>
      </trkpt>
      <trkpt lat="44.1982" lon="3.59435">
        <ele>696.61</ele>
        <time>2013-08-09T13:01:38Z</time>
      </trkpt>
      <trkpt lat="44.19815" lon="3.59445">
        <ele>697.09</ele>
        <time>2013-08-09T13:01:39Z</time>
      </trkpt>
      <trkpt lat="44.19811" lon="3.59456">
        <ele>697.09</ele>
        <time>2013-08-09T13:01:40Z</time>
      </trkpt>
      <trkpt lat="44.19805" lon="3.59466">
        <ele>697.57</ele>
        <time>2013-08-09T13:01:41Z</time>
      </trkpt>
      <trkpt lat="44.19799" lon="3.59474">
        <ele>697.57</ele>
        <time>2013-08-09T13:01:42Z</time>
      </trkpt>
      <trkpt lat="44.19791" lon="3.59479">
        <ele>698.05</ele>
        <time>2013-08-09T13:01:43Z</time>
      </trkpt>
      <trkpt lat="44.19783" lon="3.59481">
        <ele>698.05</ele>
        <time>2013-08-09T13:01:44Z</time>
      </trkpt>
      <trkpt lat="44.19775" lon="3.59484">
        <ele>698.53</ele>
        <time>2013-08-09T13:01:45Z</time>
      </trkpt>
      <trkpt lat="44.19767" lon="3.59489">
        <ele>699.02</ele>
        <time>2013-08-09T13:01:46Z</time>
      </trkpt>
      <trkpt lat="44.19759" lon="3.59497">
        <ele>699.5</ele>
        <time>2013-08-09T13:01:47Z</time>
      </trkpt>
      <trkpt lat="44.19751" lon="3.59507">
        <ele>699.5</ele>
        <time>2013-08-09T13:01:48Z</time>
      </trkpt>
      <trkpt lat="44.19743" lon="3.59517">
        <ele>699.98</ele>
        <time>2013-08-09T13:01:49Z</time>
      </trkpt>
      <trkpt lat="44.19714" lon="3.59551">
        <ele>701.42</ele>
        <time>2013-08-09T13:01:53Z</time>
      </trkpt>
      <trkpt lat="44.19708" lon="3.59554">
        <ele>702.86</ele>
        <time>2013-08-09T13:01:54Z</time>
      </trkpt>
      <trkpt lat="44.19703" lon="3.59556">
        <ele>703.34</ele>
        <time>2013-08-09T13:01:55Z</time>
      </trkpt>
      <trkpt lat="44.19698" lon="3.59555">
        <ele>703.82</ele>
        <time>2013-08-09T13:01:56Z</time>
      </trkpt>
      <trkpt lat="44.19694" lon="3.59553">
        <ele>703.82</ele>
        <time>2013-08-09T13:01:57Z</time>
      </trkpt>
      <trkpt lat="44.1969" lon="3.59548">
        <ele>701.9</ele>
        <time>2013-08-09T13:01:58Z</time>
      </trkpt>
      <trkpt lat="44.19686" lon="3.59525">
        <ele>699.98</ele>
        <time>2013-08-09T13:02:01Z</time>
      </trkpt>
      <trkpt lat="44.19686" lon="3.59516">
        <ele>700.46</ele>
        <time>2013-08-09T13:02:02Z</time>
      </trkpt>
      <trkpt lat="44.19686" lon="3.59506">
        <ele>700.94</ele>
        <time>2013-08-09T13:02:03Z</time>
      </trkpt>
      <trkpt lat="44.19685" lon="3.59495">
        <ele>701.42</ele>
        <time>2013-08-09T13:02:04Z</time>
      </trkpt>
      <trkpt lat="44.19683" lon="3.59483">
        <ele>701.42</ele>
        <time>2013-08-09T13:02:05Z</time>
      </trkpt>
      <trkpt lat="44.19674" lon="3.59459">
        <ele>703.34</ele>
        <time>2013-08-09T13:02:07Z</time>
      </trkpt>
      <trkpt lat="44.19668" lon="3.59447">
        <ele>704.3</ele>
        <time>2013-08-09T13:02:08Z</time>
      </trkpt>
      <trkpt lat="44.19644" lon="3.59391">
        <ele>706.71</ele>
        <time>2013-08-09T13:02:12Z</time>
      </trkpt>
      <trkpt lat="44.19635" lon="3.59379">
        <ele>706.71</ele>
        <time>2013-08-09T13:02:13Z</time>
      </trkpt>
      <trkpt lat="44.19625" lon="3.59367">
        <ele>707.19</ele>
        <time>2013-08-09T13:02:14Z</time>
      </trkpt>
      <trkpt lat="44.19614" lon="3.59358">
        <ele>708.15</ele>
        <time>2013-08-09T13:02:15Z</time>
      </trkpt>
      <trkpt lat="44.19602" lon="3.59352">
        <ele>708.63</ele>
        <time>2013-08-09T13:02:16Z</time>
      </trkpt>
      <trkpt lat="44.19592" lon="3.59346">
        <ele>708.15</ele>
        <time>2013-08-09T13:02:17Z</time>
      </trkpt>
      <trkpt lat="44.19585" lon="3.59337">
        <ele>707.19</ele>
        <time>2013-08-09T13:02:18Z</time>
      </trkpt>
      <trkpt lat="44.19579" lon="3.59324">
        <ele>707.19</ele>
        <time>2013-08-09T13:02:19Z</time>
      </trkpt>
      <trkpt lat="44.19574" lon="3.59307">
        <ele>708.63</ele>
        <time>2013-08-09T13:02:20Z</time>
      </trkpt>
      <trkpt lat="44.19528" lon="3.5922">
        <ele>724.01</ele>
        <time>2013-08-09T13:02:26Z</time>
      </trkpt>
      <trkpt lat="44.19518" lon="3.59219">
        <ele>733.62</ele>
        <time>2013-08-09T13:02:27Z</time>
      </trkpt>
      <trkpt lat="44.19495" lon="3.59212">
        <ele>754.77</ele>
        <time>2013-08-09T13:02:30Z</time>
      </trkpt>
      <trkpt lat="44.19482" lon="3.59206">
        <ele>769.67</ele>
        <time>2013-08-09T13:02:32Z</time>
      </trkpt>
      <trkpt lat="44.19476" lon="3.592">
        <ele>776.4</ele>
        <time>2013-08-09T13:02:33Z</time>
      </trkpt>
      <trkpt lat="44.1947" lon="3.59193">
        <ele>782.65</ele>
        <time>2013-08-09T13:02:34Z</time>
      </trkpt>
      <trkpt lat="44.19464" lon="3.59183">
        <ele>788.9</ele>
        <time>2013-08-09T13:02:35Z</time>
      </trkpt>
      <trkpt lat="44.19457" lon="3.59171">
        <ele>795.15</ele>
        <time>2013-08-09T13:02:36Z</time>
      </trkpt>
      <trkpt lat="44.19449" lon="3.59157">
        <ele>800.44</ele>
        <time>2013-08-09T13:02:37Z</time>
      </trkpt>
      <trkpt lat="44.19378" lon="3.59069">
        <ele>849.94</ele>
        <time>2013-08-09T13:02:45Z</time>
      </trkpt>
      <trkpt lat="44.19371" lon="3.59058">
        <ele>857.63</ele>
        <time>2013-08-09T13:02:46Z</time>
      </trkpt>
      <trkpt lat="44.19364" lon="3.5905">
        <ele>864.36</ele>
        <time>2013-08-09T13:02:47Z</time>
      </trkpt>
      <trkpt lat="44.19355" lon="3.59044">
        <ele>870.13</ele>
        <time>2013-08-09T13:02:48Z</time>
      </trkpt>
      <trkpt lat="44.19345" lon="3.5904">
        <ele>873.5</ele>
        <time>2013-08-09T13:02:49Z</time>
      </trkpt>
      <trkpt lat="44.19333" lon="3.59044">
        <ele>877.34</ele>
        <time>2013-08-09T13:02:50Z</time>
      </trkpt>
      <trkpt lat="44.19321" lon="3.59048">
        <ele>881.19</ele>
        <time>2013-08-09T13:02:51Z</time>
      </trkpt>
      <trkpt lat="44.1931" lon="3.59053">
        <ele>883.59</ele>
        <time>2013-08-09T13:02:52Z</time>
      </trkpt>
      <trkpt lat="44.19299" lon="3.59059">
        <ele>885.51</ele>
        <time>2013-08-09T13:02:53Z</time>
      </trkpt>
      <trkpt lat="44.19287" lon="3.59066">
        <ele>887.43</ele>
        <time>2013-08-09T13:02:54Z</time>
      </trkpt>
      <trkpt lat="44.1925" lon="3.59092">
        <ele>895.12</ele>
        <time>2013-08-09T13:02:57Z</time>
      </trkpt>
      <trkpt lat="44.19133" lon="3.59218">
        <ele>900.41</ele>
        <time>2013-08-09T13:03:08Z</time>
      </trkpt>
      <trkpt lat="44.19127" lon="3.59229">
        <ele>900.41</ele>
        <time>2013-08-09T13:03:09Z</time>
      </trkpt>
      <trkpt lat="44.19126" lon="3.59243">
        <ele>900.41</ele>
        <time>2013-08-09T13:03:10Z</time>
      </trkpt>
      <trkpt lat="44.19125" lon="3.59259">
        <ele>900.41</ele>
        <time>2013-08-09T13:03:11Z</time>
      </trkpt>
      <trkpt lat="44.19126" lon="3.59276">
        <ele>900.89</ele>
        <time>2013-08-09T13:03:12Z</time>
      </trkpt>
      <trkpt lat="44.19126" lon="3.59292">
        <ele>900.89</ele>
        <time>2013-08-09T13:03:13Z</time>
      </trkpt>
      <trkpt lat="44.19123" lon="3.59319">
        <ele>901.85</ele>
        <time>2013-08-09T13:03:15Z</time>
      </trkpt>
      <trkpt lat="44.19119" lon="3.59329">
        <ele>901.85</ele>
        <time>2013-08-09T13:03:16Z</time>
      </trkpt>
      <trkpt lat="44.19113" lon="3.59336">
        <ele>901.85</ele>
        <time>2013-08-09T13:03:17Z</time>
      </trkpt>
      <trkpt lat="44.19103" lon="3.59342">
        <ele>902.33</ele>
        <time>2013-08-09T13:03:18Z</time>
      </trkpt>
      <trkpt lat="44.19092" lon="3.59344">
        <ele>902.33</ele>
        <time>2013-08-09T13:03:19Z</time>
      </trkpt>
      <trkpt lat="44.1908" lon="3.59347">
        <ele>902.33</ele>
        <time>2013-08-09T13:03:20Z</time>
      </trkpt>
      <trkpt lat="44.19068" lon="3.59351">
        <ele>902.82</ele>
        <time>2013-08-09T13:03:21Z</time>
      </trkpt>
      <trkpt lat="44.19045" lon="3.59364">
        <ele>904.74</ele>
        <time>2013-08-09T13:03:23Z</time>
      </trkpt>
      <trkpt lat="44.19034" lon="3.59373">
        <ele>905.7</ele>
        <time>2013-08-09T13:03:24Z</time>
      </trkpt>
      <trkpt lat="44.19024" lon="3.59384">
        <ele>906.18</ele>
        <time>2013-08-09T13:03:25Z</time>
      </trkpt>
      <trkpt lat="44.18972" lon="3.59454">
        <ele>910.99</ele>
        <time>2013-08-09T13:03:30Z</time>
      </trkpt>
      <trkpt lat="44.18945" lon="3.59503">
        <ele>911.47</ele>
        <time>2013-08-09T13:03:33Z</time>
      </trkpt>
      <trkpt lat="44.18934" lon="3.59514">
        <ele>912.91</ele>
        <time>2013-08-09T13:03:34Z</time>
      </trkpt>
      <trkpt lat="44.18918" lon="3.59536">
        <ele>916.75</ele>
        <time>2013-08-09T13:03:36Z</time>
      </trkpt>
      <trkpt lat="44.18911" lon="3.59549">
        <ele>918.2</ele>
        <time>2013-08-09T13:03:37Z</time>
      </trkpt>
      <trkpt lat="44.18906" lon="3.59564">
        <ele>918.68</ele>
        <time>2013-08-09T13:03:38Z</time>
      </trkpt>
      <trkpt lat="44.1886" lon="3.59695">
        <ele>922.04</ele>
        <time>2013-08-09T13:03:46Z</time>
      </trkpt>
      <trkpt lat="44.18851" lon="3.59724">
        <ele>923</ele>
        <time>2013-08-09T13:03:48Z</time>
      </trkpt>
      <trkpt lat="44.18844" lon="3.59748">
        <ele>923.48</ele>
        <time>2013-08-09T13:03:50Z</time>
      </trkpt>
      <trkpt lat="44.1884" lon="3.59757">
        <ele>923.96</ele>
        <time>2013-08-09T13:03:51Z</time>
      </trkpt>
      <trkpt lat="44.18833" lon="3.59765">
        <ele>923.96</ele>
        <time>2013-08-09T13:03:52Z</time>
      </trkpt>
      <trkpt lat="44.18824" lon="3.59771">
        <ele>923.96</ele>
        <time>2013-08-09T13:03:53Z</time>
      </trkpt>
      <trkpt lat="44.18815" lon="3.59775">
        <ele>924.45</ele>
        <time>2013-08-09T13:03:54Z</time>
      </trkpt>
      <trkpt lat="44.18806" lon="3.5978">
        <ele>924.93</ele>
        <time>2013-08-09T13:03:55Z</time>
      </trkpt>
      <trkpt lat="44.18797" lon="3.59788">
        <ele>924.93</ele>
        <time>2013-08-09T13:03:56Z</time>
      </trkpt>
      <trkpt lat="44.18789" lon="3.59798">
        <ele>925.89</ele>
        <time>2013-08-09T13:03:57Z</time>
      </trkpt>
      <trkpt lat="44.18774" lon="3.59821">
        <ele>926.85</ele>
        <time>2013-08-09T13:03:59Z</time>
      </trkpt>
      <trkpt lat="44.18764" lon="3.59828">
        <ele>928.29</ele>
        <time>2013-08-09T13:04:00Z</time>
      </trkpt>
      <trkpt lat="44.18753" lon="3.59835">
        <ele>928.77</ele>
        <time>2013-08-09T13:04:01Z</time>
      </trkpt>
      <trkpt lat="44.18732" lon="3.5985">
        <ele>930.21</ele>
        <time>2013-08-09T13:04:03Z</time>
      </trkpt>
      <trkpt lat="44.18722" lon="3.59862">
        <ele>931.17</ele>
        <time>2013-08-09T13:04:04Z</time>
      </trkpt>
      <trkpt lat="44.18712" lon="3.59878">
        <ele>931.65</ele>
        <time>2013-08-09T13:04:05Z</time>
      </trkpt>
      <trkpt lat="44.1868" lon="3.59925">
        <ele>929.73</ele>
        <time>2013-08-09T13:04:08Z</time>
      </trkpt>
      <trkpt lat="44.18641" lon="3.59963">
        <ele>932.62</ele>
        <time>2013-08-09T13:04:11Z</time>
      </trkpt>
      <trkpt lat="44.18627" lon="3.59971">
        <ele>933.58</ele>
        <time>2013-08-09T13:04:12Z</time>
      </trkpt>
      <trkpt lat="44.18612" lon="3.59978">
        <ele>935.02</ele>
        <time>2013-08-09T13:04:13Z</time>
      </trkpt>
      <trkpt lat="44.18598" lon="3.59985">
        <ele>935.98</ele>
        <time>2013-08-09T13:04:14Z</time>
      </trkpt>
      <trkpt lat="44.18586" lon="3.59993">
        <ele>936.46</ele>
        <time>2013-08-09T13:04:15Z</time>
      </trkpt>
      <trkpt lat="44.18574" lon="3.60004">
        <ele>936.46</ele>
        <time>2013-08-09T13:04:16Z</time>
      </trkpt>
      <trkpt lat="44.18565" lon="3.60017">
        <ele>937.42</ele>
        <time>2013-08-09T13:04:17Z</time>
      </trkpt>
      <trkpt lat="44.18558" lon="3.60036">
        <ele>937.42</ele>
        <time>2013-08-09T13:04:18Z</time>
      </trkpt>
      <trkpt lat="44.18552" lon="3.60056">
        <ele>938.38</ele>
        <time>2013-08-09T13:04:19Z</time>
      </trkpt>
      <trkpt lat="44.18545" lon="3.60078">
        <ele>940.31</ele>
        <time>2013-08-09T13:04:20Z</time>
      </trkpt>
      <trkpt lat="44.18499" lon="3.60211">
        <ele>949.44</ele>
        <time>2013-08-09T13:04:27Z</time>
      </trkpt>
      <trkpt lat="44.18452" lon="3.60389">
        <ele>958.09</ele>
        <time>2013-08-09T13:04:35Z</time>
      </trkpt>
      <trkpt lat="44.18449" lon="3.60409">
        <ele>958.57</ele>
        <time>2013-08-09T13:04:36Z</time>
      </trkpt>
      <trkpt lat="44.18447" lon="3.60429">
        <ele>959.05</ele>
        <time>2013-08-09T13:04:37Z</time>
      </trkpt>
      <trkpt lat="44.18448" lon="3.60471">
        <ele>960.01</ele>
        <time>2013-08-09T13:04:39Z</time>
      </trkpt>
      <trkpt lat="44.18453" lon="3.60492">
        <ele>960.98</ele>
        <time>2013-08-09T13:04:40Z</time>
      </trkpt>
      <trkpt lat="44.1846" lon="3.6051">
        <ele>962.42</ele>
        <time>2013-08-09T13:04:41Z</time>
      </trkpt>
      <trkpt lat="44.18466" lon="3.60527">
        <ele>963.38</ele>
        <time>2013-08-09T13:04:42Z</time>
      </trkpt>
      <trkpt lat="44.18471" lon="3.60542">
        <ele>965.3</ele>
        <time>2013-08-09T13:04:43Z</time>
      </trkpt>
      <trkpt lat="44.18476" lon="3.60555">
        <ele>966.26</ele>
        <time>2013-08-09T13:04:44Z</time>
      </trkpt>
      <trkpt lat="44.18478" lon="3.60569">
        <ele>966.74</ele>
        <time>2013-08-09T13:04:45Z</time>
      </trkpt>
      <trkpt lat="44.18479" lon="3.60581">
        <ele>967.22</ele>
        <time>2013-08-09T13:04:46Z</time>
      </trkpt>
      <trkpt lat="44.18479" lon="3.60592">
        <ele>967.7</ele>
        <time>2013-08-09T13:04:47Z</time>
      </trkpt>
      <trkpt lat="44.18479" lon="3.606">
        <ele>968.18</ele>
        <time>2013-08-09T13:04:48Z</time>
      </trkpt>
      <trkpt lat="44.18478" lon="3.60608">
        <ele>970.59</ele>
        <time>2013-08-09T13:04:54Z</time>
      </trkpt>
      <trkpt lat="44.18472" lon="3.60626">
        <ele>971.55</ele>
        <time>2013-08-09T13:05:04Z</time>
      </trkpt>
      <trkpt lat="44.18387" lon="3.61083">
        <ele>971.55</ele>
        <time>2013-08-09T13:05:33Z</time>
      </trkpt>
      <trkpt lat="44.18291" lon="3.61273">
        <ele>965.78</ele>
        <time>2013-08-09T13:05:47Z</time>
      </trkpt>
      <trkpt lat="44.18279" lon="3.61277">
        <ele>965.78</ele>
        <time>2013-08-09T13:05:48Z</time>
      </trkpt>
      <trkpt lat="44.18214" lon="3.613">
        <ele>966.74</ele>
        <time>2013-08-09T13:05:54Z</time>
      </trkpt>
      <trkpt lat="44.18203" lon="3.61301">
        <ele>966.26</ele>
        <time>2013-08-09T13:05:55Z</time>
      </trkpt>
      <trkpt lat="44.18193" lon="3.61299">
        <ele>966.26</ele>
        <time>2013-08-09T13:05:56Z</time>
      </trkpt>
      <trkpt lat="44.18184" lon="3.61295">
        <ele>965.78</ele>
        <time>2013-08-09T13:05:57Z</time>
      </trkpt>
      <trkpt lat="44.18174" lon="3.61287">
        <ele>965.3</ele>
        <time>2013-08-09T13:05:58Z</time>
      </trkpt>
      <trkpt lat="44.18164" lon="3.61277">
        <ele>965.3</ele>
        <time>2013-08-09T13:05:59Z</time>
      </trkpt>
      <trkpt lat="44.18155" lon="3.61268">
        <ele>964.82</ele>
        <time>2013-08-09T13:06:00Z</time>
      </trkpt>
      <trkpt lat="44.18145" lon="3.61262">
        <ele>964.34</ele>
        <time>2013-08-09T13:06:01Z</time>
      </trkpt>
      <trkpt lat="44.18135" lon="3.6126">
        <ele>964.82</ele>
        <time>2013-08-09T13:06:02Z</time>
      </trkpt>
      <trkpt lat="44.18126" lon="3.61262">
        <ele>964.82</ele>
        <time>2013-08-09T13:06:03Z</time>
      </trkpt>
      <trkpt lat="44.18115" lon="3.61269">
        <ele>964.82</ele>
        <time>2013-08-09T13:06:04Z</time>
      </trkpt>
      <trkpt lat="44.18104" lon="3.61281">
        <ele>964.34</ele>
        <time>2013-08-09T13:06:05Z</time>
      </trkpt>
      <trkpt lat="44.18094" lon="3.61292">
        <ele>964.34</ele>
        <time>2013-08-09T13:06:06Z</time>
      </trkpt>
      <trkpt lat="44.18085" lon="3.61303">
        <ele>963.86</ele>
        <time>2013-08-09T13:06:07Z</time>
      </trkpt>
      <trkpt lat="44.18076" lon="3.61316">
        <ele>963.86</ele>
        <time>2013-08-09T13:06:08Z</time>
      </trkpt>
      <trkpt lat="44.18069" lon="3.6133">
        <ele>963.86</ele>
        <time>2013-08-09T13:06:09Z</time>
      </trkpt>
      <trkpt lat="44.17997" lon="3.61439">
        <ele>960.98</ele>
        <time>2013-08-09T13:06:16Z</time>
      </trkpt>
      <trkpt lat="44.17973" lon="3.6146">
        <ele>959.53</ele>
        <time>2013-08-09T13:06:18Z</time>
      </trkpt>
      <trkpt lat="44.1796" lon="3.61465">
        <ele>959.53</ele>
        <time>2013-08-09T13:06:19Z</time>
      </trkpt>
      <trkpt lat="44.17948" lon="3.61464">
        <ele>959.05</ele>
        <time>2013-08-09T13:06:20Z</time>
      </trkpt>
      <trkpt lat="44.17936" lon="3.61459">
        <ele>958.57</ele>
        <time>2013-08-09T13:06:21Z</time>
      </trkpt>
      <trkpt lat="44.17926" lon="3.6145">
        <ele>958.57</ele>
        <time>2013-08-09T13:06:22Z</time>
      </trkpt>
      <trkpt lat="44.17917" lon="3.61438">
        <ele>958.09</ele>
        <time>2013-08-09T13:06:23Z</time>
      </trkpt>
      <trkpt lat="44.1791" lon="3.61423">
        <ele>957.61</ele>
        <time>2013-08-09T13:06:24Z</time>
      </trkpt>
      <trkpt lat="44.17903" lon="3.61406">
        <ele>957.13</ele>
        <time>2013-08-09T13:06:25Z</time>
      </trkpt>
      <trkpt lat="44.17895" lon="3.6139">
        <ele>957.13</ele>
        <time>2013-08-09T13:06:26Z</time>
      </trkpt>
      <trkpt lat="44.17887" lon="3.61376">
        <ele>956.65</ele>
        <time>2013-08-09T13:06:27Z</time>
      </trkpt>
      <trkpt lat="44.17877" lon="3.61363">
        <ele>956.17</ele>
        <time>2013-08-09T13:06:28Z</time>
      </trkpt>
      <trkpt lat="44.17866" lon="3.61352">
        <ele>955.69</ele>
        <time>2013-08-09T13:06:29Z</time>
      </trkpt>
      <trkpt lat="44.17829" lon="3.61315">
        <ele>953.77</ele>
        <time>2013-08-09T13:06:33Z</time>
      </trkpt>
      <trkpt lat="44.17821" lon="3.61311">
        <ele>953.77</ele>
        <time>2013-08-09T13:06:34Z</time>
      </trkpt>
      <trkpt lat="44.17812" lon="3.6131">
        <ele>953.28</ele>
        <time>2013-08-09T13:06:35Z</time>
      </trkpt>
      <trkpt lat="44.17802" lon="3.61314">
        <ele>952.8</ele>
        <time>2013-08-09T13:06:36Z</time>
      </trkpt>
      <trkpt lat="44.17792" lon="3.61329">
        <ele>952.32</ele>
        <time>2013-08-09T13:06:37Z</time>
      </trkpt>
      <trkpt lat="44.17783" lon="3.61344">
        <ele>951.84</ele>
        <time>2013-08-09T13:06:38Z</time>
      </trkpt>
      <trkpt lat="44.17774" lon="3.61358">
        <ele>951.36</ele>
        <time>2013-08-09T13:06:39Z</time>
      </trkpt>
      <trkpt lat="44.17755" lon="3.61383">
        <ele>950.88</ele>
        <time>2013-08-09T13:06:41Z</time>
      </trkpt>
      <trkpt lat="44.17744" lon="3.61392">
        <ele>950.4</ele>
        <time>2013-08-09T13:06:42Z</time>
      </trkpt>
      <trkpt lat="44.17732" lon="3.61398">
        <ele>949.92</ele>
        <time>2013-08-09T13:06:43Z</time>
      </trkpt>
      <trkpt lat="44.17722" lon="3.61405">
        <ele>949.92</ele>
        <time>2013-08-09T13:06:44Z</time>
      </trkpt>
      <trkpt lat="44.17712" lon="3.61413">
        <ele>949.44</ele>
        <time>2013-08-09T13:06:45Z</time>
      </trkpt>
      <trkpt lat="44.17704" lon="3.61424">
        <ele>948.96</ele>
        <time>2013-08-09T13:06:46Z</time>
      </trkpt>
      <trkpt lat="44.17698" lon="3.61439">
        <ele>948.48</ele>
        <time>2013-08-09T13:06:47Z</time>
      </trkpt>
      <trkpt lat="44.17696" lon="3.61456">
        <ele>948</ele>
        <time>2013-08-09T13:06:48Z</time>
      </trkpt>
      <trkpt lat="44.17693" lon="3.61474">
        <ele>947.52</ele>
        <time>2013-08-09T13:06:49Z</time>
      </trkpt>
      <trkpt lat="44.17688" lon="3.61491">
        <ele>947.04</ele>
        <time>2013-08-09T13:06:50Z</time>
      </trkpt>
      <trkpt lat="44.17681" lon="3.61507">
        <ele>947.04</ele>
        <time>2013-08-09T13:06:51Z</time>
      </trkpt>
      <trkpt lat="44.17672" lon="3.61522">
        <ele>944.15</ele>
        <time>2013-08-09T13:06:52Z</time>
      </trkpt>
      <trkpt lat="44.17665" lon="3.61534">
        <ele>932.14</ele>
        <time>2013-08-09T13:06:53Z</time>
      </trkpt>
      <trkpt lat="44.1763" lon="3.6158">
        <ele>917.24</ele>
        <time>2013-08-09T13:06:57Z</time>
      </trkpt>
      <trkpt lat="44.17621" lon="3.61586">
        <ele>914.83</ele>
        <time>2013-08-09T13:06:58Z</time>
      </trkpt>
      <trkpt lat="44.17612" lon="3.61589">
        <ele>912.91</ele>
        <time>2013-08-09T13:06:59Z</time>
      </trkpt>
      <trkpt lat="44.17603" lon="3.6159">
        <ele>911.47</ele>
        <time>2013-08-09T13:07:00Z</time>
      </trkpt>
      <trkpt lat="44.17594" lon="3.61588">
        <ele>910.03</ele>
        <time>2013-08-09T13:07:01Z</time>
      </trkpt>
      <trkpt lat="44.17585" lon="3.61584">
        <ele>910.03</ele>
        <time>2013-08-09T13:07:02Z</time>
      </trkpt>
      <trkpt lat="44.17576" lon="3.61577">
        <ele>910.51</ele>
        <time>2013-08-09T13:07:03Z</time>
      </trkpt>
      <trkpt lat="44.17567" lon="3.61566">
        <ele>910.99</ele>
        <time>2013-08-09T13:07:04Z</time>
      </trkpt>
      <trkpt lat="44.17558" lon="3.61556">
        <ele>911.47</ele>
        <time>2013-08-09T13:07:05Z</time>
      </trkpt>
      <trkpt lat="44.17547" lon="3.61547">
        <ele>910.99</ele>
        <time>2013-08-09T13:07:06Z</time>
      </trkpt>
      <trkpt lat="44.17536" lon="3.61542">
        <ele>910.99</ele>
        <time>2013-08-09T13:07:07Z</time>
      </trkpt>
      <trkpt lat="44.17524" lon="3.61536">
        <ele>910.99</ele>
        <time>2013-08-09T13:07:08Z</time>
      </trkpt>
      <trkpt lat="44.17514" lon="3.61529">
        <ele>910.51</ele>
        <time>2013-08-09T13:07:09Z</time>
      </trkpt>
      <trkpt lat="44.17504" lon="3.61521">
        <ele>910.51</ele>
        <time>2013-08-09T13:07:10Z</time>
      </trkpt>
      <trkpt lat="44.17494" lon="3.61514">
        <ele>910.03</ele>
        <time>2013-08-09T13:07:11Z</time>
      </trkpt>
      <trkpt lat="44.17483" lon="3.61509">
        <ele>910.03</ele>
        <time>2013-08-09T13:07:12Z</time>
      </trkpt>
      <trkpt lat="44.17471" lon="3.61507">
        <ele>909.54</ele>
        <time>2013-08-09T13:07:13Z</time>
      </trkpt>
      <trkpt lat="44.1746" lon="3.61502">
        <ele>909.54</ele>
        <time>2013-08-09T13:07:14Z</time>
      </trkpt>
      <trkpt lat="44.17449" lon="3.61498">
        <ele>909.06</ele>
        <time>2013-08-09T13:07:15Z</time>
      </trkpt>
      <trkpt lat="44.17404" lon="3.61488">
        <ele>907.62</ele>
        <time>2013-08-09T13:07:19Z</time>
      </trkpt>
      <trkpt lat="44.17393" lon="3.6149">
        <ele>907.62</ele>
        <time>2013-08-09T13:07:20Z</time>
      </trkpt>
      <trkpt lat="44.17383" lon="3.61494">
        <ele>907.14</ele>
        <time>2013-08-09T13:07:21Z</time>
      </trkpt>
      <trkpt lat="44.17375" lon="3.61502">
        <ele>907.14</ele>
        <time>2013-08-09T13:07:22Z</time>
      </trkpt>
      <trkpt lat="44.17369" lon="3.61516">
        <ele>906.66</ele>
        <time>2013-08-09T13:07:23Z</time>
      </trkpt>
      <trkpt lat="44.17369" lon="3.61535">
        <ele>906.18</ele>
        <time>2013-08-09T13:07:24Z</time>
      </trkpt>
      <trkpt lat="44.1737" lon="3.61553">
        <ele>906.18</ele>
        <time>2013-08-09T13:07:25Z</time>
      </trkpt>
      <trkpt lat="44.17369" lon="3.61569">
        <ele>906.18</ele>
        <time>2013-08-09T13:07:26Z</time>
      </trkpt>
      <trkpt lat="44.17367" lon="3.61584">
        <ele>906.18</ele>
        <time>2013-08-09T13:07:27Z</time>
      </trkpt>
      <trkpt lat="44.17362" lon="3.61598">
        <ele>905.7</ele>
        <time>2013-08-09T13:07:28Z</time>
      </trkpt>
      <trkpt lat="44.17354" lon="3.61606">
        <ele>905.7</ele>
        <time>2013-08-09T13:07:29Z</time>
      </trkpt>
      <trkpt lat="44.17343" lon="3.61612">
        <ele>905.22</ele>
        <time>2013-08-09T13:07:30Z</time>
      </trkpt>
      <trkpt lat="44.17331" lon="3.61616">
        <ele>905.22</ele>
        <time>2013-08-09T13:07:31Z</time>
      </trkpt>
      <trkpt lat="44.1732" lon="3.61621">
        <ele>905.22</ele>
        <time>2013-08-09T13:07:32Z</time>
      </trkpt>
      <trkpt lat="44.1731" lon="3.61627">
        <ele>904.74</ele>
        <time>2013-08-09T13:07:33Z</time>
      </trkpt>
      <trkpt lat="44.17302" lon="3.61636">
        <ele>904.74</ele>
        <time>2013-08-09T13:07:34Z</time>
      </trkpt>
      <trkpt lat="44.17297" lon="3.61647">
        <ele>904.26</ele>
        <time>2013-08-09T13:07:35Z</time>
      </trkpt>
      <trkpt lat="44.17297" lon="3.61662">
        <ele>903.78</ele>
        <time>2013-08-09T13:07:36Z</time>
      </trkpt>
      <trkpt lat="44.17299" lon="3.6168">
        <ele>903.3</ele>
        <time>2013-08-09T13:07:37Z</time>
      </trkpt>
      <trkpt lat="44.17302" lon="3.61697">
        <ele>902.82</ele>
        <time>2013-08-09T13:07:38Z</time>
      </trkpt>
      <trkpt lat="44.17304" lon="3.61715">
        <ele>902.82</ele>
        <time>2013-08-09T13:07:39Z</time>
      </trkpt>
      <trkpt lat="44.17304" lon="3.61735">
        <ele>902.82</ele>
        <time>2013-08-09T13:07:40Z</time>
      </trkpt>
      <trkpt lat="44.17302" lon="3.61758">
        <ele>902.33</ele>
        <time>2013-08-09T13:07:41Z</time>
      </trkpt>
      <trkpt lat="44.173" lon="3.6178">
        <ele>901.85</ele>
        <time>2013-08-09T13:07:42Z</time>
      </trkpt>
      <trkpt lat="44.1729" lon="3.6188">
        <ele>900.41</ele>
        <time>2013-08-09T13:07:47Z</time>
      </trkpt>
      <trkpt lat="44.17286" lon="3.61894">
        <ele>899.93</ele>
        <time>2013-08-09T13:07:48Z</time>
      </trkpt>
      <trkpt lat="44.17279" lon="3.61905">
        <ele>897.53</ele>
        <time>2013-08-09T13:07:49Z</time>
      </trkpt>
      <trkpt lat="44.17271" lon="3.61912">
        <ele>888.88</ele>
        <time>2013-08-09T13:07:50Z</time>
      </trkpt>
      <trkpt lat="44.1726" lon="3.61918">
        <ele>882.63</ele>
        <time>2013-08-09T13:07:51Z</time>
      </trkpt>
      <trkpt lat="44.17249" lon="3.61922">
        <ele>879.26</ele>
        <time>2013-08-09T13:07:52Z</time>
      </trkpt>
      <trkpt lat="44.17238" lon="3.61926">
        <ele>879.26</ele>
        <time>2013-08-09T13:07:53Z</time>
      </trkpt>
      <trkpt lat="44.17228" lon="3.61927">
        <ele>878.3</ele>
        <time>2013-08-09T13:07:54Z</time>
      </trkpt>
      <trkpt lat="44.1722" lon="3.61924">
        <ele>878.78</ele>
        <time>2013-08-09T13:07:55Z</time>
      </trkpt>
      <trkpt lat="44.17213" lon="3.61917">
        <ele>876.86</ele>
        <time>2013-08-09T13:07:56Z</time>
      </trkpt>
      <trkpt lat="44.17207" lon="3.61906">
        <ele>876.86</ele>
        <time>2013-08-09T13:07:57Z</time>
      </trkpt>
      <trkpt lat="44.17199" lon="3.61896">
        <ele>876.86</ele>
        <time>2013-08-09T13:07:58Z</time>
      </trkpt>
      <trkpt lat="44.17189" lon="3.61886">
        <ele>876.86</ele>
        <time>2013-08-09T13:07:59Z</time>
      </trkpt>
      <trkpt lat="44.17178" lon="3.61876">
        <ele>876.38</ele>
        <time>2013-08-09T13:08:00Z</time>
      </trkpt>
      <trkpt lat="44.17165" lon="3.61869">
        <ele>876.38</ele>
        <time>2013-08-09T13:08:01Z</time>
      </trkpt>
      <trkpt lat="44.17153" lon="3.61864">
        <ele>875.9</ele>
        <time>2013-08-09T13:08:02Z</time>
      </trkpt>
      <trkpt lat="44.17141" lon="3.61858">
        <ele>875.42</ele>
        <time>2013-08-09T13:08:03Z</time>
      </trkpt>
      <trkpt lat="44.17131" lon="3.61851">
        <ele>875.42</ele>
        <time>2013-08-09T13:08:04Z</time>
      </trkpt>
      <trkpt lat="44.17121" lon="3.61843">
        <ele>874.94</ele>
        <time>2013-08-09T13:08:05Z</time>
      </trkpt>
      <trkpt lat="44.17112" lon="3.61834">
        <ele>874.94</ele>
        <time>2013-08-09T13:08:06Z</time>
      </trkpt>
      <trkpt lat="44.17104" lon="3.61825">
        <ele>874.46</ele>
        <time>2013-08-09T13:08:07Z</time>
      </trkpt>
      <trkpt lat="44.17096" lon="3.61819">
        <ele>874.46</ele>
        <time>2013-08-09T13:08:08Z</time>
      </trkpt>
      <trkpt lat="44.17088" lon="3.61816">
        <ele>873.98</ele>
        <time>2013-08-09T13:08:09Z</time>
      </trkpt>
      <trkpt lat="44.17079" lon="3.61818">
        <ele>873.98</ele>
        <time>2013-08-09T13:08:10Z</time>
      </trkpt>
      <trkpt lat="44.1707" lon="3.61827">
        <ele>873.98</ele>
        <time>2013-08-09T13:08:11Z</time>
      </trkpt>
      <trkpt lat="44.17062" lon="3.61843">
        <ele>873.5</ele>
        <time>2013-08-09T13:08:12Z</time>
      </trkpt>
      <trkpt lat="44.17055" lon="3.6186">
        <ele>873.5</ele>
        <time>2013-08-09T13:08:13Z</time>
      </trkpt>
      <trkpt lat="44.17047" lon="3.61875">
        <ele>873.01</ele>
        <time>2013-08-09T13:08:14Z</time>
      </trkpt>
      <trkpt lat="44.17039" lon="3.61888">
        <ele>873.01</ele>
        <time>2013-08-09T13:08:15Z</time>
      </trkpt>
      <trkpt lat="44.1703" lon="3.61898">
        <ele>873.01</ele>
        <time>2013-08-09T13:08:16Z</time>
      </trkpt>
      <trkpt lat="44.17021" lon="3.61906">
        <ele>872.53</ele>
        <time>2013-08-09T13:08:17Z</time>
      </trkpt>
      <trkpt lat="44.17011" lon="3.61916">
        <ele>872.53</ele>
        <time>2013-08-09T13:08:18Z</time>
      </trkpt>
      <trkpt lat="44.17002" lon="3.61927">
        <ele>872.53</ele>
        <time>2013-08-09T13:08:19Z</time>
      </trkpt>
      <trkpt lat="44.1695" lon="3.62051">
        <ele>856.67</ele>
        <time>2013-08-09T13:08:27Z</time>
      </trkpt>
      <trkpt lat="44.16945" lon="3.62061">
        <ele>852.83</ele>
        <time>2013-08-09T13:08:28Z</time>
      </trkpt>
      <trkpt lat="44.16937" lon="3.62068">
        <ele>852.83</ele>
        <time>2013-08-09T13:08:29Z</time>
      </trkpt>
      <trkpt lat="44.16927" lon="3.62075">
        <ele>852.83</ele>
        <time>2013-08-09T13:08:30Z</time>
      </trkpt>
      <trkpt lat="44.16918" lon="3.62083">
        <ele>852.35</ele>
        <time>2013-08-09T13:08:31Z</time>
      </trkpt>
      <trkpt lat="44.16909" lon="3.62093">
        <ele>851.87</ele>
        <time>2013-08-09T13:08:32Z</time>
      </trkpt>
      <trkpt lat="44.16902" lon="3.62107">
        <ele>851.38</ele>
        <time>2013-08-09T13:08:33Z</time>
      </trkpt>
      <trkpt lat="44.16897" lon="3.62126">
        <ele>850.9</ele>
        <time>2013-08-09T13:08:34Z</time>
      </trkpt>
      <trkpt lat="44.16892" lon="3.62145">
        <ele>850.42</ele>
        <time>2013-08-09T13:08:35Z</time>
      </trkpt>
      <trkpt lat="44.16888" lon="3.62165">
        <ele>849.46</ele>
        <time>2013-08-09T13:08:36Z</time>
      </trkpt>
      <trkpt lat="44.16888" lon="3.62189">
        <ele>847.54</ele>
        <time>2013-08-09T13:08:37Z</time>
      </trkpt>
      <trkpt lat="44.16886" lon="3.62212">
        <ele>846.58</ele>
        <time>2013-08-09T13:08:38Z</time>
      </trkpt>
      <trkpt lat="44.16878" lon="3.62269">
        <ele>842.73</ele>
        <time>2013-08-09T13:08:41Z</time>
      </trkpt>
      <trkpt lat="44.16874" lon="3.62283">
        <ele>841.29</ele>
        <time>2013-08-09T13:08:42Z</time>
      </trkpt>
      <trkpt lat="44.16868" lon="3.62293">
        <ele>839.85</ele>
        <time>2013-08-09T13:08:43Z</time>
      </trkpt>
      <trkpt lat="44.16861" lon="3.62302">
        <ele>839.37</ele>
        <time>2013-08-09T13:08:44Z</time>
      </trkpt>
      <trkpt lat="44.16854" lon="3.62301">
        <ele>836.96</ele>
        <time>2013-08-09T13:08:45Z</time>
      </trkpt>
      <trkpt lat="44.16846" lon="3.62301">
        <ele>835.04</ele>
        <time>2013-08-09T13:08:46Z</time>
      </trkpt>
      <trkpt lat="44.16836" lon="3.62297">
        <ele>833.6</ele>
        <time>2013-08-09T13:08:47Z</time>
      </trkpt>
      <trkpt lat="44.16826" lon="3.6229">
        <ele>832.64</ele>
        <time>2013-08-09T13:08:48Z</time>
      </trkpt>
      <trkpt lat="44.16814" lon="3.62281">
        <ele>832.64</ele>
        <time>2013-08-09T13:08:49Z</time>
      </trkpt>
      <trkpt lat="44.16804" lon="3.62272">
        <ele>832.64</ele>
        <time>2013-08-09T13:08:50Z</time>
      </trkpt>
      <trkpt lat="44.16794" lon="3.62263">
        <ele>832.64</ele>
        <time>2013-08-09T13:08:51Z</time>
      </trkpt>
      <trkpt lat="44.16786" lon="3.62252">
        <ele>832.64</ele>
        <time>2013-08-09T13:08:52Z</time>
      </trkpt>
      <trkpt lat="44.1678" lon="3.62241">
        <ele>832.64</ele>
        <time>2013-08-09T13:08:53Z</time>
      </trkpt>
      <trkpt lat="44.16774" lon="3.62231">
        <ele>832.64</ele>
        <time>2013-08-09T13:08:54Z</time>
      </trkpt>
      <trkpt lat="44.16768" lon="3.62223">
        <ele>832.16</ele>
        <time>2013-08-09T13:08:55Z</time>
      </trkpt>
      <trkpt lat="44.16761" lon="3.62219">
        <ele>832.16</ele>
        <time>2013-08-09T13:08:56Z</time>
      </trkpt>
      <trkpt lat="44.16754" lon="3.62217">
        <ele>831.68</ele>
        <time>2013-08-09T13:08:57Z</time>
      </trkpt>
      <trkpt lat="44.16745" lon="3.62221">
        <ele>831.68</ele>
        <time>2013-08-09T13:08:58Z</time>
      </trkpt>
      <trkpt lat="44.16736" lon="3.62231">
        <ele>831.68</ele>
        <time>2013-08-09T13:08:59Z</time>
      </trkpt>
      <trkpt lat="44.16727" lon="3.62246">
        <ele>831.2</ele>
        <time>2013-08-09T13:09:00Z</time>
      </trkpt>
      <trkpt lat="44.16719" lon="3.62261">
        <ele>831.2</ele>
        <time>2013-08-09T13:09:01Z</time>
      </trkpt>
      <trkpt lat="44.16711" lon="3.62274">
        <ele>831.2</ele>
        <time>2013-08-09T13:09:02Z</time>
      </trkpt>
      <trkpt lat="44.16693" lon="3.62295">
        <ele>831.2</ele>
        <time>2013-08-09T13:09:04Z</time>
      </trkpt>
      <trkpt lat="44.16683" lon="3.62302">
        <ele>831.2</ele>
        <time>2013-08-09T13:09:05Z</time>
      </trkpt>
      <trkpt lat="44.16673" lon="3.62304">
        <ele>831.2</ele>
        <time>2013-08-09T13:09:06Z</time>
      </trkpt>
      <trkpt lat="44.16664" lon="3.6231">
        <ele>831.2</ele>
        <time>2013-08-09T13:09:07Z</time>
      </trkpt>
      <trkpt lat="44.16656" lon="3.62318">
        <ele>831.2</ele>
        <time>2013-08-09T13:09:08Z</time>
      </trkpt>
      <trkpt lat="44.1665" lon="3.6233">
        <ele>831.2</ele>
        <time>2013-08-09T13:09:09Z</time>
      </trkpt>
      <trkpt lat="44.16648" lon="3.62345">
        <ele>831.2</ele>
        <time>2013-08-09T13:09:10Z</time>
      </trkpt>
      <trkpt lat="44.16647" lon="3.62363">
        <ele>831.68</ele>
        <time>2013-08-09T13:09:11Z</time>
      </trkpt>
      <trkpt lat="44.16644" lon="3.62381">
        <ele>831.68</ele>
        <time>2013-08-09T13:09:12Z</time>
      </trkpt>
      <trkpt lat="44.16639" lon="3.624">
        <ele>829.27</ele>
        <time>2013-08-09T13:09:13Z</time>
      </trkpt>
      <trkpt lat="44.16632" lon="3.62417">
        <ele>825.91</ele>
        <time>2013-08-09T13:09:14Z</time>
      </trkpt>
      <trkpt lat="44.16605" lon="3.62479">
        <ele>820.62</ele>
        <time>2013-08-09T13:09:18Z</time>
      </trkpt>
      <trkpt lat="44.16596" lon="3.62491">
        <ele>820.62</ele>
        <time>2013-08-09T13:09:19Z</time>
      </trkpt>
      <trkpt lat="44.16586" lon="3.62502">
        <ele>820.14</ele>
        <time>2013-08-09T13:09:20Z</time>
      </trkpt>
      <trkpt lat="44.16574" lon="3.6251">
        <ele>818.22</ele>
        <time>2013-08-09T13:09:21Z</time>
      </trkpt>
      <trkpt lat="44.16562" lon="3.62519">
        <ele>817.74</ele>
        <time>2013-08-09T13:09:22Z</time>
      </trkpt>
      <trkpt lat="44.16475" lon="3.62574">
        <ele>815.82</ele>
        <time>2013-08-09T13:09:30Z</time>
      </trkpt>
      <trkpt lat="44.16467" lon="3.62575">
        <ele>815.82</ele>
        <time>2013-08-09T13:09:31Z</time>
      </trkpt>
      <trkpt lat="44.16459" lon="3.62572">
        <ele>815.82</ele>
        <time>2013-08-09T13:09:32Z</time>
      </trkpt>
      <trkpt lat="44.16451" lon="3.62565">
        <ele>815.82</ele>
        <time>2013-08-09T13:09:33Z</time>
      </trkpt>
      <trkpt lat="44.16444" lon="3.62557">
        <ele>815.34</ele>
        <time>2013-08-09T13:09:34Z</time>
      </trkpt>
      <trkpt lat="44.16436" lon="3.6255">
        <ele>815.34</ele>
        <time>2013-08-09T13:09:35Z</time>
      </trkpt>
      <trkpt lat="44.16427" lon="3.62545">
        <ele>815.34</ele>
        <time>2013-08-09T13:09:36Z</time>
      </trkpt>
      <trkpt lat="44.16417" lon="3.62544">
        <ele>814.85</ele>
        <time>2013-08-09T13:09:37Z</time>
      </trkpt>
      <trkpt lat="44.16407" lon="3.62546">
        <ele>814.85</ele>
        <time>2013-08-09T13:09:38Z</time>
      </trkpt>
      <trkpt lat="44.16398" lon="3.62552">
        <ele>814.37</ele>
        <time>2013-08-09T13:09:39Z</time>
      </trkpt>
      <trkpt lat="44.16391" lon="3.62563">
        <ele>813.89</ele>
        <time>2013-08-09T13:09:40Z</time>
      </trkpt>
      <trkpt lat="44.16388" lon="3.62579">
        <ele>813.41</ele>
        <time>2013-08-09T13:09:41Z</time>
      </trkpt>
      <trkpt lat="44.16387" lon="3.62597">
        <ele>812.45</ele>
        <time>2013-08-09T13:09:42Z</time>
      </trkpt>
      <trkpt lat="44.16384" lon="3.62612">
        <ele>811.97</ele>
        <time>2013-08-09T13:09:43Z</time>
      </trkpt>
      <trkpt lat="44.16373" lon="3.62648">
        <ele>811.49</ele>
        <time>2013-08-09T13:09:46Z</time>
      </trkpt>
      <trkpt lat="44.16366" lon="3.62654">
        <ele>812.45</ele>
        <time>2013-08-09T13:09:47Z</time>
      </trkpt>
      <trkpt lat="44.16361" lon="3.62654">
        <ele>811.49</ele>
        <time>2013-08-09T13:09:48Z</time>
      </trkpt>
      <trkpt lat="44.16355" lon="3.62653">
        <ele>812.45</ele>
        <time>2013-08-09T13:09:49Z</time>
      </trkpt>
      <trkpt lat="44.16349" lon="3.62651">
        <ele>814.37</ele>
        <time>2013-08-09T13:09:50Z</time>
      </trkpt>
      <trkpt lat="44.16342" lon="3.62647">
        <ele>816.3</ele>
        <time>2013-08-09T13:09:51Z</time>
      </trkpt>
      <trkpt lat="44.16335" lon="3.62641">
        <ele>818.7</ele>
        <time>2013-08-09T13:09:52Z</time>
      </trkpt>
      <trkpt lat="44.16329" lon="3.62635">
        <ele>819.18</ele>
        <time>2013-08-09T13:09:53Z</time>
      </trkpt>
      <trkpt lat="44.16322" lon="3.62631">
        <ele>819.66</ele>
        <time>2013-08-09T13:09:54Z</time>
      </trkpt>
      <trkpt lat="44.16315" lon="3.62629">
        <ele>819.66</ele>
        <time>2013-08-09T13:09:55Z</time>
      </trkpt>
      <trkpt lat="44.16309" lon="3.62628">
        <ele>819.18</ele>
        <time>2013-08-09T13:09:56Z</time>
      </trkpt>
      <trkpt lat="44.16303" lon="3.62631">
        <ele>818.7</ele>
        <time>2013-08-09T13:09:57Z</time>
      </trkpt>
      <trkpt lat="44.16298" lon="3.62638">
        <ele>818.7</ele>
        <time>2013-08-09T13:09:58Z</time>
      </trkpt>
      <trkpt lat="44.16294" lon="3.62648">
        <ele>818.22</ele>
        <time>2013-08-09T13:09:59Z</time>
      </trkpt>
      <trkpt lat="44.16293" lon="3.6266">
        <ele>818.22</ele>
        <time>2013-08-09T13:10:00Z</time>
      </trkpt>
      <trkpt lat="44.16296" lon="3.62672">
        <ele>818.22</ele>
        <time>2013-08-09T13:10:01Z</time>
      </trkpt>
      <trkpt lat="44.16298" lon="3.62685">
        <ele>817.74</ele>
        <time>2013-08-09T13:10:02Z</time>
      </trkpt>
      <trkpt lat="44.163" lon="3.62714">
        <ele>816.78</ele>
        <time>2013-08-09T13:10:04Z</time>
      </trkpt>
      <trkpt lat="44.16301" lon="3.62729">
        <ele>813.89</ele>
        <time>2013-08-09T13:10:05Z</time>
      </trkpt>
      <trkpt lat="44.16291" lon="3.62768">
        <ele>804.28</ele>
        <time>2013-08-09T13:10:08Z</time>
      </trkpt>
      <trkpt lat="44.16285" lon="3.6278">
        <ele>802.36</ele>
        <time>2013-08-09T13:10:09Z</time>
      </trkpt>
      <trkpt lat="44.16268" lon="3.62817">
        <ele>794.67</ele>
        <time>2013-08-09T13:10:12Z</time>
      </trkpt>
      <trkpt lat="44.16246" lon="3.62863">
        <ele>790.34</ele>
        <time>2013-08-09T13:10:16Z</time>
      </trkpt>
      <trkpt lat="44.1624" lon="3.62868">
        <ele>789.38</ele>
        <time>2013-08-09T13:10:17Z</time>
      </trkpt>
      <trkpt lat="44.16233" lon="3.62871">
        <ele>788.42</ele>
        <time>2013-08-09T13:10:18Z</time>
      </trkpt>
      <trkpt lat="44.16224" lon="3.6287">
        <ele>787.94</ele>
        <time>2013-08-09T13:10:19Z</time>
      </trkpt>
      <trkpt lat="44.16215" lon="3.62867">
        <ele>788.9</ele>
        <time>2013-08-09T13:10:20Z</time>
      </trkpt>
      <trkpt lat="44.16207" lon="3.62863">
        <ele>788.9</ele>
        <time>2013-08-09T13:10:21Z</time>
      </trkpt>
      <trkpt lat="44.16199" lon="3.62863">
        <ele>788.42</ele>
        <time>2013-08-09T13:10:22Z</time>
      </trkpt>
      <trkpt lat="44.16191" lon="3.62865">
        <ele>787.94</ele>
        <time>2013-08-09T13:10:23Z</time>
      </trkpt>
      <trkpt lat="44.16184" lon="3.62871">
        <ele>787.46</ele>
        <time>2013-08-09T13:10:24Z</time>
      </trkpt>
      <trkpt lat="44.16177" lon="3.62874">
        <ele>786.98</ele>
        <time>2013-08-09T13:10:25Z</time>
      </trkpt>
      <trkpt lat="44.16187" lon="3.62901">
        <ele>789.38</ele>
        <time>2013-08-09T13:10:28Z</time>
      </trkpt>
      <trkpt lat="44.16195" lon="3.62905">
        <ele>789.38</ele>
        <time>2013-08-09T13:10:29Z</time>
      </trkpt>
      <trkpt lat="44.16207" lon="3.62913">
        <ele>789.38</ele>
        <time>2013-08-09T13:10:30Z</time>
      </trkpt>
      <trkpt lat="44.1622" lon="3.6292">
        <ele>789.86</ele>
        <time>2013-08-09T13:10:31Z</time>
      </trkpt>
      <trkpt lat="44.16231" lon="3.62935">
        <ele>790.82</ele>
        <time>2013-08-09T13:10:32Z</time>
      </trkpt>
      <trkpt lat="44.16244" lon="3.62947">
        <ele>790.82</ele>
        <time>2013-08-09T13:10:33Z</time>
      </trkpt>
      <trkpt lat="44.16333" lon="3.63036">
        <ele>786.02</ele>
        <time>2013-08-09T13:10:42Z</time>
      </trkpt>
      <trkpt lat="44.16341" lon="3.63053">
        <ele>785.53</ele>
        <time>2013-08-09T13:10:43Z</time>
      </trkpt>
      <trkpt lat="44.1635" lon="3.6307">
        <ele>785.05</ele>
        <time>2013-08-09T13:10:44Z</time>
      </trkpt>
      <trkpt lat="44.16416" lon="3.63224">
        <ele>771.6</ele>
        <time>2013-08-09T13:10:54Z</time>
      </trkpt>
      <trkpt lat="44.16417" lon="3.63235">
        <ele>769.67</ele>
        <time>2013-08-09T13:10:55Z</time>
      </trkpt>
      <trkpt lat="44.16415" lon="3.63246">
        <ele>767.75</ele>
        <time>2013-08-09T13:10:56Z</time>
      </trkpt>
      <trkpt lat="44.1641" lon="3.63256">
        <ele>765.35</ele>
        <time>2013-08-09T13:10:57Z</time>
      </trkpt>
      <trkpt lat="44.16403" lon="3.63266">
        <ele>762.94</ele>
        <time>2013-08-09T13:10:58Z</time>
      </trkpt>
      <trkpt lat="44.16394" lon="3.63276">
        <ele>760.54</ele>
        <time>2013-08-09T13:10:59Z</time>
      </trkpt>
      <trkpt lat="44.16382" lon="3.63288">
        <ele>759.58</ele>
        <time>2013-08-09T13:11:00Z</time>
      </trkpt>
      <trkpt lat="44.16371" lon="3.633">
        <ele>759.58</ele>
        <time>2013-08-09T13:11:01Z</time>
      </trkpt>
      <trkpt lat="44.16345" lon="3.63336">
        <ele>758.14</ele>
        <time>2013-08-09T13:11:04Z</time>
      </trkpt>
      <trkpt lat="44.16339" lon="3.63348">
        <ele>757.66</ele>
        <time>2013-08-09T13:11:05Z</time>
      </trkpt>
      <trkpt lat="44.16335" lon="3.63361">
        <ele>757.18</ele>
        <time>2013-08-09T13:11:06Z</time>
      </trkpt>
      <trkpt lat="44.16334" lon="3.63373">
        <ele>756.69</ele>
        <time>2013-08-09T13:11:07Z</time>
      </trkpt>
      <trkpt lat="44.16336" lon="3.63386">
        <ele>756.69</ele>
        <time>2013-08-09T13:11:08Z</time>
      </trkpt>
      <trkpt lat="44.16342" lon="3.634">
        <ele>755.73</ele>
        <time>2013-08-09T13:11:09Z</time>
      </trkpt>
      <trkpt lat="44.16353" lon="3.63413">
        <ele>755.73</ele>
        <time>2013-08-09T13:11:10Z</time>
      </trkpt>
      <trkpt lat="44.16366" lon="3.63424">
        <ele>754.77</ele>
        <time>2013-08-09T13:11:11Z</time>
      </trkpt>
      <trkpt lat="44.1638" lon="3.63436">
        <ele>754.77</ele>
        <time>2013-08-09T13:11:12Z</time>
      </trkpt>
      <trkpt lat="44.16395" lon="3.63449">
        <ele>754.77</ele>
        <time>2013-08-09T13:11:13Z</time>
      </trkpt>
      <trkpt lat="44.1641" lon="3.63463">
        <ele>754.77</ele>
        <time>2013-08-09T13:11:14Z</time>
      </trkpt>
      <trkpt lat="44.16527" lon="3.6356">
        <ele>755.25</ele>
        <time>2013-08-09T13:11:22Z</time>
      </trkpt>
      <trkpt lat="44.16547" lon="3.63586">
        <ele>755.25</ele>
        <time>2013-08-09T13:11:24Z</time>
      </trkpt>
      <trkpt lat="44.16555" lon="3.63599">
        <ele>755.25</ele>
        <time>2013-08-09T13:11:25Z</time>
      </trkpt>
      <trkpt lat="44.1656" lon="3.63614">
        <ele>754.77</ele>
        <time>2013-08-09T13:11:26Z</time>
      </trkpt>
      <trkpt lat="44.16563" lon="3.6363">
        <ele>754.77</ele>
        <time>2013-08-09T13:11:27Z</time>
      </trkpt>
      <trkpt lat="44.16564" lon="3.63648">
        <ele>753.81</ele>
        <time>2013-08-09T13:11:28Z</time>
      </trkpt>
      <trkpt lat="44.16563" lon="3.63664">
        <ele>752.85</ele>
        <time>2013-08-09T13:11:29Z</time>
      </trkpt>
      <trkpt lat="44.16561" lon="3.63677">
        <ele>752.85</ele>
        <time>2013-08-09T13:11:30Z</time>
      </trkpt>
      <trkpt lat="44.16557" lon="3.63686">
        <ele>751.89</ele>
        <time>2013-08-09T13:11:31Z</time>
      </trkpt>
      <trkpt lat="44.16551" lon="3.63694">
        <ele>752.37</ele>
        <time>2013-08-09T13:11:32Z</time>
      </trkpt>
      <trkpt lat="44.16544" lon="3.63701">
        <ele>752.37</ele>
        <time>2013-08-09T13:11:33Z</time>
      </trkpt>
      <trkpt lat="44.16534" lon="3.63706">
        <ele>752.37</ele>
        <time>2013-08-09T13:11:34Z</time>
      </trkpt>
      <trkpt lat="44.16522" lon="3.6371">
        <ele>751.89</ele>
        <time>2013-08-09T13:11:35Z</time>
      </trkpt>
      <trkpt lat="44.16508" lon="3.63714">
        <ele>751.41</ele>
        <time>2013-08-09T13:11:36Z</time>
      </trkpt>
      <trkpt lat="44.16393" lon="3.63742">
        <ele>748.04</ele>
        <time>2013-08-09T13:11:45Z</time>
      </trkpt>
      <trkpt lat="44.1622" lon="3.63746">
        <ele>744.68</ele>
        <time>2013-08-09T13:11:57Z</time>
      </trkpt>
      <trkpt lat="44.16183" lon="3.6374">
        <ele>744.2</ele>
        <time>2013-08-09T13:12:00Z</time>
      </trkpt>
      <trkpt lat="44.16172" lon="3.63732">
        <ele>743.72</ele>
        <time>2013-08-09T13:12:01Z</time>
      </trkpt>
      <trkpt lat="44.16163" lon="3.63723">
        <ele>743.72</ele>
        <time>2013-08-09T13:12:02Z</time>
      </trkpt>
      <trkpt lat="44.16155" lon="3.63713">
        <ele>743.72</ele>
        <time>2013-08-09T13:12:03Z</time>
      </trkpt>
      <trkpt lat="44.16149" lon="3.63704">
        <ele>743.24</ele>
        <time>2013-08-09T13:12:04Z</time>
      </trkpt>
      <trkpt lat="44.16137" lon="3.63691">
        <ele>742.28</ele>
        <time>2013-08-09T13:12:06Z</time>
      </trkpt>
      <trkpt lat="44.16131" lon="3.63686">
        <ele>742.28</ele>
        <time>2013-08-09T13:12:07Z</time>
      </trkpt>
      <trkpt lat="44.16124" lon="3.63685">
        <ele>742.28</ele>
        <time>2013-08-09T13:12:08Z</time>
      </trkpt>
      <trkpt lat="44.16117" lon="3.63685">
        <ele>742.28</ele>
        <time>2013-08-09T13:12:09Z</time>
      </trkpt>
      <trkpt lat="44.16112" lon="3.63686">
        <ele>742.28</ele>
        <time>2013-08-09T13:12:10Z</time>
      </trkpt>
      <trkpt lat="44.16105" lon="3.63699">
        <ele>742.28</ele>
        <time>2013-08-09T13:12:11Z</time>
      </trkpt>
      <trkpt lat="44.16101" lon="3.6371">
        <ele>742.28</ele>
        <time>2013-08-09T13:12:12Z</time>
      </trkpt>
      <trkpt lat="44.16099" lon="3.63723">
        <ele>741.79</ele>
        <time>2013-08-09T13:12:13Z</time>
      </trkpt>
      <trkpt lat="44.16099" lon="3.63736">
        <ele>740.83</ele>
        <time>2013-08-09T13:12:14Z</time>
      </trkpt>
      <trkpt lat="44.16099" lon="3.6375">
        <ele>740.35</ele>
        <time>2013-08-09T13:12:15Z</time>
      </trkpt>
      <trkpt lat="44.16098" lon="3.63764">
        <ele>740.35</ele>
        <time>2013-08-09T13:12:16Z</time>
      </trkpt>
      <trkpt lat="44.16097" lon="3.63777">
        <ele>740.35</ele>
        <time>2013-08-09T13:12:17Z</time>
      </trkpt>
      <trkpt lat="44.16094" lon="3.6379">
        <ele>740.35</ele>
        <time>2013-08-09T13:12:18Z</time>
      </trkpt>
      <trkpt lat="44.16079" lon="3.63847">
        <ele>735.07</ele>
        <time>2013-08-09T13:12:23Z</time>
      </trkpt>
      <trkpt lat="44.16074" lon="3.63856">
        <ele>732.66</ele>
        <time>2013-08-09T13:12:24Z</time>
      </trkpt>
      <trkpt lat="44.16068" lon="3.63865">
        <ele>732.66</ele>
        <time>2013-08-09T13:12:25Z</time>
      </trkpt>
      <trkpt lat="44.16061" lon="3.63872">
        <ele>732.18</ele>
        <time>2013-08-09T13:12:26Z</time>
      </trkpt>
      <trkpt lat="44.16053" lon="3.63879">
        <ele>732.66</ele>
        <time>2013-08-09T13:12:27Z</time>
      </trkpt>
      <trkpt lat="44.16045" lon="3.63885">
        <ele>733.62</ele>
        <time>2013-08-09T13:12:28Z</time>
      </trkpt>
      <trkpt lat="44.16028" lon="3.639">
        <ele>734.58</ele>
        <time>2013-08-09T13:12:30Z</time>
      </trkpt>
      <trkpt lat="44.16022" lon="3.63909">
        <ele>734.1</ele>
        <time>2013-08-09T13:12:31Z</time>
      </trkpt>
      <trkpt lat="44.16019" lon="3.63922">
        <ele>733.62</ele>
        <time>2013-08-09T13:12:32Z</time>
      </trkpt>
      <trkpt lat="44.16018" lon="3.63935">
        <ele>733.14</ele>
        <time>2013-08-09T13:12:33Z</time>
      </trkpt>
      <trkpt lat="44.16019" lon="3.63948">
        <ele>731.22</ele>
        <time>2013-08-09T13:12:34Z</time>
      </trkpt>
      <trkpt lat="44.16024" lon="3.6396">
        <ele>727.86</ele>
        <time>2013-08-09T13:12:35Z</time>
      </trkpt>
      <trkpt lat="44.16032" lon="3.63971">
        <ele>726.41</ele>
        <time>2013-08-09T13:12:36Z</time>
      </trkpt>
      <trkpt lat="44.16043" lon="3.63981">
        <ele>725.45</ele>
        <time>2013-08-09T13:12:37Z</time>
      </trkpt>
      <trkpt lat="44.16055" lon="3.63991">
        <ele>724.49</ele>
        <time>2013-08-09T13:12:38Z</time>
      </trkpt>
      <trkpt lat="44.16066" lon="3.64">
        <ele>723.53</ele>
        <time>2013-08-09T13:12:39Z</time>
      </trkpt>
      <trkpt lat="44.16078" lon="3.64008">
        <ele>722.57</ele>
        <time>2013-08-09T13:12:40Z</time>
      </trkpt>
      <trkpt lat="44.16089" lon="3.64015">
        <ele>721.61</ele>
        <time>2013-08-09T13:12:41Z</time>
      </trkpt>
      <trkpt lat="44.16101" lon="3.64018">
        <ele>721.13</ele>
        <time>2013-08-09T13:12:42Z</time>
      </trkpt>
      <trkpt lat="44.16113" lon="3.64018">
        <ele>720.65</ele>
        <time>2013-08-09T13:12:43Z</time>
      </trkpt>
      <trkpt lat="44.16123" lon="3.64017">
        <ele>720.16</ele>
        <time>2013-08-09T13:12:44Z</time>
      </trkpt>
      <trkpt lat="44.16131" lon="3.64016">
        <ele>719.68</ele>
        <time>2013-08-09T13:12:45Z</time>
      </trkpt>
      <trkpt lat="44.16139" lon="3.64015">
        <ele>718.72</ele>
        <time>2013-08-09T13:12:46Z</time>
      </trkpt>
      <trkpt lat="44.16146" lon="3.64016">
        <ele>718.24</ele>
        <time>2013-08-09T13:12:47Z</time>
      </trkpt>
      <trkpt lat="44.16151" lon="3.64019">
        <ele>718.24</ele>
        <time>2013-08-09T13:12:48Z</time>
      </trkpt>
      <trkpt lat="44.16156" lon="3.64023">
        <ele>718.24</ele>
        <time>2013-08-09T13:12:49Z</time>
      </trkpt>
      <trkpt lat="44.16159" lon="3.64031">
        <ele>716.8</ele>
        <time>2013-08-09T13:12:50Z</time>
      </trkpt>
      <trkpt lat="44.16159" lon="3.64042">
        <ele>716.32</ele>
        <time>2013-08-09T13:12:51Z</time>
      </trkpt>
      <trkpt lat="44.16158" lon="3.64055">
        <ele>716.32</ele>
        <time>2013-08-09T13:12:52Z</time>
      </trkpt>
      <trkpt lat="44.16154" lon="3.64068">
        <ele>715.84</ele>
        <time>2013-08-09T13:12:53Z</time>
      </trkpt>
      <trkpt lat="44.16151" lon="3.64082">
        <ele>714.88</ele>
        <time>2013-08-09T13:12:54Z</time>
      </trkpt>
      <trkpt lat="44.16145" lon="3.64148">
        <ele>712.47</ele>
        <time>2013-08-09T13:12:59Z</time>
      </trkpt>
      <trkpt lat="44.16146" lon="3.6416">
        <ele>711.99</ele>
        <time>2013-08-09T13:13:00Z</time>
      </trkpt>
      <trkpt lat="44.16148" lon="3.64171">
        <ele>711.99</ele>
        <time>2013-08-09T13:13:01Z</time>
      </trkpt>
      <trkpt lat="44.16151" lon="3.64181">
        <ele>711.99</ele>
        <time>2013-08-09T13:13:02Z</time>
      </trkpt>
      <trkpt lat="44.16158" lon="3.64188">
        <ele>711.51</ele>
        <time>2013-08-09T13:13:03Z</time>
      </trkpt>
      <trkpt lat="44.16167" lon="3.6419">
        <ele>710.55</ele>
        <time>2013-08-09T13:13:04Z</time>
      </trkpt>
      <trkpt lat="44.16175" lon="3.64192">
        <ele>710.07</ele>
        <time>2013-08-09T13:13:05Z</time>
      </trkpt>
      <trkpt lat="44.16184" lon="3.64191">
        <ele>709.59</ele>
        <time>2013-08-09T13:13:06Z</time>
      </trkpt>
      <trkpt lat="44.16193" lon="3.64189">
        <ele>709.11</ele>
        <time>2013-08-09T13:13:07Z</time>
      </trkpt>
      <trkpt lat="44.16202" lon="3.64188">
        <ele>708.63</ele>
        <time>2013-08-09T13:13:08Z</time>
      </trkpt>
      <trkpt lat="44.16219" lon="3.64188">
        <ele>707.67</ele>
        <time>2013-08-09T13:13:10Z</time>
      </trkpt>
      <trkpt lat="44.16227" lon="3.6419">
        <ele>707.19</ele>
        <time>2013-08-09T13:13:11Z</time>
      </trkpt>
      <trkpt lat="44.16234" lon="3.64196">
        <ele>706.71</ele>
        <time>2013-08-09T13:13:12Z</time>
      </trkpt>
      <trkpt lat="44.16242" lon="3.64204">
        <ele>707.19</ele>
        <time>2013-08-09T13:13:13Z</time>
      </trkpt>
      <trkpt lat="44.16249" lon="3.64215">
        <ele>707.19</ele>
        <time>2013-08-09T13:13:14Z</time>
      </trkpt>
      <trkpt lat="44.16255" lon="3.64228">
        <ele>706.71</ele>
        <time>2013-08-09T13:13:15Z</time>
      </trkpt>
      <trkpt lat="44.16261" lon="3.64242">
        <ele>706.23</ele>
        <time>2013-08-09T13:13:16Z</time>
      </trkpt>
      <trkpt lat="44.16265" lon="3.64256">
        <ele>705.75</ele>
        <time>2013-08-09T13:13:17Z</time>
      </trkpt>
      <trkpt lat="44.16269" lon="3.6427">
        <ele>705.75</ele>
        <time>2013-08-09T13:13:18Z</time>
      </trkpt>
      <trkpt lat="44.16273" lon="3.64284">
        <ele>705.75</ele>
        <time>2013-08-09T13:13:19Z</time>
      </trkpt>
      <trkpt lat="44.16277" lon="3.64298">
        <ele>704.3</ele>
        <time>2013-08-09T13:13:20Z</time>
      </trkpt>
      <trkpt lat="44.16283" lon="3.64309">
        <ele>704.3</ele>
        <time>2013-08-09T13:13:21Z</time>
      </trkpt>
      <trkpt lat="44.1629" lon="3.64319">
        <ele>703.82</ele>
        <time>2013-08-09T13:13:22Z</time>
      </trkpt>
      <trkpt lat="44.163" lon="3.64325">
        <ele>703.82</ele>
        <time>2013-08-09T13:13:23Z</time>
      </trkpt>
      <trkpt lat="44.16311" lon="3.64328">
        <ele>703.34</ele>
        <time>2013-08-09T13:13:24Z</time>
      </trkpt>
      <trkpt lat="44.16322" lon="3.64329">
        <ele>702.86</ele>
        <time>2013-08-09T13:13:25Z</time>
      </trkpt>
      <trkpt lat="44.16334" lon="3.64326">
        <ele>702.38</ele>
        <time>2013-08-09T13:13:26Z</time>
      </trkpt>
      <trkpt lat="44.16346" lon="3.64323">
        <ele>702.38</ele>
        <time>2013-08-09T13:13:27Z</time>
      </trkpt>
      <trkpt lat="44.16356" lon="3.6432">
        <ele>701.9</ele>
        <time>2013-08-09T13:13:28Z</time>
      </trkpt>
      <trkpt lat="44.16365" lon="3.6432">
        <ele>701.42</ele>
        <time>2013-08-09T13:13:29Z</time>
      </trkpt>
      <trkpt lat="44.16373" lon="3.64321">
        <ele>701.42</ele>
        <time>2013-08-09T13:13:30Z</time>
      </trkpt>
      <trkpt lat="44.16381" lon="3.64325">
        <ele>700.94</ele>
        <time>2013-08-09T13:13:31Z</time>
      </trkpt>
      <trkpt lat="44.16388" lon="3.64332">
        <ele>700.46</ele>
        <time>2013-08-09T13:13:32Z</time>
      </trkpt>
      <trkpt lat="44.16394" lon="3.64343">
        <ele>699.5</ele>
        <time>2013-08-09T13:13:33Z</time>
      </trkpt>
      <trkpt lat="44.16399" lon="3.64355">
        <ele>699.02</ele>
        <time>2013-08-09T13:13:34Z</time>
      </trkpt>
      <trkpt lat="44.16402" lon="3.64369">
        <ele>698.05</ele>
        <time>2013-08-09T13:13:35Z</time>
      </trkpt>
      <trkpt lat="44.16405" lon="3.64382">
        <ele>698.05</ele>
        <time>2013-08-09T13:13:36Z</time>
      </trkpt>
      <trkpt lat="44.1641" lon="3.64395">
        <ele>698.05</ele>
        <time>2013-08-09T13:13:37Z</time>
      </trkpt>
      <trkpt lat="44.16416" lon="3.64406">
        <ele>697.57</ele>
        <time>2013-08-09T13:13:38Z</time>
      </trkpt>
      <trkpt lat="44.16424" lon="3.64416">
        <ele>697.09</ele>
        <time>2013-08-09T13:13:39Z</time>
      </trkpt>
      <trkpt lat="44.16432" lon="3.64423">
        <ele>696.13</ele>
        <time>2013-08-09T13:13:40Z</time>
      </trkpt>
      <trkpt lat="44.1644" lon="3.64431">
        <ele>695.17</ele>
        <time>2013-08-09T13:13:41Z</time>
      </trkpt>
      <trkpt lat="44.16445" lon="3.6444">
        <ele>695.17</ele>
        <time>2013-08-09T13:13:42Z</time>
      </trkpt>
      <trkpt lat="44.16449" lon="3.64451">
        <ele>694.69</ele>
        <time>2013-08-09T13:13:43Z</time>
      </trkpt>
      <trkpt lat="44.16452" lon="3.64465">
        <ele>693.25</ele>
        <time>2013-08-09T13:13:44Z</time>
      </trkpt>
      <trkpt lat="44.16454" lon="3.64479">
        <ele>692.29</ele>
        <time>2013-08-09T13:13:45Z</time>
      </trkpt>
      <trkpt lat="44.16457" lon="3.64494">
        <ele>691.81</ele>
        <time>2013-08-09T13:13:46Z</time>
      </trkpt>
      <trkpt lat="44.16469" lon="3.64535">
        <ele>690.84</ele>
        <time>2013-08-09T13:13:49Z</time>
      </trkpt>
      <trkpt lat="44.16474" lon="3.64549">
        <ele>690.36</ele>
        <time>2013-08-09T13:13:50Z</time>
      </trkpt>
      <trkpt lat="44.1649" lon="3.64583">
        <ele>687.48</ele>
        <time>2013-08-09T13:13:53Z</time>
      </trkpt>
      <trkpt lat="44.16492" lon="3.64594">
        <ele>686.04</ele>
        <time>2013-08-09T13:13:54Z</time>
      </trkpt>
      <trkpt lat="44.16491" lon="3.64606">
        <ele>685.08</ele>
        <time>2013-08-09T13:13:55Z</time>
      </trkpt>
      <trkpt lat="44.16488" lon="3.64618">
        <ele>684.12</ele>
        <time>2013-08-09T13:13:56Z</time>
      </trkpt>
      <trkpt lat="44.16481" lon="3.64631">
        <ele>683.15</ele>
        <time>2013-08-09T13:13:57Z</time>
      </trkpt>
      <trkpt lat="44.16476" lon="3.64643">
        <ele>682.67</ele>
        <time>2013-08-09T13:13:58Z</time>
      </trkpt>
      <trkpt lat="44.16466" lon="3.6467">
        <ele>681.23</ele>
        <time>2013-08-09T13:14:00Z</time>
      </trkpt>
      <trkpt lat="44.16463" lon="3.64685">
        <ele>680.27</ele>
        <time>2013-08-09T13:14:01Z</time>
      </trkpt>
      <trkpt lat="44.1646" lon="3.64701">
        <ele>679.79</ele>
        <time>2013-08-09T13:14:02Z</time>
      </trkpt>
      <trkpt lat="44.16459" lon="3.64716">
        <ele>678.83</ele>
        <time>2013-08-09T13:14:03Z</time>
      </trkpt>
      <trkpt lat="44.16457" lon="3.64732">
        <ele>678.83</ele>
        <time>2013-08-09T13:14:04Z</time>
      </trkpt>
      <trkpt lat="44.16481" lon="3.64884">
        <ele>673.54</ele>
        <time>2013-08-09T13:14:13Z</time>
      </trkpt>
      <trkpt lat="44.16526" lon="3.65015">
        <ele>667.77</ele>
        <time>2013-08-09T13:14:19Z</time>
      </trkpt>
      <trkpt lat="44.16542" lon="3.65145">
        <ele>658.64</ele>
        <time>2013-08-09T13:14:25Z</time>
      </trkpt>
      <trkpt lat="44.1654" lon="3.65164">
        <ele>657.2</ele>
        <time>2013-08-09T13:14:26Z</time>
      </trkpt>
      <trkpt lat="44.16537" lon="3.6518">
        <ele>656.72</ele>
        <time>2013-08-09T13:14:27Z</time>
      </trkpt>
      <trkpt lat="44.1653" lon="3.65191">
        <ele>655.76</ele>
        <time>2013-08-09T13:14:28Z</time>
      </trkpt>
      <trkpt lat="44.16525" lon="3.65198">
        <ele>654.8</ele>
        <time>2013-08-09T13:14:29Z</time>
      </trkpt>
      <trkpt lat="44.16517" lon="3.65201">
        <ele>654.31</ele>
        <time>2013-08-09T13:14:30Z</time>
      </trkpt>
      <trkpt lat="44.16505" lon="3.65202">
        <ele>654.31</ele>
        <time>2013-08-09T13:14:31Z</time>
      </trkpt>
      <trkpt lat="44.16494" lon="3.65198">
        <ele>654.8</ele>
        <time>2013-08-09T13:14:32Z</time>
      </trkpt>
      <trkpt lat="44.16481" lon="3.65194">
        <ele>654.31</ele>
        <time>2013-08-09T13:14:33Z</time>
      </trkpt>
      <trkpt lat="44.16467" lon="3.65187">
        <ele>654.31</ele>
        <time>2013-08-09T13:14:34Z</time>
      </trkpt>
      <trkpt lat="44.16454" lon="3.65181">
        <ele>654.31</ele>
        <time>2013-08-09T13:14:35Z</time>
      </trkpt>
      <trkpt lat="44.16441" lon="3.65174">
        <ele>653.83</ele>
        <time>2013-08-09T13:14:36Z</time>
      </trkpt>
      <trkpt lat="44.16429" lon="3.65165">
        <ele>653.83</ele>
        <time>2013-08-09T13:14:37Z</time>
      </trkpt>
      <trkpt lat="44.16417" lon="3.65156">
        <ele>653.83</ele>
        <time>2013-08-09T13:14:38Z</time>
      </trkpt>
      <trkpt lat="44.16393" lon="3.65141">
        <ele>652.87</ele>
        <time>2013-08-09T13:14:40Z</time>
      </trkpt>
      <trkpt lat="44.1638" lon="3.65137">
        <ele>652.87</ele>
        <time>2013-08-09T13:14:41Z</time>
      </trkpt>
      <trkpt lat="44.16367" lon="3.65135">
        <ele>652.39</ele>
        <time>2013-08-09T13:14:42Z</time>
      </trkpt>
      <trkpt lat="44.16354" lon="3.65137">
        <ele>651.91</ele>
        <time>2013-08-09T13:14:43Z</time>
      </trkpt>
      <trkpt lat="44.16342" lon="3.65143">
        <ele>651.91</ele>
        <time>2013-08-09T13:14:44Z</time>
      </trkpt>
      <trkpt lat="44.16331" lon="3.65156">
        <ele>651.43</ele>
        <time>2013-08-09T13:14:45Z</time>
      </trkpt>
      <trkpt lat="44.16321" lon="3.65173">
        <ele>651.43</ele>
        <time>2013-08-09T13:14:46Z</time>
      </trkpt>
      <trkpt lat="44.16311" lon="3.65188">
        <ele>651.43</ele>
        <time>2013-08-09T13:14:47Z</time>
      </trkpt>
      <trkpt lat="44.16292" lon="3.65214">
        <ele>650.95</ele>
        <time>2013-08-09T13:14:49Z</time>
      </trkpt>
      <trkpt lat="44.16282" lon="3.65224">
        <ele>650.47</ele>
        <time>2013-08-09T13:14:50Z</time>
      </trkpt>
      <trkpt lat="44.1627" lon="3.65233">
        <ele>650.47</ele>
        <time>2013-08-09T13:14:51Z</time>
      </trkpt>
      <trkpt lat="44.16258" lon="3.65241">
        <ele>649.99</ele>
        <time>2013-08-09T13:14:52Z</time>
      </trkpt>
      <trkpt lat="44.16245" lon="3.65248">
        <ele>649.99</ele>
        <time>2013-08-09T13:14:53Z</time>
      </trkpt>
      <trkpt lat="44.16232" lon="3.65252">
        <ele>649.51</ele>
        <time>2013-08-09T13:14:54Z</time>
      </trkpt>
      <trkpt lat="44.16219" lon="3.65252">
        <ele>649.51</ele>
        <time>2013-08-09T13:14:55Z</time>
      </trkpt>
      <trkpt lat="44.16205" lon="3.65251">
        <ele>649.03</ele>
        <time>2013-08-09T13:14:56Z</time>
      </trkpt>
      <trkpt lat="44.16191" lon="3.65249">
        <ele>648.55</ele>
        <time>2013-08-09T13:14:57Z</time>
      </trkpt>
      <trkpt lat="44.16158" lon="3.65241">
        <ele>648.07</ele>
        <time>2013-08-09T13:15:00Z</time>
      </trkpt>
      <trkpt lat="44.1615" lon="3.65235">
        <ele>647.59</ele>
        <time>2013-08-09T13:15:01Z</time>
      </trkpt>
      <trkpt lat="44.16143" lon="3.65227">
        <ele>647.1</ele>
        <time>2013-08-09T13:15:02Z</time>
      </trkpt>
      <trkpt lat="44.16137" lon="3.65215">
        <ele>647.1</ele>
        <time>2013-08-09T13:15:03Z</time>
      </trkpt>
      <trkpt lat="44.16133" lon="3.65201">
        <ele>646.62</ele>
        <time>2013-08-09T13:15:04Z</time>
      </trkpt>
      <trkpt lat="44.16127" lon="3.65189">
        <ele>646.14</ele>
        <time>2013-08-09T13:15:05Z</time>
      </trkpt>
      <trkpt lat="44.16121" lon="3.65178">
        <ele>645.66</ele>
        <time>2013-08-09T13:15:06Z</time>
      </trkpt>
      <trkpt lat="44.16114" lon="3.65171">
        <ele>645.66</ele>
        <time>2013-08-09T13:15:07Z</time>
      </trkpt>
      <trkpt lat="44.16106" lon="3.65166">
        <ele>645.18</ele>
        <time>2013-08-09T13:15:08Z</time>
      </trkpt>
      <trkpt lat="44.16098" lon="3.65167">
        <ele>645.18</ele>
        <time>2013-08-09T13:15:09Z</time>
      </trkpt>
      <trkpt lat="44.16088" lon="3.65175">
        <ele>645.18</ele>
        <time>2013-08-09T13:15:10Z</time>
      </trkpt>
      <trkpt lat="44.16079" lon="3.65187">
        <ele>645.18</ele>
        <time>2013-08-09T13:15:11Z</time>
      </trkpt>
      <trkpt lat="44.16068" lon="3.65202">
        <ele>644.7</ele>
        <time>2013-08-09T13:15:12Z</time>
      </trkpt>
      <trkpt lat="44.16056" lon="3.65216">
        <ele>644.7</ele>
        <time>2013-08-09T13:15:13Z</time>
      </trkpt>
      <trkpt lat="44.16043" lon="3.65228">
        <ele>644.22</ele>
        <time>2013-08-09T13:15:14Z</time>
      </trkpt>
      <trkpt lat="44.1598" lon="3.65275">
        <ele>641.34</ele>
        <time>2013-08-09T13:15:19Z</time>
      </trkpt>
      <trkpt lat="44.15969" lon="3.65279">
        <ele>640.86</ele>
        <time>2013-08-09T13:15:20Z</time>
      </trkpt>
      <trkpt lat="44.15958" lon="3.6528">
        <ele>640.86</ele>
        <time>2013-08-09T13:15:21Z</time>
      </trkpt>
      <trkpt lat="44.15947" lon="3.65277">
        <ele>640.38</ele>
        <time>2013-08-09T13:15:22Z</time>
      </trkpt>
      <trkpt lat="44.15936" lon="3.65271">
        <ele>639.41</ele>
        <time>2013-08-09T13:15:23Z</time>
      </trkpt>
      <trkpt lat="44.15926" lon="3.65262">
        <ele>638.93</ele>
        <time>2013-08-09T13:15:24Z</time>
      </trkpt>
      <trkpt lat="44.15918" lon="3.6525">
        <ele>638.93</ele>
        <time>2013-08-09T13:15:25Z</time>
      </trkpt>
      <trkpt lat="44.15909" lon="3.65244">
        <ele>638.45</ele>
        <time>2013-08-09T13:15:26Z</time>
      </trkpt>
      <trkpt lat="44.15899" lon="3.65241">
        <ele>638.93</ele>
        <time>2013-08-09T13:15:27Z</time>
      </trkpt>
      <trkpt lat="44.1589" lon="3.6524">
        <ele>638.93</ele>
        <time>2013-08-09T13:15:28Z</time>
      </trkpt>
      <trkpt lat="44.15881" lon="3.65244">
        <ele>638.93</ele>
        <time>2013-08-09T13:15:29Z</time>
      </trkpt>
      <trkpt lat="44.15874" lon="3.65255">
        <ele>638.45</ele>
        <time>2013-08-09T13:15:30Z</time>
      </trkpt>
      <trkpt lat="44.15871" lon="3.6527">
        <ele>637.97</ele>
        <time>2013-08-09T13:15:31Z</time>
      </trkpt>
      <trkpt lat="44.1587" lon="3.65287">
        <ele>637.49</ele>
        <time>2013-08-09T13:15:32Z</time>
      </trkpt>
      <trkpt lat="44.15869" lon="3.65306">
        <ele>637.97</ele>
        <time>2013-08-09T13:15:33Z</time>
      </trkpt>
      <trkpt lat="44.15872" lon="3.65326">
        <ele>637.97</ele>
        <time>2013-08-09T13:15:34Z</time>
      </trkpt>
      <trkpt lat="44.15875" lon="3.65345">
        <ele>637.97</ele>
        <time>2013-08-09T13:15:35Z</time>
      </trkpt>
      <trkpt lat="44.15882" lon="3.65365">
        <ele>638.45</ele>
        <time>2013-08-09T13:15:36Z</time>
      </trkpt>
      <trkpt lat="44.15889" lon="3.65385">
        <ele>637.97</ele>
        <time>2013-08-09T13:15:37Z</time>
      </trkpt>
      <trkpt lat="44.159" lon="3.65403">
        <ele>636.53</ele>
        <time>2013-08-09T13:15:38Z</time>
      </trkpt>
      <trkpt lat="44.15919" lon="3.65413">
        <ele>628.36</ele>
        <time>2013-08-09T13:15:39Z</time>
      </trkpt>
      <trkpt lat="44.15934" lon="3.65426">
        <ele>624.51</ele>
        <time>2013-08-09T13:15:40Z</time>
      </trkpt>
      <trkpt lat="44.15998" lon="3.65477">
        <ele>615.38</ele>
        <time>2013-08-09T13:15:45Z</time>
      </trkpt>
      <trkpt lat="44.16015" lon="3.65481">
        <ele>614.42</ele>
        <time>2013-08-09T13:15:46Z</time>
      </trkpt>
      <trkpt lat="44.16033" lon="3.6548">
        <ele>612.98</ele>
        <time>2013-08-09T13:15:47Z</time>
      </trkpt>
      <trkpt lat="44.1608" lon="3.65487">
        <ele>608.17</ele>
        <time>2013-08-09T13:15:50Z</time>
      </trkpt>
      <trkpt lat="44.16095" lon="3.65494">
        <ele>606.73</ele>
        <time>2013-08-09T13:15:51Z</time>
      </trkpt>
      <trkpt lat="44.16108" lon="3.65503">
        <ele>605.29</ele>
        <time>2013-08-09T13:15:52Z</time>
      </trkpt>
      <trkpt lat="44.16122" lon="3.65515">
        <ele>603.85</ele>
        <time>2013-08-09T13:15:53Z</time>
      </trkpt>
      <trkpt lat="44.16136" lon="3.65527">
        <ele>602.88</ele>
        <time>2013-08-09T13:15:54Z</time>
      </trkpt>
      <trkpt lat="44.16198" lon="3.65565">
        <ele>597.12</ele>
        <time>2013-08-09T13:15:58Z</time>
      </trkpt>
      <trkpt lat="44.16216" lon="3.65568">
        <ele>596.15</ele>
        <time>2013-08-09T13:15:59Z</time>
      </trkpt>
      <trkpt lat="44.16297" lon="3.65583">
        <ele>593.27</ele>
        <time>2013-08-09T13:16:04Z</time>
      </trkpt>
      <trkpt lat="44.16312" lon="3.65591">
        <ele>591.83</ele>
        <time>2013-08-09T13:16:05Z</time>
      </trkpt>
      <trkpt lat="44.16327" lon="3.65601">
        <ele>590.39</ele>
        <time>2013-08-09T13:16:06Z</time>
      </trkpt>
      <trkpt lat="44.16341" lon="3.65613">
        <ele>588.95</ele>
        <time>2013-08-09T13:16:07Z</time>
      </trkpt>
      <trkpt lat="44.16356" lon="3.65625">
        <ele>587.98</ele>
        <time>2013-08-09T13:16:08Z</time>
      </trkpt>
      <trkpt lat="44.16422" lon="3.65661">
        <ele>578.37</ele>
        <time>2013-08-09T13:16:14Z</time>
      </trkpt>
      <trkpt lat="44.16427" lon="3.6567">
        <ele>577.41</ele>
        <time>2013-08-09T13:16:15Z</time>
      </trkpt>
      <trkpt lat="44.16431" lon="3.65682">
        <ele>576.93</ele>
        <time>2013-08-09T13:16:16Z</time>
      </trkpt>
      <trkpt lat="44.16435" lon="3.65699">
        <ele>575.49</ele>
        <time>2013-08-09T13:16:17Z</time>
      </trkpt>
      <trkpt lat="44.16439" lon="3.65721">
        <ele>574.53</ele>
        <time>2013-08-09T13:16:18Z</time>
      </trkpt>
      <trkpt lat="44.16443" lon="3.65745">
        <ele>574.04</ele>
        <time>2013-08-09T13:16:19Z</time>
      </trkpt>
      <trkpt lat="44.16446" lon="3.65767">
        <ele>572.6</ele>
        <time>2013-08-09T13:16:20Z</time>
      </trkpt>
      <trkpt lat="44.16476" lon="3.65872">
        <ele>566.35</ele>
        <time>2013-08-09T13:16:26Z</time>
      </trkpt>
      <trkpt lat="44.16496" lon="3.659">
        <ele>564.43</ele>
        <time>2013-08-09T13:16:29Z</time>
      </trkpt>
      <trkpt lat="44.16497" lon="3.6591">
        <ele>564.43</ele>
        <time>2013-08-09T13:16:30Z</time>
      </trkpt>
      <trkpt lat="44.16496" lon="3.6592">
        <ele>563.95</ele>
        <time>2013-08-09T13:16:31Z</time>
      </trkpt>
      <trkpt lat="44.16488" lon="3.65926">
        <ele>562.51</ele>
        <time>2013-08-09T13:16:32Z</time>
      </trkpt>
      <trkpt lat="44.16478" lon="3.65933">
        <ele>562.03</ele>
        <time>2013-08-09T13:16:33Z</time>
      </trkpt>
      <trkpt lat="44.16466" lon="3.65938">
        <ele>562.03</ele>
        <time>2013-08-09T13:16:34Z</time>
      </trkpt>
      <trkpt lat="44.16454" lon="3.65946">
        <ele>560.59</ele>
        <time>2013-08-09T13:16:35Z</time>
      </trkpt>
      <trkpt lat="44.16376" lon="3.66001">
        <ele>551.45</ele>
        <time>2013-08-09T13:16:41Z</time>
      </trkpt>
      <trkpt lat="44.16295" lon="3.66035">
        <ele>548.09</ele>
        <time>2013-08-09T13:16:47Z</time>
      </trkpt>
      <trkpt lat="44.1628" lon="3.66032">
        <ele>547.61</ele>
        <time>2013-08-09T13:16:48Z</time>
      </trkpt>
      <trkpt lat="44.16197" lon="3.66044">
        <ele>546.65</ele>
        <time>2013-08-09T13:16:54Z</time>
      </trkpt>
      <trkpt lat="44.16187" lon="3.66054">
        <ele>546.65</ele>
        <time>2013-08-09T13:16:55Z</time>
      </trkpt>
      <trkpt lat="44.16181" lon="3.66071">
        <ele>546.17</ele>
        <time>2013-08-09T13:16:56Z</time>
      </trkpt>
      <trkpt lat="44.16178" lon="3.66094">
        <ele>545.69</ele>
        <time>2013-08-09T13:16:57Z</time>
      </trkpt>
      <trkpt lat="44.16175" lon="3.66116">
        <ele>545.69</ele>
        <time>2013-08-09T13:16:58Z</time>
      </trkpt>
      <trkpt lat="44.16164" lon="3.6616">
        <ele>543.76</ele>
        <time>2013-08-09T13:17:00Z</time>
      </trkpt>
      <trkpt lat="44.16157" lon="3.66182">
        <ele>542.8</ele>
        <time>2013-08-09T13:17:01Z</time>
      </trkpt>
      <trkpt lat="44.16124" lon="3.66277">
        <ele>539.92</ele>
        <time>2013-08-09T13:17:06Z</time>
      </trkpt>
      <trkpt lat="44.16123" lon="3.66294">
        <ele>538.96</ele>
        <time>2013-08-09T13:17:07Z</time>
      </trkpt>
      <trkpt lat="44.16127" lon="3.66312">
        <ele>537.03</ele>
        <time>2013-08-09T13:17:08Z</time>
      </trkpt>
      <trkpt lat="44.16135" lon="3.66327">
        <ele>536.07</ele>
        <time>2013-08-09T13:17:09Z</time>
      </trkpt>
      <trkpt lat="44.16146" lon="3.66338">
        <ele>536.55</ele>
        <time>2013-08-09T13:17:10Z</time>
      </trkpt>
      <trkpt lat="44.16155" lon="3.66349">
        <ele>536.07</ele>
        <time>2013-08-09T13:17:11Z</time>
      </trkpt>
      <trkpt lat="44.16163" lon="3.66362">
        <ele>535.59</ele>
        <time>2013-08-09T13:17:12Z</time>
      </trkpt>
      <trkpt lat="44.1617" lon="3.66377">
        <ele>535.11</ele>
        <time>2013-08-09T13:17:13Z</time>
      </trkpt>
      <trkpt lat="44.16174" lon="3.66395">
        <ele>534.15</ele>
        <time>2013-08-09T13:17:14Z</time>
      </trkpt>
      <trkpt lat="44.16178" lon="3.66415">
        <ele>533.19</ele>
        <time>2013-08-09T13:17:15Z</time>
      </trkpt>
      <trkpt lat="44.16184" lon="3.66437">
        <ele>532.71</ele>
        <time>2013-08-09T13:17:16Z</time>
      </trkpt>
      <trkpt lat="44.16191" lon="3.66459">
        <ele>531.75</ele>
        <time>2013-08-09T13:17:17Z</time>
      </trkpt>
      <trkpt lat="44.162" lon="3.66483">
        <ele>531.75</ele>
        <time>2013-08-09T13:17:18Z</time>
      </trkpt>
      <trkpt lat="44.16273" lon="3.66712">
        <ele>525.98</ele>
        <time>2013-08-09T13:17:27Z</time>
      </trkpt>
      <trkpt lat="44.16283" lon="3.66782">
        <ele>521.65</ele>
        <time>2013-08-09T13:17:30Z</time>
      </trkpt>
      <trkpt lat="44.16283" lon="3.66804">
        <ele>520.21</ele>
        <time>2013-08-09T13:17:31Z</time>
      </trkpt>
      <trkpt lat="44.16279" lon="3.66829">
        <ele>518.77</ele>
        <time>2013-08-09T13:17:32Z</time>
      </trkpt>
      <trkpt lat="44.16252" lon="3.67">
        <ele>512.04</ele>
        <time>2013-08-09T13:17:39Z</time>
      </trkpt>
      <trkpt lat="44.16243" lon="3.67012">
        <ele>510.6</ele>
        <time>2013-08-09T13:17:40Z</time>
      </trkpt>
      <trkpt lat="44.16236" lon="3.67021">
        <ele>509.16</ele>
        <time>2013-08-09T13:17:41Z</time>
      </trkpt>
      <trkpt lat="44.16228" lon="3.67028">
        <ele>509.64</ele>
        <time>2013-08-09T13:17:42Z</time>
      </trkpt>
      <trkpt lat="44.16218" lon="3.67031">
        <ele>509.64</ele>
        <time>2013-08-09T13:17:43Z</time>
      </trkpt>
      <trkpt lat="44.16206" lon="3.67025">
        <ele>509.16</ele>
        <time>2013-08-09T13:17:44Z</time>
      </trkpt>
      <trkpt lat="44.16196" lon="3.67017">
        <ele>508.67</ele>
        <time>2013-08-09T13:17:45Z</time>
      </trkpt>
      <trkpt lat="44.16184" lon="3.67008">
        <ele>508.19</ele>
        <time>2013-08-09T13:17:46Z</time>
      </trkpt>
      <trkpt lat="44.16174" lon="3.66999">
        <ele>508.19</ele>
        <time>2013-08-09T13:17:47Z</time>
      </trkpt>
      <trkpt lat="44.16164" lon="3.66988">
        <ele>508.19</ele>
        <time>2013-08-09T13:17:48Z</time>
      </trkpt>
      <trkpt lat="44.16157" lon="3.66974">
        <ele>507.71</ele>
        <time>2013-08-09T13:17:49Z</time>
      </trkpt>
      <trkpt lat="44.16153" lon="3.66957">
        <ele>507.71</ele>
        <time>2013-08-09T13:17:50Z</time>
      </trkpt>
      <trkpt lat="44.16147" lon="3.66942">
        <ele>507.71</ele>
        <time>2013-08-09T13:17:51Z</time>
      </trkpt>
      <trkpt lat="44.16141" lon="3.66929">
        <ele>507.23</ele>
        <time>2013-08-09T13:17:52Z</time>
      </trkpt>
      <trkpt lat="44.16133" lon="3.66919">
        <ele>507.23</ele>
        <time>2013-08-09T13:17:53Z</time>
      </trkpt>
      <trkpt lat="44.16124" lon="3.66914">
        <ele>506.75</ele>
        <time>2013-08-09T13:17:54Z</time>
      </trkpt>
      <trkpt lat="44.16113" lon="3.66915">
        <ele>506.75</ele>
        <time>2013-08-09T13:17:55Z</time>
      </trkpt>
      <trkpt lat="44.16102" lon="3.66922">
        <ele>506.75</ele>
        <time>2013-08-09T13:17:56Z</time>
      </trkpt>
      <trkpt lat="44.16095" lon="3.66933">
        <ele>505.79</ele>
        <time>2013-08-09T13:17:57Z</time>
      </trkpt>
      <trkpt lat="44.16091" lon="3.66947">
        <ele>504.83</ele>
        <time>2013-08-09T13:17:58Z</time>
      </trkpt>
      <trkpt lat="44.1609" lon="3.66968">
        <ele>504.83</ele>
        <time>2013-08-09T13:17:59Z</time>
      </trkpt>
      <trkpt lat="44.16093" lon="3.66988">
        <ele>503.39</ele>
        <time>2013-08-09T13:18:00Z</time>
      </trkpt>
      <trkpt lat="44.16096" lon="3.67009">
        <ele>502.91</ele>
        <time>2013-08-09T13:18:01Z</time>
      </trkpt>
      <trkpt lat="44.16102" lon="3.67029">
        <ele>501.46</ele>
        <time>2013-08-09T13:18:02Z</time>
      </trkpt>
      <trkpt lat="44.16108" lon="3.67049">
        <ele>500.5</ele>
        <time>2013-08-09T13:18:03Z</time>
      </trkpt>
      <trkpt lat="44.16116" lon="3.67067">
        <ele>499.54</ele>
        <time>2013-08-09T13:18:04Z</time>
      </trkpt>
      <trkpt lat="44.16125" lon="3.67084">
        <ele>498.1</ele>
        <time>2013-08-09T13:18:05Z</time>
      </trkpt>
      <trkpt lat="44.16137" lon="3.67099">
        <ele>497.14</ele>
        <time>2013-08-09T13:18:06Z</time>
      </trkpt>
      <trkpt lat="44.16149" lon="3.67112">
        <ele>495.7</ele>
        <time>2013-08-09T13:18:07Z</time>
      </trkpt>
      <trkpt lat="44.16162" lon="3.67125">
        <ele>495.22</ele>
        <time>2013-08-09T13:18:08Z</time>
      </trkpt>
      <trkpt lat="44.16192" lon="3.67174">
        <ele>489.93</ele>
        <time>2013-08-09T13:18:13Z</time>
      </trkpt>
      <trkpt lat="44.1619" lon="3.67188">
        <ele>488.49</ele>
        <time>2013-08-09T13:18:14Z</time>
      </trkpt>
      <trkpt lat="44.1619" lon="3.67203">
        <ele>488.01</ele>
        <time>2013-08-09T13:18:15Z</time>
      </trkpt>
      <trkpt lat="44.16187" lon="3.67221">
        <ele>487.53</ele>
        <time>2013-08-09T13:18:16Z</time>
      </trkpt>
      <trkpt lat="44.16182" lon="3.67238">
        <ele>486.56</ele>
        <time>2013-08-09T13:18:17Z</time>
      </trkpt>
      <trkpt lat="44.16174" lon="3.67256">
        <ele>485.12</ele>
        <time>2013-08-09T13:18:18Z</time>
      </trkpt>
      <trkpt lat="44.16163" lon="3.67273">
        <ele>484.16</ele>
        <time>2013-08-09T13:18:19Z</time>
      </trkpt>
      <trkpt lat="44.16154" lon="3.6729">
        <ele>483.2</ele>
        <time>2013-08-09T13:18:20Z</time>
      </trkpt>
      <trkpt lat="44.1611" lon="3.67362">
        <ele>481.28</ele>
        <time>2013-08-09T13:18:25Z</time>
      </trkpt>
      <trkpt lat="44.16099" lon="3.67371">
        <ele>480.8</ele>
        <time>2013-08-09T13:18:26Z</time>
      </trkpt>
      <trkpt lat="44.16087" lon="3.67379">
        <ele>480.8</ele>
        <time>2013-08-09T13:18:27Z</time>
      </trkpt>
      <trkpt lat="44.16075" lon="3.67385">
        <ele>480.8</ele>
        <time>2013-08-09T13:18:28Z</time>
      </trkpt>
      <trkpt lat="44.16062" lon="3.6739">
        <ele>480.32</ele>
        <time>2013-08-09T13:18:29Z</time>
      </trkpt>
      <trkpt lat="44.16049" lon="3.67393">
        <ele>480.32</ele>
        <time>2013-08-09T13:18:30Z</time>
      </trkpt>
      <trkpt lat="44.16035" lon="3.67395">
        <ele>480.32</ele>
        <time>2013-08-09T13:18:31Z</time>
      </trkpt>
      <trkpt lat="44.1601" lon="3.674">
        <ele>479.84</ele>
        <time>2013-08-09T13:18:33Z</time>
      </trkpt>
      <trkpt lat="44.15998" lon="3.67406">
        <ele>479.84</ele>
        <time>2013-08-09T13:18:34Z</time>
      </trkpt>
      <trkpt lat="44.15987" lon="3.67415">
        <ele>479.84</ele>
        <time>2013-08-09T13:18:35Z</time>
      </trkpt>
      <trkpt lat="44.15978" lon="3.67426">
        <ele>479.35</ele>
        <time>2013-08-09T13:18:36Z</time>
      </trkpt>
      <trkpt lat="44.1597" lon="3.67441">
        <ele>479.35</ele>
        <time>2013-08-09T13:18:37Z</time>
      </trkpt>
      <trkpt lat="44.15964" lon="3.67458">
        <ele>479.35</ele>
        <time>2013-08-09T13:18:38Z</time>
      </trkpt>
      <trkpt lat="44.15958" lon="3.67477">
        <ele>479.35</ele>
        <time>2013-08-09T13:18:39Z</time>
      </trkpt>
      <trkpt lat="44.15894" lon="3.67631">
        <ele>466.38</ele>
        <time>2013-08-09T13:18:50Z</time>
      </trkpt>
      <trkpt lat="44.15882" lon="3.67656">
        <ele>464.93</ele>
        <time>2013-08-09T13:18:52Z</time>
      </trkpt>
      <trkpt lat="44.15873" lon="3.67668">
        <ele>463.97</ele>
        <time>2013-08-09T13:18:53Z</time>
      </trkpt>
      <trkpt lat="44.15863" lon="3.67679">
        <ele>463.49</ele>
        <time>2013-08-09T13:18:54Z</time>
      </trkpt>
      <trkpt lat="44.15785" lon="3.67795">
        <ele>459.17</ele>
        <time>2013-08-09T13:19:04Z</time>
      </trkpt>
      <trkpt lat="44.15759" lon="3.67878">
        <ele>453.88</ele>
        <time>2013-08-09T13:19:12Z</time>
      </trkpt>
      <trkpt lat="44.15736" lon="3.67968">
        <ele>450.52</ele>
        <time>2013-08-09T13:19:24Z</time>
      </trkpt>
      <trkpt lat="44.157" lon="3.6809">
        <ele>443.79</ele>
        <time>2013-08-09T13:19:37Z</time>
      </trkpt>
      <trkpt lat="44.15698" lon="3.68099">
        <ele>443.31</ele>
        <time>2013-08-09T13:19:38Z</time>
      </trkpt>
      <trkpt lat="44.15684" lon="3.68143">
        <ele>440.42</ele>
        <time>2013-08-09T13:19:43Z</time>
      </trkpt>
      <trkpt lat="44.15681" lon="3.68151">
        <ele>439.46</ele>
        <time>2013-08-09T13:19:44Z</time>
      </trkpt>
      <trkpt lat="44.15676" lon="3.68158">
        <ele>438.98</ele>
        <time>2013-08-09T13:19:45Z</time>
      </trkpt>
      <trkpt lat="44.15671" lon="3.68164">
        <ele>438.98</ele>
        <time>2013-08-09T13:19:46Z</time>
      </trkpt>
      <trkpt lat="44.15666" lon="3.68169">
        <ele>438.98</ele>
        <time>2013-08-09T13:19:47Z</time>
      </trkpt>
      <trkpt lat="44.15662" lon="3.68173">
        <ele>438.98</ele>
        <time>2013-08-09T13:19:48Z</time>
      </trkpt>
      <trkpt lat="44.15651" lon="3.68195">
        <ele>438.5</ele>
        <time>2013-08-09T13:19:53Z</time>
      </trkpt>
      <trkpt lat="44.15651" lon="3.68202">
        <ele>438.98</ele>
        <time>2013-08-09T13:19:54Z</time>
      </trkpt>
      <trkpt lat="44.15651" lon="3.6821">
        <ele>440.42</ele>
        <time>2013-08-09T13:19:55Z</time>
      </trkpt>
      <trkpt lat="44.15652" lon="3.68216">
        <ele>440.9</ele>
        <time>2013-08-09T13:19:56Z</time>
      </trkpt>
      <trkpt lat="44.15652" lon="3.68223">
        <ele>440.42</ele>
        <time>2013-08-09T13:19:57Z</time>
      </trkpt>
      <trkpt lat="44.1565" lon="3.68229">
        <ele>440.42</ele>
        <time>2013-08-09T13:19:58Z</time>
      </trkpt>
      <trkpt lat="44.15647" lon="3.68235">
        <ele>440.42</ele>
        <time>2013-08-09T13:19:59Z</time>
      </trkpt>
      <trkpt lat="44.15643" lon="3.68244">
        <ele>439.94</ele>
        <time>2013-08-09T13:20:00Z</time>
      </trkpt>
      <trkpt lat="44.15638" lon="3.68251">
        <ele>439.94</ele>
        <time>2013-08-09T13:20:01Z</time>
      </trkpt>
      <trkpt lat="44.15634" lon="3.68258">
        <ele>439.94</ele>
        <time>2013-08-09T13:20:02Z</time>
      </trkpt>
      <trkpt lat="44.15581" lon="3.68353">
        <ele>432.73</ele>
        <time>2013-08-09T13:20:15Z</time>
      </trkpt>
      <trkpt lat="44.15569" lon="3.68369">
        <ele>431.77</ele>
        <time>2013-08-09T13:20:18Z</time>
      </trkpt>
      <trkpt lat="44.15566" lon="3.68377">
        <ele>432.25</ele>
        <time>2013-08-09T13:20:19Z</time>
      </trkpt>
      <trkpt lat="44.15563" lon="3.68397">
        <ele>433.69</ele>
        <time>2013-08-09T13:20:21Z</time>
      </trkpt>
      <trkpt lat="44.15556" lon="3.6843">
        <ele>433.21</ele>
        <time>2013-08-09T13:20:24Z</time>
      </trkpt>
      <trkpt lat="44.1555" lon="3.68441">
        <ele>435.13</ele>
        <time>2013-08-09T13:20:25Z</time>
      </trkpt>
      <trkpt lat="44.15534" lon="3.68485">
        <ele>432.73</ele>
        <time>2013-08-09T13:20:29Z</time>
      </trkpt>
      <trkpt lat="44.15501" lon="3.68614">
        <ele>432.73</ele>
        <time>2013-08-09T13:20:40Z</time>
      </trkpt>
      <trkpt lat="44.15444" lon="3.68754">
        <ele>432.73</ele>
        <time>2013-08-09T13:20:51Z</time>
      </trkpt>
      <trkpt lat="44.15388" lon="3.68837">
        <ele>438.02</ele>
        <time>2013-08-09T13:20:59Z</time>
      </trkpt>
      <trkpt lat="44.15378" lon="3.68845">
        <ele>438.02</ele>
        <time>2013-08-09T13:21:00Z</time>
      </trkpt>
      <trkpt lat="44.15327" lon="3.68879">
        <ele>439.94</ele>
        <time>2013-08-09T13:21:07Z</time>
      </trkpt>
      <trkpt lat="44.15252" lon="3.68929">
        <ele>436.58</ele>
        <time>2013-08-09T13:21:17Z</time>
      </trkpt>
      <trkpt lat="44.15245" lon="3.68937">
        <ele>435.13</ele>
        <time>2013-08-09T13:21:18Z</time>
      </trkpt>
      <trkpt lat="44.15238" lon="3.68946">
        <ele>434.17</ele>
        <time>2013-08-09T13:21:19Z</time>
      </trkpt>
      <trkpt lat="44.15233" lon="3.68958">
        <ele>433.69</ele>
        <time>2013-08-09T13:21:20Z</time>
      </trkpt>
      <trkpt lat="44.15229" lon="3.6897">
        <ele>432.73</ele>
        <time>2013-08-09T13:21:21Z</time>
      </trkpt>
      <trkpt lat="44.15224" lon="3.68983">
        <ele>434.17</ele>
        <time>2013-08-09T13:21:22Z</time>
      </trkpt>
      <trkpt lat="44.15218" lon="3.68995">
        <ele>436.1</ele>
        <time>2013-08-09T13:21:23Z</time>
      </trkpt>
      <trkpt lat="44.15212" lon="3.69006">
        <ele>435.61</ele>
        <time>2013-08-09T13:21:24Z</time>
      </trkpt>
      <trkpt lat="44.15204" lon="3.69016">
        <ele>435.61</ele>
        <time>2013-08-09T13:21:25Z</time>
      </trkpt>
      <trkpt lat="44.15194" lon="3.69023">
        <ele>435.13</ele>
        <time>2013-08-09T13:21:26Z</time>
      </trkpt>
      <trkpt lat="44.15184" lon="3.69029">
        <ele>434.65</ele>
        <time>2013-08-09T13:21:27Z</time>
      </trkpt>
      <trkpt lat="44.15172" lon="3.69032">
        <ele>434.65</ele>
        <time>2013-08-09T13:21:28Z</time>
      </trkpt>
      <trkpt lat="44.1516" lon="3.69031">
        <ele>434.65</ele>
        <time>2013-08-09T13:21:29Z</time>
      </trkpt>
      <trkpt lat="44.15148" lon="3.69027">
        <ele>434.17</ele>
        <time>2013-08-09T13:21:30Z</time>
      </trkpt>
      <trkpt lat="44.15136" lon="3.69022">
        <ele>434.65</ele>
        <time>2013-08-09T13:21:31Z</time>
      </trkpt>
      <trkpt lat="44.15072" lon="3.68994">
        <ele>434.17</ele>
        <time>2013-08-09T13:21:37Z</time>
      </trkpt>
      <trkpt lat="44.15039" lon="3.68996">
        <ele>432.25</ele>
        <time>2013-08-09T13:21:40Z</time>
      </trkpt>
      <trkpt lat="44.15028" lon="3.69006">
        <ele>431.29</ele>
        <time>2013-08-09T13:21:41Z</time>
      </trkpt>
      <trkpt lat="44.14986" lon="3.69044">
        <ele>429.37</ele>
        <time>2013-08-09T13:21:45Z</time>
      </trkpt>
      <trkpt lat="44.14975" lon="3.69058">
        <ele>428.4</ele>
        <time>2013-08-09T13:21:46Z</time>
      </trkpt>
      <trkpt lat="44.14963" lon="3.69078">
        <ele>430.33</ele>
        <time>2013-08-09T13:21:47Z</time>
      </trkpt>
      <trkpt lat="44.14896" lon="3.69189">
        <ele>430.33</ele>
        <time>2013-08-09T13:21:53Z</time>
      </trkpt>
      <trkpt lat="44.14889" lon="3.69207">
        <ele>428.89</ele>
        <time>2013-08-09T13:21:54Z</time>
      </trkpt>
      <trkpt lat="44.14883" lon="3.69228">
        <ele>428.89</ele>
        <time>2013-08-09T13:21:55Z</time>
      </trkpt>
      <trkpt lat="44.14879" lon="3.69251">
        <ele>428.4</ele>
        <time>2013-08-09T13:21:56Z</time>
      </trkpt>
      <trkpt lat="44.14876" lon="3.69276">
        <ele>427.92</ele>
        <time>2013-08-09T13:21:57Z</time>
      </trkpt>
      <trkpt lat="44.14875" lon="3.69303">
        <ele>427.44</ele>
        <time>2013-08-09T13:21:58Z</time>
      </trkpt>
      <trkpt lat="44.14875" lon="3.69329">
        <ele>426</ele>
        <time>2013-08-09T13:21:59Z</time>
      </trkpt>
      <trkpt lat="44.14869" lon="3.69411">
        <ele>422.64</ele>
        <time>2013-08-09T13:22:02Z</time>
      </trkpt>
      <trkpt lat="44.14861" lon="3.69437">
        <ele>421.68</ele>
        <time>2013-08-09T13:22:03Z</time>
      </trkpt>
      <trkpt lat="44.14851" lon="3.69463">
        <ele>420.71</ele>
        <time>2013-08-09T13:22:04Z</time>
      </trkpt>
      <trkpt lat="44.14839" lon="3.69489">
        <ele>420.23</ele>
        <time>2013-08-09T13:22:05Z</time>
      </trkpt>
      <trkpt lat="44.14826" lon="3.69514">
        <ele>419.27</ele>
        <time>2013-08-09T13:22:06Z</time>
      </trkpt>
      <trkpt lat="44.14811" lon="3.69537">
        <ele>419.27</ele>
        <time>2013-08-09T13:22:07Z</time>
      </trkpt>
      <trkpt lat="44.14793" lon="3.6956">
        <ele>419.27</ele>
        <time>2013-08-09T13:22:08Z</time>
      </trkpt>
      <trkpt lat="44.14775" lon="3.69582">
        <ele>418.31</ele>
        <time>2013-08-09T13:22:09Z</time>
      </trkpt>
      <trkpt lat="44.14634" lon="3.69788">
        <ele>415.43</ele>
        <time>2013-08-09T13:22:17Z</time>
      </trkpt>
      <trkpt lat="44.14536" lon="3.69943">
        <ele>416.39</ele>
        <time>2013-08-09T13:22:24Z</time>
      </trkpt>
      <trkpt lat="44.14521" lon="3.69948">
        <ele>416.87</ele>
        <time>2013-08-09T13:22:25Z</time>
      </trkpt>
      <trkpt lat="44.14507" lon="3.69952">
        <ele>416.87</ele>
        <time>2013-08-09T13:22:26Z</time>
      </trkpt>
      <trkpt lat="44.1449" lon="3.69952">
        <ele>417.83</ele>
        <time>2013-08-09T13:22:27Z</time>
      </trkpt>
      <trkpt lat="44.14474" lon="3.69954">
        <ele>419.27</ele>
        <time>2013-08-09T13:22:28Z</time>
      </trkpt>
      <trkpt lat="44.14446" lon="3.69953">
        <ele>421.19</ele>
        <time>2013-08-09T13:22:30Z</time>
      </trkpt>
      <trkpt lat="44.14433" lon="3.69949">
        <ele>421.19</ele>
        <time>2013-08-09T13:22:31Z</time>
      </trkpt>
      <trkpt lat="44.1442" lon="3.69941">
        <ele>420.71</ele>
        <time>2013-08-09T13:22:32Z</time>
      </trkpt>
      <trkpt lat="44.14408" lon="3.69929">
        <ele>420.71</ele>
        <time>2013-08-09T13:22:33Z</time>
      </trkpt>
      <trkpt lat="44.14398" lon="3.69914">
        <ele>420.71</ele>
        <time>2013-08-09T13:22:34Z</time>
      </trkpt>
      <trkpt lat="44.1439" lon="3.69896">
        <ele>421.19</ele>
        <time>2013-08-09T13:22:35Z</time>
      </trkpt>
      <trkpt lat="44.14384" lon="3.69879">
        <ele>421.19</ele>
        <time>2013-08-09T13:22:36Z</time>
      </trkpt>
      <trkpt lat="44.14378" lon="3.69864">
        <ele>422.16</ele>
        <time>2013-08-09T13:22:37Z</time>
      </trkpt>
      <trkpt lat="44.14368" lon="3.69858">
        <ele>422.16</ele>
        <time>2013-08-09T13:22:38Z</time>
      </trkpt>
      <trkpt lat="44.14355" lon="3.69858">
        <ele>423.12</ele>
        <time>2013-08-09T13:22:39Z</time>
      </trkpt>
      <trkpt lat="44.14342" lon="3.6986">
        <ele>422.64</ele>
        <time>2013-08-09T13:22:40Z</time>
      </trkpt>
      <trkpt lat="44.14327" lon="3.69863">
        <ele>421.19</ele>
        <time>2013-08-09T13:22:41Z</time>
      </trkpt>
      <trkpt lat="44.1431" lon="3.6987">
        <ele>420.71</ele>
        <time>2013-08-09T13:22:42Z</time>
      </trkpt>
      <trkpt lat="44.14292" lon="3.69882">
        <ele>420.23</ele>
        <time>2013-08-09T13:22:43Z</time>
      </trkpt>
      <trkpt lat="44.14275" lon="3.69894">
        <ele>419.27</ele>
        <time>2013-08-09T13:22:44Z</time>
      </trkpt>
      <trkpt lat="44.1426" lon="3.69907">
        <ele>418.79</ele>
        <time>2013-08-09T13:22:45Z</time>
      </trkpt>
      <trkpt lat="44.14249" lon="3.69927">
        <ele>417.83</ele>
        <time>2013-08-09T13:22:46Z</time>
      </trkpt>
      <trkpt lat="44.14241" lon="3.69951">
        <ele>417.35</ele>
        <time>2013-08-09T13:22:47Z</time>
      </trkpt>
      <trkpt lat="44.14234" lon="3.69977">
        <ele>417.35</ele>
        <time>2013-08-09T13:22:48Z</time>
      </trkpt>
      <trkpt lat="44.14228" lon="3.70005">
        <ele>417.35</ele>
        <time>2013-08-09T13:22:49Z</time>
      </trkpt>
      <trkpt lat="44.14222" lon="3.70032">
        <ele>417.35</ele>
        <time>2013-08-09T13:22:50Z</time>
      </trkpt>
      <trkpt lat="44.14209" lon="3.70098">
        <ele>416.87</ele>
        <time>2013-08-09T13:22:53Z</time>
      </trkpt>
      <trkpt lat="44.14209" lon="3.70118">
        <ele>416.87</ele>
        <time>2013-08-09T13:22:54Z</time>
      </trkpt>
      <trkpt lat="44.14214" lon="3.7014">
        <ele>416.87</ele>
        <time>2013-08-09T13:22:55Z</time>
      </trkpt>
      <trkpt lat="44.14219" lon="3.70162">
        <ele>417.83</ele>
        <time>2013-08-09T13:22:56Z</time>
      </trkpt>
      <trkpt lat="44.14225" lon="3.70178">
        <ele>417.83</ele>
        <time>2013-08-09T13:22:57Z</time>
      </trkpt>
      <trkpt lat="44.14225" lon="3.70207">
        <ele>417.35</ele>
        <time>2013-08-09T13:22:59Z</time>
      </trkpt>
      <trkpt lat="44.1422" lon="3.70223">
        <ele>417.83</ele>
        <time>2013-08-09T13:23:00Z</time>
      </trkpt>
      <trkpt lat="44.1421" lon="3.70239">
        <ele>417.35</ele>
        <time>2013-08-09T13:23:01Z</time>
      </trkpt>
      <trkpt lat="44.142" lon="3.70255">
        <ele>416.87</ele>
        <time>2013-08-09T13:23:02Z</time>
      </trkpt>
      <trkpt lat="44.14188" lon="3.70269">
        <ele>415.91</ele>
        <time>2013-08-09T13:23:03Z</time>
      </trkpt>
      <trkpt lat="44.14173" lon="3.70277">
        <ele>415.43</ele>
        <time>2013-08-09T13:23:04Z</time>
      </trkpt>
      <trkpt lat="44.14156" lon="3.70285">
        <ele>416.87</ele>
        <time>2013-08-09T13:23:05Z</time>
      </trkpt>
      <trkpt lat="44.14138" lon="3.7029">
        <ele>416.87</ele>
        <time>2013-08-09T13:23:06Z</time>
      </trkpt>
      <trkpt lat="44.14122" lon="3.70296">
        <ele>417.35</ele>
        <time>2013-08-09T13:23:07Z</time>
      </trkpt>
      <trkpt lat="44.14106" lon="3.70304">
        <ele>416.87</ele>
        <time>2013-08-09T13:23:08Z</time>
      </trkpt>
      <trkpt lat="44.14092" lon="3.70315">
        <ele>415.91</ele>
        <time>2013-08-09T13:23:09Z</time>
      </trkpt>
      <trkpt lat="44.14078" lon="3.70333">
        <ele>415.43</ele>
        <time>2013-08-09T13:23:10Z</time>
      </trkpt>
      <trkpt lat="44.14062" lon="3.70356">
        <ele>415.91</ele>
        <time>2013-08-09T13:23:11Z</time>
      </trkpt>
      <trkpt lat="44.14048" lon="3.70379">
        <ele>415.91</ele>
        <time>2013-08-09T13:23:12Z</time>
      </trkpt>
      <trkpt lat="44.14034" lon="3.70402">
        <ele>415.43</ele>
        <time>2013-08-09T13:23:13Z</time>
      </trkpt>
      <trkpt lat="44.13929" lon="3.70624">
        <ele>414.47</ele>
        <time>2013-08-09T13:23:22Z</time>
      </trkpt>
      <trkpt lat="44.13928" lon="3.70649">
        <ele>413.98</ele>
        <time>2013-08-09T13:23:23Z</time>
      </trkpt>
      <trkpt lat="44.13929" lon="3.70675">
        <ele>413.98</ele>
        <time>2013-08-09T13:23:24Z</time>
      </trkpt>
      <trkpt lat="44.13932" lon="3.70701">
        <ele>412.06</ele>
        <time>2013-08-09T13:23:25Z</time>
      </trkpt>
      <trkpt lat="44.13937" lon="3.70728">
        <ele>410.62</ele>
        <time>2013-08-09T13:23:26Z</time>
      </trkpt>
      <trkpt lat="44.13948" lon="3.70792">
        <ele>407.26</ele>
        <time>2013-08-09T13:23:29Z</time>
      </trkpt>
      <trkpt lat="44.13957" lon="3.70807">
        <ele>405.33</ele>
        <time>2013-08-09T13:23:30Z</time>
      </trkpt>
      <trkpt lat="44.13966" lon="3.70826">
        <ele>404.85</ele>
        <time>2013-08-09T13:23:31Z</time>
      </trkpt>
      <trkpt lat="44.13977" lon="3.70846">
        <ele>405.33</ele>
        <time>2013-08-09T13:23:32Z</time>
      </trkpt>
      <trkpt lat="44.1399" lon="3.70869">
        <ele>404.85</ele>
        <time>2013-08-09T13:23:33Z</time>
      </trkpt>
      <trkpt lat="44.14053" lon="3.71048">
        <ele>400.53</ele>
        <time>2013-08-09T13:23:40Z</time>
      </trkpt>
      <trkpt lat="44.14056" lon="3.71075">
        <ele>400.05</ele>
        <time>2013-08-09T13:23:41Z</time>
      </trkpt>
      <trkpt lat="44.14055" lon="3.71103">
        <ele>400.05</ele>
        <time>2013-08-09T13:23:42Z</time>
      </trkpt>
      <trkpt lat="44.14054" lon="3.71132">
        <ele>397.64</ele>
        <time>2013-08-09T13:23:43Z</time>
      </trkpt>
      <trkpt lat="44.14052" lon="3.71163">
        <ele>397.64</ele>
        <time>2013-08-09T13:23:44Z</time>
      </trkpt>
      <trkpt lat="44.14031" lon="3.71444">
        <ele>391.39</ele>
        <time>2013-08-09T13:23:53Z</time>
      </trkpt>
      <trkpt lat="44.14027" lon="3.717">
        <ele>389.95</ele>
        <time>2013-08-09T13:24:01Z</time>
      </trkpt>
      <trkpt lat="44.14041" lon="3.71813">
        <ele>389.47</ele>
        <time>2013-08-09T13:24:05Z</time>
      </trkpt>
      <trkpt lat="44.14039" lon="3.71839">
        <ele>389.47</ele>
        <time>2013-08-09T13:24:06Z</time>
      </trkpt>
      <trkpt lat="44.14033" lon="3.71865">
        <ele>389.47</ele>
        <time>2013-08-09T13:24:07Z</time>
      </trkpt>
      <trkpt lat="44.14024" lon="3.71893">
        <ele>389.47</ele>
        <time>2013-08-09T13:24:08Z</time>
      </trkpt>
      <trkpt lat="44.14013" lon="3.71922">
        <ele>389.47</ele>
        <time>2013-08-09T13:24:09Z</time>
      </trkpt>
      <trkpt lat="44.14002" lon="3.71952">
        <ele>389.47</ele>
        <time>2013-08-09T13:24:10Z</time>
      </trkpt>
      <trkpt lat="44.13937" lon="3.72142">
        <ele>386.59</ele>
        <time>2013-08-09T13:24:17Z</time>
      </trkpt>
      <trkpt lat="44.13926" lon="3.72183">
        <ele>386.11</ele>
        <time>2013-08-09T13:24:19Z</time>
      </trkpt>
      <trkpt lat="44.13923" lon="3.72205">
        <ele>385.63</ele>
        <time>2013-08-09T13:24:20Z</time>
      </trkpt>
      <trkpt lat="44.13927" lon="3.72229">
        <ele>384.66</ele>
        <time>2013-08-09T13:24:21Z</time>
      </trkpt>
      <trkpt lat="44.13931" lon="3.72257">
        <ele>385.15</ele>
        <time>2013-08-09T13:24:22Z</time>
      </trkpt>
      <trkpt lat="44.13938" lon="3.72285">
        <ele>385.63</ele>
        <time>2013-08-09T13:24:23Z</time>
      </trkpt>
      <trkpt lat="44.13952" lon="3.72312">
        <ele>386.11</ele>
        <time>2013-08-09T13:24:24Z</time>
      </trkpt>
      <trkpt lat="44.13963" lon="3.7234">
        <ele>386.11</ele>
        <time>2013-08-09T13:24:25Z</time>
      </trkpt>
      <trkpt lat="44.14" lon="3.72495">
        <ele>385.15</ele>
        <time>2013-08-09T13:24:31Z</time>
      </trkpt>
      <trkpt lat="44.13998" lon="3.72524">
        <ele>384.18</ele>
        <time>2013-08-09T13:24:32Z</time>
      </trkpt>
      <trkpt lat="44.13994" lon="3.72552">
        <ele>382.74</ele>
        <time>2013-08-09T13:24:33Z</time>
      </trkpt>
      <trkpt lat="44.13991" lon="3.72651">
        <ele>376.97</ele>
        <time>2013-08-09T13:24:37Z</time>
      </trkpt>
      <trkpt lat="44.13993" lon="3.72677">
        <ele>378.42</ele>
        <time>2013-08-09T13:24:38Z</time>
      </trkpt>
      <trkpt lat="44.14031" lon="3.72903">
        <ele>383.22</ele>
        <time>2013-08-09T13:24:46Z</time>
      </trkpt>
      <trkpt lat="44.14045" lon="3.72967">
        <ele>382.26</ele>
        <time>2013-08-09T13:24:49Z</time>
      </trkpt>
      <trkpt lat="44.14053" lon="3.72981">
        <ele>382.74</ele>
        <time>2013-08-09T13:24:50Z</time>
      </trkpt>
      <trkpt lat="44.14063" lon="3.72993">
        <ele>383.22</ele>
        <time>2013-08-09T13:24:51Z</time>
      </trkpt>
      <trkpt lat="44.14075" lon="3.73004">
        <ele>384.18</ele>
        <time>2013-08-09T13:24:52Z</time>
      </trkpt>
      <trkpt lat="44.14091" lon="3.73011">
        <ele>384.66</ele>
        <time>2013-08-09T13:24:53Z</time>
      </trkpt>
      <trkpt lat="44.14105" lon="3.73021">
        <ele>384.66</ele>
        <time>2013-08-09T13:24:54Z</time>
      </trkpt>
      <trkpt lat="44.14139" lon="3.73058">
        <ele>384.66</ele>
        <time>2013-08-09T13:24:57Z</time>
      </trkpt>
      <trkpt lat="44.14145" lon="3.73076">
        <ele>384.66</ele>
        <time>2013-08-09T13:24:58Z</time>
      </trkpt>
      <trkpt lat="44.14147" lon="3.73096">
        <ele>384.18</ele>
        <time>2013-08-09T13:24:59Z</time>
      </trkpt>
      <trkpt lat="44.14146" lon="3.73117">
        <ele>384.18</ele>
        <time>2013-08-09T13:25:00Z</time>
      </trkpt>
      <trkpt lat="44.14142" lon="3.73136">
        <ele>383.7</ele>
        <time>2013-08-09T13:25:01Z</time>
      </trkpt>
      <trkpt lat="44.14133" lon="3.73155">
        <ele>383.22</ele>
        <time>2013-08-09T13:25:02Z</time>
      </trkpt>
      <trkpt lat="44.14119" lon="3.73172">
        <ele>382.26</ele>
        <time>2013-08-09T13:25:03Z</time>
      </trkpt>
      <trkpt lat="44.14102" lon="3.73188">
        <ele>381.78</ele>
        <time>2013-08-09T13:25:04Z</time>
      </trkpt>
      <trkpt lat="44.14081" lon="3.73202">
        <ele>379.86</ele>
        <time>2013-08-09T13:25:05Z</time>
      </trkpt>
      <trkpt lat="44.14063" lon="3.73217">
        <ele>377.94</ele>
        <time>2013-08-09T13:25:06Z</time>
      </trkpt>
      <trkpt lat="44.13914" lon="3.73309">
        <ele>373.13</ele>
        <time>2013-08-09T13:25:14Z</time>
      </trkpt>
      <trkpt lat="44.13852" lon="3.7335">
        <ele>372.17</ele>
        <time>2013-08-09T13:25:18Z</time>
      </trkpt>
      <trkpt lat="44.13842" lon="3.73367">
        <ele>371.69</ele>
        <time>2013-08-09T13:25:19Z</time>
      </trkpt>
      <trkpt lat="44.13835" lon="3.73389">
        <ele>371.21</ele>
        <time>2013-08-09T13:25:20Z</time>
      </trkpt>
      <trkpt lat="44.13784" lon="3.73556">
        <ele>370.24</ele>
        <time>2013-08-09T13:25:26Z</time>
      </trkpt>
      <trkpt lat="44.13717" lon="3.73705">
        <ele>367.84</ele>
        <time>2013-08-09T13:25:32Z</time>
      </trkpt>
      <trkpt lat="44.1371" lon="3.73732">
        <ele>367.36</ele>
        <time>2013-08-09T13:25:33Z</time>
      </trkpt>
      <trkpt lat="44.13705" lon="3.73759">
        <ele>366.88</ele>
        <time>2013-08-09T13:25:34Z</time>
      </trkpt>
      <trkpt lat="44.13702" lon="3.73786">
        <ele>366.4</ele>
        <time>2013-08-09T13:25:35Z</time>
      </trkpt>
      <trkpt lat="44.13701" lon="3.73815">
        <ele>365.92</ele>
        <time>2013-08-09T13:25:36Z</time>
      </trkpt>
      <trkpt lat="44.13703" lon="3.73845">
        <ele>364.48</ele>
        <time>2013-08-09T13:25:37Z</time>
      </trkpt>
      <trkpt lat="44.13706" lon="3.73877">
        <ele>364</ele>
        <time>2013-08-09T13:25:38Z</time>
      </trkpt>
      <trkpt lat="44.13749" lon="3.74158">
        <ele>364</ele>
        <time>2013-08-09T13:25:47Z</time>
      </trkpt>
      <trkpt lat="44.13762" lon="3.74218">
        <ele>364</ele>
        <time>2013-08-09T13:25:49Z</time>
      </trkpt>
      <trkpt lat="44.13771" lon="3.74246">
        <ele>364</ele>
        <time>2013-08-09T13:25:50Z</time>
      </trkpt>
      <trkpt lat="44.13821" lon="3.74413">
        <ele>365.44</ele>
        <time>2013-08-09T13:25:56Z</time>
      </trkpt>
      <trkpt lat="44.13822" lon="3.7444">
        <ele>365.44</ele>
        <time>2013-08-09T13:25:57Z</time>
      </trkpt>
      <trkpt lat="44.13822" lon="3.74467">
        <ele>364.96</ele>
        <time>2013-08-09T13:25:58Z</time>
      </trkpt>
      <trkpt lat="44.13819" lon="3.74495">
        <ele>364.48</ele>
        <time>2013-08-09T13:25:59Z</time>
      </trkpt>
      <trkpt lat="44.13815" lon="3.74524">
        <ele>364</ele>
        <time>2013-08-09T13:26:00Z</time>
      </trkpt>
      <trkpt lat="44.13804" lon="3.74727">
        <ele>362.55</ele>
        <time>2013-08-09T13:26:06Z</time>
      </trkpt>
      <trkpt lat="44.13777" lon="3.74964">
        <ele>361.11</ele>
        <time>2013-08-09T13:26:14Z</time>
      </trkpt>
      <trkpt lat="44.13756" lon="3.75047">
        <ele>360.15</ele>
        <time>2013-08-09T13:26:17Z</time>
      </trkpt>
      <trkpt lat="44.13745" lon="3.75073">
        <ele>360.15</ele>
        <time>2013-08-09T13:26:18Z</time>
      </trkpt>
      <trkpt lat="44.1367" lon="3.75225">
        <ele>358.71</ele>
        <time>2013-08-09T13:26:25Z</time>
      </trkpt>
      <trkpt lat="44.13606" lon="3.75301">
        <ele>360.63</ele>
        <time>2013-08-09T13:26:31Z</time>
      </trkpt>
      <trkpt lat="44.13607" lon="3.75332">
        <ele>365.44</ele>
        <time>2013-08-09T13:26:33Z</time>
      </trkpt>
      <trkpt lat="44.13611" lon="3.75348">
        <ele>366.4</ele>
        <time>2013-08-09T13:26:34Z</time>
      </trkpt>
      <trkpt lat="44.13618" lon="3.75363">
        <ele>367.36</ele>
        <time>2013-08-09T13:26:35Z</time>
      </trkpt>
      <trkpt lat="44.13629" lon="3.75376">
        <ele>368.8</ele>
        <time>2013-08-09T13:26:36Z</time>
      </trkpt>
      <trkpt lat="44.13643" lon="3.75389">
        <ele>370.24</ele>
        <time>2013-08-09T13:26:37Z</time>
      </trkpt>
      <trkpt lat="44.13661" lon="3.754">
        <ele>372.65</ele>
        <time>2013-08-09T13:26:38Z</time>
      </trkpt>
      <trkpt lat="44.1368" lon="3.75411">
        <ele>374.09</ele>
        <time>2013-08-09T13:26:39Z</time>
      </trkpt>
      <trkpt lat="44.13696" lon="3.75424">
        <ele>375.05</ele>
        <time>2013-08-09T13:26:40Z</time>
      </trkpt>
      <trkpt lat="44.13712" lon="3.75438">
        <ele>376.97</ele>
        <time>2013-08-09T13:26:41Z</time>
      </trkpt>
      <trkpt lat="44.13725" lon="3.75453">
        <ele>376.97</ele>
        <time>2013-08-09T13:26:42Z</time>
      </trkpt>
      <trkpt lat="44.13736" lon="3.75468">
        <ele>377.45</ele>
        <time>2013-08-09T13:26:43Z</time>
      </trkpt>
      <trkpt lat="44.13746" lon="3.75484">
        <ele>377.45</ele>
        <time>2013-08-09T13:26:44Z</time>
      </trkpt>
      <trkpt lat="44.13753" lon="3.75503">
        <ele>376.97</ele>
        <time>2013-08-09T13:26:45Z</time>
      </trkpt>
      <trkpt lat="44.13758" lon="3.75523">
        <ele>376.49</ele>
        <time>2013-08-09T13:26:46Z</time>
      </trkpt>
      <trkpt lat="44.1376" lon="3.75546">
        <ele>374.57</ele>
        <time>2013-08-09T13:26:47Z</time>
      </trkpt>
      <trkpt lat="44.13759" lon="3.7557">
        <ele>373.61</ele>
        <time>2013-08-09T13:26:48Z</time>
      </trkpt>
      <trkpt lat="44.13756" lon="3.75593">
        <ele>371.69</ele>
        <time>2013-08-09T13:26:49Z</time>
      </trkpt>
      <trkpt lat="44.1375" lon="3.75615">
        <ele>368.8</ele>
        <time>2013-08-09T13:26:50Z</time>
      </trkpt>
      <trkpt lat="44.13743" lon="3.7564">
        <ele>366.88</ele>
        <time>2013-08-09T13:26:51Z</time>
      </trkpt>
      <trkpt lat="44.13735" lon="3.75663">
        <ele>364.96</ele>
        <time>2013-08-09T13:26:52Z</time>
      </trkpt>
      <trkpt lat="44.13727" lon="3.75686">
        <ele>362.55</ele>
        <time>2013-08-09T13:26:53Z</time>
      </trkpt>
      <trkpt lat="44.13719" lon="3.75706">
        <ele>362.07</ele>
        <time>2013-08-09T13:26:54Z</time>
      </trkpt>
      <trkpt lat="44.13709" lon="3.75724">
        <ele>360.63</ele>
        <time>2013-08-09T13:26:55Z</time>
      </trkpt>
      <trkpt lat="44.13696" lon="3.75736">
        <ele>359.67</ele>
        <time>2013-08-09T13:26:56Z</time>
      </trkpt>
      <trkpt lat="44.1368" lon="3.75744">
        <ele>359.19</ele>
        <time>2013-08-09T13:26:57Z</time>
      </trkpt>
      <trkpt lat="44.13662" lon="3.75753">
        <ele>357.27</ele>
        <time>2013-08-09T13:26:58Z</time>
      </trkpt>
      <trkpt lat="44.13642" lon="3.7576">
        <ele>355.34</ele>
        <time>2013-08-09T13:26:59Z</time>
      </trkpt>
      <trkpt lat="44.13622" lon="3.75766">
        <ele>353.9</ele>
        <time>2013-08-09T13:27:00Z</time>
      </trkpt>
      <trkpt lat="44.13521" lon="3.75786">
        <ele>352.46</ele>
        <time>2013-08-09T13:27:06Z</time>
      </trkpt>
      <trkpt lat="44.13508" lon="3.75774">
        <ele>352.94</ele>
        <time>2013-08-09T13:27:07Z</time>
      </trkpt>
      <trkpt lat="44.13496" lon="3.75762">
        <ele>352.94</ele>
        <time>2013-08-09T13:27:08Z</time>
      </trkpt>
      <trkpt lat="44.13484" lon="3.75744">
        <ele>353.42</ele>
        <time>2013-08-09T13:27:09Z</time>
      </trkpt>
      <trkpt lat="44.13473" lon="3.75726">
        <ele>351.5</ele>
        <time>2013-08-09T13:27:10Z</time>
      </trkpt>
      <trkpt lat="44.13461" lon="3.75705">
        <ele>352.46</ele>
        <time>2013-08-09T13:27:11Z</time>
      </trkpt>
      <trkpt lat="44.13451" lon="3.75681">
        <ele>352.46</ele>
        <time>2013-08-09T13:27:12Z</time>
      </trkpt>
      <trkpt lat="44.13441" lon="3.75656">
        <ele>353.42</ele>
        <time>2013-08-09T13:27:13Z</time>
      </trkpt>
      <trkpt lat="44.1343" lon="3.75632">
        <ele>352.94</ele>
        <time>2013-08-09T13:27:14Z</time>
      </trkpt>
      <trkpt lat="44.13328" lon="3.75505">
        <ele>367.84</ele>
        <time>2013-08-09T13:27:21Z</time>
      </trkpt>
      <trkpt lat="44.1331" lon="3.75506">
        <ele>366.88</ele>
        <time>2013-08-09T13:27:22Z</time>
      </trkpt>
      <trkpt lat="44.13293" lon="3.75509">
        <ele>365.92</ele>
        <time>2013-08-09T13:27:23Z</time>
      </trkpt>
      <trkpt lat="44.13278" lon="3.75514">
        <ele>365.44</ele>
        <time>2013-08-09T13:27:24Z</time>
      </trkpt>
      <trkpt lat="44.13264" lon="3.75523">
        <ele>363.52</ele>
        <time>2013-08-09T13:27:25Z</time>
      </trkpt>
      <trkpt lat="44.13252" lon="3.75537">
        <ele>361.11</ele>
        <time>2013-08-09T13:27:26Z</time>
      </trkpt>
      <trkpt lat="44.13239" lon="3.75556">
        <ele>360.63</ele>
        <time>2013-08-09T13:27:27Z</time>
      </trkpt>
      <trkpt lat="44.13228" lon="3.75574">
        <ele>358.71</ele>
        <time>2013-08-09T13:27:28Z</time>
      </trkpt>
      <trkpt lat="44.13217" lon="3.75599">
        <ele>357.75</ele>
        <time>2013-08-09T13:27:29Z</time>
      </trkpt>
      <trkpt lat="44.13205" lon="3.75624">
        <ele>356.79</ele>
        <time>2013-08-09T13:27:30Z</time>
      </trkpt>
      <trkpt lat="44.13096" lon="3.75856">
        <ele>344.77</ele>
        <time>2013-08-09T13:27:39Z</time>
      </trkpt>
      <trkpt lat="44.13014" lon="3.76003">
        <ele>340.44</ele>
        <time>2013-08-09T13:27:46Z</time>
      </trkpt>
      <trkpt lat="44.12929" lon="3.76131">
        <ele>336.6</ele>
        <time>2013-08-09T13:27:53Z</time>
      </trkpt>
      <trkpt lat="44.12839" lon="3.76259">
        <ele>330.83</ele>
        <time>2013-08-09T13:28:00Z</time>
      </trkpt>
      <trkpt lat="44.12827" lon="3.76267">
        <ele>329.87</ele>
        <time>2013-08-09T13:28:01Z</time>
      </trkpt>
      <trkpt lat="44.12809" lon="3.76274">
        <ele>330.35</ele>
        <time>2013-08-09T13:28:02Z</time>
      </trkpt>
      <trkpt lat="44.12792" lon="3.76283">
        <ele>331.79</ele>
        <time>2013-08-09T13:28:03Z</time>
      </trkpt>
      <trkpt lat="44.12771" lon="3.76287">
        <ele>331.79</ele>
        <time>2013-08-09T13:28:04Z</time>
      </trkpt>
      <trkpt lat="44.12752" lon="3.76291">
        <ele>331.79</ele>
        <time>2013-08-09T13:28:05Z</time>
      </trkpt>
      <trkpt lat="44.12574" lon="3.76351">
        <ele>334.2</ele>
        <time>2013-08-09T13:28:14Z</time>
      </trkpt>
      <trkpt lat="44.12431" lon="3.76397">
        <ele>333.23</ele>
        <time>2013-08-09T13:28:22Z</time>
      </trkpt>
      <trkpt lat="44.12414" lon="3.76396">
        <ele>333.23</ele>
        <time>2013-08-09T13:28:23Z</time>
      </trkpt>
      <trkpt lat="44.12396" lon="3.76393">
        <ele>333.71</ele>
        <time>2013-08-09T13:28:24Z</time>
      </trkpt>
      <trkpt lat="44.12378" lon="3.76388">
        <ele>334.2</ele>
        <time>2013-08-09T13:28:25Z</time>
      </trkpt>
      <trkpt lat="44.12293" lon="3.76348">
        <ele>338.04</ele>
        <time>2013-08-09T13:28:30Z</time>
      </trkpt>
      <trkpt lat="44.12278" lon="3.76336">
        <ele>338.52</ele>
        <time>2013-08-09T13:28:31Z</time>
      </trkpt>
      <trkpt lat="44.12264" lon="3.7632">
        <ele>338.52</ele>
        <time>2013-08-09T13:28:32Z</time>
      </trkpt>
      <trkpt lat="44.12251" lon="3.76303">
        <ele>338.52</ele>
        <time>2013-08-09T13:28:33Z</time>
      </trkpt>
      <trkpt lat="44.1224" lon="3.76285">
        <ele>338.52</ele>
        <time>2013-08-09T13:28:34Z</time>
      </trkpt>
      <trkpt lat="44.12156" lon="3.76216">
        <ele>340.44</ele>
        <time>2013-08-09T13:28:40Z</time>
      </trkpt>
      <trkpt lat="44.12047" lon="3.76177">
        <ele>338.04</ele>
        <time>2013-08-09T13:28:48Z</time>
      </trkpt>
      <trkpt lat="44.12032" lon="3.76179">
        <ele>337.56</ele>
        <time>2013-08-09T13:28:49Z</time>
      </trkpt>
      <trkpt lat="44.12017" lon="3.76182">
        <ele>336.6</ele>
        <time>2013-08-09T13:28:50Z</time>
      </trkpt>
      <trkpt lat="44.11982" lon="3.76186">
        <ele>334.2</ele>
        <time>2013-08-09T13:28:53Z</time>
      </trkpt>
      <trkpt lat="44.11973" lon="3.76185">
        <ele>334.2</ele>
        <time>2013-08-09T13:28:54Z</time>
      </trkpt>
      <trkpt lat="44.11969" lon="3.76181">
        <ele>333.71</ele>
        <time>2013-08-09T13:28:55Z</time>
      </trkpt>
      <trkpt lat="44.11965" lon="3.76174">
        <ele>333.71</ele>
        <time>2013-08-09T13:28:56Z</time>
      </trkpt>
      <trkpt lat="44.11963" lon="3.76165">
        <ele>333.23</ele>
        <time>2013-08-09T13:28:57Z</time>
      </trkpt>
      <trkpt lat="44.11959" lon="3.76157">
        <ele>332.27</ele>
        <time>2013-08-09T13:28:58Z</time>
      </trkpt>
      <trkpt lat="44.11955" lon="3.76152">
        <ele>332.27</ele>
        <time>2013-08-09T13:28:59Z</time>
      </trkpt>
      <trkpt lat="44.11949" lon="3.76151">
        <ele>331.79</ele>
        <time>2013-08-09T13:29:00Z</time>
      </trkpt>
      <trkpt lat="44.11943" lon="3.76154">
        <ele>331.79</ele>
        <time>2013-08-09T13:29:01Z</time>
      </trkpt>
      <trkpt lat="44.11938" lon="3.76158">
        <ele>330.35</ele>
        <time>2013-08-09T13:29:02Z</time>
      </trkpt>
      <trkpt lat="44.11932" lon="3.76165">
        <ele>328.91</ele>
        <time>2013-08-09T13:29:03Z</time>
      </trkpt>
      <trkpt lat="44.11924" lon="3.76176">
        <ele>328.43</ele>
        <time>2013-08-09T13:29:04Z</time>
      </trkpt>
      <trkpt lat="44.11917" lon="3.76184">
        <ele>327.95</ele>
        <time>2013-08-09T13:29:05Z</time>
      </trkpt>
      <trkpt lat="44.11868" lon="3.76253">
        <ele>326.02</ele>
        <time>2013-08-09T13:29:12Z</time>
      </trkpt>
      <trkpt lat="44.11863" lon="3.76264">
        <ele>326.5</ele>
        <time>2013-08-09T13:29:13Z</time>
      </trkpt>
      <trkpt lat="44.11855" lon="3.76274">
        <ele>328.43</ele>
        <time>2013-08-09T13:29:14Z</time>
      </trkpt>
      <trkpt lat="44.11851" lon="3.76277">
        <ele>329.87</ele>
        <time>2013-08-09T13:29:15Z</time>
      </trkpt>
      <trkpt lat="44.11844" lon="3.76292">
        <ele>330.83</ele>
        <time>2013-08-09T13:29:17Z</time>
      </trkpt>
      <trkpt lat="44.11802" lon="3.76341">
        <ele>332.27</ele>
        <time>2013-08-09T13:29:24Z</time>
      </trkpt>
      <trkpt lat="44.11791" lon="3.7635">
        <ele>331.79</ele>
        <time>2013-08-09T13:29:25Z</time>
      </trkpt>
      <trkpt lat="44.11766" lon="3.7637">
        <ele>330.83</ele>
        <time>2013-08-09T13:29:27Z</time>
      </trkpt>
      <trkpt lat="44.11752" lon="3.76383">
        <ele>329.87</ele>
        <time>2013-08-09T13:29:28Z</time>
      </trkpt>
      <trkpt lat="44.11629" lon="3.76508">
        <ele>324.58</ele>
        <time>2013-08-09T13:29:37Z</time>
      </trkpt>
      <trkpt lat="44.11478" lon="3.76638">
        <ele>323.62</ele>
        <time>2013-08-09T13:29:48Z</time>
      </trkpt>
      <trkpt lat="44.11465" lon="3.76655">
        <ele>324.1</ele>
        <time>2013-08-09T13:29:49Z</time>
      </trkpt>
      <trkpt lat="44.11454" lon="3.76673">
        <ele>324.1</ele>
        <time>2013-08-09T13:29:50Z</time>
      </trkpt>
      <trkpt lat="44.11344" lon="3.76792">
        <ele>323.14</ele>
        <time>2013-08-09T13:29:58Z</time>
      </trkpt>
      <trkpt lat="44.11231" lon="3.76891">
        <ele>320.26</ele>
        <time>2013-08-09T13:30:06Z</time>
      </trkpt>
      <trkpt lat="44.11222" lon="3.76905">
        <ele>320.26</ele>
        <time>2013-08-09T13:30:07Z</time>
      </trkpt>
      <trkpt lat="44.11215" lon="3.76921">
        <ele>319.78</ele>
        <time>2013-08-09T13:30:08Z</time>
      </trkpt>
      <trkpt lat="44.1121" lon="3.76939">
        <ele>319.78</ele>
        <time>2013-08-09T13:30:09Z</time>
      </trkpt>
      <trkpt lat="44.11209" lon="3.76959">
        <ele>319.78</ele>
        <time>2013-08-09T13:30:10Z</time>
      </trkpt>
      <trkpt lat="44.1121" lon="3.76979">
        <ele>320.26</ele>
        <time>2013-08-09T13:30:11Z</time>
      </trkpt>
      <trkpt lat="44.11217" lon="3.77">
        <ele>321.22</ele>
        <time>2013-08-09T13:30:12Z</time>
      </trkpt>
      <trkpt lat="44.11224" lon="3.77022">
        <ele>320.74</ele>
        <time>2013-08-09T13:30:13Z</time>
      </trkpt>
      <trkpt lat="44.11233" lon="3.77044">
        <ele>321.22</ele>
        <time>2013-08-09T13:30:14Z</time>
      </trkpt>
      <trkpt lat="44.11305" lon="3.77233">
        <ele>322.66</ele>
        <time>2013-08-09T13:30:23Z</time>
      </trkpt>
      <trkpt lat="44.11316" lon="3.7725">
        <ele>323.14</ele>
        <time>2013-08-09T13:30:24Z</time>
      </trkpt>
      <trkpt lat="44.1133" lon="3.77264">
        <ele>323.14</ele>
        <time>2013-08-09T13:30:25Z</time>
      </trkpt>
      <trkpt lat="44.11345" lon="3.77275">
        <ele>322.66</ele>
        <time>2013-08-09T13:30:26Z</time>
      </trkpt>
      <trkpt lat="44.11363" lon="3.77278">
        <ele>322.18</ele>
        <time>2013-08-09T13:30:27Z</time>
      </trkpt>
      <trkpt lat="44.11384" lon="3.77275">
        <ele>323.14</ele>
        <time>2013-08-09T13:30:28Z</time>
      </trkpt>
      <trkpt lat="44.11404" lon="3.77273">
        <ele>323.62</ele>
        <time>2013-08-09T13:30:29Z</time>
      </trkpt>
      <trkpt lat="44.11425" lon="3.77271">
        <ele>323.62</ele>
        <time>2013-08-09T13:30:30Z</time>
      </trkpt>
      <trkpt lat="44.11446" lon="3.77265">
        <ele>322.18</ele>
        <time>2013-08-09T13:30:31Z</time>
      </trkpt>
      <trkpt lat="44.11467" lon="3.77259">
        <ele>321.7</ele>
        <time>2013-08-09T13:30:32Z</time>
      </trkpt>
      <trkpt lat="44.11614" lon="3.77221">
        <ele>317.85</ele>
        <time>2013-08-09T13:30:40Z</time>
      </trkpt>
      <trkpt lat="44.1163" lon="3.7722">
        <ele>316.41</ele>
        <time>2013-08-09T13:30:41Z</time>
      </trkpt>
      <trkpt lat="44.11644" lon="3.77222">
        <ele>316.89</ele>
        <time>2013-08-09T13:30:42Z</time>
      </trkpt>
      <trkpt lat="44.11658" lon="3.77227">
        <ele>317.85</ele>
        <time>2013-08-09T13:30:43Z</time>
      </trkpt>
      <trkpt lat="44.11671" lon="3.77235">
        <ele>318.33</ele>
        <time>2013-08-09T13:30:44Z</time>
      </trkpt>
      <trkpt lat="44.11681" lon="3.7725">
        <ele>319.3</ele>
        <time>2013-08-09T13:30:45Z</time>
      </trkpt>
      <trkpt lat="44.11686" lon="3.77269">
        <ele>318.81</ele>
        <time>2013-08-09T13:30:46Z</time>
      </trkpt>
      <trkpt lat="44.11686" lon="3.77291">
        <ele>319.78</ele>
        <time>2013-08-09T13:30:47Z</time>
      </trkpt>
      <trkpt lat="44.11686" lon="3.7731">
        <ele>318.81</ele>
        <time>2013-08-09T13:30:48Z</time>
      </trkpt>
      <trkpt lat="44.11683" lon="3.7733">
        <ele>317.85</ele>
        <time>2013-08-09T13:30:49Z</time>
      </trkpt>
      <trkpt lat="44.11674" lon="3.77347">
        <ele>317.85</ele>
        <time>2013-08-09T13:30:50Z</time>
      </trkpt>
      <trkpt lat="44.11664" lon="3.7736">
        <ele>315.93</ele>
        <time>2013-08-09T13:30:51Z</time>
      </trkpt>
      <trkpt lat="44.11651" lon="3.7737">
        <ele>315.45</ele>
        <time>2013-08-09T13:30:52Z</time>
      </trkpt>
      <trkpt lat="44.11633" lon="3.77378">
        <ele>314.01</ele>
        <time>2013-08-09T13:30:53Z</time>
      </trkpt>
      <trkpt lat="44.11614" lon="3.77385">
        <ele>314.97</ele>
        <time>2013-08-09T13:30:54Z</time>
      </trkpt>
      <trkpt lat="44.11595" lon="3.77392">
        <ele>315.93</ele>
        <time>2013-08-09T13:30:55Z</time>
      </trkpt>
      <trkpt lat="44.11412" lon="3.77475">
        <ele>313.05</ele>
        <time>2013-08-09T13:31:05Z</time>
      </trkpt>
      <trkpt lat="44.11292" lon="3.77571">
        <ele>320.74</ele>
        <time>2013-08-09T13:31:13Z</time>
      </trkpt>
      <trkpt lat="44.11282" lon="3.77586">
        <ele>320.26</ele>
        <time>2013-08-09T13:31:14Z</time>
      </trkpt>
      <trkpt lat="44.11274" lon="3.77603">
        <ele>320.74</ele>
        <time>2013-08-09T13:31:15Z</time>
      </trkpt>
      <trkpt lat="44.11266" lon="3.77619">
        <ele>320.74</ele>
        <time>2013-08-09T13:31:16Z</time>
      </trkpt>
      <trkpt lat="44.11245" lon="3.77673">
        <ele>325.54</ele>
        <time>2013-08-09T13:31:19Z</time>
      </trkpt>
      <trkpt lat="44.11241" lon="3.7769">
        <ele>324.1</ele>
        <time>2013-08-09T13:31:20Z</time>
      </trkpt>
      <trkpt lat="44.11239" lon="3.77709">
        <ele>322.66</ele>
        <time>2013-08-09T13:31:21Z</time>
      </trkpt>
      <trkpt lat="44.1124" lon="3.7773">
        <ele>321.7</ele>
        <time>2013-08-09T13:31:22Z</time>
      </trkpt>
      <trkpt lat="44.11243" lon="3.7775">
        <ele>322.66</ele>
        <time>2013-08-09T13:31:23Z</time>
      </trkpt>
      <trkpt lat="44.11246" lon="3.77768">
        <ele>322.66</ele>
        <time>2013-08-09T13:31:24Z</time>
      </trkpt>
      <trkpt lat="44.11251" lon="3.77785">
        <ele>324.1</ele>
        <time>2013-08-09T13:31:25Z</time>
      </trkpt>
      <trkpt lat="44.11258" lon="3.77799">
        <ele>323.14</ele>
        <time>2013-08-09T13:31:26Z</time>
      </trkpt>
      <trkpt lat="44.11264" lon="3.77813">
        <ele>322.66</ele>
        <time>2013-08-09T13:31:27Z</time>
      </trkpt>
      <trkpt lat="44.1127" lon="3.77827">
        <ele>323.14</ele>
        <time>2013-08-09T13:31:28Z</time>
      </trkpt>
      <trkpt lat="44.11272" lon="3.77842">
        <ele>323.62</ele>
        <time>2013-08-09T13:31:29Z</time>
      </trkpt>
      <trkpt lat="44.11272" lon="3.77857">
        <ele>323.14</ele>
        <time>2013-08-09T13:31:30Z</time>
      </trkpt>
      <trkpt lat="44.11267" lon="3.77875">
        <ele>322.18</ele>
        <time>2013-08-09T13:31:31Z</time>
      </trkpt>
      <trkpt lat="44.11261" lon="3.77895">
        <ele>322.18</ele>
        <time>2013-08-09T13:31:32Z</time>
      </trkpt>
      <trkpt lat="44.11253" lon="3.77917">
        <ele>321.7</ele>
        <time>2013-08-09T13:31:33Z</time>
      </trkpt>
      <trkpt lat="44.11243" lon="3.77939">
        <ele>321.22</ele>
        <time>2013-08-09T13:31:34Z</time>
      </trkpt>
      <trkpt lat="44.11233" lon="3.77959">
        <ele>320.74</ele>
        <time>2013-08-09T13:31:35Z</time>
      </trkpt>
      <trkpt lat="44.11221" lon="3.77979">
        <ele>321.22</ele>
        <time>2013-08-09T13:31:36Z</time>
      </trkpt>
      <trkpt lat="44.1121" lon="3.77996">
        <ele>321.22</ele>
        <time>2013-08-09T13:31:37Z</time>
      </trkpt>
      <trkpt lat="44.1117" lon="3.78061">
        <ele>318.33</ele>
        <time>2013-08-09T13:31:41Z</time>
      </trkpt>
      <trkpt lat="44.11165" lon="3.78077">
        <ele>316.89</ele>
        <time>2013-08-09T13:31:42Z</time>
      </trkpt>
      <trkpt lat="44.11164" lon="3.78095">
        <ele>315.93</ele>
        <time>2013-08-09T13:31:43Z</time>
      </trkpt>
      <trkpt lat="44.11165" lon="3.78112">
        <ele>314.97</ele>
        <time>2013-08-09T13:31:44Z</time>
      </trkpt>
      <trkpt lat="44.1117" lon="3.78129">
        <ele>314.97</ele>
        <time>2013-08-09T13:31:45Z</time>
      </trkpt>
      <trkpt lat="44.11175" lon="3.78145">
        <ele>315.45</ele>
        <time>2013-08-09T13:31:46Z</time>
      </trkpt>
      <trkpt lat="44.1118" lon="3.7816">
        <ele>314.97</ele>
        <time>2013-08-09T13:31:47Z</time>
      </trkpt>
      <trkpt lat="44.11184" lon="3.78174">
        <ele>314.49</ele>
        <time>2013-08-09T13:31:48Z</time>
      </trkpt>
      <trkpt lat="44.11185" lon="3.78188">
        <ele>314.49</ele>
        <time>2013-08-09T13:31:49Z</time>
      </trkpt>
      <trkpt lat="44.11182" lon="3.78202">
        <ele>313.53</ele>
        <time>2013-08-09T13:31:50Z</time>
      </trkpt>
      <trkpt lat="44.11177" lon="3.78214">
        <ele>314.01</ele>
        <time>2013-08-09T13:31:51Z</time>
      </trkpt>
      <trkpt lat="44.11169" lon="3.78222">
        <ele>314.01</ele>
        <time>2013-08-09T13:31:52Z</time>
      </trkpt>
      <trkpt lat="44.11158" lon="3.78228">
        <ele>313.53</ele>
        <time>2013-08-09T13:31:53Z</time>
      </trkpt>
      <trkpt lat="44.11144" lon="3.7823">
        <ele>313.05</ele>
        <time>2013-08-09T13:31:54Z</time>
      </trkpt>
      <trkpt lat="44.11127" lon="3.78232">
        <ele>313.05</ele>
        <time>2013-08-09T13:31:55Z</time>
      </trkpt>
      <trkpt lat="44.11111" lon="3.78233">
        <ele>313.53</ele>
        <time>2013-08-09T13:31:56Z</time>
      </trkpt>
      <trkpt lat="44.10983" lon="3.78245">
        <ele>312.09</ele>
        <time>2013-08-09T13:32:05Z</time>
      </trkpt>
      <trkpt lat="44.1097" lon="3.78241">
        <ele>311.6</ele>
        <time>2013-08-09T13:32:06Z</time>
      </trkpt>
      <trkpt lat="44.10877" lon="3.78186">
        <ele>312.57</ele>
        <time>2013-08-09T13:32:14Z</time>
      </trkpt>
      <trkpt lat="44.10868" lon="3.78176">
        <ele>313.05</ele>
        <time>2013-08-09T13:32:15Z</time>
      </trkpt>
      <trkpt lat="44.1086" lon="3.78165">
        <ele>313.05</ele>
        <time>2013-08-09T13:32:16Z</time>
      </trkpt>
      <trkpt lat="44.10841" lon="3.78144">
        <ele>314.97</ele>
        <time>2013-08-09T13:32:19Z</time>
      </trkpt>
      <trkpt lat="44.10833" lon="3.78147">
        <ele>316.89</ele>
        <time>2013-08-09T13:32:20Z</time>
      </trkpt>
      <trkpt lat="44.10829" lon="3.78147">
        <ele>319.3</ele>
        <time>2013-08-09T13:32:21Z</time>
      </trkpt>
      <trkpt lat="44.10827" lon="3.78148">
        <ele>319.3</ele>
        <time>2013-08-09T13:32:22Z</time>
      </trkpt>
      <trkpt lat="44.10825" lon="3.78153">
        <ele>318.33</ele>
        <time>2013-08-09T13:32:23Z</time>
      </trkpt>
      <trkpt lat="44.10823" lon="3.78158">
        <ele>317.37</ele>
        <time>2013-08-09T13:32:24Z</time>
      </trkpt>
      <trkpt lat="44.10821" lon="3.78164">
        <ele>317.37</ele>
        <time>2013-08-09T13:32:25Z</time>
      </trkpt>
      <trkpt lat="44.10819" lon="3.78167">
        <ele>313.53</ele>
        <time>2013-08-09T13:32:26Z</time>
      </trkpt>
      <trkpt lat="44.10813" lon="3.78216">
        <ele>309.2</ele>
        <time>2013-08-09T13:32:36Z</time>
      </trkpt>
      <trkpt lat="44.10814" lon="3.78232">
        <ele>307.76</ele>
        <time>2013-08-09T13:32:38Z</time>
      </trkpt>
      <trkpt lat="44.10814" lon="3.78242">
        <ele>306.32</ele>
        <time>2013-08-09T13:32:39Z</time>
      </trkpt>
      <trkpt lat="44.10801" lon="3.78284">
        <ele>301.03</ele>
        <time>2013-08-09T13:32:43Z</time>
      </trkpt>
      <trkpt lat="44.10796" lon="3.78293">
        <ele>301.51</ele>
        <time>2013-08-09T13:32:44Z</time>
      </trkpt>
      <trkpt lat="44.10791" lon="3.78303">
        <ele>301.99</ele>
        <time>2013-08-09T13:32:45Z</time>
      </trkpt>
      <trkpt lat="44.10745" lon="3.78427">
        <ele>302.47</ele>
        <time>2013-08-09T13:32:56Z</time>
      </trkpt>
      <trkpt lat="44.10734" lon="3.78455">
        <ele>302.47</ele>
        <time>2013-08-09T13:32:58Z</time>
      </trkpt>
      <trkpt lat="44.10726" lon="3.78468">
        <ele>302.95</ele>
        <time>2013-08-09T13:32:59Z</time>
      </trkpt>
      <trkpt lat="44.10718" lon="3.7848">
        <ele>302.95</ele>
        <time>2013-08-09T13:33:00Z</time>
      </trkpt>
      <trkpt lat="44.1065" lon="3.78582">
        <ele>304.39</ele>
        <time>2013-08-09T13:33:07Z</time>
      </trkpt>
      <trkpt lat="44.10645" lon="3.78601">
        <ele>304.39</ele>
        <time>2013-08-09T13:33:08Z</time>
      </trkpt>
      <trkpt lat="44.10643" lon="3.78624">
        <ele>304.39</ele>
        <time>2013-08-09T13:33:09Z</time>
      </trkpt>
      <trkpt lat="44.10642" lon="3.78648">
        <ele>304.39</ele>
        <time>2013-08-09T13:33:10Z</time>
      </trkpt>
      <trkpt lat="44.10643" lon="3.78674">
        <ele>304.39</ele>
        <time>2013-08-09T13:33:11Z</time>
      </trkpt>
      <trkpt lat="44.10646" lon="3.787">
        <ele>304.88</ele>
        <time>2013-08-09T13:33:12Z</time>
      </trkpt>
      <trkpt lat="44.1065" lon="3.78727">
        <ele>304.88</ele>
        <time>2013-08-09T13:33:13Z</time>
      </trkpt>
      <trkpt lat="44.1066" lon="3.78831">
        <ele>305.36</ele>
        <time>2013-08-09T13:33:17Z</time>
      </trkpt>
      <trkpt lat="44.10658" lon="3.78855">
        <ele>305.36</ele>
        <time>2013-08-09T13:33:18Z</time>
      </trkpt>
      <trkpt lat="44.10654" lon="3.7888">
        <ele>305.36</ele>
        <time>2013-08-09T13:33:19Z</time>
      </trkpt>
      <trkpt lat="44.10648" lon="3.78906">
        <ele>305.84</ele>
        <time>2013-08-09T13:33:20Z</time>
      </trkpt>
      <trkpt lat="44.10641" lon="3.78931">
        <ele>306.32</ele>
        <time>2013-08-09T13:33:21Z</time>
      </trkpt>
      <trkpt lat="44.10616" lon="3.79131">
        <ele>308.72</ele>
        <time>2013-08-09T13:33:29Z</time>
      </trkpt>
      <trkpt lat="44.10622" lon="3.79284">
        <ele>310.16</ele>
        <time>2013-08-09T13:33:36Z</time>
      </trkpt>
      <trkpt lat="44.10613" lon="3.79302">
        <ele>311.12</ele>
        <time>2013-08-09T13:33:37Z</time>
      </trkpt>
      <trkpt lat="44.10603" lon="3.79318">
        <ele>310.16</ele>
        <time>2013-08-09T13:33:38Z</time>
      </trkpt>
      <trkpt lat="44.10592" lon="3.79332">
        <ele>309.2</ele>
        <time>2013-08-09T13:33:39Z</time>
      </trkpt>
      <trkpt lat="44.1058" lon="3.79345">
        <ele>309.2</ele>
        <time>2013-08-09T13:33:40Z</time>
      </trkpt>
      <trkpt lat="44.10567" lon="3.79356">
        <ele>308.72</ele>
        <time>2013-08-09T13:33:41Z</time>
      </trkpt>
      <trkpt lat="44.10553" lon="3.79361">
        <ele>307.28</ele>
        <time>2013-08-09T13:33:42Z</time>
      </trkpt>
      <trkpt lat="44.10538" lon="3.79356">
        <ele>306.8</ele>
        <time>2013-08-09T13:33:43Z</time>
      </trkpt>
      <trkpt lat="44.10525" lon="3.79353">
        <ele>306.32</ele>
        <time>2013-08-09T13:33:44Z</time>
      </trkpt>
      <trkpt lat="44.10511" lon="3.7935">
        <ele>305.84</ele>
        <time>2013-08-09T13:33:45Z</time>
      </trkpt>
      <trkpt lat="44.10497" lon="3.7935">
        <ele>305.36</ele>
        <time>2013-08-09T13:33:46Z</time>
      </trkpt>
      <trkpt lat="44.10483" lon="3.79352">
        <ele>305.36</ele>
        <time>2013-08-09T13:33:47Z</time>
      </trkpt>
      <trkpt lat="44.10475" lon="3.7935">
        <ele>319.3</ele>
        <time>2013-08-09T13:33:48Z</time>
      </trkpt>
      <trkpt lat="44.10463" lon="3.7936">
        <ele>322.18</ele>
        <time>2013-08-09T13:33:49Z</time>
      </trkpt>
      <trkpt lat="44.10451" lon="3.79378">
        <ele>321.22</ele>
        <time>2013-08-09T13:33:50Z</time>
      </trkpt>
      <trkpt lat="44.10439" lon="3.794">
        <ele>320.74</ele>
        <time>2013-08-09T13:33:51Z</time>
      </trkpt>
      <trkpt lat="44.10429" lon="3.79434">
        <ele>320.26</ele>
        <time>2013-08-09T13:33:52Z</time>
      </trkpt>
      <trkpt lat="44.10418" lon="3.79465">
        <ele>320.26</ele>
        <time>2013-08-09T13:33:53Z</time>
      </trkpt>
      <trkpt lat="44.10392" lon="3.79555">
        <ele>317.37</ele>
        <time>2013-08-09T13:33:56Z</time>
      </trkpt>
      <trkpt lat="44.10387" lon="3.79586">
        <ele>316.89</ele>
        <time>2013-08-09T13:33:57Z</time>
      </trkpt>
      <trkpt lat="44.10385" lon="3.79618">
        <ele>316.41</ele>
        <time>2013-08-09T13:33:58Z</time>
      </trkpt>
      <trkpt lat="44.10384" lon="3.79649">
        <ele>315.93</ele>
        <time>2013-08-09T13:33:59Z</time>
      </trkpt>
      <trkpt lat="44.10386" lon="3.79679">
        <ele>314.97</ele>
        <time>2013-08-09T13:34:00Z</time>
      </trkpt>
      <trkpt lat="44.10392" lon="3.79711">
        <ele>314.97</ele>
        <time>2013-08-09T13:34:01Z</time>
      </trkpt>
      <trkpt lat="44.104" lon="3.79743">
        <ele>314.97</ele>
        <time>2013-08-09T13:34:02Z</time>
      </trkpt>
      <trkpt lat="44.10409" lon="3.79775">
        <ele>314.49</ele>
        <time>2013-08-09T13:34:03Z</time>
      </trkpt>
      <trkpt lat="44.10421" lon="3.79807">
        <ele>314.49</ele>
        <time>2013-08-09T13:34:04Z</time>
      </trkpt>
      <trkpt lat="44.10433" lon="3.79837">
        <ele>314.01</ele>
        <time>2013-08-09T13:34:05Z</time>
      </trkpt>
      <trkpt lat="44.10497" lon="3.7997">
        <ele>313.53</ele>
        <time>2013-08-09T13:34:11Z</time>
      </trkpt>
      <trkpt lat="44.10501" lon="3.79986">
        <ele>314.01</ele>
        <time>2013-08-09T13:34:12Z</time>
      </trkpt>
      <trkpt lat="44.10504" lon="3.80003">
        <ele>314.49</ele>
        <time>2013-08-09T13:34:13Z</time>
      </trkpt>
      <trkpt lat="44.10503" lon="3.8002">
        <ele>312.57</ele>
        <time>2013-08-09T13:34:14Z</time>
      </trkpt>
      <trkpt lat="44.10494" lon="3.80039">
        <ele>314.01</ele>
        <time>2013-08-09T13:34:15Z</time>
      </trkpt>
      <trkpt lat="44.10482" lon="3.80059">
        <ele>314.01</ele>
        <time>2013-08-09T13:34:16Z</time>
      </trkpt>
      <trkpt lat="44.10473" lon="3.8008">
        <ele>314.01</ele>
        <time>2013-08-09T13:34:17Z</time>
      </trkpt>
      <trkpt lat="44.10466" lon="3.80103">
        <ele>313.53</ele>
        <time>2013-08-09T13:34:18Z</time>
      </trkpt>
      <trkpt lat="44.10461" lon="3.80126">
        <ele>313.05</ele>
        <time>2013-08-09T13:34:19Z</time>
      </trkpt>
      <trkpt lat="44.10456" lon="3.80149">
        <ele>312.09</ele>
        <time>2013-08-09T13:34:20Z</time>
      </trkpt>
      <trkpt lat="44.10449" lon="3.8017">
        <ele>311.12</ele>
        <time>2013-08-09T13:34:21Z</time>
      </trkpt>
      <trkpt lat="44.10438" lon="3.80189">
        <ele>310.64</ele>
        <time>2013-08-09T13:34:22Z</time>
      </trkpt>
      <trkpt lat="44.10424" lon="3.80206">
        <ele>310.16</ele>
        <time>2013-08-09T13:34:23Z</time>
      </trkpt>
      <trkpt lat="44.10407" lon="3.80222">
        <ele>310.16</ele>
        <time>2013-08-09T13:34:24Z</time>
      </trkpt>
      <trkpt lat="44.10391" lon="3.80236">
        <ele>310.64</ele>
        <time>2013-08-09T13:34:25Z</time>
      </trkpt>
      <trkpt lat="44.1034" lon="3.80264">
        <ele>307.76</ele>
        <time>2013-08-09T13:34:28Z</time>
      </trkpt>
      <trkpt lat="44.10298" lon="3.80285">
        <ele>305.84</ele>
        <time>2013-08-09T13:34:31Z</time>
      </trkpt>
      <trkpt lat="44.10291" lon="3.80295">
        <ele>306.32</ele>
        <time>2013-08-09T13:34:32Z</time>
      </trkpt>
      <trkpt lat="44.10291" lon="3.80307">
        <ele>306.32</ele>
        <time>2013-08-09T13:34:33Z</time>
      </trkpt>
      <trkpt lat="44.10296" lon="3.80323">
        <ele>307.28</ele>
        <time>2013-08-09T13:34:34Z</time>
      </trkpt>
      <trkpt lat="44.10299" lon="3.80341">
        <ele>308.72</ele>
        <time>2013-08-09T13:34:35Z</time>
      </trkpt>
      <trkpt lat="44.10307" lon="3.80358">
        <ele>309.68</ele>
        <time>2013-08-09T13:34:36Z</time>
      </trkpt>
      <trkpt lat="44.10319" lon="3.80374">
        <ele>310.64</ele>
        <time>2013-08-09T13:34:37Z</time>
      </trkpt>
      <trkpt lat="44.10329" lon="3.80391">
        <ele>311.12</ele>
        <time>2013-08-09T13:34:38Z</time>
      </trkpt>
      <trkpt lat="44.10336" lon="3.80408">
        <ele>311.6</ele>
        <time>2013-08-09T13:34:39Z</time>
      </trkpt>
      <trkpt lat="44.10341" lon="3.80427">
        <ele>311.6</ele>
        <time>2013-08-09T13:34:40Z</time>
      </trkpt>
      <trkpt lat="44.10343" lon="3.80447">
        <ele>311.6</ele>
        <time>2013-08-09T13:34:41Z</time>
      </trkpt>
      <trkpt lat="44.10341" lon="3.80468">
        <ele>310.64</ele>
        <time>2013-08-09T13:34:42Z</time>
      </trkpt>
      <trkpt lat="44.10332" lon="3.8049">
        <ele>310.16</ele>
        <time>2013-08-09T13:34:43Z</time>
      </trkpt>
      <trkpt lat="44.10317" lon="3.80514">
        <ele>312.09</ele>
        <time>2013-08-09T13:34:44Z</time>
      </trkpt>
      <trkpt lat="44.10307" lon="3.80536">
        <ele>312.09</ele>
        <time>2013-08-09T13:34:45Z</time>
      </trkpt>
      <trkpt lat="44.1029" lon="3.80589">
        <ele>311.12</ele>
        <time>2013-08-09T13:34:48Z</time>
      </trkpt>
      <trkpt lat="44.10293" lon="3.80607">
        <ele>311.6</ele>
        <time>2013-08-09T13:34:49Z</time>
      </trkpt>
      <trkpt lat="44.103" lon="3.8062">
        <ele>311.6</ele>
        <time>2013-08-09T13:34:50Z</time>
      </trkpt>
      <trkpt lat="44.10311" lon="3.80628">
        <ele>311.12</ele>
        <time>2013-08-09T13:34:51Z</time>
      </trkpt>
      <trkpt lat="44.10326" lon="3.80629">
        <ele>311.12</ele>
        <time>2013-08-09T13:34:52Z</time>
      </trkpt>
      <trkpt lat="44.10346" lon="3.80623">
        <ele>311.6</ele>
        <time>2013-08-09T13:34:53Z</time>
      </trkpt>
      <trkpt lat="44.10364" lon="3.80624">
        <ele>311.12</ele>
        <time>2013-08-09T13:34:54Z</time>
      </trkpt>
      <trkpt lat="44.10382" lon="3.8063">
        <ele>311.12</ele>
        <time>2013-08-09T13:34:55Z</time>
      </trkpt>
      <trkpt lat="44.104" lon="3.8064">
        <ele>311.12</ele>
        <time>2013-08-09T13:34:56Z</time>
      </trkpt>
      <trkpt lat="44.10417" lon="3.80652">
        <ele>311.12</ele>
        <time>2013-08-09T13:34:57Z</time>
      </trkpt>
      <trkpt lat="44.10433" lon="3.80667">
        <ele>310.64</ele>
        <time>2013-08-09T13:34:58Z</time>
      </trkpt>
      <trkpt lat="44.10461" lon="3.80699">
        <ele>310.16</ele>
        <time>2013-08-09T13:35:00Z</time>
      </trkpt>
      <trkpt lat="44.10471" lon="3.80717">
        <ele>310.16</ele>
        <time>2013-08-09T13:35:01Z</time>
      </trkpt>
      <trkpt lat="44.10479" lon="3.80737">
        <ele>309.68</ele>
        <time>2013-08-09T13:35:02Z</time>
      </trkpt>
      <trkpt lat="44.10489" lon="3.80756">
        <ele>309.68</ele>
        <time>2013-08-09T13:35:03Z</time>
      </trkpt>
      <trkpt lat="44.105" lon="3.80773">
        <ele>309.68</ele>
        <time>2013-08-09T13:35:04Z</time>
      </trkpt>
      <trkpt lat="44.10513" lon="3.80784">
        <ele>309.68</ele>
        <time>2013-08-09T13:35:05Z</time>
      </trkpt>
      <trkpt lat="44.10528" lon="3.80789">
        <ele>309.2</ele>
        <time>2013-08-09T13:35:06Z</time>
      </trkpt>
      <trkpt lat="44.10542" lon="3.80798">
        <ele>308.72</ele>
        <time>2013-08-09T13:35:07Z</time>
      </trkpt>
      <trkpt lat="44.10556" lon="3.80809">
        <ele>308.72</ele>
        <time>2013-08-09T13:35:08Z</time>
      </trkpt>
      <trkpt lat="44.10568" lon="3.80823">
        <ele>308.24</ele>
        <time>2013-08-09T13:35:09Z</time>
      </trkpt>
      <trkpt lat="44.1058" lon="3.80837">
        <ele>308.24</ele>
        <time>2013-08-09T13:35:10Z</time>
      </trkpt>
      <trkpt lat="44.10594" lon="3.8085">
        <ele>307.76</ele>
        <time>2013-08-09T13:35:11Z</time>
      </trkpt>
      <trkpt lat="44.10607" lon="3.80861">
        <ele>307.76</ele>
        <time>2013-08-09T13:35:12Z</time>
      </trkpt>
      <trkpt lat="44.1063" lon="3.80882">
        <ele>306.8</ele>
        <time>2013-08-09T13:35:14Z</time>
      </trkpt>
      <trkpt lat="44.10637" lon="3.80897">
        <ele>306.32</ele>
        <time>2013-08-09T13:35:15Z</time>
      </trkpt>
      <trkpt lat="44.10639" lon="3.80917">
        <ele>305.36</ele>
        <time>2013-08-09T13:35:16Z</time>
      </trkpt>
      <trkpt lat="44.10637" lon="3.80943">
        <ele>304.88</ele>
        <time>2013-08-09T13:35:17Z</time>
      </trkpt>
      <trkpt lat="44.10632" lon="3.80971">
        <ele>304.39</ele>
        <time>2013-08-09T13:35:18Z</time>
      </trkpt>
      <trkpt lat="44.10629" lon="3.80998">
        <ele>304.39</ele>
        <time>2013-08-09T13:35:19Z</time>
      </trkpt>
      <trkpt lat="44.10631" lon="3.81066">
        <ele>302.47</ele>
        <time>2013-08-09T13:35:22Z</time>
      </trkpt>
      <trkpt lat="44.10638" lon="3.81085">
        <ele>301.99</ele>
        <time>2013-08-09T13:35:23Z</time>
      </trkpt>
      <trkpt lat="44.10649" lon="3.811">
        <ele>301.99</ele>
        <time>2013-08-09T13:35:24Z</time>
      </trkpt>
      <trkpt lat="44.10665" lon="3.81109">
        <ele>302.95</ele>
        <time>2013-08-09T13:35:25Z</time>
      </trkpt>
      <trkpt lat="44.10687" lon="3.81113">
        <ele>303.43</ele>
        <time>2013-08-09T13:35:26Z</time>
      </trkpt>
      <trkpt lat="44.10712" lon="3.81117">
        <ele>303.91</ele>
        <time>2013-08-09T13:35:27Z</time>
      </trkpt>
      <trkpt lat="44.10737" lon="3.81121">
        <ele>304.39</ele>
        <time>2013-08-09T13:35:28Z</time>
      </trkpt>
      <trkpt lat="44.10759" lon="3.81127">
        <ele>304.39</ele>
        <time>2013-08-09T13:35:29Z</time>
      </trkpt>
      <trkpt lat="44.10871" lon="3.81158">
        <ele>304.39</ele>
        <time>2013-08-09T13:35:36Z</time>
      </trkpt>
      <trkpt lat="44.10896" lon="3.81163">
        <ele>307.28</ele>
        <time>2013-08-09T13:35:39Z</time>
      </trkpt>
      <trkpt lat="44.10901" lon="3.81164">
        <ele>309.68</ele>
        <time>2013-08-09T13:35:40Z</time>
      </trkpt>
      <trkpt lat="44.10925" lon="3.81155">
        <ele>318.33</ele>
        <time>2013-08-09T13:35:44Z</time>
      </trkpt>
      <trkpt lat="44.10961" lon="3.81147">
        <ele>324.58</ele>
        <time>2013-08-09T13:35:47Z</time>
      </trkpt>
      <trkpt lat="44.10974" lon="3.8115">
        <ele>326.5</ele>
        <time>2013-08-09T13:35:48Z</time>
      </trkpt>
      <trkpt lat="44.10987" lon="3.81155">
        <ele>327.47</ele>
        <time>2013-08-09T13:35:49Z</time>
      </trkpt>
      <trkpt lat="44.10999" lon="3.81163">
        <ele>327.95</ele>
        <time>2013-08-09T13:35:50Z</time>
      </trkpt>
      <trkpt lat="44.1101" lon="3.81175">
        <ele>327.47</ele>
        <time>2013-08-09T13:35:51Z</time>
      </trkpt>
      <trkpt lat="44.11018" lon="3.8119">
        <ele>326.5</ele>
        <time>2013-08-09T13:35:52Z</time>
      </trkpt>
      <trkpt lat="44.11022" lon="3.81209">
        <ele>325.54</ele>
        <time>2013-08-09T13:35:53Z</time>
      </trkpt>
      <trkpt lat="44.11022" lon="3.81231">
        <ele>324.1</ele>
        <time>2013-08-09T13:35:54Z</time>
      </trkpt>
      <trkpt lat="44.11018" lon="3.81257">
        <ele>323.62</ele>
        <time>2013-08-09T13:35:55Z</time>
      </trkpt>
      <trkpt lat="44.11014" lon="3.81284">
        <ele>322.66</ele>
        <time>2013-08-09T13:35:56Z</time>
      </trkpt>
      <trkpt lat="44.11013" lon="3.81312">
        <ele>320.74</ele>
        <time>2013-08-09T13:35:57Z</time>
      </trkpt>
      <trkpt lat="44.11019" lon="3.81336">
        <ele>318.33</ele>
        <time>2013-08-09T13:35:58Z</time>
      </trkpt>
      <trkpt lat="44.11025" lon="3.8136">
        <ele>316.89</ele>
        <time>2013-08-09T13:35:59Z</time>
      </trkpt>
      <trkpt lat="44.11028" lon="3.81383">
        <ele>314.97</ele>
        <time>2013-08-09T13:36:00Z</time>
      </trkpt>
      <trkpt lat="44.11029" lon="3.81404">
        <ele>313.53</ele>
        <time>2013-08-09T13:36:01Z</time>
      </trkpt>
      <trkpt lat="44.11027" lon="3.81425">
        <ele>311.6</ele>
        <time>2013-08-09T13:36:02Z</time>
      </trkpt>
      <trkpt lat="44.1102" lon="3.81448">
        <ele>311.6</ele>
        <time>2013-08-09T13:36:03Z</time>
      </trkpt>
      <trkpt lat="44.11012" lon="3.81473">
        <ele>311.12</ele>
        <time>2013-08-09T13:36:04Z</time>
      </trkpt>
      <trkpt lat="44.11004" lon="3.81498">
        <ele>310.64</ele>
        <time>2013-08-09T13:36:05Z</time>
      </trkpt>
      <trkpt lat="44.10995" lon="3.81521">
        <ele>310.16</ele>
        <time>2013-08-09T13:36:06Z</time>
      </trkpt>
      <trkpt lat="44.10985" lon="3.81542">
        <ele>309.2</ele>
        <time>2013-08-09T13:36:07Z</time>
      </trkpt>
      <trkpt lat="44.10974" lon="3.81562">
        <ele>307.76</ele>
        <time>2013-08-09T13:36:08Z</time>
      </trkpt>
      <trkpt lat="44.10962" lon="3.81579">
        <ele>306.8</ele>
        <time>2013-08-09T13:36:09Z</time>
      </trkpt>
      <trkpt lat="44.10944" lon="3.81588">
        <ele>304.39</ele>
        <time>2013-08-09T13:36:10Z</time>
      </trkpt>
      <trkpt lat="44.1092" lon="3.81589">
        <ele>301.99</ele>
        <time>2013-08-09T13:36:11Z</time>
      </trkpt>
      <trkpt lat="44.10897" lon="3.81591">
        <ele>301.03</ele>
        <time>2013-08-09T13:36:12Z</time>
      </trkpt>
      <trkpt lat="44.10876" lon="3.81594">
        <ele>299.59</ele>
        <time>2013-08-09T13:36:13Z</time>
      </trkpt>
      <trkpt lat="44.10793" lon="3.81638">
        <ele>295.26</ele>
        <time>2013-08-09T13:36:18Z</time>
      </trkpt>
      <trkpt lat="44.10782" lon="3.81659">
        <ele>294.3</ele>
        <time>2013-08-09T13:36:19Z</time>
      </trkpt>
      <trkpt lat="44.10771" lon="3.81677">
        <ele>292.86</ele>
        <time>2013-08-09T13:36:20Z</time>
      </trkpt>
      <trkpt lat="44.10766" lon="3.81694">
        <ele>292.38</ele>
        <time>2013-08-09T13:36:21Z</time>
      </trkpt>
      <trkpt lat="44.10765" lon="3.81711">
        <ele>291.9</ele>
        <time>2013-08-09T13:36:22Z</time>
      </trkpt>
      <trkpt lat="44.10769" lon="3.81726">
        <ele>291.9</ele>
        <time>2013-08-09T13:36:23Z</time>
      </trkpt>
      <trkpt lat="44.10774" lon="3.81741">
        <ele>291.42</ele>
        <time>2013-08-09T13:36:24Z</time>
      </trkpt>
      <trkpt lat="44.10784" lon="3.81752">
        <ele>292.38</ele>
        <time>2013-08-09T13:36:25Z</time>
      </trkpt>
      <trkpt lat="44.10803" lon="3.81755">
        <ele>291.9</ele>
        <time>2013-08-09T13:36:26Z</time>
      </trkpt>
      <trkpt lat="44.10818" lon="3.81764">
        <ele>293.34</ele>
        <time>2013-08-09T13:36:27Z</time>
      </trkpt>
      <trkpt lat="44.10835" lon="3.81769">
        <ele>294.78</ele>
        <time>2013-08-09T13:36:28Z</time>
      </trkpt>
      <trkpt lat="44.10855" lon="3.81772">
        <ele>294.78</ele>
        <time>2013-08-09T13:36:29Z</time>
      </trkpt>
      <trkpt lat="44.10876" lon="3.81778">
        <ele>295.26</ele>
        <time>2013-08-09T13:36:30Z</time>
      </trkpt>
      <trkpt lat="44.10897" lon="3.81786">
        <ele>295.74</ele>
        <time>2013-08-09T13:36:31Z</time>
      </trkpt>
      <trkpt lat="44.10917" lon="3.81792">
        <ele>295.74</ele>
        <time>2013-08-09T13:36:32Z</time>
      </trkpt>
      <trkpt lat="44.10936" lon="3.81795">
        <ele>296.22</ele>
        <time>2013-08-09T13:36:33Z</time>
      </trkpt>
      <trkpt lat="44.10953" lon="3.81795">
        <ele>296.22</ele>
        <time>2013-08-09T13:36:34Z</time>
      </trkpt>
      <trkpt lat="44.1097" lon="3.81785">
        <ele>292.38</ele>
        <time>2013-08-09T13:36:35Z</time>
      </trkpt>
      <trkpt lat="44.10986" lon="3.81777">
        <ele>290.46</ele>
        <time>2013-08-09T13:36:36Z</time>
      </trkpt>
      <trkpt lat="44.1102" lon="3.81781">
        <ele>289.49</ele>
        <time>2013-08-09T13:36:39Z</time>
      </trkpt>
      <trkpt lat="44.11029" lon="3.81791">
        <ele>288.53</ele>
        <time>2013-08-09T13:36:40Z</time>
      </trkpt>
      <trkpt lat="44.11037" lon="3.81804">
        <ele>288.53</ele>
        <time>2013-08-09T13:36:41Z</time>
      </trkpt>
      <trkpt lat="44.11042" lon="3.8182">
        <ele>288.53</ele>
        <time>2013-08-09T13:36:42Z</time>
      </trkpt>
      <trkpt lat="44.11048" lon="3.81832">
        <ele>285.65</ele>
        <time>2013-08-09T13:36:43Z</time>
      </trkpt>
      <trkpt lat="44.11047" lon="3.81852">
        <ele>284.21</ele>
        <time>2013-08-09T13:36:44Z</time>
      </trkpt>
      <trkpt lat="44.1104" lon="3.81876">
        <ele>284.69</ele>
        <time>2013-08-09T13:36:45Z</time>
      </trkpt>
      <trkpt lat="44.11031" lon="3.81895">
        <ele>283.25</ele>
        <time>2013-08-09T13:36:46Z</time>
      </trkpt>
      <trkpt lat="44.11021" lon="3.81908">
        <ele>284.69</ele>
        <time>2013-08-09T13:36:47Z</time>
      </trkpt>
      <trkpt lat="44.11008" lon="3.81918">
        <ele>283.73</ele>
        <time>2013-08-09T13:36:48Z</time>
      </trkpt>
      <trkpt lat="44.10989" lon="3.8192">
        <ele>282.77</ele>
        <time>2013-08-09T13:36:49Z</time>
      </trkpt>
      <trkpt lat="44.1097" lon="3.81917">
        <ele>281.8</ele>
        <time>2013-08-09T13:36:50Z</time>
      </trkpt>
      <trkpt lat="44.10955" lon="3.81917">
        <ele>281.32</ele>
        <time>2013-08-09T13:36:51Z</time>
      </trkpt>
      <trkpt lat="44.10942" lon="3.81923">
        <ele>281.8</ele>
        <time>2013-08-09T13:36:52Z</time>
      </trkpt>
      <trkpt lat="44.10931" lon="3.81931">
        <ele>282.28</ele>
        <time>2013-08-09T13:36:53Z</time>
      </trkpt>
      <trkpt lat="44.10921" lon="3.81949">
        <ele>281.8</ele>
        <time>2013-08-09T13:36:54Z</time>
      </trkpt>
      <trkpt lat="44.10914" lon="3.81972">
        <ele>281.32</ele>
        <time>2013-08-09T13:36:55Z</time>
      </trkpt>
      <trkpt lat="44.10905" lon="3.81995">
        <ele>280.84</ele>
        <time>2013-08-09T13:36:56Z</time>
      </trkpt>
      <trkpt lat="44.10893" lon="3.82017">
        <ele>279.88</ele>
        <time>2013-08-09T13:36:57Z</time>
      </trkpt>
      <trkpt lat="44.10879" lon="3.82038">
        <ele>279.4</ele>
        <time>2013-08-09T13:36:58Z</time>
      </trkpt>
      <trkpt lat="44.10862" lon="3.82057">
        <ele>280.36</ele>
        <time>2013-08-09T13:36:59Z</time>
      </trkpt>
      <trkpt lat="44.10843" lon="3.82076">
        <ele>280.84</ele>
        <time>2013-08-09T13:37:00Z</time>
      </trkpt>
      <trkpt lat="44.10822" lon="3.82093">
        <ele>280.36</ele>
        <time>2013-08-09T13:37:01Z</time>
      </trkpt>
      <trkpt lat="44.10707" lon="3.82203">
        <ele>281.8</ele>
        <time>2013-08-09T13:37:08Z</time>
      </trkpt>
      <trkpt lat="44.10698" lon="3.82219">
        <ele>281.8</ele>
        <time>2013-08-09T13:37:09Z</time>
      </trkpt>
      <trkpt lat="44.10692" lon="3.82236">
        <ele>281.8</ele>
        <time>2013-08-09T13:37:10Z</time>
      </trkpt>
      <trkpt lat="44.10691" lon="3.82255">
        <ele>281.8</ele>
        <time>2013-08-09T13:37:11Z</time>
      </trkpt>
      <trkpt lat="44.10694" lon="3.82276">
        <ele>282.28</ele>
        <time>2013-08-09T13:37:12Z</time>
      </trkpt>
      <trkpt lat="44.10701" lon="3.82298">
        <ele>282.28</ele>
        <time>2013-08-09T13:37:13Z</time>
      </trkpt>
      <trkpt lat="44.1071" lon="3.82319">
        <ele>282.28</ele>
        <time>2013-08-09T13:37:14Z</time>
      </trkpt>
      <trkpt lat="44.1072" lon="3.82341">
        <ele>282.28</ele>
        <time>2013-08-09T13:37:15Z</time>
      </trkpt>
      <trkpt lat="44.10728" lon="3.82365">
        <ele>282.28</ele>
        <time>2013-08-09T13:37:16Z</time>
      </trkpt>
      <trkpt lat="44.10732" lon="3.82393">
        <ele>282.28</ele>
        <time>2013-08-09T13:37:17Z</time>
      </trkpt>
      <trkpt lat="44.10735" lon="3.82421">
        <ele>281.8</ele>
        <time>2013-08-09T13:37:18Z</time>
      </trkpt>
      <trkpt lat="44.10736" lon="3.82451">
        <ele>281.32</ele>
        <time>2013-08-09T13:37:19Z</time>
      </trkpt>
      <trkpt lat="44.10736" lon="3.82481">
        <ele>281.32</ele>
        <time>2013-08-09T13:37:20Z</time>
      </trkpt>
      <trkpt lat="44.10729" lon="3.82541">
        <ele>281.8</ele>
        <time>2013-08-09T13:37:22Z</time>
      </trkpt>
      <trkpt lat="44.10721" lon="3.82572">
        <ele>282.28</ele>
        <time>2013-08-09T13:37:23Z</time>
      </trkpt>
      <trkpt lat="44.10695" lon="3.82705">
        <ele>282.77</ele>
        <time>2013-08-09T13:37:28Z</time>
      </trkpt>
      <trkpt lat="44.10695" lon="3.82729">
        <ele>283.25</ele>
        <time>2013-08-09T13:37:29Z</time>
      </trkpt>
      <trkpt lat="44.107" lon="3.82752">
        <ele>282.77</ele>
        <time>2013-08-09T13:37:30Z</time>
      </trkpt>
      <trkpt lat="44.10711" lon="3.82773">
        <ele>282.77</ele>
        <time>2013-08-09T13:37:31Z</time>
      </trkpt>
      <trkpt lat="44.10726" lon="3.82787">
        <ele>283.25</ele>
        <time>2013-08-09T13:37:32Z</time>
      </trkpt>
      <trkpt lat="44.10744" lon="3.82798">
        <ele>283.73</ele>
        <time>2013-08-09T13:37:33Z</time>
      </trkpt>
      <trkpt lat="44.10764" lon="3.82811">
        <ele>283.25</ele>
        <time>2013-08-09T13:37:34Z</time>
      </trkpt>
      <trkpt lat="44.10784" lon="3.82823">
        <ele>282.77</ele>
        <time>2013-08-09T13:37:35Z</time>
      </trkpt>
      <trkpt lat="44.10803" lon="3.82838">
        <ele>281.8</ele>
        <time>2013-08-09T13:37:36Z</time>
      </trkpt>
      <trkpt lat="44.10847" lon="3.82895">
        <ele>280.36</ele>
        <time>2013-08-09T13:37:39Z</time>
      </trkpt>
      <trkpt lat="44.10857" lon="3.82919">
        <ele>279.88</ele>
        <time>2013-08-09T13:37:40Z</time>
      </trkpt>
      <trkpt lat="44.10865" lon="3.82945">
        <ele>278.92</ele>
        <time>2013-08-09T13:37:41Z</time>
      </trkpt>
      <trkpt lat="44.10871" lon="3.82971">
        <ele>277.48</ele>
        <time>2013-08-09T13:37:42Z</time>
      </trkpt>
      <trkpt lat="44.10874" lon="3.82996">
        <ele>277</ele>
        <time>2013-08-09T13:37:43Z</time>
      </trkpt>
      <trkpt lat="44.10875" lon="3.83018">
        <ele>276.04</ele>
        <time>2013-08-09T13:37:44Z</time>
      </trkpt>
      <trkpt lat="44.10876" lon="3.83039">
        <ele>274.11</ele>
        <time>2013-08-09T13:37:45Z</time>
      </trkpt>
      <trkpt lat="44.10882" lon="3.83077">
        <ele>271.23</ele>
        <time>2013-08-09T13:37:47Z</time>
      </trkpt>
      <trkpt lat="44.10891" lon="3.83097">
        <ele>269.79</ele>
        <time>2013-08-09T13:37:48Z</time>
      </trkpt>
      <trkpt lat="44.10903" lon="3.83117">
        <ele>268.83</ele>
        <time>2013-08-09T13:37:49Z</time>
      </trkpt>
      <trkpt lat="44.10917" lon="3.83138">
        <ele>267.86</ele>
        <time>2013-08-09T13:37:50Z</time>
      </trkpt>
      <trkpt lat="44.10935" lon="3.83158">
        <ele>265.94</ele>
        <time>2013-08-09T13:37:51Z</time>
      </trkpt>
      <trkpt lat="44.10952" lon="3.83179">
        <ele>264.5</ele>
        <time>2013-08-09T13:37:52Z</time>
      </trkpt>
      <trkpt lat="44.11044" lon="3.83275">
        <ele>259.69</ele>
        <time>2013-08-09T13:37:58Z</time>
      </trkpt>
      <trkpt lat="44.11052" lon="3.83292">
        <ele>258.25</ele>
        <time>2013-08-09T13:37:59Z</time>
      </trkpt>
      <trkpt lat="44.11058" lon="3.83311">
        <ele>256.33</ele>
        <time>2013-08-09T13:38:00Z</time>
      </trkpt>
      <trkpt lat="44.11062" lon="3.83334">
        <ele>255.37</ele>
        <time>2013-08-09T13:38:01Z</time>
      </trkpt>
      <trkpt lat="44.11063" lon="3.83358">
        <ele>253.44</ele>
        <time>2013-08-09T13:38:02Z</time>
      </trkpt>
      <trkpt lat="44.11059" lon="3.83384">
        <ele>253.44</ele>
        <time>2013-08-09T13:38:03Z</time>
      </trkpt>
      <trkpt lat="44.11047" lon="3.83414">
        <ele>256.81</ele>
        <time>2013-08-09T13:38:04Z</time>
      </trkpt>
      <trkpt lat="44.11035" lon="3.8344">
        <ele>256.33</ele>
        <time>2013-08-09T13:38:05Z</time>
      </trkpt>
      <trkpt lat="44.11024" lon="3.83466">
        <ele>255.85</ele>
        <time>2013-08-09T13:38:06Z</time>
      </trkpt>
      <trkpt lat="44.11001" lon="3.83542">
        <ele>252.48</ele>
        <time>2013-08-09T13:38:09Z</time>
      </trkpt>
      <trkpt lat="44.10999" lon="3.83565">
        <ele>252</ele>
        <time>2013-08-09T13:38:10Z</time>
      </trkpt>
      <trkpt lat="44.11002" lon="3.83591">
        <ele>251.52</ele>
        <time>2013-08-09T13:38:11Z</time>
      </trkpt>
      <trkpt lat="44.11006" lon="3.83617">
        <ele>250.56</ele>
        <time>2013-08-09T13:38:12Z</time>
      </trkpt>
      <trkpt lat="44.11015" lon="3.8364">
        <ele>249.6</ele>
        <time>2013-08-09T13:38:13Z</time>
      </trkpt>
      <trkpt lat="44.11022" lon="3.83662">
        <ele>249.12</ele>
        <time>2013-08-09T13:38:14Z</time>
      </trkpt>
      <trkpt lat="44.11034" lon="3.83703">
        <ele>248.16</ele>
        <time>2013-08-09T13:38:16Z</time>
      </trkpt>
      <trkpt lat="44.11043" lon="3.83722">
        <ele>248.16</ele>
        <time>2013-08-09T13:38:17Z</time>
      </trkpt>
      <trkpt lat="44.11055" lon="3.83735">
        <ele>248.16</ele>
        <time>2013-08-09T13:38:18Z</time>
      </trkpt>
      <trkpt lat="44.11068" lon="3.83748">
        <ele>247.68</ele>
        <time>2013-08-09T13:38:19Z</time>
      </trkpt>
      <trkpt lat="44.11083" lon="3.83756">
        <ele>246.23</ele>
        <time>2013-08-09T13:38:20Z</time>
      </trkpt>
      <trkpt lat="44.11106" lon="3.83748">
        <ele>247.2</ele>
        <time>2013-08-09T13:38:21Z</time>
      </trkpt>
      <trkpt lat="44.11127" lon="3.83741">
        <ele>246.72</ele>
        <time>2013-08-09T13:38:22Z</time>
      </trkpt>
      <trkpt lat="44.11148" lon="3.83735">
        <ele>246.23</ele>
        <time>2013-08-09T13:38:23Z</time>
      </trkpt>
      <trkpt lat="44.11168" lon="3.83733">
        <ele>245.75</ele>
        <time>2013-08-09T13:38:24Z</time>
      </trkpt>
      <trkpt lat="44.11189" lon="3.83738">
        <ele>245.27</ele>
        <time>2013-08-09T13:38:25Z</time>
      </trkpt>
      <trkpt lat="44.11209" lon="3.83746">
        <ele>244.79</ele>
        <time>2013-08-09T13:38:26Z</time>
      </trkpt>
      <trkpt lat="44.11229" lon="3.83755">
        <ele>243.83</ele>
        <time>2013-08-09T13:38:27Z</time>
      </trkpt>
      <trkpt lat="44.11249" lon="3.83768">
        <ele>242.87</ele>
        <time>2013-08-09T13:38:28Z</time>
      </trkpt>
      <trkpt lat="44.11389" lon="3.83833">
        <ele>237.1</ele>
        <time>2013-08-09T13:38:35Z</time>
      </trkpt>
      <trkpt lat="44.11436" lon="3.8389">
        <ele>233.74</ele>
        <time>2013-08-09T13:38:39Z</time>
      </trkpt>
      <trkpt lat="44.1144" lon="3.83907">
        <ele>232.3</ele>
        <time>2013-08-09T13:38:40Z</time>
      </trkpt>
      <trkpt lat="44.1144" lon="3.8393">
        <ele>231.33</ele>
        <time>2013-08-09T13:38:41Z</time>
      </trkpt>
      <trkpt lat="44.11441" lon="3.84042">
        <ele>230.85</ele>
        <time>2013-08-09T13:38:46Z</time>
      </trkpt>
      <trkpt lat="44.11402" lon="3.84066">
        <ele>232.78</ele>
        <time>2013-08-09T13:38:47Z</time>
      </trkpt>
      <trkpt lat="44.11371" lon="3.84082">
        <ele>230.85</ele>
        <time>2013-08-09T13:38:48Z</time>
      </trkpt>
      <trkpt lat="44.11356" lon="3.84093">
        <ele>228.45</ele>
        <time>2013-08-09T13:38:49Z</time>
      </trkpt>
      <trkpt lat="44.11347" lon="3.84104">
        <ele>227.01</ele>
        <time>2013-08-09T13:38:50Z</time>
      </trkpt>
      <trkpt lat="44.11352" lon="3.84186">
        <ele>227.01</ele>
        <time>2013-08-09T13:38:57Z</time>
      </trkpt>
      <trkpt lat="44.11367" lon="3.84196">
        <ele>226.05</ele>
        <time>2013-08-09T13:38:58Z</time>
      </trkpt>
      <trkpt lat="44.1138" lon="3.842">
        <ele>224.61</ele>
        <time>2013-08-09T13:38:59Z</time>
      </trkpt>
      <trkpt lat="44.11394" lon="3.84199">
        <ele>223.64</ele>
        <time>2013-08-09T13:39:00Z</time>
      </trkpt>
      <trkpt lat="44.1141" lon="3.84196">
        <ele>223.64</ele>
        <time>2013-08-09T13:39:01Z</time>
      </trkpt>
      <trkpt lat="44.11426" lon="3.84193">
        <ele>224.12</ele>
        <time>2013-08-09T13:39:02Z</time>
      </trkpt>
      <trkpt lat="44.11445" lon="3.84195">
        <ele>224.12</ele>
        <time>2013-08-09T13:39:03Z</time>
      </trkpt>
      <trkpt lat="44.11465" lon="3.842">
        <ele>222.68</ele>
        <time>2013-08-09T13:39:04Z</time>
      </trkpt>
      <trkpt lat="44.11482" lon="3.8421">
        <ele>222.2</ele>
        <time>2013-08-09T13:39:05Z</time>
      </trkpt>
      <trkpt lat="44.11499" lon="3.84223">
        <ele>222.2</ele>
        <time>2013-08-09T13:39:06Z</time>
      </trkpt>
      <trkpt lat="44.11515" lon="3.84239">
        <ele>222.2</ele>
        <time>2013-08-09T13:39:07Z</time>
      </trkpt>
      <trkpt lat="44.11528" lon="3.84258">
        <ele>221.72</ele>
        <time>2013-08-09T13:39:08Z</time>
      </trkpt>
      <trkpt lat="44.11539" lon="3.84281">
        <ele>220.28</ele>
        <time>2013-08-09T13:39:09Z</time>
      </trkpt>
      <trkpt lat="44.11546" lon="3.84307">
        <ele>218.84</ele>
        <time>2013-08-09T13:39:10Z</time>
      </trkpt>
      <trkpt lat="44.11551" lon="3.84338">
        <ele>217.88</ele>
        <time>2013-08-09T13:39:11Z</time>
      </trkpt>
      <trkpt lat="44.11555" lon="3.84372">
        <ele>216.91</ele>
        <time>2013-08-09T13:39:12Z</time>
      </trkpt>
      <trkpt lat="44.11559" lon="3.84408">
        <ele>215.95</ele>
        <time>2013-08-09T13:39:13Z</time>
      </trkpt>
      <trkpt lat="44.11562" lon="3.84445">
        <ele>214.99</ele>
        <time>2013-08-09T13:39:14Z</time>
      </trkpt>
      <trkpt lat="44.11564" lon="3.84483">
        <ele>213.55</ele>
        <time>2013-08-09T13:39:15Z</time>
      </trkpt>
      <trkpt lat="44.11566" lon="3.84521">
        <ele>212.59</ele>
        <time>2013-08-09T13:39:16Z</time>
      </trkpt>
      <trkpt lat="44.1158" lon="3.84764">
        <ele>208.26</ele>
        <time>2013-08-09T13:39:23Z</time>
      </trkpt>
      <trkpt lat="44.11574" lon="3.84795">
        <ele>208.74</ele>
        <time>2013-08-09T13:39:24Z</time>
      </trkpt>
      <trkpt lat="44.11566" lon="3.84828">
        <ele>209.7</ele>
        <time>2013-08-09T13:39:25Z</time>
      </trkpt>
      <trkpt lat="44.11514" lon="3.85098">
        <ele>207.3</ele>
        <time>2013-08-09T13:39:33Z</time>
      </trkpt>
      <trkpt lat="44.11484" lon="3.85295">
        <ele>206.82</ele>
        <time>2013-08-09T13:39:40Z</time>
      </trkpt>
      <trkpt lat="44.11468" lon="3.85341">
        <ele>207.3</ele>
        <time>2013-08-09T13:39:42Z</time>
      </trkpt>
      <trkpt lat="44.11458" lon="3.85364">
        <ele>207.78</ele>
        <time>2013-08-09T13:39:43Z</time>
      </trkpt>
      <trkpt lat="44.11446" lon="3.85385">
        <ele>207.3</ele>
        <time>2013-08-09T13:39:44Z</time>
      </trkpt>
      <trkpt lat="44.11392" lon="3.85482">
        <ele>207.78</ele>
        <time>2013-08-09T13:39:49Z</time>
      </trkpt>
      <trkpt lat="44.11377" lon="3.8553">
        <ele>207.78</ele>
        <time>2013-08-09T13:39:51Z</time>
      </trkpt>
      <trkpt lat="44.11371" lon="3.85556">
        <ele>207.78</ele>
        <time>2013-08-09T13:39:52Z</time>
      </trkpt>
      <trkpt lat="44.11362" lon="3.85582">
        <ele>207.78</ele>
        <time>2013-08-09T13:39:53Z</time>
      </trkpt>
      <trkpt lat="44.11352" lon="3.85607">
        <ele>208.26</ele>
        <time>2013-08-09T13:39:54Z</time>
      </trkpt>
      <trkpt lat="44.11341" lon="3.85631">
        <ele>208.26</ele>
        <time>2013-08-09T13:39:55Z</time>
      </trkpt>
      <trkpt lat="44.11276" lon="3.85764">
        <ele>208.74</ele>
        <time>2013-08-09T13:40:01Z</time>
      </trkpt>
      <trkpt lat="44.11269" lon="3.85787">
        <ele>208.74</ele>
        <time>2013-08-09T13:40:02Z</time>
      </trkpt>
      <trkpt lat="44.11264" lon="3.85814">
        <ele>208.74</ele>
        <time>2013-08-09T13:40:03Z</time>
      </trkpt>
      <trkpt lat="44.11261" lon="3.85843">
        <ele>208.74</ele>
        <time>2013-08-09T13:40:04Z</time>
      </trkpt>
      <trkpt lat="44.11258" lon="3.85873">
        <ele>207.78</ele>
        <time>2013-08-09T13:40:05Z</time>
      </trkpt>
      <trkpt lat="44.11239" lon="3.8605">
        <ele>206.34</ele>
        <time>2013-08-09T13:40:12Z</time>
      </trkpt>
      <trkpt lat="44.1123" lon="3.86097">
        <ele>205.86</ele>
        <time>2013-08-09T13:40:14Z</time>
      </trkpt>
      <trkpt lat="44.11224" lon="3.86119">
        <ele>205.86</ele>
        <time>2013-08-09T13:40:15Z</time>
      </trkpt>
      <trkpt lat="44.11216" lon="3.86139">
        <ele>205.86</ele>
        <time>2013-08-09T13:40:16Z</time>
      </trkpt>
      <trkpt lat="44.11199" lon="3.86192">
        <ele>205.38</ele>
        <time>2013-08-09T13:40:19Z</time>
      </trkpt>
      <trkpt lat="44.11199" lon="3.86209">
        <ele>204.9</ele>
        <time>2013-08-09T13:40:20Z</time>
      </trkpt>
      <trkpt lat="44.11201" lon="3.86228">
        <ele>205.38</ele>
        <time>2013-08-09T13:40:21Z</time>
      </trkpt>
      <trkpt lat="44.11206" lon="3.86249">
        <ele>204.9</ele>
        <time>2013-08-09T13:40:22Z</time>
      </trkpt>
      <trkpt lat="44.11212" lon="3.86271">
        <ele>204.9</ele>
        <time>2013-08-09T13:40:23Z</time>
      </trkpt>
      <trkpt lat="44.1129" lon="3.86473">
        <ele>202.01</ele>
        <time>2013-08-09T13:40:32Z</time>
      </trkpt>
      <trkpt lat="44.11363" lon="3.86612">
        <ele>200.09</ele>
        <time>2013-08-09T13:40:37Z</time>
      </trkpt>
      <trkpt lat="44.1146" lon="3.86832">
        <ele>200.09</ele>
        <time>2013-08-09T13:40:45Z</time>
      </trkpt>
      <trkpt lat="44.11466" lon="3.86861">
        <ele>200.57</ele>
        <time>2013-08-09T13:40:46Z</time>
      </trkpt>
      <trkpt lat="44.11468" lon="3.86893">
        <ele>201.05</ele>
        <time>2013-08-09T13:40:47Z</time>
      </trkpt>
      <trkpt lat="44.11467" lon="3.86926">
        <ele>201.53</ele>
        <time>2013-08-09T13:40:48Z</time>
      </trkpt>
      <trkpt lat="44.11465" lon="3.86955">
        <ele>200.57</ele>
        <time>2013-08-09T13:40:49Z</time>
      </trkpt>
      <trkpt lat="44.1146" lon="3.86984">
        <ele>201.05</ele>
        <time>2013-08-09T13:40:50Z</time>
      </trkpt>
      <trkpt lat="44.11456" lon="3.87011">
        <ele>201.05</ele>
        <time>2013-08-09T13:40:51Z</time>
      </trkpt>
      <trkpt lat="44.11423" lon="3.87172">
        <ele>202.01</ele>
        <time>2013-08-09T13:40:58Z</time>
      </trkpt>
      <trkpt lat="44.1141" lon="3.8719">
        <ele>202.98</ele>
        <time>2013-08-09T13:40:59Z</time>
      </trkpt>
      <trkpt lat="44.11399" lon="3.87206">
        <ele>202.98</ele>
        <time>2013-08-09T13:41:00Z</time>
      </trkpt>
      <trkpt lat="44.11339" lon="3.87279">
        <ele>201.53</ele>
        <time>2013-08-09T13:41:05Z</time>
      </trkpt>
      <trkpt lat="44.11324" lon="3.87291">
        <ele>202.01</ele>
        <time>2013-08-09T13:41:06Z</time>
      </trkpt>
      <trkpt lat="44.11304" lon="3.873">
        <ele>201.53</ele>
        <time>2013-08-09T13:41:07Z</time>
      </trkpt>
      <trkpt lat="44.11206" lon="3.87342">
        <ele>201.53</ele>
        <time>2013-08-09T13:41:13Z</time>
      </trkpt>
      <trkpt lat="44.11189" lon="3.87345">
        <ele>201.53</ele>
        <time>2013-08-09T13:41:14Z</time>
      </trkpt>
      <trkpt lat="44.11171" lon="3.87346">
        <ele>201.05</ele>
        <time>2013-08-09T13:41:15Z</time>
      </trkpt>
      <trkpt lat="44.11032" lon="3.87352">
        <ele>201.05</ele>
        <time>2013-08-09T13:41:23Z</time>
      </trkpt>
      <trkpt lat="44.11016" lon="3.87358">
        <ele>201.05</ele>
        <time>2013-08-09T13:41:24Z</time>
      </trkpt>
      <trkpt lat="44.11" lon="3.87366">
        <ele>200.09</ele>
        <time>2013-08-09T13:41:25Z</time>
      </trkpt>
      <trkpt lat="44.10984" lon="3.87376">
        <ele>197.69</ele>
        <time>2013-08-09T13:41:26Z</time>
      </trkpt>
      <trkpt lat="44.10969" lon="3.87387">
        <ele>197.21</ele>
        <time>2013-08-09T13:41:27Z</time>
      </trkpt>
      <trkpt lat="44.10954" lon="3.874">
        <ele>196.73</ele>
        <time>2013-08-09T13:41:28Z</time>
      </trkpt>
      <trkpt lat="44.10819" lon="3.87544">
        <ele>194.8</ele>
        <time>2013-08-09T13:41:37Z</time>
      </trkpt>
      <trkpt lat="44.1074" lon="3.8769">
        <ele>193.36</ele>
        <time>2013-08-09T13:41:45Z</time>
      </trkpt>
      <trkpt lat="44.10732" lon="3.87723">
        <ele>192.88</ele>
        <time>2013-08-09T13:41:47Z</time>
      </trkpt>
      <trkpt lat="44.10732" lon="3.8774">
        <ele>192.4</ele>
        <time>2013-08-09T13:41:48Z</time>
      </trkpt>
      <trkpt lat="44.10733" lon="3.87758">
        <ele>192.4</ele>
        <time>2013-08-09T13:41:49Z</time>
      </trkpt>
      <trkpt lat="44.10734" lon="3.87775">
        <ele>192.88</ele>
        <time>2013-08-09T13:41:50Z</time>
      </trkpt>
      <trkpt lat="44.10735" lon="3.87791">
        <ele>194.32</ele>
        <time>2013-08-09T13:41:51Z</time>
      </trkpt>
      <trkpt lat="44.1074" lon="3.87943">
        <ele>198.65</ele>
        <time>2013-08-09T13:42:02Z</time>
      </trkpt>
      <trkpt lat="44.1074" lon="3.88032">
        <ele>206.34</ele>
        <time>2013-08-09T13:42:09Z</time>
      </trkpt>
      <trkpt lat="44.10742" lon="3.88062">
        <ele>209.22</ele>
        <time>2013-08-09T13:42:12Z</time>
      </trkpt>
      <trkpt lat="44.1074" lon="3.88072">
        <ele>205.86</ele>
        <time>2013-08-09T13:42:13Z</time>
      </trkpt>
      <trkpt lat="44.10738" lon="3.88081">
        <ele>203.46</ele>
        <time>2013-08-09T13:42:14Z</time>
      </trkpt>
      <trkpt lat="44.10735" lon="3.88089">
        <ele>202.01</ele>
        <time>2013-08-09T13:42:15Z</time>
      </trkpt>
      <trkpt lat="44.10733" lon="3.88097">
        <ele>201.53</ele>
        <time>2013-08-09T13:42:16Z</time>
      </trkpt>
      <trkpt lat="44.10728" lon="3.88113">
        <ele>199.61</ele>
        <time>2013-08-09T13:42:18Z</time>
      </trkpt>
      <trkpt lat="44.10725" lon="3.88117">
        <ele>197.69</ele>
        <time>2013-08-09T13:42:19Z</time>
      </trkpt>
      <trkpt lat="44.10723" lon="3.88121">
        <ele>197.21</ele>
        <time>2013-08-09T13:42:20Z</time>
      </trkpt>
      <trkpt lat="44.10722" lon="3.88124">
        <ele>196.25</ele>
        <time>2013-08-09T13:42:21Z</time>
      </trkpt>
      <trkpt lat="44.1072" lon="3.88126">
        <ele>195.77</ele>
        <time>2013-08-09T13:42:22Z</time>
      </trkpt>
      <trkpt lat="44.10717" lon="3.88129">
        <ele>196.25</ele>
        <time>2013-08-09T13:42:29Z</time>
      </trkpt>
      <trkpt lat="44.10712" lon="3.88131">
        <ele>195.28</ele>
        <time>2013-08-09T13:42:39Z</time>
      </trkpt>
      <trkpt lat="44.1071" lon="3.88144">
        <ele>194.32</ele>
        <time>2013-08-09T13:42:42Z</time>
      </trkpt>
      <trkpt lat="44.10705" lon="3.88158">
        <ele>192.88</ele>
        <time>2013-08-09T13:42:44Z</time>
      </trkpt>
      <trkpt lat="44.10693" lon="3.88195">
        <ele>193.84</ele>
        <time>2013-08-09T13:42:49Z</time>
      </trkpt>
      <trkpt lat="44.10689" lon="3.88199">
        <ele>195.77</ele>
        <time>2013-08-09T13:42:50Z</time>
      </trkpt>
      <trkpt lat="44.10682" lon="3.88202">
        <ele>197.21</ele>
        <time>2013-08-09T13:42:51Z</time>
      </trkpt>
      <trkpt lat="44.10677" lon="3.88202">
        <ele>197.21</ele>
        <time>2013-08-09T13:42:52Z</time>
      </trkpt>
      <trkpt lat="44.10671" lon="3.88199">
        <ele>197.21</ele>
        <time>2013-08-09T13:42:53Z</time>
      </trkpt>
      <trkpt lat="44.10668" lon="3.88189">
        <ele>196.73</ele>
        <time>2013-08-09T13:42:54Z</time>
      </trkpt>
      <trkpt lat="44.10661" lon="3.88182">
        <ele>196.25</ele>
        <time>2013-08-09T13:42:55Z</time>
      </trkpt>
      <trkpt lat="44.10626" lon="3.88157">
        <ele>199.13</ele>
        <time>2013-08-09T13:43:00Z</time>
      </trkpt>
      <trkpt lat="44.10553" lon="3.88116">
        <ele>208.26</ele>
        <time>2013-08-09T13:43:12Z</time>
      </trkpt>
      <trkpt lat="44.10537" lon="3.88113">
        <ele>206.34</ele>
        <time>2013-08-09T13:43:18Z</time>
      </trkpt>
      <trkpt lat="44.10512" lon="3.88099">
        <ele>207.78</ele>
        <time>2013-08-09T13:43:23Z</time>
      </trkpt>
      <trkpt lat="44.10453" lon="3.88052">
        <ele>204.42</ele>
        <time>2013-08-09T13:43:32Z</time>
      </trkpt>
      <trkpt lat="44.10401" lon="3.88007">
        <ele>197.69</ele>
        <time>2013-08-09T13:43:42Z</time>
      </trkpt>
      <trkpt lat="44.10391" lon="3.87999">
        <ele>197.69</ele>
        <time>2013-08-09T13:43:44Z</time>
      </trkpt>
      <trkpt lat="44.10386" lon="3.87997">
        <ele>197.21</ele>
        <time>2013-08-09T13:43:45Z</time>
      </trkpt>
      <trkpt lat="44.10381" lon="3.87996">
        <ele>197.21</ele>
        <time>2013-08-09T13:43:46Z</time>
      </trkpt>
      <trkpt lat="44.10377" lon="3.87997">
        <ele>196.73</ele>
        <time>2013-08-09T13:43:47Z</time>
      </trkpt>
      <trkpt lat="44.10374" lon="3.88">
        <ele>196.25</ele>
        <time>2013-08-09T13:43:48Z</time>
      </trkpt>
      <trkpt lat="44.10372" lon="3.88007">
        <ele>195.77</ele>
        <time>2013-08-09T13:43:49Z</time>
      </trkpt>
      <trkpt lat="44.10372" lon="3.88014">
        <ele>194.8</ele>
        <time>2013-08-09T13:43:50Z</time>
      </trkpt>
      <trkpt lat="44.1037" lon="3.88022">
        <ele>194.32</ele>
        <time>2013-08-09T13:43:51Z</time>
      </trkpt>
      <trkpt lat="44.10367" lon="3.8803">
        <ele>193.84</ele>
        <time>2013-08-09T13:43:52Z</time>
      </trkpt>
      <trkpt lat="44.10325" lon="3.88138">
        <ele>190.48</ele>
        <time>2013-08-09T13:44:03Z</time>
      </trkpt>
      <trkpt lat="44.10253" lon="3.88289">
        <ele>190.48</ele>
        <time>2013-08-09T13:44:19Z</time>
      </trkpt>
      <trkpt lat="44.1024" lon="3.88319">
        <ele>191.44</ele>
        <time>2013-08-09T13:44:26Z</time>
      </trkpt>
      <trkpt lat="44.1024" lon="3.88322">
        <ele>191.92</ele>
        <time>2013-08-09T13:44:30Z</time>
      </trkpt>
      <trkpt lat="44.10241" lon="3.88325">
        <ele>191.44</ele>
        <time>2013-08-09T13:44:31Z</time>
      </trkpt>
      <trkpt lat="44.10242" lon="3.88327">
        <ele>190.96</ele>
        <time>2013-08-09T13:44:32Z</time>
      </trkpt>
      <trkpt lat="44.10244" lon="3.88328">
        <ele>190.96</ele>
        <time>2013-08-09T13:44:33Z</time>
      </trkpt>
      <trkpt lat="44.10247" lon="3.88329">
        <ele>190.96</ele>
        <time>2013-08-09T13:44:34Z</time>
      </trkpt>
      <trkpt lat="44.10298" lon="3.88354">
        <ele>191.92</ele>
        <time>2013-08-09T13:44:42Z</time>
      </trkpt>
      <trkpt lat="44.10412" lon="3.88413">
        <ele>193.84</ele>
        <time>2013-08-09T13:44:57Z</time>
      </trkpt>
      <trkpt lat="44.10439" lon="3.88425">
        <ele>195.28</ele>
        <time>2013-08-09T13:45:01Z</time>
      </trkpt>
      <trkpt lat="44.10448" lon="3.88431">
        <ele>196.73</ele>
        <time>2013-08-09T13:45:03Z</time>
      </trkpt>
      <trkpt lat="44.10452" lon="3.88434">
        <ele>196.73</ele>
        <time>2013-08-09T13:45:04Z</time>
      </trkpt>
      <trkpt lat="44.10465" lon="3.88452">
        <ele>195.28</ele>
        <time>2013-08-09T13:45:09Z</time>
      </trkpt>
      <trkpt lat="44.10464" lon="3.88458">
        <ele>193.84</ele>
        <time>2013-08-09T13:45:10Z</time>
      </trkpt>
      <trkpt lat="44.10461" lon="3.88463">
        <ele>192.88</ele>
        <time>2013-08-09T13:45:11Z</time>
      </trkpt>
      <trkpt lat="44.10459" lon="3.88467">
        <ele>192.4</ele>
        <time>2013-08-09T13:45:12Z</time>
      </trkpt>
      <trkpt lat="44.10456" lon="3.88471">
        <ele>190.96</ele>
        <time>2013-08-09T13:45:13Z</time>
      </trkpt>
      <trkpt lat="44.10452" lon="3.88474">
        <ele>190.96</ele>
        <time>2013-08-09T13:45:14Z</time>
      </trkpt>
      <trkpt lat="44.10449" lon="3.88474">
        <ele>190.48</ele>
        <time>2013-08-09T13:45:15Z</time>
      </trkpt>
      <trkpt lat="44.10447" lon="3.88474">
        <ele>190.48</ele>
        <time>2013-08-09T13:45:16Z</time>
      </trkpt>
      <trkpt lat="44.10445" lon="3.88472">
        <ele>190.48</ele>
        <time>2013-08-09T13:45:17Z</time>
      </trkpt>
      <trkpt lat="44.10444" lon="3.88469">
        <ele>190.48</ele>
        <time>2013-08-09T13:45:18Z</time>
      </trkpt>
      <trkpt lat="44.10444" lon="3.88466">
        <ele>190.96</ele>
        <time>2013-08-09T13:45:19Z</time>
      </trkpt>
      <trkpt lat="44.10445" lon="3.88464">
        <ele>191.92</ele>
        <time>2013-08-09T13:45:20Z</time>
      </trkpt>
      <trkpt lat="44.10446" lon="3.88462">
        <ele>191.92</ele>
        <time>2013-08-09T13:45:21Z</time>
      </trkpt>
      <trkpt lat="44.10447" lon="3.88461">
        <ele>191.92</ele>
        <time>2013-08-09T13:45:22Z</time>
      </trkpt>
      <trkpt lat="44.10447" lon="3.88459">
        <ele>192.4</ele>
        <time>2013-08-09T13:45:23Z</time>
      </trkpt>
      <trkpt lat="44.10448" lon="3.88457">
        <ele>192.4</ele>
        <time>2013-08-09T13:45:24Z</time>
      </trkpt>
      <trkpt lat="44.10449" lon="3.88455">
        <ele>192.88</ele>
        <time>2013-08-09T13:45:25Z</time>
      </trkpt>
      <trkpt lat="44.1045" lon="3.88453">
        <ele>192.88</ele>
        <time>2013-08-09T13:45:26Z</time>
      </trkpt>
      <trkpt lat="44.10451" lon="3.88453">
        <ele>193.36</ele>
        <time>2013-08-09T13:45:27Z</time>
      </trkpt>
      <trkpt lat="44.10452" lon="3.88455">
        <ele>193.84</ele>
        <time>2013-08-09T13:45:32Z</time>
      </trkpt>
      <trkpt lat="44.10451" lon="3.88457">
        <ele>193.84</ele>
        <time>2013-08-09T13:45:33Z</time>
      </trkpt>
      <trkpt lat="44.10451" lon="3.88459">
        <ele>194.32</ele>
        <time>2013-08-09T13:45:34Z</time>
      </trkpt>
      <trkpt lat="44.10456" lon="3.88463">
        <ele>209.22</ele>
        <time>2013-08-09T13:45:52Z</time>
      </trkpt>
      <trkpt lat="44.10458" lon="3.88464">
        <ele>201.53</ele>
        <time>2013-08-09T13:46:02Z</time>
      </trkpt>
      <trkpt lat="44.10475" lon="3.8847">
        <ele>202.49</ele>
        <time>2013-08-09T13:48:15Z</time>
      </trkpt>
      <trkpt lat="44.1047" lon="3.88478">
        <ele>205.86</ele>
        <time>2013-08-09T13:48:49Z</time>
      </trkpt>
      <trkpt lat="44.10466" lon="3.88481">
        <ele>195.28</ele>
        <time>2013-08-09T13:49:14Z</time>
      </trkpt>
      <trkpt lat="44.10464" lon="3.88482">
        <ele>189.52</ele>
        <time>2013-08-09T13:49:58Z</time>
      </trkpt>
      <trkpt lat="44.10464" lon="3.88481">
        <ele>185.19</ele>
        <time>2013-08-09T13:51:27Z</time>
      </trkpt>
      <trkpt lat="44.10455" lon="3.88489">
        <ele>172.69</ele>
        <time>2013-08-09T13:52:03Z</time>
      </trkpt>
      <trkpt lat="44.10466" lon="3.88478">
        <ele>196.25</ele>
        <time>2013-08-09T13:52:26Z</time>
      </trkpt>
      <trkpt lat="44.10467" lon="3.8848">
        <ele>192.4</ele>
        <time>2013-08-09T13:52:54Z</time>
      </trkpt>
      <trkpt lat="44.10464" lon="3.88483">
        <ele>201.05</ele>
        <time>2013-08-09T13:53:31Z</time>
      </trkpt>
      <trkpt lat="44.10467" lon="3.8848">
        <ele>200.09</ele>
        <time>2013-08-09T13:54:35Z</time>
      </trkpt>
      <trkpt lat="44.1047" lon="3.88477">
        <ele>193.84</ele>
        <time>2013-08-09T13:55:32Z</time>
      </trkpt>
      <trkpt lat="44.10469" lon="3.88479">
        <ele>194.8</ele>
        <time>2013-08-09T13:56:09Z</time>
      </trkpt>
      <trkpt lat="44.1047" lon="3.88477">
        <ele>187.59</ele>
        <time>2013-08-09T13:56:41Z</time>
      </trkpt>
      <trkpt lat="44.10466" lon="3.88483">
        <ele>189.04</ele>
        <time>2013-08-09T13:57:24Z</time>
      </trkpt>
      <trkpt lat="44.10461" lon="3.88488">
        <ele>182.79</ele>
        <time>2013-08-09T13:57:38Z</time>
      </trkpt>
      <trkpt lat="44.10467" lon="3.8847">
        <ele>201.05</ele>
        <time>2013-08-09T14:14:35Z</time>
      </trkpt>
      <trkpt lat="44.10456" lon="3.88468">
        <ele>201.05</ele>
        <time>2013-08-09T14:14:56Z</time>
      </trkpt>
      <trkpt lat="44.10454" lon="3.88468">
        <ele>200.09</ele>
        <time>2013-08-09T14:15:25Z</time>
      </trkpt>
      <trkpt lat="44.10452" lon="3.88467">
        <ele>195.77</ele>
        <time>2013-08-09T14:15:53Z</time>
      </trkpt>
      <trkpt lat="44.10452" lon="3.88464">
        <ele>200.09</ele>
        <time>2013-08-09T14:16:09Z</time>
      </trkpt>
      <trkpt lat="44.10447" lon="3.88476">
        <ele>195.28</ele>
        <time>2013-08-09T14:16:19Z</time>
      </trkpt>
      <trkpt lat="44.10442" lon="3.88497">
        <ele>194.8</ele>
        <time>2013-08-09T14:16:26Z</time>
      </trkpt>
      <trkpt lat="44.10441" lon="3.88504">
        <ele>194.32</ele>
        <time>2013-08-09T14:16:27Z</time>
      </trkpt>
      <trkpt lat="44.10441" lon="3.88518">
        <ele>193.84</ele>
        <time>2013-08-09T14:16:29Z</time>
      </trkpt>
      <trkpt lat="44.10443" lon="3.88532">
        <ele>192.88</ele>
        <time>2013-08-09T14:16:31Z</time>
      </trkpt>
      <trkpt lat="44.10443" lon="3.88539">
        <ele>193.36</ele>
        <time>2013-08-09T14:16:32Z</time>
      </trkpt>
      <trkpt lat="44.10443" lon="3.88545">
        <ele>193.36</ele>
        <time>2013-08-09T14:16:33Z</time>
      </trkpt>
      <trkpt lat="44.10442" lon="3.88551">
        <ele>194.8</ele>
        <time>2013-08-09T14:16:34Z</time>
      </trkpt>
      <trkpt lat="44.10442" lon="3.88559">
        <ele>195.77</ele>
        <time>2013-08-09T14:16:35Z</time>
      </trkpt>
      <trkpt lat="44.10441" lon="3.88565">
        <ele>196.73</ele>
        <time>2013-08-09T14:16:36Z</time>
      </trkpt>
      <trkpt lat="44.10441" lon="3.88572">
        <ele>197.21</ele>
        <time>2013-08-09T14:16:37Z</time>
      </trkpt>
      <trkpt lat="44.1044" lon="3.88575">
        <ele>197.69</ele>
        <time>2013-08-09T14:16:38Z</time>
      </trkpt>
      <trkpt lat="44.10438" lon="3.88577">
        <ele>199.13</ele>
        <time>2013-08-09T14:16:39Z</time>
      </trkpt>
      <trkpt lat="44.10437" lon="3.88578">
        <ele>200.57</ele>
        <time>2013-08-09T14:16:40Z</time>
      </trkpt>
      <trkpt lat="44.10435" lon="3.88578">
        <ele>201.53</ele>
        <time>2013-08-09T14:16:41Z</time>
      </trkpt>
      <trkpt lat="44.10432" lon="3.88578">
        <ele>202.49</ele>
        <time>2013-08-09T14:16:42Z</time>
      </trkpt>
      <trkpt lat="44.10426" lon="3.88579">
        <ele>202.98</ele>
        <time>2013-08-09T14:16:44Z</time>
      </trkpt>
      <trkpt lat="44.10428" lon="3.88591">
        <ele>202.01</ele>
        <time>2013-08-09T14:16:48Z</time>
      </trkpt>
      <trkpt lat="44.10431" lon="3.886">
        <ele>201.53</ele>
        <time>2013-08-09T14:16:49Z</time>
      </trkpt>
      <trkpt lat="44.10434" lon="3.8861">
        <ele>201.53</ele>
        <time>2013-08-09T14:16:50Z</time>
      </trkpt>
      <trkpt lat="44.10444" lon="3.88646">
        <ele>195.77</ele>
        <time>2013-08-09T14:16:55Z</time>
      </trkpt>
      <trkpt lat="44.10448" lon="3.8866">
        <ele>195.28</ele>
        <time>2013-08-09T14:16:57Z</time>
      </trkpt>
      <trkpt lat="44.10448" lon="3.88665">
        <ele>195.28</ele>
        <time>2013-08-09T14:16:58Z</time>
      </trkpt>
      <trkpt lat="44.10445" lon="3.88669">
        <ele>193.84</ele>
        <time>2013-08-09T14:16:59Z</time>
      </trkpt>
      <trkpt lat="44.10442" lon="3.88675">
        <ele>193.36</ele>
        <time>2013-08-09T14:17:00Z</time>
      </trkpt>
      <trkpt lat="44.10436" lon="3.88682">
        <ele>192.88</ele>
        <time>2013-08-09T14:17:01Z</time>
      </trkpt>
      <trkpt lat="44.1043" lon="3.88691">
        <ele>191.92</ele>
        <time>2013-08-09T14:17:02Z</time>
      </trkpt>
      <trkpt lat="44.10383" lon="3.88766">
        <ele>191.44</ele>
        <time>2013-08-09T14:17:10Z</time>
      </trkpt>
      <trkpt lat="44.10376" lon="3.88773">
        <ele>191.92</ele>
        <time>2013-08-09T14:17:11Z</time>
      </trkpt>
      <trkpt lat="44.10362" lon="3.8879">
        <ele>193.36</ele>
        <time>2013-08-09T14:17:13Z</time>
      </trkpt>
      <trkpt lat="44.10357" lon="3.88801">
        <ele>193.36</ele>
        <time>2013-08-09T14:17:14Z</time>
      </trkpt>
      <trkpt lat="44.10351" lon="3.88811">
        <ele>193.36</ele>
        <time>2013-08-09T14:17:15Z</time>
      </trkpt>
      <trkpt lat="44.10303" lon="3.88866">
        <ele>195.77</ele>
        <time>2013-08-09T14:17:21Z</time>
      </trkpt>
      <trkpt lat="44.10292" lon="3.88873">
        <ele>195.77</ele>
        <time>2013-08-09T14:17:22Z</time>
      </trkpt>
      <trkpt lat="44.10279" lon="3.88877">
        <ele>196.25</ele>
        <time>2013-08-09T14:17:23Z</time>
      </trkpt>
      <trkpt lat="44.10268" lon="3.88873">
        <ele>195.77</ele>
        <time>2013-08-09T14:17:24Z</time>
      </trkpt>
      <trkpt lat="44.1026" lon="3.88876">
        <ele>196.25</ele>
        <time>2013-08-09T14:17:25Z</time>
      </trkpt>
      <trkpt lat="44.10233" lon="3.88901">
        <ele>196.25</ele>
        <time>2013-08-09T14:17:29Z</time>
      </trkpt>
      <trkpt lat="44.10228" lon="3.88911">
        <ele>197.69</ele>
        <time>2013-08-09T14:17:30Z</time>
      </trkpt>
      <trkpt lat="44.10229" lon="3.88933">
        <ele>196.73</ele>
        <time>2013-08-09T14:17:31Z</time>
      </trkpt>
      <trkpt lat="44.10228" lon="3.88948">
        <ele>196.25</ele>
        <time>2013-08-09T14:17:32Z</time>
      </trkpt>
      <trkpt lat="44.10227" lon="3.88964">
        <ele>195.77</ele>
        <time>2013-08-09T14:17:33Z</time>
      </trkpt>
      <trkpt lat="44.10227" lon="3.8898">
        <ele>195.28</ele>
        <time>2013-08-09T14:17:34Z</time>
      </trkpt>
      <trkpt lat="44.10225" lon="3.88993">
        <ele>195.28</ele>
        <time>2013-08-09T14:17:35Z</time>
      </trkpt>
      <trkpt lat="44.10205" lon="3.89105">
        <ele>190</ele>
        <time>2013-08-09T14:17:43Z</time>
      </trkpt>
      <trkpt lat="44.10195" lon="3.89133">
        <ele>190.48</ele>
        <time>2013-08-09T14:17:45Z</time>
      </trkpt>
      <trkpt lat="44.10186" lon="3.89145">
        <ele>190.48</ele>
        <time>2013-08-09T14:17:46Z</time>
      </trkpt>
      <trkpt lat="44.10179" lon="3.89156">
        <ele>190</ele>
        <time>2013-08-09T14:17:47Z</time>
      </trkpt>
      <trkpt lat="44.10169" lon="3.89162">
        <ele>189.52</ele>
        <time>2013-08-09T14:17:48Z</time>
      </trkpt>
      <trkpt lat="44.10161" lon="3.89167">
        <ele>189.04</ele>
        <time>2013-08-09T14:17:49Z</time>
      </trkpt>
      <trkpt lat="44.10153" lon="3.89171">
        <ele>189.04</ele>
        <time>2013-08-09T14:17:50Z</time>
      </trkpt>
      <trkpt lat="44.10148" lon="3.89176">
        <ele>189.52</ele>
        <time>2013-08-09T14:17:51Z</time>
      </trkpt>
      <trkpt lat="44.10148" lon="3.89184">
        <ele>190</ele>
        <time>2013-08-09T14:17:52Z</time>
      </trkpt>
      <trkpt lat="44.10145" lon="3.89195">
        <ele>190</ele>
        <time>2013-08-09T14:17:53Z</time>
      </trkpt>
      <trkpt lat="44.10145" lon="3.89213">
        <ele>189.52</ele>
        <time>2013-08-09T14:17:54Z</time>
      </trkpt>
      <trkpt lat="44.10145" lon="3.89232">
        <ele>188.56</ele>
        <time>2013-08-09T14:17:55Z</time>
      </trkpt>
      <trkpt lat="44.10144" lon="3.89252">
        <ele>188.08</ele>
        <time>2013-08-09T14:17:56Z</time>
      </trkpt>
      <trkpt lat="44.10126" lon="3.89465">
        <ele>184.71</ele>
        <time>2013-08-09T14:18:08Z</time>
      </trkpt>
      <trkpt lat="44.10123" lon="3.89476">
        <ele>184.71</ele>
        <time>2013-08-09T14:18:09Z</time>
      </trkpt>
      <trkpt lat="44.1012" lon="3.89485">
        <ele>184.71</ele>
        <time>2013-08-09T14:18:10Z</time>
      </trkpt>
      <trkpt lat="44.10116" lon="3.89495">
        <ele>184.23</ele>
        <time>2013-08-09T14:18:11Z</time>
      </trkpt>
      <trkpt lat="44.10109" lon="3.89505">
        <ele>184.23</ele>
        <time>2013-08-09T14:18:12Z</time>
      </trkpt>
      <trkpt lat="44.10099" lon="3.89514">
        <ele>184.23</ele>
        <time>2013-08-09T14:18:13Z</time>
      </trkpt>
      <trkpt lat="44.10086" lon="3.89521">
        <ele>184.23</ele>
        <time>2013-08-09T14:18:14Z</time>
      </trkpt>
      <trkpt lat="44.10072" lon="3.8953">
        <ele>184.23</ele>
        <time>2013-08-09T14:18:15Z</time>
      </trkpt>
      <trkpt lat="44.10016" lon="3.89582">
        <ele>184.71</ele>
        <time>2013-08-09T14:18:19Z</time>
      </trkpt>
      <trkpt lat="44.10004" lon="3.89601">
        <ele>184.71</ele>
        <time>2013-08-09T14:18:20Z</time>
      </trkpt>
      <trkpt lat="44.09994" lon="3.89622">
        <ele>184.71</ele>
        <time>2013-08-09T14:18:21Z</time>
      </trkpt>
      <trkpt lat="44.09985" lon="3.89645">
        <ele>184.23</ele>
        <time>2013-08-09T14:18:22Z</time>
      </trkpt>
      <trkpt lat="44.09978" lon="3.89669">
        <ele>184.23</ele>
        <time>2013-08-09T14:18:23Z</time>
      </trkpt>
      <trkpt lat="44.09972" lon="3.89694">
        <ele>183.75</ele>
        <time>2013-08-09T14:18:24Z</time>
      </trkpt>
      <trkpt lat="44.09967" lon="3.89718">
        <ele>183.75</ele>
        <time>2013-08-09T14:18:25Z</time>
      </trkpt>
      <trkpt lat="44.09921" lon="3.89931">
        <ele>184.71</ele>
        <time>2013-08-09T14:18:35Z</time>
      </trkpt>
      <trkpt lat="44.09865" lon="3.9006">
        <ele>186.15</ele>
        <time>2013-08-09T14:18:42Z</time>
      </trkpt>
      <trkpt lat="44.0981" lon="3.90185">
        <ele>184.71</ele>
        <time>2013-08-09T14:18:48Z</time>
      </trkpt>
      <trkpt lat="44.09805" lon="3.90211">
        <ele>184.23</ele>
        <time>2013-08-09T14:18:49Z</time>
      </trkpt>
      <trkpt lat="44.09779" lon="3.90482">
        <ele>183.27</ele>
        <time>2013-08-09T14:18:59Z</time>
      </trkpt>
      <trkpt lat="44.0981" lon="3.90676">
        <ele>181.83</ele>
        <time>2013-08-09T14:19:06Z</time>
      </trkpt>
      <trkpt lat="44.09815" lon="3.90704">
        <ele>181.35</ele>
        <time>2013-08-09T14:19:07Z</time>
      </trkpt>
      <trkpt lat="44.09817" lon="3.90732">
        <ele>181.35</ele>
        <time>2013-08-09T14:19:08Z</time>
      </trkpt>
      <trkpt lat="44.09818" lon="3.90761">
        <ele>180.87</ele>
        <time>2013-08-09T14:19:09Z</time>
      </trkpt>
      <trkpt lat="44.09835" lon="3.9101">
        <ele>181.35</ele>
        <time>2013-08-09T14:19:18Z</time>
      </trkpt>
      <trkpt lat="44.0984" lon="3.91086">
        <ele>183.75</ele>
        <time>2013-08-09T14:19:21Z</time>
      </trkpt>
      <trkpt lat="44.09838" lon="3.91111">
        <ele>184.23</ele>
        <time>2013-08-09T14:19:22Z</time>
      </trkpt>
      <trkpt lat="44.09797" lon="3.91305">
        <ele>187.11</ele>
        <time>2013-08-09T14:19:30Z</time>
      </trkpt>
      <trkpt lat="44.09751" lon="3.91456">
        <ele>185.67</ele>
        <time>2013-08-09T14:19:37Z</time>
      </trkpt>
      <trkpt lat="44.09748" lon="3.91478">
        <ele>185.67</ele>
        <time>2013-08-09T14:19:38Z</time>
      </trkpt>
      <trkpt lat="44.09746" lon="3.91502">
        <ele>185.19</ele>
        <time>2013-08-09T14:19:39Z</time>
      </trkpt>
      <trkpt lat="44.09734" lon="3.91672">
        <ele>184.71</ele>
        <time>2013-08-09T14:19:47Z</time>
      </trkpt>
      <trkpt lat="44.09728" lon="3.9169">
        <ele>185.19</ele>
        <time>2013-08-09T14:19:48Z</time>
      </trkpt>
      <trkpt lat="44.0972" lon="3.91708">
        <ele>185.19</ele>
        <time>2013-08-09T14:19:49Z</time>
      </trkpt>
      <trkpt lat="44.0971" lon="3.91725">
        <ele>185.67</ele>
        <time>2013-08-09T14:19:50Z</time>
      </trkpt>
      <trkpt lat="44.097" lon="3.9174">
        <ele>186.15</ele>
        <time>2013-08-09T14:19:51Z</time>
      </trkpt>
      <trkpt lat="44.09624" lon="3.91843">
        <ele>195.28</ele>
        <time>2013-08-09T14:19:59Z</time>
      </trkpt>
      <trkpt lat="44.09612" lon="3.91854">
        <ele>194.8</ele>
        <time>2013-08-09T14:20:00Z</time>
      </trkpt>
      <trkpt lat="44.09599" lon="3.91863">
        <ele>194.8</ele>
        <time>2013-08-09T14:20:01Z</time>
      </trkpt>
      <trkpt lat="44.09585" lon="3.91871">
        <ele>194.8</ele>
        <time>2013-08-09T14:20:02Z</time>
      </trkpt>
      <trkpt lat="44.09569" lon="3.91878">
        <ele>194.8</ele>
        <time>2013-08-09T14:20:03Z</time>
      </trkpt>
      <trkpt lat="44.09553" lon="3.91882">
        <ele>194.32</ele>
        <time>2013-08-09T14:20:04Z</time>
      </trkpt>
      <trkpt lat="44.09536" lon="3.91885">
        <ele>194.32</ele>
        <time>2013-08-09T14:20:05Z</time>
      </trkpt>
      <trkpt lat="44.09519" lon="3.91887">
        <ele>193.84</ele>
        <time>2013-08-09T14:20:06Z</time>
      </trkpt>
      <trkpt lat="44.09422" lon="3.91888">
        <ele>192.88</ele>
        <time>2013-08-09T14:20:12Z</time>
      </trkpt>
      <trkpt lat="44.09407" lon="3.91883">
        <ele>192.4</ele>
        <time>2013-08-09T14:20:13Z</time>
      </trkpt>
      <trkpt lat="44.09391" lon="3.91873">
        <ele>194.32</ele>
        <time>2013-08-09T14:20:14Z</time>
      </trkpt>
      <trkpt lat="44.09376" lon="3.91857">
        <ele>198.17</ele>
        <time>2013-08-09T14:20:15Z</time>
      </trkpt>
      <trkpt lat="44.09362" lon="3.91845">
        <ele>199.61</ele>
        <time>2013-08-09T14:20:16Z</time>
      </trkpt>
      <trkpt lat="44.09211" lon="3.91732">
        <ele>203.94</ele>
        <time>2013-08-09T14:20:27Z</time>
      </trkpt>
      <trkpt lat="44.09081" lon="3.91704">
        <ele>205.86</ele>
        <time>2013-08-09T14:20:35Z</time>
      </trkpt>
      <trkpt lat="44.08906" lon="3.91721">
        <ele>202.98</ele>
        <time>2013-08-09T14:20:46Z</time>
      </trkpt>
      <trkpt lat="44.0869" lon="3.91845">
        <ele>192.88</ele>
        <time>2013-08-09T14:20:59Z</time>
      </trkpt>
      <trkpt lat="44.08508" lon="3.91962">
        <ele>179.42</ele>
        <time>2013-08-09T14:21:08Z</time>
      </trkpt>
      <trkpt lat="44.08347" lon="3.92112">
        <ele>172.69</ele>
        <time>2013-08-09T14:21:15Z</time>
      </trkpt>
      <trkpt lat="44.08217" lon="3.92251">
        <ele>168.37</ele>
        <time>2013-08-09T14:21:22Z</time>
      </trkpt>
      <trkpt lat="44.08091" lon="3.92406">
        <ele>173.66</ele>
        <time>2013-08-09T14:21:31Z</time>
      </trkpt>
      <trkpt lat="44.07957" lon="3.92638">
        <ele>171.73</ele>
        <time>2013-08-09T14:21:42Z</time>
      </trkpt>
      <trkpt lat="44.07875" lon="3.92788">
        <ele>168.37</ele>
        <time>2013-08-09T14:21:48Z</time>
      </trkpt>
      <trkpt lat="44.07829" lon="3.92847">
        <ele>165.96</ele>
        <time>2013-08-09T14:21:51Z</time>
      </trkpt>
      <trkpt lat="44.07812" lon="3.92861">
        <ele>165</ele>
        <time>2013-08-09T14:21:52Z</time>
      </trkpt>
      <trkpt lat="44.07795" lon="3.92872">
        <ele>164.52</ele>
        <time>2013-08-09T14:21:53Z</time>
      </trkpt>
      <trkpt lat="44.07777" lon="3.9288">
        <ele>164.04</ele>
        <time>2013-08-09T14:21:54Z</time>
      </trkpt>
      <trkpt lat="44.0776" lon="3.92885">
        <ele>164.52</ele>
        <time>2013-08-09T14:21:55Z</time>
      </trkpt>
      <trkpt lat="44.07744" lon="3.92889">
        <ele>164.52</ele>
        <time>2013-08-09T14:21:56Z</time>
      </trkpt>
      <trkpt lat="44.07729" lon="3.92891">
        <ele>165</ele>
        <time>2013-08-09T14:21:57Z</time>
      </trkpt>
      <trkpt lat="44.07624" lon="3.92917">
        <ele>167.41</ele>
        <time>2013-08-09T14:22:05Z</time>
      </trkpt>
      <trkpt lat="44.07613" lon="3.92928">
        <ele>167.41</ele>
        <time>2013-08-09T14:22:06Z</time>
      </trkpt>
      <trkpt lat="44.07601" lon="3.92941">
        <ele>167.41</ele>
        <time>2013-08-09T14:22:07Z</time>
      </trkpt>
      <trkpt lat="44.07592" lon="3.92957">
        <ele>165.96</ele>
        <time>2013-08-09T14:22:08Z</time>
      </trkpt>
      <trkpt lat="44.07593" lon="3.92982">
        <ele>162.12</ele>
        <time>2013-08-09T14:22:09Z</time>
      </trkpt>
      <trkpt lat="44.07592" lon="3.93004">
        <ele>162.12</ele>
        <time>2013-08-09T14:22:10Z</time>
      </trkpt>
      <trkpt lat="44.07595" lon="3.93024">
        <ele>162.6</ele>
        <time>2013-08-09T14:22:11Z</time>
      </trkpt>
      <trkpt lat="44.07599" lon="3.93043">
        <ele>162.6</ele>
        <time>2013-08-09T14:22:12Z</time>
      </trkpt>
      <trkpt lat="44.07609" lon="3.93061">
        <ele>162.6</ele>
        <time>2013-08-09T14:22:13Z</time>
      </trkpt>
      <trkpt lat="44.0762" lon="3.93079">
        <ele>162.6</ele>
        <time>2013-08-09T14:22:14Z</time>
      </trkpt>
      <trkpt lat="44.07633" lon="3.93097">
        <ele>161.64</ele>
        <time>2013-08-09T14:22:15Z</time>
      </trkpt>
      <trkpt lat="44.07649" lon="3.93116">
        <ele>161.16</ele>
        <time>2013-08-09T14:22:16Z</time>
      </trkpt>
      <trkpt lat="44.07666" lon="3.93136">
        <ele>160.2</ele>
        <time>2013-08-09T14:22:17Z</time>
      </trkpt>
      <trkpt lat="44.07734" lon="3.93234">
        <ele>157.31</ele>
        <time>2013-08-09T14:22:22Z</time>
      </trkpt>
      <trkpt lat="44.07743" lon="3.93255">
        <ele>156.83</ele>
        <time>2013-08-09T14:22:23Z</time>
      </trkpt>
      <trkpt lat="44.07749" lon="3.93276">
        <ele>156.83</ele>
        <time>2013-08-09T14:22:24Z</time>
      </trkpt>
      <trkpt lat="44.07755" lon="3.93299">
        <ele>156.83</ele>
        <time>2013-08-09T14:22:25Z</time>
      </trkpt>
      <trkpt lat="44.07759" lon="3.93322">
        <ele>156.83</ele>
        <time>2013-08-09T14:22:26Z</time>
      </trkpt>
      <trkpt lat="44.07761" lon="3.93345">
        <ele>156.83</ele>
        <time>2013-08-09T14:22:27Z</time>
      </trkpt>
      <trkpt lat="44.07761" lon="3.93368">
        <ele>156.83</ele>
        <time>2013-08-09T14:22:28Z</time>
      </trkpt>
      <trkpt lat="44.07759" lon="3.93391">
        <ele>156.83</ele>
        <time>2013-08-09T14:22:29Z</time>
      </trkpt>
      <trkpt lat="44.07755" lon="3.93414">
        <ele>156.83</ele>
        <time>2013-08-09T14:22:30Z</time>
      </trkpt>
      <trkpt lat="44.0775" lon="3.93436">
        <ele>156.35</ele>
        <time>2013-08-09T14:22:31Z</time>
      </trkpt>
      <trkpt lat="44.07744" lon="3.93457">
        <ele>156.35</ele>
        <time>2013-08-09T14:22:32Z</time>
      </trkpt>
      <trkpt lat="44.07736" lon="3.93477">
        <ele>155.87</ele>
        <time>2013-08-09T14:22:33Z</time>
      </trkpt>
      <trkpt lat="44.07728" lon="3.93497">
        <ele>155.87</ele>
        <time>2013-08-09T14:22:34Z</time>
      </trkpt>
      <trkpt lat="44.07718" lon="3.93516">
        <ele>155.87</ele>
        <time>2013-08-09T14:22:35Z</time>
      </trkpt>
      <trkpt lat="44.07631" lon="3.93626">
        <ele>155.87</ele>
        <time>2013-08-09T14:22:40Z</time>
      </trkpt>
      <trkpt lat="44.07538" lon="3.93754">
        <ele>157.31</ele>
        <time>2013-08-09T14:22:46Z</time>
      </trkpt>
      <trkpt lat="44.07513" lon="3.93814">
        <ele>157.79</ele>
        <time>2013-08-09T14:22:50Z</time>
      </trkpt>
      <trkpt lat="44.07504" lon="3.93817">
        <ele>157.79</ele>
        <time>2013-08-09T14:22:51Z</time>
      </trkpt>
      <trkpt lat="44.07496" lon="3.93819">
        <ele>156.83</ele>
        <time>2013-08-09T14:22:52Z</time>
      </trkpt>
      <trkpt lat="44.07485" lon="3.93809">
        <ele>157.31</ele>
        <time>2013-08-09T14:22:53Z</time>
      </trkpt>
      <trkpt lat="44.07473" lon="3.93797">
        <ele>157.31</ele>
        <time>2013-08-09T14:22:54Z</time>
      </trkpt>
      <trkpt lat="44.0746" lon="3.93785">
        <ele>157.79</ele>
        <time>2013-08-09T14:22:55Z</time>
      </trkpt>
      <trkpt lat="44.07447" lon="3.93772">
        <ele>157.79</ele>
        <time>2013-08-09T14:22:56Z</time>
      </trkpt>
      <trkpt lat="44.07397" lon="3.93723">
        <ele>156.83</ele>
        <time>2013-08-09T14:23:01Z</time>
      </trkpt>
      <trkpt lat="44.07392" lon="3.93712">
        <ele>156.83</ele>
        <time>2013-08-09T14:23:02Z</time>
      </trkpt>
      <trkpt lat="44.07389" lon="3.93698">
        <ele>156.83</ele>
        <time>2013-08-09T14:23:03Z</time>
      </trkpt>
      <trkpt lat="44.0739" lon="3.93682">
        <ele>156.35</ele>
        <time>2013-08-09T14:23:04Z</time>
      </trkpt>
      <trkpt lat="44.07394" lon="3.93664">
        <ele>156.35</ele>
        <time>2013-08-09T14:23:05Z</time>
      </trkpt>
      <trkpt lat="44.07396" lon="3.93646">
        <ele>155.87</ele>
        <time>2013-08-09T14:23:06Z</time>
      </trkpt>
      <trkpt lat="44.07395" lon="3.93627">
        <ele>155.39</ele>
        <time>2013-08-09T14:23:07Z</time>
      </trkpt>
      <trkpt lat="44.07391" lon="3.93608">
        <ele>154.91</ele>
        <time>2013-08-09T14:23:08Z</time>
      </trkpt>
      <trkpt lat="44.07383" lon="3.93588">
        <ele>155.39</ele>
        <time>2013-08-09T14:23:09Z</time>
      </trkpt>
      <trkpt lat="44.07372" lon="3.93569">
        <ele>155.39</ele>
        <time>2013-08-09T14:23:10Z</time>
      </trkpt>
      <trkpt lat="44.07359" lon="3.93553">
        <ele>155.87</ele>
        <time>2013-08-09T14:23:11Z</time>
      </trkpt>
      <trkpt lat="44.07342" lon="3.93541">
        <ele>155.87</ele>
        <time>2013-08-09T14:23:12Z</time>
      </trkpt>
      <trkpt lat="44.07325" lon="3.93533">
        <ele>155.87</ele>
        <time>2013-08-09T14:23:13Z</time>
      </trkpt>
      <trkpt lat="44.07305" lon="3.93531">
        <ele>155.87</ele>
        <time>2013-08-09T14:23:14Z</time>
      </trkpt>
      <trkpt lat="44.07283" lon="3.93538">
        <ele>156.35</ele>
        <time>2013-08-09T14:23:15Z</time>
      </trkpt>
      <trkpt lat="44.0726" lon="3.93541">
        <ele>156.83</ele>
        <time>2013-08-09T14:23:16Z</time>
      </trkpt>
      <trkpt lat="44.07237" lon="3.93542">
        <ele>157.31</ele>
        <time>2013-08-09T14:23:17Z</time>
      </trkpt>
      <trkpt lat="44.07135" lon="3.93531">
        <ele>159.72</ele>
        <time>2013-08-09T14:23:22Z</time>
      </trkpt>
      <trkpt lat="44.0712" lon="3.93524">
        <ele>160.2</ele>
        <time>2013-08-09T14:23:23Z</time>
      </trkpt>
      <trkpt lat="44.07108" lon="3.93511">
        <ele>160.68</ele>
        <time>2013-08-09T14:23:24Z</time>
      </trkpt>
      <trkpt lat="44.07096" lon="3.93496">
        <ele>160.68</ele>
        <time>2013-08-09T14:23:25Z</time>
      </trkpt>
      <trkpt lat="44.07084" lon="3.9348">
        <ele>161.16</ele>
        <time>2013-08-09T14:23:26Z</time>
      </trkpt>
      <trkpt lat="44.07072" lon="3.93465">
        <ele>161.16</ele>
        <time>2013-08-09T14:23:27Z</time>
      </trkpt>
      <trkpt lat="44.07062" lon="3.93453">
        <ele>161.64</ele>
        <time>2013-08-09T14:23:28Z</time>
      </trkpt>
      <trkpt lat="44.0705" lon="3.93447">
        <ele>162.12</ele>
        <time>2013-08-09T14:23:29Z</time>
      </trkpt>
      <trkpt lat="44.07037" lon="3.93446">
        <ele>162.12</ele>
        <time>2013-08-09T14:23:30Z</time>
      </trkpt>
      <trkpt lat="44.07022" lon="3.93451">
        <ele>162.12</ele>
        <time>2013-08-09T14:23:31Z</time>
      </trkpt>
      <trkpt lat="44.07005" lon="3.93461">
        <ele>162.12</ele>
        <time>2013-08-09T14:23:32Z</time>
      </trkpt>
      <trkpt lat="44.06987" lon="3.93469">
        <ele>162.6</ele>
        <time>2013-08-09T14:23:33Z</time>
      </trkpt>
      <trkpt lat="44.06968" lon="3.93478">
        <ele>163.08</ele>
        <time>2013-08-09T14:23:34Z</time>
      </trkpt>
      <trkpt lat="44.06925" lon="3.93488">
        <ele>163.56</ele>
        <time>2013-08-09T14:23:36Z</time>
      </trkpt>
      <trkpt lat="44.06903" lon="3.93492">
        <ele>163.56</ele>
        <time>2013-08-09T14:23:37Z</time>
      </trkpt>
      <trkpt lat="44.06881" lon="3.935">
        <ele>164.04</ele>
        <time>2013-08-09T14:23:38Z</time>
      </trkpt>
      <trkpt lat="44.0686" lon="3.93515">
        <ele>164.04</ele>
        <time>2013-08-09T14:23:39Z</time>
      </trkpt>
      <trkpt lat="44.06843" lon="3.93529">
        <ele>165</ele>
        <time>2013-08-09T14:23:40Z</time>
      </trkpt>
      <trkpt lat="44.06742" lon="3.93581">
        <ele>165.48</ele>
        <time>2013-08-09T14:23:46Z</time>
      </trkpt>
      <trkpt lat="44.0673" lon="3.93572">
        <ele>165.48</ele>
        <time>2013-08-09T14:23:47Z</time>
      </trkpt>
      <trkpt lat="44.06717" lon="3.93559">
        <ele>165.48</ele>
        <time>2013-08-09T14:23:48Z</time>
      </trkpt>
      <trkpt lat="44.06704" lon="3.93538">
        <ele>165</ele>
        <time>2013-08-09T14:23:49Z</time>
      </trkpt>
      <trkpt lat="44.06692" lon="3.93513">
        <ele>165</ele>
        <time>2013-08-09T14:23:50Z</time>
      </trkpt>
      <trkpt lat="44.06677" lon="3.93491">
        <ele>164.52</ele>
        <time>2013-08-09T14:23:51Z</time>
      </trkpt>
      <trkpt lat="44.06662" lon="3.93465">
        <ele>165</ele>
        <time>2013-08-09T14:23:52Z</time>
      </trkpt>
      <trkpt lat="44.06645" lon="3.9344">
        <ele>165.96</ele>
        <time>2013-08-09T14:23:53Z</time>
      </trkpt>
      <trkpt lat="44.06541" lon="3.93349">
        <ele>170.29</ele>
        <time>2013-08-09T14:23:58Z</time>
      </trkpt>
      <trkpt lat="44.06518" lon="3.93342">
        <ele>171.25</ele>
        <time>2013-08-09T14:23:59Z</time>
      </trkpt>
      <trkpt lat="44.06426" lon="3.93289">
        <ele>175.58</ele>
        <time>2013-08-09T14:24:04Z</time>
      </trkpt>
      <trkpt lat="44.0641" lon="3.93266">
        <ele>177.5</ele>
        <time>2013-08-09T14:24:05Z</time>
      </trkpt>
      <trkpt lat="44.06341" lon="3.93154">
        <ele>183.75</ele>
        <time>2013-08-09T14:24:10Z</time>
      </trkpt>
      <trkpt lat="44.06334" lon="3.93129">
        <ele>184.71</ele>
        <time>2013-08-09T14:24:11Z</time>
      </trkpt>
      <trkpt lat="44.06331" lon="3.93102">
        <ele>186.15</ele>
        <time>2013-08-09T14:24:12Z</time>
      </trkpt>
      <trkpt lat="44.06331" lon="3.93073">
        <ele>187.11</ele>
        <time>2013-08-09T14:24:13Z</time>
      </trkpt>
      <trkpt lat="44.06334" lon="3.93042">
        <ele>187.59</ele>
        <time>2013-08-09T14:24:14Z</time>
      </trkpt>
      <trkpt lat="44.06338" lon="3.93008">
        <ele>188.56</ele>
        <time>2013-08-09T14:24:15Z</time>
      </trkpt>
      <trkpt lat="44.06359" lon="3.92842">
        <ele>193.36</ele>
        <time>2013-08-09T14:24:20Z</time>
      </trkpt>
      <trkpt lat="44.06358" lon="3.92811">
        <ele>194.8</ele>
        <time>2013-08-09T14:24:21Z</time>
      </trkpt>
      <trkpt lat="44.06353" lon="3.92779">
        <ele>196.25</ele>
        <time>2013-08-09T14:24:22Z</time>
      </trkpt>
      <trkpt lat="44.06325" lon="3.92569">
        <ele>206.82</ele>
        <time>2013-08-09T14:24:28Z</time>
      </trkpt>
      <trkpt lat="44.06306" lon="3.9237">
        <ele>214.51</ele>
        <time>2013-08-09T14:24:34Z</time>
      </trkpt>
      <trkpt lat="44.06308" lon="3.92339">
        <ele>215.47</ele>
        <time>2013-08-09T14:24:35Z</time>
      </trkpt>
      <trkpt lat="44.06313" lon="3.92309">
        <ele>216.91</ele>
        <time>2013-08-09T14:24:36Z</time>
      </trkpt>
      <trkpt lat="44.0632" lon="3.92248">
        <ele>218.84</ele>
        <time>2013-08-09T14:24:38Z</time>
      </trkpt>
      <trkpt lat="44.0632" lon="3.92218">
        <ele>219.32</ele>
        <time>2013-08-09T14:24:39Z</time>
      </trkpt>
      <trkpt lat="44.06316" lon="3.92187">
        <ele>220.76</ele>
        <time>2013-08-09T14:24:40Z</time>
      </trkpt>
      <trkpt lat="44.06309" lon="3.92156">
        <ele>221.72</ele>
        <time>2013-08-09T14:24:41Z</time>
      </trkpt>
      <trkpt lat="44.063" lon="3.92123">
        <ele>223.16</ele>
        <time>2013-08-09T14:24:42Z</time>
      </trkpt>
      <trkpt lat="44.06221" lon="3.91936">
        <ele>225.57</ele>
        <time>2013-08-09T14:24:48Z</time>
      </trkpt>
      <trkpt lat="44.06156" lon="3.91753">
        <ele>227.01</ele>
        <time>2013-08-09T14:24:54Z</time>
      </trkpt>
      <trkpt lat="44.06153" lon="3.91728">
        <ele>227.49</ele>
        <time>2013-08-09T14:24:55Z</time>
      </trkpt>
      <trkpt lat="44.06152" lon="3.91702">
        <ele>227.01</ele>
        <time>2013-08-09T14:24:56Z</time>
      </trkpt>
      <trkpt lat="44.06155" lon="3.91676">
        <ele>226.53</ele>
        <time>2013-08-09T14:24:57Z</time>
      </trkpt>
      <trkpt lat="44.06162" lon="3.91647">
        <ele>226.05</ele>
        <time>2013-08-09T14:24:58Z</time>
      </trkpt>
      <trkpt lat="44.06172" lon="3.91616">
        <ele>225.57</ele>
        <time>2013-08-09T14:24:59Z</time>
      </trkpt>
      <trkpt lat="44.06188" lon="3.9155">
        <ele>225.57</ele>
        <time>2013-08-09T14:25:01Z</time>
      </trkpt>
      <trkpt lat="44.06193" lon="3.91515">
        <ele>226.05</ele>
        <time>2013-08-09T14:25:02Z</time>
      </trkpt>
      <trkpt lat="44.06196" lon="3.91479">
        <ele>226.53</ele>
        <time>2013-08-09T14:25:03Z</time>
      </trkpt>
      <trkpt lat="44.06196" lon="3.91444">
        <ele>227.01</ele>
        <time>2013-08-09T14:25:04Z</time>
      </trkpt>
      <trkpt lat="44.06195" lon="3.9141">
        <ele>227.49</ele>
        <time>2013-08-09T14:25:05Z</time>
      </trkpt>
      <trkpt lat="44.06193" lon="3.91378">
        <ele>227.97</ele>
        <time>2013-08-09T14:25:06Z</time>
      </trkpt>
      <trkpt lat="44.06189" lon="3.91348">
        <ele>228.45</ele>
        <time>2013-08-09T14:25:07Z</time>
      </trkpt>
      <trkpt lat="44.0618" lon="3.91319">
        <ele>228.93</ele>
        <time>2013-08-09T14:25:08Z</time>
      </trkpt>
      <trkpt lat="44.06169" lon="3.91291">
        <ele>229.41</ele>
        <time>2013-08-09T14:25:09Z</time>
      </trkpt>
      <trkpt lat="44.06156" lon="3.91263">
        <ele>229.41</ele>
        <time>2013-08-09T14:25:10Z</time>
      </trkpt>
      <trkpt lat="44.06144" lon="3.91237">
        <ele>229.41</ele>
        <time>2013-08-09T14:25:11Z</time>
      </trkpt>
      <trkpt lat="44.06128" lon="3.91186">
        <ele>228.93</ele>
        <time>2013-08-09T14:25:13Z</time>
      </trkpt>
      <trkpt lat="44.06126" lon="3.91157">
        <ele>228.93</ele>
        <time>2013-08-09T14:25:14Z</time>
      </trkpt>
      <trkpt lat="44.06125" lon="3.91124">
        <ele>229.41</ele>
        <time>2013-08-09T14:25:15Z</time>
      </trkpt>
      <trkpt lat="44.06113" lon="3.91027">
        <ele>229.41</ele>
        <time>2013-08-09T14:25:18Z</time>
      </trkpt>
      <trkpt lat="44.06101" lon="3.90994">
        <ele>229.89</ele>
        <time>2013-08-09T14:25:19Z</time>
      </trkpt>
      <trkpt lat="44.06086" lon="3.90962">
        <ele>230.37</ele>
        <time>2013-08-09T14:25:20Z</time>
      </trkpt>
      <trkpt lat="44.0607" lon="3.9093">
        <ele>230.85</ele>
        <time>2013-08-09T14:25:21Z</time>
      </trkpt>
      <trkpt lat="44.06053" lon="3.90898">
        <ele>231.33</ele>
        <time>2013-08-09T14:25:22Z</time>
      </trkpt>
      <trkpt lat="44.05878" lon="3.90604">
        <ele>232.78</ele>
        <time>2013-08-09T14:25:32Z</time>
      </trkpt>
      <trkpt lat="44.05854" lon="3.90583">
        <ele>232.78</ele>
        <time>2013-08-09T14:25:33Z</time>
      </trkpt>
      <trkpt lat="44.05827" lon="3.90568">
        <ele>233.26</ele>
        <time>2013-08-09T14:25:34Z</time>
      </trkpt>
      <trkpt lat="44.058" lon="3.90556">
        <ele>232.78</ele>
        <time>2013-08-09T14:25:35Z</time>
      </trkpt>
      <trkpt lat="44.05772" lon="3.90547">
        <ele>232.78</ele>
        <time>2013-08-09T14:25:36Z</time>
      </trkpt>
      <trkpt lat="44.05746" lon="3.90536">
        <ele>231.81</ele>
        <time>2013-08-09T14:25:37Z</time>
      </trkpt>
      <trkpt lat="44.05583" lon="3.90478">
        <ele>227.49</ele>
        <time>2013-08-09T14:25:44Z</time>
      </trkpt>
      <trkpt lat="44.05564" lon="3.90472">
        <ele>227.49</ele>
        <time>2013-08-09T14:25:45Z</time>
      </trkpt>
      <trkpt lat="44.05545" lon="3.90461">
        <ele>227.01</ele>
        <time>2013-08-09T14:25:46Z</time>
      </trkpt>
      <trkpt lat="44.05523" lon="3.90446">
        <ele>227.49</ele>
        <time>2013-08-09T14:25:47Z</time>
      </trkpt>
      <trkpt lat="44.05502" lon="3.90431">
        <ele>227.49</ele>
        <time>2013-08-09T14:25:48Z</time>
      </trkpt>
      <trkpt lat="44.0548" lon="3.9042">
        <ele>227.01</ele>
        <time>2013-08-09T14:25:49Z</time>
      </trkpt>
      <trkpt lat="44.0546" lon="3.90409">
        <ele>227.01</ele>
        <time>2013-08-09T14:25:50Z</time>
      </trkpt>
      <trkpt lat="44.05411" lon="3.90372">
        <ele>226.53</ele>
        <time>2013-08-09T14:25:53Z</time>
      </trkpt>
      <trkpt lat="44.05401" lon="3.90349">
        <ele>226.05</ele>
        <time>2013-08-09T14:25:54Z</time>
      </trkpt>
      <trkpt lat="44.05394" lon="3.90323">
        <ele>225.57</ele>
        <time>2013-08-09T14:25:55Z</time>
      </trkpt>
      <trkpt lat="44.05388" lon="3.90297">
        <ele>225.09</ele>
        <time>2013-08-09T14:25:56Z</time>
      </trkpt>
      <trkpt lat="44.05385" lon="3.90272">
        <ele>224.61</ele>
        <time>2013-08-09T14:25:57Z</time>
      </trkpt>
      <trkpt lat="44.05382" lon="3.90248">
        <ele>225.09</ele>
        <time>2013-08-09T14:25:58Z</time>
      </trkpt>
      <trkpt lat="44.05373" lon="3.90212">
        <ele>225.09</ele>
        <time>2013-08-09T14:26:00Z</time>
      </trkpt>
      <trkpt lat="44.05364" lon="3.902">
        <ele>224.61</ele>
        <time>2013-08-09T14:26:01Z</time>
      </trkpt>
      <trkpt lat="44.05353" lon="3.90192">
        <ele>224.61</ele>
        <time>2013-08-09T14:26:02Z</time>
      </trkpt>
      <trkpt lat="44.0534" lon="3.90188">
        <ele>224.12</ele>
        <time>2013-08-09T14:26:03Z</time>
      </trkpt>
      <trkpt lat="44.05327" lon="3.90191">
        <ele>224.61</ele>
        <time>2013-08-09T14:26:04Z</time>
      </trkpt>
      <trkpt lat="44.05313" lon="3.90193">
        <ele>225.09</ele>
        <time>2013-08-09T14:26:05Z</time>
      </trkpt>
      <trkpt lat="44.05298" lon="3.90196">
        <ele>226.05</ele>
        <time>2013-08-09T14:26:06Z</time>
      </trkpt>
      <trkpt lat="44.05282" lon="3.90199">
        <ele>225.57</ele>
        <time>2013-08-09T14:26:07Z</time>
      </trkpt>
      <trkpt lat="44.05193" lon="3.90187">
        <ele>222.68</ele>
        <time>2013-08-09T14:26:11Z</time>
      </trkpt>
      <trkpt lat="44.05063" lon="3.90158">
        <ele>215.47</ele>
        <time>2013-08-09T14:26:18Z</time>
      </trkpt>
      <trkpt lat="44.05049" lon="3.90151">
        <ele>214.99</ele>
        <time>2013-08-09T14:26:19Z</time>
      </trkpt>
      <trkpt lat="44.05037" lon="3.90141">
        <ele>213.55</ele>
        <time>2013-08-09T14:26:20Z</time>
      </trkpt>
      <trkpt lat="44.05027" lon="3.90127">
        <ele>212.59</ele>
        <time>2013-08-09T14:26:21Z</time>
      </trkpt>
      <trkpt lat="44.05018" lon="3.90109">
        <ele>211.63</ele>
        <time>2013-08-09T14:26:22Z</time>
      </trkpt>
      <trkpt lat="44.05008" lon="3.90091">
        <ele>211.15</ele>
        <time>2013-08-09T14:26:23Z</time>
      </trkpt>
      <trkpt lat="44.04975" lon="3.90045">
        <ele>208.74</ele>
        <time>2013-08-09T14:26:26Z</time>
      </trkpt>
      <trkpt lat="44.04899" lon="3.89982">
        <ele>207.3</ele>
        <time>2013-08-09T14:26:30Z</time>
      </trkpt>
      <trkpt lat="44.0473" lon="3.89869">
        <ele>207.3</ele>
        <time>2013-08-09T14:26:38Z</time>
      </trkpt>
      <trkpt lat="44.04664" lon="3.89768">
        <ele>207.3</ele>
        <time>2013-08-09T14:26:43Z</time>
      </trkpt>
      <trkpt lat="44.04628" lon="3.89699">
        <ele>206.34</ele>
        <time>2013-08-09T14:26:46Z</time>
      </trkpt>
      <trkpt lat="44.0461" lon="3.8968">
        <ele>205.86</ele>
        <time>2013-08-09T14:26:47Z</time>
      </trkpt>
      <trkpt lat="44.04591" lon="3.89662">
        <ele>205.86</ele>
        <time>2013-08-09T14:26:48Z</time>
      </trkpt>
      <trkpt lat="44.04572" lon="3.89646">
        <ele>205.86</ele>
        <time>2013-08-09T14:26:49Z</time>
      </trkpt>
      <trkpt lat="44.04553" lon="3.89632">
        <ele>205.38</ele>
        <time>2013-08-09T14:26:50Z</time>
      </trkpt>
      <trkpt lat="44.04536" lon="3.89621">
        <ele>205.38</ele>
        <time>2013-08-09T14:26:51Z</time>
      </trkpt>
      <trkpt lat="44.04495" lon="3.89589">
        <ele>206.34</ele>
        <time>2013-08-09T14:26:54Z</time>
      </trkpt>
      <trkpt lat="44.04485" lon="3.89572">
        <ele>206.34</ele>
        <time>2013-08-09T14:26:55Z</time>
      </trkpt>
      <trkpt lat="44.04478" lon="3.89549">
        <ele>206.34</ele>
        <time>2013-08-09T14:26:56Z</time>
      </trkpt>
      <trkpt lat="44.04473" lon="3.89519">
        <ele>205.86</ele>
        <time>2013-08-09T14:26:57Z</time>
      </trkpt>
      <trkpt lat="44.04471" lon="3.8949">
        <ele>204.9</ele>
        <time>2013-08-09T14:26:58Z</time>
      </trkpt>
      <trkpt lat="44.04468" lon="3.89459">
        <ele>204.9</ele>
        <time>2013-08-09T14:26:59Z</time>
      </trkpt>
      <trkpt lat="44.04467" lon="3.89426">
        <ele>204.42</ele>
        <time>2013-08-09T14:27:00Z</time>
      </trkpt>
      <trkpt lat="44.04466" lon="3.89393">
        <ele>203.94</ele>
        <time>2013-08-09T14:27:01Z</time>
      </trkpt>
      <trkpt lat="44.04453" lon="3.8929">
        <ele>207.78</ele>
        <time>2013-08-09T14:27:04Z</time>
      </trkpt>
      <trkpt lat="44.04444" lon="3.89257">
        <ele>208.26</ele>
        <time>2013-08-09T14:27:05Z</time>
      </trkpt>
      <trkpt lat="44.04384" lon="3.89019">
        <ele>214.03</ele>
        <time>2013-08-09T14:27:12Z</time>
      </trkpt>
      <trkpt lat="44.04358" lon="3.88944">
        <ele>217.4</ele>
        <time>2013-08-09T14:27:15Z</time>
      </trkpt>
      <trkpt lat="44.04326" lon="3.88864">
        <ele>222.2</ele>
        <time>2013-08-09T14:27:19Z</time>
      </trkpt>
      <trkpt lat="44.04296" lon="3.88723">
        <ele>224.61</ele>
        <time>2013-08-09T14:27:25Z</time>
      </trkpt>
      <trkpt lat="44.04295" lon="3.88699">
        <ele>224.61</ele>
        <time>2013-08-09T14:27:26Z</time>
      </trkpt>
      <trkpt lat="44.04297" lon="3.88672">
        <ele>224.12</ele>
        <time>2013-08-09T14:27:27Z</time>
      </trkpt>
      <trkpt lat="44.04327" lon="3.88498">
        <ele>224.61</ele>
        <time>2013-08-09T14:27:34Z</time>
      </trkpt>
      <trkpt lat="44.04363" lon="3.88373">
        <ele>221.24</ele>
        <time>2013-08-09T14:27:39Z</time>
      </trkpt>
      <trkpt lat="44.04372" lon="3.88202">
        <ele>219.8</ele>
        <time>2013-08-09T14:27:45Z</time>
      </trkpt>
      <trkpt lat="44.04416" lon="3.88013">
        <ele>217.4</ele>
        <time>2013-08-09T14:27:52Z</time>
      </trkpt>
      <trkpt lat="44.04445" lon="3.87952">
        <ele>215.95</ele>
        <time>2013-08-09T14:27:55Z</time>
      </trkpt>
      <trkpt lat="44.04457" lon="3.8794">
        <ele>215.47</ele>
        <time>2013-08-09T14:27:56Z</time>
      </trkpt>
      <trkpt lat="44.0447" lon="3.87928">
        <ele>215.95</ele>
        <time>2013-08-09T14:27:57Z</time>
      </trkpt>
      <trkpt lat="44.04486" lon="3.87921">
        <ele>216.91</ele>
        <time>2013-08-09T14:27:58Z</time>
      </trkpt>
      <trkpt lat="44.04504" lon="3.87917">
        <ele>217.4</ele>
        <time>2013-08-09T14:27:59Z</time>
      </trkpt>
      <trkpt lat="44.04524" lon="3.87913">
        <ele>217.88</ele>
        <time>2013-08-09T14:28:00Z</time>
      </trkpt>
      <trkpt lat="44.04543" lon="3.87906">
        <ele>217.88</ele>
        <time>2013-08-09T14:28:01Z</time>
      </trkpt>
      <trkpt lat="44.0456" lon="3.87898">
        <ele>218.36</ele>
        <time>2013-08-09T14:28:02Z</time>
      </trkpt>
      <trkpt lat="44.04575" lon="3.8789">
        <ele>218.84</ele>
        <time>2013-08-09T14:28:03Z</time>
      </trkpt>
      <trkpt lat="44.04588" lon="3.8788">
        <ele>218.84</ele>
        <time>2013-08-09T14:28:04Z</time>
      </trkpt>
      <trkpt lat="44.04599" lon="3.87867">
        <ele>219.32</ele>
        <time>2013-08-09T14:28:05Z</time>
      </trkpt>
      <trkpt lat="44.04608" lon="3.87852">
        <ele>218.84</ele>
        <time>2013-08-09T14:28:06Z</time>
      </trkpt>
      <trkpt lat="44.04615" lon="3.87833">
        <ele>217.88</ele>
        <time>2013-08-09T14:28:07Z</time>
      </trkpt>
      <trkpt lat="44.04621" lon="3.87808">
        <ele>218.84</ele>
        <time>2013-08-09T14:28:08Z</time>
      </trkpt>
      <trkpt lat="44.04625" lon="3.87779">
        <ele>219.8</ele>
        <time>2013-08-09T14:28:09Z</time>
      </trkpt>
      <trkpt lat="44.04628" lon="3.87748">
        <ele>221.24</ele>
        <time>2013-08-09T14:28:10Z</time>
      </trkpt>
      <trkpt lat="44.0463" lon="3.87716">
        <ele>222.68</ele>
        <time>2013-08-09T14:28:11Z</time>
      </trkpt>
      <trkpt lat="44.04632" lon="3.87499">
        <ele>228.93</ele>
        <time>2013-08-09T14:28:18Z</time>
      </trkpt>
      <trkpt lat="44.04634" lon="3.87467">
        <ele>229.89</ele>
        <time>2013-08-09T14:28:19Z</time>
      </trkpt>
      <trkpt lat="44.04639" lon="3.87437">
        <ele>230.85</ele>
        <time>2013-08-09T14:28:20Z</time>
      </trkpt>
      <trkpt lat="44.04645" lon="3.87408">
        <ele>231.81</ele>
        <time>2013-08-09T14:28:21Z</time>
      </trkpt>
      <trkpt lat="44.04652" lon="3.8738">
        <ele>232.78</ele>
        <time>2013-08-09T14:28:22Z</time>
      </trkpt>
      <trkpt lat="44.04662" lon="3.87356">
        <ele>231.81</ele>
        <time>2013-08-09T14:28:23Z</time>
      </trkpt>
      <trkpt lat="44.04676" lon="3.87332">
        <ele>231.81</ele>
        <time>2013-08-09T14:28:24Z</time>
      </trkpt>
      <trkpt lat="44.04691" lon="3.87308">
        <ele>232.78</ele>
        <time>2013-08-09T14:28:25Z</time>
      </trkpt>
      <trkpt lat="44.04706" lon="3.87283">
        <ele>233.26</ele>
        <time>2013-08-09T14:28:26Z</time>
      </trkpt>
      <trkpt lat="44.04765" lon="3.87198">
        <ele>237.58</ele>
        <time>2013-08-09T14:28:30Z</time>
      </trkpt>
      <trkpt lat="44.04804" lon="3.87167">
        <ele>239.51</ele>
        <time>2013-08-09T14:28:33Z</time>
      </trkpt>
      <trkpt lat="44.0481" lon="3.87156">
        <ele>239.99</ele>
        <time>2013-08-09T14:28:34Z</time>
      </trkpt>
      <trkpt lat="44.04812" lon="3.87143">
        <ele>240.47</ele>
        <time>2013-08-09T14:28:35Z</time>
      </trkpt>
      <trkpt lat="44.04809" lon="3.87129">
        <ele>240.95</ele>
        <time>2013-08-09T14:28:36Z</time>
      </trkpt>
      <trkpt lat="44.04799" lon="3.87117">
        <ele>240.47</ele>
        <time>2013-08-09T14:28:37Z</time>
      </trkpt>
      <trkpt lat="44.04789" lon="3.87108">
        <ele>240.95</ele>
        <time>2013-08-09T14:28:38Z</time>
      </trkpt>
      <trkpt lat="44.04776" lon="3.87107">
        <ele>241.43</ele>
        <time>2013-08-09T14:28:39Z</time>
      </trkpt>
      <trkpt lat="44.04763" lon="3.87107">
        <ele>241.91</ele>
        <time>2013-08-09T14:28:40Z</time>
      </trkpt>
      <trkpt lat="44.04745" lon="3.87108">
        <ele>242.39</ele>
        <time>2013-08-09T14:28:41Z</time>
      </trkpt>
      <trkpt lat="44.04726" lon="3.87106">
        <ele>243.35</ele>
        <time>2013-08-09T14:28:42Z</time>
      </trkpt>
      <trkpt lat="44.0469" lon="3.87095">
        <ele>245.75</ele>
        <time>2013-08-09T14:28:44Z</time>
      </trkpt>
      <trkpt lat="44.04674" lon="3.87085">
        <ele>246.23</ele>
        <time>2013-08-09T14:28:45Z</time>
      </trkpt>
      <trkpt lat="44.04661" lon="3.87072">
        <ele>247.2</ele>
        <time>2013-08-09T14:28:46Z</time>
      </trkpt>
      <trkpt lat="44.04648" lon="3.8706">
        <ele>247.68</ele>
        <time>2013-08-09T14:28:47Z</time>
      </trkpt>
      <trkpt lat="44.04634" lon="3.87051">
        <ele>248.64</ele>
        <time>2013-08-09T14:28:48Z</time>
      </trkpt>
      <trkpt lat="44.04619" lon="3.87047">
        <ele>249.12</ele>
        <time>2013-08-09T14:28:49Z</time>
      </trkpt>
      <trkpt lat="44.04605" lon="3.87045">
        <ele>250.08</ele>
        <time>2013-08-09T14:28:50Z</time>
      </trkpt>
      <trkpt lat="44.04591" lon="3.8704">
        <ele>250.56</ele>
        <time>2013-08-09T14:28:51Z</time>
      </trkpt>
      <trkpt lat="44.04578" lon="3.87032">
        <ele>251.52</ele>
        <time>2013-08-09T14:28:52Z</time>
      </trkpt>
      <trkpt lat="44.04565" lon="3.87017">
        <ele>252</ele>
        <time>2013-08-09T14:28:53Z</time>
      </trkpt>
      <trkpt lat="44.04552" lon="3.86999">
        <ele>252.96</ele>
        <time>2013-08-09T14:28:54Z</time>
      </trkpt>
      <trkpt lat="44.04539" lon="3.8698">
        <ele>253.93</ele>
        <time>2013-08-09T14:28:55Z</time>
      </trkpt>
      <trkpt lat="44.04486" lon="3.86898">
        <ele>257.77</ele>
        <time>2013-08-09T14:28:59Z</time>
      </trkpt>
      <trkpt lat="44.04471" lon="3.86881">
        <ele>258.25</ele>
        <time>2013-08-09T14:29:00Z</time>
      </trkpt>
      <trkpt lat="44.0444" lon="3.86845">
        <ele>260.65</ele>
        <time>2013-08-09T14:29:02Z</time>
      </trkpt>
      <trkpt lat="44.0439" lon="3.86739">
        <ele>265.46</ele>
        <time>2013-08-09T14:29:07Z</time>
      </trkpt>
      <trkpt lat="44.04384" lon="3.8671">
        <ele>266.42</ele>
        <time>2013-08-09T14:29:08Z</time>
      </trkpt>
      <trkpt lat="44.04364" lon="3.86657">
        <ele>268.83</ele>
        <time>2013-08-09T14:29:10Z</time>
      </trkpt>
      <trkpt lat="44.04353" lon="3.86631">
        <ele>269.79</ele>
        <time>2013-08-09T14:29:11Z</time>
      </trkpt>
      <trkpt lat="44.04278" lon="3.8648">
        <ele>277.96</ele>
        <time>2013-08-09T14:29:18Z</time>
      </trkpt>
      <trkpt lat="44.0424" lon="3.86427">
        <ele>280.36</ele>
        <time>2013-08-09T14:29:21Z</time>
      </trkpt>
      <trkpt lat="44.04225" lon="3.86412">
        <ele>281.32</ele>
        <time>2013-08-09T14:29:22Z</time>
      </trkpt>
      <trkpt lat="44.0413" lon="3.86278">
        <ele>283.73</ele>
        <time>2013-08-09T14:29:30Z</time>
      </trkpt>
      <trkpt lat="44.04097" lon="3.8623">
        <ele>281.8</ele>
        <time>2013-08-09T14:29:33Z</time>
      </trkpt>
      <trkpt lat="44.04083" lon="3.86218">
        <ele>280.84</ele>
        <time>2013-08-09T14:29:34Z</time>
      </trkpt>
      <trkpt lat="44.04026" lon="3.86183">
        <ele>278.44</ele>
        <time>2013-08-09T14:29:38Z</time>
      </trkpt>
      <trkpt lat="44.04011" lon="3.86182">
        <ele>277.48</ele>
        <time>2013-08-09T14:29:39Z</time>
      </trkpt>
      <trkpt lat="44.03994" lon="3.86182">
        <ele>277.48</ele>
        <time>2013-08-09T14:29:40Z</time>
      </trkpt>
      <trkpt lat="44.03976" lon="3.86184">
        <ele>277</ele>
        <time>2013-08-09T14:29:41Z</time>
      </trkpt>
      <trkpt lat="44.03957" lon="3.86184">
        <ele>277</ele>
        <time>2013-08-09T14:29:42Z</time>
      </trkpt>
      <trkpt lat="44.03938" lon="3.86184">
        <ele>274.59</ele>
        <time>2013-08-09T14:29:43Z</time>
      </trkpt>
      <trkpt lat="44.0392" lon="3.86178">
        <ele>273.63</ele>
        <time>2013-08-09T14:29:44Z</time>
      </trkpt>
      <trkpt lat="44.03901" lon="3.86169">
        <ele>273.15</ele>
        <time>2013-08-09T14:29:45Z</time>
      </trkpt>
      <trkpt lat="44.03883" lon="3.86161">
        <ele>272.19</ele>
        <time>2013-08-09T14:29:46Z</time>
      </trkpt>
      <trkpt lat="44.03759" lon="3.8611">
        <ele>269.79</ele>
        <time>2013-08-09T14:29:54Z</time>
      </trkpt>
      <trkpt lat="44.03746" lon="3.8611">
        <ele>269.79</ele>
        <time>2013-08-09T14:29:55Z</time>
      </trkpt>
      <trkpt lat="44.03618" lon="3.86115">
        <ele>270.75</ele>
        <time>2013-08-09T14:30:06Z</time>
      </trkpt>
      <trkpt lat="44.03589" lon="3.8611">
        <ele>272.19</ele>
        <time>2013-08-09T14:30:09Z</time>
      </trkpt>
      <trkpt lat="44.0351" lon="3.86078">
        <ele>275.56</ele>
        <time>2013-08-09T14:30:15Z</time>
      </trkpt>
      <trkpt lat="44.03286" lon="3.85986">
        <ele>281.32</ele>
        <time>2013-08-09T14:30:26Z</time>
      </trkpt>
      <trkpt lat="44.03158" lon="3.85891">
        <ele>283.73</ele>
        <time>2013-08-09T14:30:33Z</time>
      </trkpt>
      <trkpt lat="44.03061" lon="3.85806">
        <ele>282.77</ele>
        <time>2013-08-09T14:30:40Z</time>
      </trkpt>
      <trkpt lat="44.02991" lon="3.85749">
        <ele>284.21</ele>
        <time>2013-08-09T14:30:45Z</time>
      </trkpt>
      <trkpt lat="44.02978" lon="3.85748">
        <ele>284.69</ele>
        <time>2013-08-09T14:30:46Z</time>
      </trkpt>
      <trkpt lat="44.02967" lon="3.85751">
        <ele>284.69</ele>
        <time>2013-08-09T14:30:47Z</time>
      </trkpt>
      <trkpt lat="44.02959" lon="3.8576">
        <ele>285.65</ele>
        <time>2013-08-09T14:30:48Z</time>
      </trkpt>
      <trkpt lat="44.02954" lon="3.85772">
        <ele>286.61</ele>
        <time>2013-08-09T14:30:49Z</time>
      </trkpt>
      <trkpt lat="44.02942" lon="3.85796">
        <ele>287.57</ele>
        <time>2013-08-09T14:30:51Z</time>
      </trkpt>
      <trkpt lat="44.02937" lon="3.85807">
        <ele>287.57</ele>
        <time>2013-08-09T14:30:52Z</time>
      </trkpt>
      <trkpt lat="44.02939" lon="3.8582">
        <ele>285.65</ele>
        <time>2013-08-09T14:30:53Z</time>
      </trkpt>
      <trkpt lat="44.02943" lon="3.85829">
        <ele>285.17</ele>
        <time>2013-08-09T14:30:54Z</time>
      </trkpt>
      <trkpt lat="44.02952" lon="3.85842">
        <ele>284.69</ele>
        <time>2013-08-09T14:30:55Z</time>
      </trkpt>
      <trkpt lat="44.02962" lon="3.85854">
        <ele>284.21</ele>
        <time>2013-08-09T14:30:56Z</time>
      </trkpt>
      <trkpt lat="44.02972" lon="3.85869">
        <ele>284.69</ele>
        <time>2013-08-09T14:30:57Z</time>
      </trkpt>
      <trkpt lat="44.02992" lon="3.85928">
        <ele>287.57</ele>
        <time>2013-08-09T14:31:00Z</time>
      </trkpt>
      <trkpt lat="44.03007" lon="3.85973">
        <ele>290.94</ele>
        <time>2013-08-09T14:31:03Z</time>
      </trkpt>
      <trkpt lat="44.03006" lon="3.85987">
        <ele>291.9</ele>
        <time>2013-08-09T14:31:04Z</time>
      </trkpt>
      <trkpt lat="44.02997" lon="3.86">
        <ele>292.38</ele>
        <time>2013-08-09T14:31:05Z</time>
      </trkpt>
      <trkpt lat="44.02987" lon="3.86007">
        <ele>292.38</ele>
        <time>2013-08-09T14:31:06Z</time>
      </trkpt>
      <trkpt lat="44.02973" lon="3.86017">
        <ele>293.34</ele>
        <time>2013-08-09T14:31:07Z</time>
      </trkpt>
      <trkpt lat="44.02955" lon="3.86025">
        <ele>294.3</ele>
        <time>2013-08-09T14:31:08Z</time>
      </trkpt>
      <trkpt lat="44.02937" lon="3.86032">
        <ele>295.26</ele>
        <time>2013-08-09T14:31:09Z</time>
      </trkpt>
      <trkpt lat="44.02918" lon="3.86036">
        <ele>296.22</ele>
        <time>2013-08-09T14:31:10Z</time>
      </trkpt>
      <trkpt lat="44.02898" lon="3.86037">
        <ele>297.18</ele>
        <time>2013-08-09T14:31:11Z</time>
      </trkpt>
      <trkpt lat="44.0288" lon="3.86033">
        <ele>298.63</ele>
        <time>2013-08-09T14:31:12Z</time>
      </trkpt>
      <trkpt lat="44.02862" lon="3.8603">
        <ele>300.07</ele>
        <time>2013-08-09T14:31:13Z</time>
      </trkpt>
      <trkpt lat="44.02845" lon="3.86026">
        <ele>301.03</ele>
        <time>2013-08-09T14:31:14Z</time>
      </trkpt>
      <trkpt lat="44.02829" lon="3.86026">
        <ele>302.47</ele>
        <time>2013-08-09T14:31:15Z</time>
      </trkpt>
      <trkpt lat="44.02813" lon="3.8603">
        <ele>302.95</ele>
        <time>2013-08-09T14:31:16Z</time>
      </trkpt>
      <trkpt lat="44.02799" lon="3.86039">
        <ele>304.39</ele>
        <time>2013-08-09T14:31:17Z</time>
      </trkpt>
      <trkpt lat="44.02785" lon="3.86048">
        <ele>307.76</ele>
        <time>2013-08-09T14:31:18Z</time>
      </trkpt>
      <trkpt lat="44.02773" lon="3.86059">
        <ele>309.68</ele>
        <time>2013-08-09T14:31:19Z</time>
      </trkpt>
      <trkpt lat="44.02762" lon="3.86068">
        <ele>311.6</ele>
        <time>2013-08-09T14:31:20Z</time>
      </trkpt>
      <trkpt lat="44.02744" lon="3.8608">
        <ele>313.05</ele>
        <time>2013-08-09T14:31:22Z</time>
      </trkpt>
      <trkpt lat="44.02736" lon="3.86079">
        <ele>313.53</ele>
        <time>2013-08-09T14:31:23Z</time>
      </trkpt>
      <trkpt lat="44.02729" lon="3.86073">
        <ele>314.49</ele>
        <time>2013-08-09T14:31:24Z</time>
      </trkpt>
      <trkpt lat="44.02722" lon="3.86062">
        <ele>314.97</ele>
        <time>2013-08-09T14:31:25Z</time>
      </trkpt>
      <trkpt lat="44.02716" lon="3.86045">
        <ele>315.45</ele>
        <time>2013-08-09T14:31:26Z</time>
      </trkpt>
      <trkpt lat="44.02713" lon="3.86029">
        <ele>315.93</ele>
        <time>2013-08-09T14:31:27Z</time>
      </trkpt>
      <trkpt lat="44.0271" lon="3.86011">
        <ele>316.89</ele>
        <time>2013-08-09T14:31:28Z</time>
      </trkpt>
      <trkpt lat="44.02709" lon="3.85995">
        <ele>317.85</ele>
        <time>2013-08-09T14:31:29Z</time>
      </trkpt>
      <trkpt lat="44.02708" lon="3.85981">
        <ele>318.81</ele>
        <time>2013-08-09T14:31:30Z</time>
      </trkpt>
      <trkpt lat="44.02709" lon="3.85968">
        <ele>320.26</ele>
        <time>2013-08-09T14:31:31Z</time>
      </trkpt>
      <trkpt lat="44.02709" lon="3.85955">
        <ele>320.26</ele>
        <time>2013-08-09T14:31:32Z</time>
      </trkpt>
      <trkpt lat="44.02709" lon="3.85943">
        <ele>321.22</ele>
        <time>2013-08-09T14:31:33Z</time>
      </trkpt>
      <trkpt lat="44.02707" lon="3.85931">
        <ele>321.7</ele>
        <time>2013-08-09T14:31:34Z</time>
      </trkpt>
      <trkpt lat="44.02703" lon="3.8592">
        <ele>323.14</ele>
        <time>2013-08-09T14:31:35Z</time>
      </trkpt>
      <trkpt lat="44.02697" lon="3.85911">
        <ele>323.14</ele>
        <time>2013-08-09T14:31:36Z</time>
      </trkpt>
      <trkpt lat="44.02688" lon="3.85903">
        <ele>323.14</ele>
        <time>2013-08-09T14:31:37Z</time>
      </trkpt>
      <trkpt lat="44.02681" lon="3.85896">
        <ele>323.62</ele>
        <time>2013-08-09T14:31:38Z</time>
      </trkpt>
      <trkpt lat="44.02674" lon="3.85887">
        <ele>324.1</ele>
        <time>2013-08-09T14:31:39Z</time>
      </trkpt>
      <trkpt lat="44.02671" lon="3.85875">
        <ele>325.06</ele>
        <time>2013-08-09T14:31:40Z</time>
      </trkpt>
      <trkpt lat="44.02671" lon="3.85862">
        <ele>326.99</ele>
        <time>2013-08-09T14:31:41Z</time>
      </trkpt>
      <trkpt lat="44.02675" lon="3.85847">
        <ele>328.91</ele>
        <time>2013-08-09T14:31:42Z</time>
      </trkpt>
      <trkpt lat="44.02681" lon="3.85836">
        <ele>329.87</ele>
        <time>2013-08-09T14:31:43Z</time>
      </trkpt>
      <trkpt lat="44.02688" lon="3.85825">
        <ele>330.83</ele>
        <time>2013-08-09T14:31:44Z</time>
      </trkpt>
      <trkpt lat="44.02696" lon="3.85817">
        <ele>331.31</ele>
        <time>2013-08-09T14:31:45Z</time>
      </trkpt>
      <trkpt lat="44.02709" lon="3.8581">
        <ele>332.27</ele>
        <time>2013-08-09T14:31:46Z</time>
      </trkpt>
      <trkpt lat="44.02719" lon="3.85804">
        <ele>333.71</ele>
        <time>2013-08-09T14:31:47Z</time>
      </trkpt>
      <trkpt lat="44.02729" lon="3.85796">
        <ele>334.2</ele>
        <time>2013-08-09T14:31:48Z</time>
      </trkpt>
      <trkpt lat="44.02736" lon="3.85786">
        <ele>333.71</ele>
        <time>2013-08-09T14:31:49Z</time>
      </trkpt>
      <trkpt lat="44.02739" lon="3.85773">
        <ele>333.71</ele>
        <time>2013-08-09T14:31:50Z</time>
      </trkpt>
      <trkpt lat="44.02742" lon="3.85758">
        <ele>334.2</ele>
        <time>2013-08-09T14:31:51Z</time>
      </trkpt>
      <trkpt lat="44.02743" lon="3.85741">
        <ele>335.16</ele>
        <time>2013-08-09T14:31:52Z</time>
      </trkpt>
      <trkpt lat="44.02744" lon="3.85723">
        <ele>336.12</ele>
        <time>2013-08-09T14:31:53Z</time>
      </trkpt>
      <trkpt lat="44.02745" lon="3.85688">
        <ele>338.04</ele>
        <time>2013-08-09T14:31:55Z</time>
      </trkpt>
      <trkpt lat="44.02744" lon="3.85671">
        <ele>338.52</ele>
        <time>2013-08-09T14:31:56Z</time>
      </trkpt>
      <trkpt lat="44.02742" lon="3.85655">
        <ele>339.48</ele>
        <time>2013-08-09T14:31:57Z</time>
      </trkpt>
      <trkpt lat="44.02738" lon="3.85639">
        <ele>339.48</ele>
        <time>2013-08-09T14:31:58Z</time>
      </trkpt>
      <trkpt lat="44.02733" lon="3.85623">
        <ele>339.48</ele>
        <time>2013-08-09T14:31:59Z</time>
      </trkpt>
      <trkpt lat="44.02726" lon="3.85606">
        <ele>340.44</ele>
        <time>2013-08-09T14:32:00Z</time>
      </trkpt>
      <trkpt lat="44.02719" lon="3.85591">
        <ele>341.41</ele>
        <time>2013-08-09T14:32:01Z</time>
      </trkpt>
      <trkpt lat="44.02711" lon="3.85576">
        <ele>341.41</ele>
        <time>2013-08-09T14:32:02Z</time>
      </trkpt>
      <trkpt lat="44.02694" lon="3.85551">
        <ele>342.37</ele>
        <time>2013-08-09T14:32:04Z</time>
      </trkpt>
      <trkpt lat="44.02685" lon="3.85542">
        <ele>342.85</ele>
        <time>2013-08-09T14:32:05Z</time>
      </trkpt>
      <trkpt lat="44.02674" lon="3.85538">
        <ele>342.85</ele>
        <time>2013-08-09T14:32:06Z</time>
      </trkpt>
      <trkpt lat="44.02663" lon="3.85538">
        <ele>343.33</ele>
        <time>2013-08-09T14:32:07Z</time>
      </trkpt>
      <trkpt lat="44.02652" lon="3.85542">
        <ele>343.33</ele>
        <time>2013-08-09T14:32:08Z</time>
      </trkpt>
      <trkpt lat="44.02642" lon="3.8555">
        <ele>343.81</ele>
        <time>2013-08-09T14:32:09Z</time>
      </trkpt>
      <trkpt lat="44.02632" lon="3.8556">
        <ele>344.77</ele>
        <time>2013-08-09T14:32:10Z</time>
      </trkpt>
      <trkpt lat="44.02621" lon="3.85569">
        <ele>345.25</ele>
        <time>2013-08-09T14:32:11Z</time>
      </trkpt>
      <trkpt lat="44.02609" lon="3.85578">
        <ele>345.73</ele>
        <time>2013-08-09T14:32:12Z</time>
      </trkpt>
      <trkpt lat="44.02597" lon="3.85584">
        <ele>346.21</ele>
        <time>2013-08-09T14:32:13Z</time>
      </trkpt>
      <trkpt lat="44.02584" lon="3.85588">
        <ele>346.69</ele>
        <time>2013-08-09T14:32:14Z</time>
      </trkpt>
      <trkpt lat="44.02559" lon="3.85597">
        <ele>348.13</ele>
        <time>2013-08-09T14:32:16Z</time>
      </trkpt>
      <trkpt lat="44.02548" lon="3.85606">
        <ele>348.62</ele>
        <time>2013-08-09T14:32:17Z</time>
      </trkpt>
      <trkpt lat="44.02538" lon="3.85618">
        <ele>349.1</ele>
        <time>2013-08-09T14:32:18Z</time>
      </trkpt>
      <trkpt lat="44.0253" lon="3.85632">
        <ele>349.58</ele>
        <time>2013-08-09T14:32:19Z</time>
      </trkpt>
      <trkpt lat="44.02524" lon="3.85648">
        <ele>350.54</ele>
        <time>2013-08-09T14:32:20Z</time>
      </trkpt>
      <trkpt lat="44.02517" lon="3.85663">
        <ele>351.02</ele>
        <time>2013-08-09T14:32:21Z</time>
      </trkpt>
      <trkpt lat="44.0251" lon="3.85676">
        <ele>351.5</ele>
        <time>2013-08-09T14:32:22Z</time>
      </trkpt>
      <trkpt lat="44.02502" lon="3.85687">
        <ele>352.46</ele>
        <time>2013-08-09T14:32:23Z</time>
      </trkpt>
      <trkpt lat="44.02494" lon="3.85698">
        <ele>353.42</ele>
        <time>2013-08-09T14:32:24Z</time>
      </trkpt>
      <trkpt lat="44.02471" lon="3.85732">
        <ele>354.86</ele>
        <time>2013-08-09T14:32:27Z</time>
      </trkpt>
      <trkpt lat="44.02463" lon="3.85739">
        <ele>354.86</ele>
        <time>2013-08-09T14:32:28Z</time>
      </trkpt>
      <trkpt lat="44.02453" lon="3.85741">
        <ele>355.34</ele>
        <time>2013-08-09T14:32:29Z</time>
      </trkpt>
      <trkpt lat="44.02443" lon="3.85741">
        <ele>355.34</ele>
        <time>2013-08-09T14:32:30Z</time>
      </trkpt>
      <trkpt lat="44.02432" lon="3.85738">
        <ele>355.34</ele>
        <time>2013-08-09T14:32:31Z</time>
      </trkpt>
      <trkpt lat="44.02422" lon="3.85732">
        <ele>355.83</ele>
        <time>2013-08-09T14:32:32Z</time>
      </trkpt>
      <trkpt lat="44.0241" lon="3.85728">
        <ele>356.79</ele>
        <time>2013-08-09T14:32:33Z</time>
      </trkpt>
      <trkpt lat="44.02399" lon="3.85725">
        <ele>357.75</ele>
        <time>2013-08-09T14:32:34Z</time>
      </trkpt>
      <trkpt lat="44.02387" lon="3.85725">
        <ele>359.19</ele>
        <time>2013-08-09T14:32:35Z</time>
      </trkpt>
      <trkpt lat="44.02377" lon="3.85728">
        <ele>360.15</ele>
        <time>2013-08-09T14:32:36Z</time>
      </trkpt>
      <trkpt lat="44.02368" lon="3.85737">
        <ele>360.15</ele>
        <time>2013-08-09T14:32:37Z</time>
      </trkpt>
      <trkpt lat="44.02361" lon="3.85748">
        <ele>360.63</ele>
        <time>2013-08-09T14:32:38Z</time>
      </trkpt>
      <trkpt lat="44.0236" lon="3.85764">
        <ele>360.15</ele>
        <time>2013-08-09T14:32:39Z</time>
      </trkpt>
      <trkpt lat="44.0236" lon="3.8578">
        <ele>360.63</ele>
        <time>2013-08-09T14:32:40Z</time>
      </trkpt>
      <trkpt lat="44.02364" lon="3.85795">
        <ele>360.63</ele>
        <time>2013-08-09T14:32:41Z</time>
      </trkpt>
      <trkpt lat="44.02371" lon="3.85809">
        <ele>361.11</ele>
        <time>2013-08-09T14:32:42Z</time>
      </trkpt>
      <trkpt lat="44.02375" lon="3.85824">
        <ele>361.11</ele>
        <time>2013-08-09T14:32:43Z</time>
      </trkpt>
      <trkpt lat="44.02375" lon="3.85838">
        <ele>362.07</ele>
        <time>2013-08-09T14:32:44Z</time>
      </trkpt>
      <trkpt lat="44.02372" lon="3.85852">
        <ele>362.55</ele>
        <time>2013-08-09T14:32:45Z</time>
      </trkpt>
      <trkpt lat="44.02365" lon="3.85866">
        <ele>363.04</ele>
        <time>2013-08-09T14:32:46Z</time>
      </trkpt>
      <trkpt lat="44.02357" lon="3.85878">
        <ele>363.04</ele>
        <time>2013-08-09T14:32:47Z</time>
      </trkpt>
      <trkpt lat="44.02347" lon="3.8589">
        <ele>363.52</ele>
        <time>2013-08-09T14:32:48Z</time>
      </trkpt>
      <trkpt lat="44.02335" lon="3.85901">
        <ele>364.48</ele>
        <time>2013-08-09T14:32:49Z</time>
      </trkpt>
      <trkpt lat="44.02323" lon="3.85913">
        <ele>365.44</ele>
        <time>2013-08-09T14:32:50Z</time>
      </trkpt>
      <trkpt lat="44.0229" lon="3.85948">
        <ele>368.32</ele>
        <time>2013-08-09T14:32:53Z</time>
      </trkpt>
      <trkpt lat="44.02281" lon="3.85961">
        <ele>369.28</ele>
        <time>2013-08-09T14:32:54Z</time>
      </trkpt>
      <trkpt lat="44.02274" lon="3.85975">
        <ele>370.24</ele>
        <time>2013-08-09T14:32:55Z</time>
      </trkpt>
      <trkpt lat="44.02256" lon="3.86009">
        <ele>373.13</ele>
        <time>2013-08-09T14:32:58Z</time>
      </trkpt>
      <trkpt lat="44.0225" lon="3.86015">
        <ele>373.61</ele>
        <time>2013-08-09T14:32:59Z</time>
      </trkpt>
      <trkpt lat="44.02243" lon="3.86017">
        <ele>373.61</ele>
        <time>2013-08-09T14:33:00Z</time>
      </trkpt>
      <trkpt lat="44.02235" lon="3.86016">
        <ele>374.09</ele>
        <time>2013-08-09T14:33:01Z</time>
      </trkpt>
      <trkpt lat="44.02227" lon="3.86011">
        <ele>374.09</ele>
        <time>2013-08-09T14:33:02Z</time>
      </trkpt>
      <trkpt lat="44.02221" lon="3.85999">
        <ele>375.05</ele>
        <time>2013-08-09T14:33:03Z</time>
      </trkpt>
      <trkpt lat="44.02216" lon="3.85986">
        <ele>375.05</ele>
        <time>2013-08-09T14:33:04Z</time>
      </trkpt>
      <trkpt lat="44.02218" lon="3.85972">
        <ele>376.97</ele>
        <time>2013-08-09T14:33:05Z</time>
      </trkpt>
      <trkpt lat="44.02218" lon="3.85957">
        <ele>377.94</ele>
        <time>2013-08-09T14:33:06Z</time>
      </trkpt>
      <trkpt lat="44.02194" lon="3.85886">
        <ele>382.26</ele>
        <time>2013-08-09T14:33:11Z</time>
      </trkpt>
      <trkpt lat="44.02186" lon="3.8587">
        <ele>383.22</ele>
        <time>2013-08-09T14:33:12Z</time>
      </trkpt>
      <trkpt lat="44.02177" lon="3.85856">
        <ele>383.7</ele>
        <time>2013-08-09T14:33:13Z</time>
      </trkpt>
      <trkpt lat="44.02135" lon="3.858">
        <ele>386.59</ele>
        <time>2013-08-09T14:33:20Z</time>
      </trkpt>
      <trkpt lat="44.02131" lon="3.85794">
        <ele>386.59</ele>
        <time>2013-08-09T14:33:21Z</time>
      </trkpt>
      <trkpt lat="44.02127" lon="3.85788">
        <ele>387.07</ele>
        <time>2013-08-09T14:33:22Z</time>
      </trkpt>
      <trkpt lat="44.02123" lon="3.85784">
        <ele>387.07</ele>
        <time>2013-08-09T14:33:23Z</time>
      </trkpt>
      <trkpt lat="44.02119" lon="3.85782">
        <ele>387.07</ele>
        <time>2013-08-09T14:33:24Z</time>
      </trkpt>
      <trkpt lat="44.02113" lon="3.85783">
        <ele>387.07</ele>
        <time>2013-08-09T14:33:25Z</time>
      </trkpt>
      <trkpt lat="44.02106" lon="3.85784">
        <ele>387.07</ele>
        <time>2013-08-09T14:33:26Z</time>
      </trkpt>
      <trkpt lat="44.02098" lon="3.85785">
        <ele>387.07</ele>
        <time>2013-08-09T14:33:27Z</time>
      </trkpt>
      <trkpt lat="44.02089" lon="3.85784">
        <ele>387.07</ele>
        <time>2013-08-09T14:33:28Z</time>
      </trkpt>
      <trkpt lat="44.02079" lon="3.85781">
        <ele>387.07</ele>
        <time>2013-08-09T14:33:29Z</time>
      </trkpt>
      <trkpt lat="44.02069" lon="3.85777">
        <ele>387.07</ele>
        <time>2013-08-09T14:33:30Z</time>
      </trkpt>
      <trkpt lat="44.02059" lon="3.85771">
        <ele>387.07</ele>
        <time>2013-08-09T14:33:31Z</time>
      </trkpt>
      <trkpt lat="44.02049" lon="3.85763">
        <ele>386.59</ele>
        <time>2013-08-09T14:33:32Z</time>
      </trkpt>
      <trkpt lat="44.02039" lon="3.85753">
        <ele>386.59</ele>
        <time>2013-08-09T14:33:33Z</time>
      </trkpt>
      <trkpt lat="44.02032" lon="3.85744">
        <ele>386.11</ele>
        <time>2013-08-09T14:33:34Z</time>
      </trkpt>
      <trkpt lat="44.02026" lon="3.85731">
        <ele>386.11</ele>
        <time>2013-08-09T14:33:35Z</time>
      </trkpt>
      <trkpt lat="44.02024" lon="3.85716">
        <ele>385.63</ele>
        <time>2013-08-09T14:33:36Z</time>
      </trkpt>
      <trkpt lat="44.02022" lon="3.85701">
        <ele>385.15</ele>
        <time>2013-08-09T14:33:37Z</time>
      </trkpt>
      <trkpt lat="44.02019" lon="3.85687">
        <ele>384.66</ele>
        <time>2013-08-09T14:33:38Z</time>
      </trkpt>
      <trkpt lat="44.02012" lon="3.85673">
        <ele>385.15</ele>
        <time>2013-08-09T14:33:39Z</time>
      </trkpt>
      <trkpt lat="44.02005" lon="3.85658">
        <ele>384.18</ele>
        <time>2013-08-09T14:33:40Z</time>
      </trkpt>
      <trkpt lat="44.01996" lon="3.85644">
        <ele>384.18</ele>
        <time>2013-08-09T14:33:41Z</time>
      </trkpt>
      <trkpt lat="44.01987" lon="3.85632">
        <ele>383.7</ele>
        <time>2013-08-09T14:33:42Z</time>
      </trkpt>
      <trkpt lat="44.01949" lon="3.8558">
        <ele>380.82</ele>
        <time>2013-08-09T14:33:46Z</time>
      </trkpt>
      <trkpt lat="44.01935" lon="3.85567">
        <ele>378.9</ele>
        <time>2013-08-09T14:33:47Z</time>
      </trkpt>
      <trkpt lat="44.01838" lon="3.85476">
        <ele>371.69</ele>
        <time>2013-08-09T14:33:54Z</time>
      </trkpt>
      <trkpt lat="44.01834" lon="3.85458">
        <ele>371.69</ele>
        <time>2013-08-09T14:33:55Z</time>
      </trkpt>
      <trkpt lat="44.0183" lon="3.85443">
        <ele>371.21</ele>
        <time>2013-08-09T14:33:56Z</time>
      </trkpt>
      <trkpt lat="44.01827" lon="3.85428">
        <ele>370.24</ele>
        <time>2013-08-09T14:33:57Z</time>
      </trkpt>
      <trkpt lat="44.01822" lon="3.85417">
        <ele>370.24</ele>
        <time>2013-08-09T14:33:58Z</time>
      </trkpt>
      <trkpt lat="44.01812" lon="3.85408">
        <ele>369.28</ele>
        <time>2013-08-09T14:33:59Z</time>
      </trkpt>
      <trkpt lat="44.018" lon="3.85399">
        <ele>368.32</ele>
        <time>2013-08-09T14:34:00Z</time>
      </trkpt>
      <trkpt lat="44.01785" lon="3.8539">
        <ele>367.36</ele>
        <time>2013-08-09T14:34:01Z</time>
      </trkpt>
      <trkpt lat="44.01769" lon="3.8538">
        <ele>366.88</ele>
        <time>2013-08-09T14:34:02Z</time>
      </trkpt>
      <trkpt lat="44.01755" lon="3.85368">
        <ele>366.4</ele>
        <time>2013-08-09T14:34:03Z</time>
      </trkpt>
      <trkpt lat="44.01718" lon="3.85311">
        <ele>363.04</ele>
        <time>2013-08-09T14:34:07Z</time>
      </trkpt>
      <trkpt lat="44.01716" lon="3.85291">
        <ele>362.07</ele>
        <time>2013-08-09T14:34:08Z</time>
      </trkpt>
      <trkpt lat="44.01716" lon="3.85271">
        <ele>361.11</ele>
        <time>2013-08-09T14:34:09Z</time>
      </trkpt>
      <trkpt lat="44.01716" lon="3.85247">
        <ele>362.07</ele>
        <time>2013-08-09T14:34:10Z</time>
      </trkpt>
      <trkpt lat="44.01722" lon="3.85226">
        <ele>362.07</ele>
        <time>2013-08-09T14:34:11Z</time>
      </trkpt>
      <trkpt lat="44.01725" lon="3.85206">
        <ele>362.07</ele>
        <time>2013-08-09T14:34:12Z</time>
      </trkpt>
      <trkpt lat="44.01726" lon="3.85151">
        <ele>362.07</ele>
        <time>2013-08-09T14:34:15Z</time>
      </trkpt>
      <trkpt lat="44.01723" lon="3.85132">
        <ele>361.11</ele>
        <time>2013-08-09T14:34:16Z</time>
      </trkpt>
      <trkpt lat="44.01717" lon="3.85115">
        <ele>361.11</ele>
        <time>2013-08-09T14:34:17Z</time>
      </trkpt>
      <trkpt lat="44.01697" lon="3.85067">
        <ele>358.71</ele>
        <time>2013-08-09T14:34:20Z</time>
      </trkpt>
      <trkpt lat="44.01688" lon="3.85055">
        <ele>357.75</ele>
        <time>2013-08-09T14:34:21Z</time>
      </trkpt>
      <trkpt lat="44.01678" lon="3.85044">
        <ele>356.31</ele>
        <time>2013-08-09T14:34:22Z</time>
      </trkpt>
      <trkpt lat="44.0167" lon="3.8503">
        <ele>355.34</ele>
        <time>2013-08-09T14:34:23Z</time>
      </trkpt>
      <trkpt lat="44.01665" lon="3.85014">
        <ele>354.38</ele>
        <time>2013-08-09T14:34:24Z</time>
      </trkpt>
      <trkpt lat="44.01661" lon="3.84998">
        <ele>354.38</ele>
        <time>2013-08-09T14:34:25Z</time>
      </trkpt>
      <trkpt lat="44.01657" lon="3.84981">
        <ele>354.38</ele>
        <time>2013-08-09T14:34:26Z</time>
      </trkpt>
      <trkpt lat="44.01654" lon="3.84964">
        <ele>353.9</ele>
        <time>2013-08-09T14:34:27Z</time>
      </trkpt>
      <trkpt lat="44.01659" lon="3.84899">
        <ele>350.06</ele>
        <time>2013-08-09T14:34:31Z</time>
      </trkpt>
      <trkpt lat="44.01665" lon="3.84886">
        <ele>349.58</ele>
        <time>2013-08-09T14:34:32Z</time>
      </trkpt>
      <trkpt lat="44.01667" lon="3.84873">
        <ele>349.1</ele>
        <time>2013-08-09T14:34:33Z</time>
      </trkpt>
      <trkpt lat="44.01666" lon="3.84863">
        <ele>348.62</ele>
        <time>2013-08-09T14:34:34Z</time>
      </trkpt>
      <trkpt lat="44.01658" lon="3.8485">
        <ele>348.13</ele>
        <time>2013-08-09T14:34:35Z</time>
      </trkpt>
      <trkpt lat="44.01649" lon="3.84843">
        <ele>346.69</ele>
        <time>2013-08-09T14:34:36Z</time>
      </trkpt>
      <trkpt lat="44.01636" lon="3.8484">
        <ele>345.73</ele>
        <time>2013-08-09T14:34:37Z</time>
      </trkpt>
      <trkpt lat="44.01623" lon="3.84842">
        <ele>344.77</ele>
        <time>2013-08-09T14:34:38Z</time>
      </trkpt>
      <trkpt lat="44.0161" lon="3.84852">
        <ele>344.29</ele>
        <time>2013-08-09T14:34:39Z</time>
      </trkpt>
      <trkpt lat="44.01598" lon="3.84861">
        <ele>344.29</ele>
        <time>2013-08-09T14:34:40Z</time>
      </trkpt>
      <trkpt lat="44.01586" lon="3.84869">
        <ele>343.81</ele>
        <time>2013-08-09T14:34:41Z</time>
      </trkpt>
      <trkpt lat="44.01574" lon="3.84876">
        <ele>343.33</ele>
        <time>2013-08-09T14:34:42Z</time>
      </trkpt>
      <trkpt lat="44.01562" lon="3.8488">
        <ele>342.37</ele>
        <time>2013-08-09T14:34:43Z</time>
      </trkpt>
      <trkpt lat="44.0155" lon="3.84877">
        <ele>340.92</ele>
        <time>2013-08-09T14:34:44Z</time>
      </trkpt>
      <trkpt lat="44.01537" lon="3.84871">
        <ele>340.44</ele>
        <time>2013-08-09T14:34:45Z</time>
      </trkpt>
      <trkpt lat="44.01526" lon="3.8486">
        <ele>339.96</ele>
        <time>2013-08-09T14:34:46Z</time>
      </trkpt>
      <trkpt lat="44.01517" lon="3.8485">
        <ele>339.96</ele>
        <time>2013-08-09T14:34:47Z</time>
      </trkpt>
      <trkpt lat="44.0151" lon="3.84836">
        <ele>339</ele>
        <time>2013-08-09T14:34:48Z</time>
      </trkpt>
      <trkpt lat="44.01502" lon="3.84824">
        <ele>339</ele>
        <time>2013-08-09T14:34:49Z</time>
      </trkpt>
      <trkpt lat="44.01492" lon="3.84814">
        <ele>338.52</ele>
        <time>2013-08-09T14:34:50Z</time>
      </trkpt>
      <trkpt lat="44.0148" lon="3.84811">
        <ele>338.04</ele>
        <time>2013-08-09T14:34:51Z</time>
      </trkpt>
      <trkpt lat="44.01466" lon="3.84813">
        <ele>337.56</ele>
        <time>2013-08-09T14:34:52Z</time>
      </trkpt>
      <trkpt lat="44.01451" lon="3.84815">
        <ele>337.08</ele>
        <time>2013-08-09T14:34:53Z</time>
      </trkpt>
      <trkpt lat="44.01436" lon="3.84823">
        <ele>339</ele>
        <time>2013-08-09T14:34:54Z</time>
      </trkpt>
      <trkpt lat="44.01421" lon="3.84831">
        <ele>339</ele>
        <time>2013-08-09T14:34:55Z</time>
      </trkpt>
      <trkpt lat="44.01407" lon="3.84836">
        <ele>339.96</ele>
        <time>2013-08-09T14:34:56Z</time>
      </trkpt>
      <trkpt lat="44.01374" lon="3.84834">
        <ele>339</ele>
        <time>2013-08-09T14:34:59Z</time>
      </trkpt>
      <trkpt lat="44.01361" lon="3.84827">
        <ele>338.04</ele>
        <time>2013-08-09T14:35:00Z</time>
      </trkpt>
      <trkpt lat="44.01349" lon="3.84815">
        <ele>337.56</ele>
        <time>2013-08-09T14:35:01Z</time>
      </trkpt>
      <trkpt lat="44.01315" lon="3.84794">
        <ele>335.64</ele>
        <time>2013-08-09T14:35:04Z</time>
      </trkpt>
      <trkpt lat="44.01303" lon="3.84798">
        <ele>335.16</ele>
        <time>2013-08-09T14:35:05Z</time>
      </trkpt>
      <trkpt lat="44.01291" lon="3.84808">
        <ele>334.2</ele>
        <time>2013-08-09T14:35:06Z</time>
      </trkpt>
      <trkpt lat="44.01282" lon="3.84819">
        <ele>332.75</ele>
        <time>2013-08-09T14:35:07Z</time>
      </trkpt>
      <trkpt lat="44.01276" lon="3.84833">
        <ele>331.79</ele>
        <time>2013-08-09T14:35:08Z</time>
      </trkpt>
      <trkpt lat="44.01274" lon="3.84846">
        <ele>330.83</ele>
        <time>2013-08-09T14:35:09Z</time>
      </trkpt>
      <trkpt lat="44.01273" lon="3.84861">
        <ele>329.39</ele>
        <time>2013-08-09T14:35:10Z</time>
      </trkpt>
      <trkpt lat="44.01282" lon="3.8487">
        <ele>328.43</ele>
        <time>2013-08-09T14:35:11Z</time>
      </trkpt>
      <trkpt lat="44.01302" lon="3.84875">
        <ele>328.91</ele>
        <time>2013-08-09T14:35:12Z</time>
      </trkpt>
      <trkpt lat="44.01316" lon="3.84879">
        <ele>328.43</ele>
        <time>2013-08-09T14:35:13Z</time>
      </trkpt>
      <trkpt lat="44.0133" lon="3.84883">
        <ele>328.43</ele>
        <time>2013-08-09T14:35:14Z</time>
      </trkpt>
      <trkpt lat="44.01342" lon="3.84892">
        <ele>327.47</ele>
        <time>2013-08-09T14:35:15Z</time>
      </trkpt>
      <trkpt lat="44.01351" lon="3.84905">
        <ele>326.99</ele>
        <time>2013-08-09T14:35:16Z</time>
      </trkpt>
      <trkpt lat="44.01356" lon="3.84919">
        <ele>326.02</ele>
        <time>2013-08-09T14:35:17Z</time>
      </trkpt>
      <trkpt lat="44.01362" lon="3.84932">
        <ele>325.54</ele>
        <time>2013-08-09T14:35:18Z</time>
      </trkpt>
      <trkpt lat="44.01372" lon="3.8494">
        <ele>325.06</ele>
        <time>2013-08-09T14:35:19Z</time>
      </trkpt>
      <trkpt lat="44.01381" lon="3.84944">
        <ele>324.58</ele>
        <time>2013-08-09T14:35:20Z</time>
      </trkpt>
      <trkpt lat="44.0139" lon="3.84948">
        <ele>324.58</ele>
        <time>2013-08-09T14:35:21Z</time>
      </trkpt>
      <trkpt lat="44.01401" lon="3.84949">
        <ele>324.1</ele>
        <time>2013-08-09T14:35:22Z</time>
      </trkpt>
      <trkpt lat="44.01411" lon="3.84952">
        <ele>323.62</ele>
        <time>2013-08-09T14:35:23Z</time>
      </trkpt>
      <trkpt lat="44.0142" lon="3.84958">
        <ele>322.66</ele>
        <time>2013-08-09T14:35:24Z</time>
      </trkpt>
      <trkpt lat="44.01426" lon="3.8497">
        <ele>322.18</ele>
        <time>2013-08-09T14:35:25Z</time>
      </trkpt>
      <trkpt lat="44.0143" lon="3.84984">
        <ele>322.18</ele>
        <time>2013-08-09T14:35:26Z</time>
      </trkpt>
      <trkpt lat="44.0143" lon="3.84997">
        <ele>321.7</ele>
        <time>2013-08-09T14:35:27Z</time>
      </trkpt>
      <trkpt lat="44.01434" lon="3.85008">
        <ele>320.26</ele>
        <time>2013-08-09T14:35:28Z</time>
      </trkpt>
      <trkpt lat="44.01442" lon="3.85015">
        <ele>319.78</ele>
        <time>2013-08-09T14:35:29Z</time>
      </trkpt>
      <trkpt lat="44.01449" lon="3.85015">
        <ele>319.3</ele>
        <time>2013-08-09T14:35:30Z</time>
      </trkpt>
      <trkpt lat="44.01459" lon="3.85015">
        <ele>318.33</ele>
        <time>2013-08-09T14:35:31Z</time>
      </trkpt>
      <trkpt lat="44.01468" lon="3.85015">
        <ele>317.37</ele>
        <time>2013-08-09T14:35:32Z</time>
      </trkpt>
      <trkpt lat="44.01478" lon="3.85017">
        <ele>316.89</ele>
        <time>2013-08-09T14:35:33Z</time>
      </trkpt>
      <trkpt lat="44.01485" lon="3.85024">
        <ele>316.41</ele>
        <time>2013-08-09T14:35:34Z</time>
      </trkpt>
      <trkpt lat="44.01491" lon="3.85035">
        <ele>315.45</ele>
        <time>2013-08-09T14:35:35Z</time>
      </trkpt>
      <trkpt lat="44.01488" lon="3.85047">
        <ele>315.45</ele>
        <time>2013-08-09T14:35:36Z</time>
      </trkpt>
      <trkpt lat="44.01485" lon="3.8506">
        <ele>314.97</ele>
        <time>2013-08-09T14:35:37Z</time>
      </trkpt>
      <trkpt lat="44.0148" lon="3.85072">
        <ele>314.01</ele>
        <time>2013-08-09T14:35:38Z</time>
      </trkpt>
      <trkpt lat="44.01473" lon="3.85083">
        <ele>313.53</ele>
        <time>2013-08-09T14:35:39Z</time>
      </trkpt>
      <trkpt lat="44.01461" lon="3.8509">
        <ele>312.09</ele>
        <time>2013-08-09T14:35:40Z</time>
      </trkpt>
      <trkpt lat="44.01445" lon="3.85087">
        <ele>313.05</ele>
        <time>2013-08-09T14:35:41Z</time>
      </trkpt>
      <trkpt lat="44.0143" lon="3.85086">
        <ele>311.6</ele>
        <time>2013-08-09T14:35:42Z</time>
      </trkpt>
      <trkpt lat="44.01416" lon="3.85084">
        <ele>310.64</ele>
        <time>2013-08-09T14:35:43Z</time>
      </trkpt>
      <trkpt lat="44.01402" lon="3.85084">
        <ele>310.16</ele>
        <time>2013-08-09T14:35:44Z</time>
      </trkpt>
      <trkpt lat="44.01387" lon="3.85086">
        <ele>309.68</ele>
        <time>2013-08-09T14:35:45Z</time>
      </trkpt>
      <trkpt lat="44.01359" lon="3.8509">
        <ele>309.2</ele>
        <time>2013-08-09T14:35:47Z</time>
      </trkpt>
      <trkpt lat="44.01333" lon="3.85091">
        <ele>309.2</ele>
        <time>2013-08-09T14:35:49Z</time>
      </trkpt>
      <trkpt lat="44.01322" lon="3.85099">
        <ele>308.72</ele>
        <time>2013-08-09T14:35:50Z</time>
      </trkpt>
      <trkpt lat="44.01313" lon="3.85109">
        <ele>308.72</ele>
        <time>2013-08-09T14:35:51Z</time>
      </trkpt>
      <trkpt lat="44.01307" lon="3.85122">
        <ele>308.24</ele>
        <time>2013-08-09T14:35:52Z</time>
      </trkpt>
      <trkpt lat="44.01305" lon="3.85135">
        <ele>308.24</ele>
        <time>2013-08-09T14:35:53Z</time>
      </trkpt>
      <trkpt lat="44.01304" lon="3.8515">
        <ele>307.28</ele>
        <time>2013-08-09T14:35:54Z</time>
      </trkpt>
      <trkpt lat="44.01301" lon="3.85164">
        <ele>306.8</ele>
        <time>2013-08-09T14:35:55Z</time>
      </trkpt>
      <trkpt lat="44.01295" lon="3.85174">
        <ele>305.84</ele>
        <time>2013-08-09T14:35:56Z</time>
      </trkpt>
      <trkpt lat="44.01286" lon="3.85179">
        <ele>304.88</ele>
        <time>2013-08-09T14:35:57Z</time>
      </trkpt>
      <trkpt lat="44.01275" lon="3.85181">
        <ele>303.91</ele>
        <time>2013-08-09T14:35:58Z</time>
      </trkpt>
      <trkpt lat="44.01263" lon="3.85181">
        <ele>303.43</ele>
        <time>2013-08-09T14:35:59Z</time>
      </trkpt>
      <trkpt lat="44.01251" lon="3.85183">
        <ele>302.47</ele>
        <time>2013-08-09T14:36:00Z</time>
      </trkpt>
      <trkpt lat="44.0124" lon="3.85185">
        <ele>301.99</ele>
        <time>2013-08-09T14:36:01Z</time>
      </trkpt>
      <trkpt lat="44.0123" lon="3.85194">
        <ele>301.99</ele>
        <time>2013-08-09T14:36:02Z</time>
      </trkpt>
      <trkpt lat="44.01225" lon="3.85206">
        <ele>300.55</ele>
        <time>2013-08-09T14:36:03Z</time>
      </trkpt>
      <trkpt lat="44.01227" lon="3.85226">
        <ele>297.18</ele>
        <time>2013-08-09T14:36:04Z</time>
      </trkpt>
      <trkpt lat="44.01224" lon="3.85245">
        <ele>296.7</ele>
        <time>2013-08-09T14:36:05Z</time>
      </trkpt>
      <trkpt lat="44.0122" lon="3.85264">
        <ele>296.22</ele>
        <time>2013-08-09T14:36:06Z</time>
      </trkpt>
      <trkpt lat="44.01218" lon="3.85282">
        <ele>295.26</ele>
        <time>2013-08-09T14:36:07Z</time>
      </trkpt>
      <trkpt lat="44.01215" lon="3.85321">
        <ele>293.34</ele>
        <time>2013-08-09T14:36:10Z</time>
      </trkpt>
      <trkpt lat="44.01222" lon="3.8533">
        <ele>292.86</ele>
        <time>2013-08-09T14:36:11Z</time>
      </trkpt>
      <trkpt lat="44.01227" lon="3.85346">
        <ele>292.38</ele>
        <time>2013-08-09T14:36:12Z</time>
      </trkpt>
      <trkpt lat="44.01229" lon="3.85359">
        <ele>291.42</ele>
        <time>2013-08-09T14:36:13Z</time>
      </trkpt>
      <trkpt lat="44.01226" lon="3.85372">
        <ele>290.46</ele>
        <time>2013-08-09T14:36:14Z</time>
      </trkpt>
      <trkpt lat="44.01219" lon="3.85381">
        <ele>289.97</ele>
        <time>2013-08-09T14:36:15Z</time>
      </trkpt>
      <trkpt lat="44.01209" lon="3.85388">
        <ele>288.05</ele>
        <time>2013-08-09T14:36:16Z</time>
      </trkpt>
      <trkpt lat="44.012" lon="3.85388">
        <ele>287.57</ele>
        <time>2013-08-09T14:36:17Z</time>
      </trkpt>
      <trkpt lat="44.0119" lon="3.85379">
        <ele>287.57</ele>
        <time>2013-08-09T14:36:18Z</time>
      </trkpt>
      <trkpt lat="44.01177" lon="3.85362">
        <ele>289.49</ele>
        <time>2013-08-09T14:36:19Z</time>
      </trkpt>
      <trkpt lat="44.01166" lon="3.85349">
        <ele>289.49</ele>
        <time>2013-08-09T14:36:20Z</time>
      </trkpt>
      <trkpt lat="44.01156" lon="3.85336">
        <ele>289.01</ele>
        <time>2013-08-09T14:36:21Z</time>
      </trkpt>
      <trkpt lat="44.01143" lon="3.85324">
        <ele>288.53</ele>
        <time>2013-08-09T14:36:22Z</time>
      </trkpt>
      <trkpt lat="44.0113" lon="3.85318">
        <ele>288.53</ele>
        <time>2013-08-09T14:36:23Z</time>
      </trkpt>
      <trkpt lat="44.01114" lon="3.85313">
        <ele>287.57</ele>
        <time>2013-08-09T14:36:24Z</time>
      </trkpt>
      <trkpt lat="44.01097" lon="3.85308">
        <ele>286.13</ele>
        <time>2013-08-09T14:36:25Z</time>
      </trkpt>
      <trkpt lat="44.01079" lon="3.85305">
        <ele>285.17</ele>
        <time>2013-08-09T14:36:26Z</time>
      </trkpt>
      <trkpt lat="44.01001" lon="3.85301">
        <ele>279.88</ele>
        <time>2013-08-09T14:36:31Z</time>
      </trkpt>
      <trkpt lat="44.00986" lon="3.85309">
        <ele>280.84</ele>
        <time>2013-08-09T14:36:32Z</time>
      </trkpt>
      <trkpt lat="44.0097" lon="3.8532">
        <ele>281.32</ele>
        <time>2013-08-09T14:36:33Z</time>
      </trkpt>
      <trkpt lat="44.00865" lon="3.85348">
        <ele>278.92</ele>
        <time>2013-08-09T14:36:40Z</time>
      </trkpt>
      <trkpt lat="44.00852" lon="3.8534">
        <ele>277.96</ele>
        <time>2013-08-09T14:36:41Z</time>
      </trkpt>
      <trkpt lat="44.0084" lon="3.85332">
        <ele>276.52</ele>
        <time>2013-08-09T14:36:42Z</time>
      </trkpt>
      <trkpt lat="44.00829" lon="3.85317">
        <ele>275.07</ele>
        <time>2013-08-09T14:36:43Z</time>
      </trkpt>
      <trkpt lat="44.00818" lon="3.853">
        <ele>274.11</ele>
        <time>2013-08-09T14:36:44Z</time>
      </trkpt>
      <trkpt lat="44.00805" lon="3.85277">
        <ele>277</ele>
        <time>2013-08-09T14:36:45Z</time>
      </trkpt>
      <trkpt lat="44.00794" lon="3.85259">
        <ele>276.52</ele>
        <time>2013-08-09T14:36:46Z</time>
      </trkpt>
      <trkpt lat="44.00711" lon="3.85181">
        <ele>274.59</ele>
        <time>2013-08-09T14:36:52Z</time>
      </trkpt>
      <trkpt lat="44.00695" lon="3.85174">
        <ele>276.52</ele>
        <time>2013-08-09T14:36:53Z</time>
      </trkpt>
      <trkpt lat="44.00663" lon="3.85166">
        <ele>278.92</ele>
        <time>2013-08-09T14:36:55Z</time>
      </trkpt>
      <trkpt lat="44.00647" lon="3.85173">
        <ele>279.4</ele>
        <time>2013-08-09T14:36:56Z</time>
      </trkpt>
      <trkpt lat="44.00632" lon="3.85186">
        <ele>279.4</ele>
        <time>2013-08-09T14:36:57Z</time>
      </trkpt>
      <trkpt lat="44.00617" lon="3.85202">
        <ele>279.88</ele>
        <time>2013-08-09T14:36:58Z</time>
      </trkpt>
      <trkpt lat="44.00603" lon="3.85222">
        <ele>279.88</ele>
        <time>2013-08-09T14:36:59Z</time>
      </trkpt>
      <trkpt lat="44.00589" lon="3.85244">
        <ele>280.36</ele>
        <time>2013-08-09T14:37:00Z</time>
      </trkpt>
      <trkpt lat="44.00576" lon="3.85266">
        <ele>280.36</ele>
        <time>2013-08-09T14:37:01Z</time>
      </trkpt>
      <trkpt lat="44.00491" lon="3.85432">
        <ele>275.56</ele>
        <time>2013-08-09T14:37:09Z</time>
      </trkpt>
      <trkpt lat="44.00461" lon="3.85481">
        <ele>271.71</ele>
        <time>2013-08-09T14:37:12Z</time>
      </trkpt>
      <trkpt lat="44.00449" lon="3.85492">
        <ele>270.75</ele>
        <time>2013-08-09T14:37:13Z</time>
      </trkpt>
      <trkpt lat="44.00435" lon="3.85497">
        <ele>269.31</ele>
        <time>2013-08-09T14:37:14Z</time>
      </trkpt>
      <trkpt lat="44.00422" lon="3.855">
        <ele>267.38</ele>
        <time>2013-08-09T14:37:15Z</time>
      </trkpt>
      <trkpt lat="44.00409" lon="3.85495">
        <ele>266.9</ele>
        <time>2013-08-09T14:37:16Z</time>
      </trkpt>
      <trkpt lat="44.00396" lon="3.8549">
        <ele>265.46</ele>
        <time>2013-08-09T14:37:17Z</time>
      </trkpt>
      <trkpt lat="44.00381" lon="3.85485">
        <ele>265.46</ele>
        <time>2013-08-09T14:37:18Z</time>
      </trkpt>
      <trkpt lat="44.00366" lon="3.85483">
        <ele>264.98</ele>
        <time>2013-08-09T14:37:19Z</time>
      </trkpt>
      <trkpt lat="44.0035" lon="3.85483">
        <ele>264.02</ele>
        <time>2013-08-09T14:37:20Z</time>
      </trkpt>
      <trkpt lat="44.00335" lon="3.85483">
        <ele>263.54</ele>
        <time>2013-08-09T14:37:21Z</time>
      </trkpt>
      <trkpt lat="44.00306" lon="3.85477">
        <ele>262.58</ele>
        <time>2013-08-09T14:37:23Z</time>
      </trkpt>
      <trkpt lat="44.00292" lon="3.85469">
        <ele>261.62</ele>
        <time>2013-08-09T14:37:24Z</time>
      </trkpt>
      <trkpt lat="44.00278" lon="3.85457">
        <ele>260.65</ele>
        <time>2013-08-09T14:37:25Z</time>
      </trkpt>
      <trkpt lat="44.00264" lon="3.85443">
        <ele>260.17</ele>
        <time>2013-08-09T14:37:26Z</time>
      </trkpt>
      <trkpt lat="44.0025" lon="3.85426">
        <ele>259.69</ele>
        <time>2013-08-09T14:37:27Z</time>
      </trkpt>
      <trkpt lat="44.00237" lon="3.8541">
        <ele>259.69</ele>
        <time>2013-08-09T14:37:28Z</time>
      </trkpt>
      <trkpt lat="44.00225" lon="3.85395">
        <ele>259.21</ele>
        <time>2013-08-09T14:37:29Z</time>
      </trkpt>
      <trkpt lat="44.00211" lon="3.85384">
        <ele>258.73</ele>
        <time>2013-08-09T14:37:30Z</time>
      </trkpt>
      <trkpt lat="44.00195" lon="3.85376">
        <ele>258.73</ele>
        <time>2013-08-09T14:37:31Z</time>
      </trkpt>
      <trkpt lat="44.00177" lon="3.8537">
        <ele>258.73</ele>
        <time>2013-08-09T14:37:32Z</time>
      </trkpt>
      <trkpt lat="44.00159" lon="3.85365">
        <ele>258.73</ele>
        <time>2013-08-09T14:37:33Z</time>
      </trkpt>
      <trkpt lat="44.00099" lon="3.85347">
        <ele>253.93</ele>
        <time>2013-08-09T14:37:37Z</time>
      </trkpt>
      <trkpt lat="44.00089" lon="3.85338">
        <ele>251.52</ele>
        <time>2013-08-09T14:37:38Z</time>
      </trkpt>
      <trkpt lat="44.0008" lon="3.85322">
        <ele>250.08</ele>
        <time>2013-08-09T14:37:39Z</time>
      </trkpt>
      <trkpt lat="44.00072" lon="3.85304">
        <ele>248.64</ele>
        <time>2013-08-09T14:37:40Z</time>
      </trkpt>
      <trkpt lat="44.00065" lon="3.85284">
        <ele>248.16</ele>
        <time>2013-08-09T14:37:41Z</time>
      </trkpt>
      <trkpt lat="44.00059" lon="3.85263">
        <ele>247.68</ele>
        <time>2013-08-09T14:37:42Z</time>
      </trkpt>
      <trkpt lat="44.00053" lon="3.85242">
        <ele>247.2</ele>
        <time>2013-08-09T14:37:43Z</time>
      </trkpt>
      <trkpt lat="43.99996" lon="3.85101">
        <ele>242.39</ele>
        <time>2013-08-09T14:37:51Z</time>
      </trkpt>
      <trkpt lat="43.99981" lon="3.85093">
        <ele>242.39</ele>
        <time>2013-08-09T14:37:52Z</time>
      </trkpt>
      <trkpt lat="43.99965" lon="3.85094">
        <ele>240.95</ele>
        <time>2013-08-09T14:37:53Z</time>
      </trkpt>
      <trkpt lat="43.99947" lon="3.85094">
        <ele>239.51</ele>
        <time>2013-08-09T14:37:54Z</time>
      </trkpt>
      <trkpt lat="43.99929" lon="3.85098">
        <ele>239.02</ele>
        <time>2013-08-09T14:37:55Z</time>
      </trkpt>
      <trkpt lat="43.9991" lon="3.85106">
        <ele>239.02</ele>
        <time>2013-08-09T14:37:56Z</time>
      </trkpt>
      <trkpt lat="43.9989" lon="3.85113">
        <ele>239.02</ele>
        <time>2013-08-09T14:37:57Z</time>
      </trkpt>
      <trkpt lat="43.9987" lon="3.85121">
        <ele>239.99</ele>
        <time>2013-08-09T14:37:58Z</time>
      </trkpt>
      <trkpt lat="43.99709" lon="3.85143">
        <ele>241.43</ele>
        <time>2013-08-09T14:38:05Z</time>
      </trkpt>
      <trkpt lat="43.99562" lon="3.85125">
        <ele>239.02</ele>
        <time>2013-08-09T14:38:12Z</time>
      </trkpt>
      <trkpt lat="43.99413" lon="3.85113">
        <ele>233.74</ele>
        <time>2013-08-09T14:38:19Z</time>
      </trkpt>
      <trkpt lat="43.99212" lon="3.8507">
        <ele>231.33</ele>
        <time>2013-08-09T14:38:28Z</time>
      </trkpt>
      <trkpt lat="43.99157" lon="3.85063">
        <ele>231.81</ele>
        <time>2013-08-09T14:38:31Z</time>
      </trkpt>
      <trkpt lat="43.99141" lon="3.85068">
        <ele>231.33</ele>
        <time>2013-08-09T14:38:32Z</time>
      </trkpt>
      <trkpt lat="43.99125" lon="3.85076">
        <ele>229.89</ele>
        <time>2013-08-09T14:38:33Z</time>
      </trkpt>
      <trkpt lat="43.9911" lon="3.8509">
        <ele>227.49</ele>
        <time>2013-08-09T14:38:34Z</time>
      </trkpt>
      <trkpt lat="43.99094" lon="3.85107">
        <ele>227.01</ele>
        <time>2013-08-09T14:38:35Z</time>
      </trkpt>
      <trkpt lat="43.99076" lon="3.85124">
        <ele>226.53</ele>
        <time>2013-08-09T14:38:36Z</time>
      </trkpt>
      <trkpt lat="43.98963" lon="3.85209">
        <ele>222.68</ele>
        <time>2013-08-09T14:38:42Z</time>
      </trkpt>
      <trkpt lat="43.98948" lon="3.8523">
        <ele>218.36</ele>
        <time>2013-08-09T14:38:43Z</time>
      </trkpt>
      <trkpt lat="43.9893" lon="3.85249">
        <ele>218.36</ele>
        <time>2013-08-09T14:38:44Z</time>
      </trkpt>
      <trkpt lat="43.98911" lon="3.85266">
        <ele>218.36</ele>
        <time>2013-08-09T14:38:45Z</time>
      </trkpt>
      <trkpt lat="43.9889" lon="3.85279">
        <ele>217.88</ele>
        <time>2013-08-09T14:38:46Z</time>
      </trkpt>
      <trkpt lat="43.98867" lon="3.85289">
        <ele>217.88</ele>
        <time>2013-08-09T14:38:47Z</time>
      </trkpt>
      <trkpt lat="43.98843" lon="3.85296">
        <ele>217.88</ele>
        <time>2013-08-09T14:38:48Z</time>
      </trkpt>
      <trkpt lat="43.98712" lon="3.85294">
        <ele>217.88</ele>
        <time>2013-08-09T14:38:54Z</time>
      </trkpt>
      <trkpt lat="43.98538" lon="3.85236">
        <ele>223.64</ele>
        <time>2013-08-09T14:39:01Z</time>
      </trkpt>
      <trkpt lat="43.98484" lon="3.85225">
        <ele>215.95</ele>
        <time>2013-08-09T14:39:04Z</time>
      </trkpt>
      <trkpt lat="43.98469" lon="3.85228">
        <ele>214.51</ele>
        <time>2013-08-09T14:39:05Z</time>
      </trkpt>
      <trkpt lat="43.98452" lon="3.85235">
        <ele>214.51</ele>
        <time>2013-08-09T14:39:06Z</time>
      </trkpt>
      <trkpt lat="43.98434" lon="3.85246">
        <ele>214.51</ele>
        <time>2013-08-09T14:39:07Z</time>
      </trkpt>
      <trkpt lat="43.98419" lon="3.8526">
        <ele>212.11</ele>
        <time>2013-08-09T14:39:08Z</time>
      </trkpt>
      <trkpt lat="43.984" lon="3.85271">
        <ele>211.15</ele>
        <time>2013-08-09T14:39:09Z</time>
      </trkpt>
      <trkpt lat="43.9838" lon="3.85276">
        <ele>210.67</ele>
        <time>2013-08-09T14:39:10Z</time>
      </trkpt>
      <trkpt lat="43.98359" lon="3.85278">
        <ele>210.19</ele>
        <time>2013-08-09T14:39:11Z</time>
      </trkpt>
      <trkpt lat="43.9834" lon="3.85278">
        <ele>209.7</ele>
        <time>2013-08-09T14:39:12Z</time>
      </trkpt>
      <trkpt lat="43.98321" lon="3.85273">
        <ele>209.7</ele>
        <time>2013-08-09T14:39:13Z</time>
      </trkpt>
      <trkpt lat="43.98302" lon="3.8527">
        <ele>208.26</ele>
        <time>2013-08-09T14:39:14Z</time>
      </trkpt>
      <trkpt lat="43.98283" lon="3.85261">
        <ele>207.78</ele>
        <time>2013-08-09T14:39:15Z</time>
      </trkpt>
      <trkpt lat="43.98266" lon="3.85251">
        <ele>206.82</ele>
        <time>2013-08-09T14:39:16Z</time>
      </trkpt>
      <trkpt lat="43.98253" lon="3.85233">
        <ele>206.34</ele>
        <time>2013-08-09T14:39:17Z</time>
      </trkpt>
      <trkpt lat="43.9824" lon="3.85215">
        <ele>205.86</ele>
        <time>2013-08-09T14:39:18Z</time>
      </trkpt>
      <trkpt lat="43.98228" lon="3.85194">
        <ele>205.86</ele>
        <time>2013-08-09T14:39:19Z</time>
      </trkpt>
      <trkpt lat="43.98214" lon="3.85176">
        <ele>205.38</ele>
        <time>2013-08-09T14:39:20Z</time>
      </trkpt>
      <trkpt lat="43.98201" lon="3.85162">
        <ele>205.38</ele>
        <time>2013-08-09T14:39:21Z</time>
      </trkpt>
      <trkpt lat="43.98165" lon="3.85143">
        <ele>209.22</ele>
        <time>2013-08-09T14:39:23Z</time>
      </trkpt>
      <trkpt lat="43.98144" lon="3.85138">
        <ele>213.55</ele>
        <time>2013-08-09T14:39:24Z</time>
      </trkpt>
      <trkpt lat="43.98023" lon="3.85079">
        <ele>208.26</ele>
        <time>2013-08-09T14:39:30Z</time>
      </trkpt>
      <trkpt lat="43.97929" lon="3.85004">
        <ele>204.42</ele>
        <time>2013-08-09T14:39:36Z</time>
      </trkpt>
      <trkpt lat="43.97914" lon="3.85001">
        <ele>203.46</ele>
        <time>2013-08-09T14:39:37Z</time>
      </trkpt>
      <trkpt lat="43.97898" lon="3.85003">
        <ele>202.98</ele>
        <time>2013-08-09T14:39:38Z</time>
      </trkpt>
      <trkpt lat="43.97879" lon="3.85007">
        <ele>202.49</ele>
        <time>2013-08-09T14:39:39Z</time>
      </trkpt>
      <trkpt lat="43.97858" lon="3.85012">
        <ele>202.01</ele>
        <time>2013-08-09T14:39:40Z</time>
      </trkpt>
      <trkpt lat="43.97834" lon="3.85016">
        <ele>202.49</ele>
        <time>2013-08-09T14:39:41Z</time>
      </trkpt>
      <trkpt lat="43.97789" lon="3.85033">
        <ele>196.73</ele>
        <time>2013-08-09T14:39:43Z</time>
      </trkpt>
      <trkpt lat="43.97641" lon="3.85065">
        <ele>194.32</ele>
        <time>2013-08-09T14:39:50Z</time>
      </trkpt>
      <trkpt lat="43.9761" lon="3.85072">
        <ele>192.4</ele>
        <time>2013-08-09T14:39:52Z</time>
      </trkpt>
      <trkpt lat="43.97597" lon="3.85084">
        <ele>190.48</ele>
        <time>2013-08-09T14:39:53Z</time>
      </trkpt>
      <trkpt lat="43.97584" lon="3.85095">
        <ele>190.48</ele>
        <time>2013-08-09T14:39:54Z</time>
      </trkpt>
      <trkpt lat="43.97572" lon="3.85103">
        <ele>189.52</ele>
        <time>2013-08-09T14:39:55Z</time>
      </trkpt>
      <trkpt lat="43.97561" lon="3.85109">
        <ele>188.56</ele>
        <time>2013-08-09T14:39:56Z</time>
      </trkpt>
      <trkpt lat="43.97548" lon="3.8511">
        <ele>186.63</ele>
        <time>2013-08-09T14:39:57Z</time>
      </trkpt>
      <trkpt lat="43.97535" lon="3.85111">
        <ele>185.67</ele>
        <time>2013-08-09T14:39:58Z</time>
      </trkpt>
      <trkpt lat="43.97521" lon="3.85109">
        <ele>185.67</ele>
        <time>2013-08-09T14:39:59Z</time>
      </trkpt>
      <trkpt lat="43.9746" lon="3.85138">
        <ele>184.23</ele>
        <time>2013-08-09T14:40:03Z</time>
      </trkpt>
      <trkpt lat="43.97415" lon="3.85164">
        <ele>184.23</ele>
        <time>2013-08-09T14:40:06Z</time>
      </trkpt>
      <trkpt lat="43.974" lon="3.85167">
        <ele>183.27</ele>
        <time>2013-08-09T14:40:07Z</time>
      </trkpt>
      <trkpt lat="43.97384" lon="3.85165">
        <ele>182.31</ele>
        <time>2013-08-09T14:40:08Z</time>
      </trkpt>
      <trkpt lat="43.97369" lon="3.85158">
        <ele>181.83</ele>
        <time>2013-08-09T14:40:09Z</time>
      </trkpt>
      <trkpt lat="43.97354" lon="3.85149">
        <ele>181.83</ele>
        <time>2013-08-09T14:40:10Z</time>
      </trkpt>
      <trkpt lat="43.9734" lon="3.85143">
        <ele>180.87</ele>
        <time>2013-08-09T14:40:11Z</time>
      </trkpt>
      <trkpt lat="43.97325" lon="3.85138">
        <ele>182.79</ele>
        <time>2013-08-09T14:40:12Z</time>
      </trkpt>
      <trkpt lat="43.97309" lon="3.85138">
        <ele>182.79</ele>
        <time>2013-08-09T14:40:13Z</time>
      </trkpt>
      <trkpt lat="43.97293" lon="3.85142">
        <ele>182.31</ele>
        <time>2013-08-09T14:40:14Z</time>
      </trkpt>
      <trkpt lat="43.97278" lon="3.85147">
        <ele>181.35</ele>
        <time>2013-08-09T14:40:15Z</time>
      </trkpt>
      <trkpt lat="43.97264" lon="3.85154">
        <ele>181.35</ele>
        <time>2013-08-09T14:40:16Z</time>
      </trkpt>
      <trkpt lat="43.97252" lon="3.85162">
        <ele>181.83</ele>
        <time>2013-08-09T14:40:17Z</time>
      </trkpt>
      <trkpt lat="43.9724" lon="3.85171">
        <ele>182.31</ele>
        <time>2013-08-09T14:40:18Z</time>
      </trkpt>
      <trkpt lat="43.9723" lon="3.85183">
        <ele>181.35</ele>
        <time>2013-08-09T14:40:19Z</time>
      </trkpt>
      <trkpt lat="43.97219" lon="3.85197">
        <ele>181.35</ele>
        <time>2013-08-09T14:40:20Z</time>
      </trkpt>
      <trkpt lat="43.97209" lon="3.85211">
        <ele>181.83</ele>
        <time>2013-08-09T14:40:21Z</time>
      </trkpt>
      <trkpt lat="43.97133" lon="3.8533">
        <ele>182.31</ele>
        <time>2013-08-09T14:40:29Z</time>
      </trkpt>
      <trkpt lat="43.97075" lon="3.85412">
        <ele>184.71</ele>
        <time>2013-08-09T14:40:35Z</time>
      </trkpt>
      <trkpt lat="43.97065" lon="3.85419">
        <ele>184.23</ele>
        <time>2013-08-09T14:40:36Z</time>
      </trkpt>
      <trkpt lat="43.97053" lon="3.85419">
        <ele>184.23</ele>
        <time>2013-08-09T14:40:37Z</time>
      </trkpt>
      <trkpt lat="43.97042" lon="3.85415">
        <ele>184.23</ele>
        <time>2013-08-09T14:40:38Z</time>
      </trkpt>
      <trkpt lat="43.9703" lon="3.8541">
        <ele>184.71</ele>
        <time>2013-08-09T14:40:39Z</time>
      </trkpt>
      <trkpt lat="43.9702" lon="3.85404">
        <ele>184.71</ele>
        <time>2013-08-09T14:40:40Z</time>
      </trkpt>
      <trkpt lat="43.9701" lon="3.85401">
        <ele>185.19</ele>
        <time>2013-08-09T14:40:41Z</time>
      </trkpt>
      <trkpt lat="43.96999" lon="3.85401">
        <ele>185.19</ele>
        <time>2013-08-09T14:40:42Z</time>
      </trkpt>
      <trkpt lat="43.96988" lon="3.85408">
        <ele>185.67</ele>
        <time>2013-08-09T14:40:43Z</time>
      </trkpt>
      <trkpt lat="43.96978" lon="3.85417">
        <ele>185.19</ele>
        <time>2013-08-09T14:40:44Z</time>
      </trkpt>
      <trkpt lat="43.96968" lon="3.85425">
        <ele>185.19</ele>
        <time>2013-08-09T14:40:45Z</time>
      </trkpt>
      <trkpt lat="43.96867" lon="3.85509">
        <ele>179.42</ele>
        <time>2013-08-09T14:40:57Z</time>
      </trkpt>
      <trkpt lat="43.9686" lon="3.85512">
        <ele>179.9</ele>
        <time>2013-08-09T14:40:58Z</time>
      </trkpt>
      <trkpt lat="43.9685" lon="3.85513">
        <ele>178.94</ele>
        <time>2013-08-09T14:40:59Z</time>
      </trkpt>
      <trkpt lat="43.96842" lon="3.85515">
        <ele>177.98</ele>
        <time>2013-08-09T14:41:00Z</time>
      </trkpt>
      <trkpt lat="43.96833" lon="3.85517">
        <ele>177.02</ele>
        <time>2013-08-09T14:41:01Z</time>
      </trkpt>
      <trkpt lat="43.96821" lon="3.85522">
        <ele>176.54</ele>
        <time>2013-08-09T14:41:02Z</time>
      </trkpt>
      <trkpt lat="43.96751" lon="3.85524">
        <ele>176.54</ele>
        <time>2013-08-09T14:41:10Z</time>
      </trkpt>
      <trkpt lat="43.96745" lon="3.85524">
        <ele>176.06</ele>
        <time>2013-08-09T14:41:11Z</time>
      </trkpt>
      <trkpt lat="43.9674" lon="3.85523">
        <ele>176.06</ele>
        <time>2013-08-09T14:41:12Z</time>
      </trkpt>
      <trkpt lat="43.96736" lon="3.85522">
        <ele>176.54</ele>
        <time>2013-08-09T14:41:13Z</time>
      </trkpt>
      <trkpt lat="43.96732" lon="3.85522">
        <ele>176.54</ele>
        <time>2013-08-09T14:41:14Z</time>
      </trkpt>
      <trkpt lat="43.96728" lon="3.85522">
        <ele>177.02</ele>
        <time>2013-08-09T14:41:15Z</time>
      </trkpt>
      <trkpt lat="43.96719" lon="3.85521">
        <ele>177.02</ele>
        <time>2013-08-09T14:41:17Z</time>
      </trkpt>
      <trkpt lat="43.96647" lon="3.85517">
        <ele>181.35</ele>
        <time>2013-08-09T14:41:26Z</time>
      </trkpt>
      <trkpt lat="43.96561" lon="3.85518">
        <ele>183.27</ele>
        <time>2013-08-09T14:41:37Z</time>
      </trkpt>
      <trkpt lat="43.96556" lon="3.85517">
        <ele>183.75</ele>
        <time>2013-08-09T14:41:38Z</time>
      </trkpt>
      <trkpt lat="43.96551" lon="3.85515">
        <ele>183.75</ele>
        <time>2013-08-09T14:41:39Z</time>
      </trkpt>
      <trkpt lat="43.96549" lon="3.85511">
        <ele>183.27</ele>
        <time>2013-08-09T14:41:40Z</time>
      </trkpt>
      <trkpt lat="43.96547" lon="3.85505">
        <ele>183.27</ele>
        <time>2013-08-09T14:41:41Z</time>
      </trkpt>
      <trkpt lat="43.96546" lon="3.85492">
        <ele>183.75</ele>
        <time>2013-08-09T14:41:42Z</time>
      </trkpt>
      <trkpt lat="43.96546" lon="3.8548">
        <ele>184.23</ele>
        <time>2013-08-09T14:41:43Z</time>
      </trkpt>
      <trkpt lat="43.96546" lon="3.85468">
        <ele>184.23</ele>
        <time>2013-08-09T14:41:44Z</time>
      </trkpt>
      <trkpt lat="43.96547" lon="3.85455">
        <ele>184.23</ele>
        <time>2013-08-09T14:41:45Z</time>
      </trkpt>
      <trkpt lat="43.96548" lon="3.85443">
        <ele>184.71</ele>
        <time>2013-08-09T14:41:46Z</time>
      </trkpt>
      <trkpt lat="43.96553" lon="3.85405">
        <ele>186.15</ele>
        <time>2013-08-09T14:41:50Z</time>
      </trkpt>
      <trkpt lat="43.96551" lon="3.85398">
        <ele>186.15</ele>
        <time>2013-08-09T14:41:51Z</time>
      </trkpt>
      <trkpt lat="43.96549" lon="3.85391">
        <ele>185.67</ele>
        <time>2013-08-09T14:41:52Z</time>
      </trkpt>
      <trkpt lat="43.96545" lon="3.85386">
        <ele>185.19</ele>
        <time>2013-08-09T14:41:53Z</time>
      </trkpt>
      <trkpt lat="43.96541" lon="3.85383">
        <ele>184.23</ele>
        <time>2013-08-09T14:41:54Z</time>
      </trkpt>
      <trkpt lat="43.96538" lon="3.85381">
        <ele>183.75</ele>
        <time>2013-08-09T14:41:55Z</time>
      </trkpt>
      <trkpt lat="43.96536" lon="3.8538">
        <ele>183.27</ele>
        <time>2013-08-09T14:41:56Z</time>
      </trkpt>
      <trkpt lat="43.96513" lon="3.85369">
        <ele>181.83</ele>
        <time>2013-08-09T14:42:07Z</time>
      </trkpt>
      <trkpt lat="43.96464" lon="3.85337">
        <ele>182.31</ele>
        <time>2013-08-09T14:42:16Z</time>
      </trkpt>
      <trkpt lat="43.96458" lon="3.85335">
        <ele>182.31</ele>
        <time>2013-08-09T14:42:17Z</time>
      </trkpt>
      <trkpt lat="43.96452" lon="3.85335">
        <ele>182.31</ele>
        <time>2013-08-09T14:42:18Z</time>
      </trkpt>
      <trkpt lat="43.96446" lon="3.85338">
        <ele>181.83</ele>
        <time>2013-08-09T14:42:19Z</time>
      </trkpt>
      <trkpt lat="43.96441" lon="3.85343">
        <ele>181.35</ele>
        <time>2013-08-09T14:42:20Z</time>
      </trkpt>
      <trkpt lat="43.96436" lon="3.85348">
        <ele>180.87</ele>
        <time>2013-08-09T14:42:21Z</time>
      </trkpt>
      <trkpt lat="43.9643" lon="3.85353">
        <ele>180.87</ele>
        <time>2013-08-09T14:42:22Z</time>
      </trkpt>
      <trkpt lat="43.96425" lon="3.85356">
        <ele>181.35</ele>
        <time>2013-08-09T14:42:23Z</time>
      </trkpt>
      <trkpt lat="43.9642" lon="3.85358">
        <ele>180.87</ele>
        <time>2013-08-09T14:42:24Z</time>
      </trkpt>
      <trkpt lat="43.96416" lon="3.85358">
        <ele>180.87</ele>
        <time>2013-08-09T14:42:25Z</time>
      </trkpt>
      <trkpt lat="43.96412" lon="3.85358">
        <ele>180.38</ele>
        <time>2013-08-09T14:42:26Z</time>
      </trkpt>
      <trkpt lat="43.96408" lon="3.85361">
        <ele>179.9</ele>
        <time>2013-08-09T14:42:27Z</time>
      </trkpt>
      <trkpt lat="43.96405" lon="3.85365">
        <ele>179.9</ele>
        <time>2013-08-09T14:42:28Z</time>
      </trkpt>
      <trkpt lat="43.96404" lon="3.85372">
        <ele>179.42</ele>
        <time>2013-08-09T14:42:29Z</time>
      </trkpt>
      <trkpt lat="43.96403" lon="3.8538">
        <ele>178.94</ele>
        <time>2013-08-09T14:42:30Z</time>
      </trkpt>
      <trkpt lat="43.96402" lon="3.85389">
        <ele>177.98</ele>
        <time>2013-08-09T14:42:31Z</time>
      </trkpt>
      <trkpt lat="43.96398" lon="3.85399">
        <ele>177.98</ele>
        <time>2013-08-09T14:42:32Z</time>
      </trkpt>
      <trkpt lat="43.96394" lon="3.85408">
        <ele>177.5</ele>
        <time>2013-08-09T14:42:33Z</time>
      </trkpt>
      <trkpt lat="43.96388" lon="3.85417">
        <ele>177.02</ele>
        <time>2013-08-09T14:42:34Z</time>
      </trkpt>
      <trkpt lat="43.96382" lon="3.85425">
        <ele>177.02</ele>
        <time>2013-08-09T14:42:35Z</time>
      </trkpt>
      <trkpt lat="43.96336" lon="3.85483">
        <ele>172.21</ele>
        <time>2013-08-09T14:42:44Z</time>
      </trkpt>
      <trkpt lat="43.96279" lon="3.85554">
        <ele>169.33</ele>
        <time>2013-08-09T14:42:52Z</time>
      </trkpt>
      <trkpt lat="43.9622" lon="3.85628">
        <ele>166.93</ele>
        <time>2013-08-09T14:43:03Z</time>
      </trkpt>
      <trkpt lat="43.96198" lon="3.85659">
        <ele>167.41</ele>
        <time>2013-08-09T14:43:08Z</time>
      </trkpt>
      <trkpt lat="43.96193" lon="3.85663">
        <ele>167.41</ele>
        <time>2013-08-09T14:43:09Z</time>
      </trkpt>
      <trkpt lat="43.96176" lon="3.85676">
        <ele>166.93</ele>
        <time>2013-08-09T14:43:12Z</time>
      </trkpt>
      <trkpt lat="43.96141" lon="3.85716">
        <ele>166.93</ele>
        <time>2013-08-09T14:43:20Z</time>
      </trkpt>
      <trkpt lat="43.96131" lon="3.8573">
        <ele>168.37</ele>
        <time>2013-08-09T14:43:22Z</time>
      </trkpt>
      <trkpt lat="43.96128" lon="3.85738">
        <ele>168.85</ele>
        <time>2013-08-09T14:43:23Z</time>
      </trkpt>
      <trkpt lat="43.96122" lon="3.8576">
        <ele>168.85</ele>
        <time>2013-08-09T14:43:26Z</time>
      </trkpt>
      <trkpt lat="43.96118" lon="3.85765">
        <ele>169.33</ele>
        <time>2013-08-09T14:43:27Z</time>
      </trkpt>
      <trkpt lat="43.96115" lon="3.85768">
        <ele>169.33</ele>
        <time>2013-08-09T14:43:28Z</time>
      </trkpt>
      <trkpt lat="43.9611" lon="3.85771">
        <ele>168.85</ele>
        <time>2013-08-09T14:43:29Z</time>
      </trkpt>
      <trkpt lat="43.96107" lon="3.85776">
        <ele>168.85</ele>
        <time>2013-08-09T14:43:30Z</time>
      </trkpt>
      <trkpt lat="43.96048" lon="3.85839">
        <ele>166.45</ele>
        <time>2013-08-09T14:43:40Z</time>
      </trkpt>
      <trkpt lat="43.95943" lon="3.8597">
        <ele>165.96</ele>
        <time>2013-08-09T14:43:53Z</time>
      </trkpt>
      <trkpt lat="43.95868" lon="3.86062">
        <ele>165.48</ele>
        <time>2013-08-09T14:44:02Z</time>
      </trkpt>
      <trkpt lat="43.95859" lon="3.86068">
        <ele>165</ele>
        <time>2013-08-09T14:44:03Z</time>
      </trkpt>
      <trkpt lat="43.9585" lon="3.86072">
        <ele>165</ele>
        <time>2013-08-09T14:44:04Z</time>
      </trkpt>
      <trkpt lat="43.95842" lon="3.86074">
        <ele>165</ele>
        <time>2013-08-09T14:44:05Z</time>
      </trkpt>
      <trkpt lat="43.95834" lon="3.86074">
        <ele>165</ele>
        <time>2013-08-09T14:44:06Z</time>
      </trkpt>
      <trkpt lat="43.95826" lon="3.86072">
        <ele>165</ele>
        <time>2013-08-09T14:44:07Z</time>
      </trkpt>
      <trkpt lat="43.95817" lon="3.86069">
        <ele>165</ele>
        <time>2013-08-09T14:44:08Z</time>
      </trkpt>
      <trkpt lat="43.9581" lon="3.86064">
        <ele>164.52</ele>
        <time>2013-08-09T14:44:09Z</time>
      </trkpt>
      <trkpt lat="43.95804" lon="3.86052">
        <ele>164.52</ele>
        <time>2013-08-09T14:44:10Z</time>
      </trkpt>
      <trkpt lat="43.958" lon="3.86042">
        <ele>164.52</ele>
        <time>2013-08-09T14:44:11Z</time>
      </trkpt>
      <trkpt lat="43.95798" lon="3.86031">
        <ele>164.04</ele>
        <time>2013-08-09T14:44:12Z</time>
      </trkpt>
      <trkpt lat="43.95798" lon="3.86019">
        <ele>164.52</ele>
        <time>2013-08-09T14:44:13Z</time>
      </trkpt>
      <trkpt lat="43.958" lon="3.86008">
        <ele>164.52</ele>
        <time>2013-08-09T14:44:14Z</time>
      </trkpt>
      <trkpt lat="43.95803" lon="3.85997">
        <ele>164.04</ele>
        <time>2013-08-09T14:44:15Z</time>
      </trkpt>
      <trkpt lat="43.95804" lon="3.85987">
        <ele>163.56</ele>
        <time>2013-08-09T14:44:16Z</time>
      </trkpt>
      <trkpt lat="43.95803" lon="3.85978">
        <ele>163.56</ele>
        <time>2013-08-09T14:44:17Z</time>
      </trkpt>
      <trkpt lat="43.95797" lon="3.85969">
        <ele>164.04</ele>
        <time>2013-08-09T14:44:18Z</time>
      </trkpt>
      <trkpt lat="43.95791" lon="3.85961">
        <ele>164.52</ele>
        <time>2013-08-09T14:44:19Z</time>
      </trkpt>
      <trkpt lat="43.95783" lon="3.85953">
        <ele>165.48</ele>
        <time>2013-08-09T14:44:20Z</time>
      </trkpt>
      <trkpt lat="43.9571" lon="3.85874">
        <ele>171.73</ele>
        <time>2013-08-09T14:44:29Z</time>
      </trkpt>
      <trkpt lat="43.95702" lon="3.85873">
        <ele>172.21</ele>
        <time>2013-08-09T14:44:30Z</time>
      </trkpt>
      <trkpt lat="43.95694" lon="3.85876">
        <ele>173.17</ele>
        <time>2013-08-09T14:44:31Z</time>
      </trkpt>
      <trkpt lat="43.95686" lon="3.85881">
        <ele>173.66</ele>
        <time>2013-08-09T14:44:32Z</time>
      </trkpt>
      <trkpt lat="43.95678" lon="3.85888">
        <ele>174.14</ele>
        <time>2013-08-09T14:44:33Z</time>
      </trkpt>
      <trkpt lat="43.95668" lon="3.85898">
        <ele>174.14</ele>
        <time>2013-08-09T14:44:34Z</time>
      </trkpt>
      <trkpt lat="43.95657" lon="3.85908">
        <ele>173.66</ele>
        <time>2013-08-09T14:44:35Z</time>
      </trkpt>
      <trkpt lat="43.95523" lon="3.86015">
        <ele>173.66</ele>
        <time>2013-08-09T14:44:46Z</time>
      </trkpt>
      <trkpt lat="43.95441" lon="3.86089">
        <ele>174.14</ele>
        <time>2013-08-09T14:44:54Z</time>
      </trkpt>
      <trkpt lat="43.95432" lon="3.86094">
        <ele>173.66</ele>
        <time>2013-08-09T14:44:55Z</time>
      </trkpt>
      <trkpt lat="43.95421" lon="3.86093">
        <ele>173.17</ele>
        <time>2013-08-09T14:44:56Z</time>
      </trkpt>
      <trkpt lat="43.95412" lon="3.86091">
        <ele>172.69</ele>
        <time>2013-08-09T14:44:57Z</time>
      </trkpt>
      <trkpt lat="43.95402" lon="3.86087">
        <ele>172.21</ele>
        <time>2013-08-09T14:44:58Z</time>
      </trkpt>
      <trkpt lat="43.95392" lon="3.86085">
        <ele>172.21</ele>
        <time>2013-08-09T14:44:59Z</time>
      </trkpt>
      <trkpt lat="43.95382" lon="3.86084">
        <ele>172.21</ele>
        <time>2013-08-09T14:45:00Z</time>
      </trkpt>
      <trkpt lat="43.95372" lon="3.86085">
        <ele>172.21</ele>
        <time>2013-08-09T14:45:01Z</time>
      </trkpt>
      <trkpt lat="43.9536" lon="3.86086">
        <ele>172.21</ele>
        <time>2013-08-09T14:45:02Z</time>
      </trkpt>
      <trkpt lat="43.95249" lon="3.861">
        <ele>172.69</ele>
        <time>2013-08-09T14:45:08Z</time>
      </trkpt>
      <trkpt lat="43.95058" lon="3.8612">
        <ele>173.17</ele>
        <time>2013-08-09T14:45:17Z</time>
      </trkpt>
      <trkpt lat="43.95039" lon="3.86113">
        <ele>173.66</ele>
        <time>2013-08-09T14:45:18Z</time>
      </trkpt>
      <trkpt lat="43.9502" lon="3.86103">
        <ele>173.66</ele>
        <time>2013-08-09T14:45:19Z</time>
      </trkpt>
      <trkpt lat="43.94859" lon="3.85986">
        <ele>173.66</ele>
        <time>2013-08-09T14:45:27Z</time>
      </trkpt>
      <trkpt lat="43.94576" lon="3.85722">
        <ele>176.54</ele>
        <time>2013-08-09T14:45:40Z</time>
      </trkpt>
      <trkpt lat="43.9427" lon="3.85446">
        <ele>179.42</ele>
        <time>2013-08-09T14:45:54Z</time>
      </trkpt>
      <trkpt lat="43.9411" lon="3.85354">
        <ele>179.9</ele>
        <time>2013-08-09T14:46:01Z</time>
      </trkpt>
      <trkpt lat="43.94089" lon="3.85349">
        <ele>180.38</ele>
        <time>2013-08-09T14:46:02Z</time>
      </trkpt>
      <trkpt lat="43.94066" lon="3.85346">
        <ele>180.87</ele>
        <time>2013-08-09T14:46:03Z</time>
      </trkpt>
      <trkpt lat="43.93997" lon="3.8533">
        <ele>181.83</ele>
        <time>2013-08-09T14:46:06Z</time>
      </trkpt>
      <trkpt lat="43.93975" lon="3.85317">
        <ele>182.31</ele>
        <time>2013-08-09T14:46:07Z</time>
      </trkpt>
      <trkpt lat="43.93952" lon="3.853">
        <ele>182.31</ele>
        <time>2013-08-09T14:46:08Z</time>
      </trkpt>
      <trkpt lat="43.9393" lon="3.85281">
        <ele>183.27</ele>
        <time>2013-08-09T14:46:09Z</time>
      </trkpt>
      <trkpt lat="43.93909" lon="3.85259">
        <ele>183.75</ele>
        <time>2013-08-09T14:46:10Z</time>
      </trkpt>
      <trkpt lat="43.93888" lon="3.85236">
        <ele>185.19</ele>
        <time>2013-08-09T14:46:11Z</time>
      </trkpt>
      <trkpt lat="43.93791" lon="3.85134">
        <ele>189.04</ele>
        <time>2013-08-09T14:46:16Z</time>
      </trkpt>
      <trkpt lat="43.93769" lon="3.85118">
        <ele>189.52</ele>
        <time>2013-08-09T14:46:17Z</time>
      </trkpt>
      <trkpt lat="43.93676" lon="3.85069">
        <ele>192.4</ele>
        <time>2013-08-09T14:46:21Z</time>
      </trkpt>
      <trkpt lat="43.93652" lon="3.85061">
        <ele>192.88</ele>
        <time>2013-08-09T14:46:22Z</time>
      </trkpt>
      <trkpt lat="43.93428" lon="3.85034">
        <ele>198.65</ele>
        <time>2013-08-09T14:46:31Z</time>
      </trkpt>
      <trkpt lat="43.93379" lon="3.85035">
        <ele>199.13</ele>
        <time>2013-08-09T14:46:33Z</time>
      </trkpt>
      <trkpt lat="43.93354" lon="3.8504">
        <ele>199.13</ele>
        <time>2013-08-09T14:46:34Z</time>
      </trkpt>
      <trkpt lat="43.9333" lon="3.85048">
        <ele>199.61</ele>
        <time>2013-08-09T14:46:35Z</time>
      </trkpt>
      <trkpt lat="43.93305" lon="3.8506">
        <ele>200.09</ele>
        <time>2013-08-09T14:46:36Z</time>
      </trkpt>
      <trkpt lat="43.93282" lon="3.85074">
        <ele>201.05</ele>
        <time>2013-08-09T14:46:37Z</time>
      </trkpt>
      <trkpt lat="43.9326" lon="3.85091">
        <ele>202.49</ele>
        <time>2013-08-09T14:46:38Z</time>
      </trkpt>
      <trkpt lat="43.93188" lon="3.85146">
        <ele>205.38</ele>
        <time>2013-08-09T14:46:42Z</time>
      </trkpt>
      <trkpt lat="43.93174" lon="3.85154">
        <ele>205.86</ele>
        <time>2013-08-09T14:46:43Z</time>
      </trkpt>
      <trkpt lat="43.93159" lon="3.85154">
        <ele>205.86</ele>
        <time>2013-08-09T14:46:44Z</time>
      </trkpt>
      <trkpt lat="43.93142" lon="3.8515">
        <ele>206.34</ele>
        <time>2013-08-09T14:46:45Z</time>
      </trkpt>
      <trkpt lat="43.93124" lon="3.85143">
        <ele>206.82</ele>
        <time>2013-08-09T14:46:46Z</time>
      </trkpt>
      <trkpt lat="43.93106" lon="3.85135">
        <ele>207.3</ele>
        <time>2013-08-09T14:46:47Z</time>
      </trkpt>
      <trkpt lat="43.93055" lon="3.85115">
        <ele>208.74</ele>
        <time>2013-08-09T14:46:50Z</time>
      </trkpt>
      <trkpt lat="43.93041" lon="3.85115">
        <ele>209.22</ele>
        <time>2013-08-09T14:46:51Z</time>
      </trkpt>
      <trkpt lat="43.93028" lon="3.85121">
        <ele>209.22</ele>
        <time>2013-08-09T14:46:52Z</time>
      </trkpt>
      <trkpt lat="43.93014" lon="3.85134">
        <ele>209.7</ele>
        <time>2013-08-09T14:46:53Z</time>
      </trkpt>
      <trkpt lat="43.93" lon="3.85152">
        <ele>210.67</ele>
        <time>2013-08-09T14:46:54Z</time>
      </trkpt>
      <trkpt lat="43.92986" lon="3.85171">
        <ele>211.63</ele>
        <time>2013-08-09T14:46:55Z</time>
      </trkpt>
      <trkpt lat="43.92922" lon="3.85264">
        <ele>216.91</ele>
        <time>2013-08-09T14:47:01Z</time>
      </trkpt>
      <trkpt lat="43.92913" lon="3.8527">
        <ele>217.4</ele>
        <time>2013-08-09T14:47:02Z</time>
      </trkpt>
      <trkpt lat="43.92905" lon="3.8527">
        <ele>218.84</ele>
        <time>2013-08-09T14:47:03Z</time>
      </trkpt>
      <trkpt lat="43.92897" lon="3.85264">
        <ele>219.32</ele>
        <time>2013-08-09T14:47:04Z</time>
      </trkpt>
      <trkpt lat="43.92891" lon="3.85251">
        <ele>219.32</ele>
        <time>2013-08-09T14:47:05Z</time>
      </trkpt>
      <trkpt lat="43.92886" lon="3.85233">
        <ele>220.28</ele>
        <time>2013-08-09T14:47:06Z</time>
      </trkpt>
      <trkpt lat="43.92881" lon="3.8521">
        <ele>221.72</ele>
        <time>2013-08-09T14:47:07Z</time>
      </trkpt>
      <trkpt lat="43.92875" lon="3.85187">
        <ele>222.68</ele>
        <time>2013-08-09T14:47:08Z</time>
      </trkpt>
      <trkpt lat="43.92851" lon="3.85115">
        <ele>227.01</ele>
        <time>2013-08-09T14:47:11Z</time>
      </trkpt>
      <trkpt lat="43.92841" lon="3.85094">
        <ele>228.45</ele>
        <time>2013-08-09T14:47:12Z</time>
      </trkpt>
      <trkpt lat="43.92829" lon="3.85075">
        <ele>229.41</ele>
        <time>2013-08-09T14:47:13Z</time>
      </trkpt>
      <trkpt lat="43.92815" lon="3.85062">
        <ele>230.37</ele>
        <time>2013-08-09T14:47:14Z</time>
      </trkpt>
      <trkpt lat="43.92797" lon="3.8505">
        <ele>231.81</ele>
        <time>2013-08-09T14:47:15Z</time>
      </trkpt>
      <trkpt lat="43.92779" lon="3.85039">
        <ele>232.3</ele>
        <time>2013-08-09T14:47:16Z</time>
      </trkpt>
      <trkpt lat="43.92762" lon="3.85031">
        <ele>233.26</ele>
        <time>2013-08-09T14:47:17Z</time>
      </trkpt>
      <trkpt lat="43.92747" lon="3.85028">
        <ele>233.74</ele>
        <time>2013-08-09T14:47:18Z</time>
      </trkpt>
      <trkpt lat="43.92731" lon="3.8503">
        <ele>234.7</ele>
        <time>2013-08-09T14:47:19Z</time>
      </trkpt>
      <trkpt lat="43.92714" lon="3.85035">
        <ele>236.14</ele>
        <time>2013-08-09T14:47:20Z</time>
      </trkpt>
      <trkpt lat="43.92695" lon="3.85039">
        <ele>237.1</ele>
        <time>2013-08-09T14:47:21Z</time>
      </trkpt>
      <trkpt lat="43.92677" lon="3.85039">
        <ele>238.06</ele>
        <time>2013-08-09T14:47:22Z</time>
      </trkpt>
      <trkpt lat="43.92658" lon="3.85034">
        <ele>239.02</ele>
        <time>2013-08-09T14:47:23Z</time>
      </trkpt>
      <trkpt lat="43.92638" lon="3.85026">
        <ele>239.51</ele>
        <time>2013-08-09T14:47:24Z</time>
      </trkpt>
      <trkpt lat="43.92616" lon="3.85018">
        <ele>239.51</ele>
        <time>2013-08-09T14:47:25Z</time>
      </trkpt>
      <trkpt lat="43.92418" lon="3.84956">
        <ele>235.66</ele>
        <time>2013-08-09T14:47:33Z</time>
      </trkpt>
      <trkpt lat="43.92235" lon="3.84901">
        <ele>231.33</ele>
        <time>2013-08-09T14:47:40Z</time>
      </trkpt>
      <trkpt lat="43.92207" lon="3.84902">
        <ele>230.85</ele>
        <time>2013-08-09T14:47:41Z</time>
      </trkpt>
      <trkpt lat="43.92179" lon="3.84906">
        <ele>229.41</ele>
        <time>2013-08-09T14:47:42Z</time>
      </trkpt>
      <trkpt lat="43.91926" lon="3.84952">
        <ele>219.32</ele>
        <time>2013-08-09T14:47:51Z</time>
      </trkpt>
      <trkpt lat="43.91899" lon="3.84969">
        <ele>218.36</ele>
        <time>2013-08-09T14:47:52Z</time>
      </trkpt>
      <trkpt lat="43.91669" lon="3.85138">
        <ele>209.22</ele>
        <time>2013-08-09T14:48:01Z</time>
      </trkpt>
      <trkpt lat="43.91625" lon="3.85181">
        <ele>207.3</ele>
        <time>2013-08-09T14:48:03Z</time>
      </trkpt>
      <trkpt lat="43.91604" lon="3.85208">
        <ele>206.82</ele>
        <time>2013-08-09T14:48:04Z</time>
      </trkpt>
      <trkpt lat="43.91584" lon="3.85239">
        <ele>205.86</ele>
        <time>2013-08-09T14:48:05Z</time>
      </trkpt>
      <trkpt lat="43.91452" lon="3.85421">
        <ele>202.49</ele>
        <time>2013-08-09T14:48:12Z</time>
      </trkpt>
      <trkpt lat="43.91265" lon="3.85601">
        <ele>191.44</ele>
        <time>2013-08-09T14:48:20Z</time>
      </trkpt>
      <trkpt lat="43.91204" lon="3.85652">
        <ele>188.08</ele>
        <time>2013-08-09T14:48:23Z</time>
      </trkpt>
      <trkpt lat="43.91182" lon="3.85665">
        <ele>186.63</ele>
        <time>2013-08-09T14:48:24Z</time>
      </trkpt>
      <trkpt lat="43.91003" lon="3.85759">
        <ele>177.5</ele>
        <time>2013-08-09T14:48:32Z</time>
      </trkpt>
      <trkpt lat="43.90967" lon="3.85768">
        <ele>175.58</ele>
        <time>2013-08-09T14:48:34Z</time>
      </trkpt>
      <trkpt lat="43.9095" lon="3.85764">
        <ele>174.14</ele>
        <time>2013-08-09T14:48:35Z</time>
      </trkpt>
      <trkpt lat="43.90932" lon="3.85756">
        <ele>173.17</ele>
        <time>2013-08-09T14:48:36Z</time>
      </trkpt>
      <trkpt lat="43.90911" lon="3.85744">
        <ele>173.17</ele>
        <time>2013-08-09T14:48:37Z</time>
      </trkpt>
      <trkpt lat="43.90889" lon="3.85731">
        <ele>174.14</ele>
        <time>2013-08-09T14:48:38Z</time>
      </trkpt>
      <trkpt lat="43.90867" lon="3.85721">
        <ele>174.62</ele>
        <time>2013-08-09T14:48:39Z</time>
      </trkpt>
      <trkpt lat="43.90844" lon="3.85714">
        <ele>174.14</ele>
        <time>2013-08-09T14:48:40Z</time>
      </trkpt>
      <trkpt lat="43.90819" lon="3.8571">
        <ele>174.14</ele>
        <time>2013-08-09T14:48:41Z</time>
      </trkpt>
      <trkpt lat="43.90794" lon="3.85708">
        <ele>174.14</ele>
        <time>2013-08-09T14:48:42Z</time>
      </trkpt>
      <trkpt lat="43.90768" lon="3.85708">
        <ele>174.14</ele>
        <time>2013-08-09T14:48:43Z</time>
      </trkpt>
      <trkpt lat="43.90586" lon="3.85738">
        <ele>175.1</ele>
        <time>2013-08-09T14:48:50Z</time>
      </trkpt>
      <trkpt lat="43.90532" lon="3.85747">
        <ele>175.58</ele>
        <time>2013-08-09T14:48:53Z</time>
      </trkpt>
      <trkpt lat="43.90517" lon="3.85743">
        <ele>175.58</ele>
        <time>2013-08-09T14:48:54Z</time>
      </trkpt>
      <trkpt lat="43.90502" lon="3.85734">
        <ele>175.58</ele>
        <time>2013-08-09T14:48:55Z</time>
      </trkpt>
      <trkpt lat="43.90486" lon="3.8572">
        <ele>175.58</ele>
        <time>2013-08-09T14:48:56Z</time>
      </trkpt>
      <trkpt lat="43.90469" lon="3.85705">
        <ele>175.58</ele>
        <time>2013-08-09T14:48:57Z</time>
      </trkpt>
      <trkpt lat="43.90451" lon="3.85687">
        <ele>176.06</ele>
        <time>2013-08-09T14:48:58Z</time>
      </trkpt>
      <trkpt lat="43.90322" lon="3.85596">
        <ele>179.42</ele>
        <time>2013-08-09T14:49:04Z</time>
      </trkpt>
      <trkpt lat="43.90076" lon="3.85431">
        <ele>187.59</ele>
        <time>2013-08-09T14:49:15Z</time>
      </trkpt>
      <trkpt lat="43.90057" lon="3.85423">
        <ele>188.08</ele>
        <time>2013-08-09T14:49:16Z</time>
      </trkpt>
      <trkpt lat="43.90038" lon="3.85419">
        <ele>188.08</ele>
        <time>2013-08-09T14:49:17Z</time>
      </trkpt>
      <trkpt lat="43.90019" lon="3.85422">
        <ele>188.08</ele>
        <time>2013-08-09T14:49:18Z</time>
      </trkpt>
      <trkpt lat="43.89999" lon="3.85428">
        <ele>189.04</ele>
        <time>2013-08-09T14:49:19Z</time>
      </trkpt>
      <trkpt lat="43.89978" lon="3.85438">
        <ele>190</ele>
        <time>2013-08-09T14:49:20Z</time>
      </trkpt>
      <trkpt lat="43.89958" lon="3.8545">
        <ele>190.96</ele>
        <time>2013-08-09T14:49:21Z</time>
      </trkpt>
      <trkpt lat="43.89939" lon="3.85462">
        <ele>190</ele>
        <time>2013-08-09T14:49:22Z</time>
      </trkpt>
      <trkpt lat="43.89823" lon="3.85522">
        <ele>189.52</ele>
        <time>2013-08-09T14:49:29Z</time>
      </trkpt>
      <trkpt lat="43.89711" lon="3.85585">
        <ele>189.04</ele>
        <time>2013-08-09T14:49:38Z</time>
      </trkpt>
      <trkpt lat="43.8957" lon="3.85652">
        <ele>190</ele>
        <time>2013-08-09T14:49:50Z</time>
      </trkpt>
      <trkpt lat="43.89493" lon="3.85665">
        <ele>192.88</ele>
        <time>2013-08-09T14:49:58Z</time>
      </trkpt>
      <trkpt lat="43.89484" lon="3.85662">
        <ele>192.88</ele>
        <time>2013-08-09T14:49:59Z</time>
      </trkpt>
      <trkpt lat="43.89476" lon="3.8566">
        <ele>193.36</ele>
        <time>2013-08-09T14:50:00Z</time>
      </trkpt>
      <trkpt lat="43.89469" lon="3.85656">
        <ele>193.84</ele>
        <time>2013-08-09T14:50:01Z</time>
      </trkpt>
      <trkpt lat="43.89464" lon="3.85653">
        <ele>195.77</ele>
        <time>2013-08-09T14:50:02Z</time>
      </trkpt>
      <trkpt lat="43.89457" lon="3.8565">
        <ele>200.09</ele>
        <time>2013-08-09T14:50:08Z</time>
      </trkpt>
      <trkpt lat="43.89418" lon="3.85639">
        <ele>203.46</ele>
        <time>2013-08-09T14:50:15Z</time>
      </trkpt>
      <trkpt lat="43.89386" lon="3.85638">
        <ele>203.94</ele>
        <time>2013-08-09T14:50:20Z</time>
      </trkpt>
      <trkpt lat="43.89335" lon="3.85637">
        <ele>197.21</ele>
        <time>2013-08-09T14:50:28Z</time>
      </trkpt>
      <trkpt lat="43.89324" lon="3.85638">
        <ele>196.25</ele>
        <time>2013-08-09T14:50:29Z</time>
      </trkpt>
      <trkpt lat="43.89216" lon="3.85633">
        <ele>193.84</ele>
        <time>2013-08-09T14:50:40Z</time>
      </trkpt>
      <trkpt lat="43.89111" lon="3.8563">
        <ele>195.77</ele>
        <time>2013-08-09T14:50:49Z</time>
      </trkpt>
      <trkpt lat="43.88983" lon="3.85627">
        <ele>197.69</ele>
        <time>2013-08-09T14:50:56Z</time>
      </trkpt>
      <trkpt lat="43.88772" lon="3.8562">
        <ele>198.17</ele>
        <time>2013-08-09T14:51:05Z</time>
      </trkpt>
      <trkpt lat="43.88341" lon="3.85608">
        <ele>203.46</ele>
        <time>2013-08-09T14:51:22Z</time>
      </trkpt>
      <trkpt lat="43.88136" lon="3.85601">
        <ele>210.67</ele>
        <time>2013-08-09T14:51:31Z</time>
      </trkpt>
      <trkpt lat="43.88105" lon="3.85601">
        <ele>212.59</ele>
        <time>2013-08-09T14:51:33Z</time>
      </trkpt>
      <trkpt lat="43.88094" lon="3.85607">
        <ele>214.03</ele>
        <time>2013-08-09T14:51:34Z</time>
      </trkpt>
      <trkpt lat="43.88085" lon="3.85617">
        <ele>214.99</ele>
        <time>2013-08-09T14:51:35Z</time>
      </trkpt>
      <trkpt lat="43.88077" lon="3.85631">
        <ele>215.95</ele>
        <time>2013-08-09T14:51:36Z</time>
      </trkpt>
      <trkpt lat="43.88073" lon="3.85651">
        <ele>216.91</ele>
        <time>2013-08-09T14:51:37Z</time>
      </trkpt>
      <trkpt lat="43.88073" lon="3.85675">
        <ele>218.36</ele>
        <time>2013-08-09T14:51:38Z</time>
      </trkpt>
      <trkpt lat="43.88071" lon="3.85702">
        <ele>219.32</ele>
        <time>2013-08-09T14:51:39Z</time>
      </trkpt>
      <trkpt lat="43.88068" lon="3.85731">
        <ele>220.28</ele>
        <time>2013-08-09T14:51:40Z</time>
      </trkpt>
      <trkpt lat="43.88025" lon="3.85986">
        <ele>231.81</ele>
        <time>2013-08-09T14:51:49Z</time>
      </trkpt>
      <trkpt lat="43.88013" lon="3.8602">
        <ele>233.74</ele>
        <time>2013-08-09T14:51:52Z</time>
      </trkpt>
      <trkpt lat="43.88008" lon="3.86022">
        <ele>233.74</ele>
        <time>2013-08-09T14:51:53Z</time>
      </trkpt>
      <trkpt lat="43.88002" lon="3.86019">
        <ele>234.7</ele>
        <time>2013-08-09T14:51:54Z</time>
      </trkpt>
      <trkpt lat="43.87996" lon="3.8601">
        <ele>235.66</ele>
        <time>2013-08-09T14:51:55Z</time>
      </trkpt>
      <trkpt lat="43.8799" lon="3.85996">
        <ele>236.62</ele>
        <time>2013-08-09T14:51:56Z</time>
      </trkpt>
      <trkpt lat="43.87985" lon="3.85979">
        <ele>237.58</ele>
        <time>2013-08-09T14:51:57Z</time>
      </trkpt>
      <trkpt lat="43.87979" lon="3.85959">
        <ele>238.54</ele>
        <time>2013-08-09T14:51:58Z</time>
      </trkpt>
      <trkpt lat="43.87945" lon="3.85796">
        <ele>244.31</ele>
        <time>2013-08-09T14:52:05Z</time>
      </trkpt>
      <trkpt lat="43.87935" lon="3.85753">
        <ele>246.23</ele>
        <time>2013-08-09T14:52:07Z</time>
      </trkpt>
      <trkpt lat="43.87927" lon="3.85733">
        <ele>248.16</ele>
        <time>2013-08-09T14:52:08Z</time>
      </trkpt>
      <trkpt lat="43.87918" lon="3.85713">
        <ele>249.12</ele>
        <time>2013-08-09T14:52:09Z</time>
      </trkpt>
      <trkpt lat="43.87906" lon="3.85693">
        <ele>250.56</ele>
        <time>2013-08-09T14:52:10Z</time>
      </trkpt>
      <trkpt lat="43.87895" lon="3.85673">
        <ele>251.52</ele>
        <time>2013-08-09T14:52:11Z</time>
      </trkpt>
      <trkpt lat="43.87815" lon="3.85547">
        <ele>259.21</ele>
        <time>2013-08-09T14:52:18Z</time>
      </trkpt>
      <trkpt lat="43.87801" lon="3.85535">
        <ele>260.65</ele>
        <time>2013-08-09T14:52:19Z</time>
      </trkpt>
      <trkpt lat="43.87786" lon="3.85524">
        <ele>262.1</ele>
        <time>2013-08-09T14:52:20Z</time>
      </trkpt>
      <trkpt lat="43.87769" lon="3.85516">
        <ele>264.02</ele>
        <time>2013-08-09T14:52:21Z</time>
      </trkpt>
      <trkpt lat="43.87751" lon="3.8551">
        <ele>265.46</ele>
        <time>2013-08-09T14:52:22Z</time>
      </trkpt>
      <trkpt lat="43.87734" lon="3.85506">
        <ele>267.38</ele>
        <time>2013-08-09T14:52:23Z</time>
      </trkpt>
      <trkpt lat="43.87717" lon="3.85503">
        <ele>268.83</ele>
        <time>2013-08-09T14:52:24Z</time>
      </trkpt>
      <trkpt lat="43.87679" lon="3.85492">
        <ele>274.59</ele>
        <time>2013-08-09T14:52:27Z</time>
      </trkpt>
      <trkpt lat="43.87659" lon="3.85496">
        <ele>278.92</ele>
        <time>2013-08-09T14:52:30Z</time>
      </trkpt>
      <trkpt lat="43.87655" lon="3.85502">
        <ele>279.88</ele>
        <time>2013-08-09T14:52:31Z</time>
      </trkpt>
      <trkpt lat="43.87691" lon="3.85522">
        <ele>278.44</ele>
        <time>2013-08-09T14:52:34Z</time>
      </trkpt>
      <trkpt lat="43.87708" lon="3.85525">
        <ele>278.44</ele>
        <time>2013-08-09T14:52:35Z</time>
      </trkpt>
      <trkpt lat="43.87725" lon="3.85531">
        <ele>278.44</ele>
        <time>2013-08-09T14:52:36Z</time>
      </trkpt>
      <trkpt lat="43.87755" lon="3.85545">
        <ele>279.4</ele>
        <time>2013-08-09T14:52:38Z</time>
      </trkpt>
      <trkpt lat="43.87769" lon="3.85556">
        <ele>279.88</ele>
        <time>2013-08-09T14:52:39Z</time>
      </trkpt>
      <trkpt lat="43.87782" lon="3.85571">
        <ele>280.36</ele>
        <time>2013-08-09T14:52:40Z</time>
      </trkpt>
      <trkpt lat="43.87794" lon="3.85588">
        <ele>278.92</ele>
        <time>2013-08-09T14:52:41Z</time>
      </trkpt>
      <trkpt lat="43.87807" lon="3.85609">
        <ele>274.59</ele>
        <time>2013-08-09T14:52:42Z</time>
      </trkpt>
      <trkpt lat="43.87815" lon="3.8563">
        <ele>275.07</ele>
        <time>2013-08-09T14:52:43Z</time>
      </trkpt>
      <trkpt lat="43.87822" lon="3.85651">
        <ele>275.07</ele>
        <time>2013-08-09T14:52:44Z</time>
      </trkpt>
      <trkpt lat="43.87827" lon="3.85674">
        <ele>276.04</ele>
        <time>2013-08-09T14:52:45Z</time>
      </trkpt>
      <trkpt lat="43.8783" lon="3.85697">
        <ele>276.04</ele>
        <time>2013-08-09T14:52:46Z</time>
      </trkpt>
      <trkpt lat="43.87831" lon="3.85722">
        <ele>277</ele>
        <time>2013-08-09T14:52:47Z</time>
      </trkpt>
      <trkpt lat="43.87831" lon="3.85748">
        <ele>277.48</ele>
        <time>2013-08-09T14:52:48Z</time>
      </trkpt>
      <trkpt lat="43.87829" lon="3.85774">
        <ele>278.92</ele>
        <time>2013-08-09T14:52:49Z</time>
      </trkpt>
      <trkpt lat="43.87826" lon="3.858">
        <ele>279.88</ele>
        <time>2013-08-09T14:52:50Z</time>
      </trkpt>
      <trkpt lat="43.87822" lon="3.85825">
        <ele>280.84</ele>
        <time>2013-08-09T14:52:51Z</time>
      </trkpt>
      <trkpt lat="43.87817" lon="3.85849">
        <ele>281.8</ele>
        <time>2013-08-09T14:52:52Z</time>
      </trkpt>
      <trkpt lat="43.87811" lon="3.85872">
        <ele>282.28</ele>
        <time>2013-08-09T14:52:53Z</time>
      </trkpt>
      <trkpt lat="43.87805" lon="3.85895">
        <ele>282.77</ele>
        <time>2013-08-09T14:52:54Z</time>
      </trkpt>
      <trkpt lat="43.87797" lon="3.85917">
        <ele>283.25</ele>
        <time>2013-08-09T14:52:55Z</time>
      </trkpt>
      <trkpt lat="43.87782" lon="3.8596">
        <ele>284.21</ele>
        <time>2013-08-09T14:52:57Z</time>
      </trkpt>
      <trkpt lat="43.87777" lon="3.85984">
        <ele>285.17</ele>
        <time>2013-08-09T14:52:58Z</time>
      </trkpt>
      <trkpt lat="43.87774" lon="3.8601">
        <ele>286.61</ele>
        <time>2013-08-09T14:52:59Z</time>
      </trkpt>
      <trkpt lat="43.87765" lon="3.86147">
        <ele>291.9</ele>
        <time>2013-08-09T14:53:05Z</time>
      </trkpt>
      <trkpt lat="43.87769" lon="3.86209">
        <ele>294.78</ele>
        <time>2013-08-09T14:53:10Z</time>
      </trkpt>
      <trkpt lat="43.87767" lon="3.86211">
        <ele>295.26</ele>
        <time>2013-08-09T14:53:11Z</time>
      </trkpt>
      <trkpt lat="43.87764" lon="3.86209">
        <ele>295.26</ele>
        <time>2013-08-09T14:53:12Z</time>
      </trkpt>
      <trkpt lat="43.8776" lon="3.86202">
        <ele>295.74</ele>
        <time>2013-08-09T14:53:13Z</time>
      </trkpt>
      <trkpt lat="43.87758" lon="3.86191">
        <ele>296.22</ele>
        <time>2013-08-09T14:53:14Z</time>
      </trkpt>
      <trkpt lat="43.87756" lon="3.86176">
        <ele>296.22</ele>
        <time>2013-08-09T14:53:15Z</time>
      </trkpt>
      <trkpt lat="43.87755" lon="3.86159">
        <ele>296.22</ele>
        <time>2013-08-09T14:53:16Z</time>
      </trkpt>
      <trkpt lat="43.87755" lon="3.86139">
        <ele>296.22</ele>
        <time>2013-08-09T14:53:17Z</time>
      </trkpt>
      <trkpt lat="43.87755" lon="3.86118">
        <ele>296.7</ele>
        <time>2013-08-09T14:53:18Z</time>
      </trkpt>
      <trkpt lat="43.87752" lon="3.85954">
        <ele>301.99</ele>
        <time>2013-08-09T14:53:25Z</time>
      </trkpt>
      <trkpt lat="43.87754" lon="3.85931">
        <ele>302.47</ele>
        <time>2013-08-09T14:53:26Z</time>
      </trkpt>
      <trkpt lat="43.87758" lon="3.85907">
        <ele>303.43</ele>
        <time>2013-08-09T14:53:27Z</time>
      </trkpt>
      <trkpt lat="43.87764" lon="3.85882">
        <ele>304.39</ele>
        <time>2013-08-09T14:53:28Z</time>
      </trkpt>
      <trkpt lat="43.87769" lon="3.85856">
        <ele>305.36</ele>
        <time>2013-08-09T14:53:29Z</time>
      </trkpt>
      <trkpt lat="43.87774" lon="3.8569">
        <ele>310.16</ele>
        <time>2013-08-09T14:53:36Z</time>
      </trkpt>
      <trkpt lat="43.87766" lon="3.85654">
        <ele>311.12</ele>
        <time>2013-08-09T14:53:38Z</time>
      </trkpt>
      <trkpt lat="43.87758" lon="3.85639">
        <ele>312.09</ele>
        <time>2013-08-09T14:53:39Z</time>
      </trkpt>
      <trkpt lat="43.87738" lon="3.85628">
        <ele>314.01</ele>
        <time>2013-08-09T14:53:40Z</time>
      </trkpt>
      <trkpt lat="43.87722" lon="3.8562">
        <ele>315.45</ele>
        <time>2013-08-09T14:53:41Z</time>
      </trkpt>
      <trkpt lat="43.87705" lon="3.85614">
        <ele>316.89</ele>
        <time>2013-08-09T14:53:42Z</time>
      </trkpt>
      <trkpt lat="43.87686" lon="3.85608">
        <ele>318.33</ele>
        <time>2013-08-09T14:53:43Z</time>
      </trkpt>
      <trkpt lat="43.8757" lon="3.85528">
        <ele>325.06</ele>
        <time>2013-08-09T14:53:49Z</time>
      </trkpt>
      <trkpt lat="43.87504" lon="3.85459">
        <ele>331.31</ele>
        <time>2013-08-09T14:53:54Z</time>
      </trkpt>
      <trkpt lat="43.87499" lon="3.85442">
        <ele>332.27</ele>
        <time>2013-08-09T14:53:55Z</time>
      </trkpt>
      <trkpt lat="43.87498" lon="3.85424">
        <ele>333.23</ele>
        <time>2013-08-09T14:53:56Z</time>
      </trkpt>
      <trkpt lat="43.87493" lon="3.85389">
        <ele>335.64</ele>
        <time>2013-08-09T14:53:58Z</time>
      </trkpt>
      <trkpt lat="43.87488" lon="3.85373">
        <ele>336.12</ele>
        <time>2013-08-09T14:53:59Z</time>
      </trkpt>
      <trkpt lat="43.8748" lon="3.85357">
        <ele>336.12</ele>
        <time>2013-08-09T14:54:00Z</time>
      </trkpt>
      <trkpt lat="43.8747" lon="3.85343">
        <ele>336.12</ele>
        <time>2013-08-09T14:54:01Z</time>
      </trkpt>
      <trkpt lat="43.87457" lon="3.8533">
        <ele>336.6</ele>
        <time>2013-08-09T14:54:02Z</time>
      </trkpt>
      <trkpt lat="43.87442" lon="3.85318">
        <ele>336.6</ele>
        <time>2013-08-09T14:54:03Z</time>
      </trkpt>
      <trkpt lat="43.87308" lon="3.85222">
        <ele>333.71</ele>
        <time>2013-08-09T14:54:11Z</time>
      </trkpt>
      <trkpt lat="43.87287" lon="3.85216">
        <ele>333.23</ele>
        <time>2013-08-09T14:54:12Z</time>
      </trkpt>
      <trkpt lat="43.87106" lon="3.85171">
        <ele>328.43</ele>
        <time>2013-08-09T14:54:19Z</time>
      </trkpt>
      <trkpt lat="43.86958" lon="3.85143">
        <ele>326.5</ele>
        <time>2013-08-09T14:54:25Z</time>
      </trkpt>
      <trkpt lat="43.86933" lon="3.85148">
        <ele>326.99</ele>
        <time>2013-08-09T14:54:26Z</time>
      </trkpt>
      <trkpt lat="43.86671" lon="3.85207">
        <ele>328.91</ele>
        <time>2013-08-09T14:54:36Z</time>
      </trkpt>
      <trkpt lat="43.86367" lon="3.85274">
        <ele>327.47</ele>
        <time>2013-08-09T14:54:47Z</time>
      </trkpt>
      <trkpt lat="43.8605" lon="3.85302">
        <ele>324.58</ele>
        <time>2013-08-09T14:54:58Z</time>
      </trkpt>
      <trkpt lat="43.85707" lon="3.8533">
        <ele>322.18</ele>
        <time>2013-08-09T14:55:10Z</time>
      </trkpt>
      <trkpt lat="43.85234" lon="3.85368">
        <ele>322.66</ele>
        <time>2013-08-09T14:55:26Z</time>
      </trkpt>
      <trkpt lat="43.85056" lon="3.85393">
        <ele>326.02</ele>
        <time>2013-08-09T14:55:33Z</time>
      </trkpt>
      <trkpt lat="43.84712" lon="3.85501">
        <ele>319.78</ele>
        <time>2013-08-09T14:55:45Z</time>
      </trkpt>
      <trkpt lat="43.84265" lon="3.85641">
        <ele>324.58</ele>
        <time>2013-08-09T14:56:01Z</time>
      </trkpt>
      <trkpt lat="43.83888" lon="3.8575">
        <ele>326.5</ele>
        <time>2013-08-09T14:56:15Z</time>
      </trkpt>
      <trkpt lat="43.83545" lon="3.85782">
        <ele>324.1</ele>
        <time>2013-08-09T14:56:27Z</time>
      </trkpt>
      <trkpt lat="43.83211" lon="3.8581">
        <ele>326.02</ele>
        <time>2013-08-09T14:56:39Z</time>
      </trkpt>
      <trkpt lat="43.82876" lon="3.8584">
        <ele>332.27</ele>
        <time>2013-08-09T14:56:52Z</time>
      </trkpt>
      <trkpt lat="43.82794" lon="3.85845">
        <ele>332.75</ele>
        <time>2013-08-09T14:56:56Z</time>
      </trkpt>
      <trkpt lat="43.82774" lon="3.85842">
        <ele>332.75</ele>
        <time>2013-08-09T14:56:57Z</time>
      </trkpt>
      <trkpt lat="43.82756" lon="3.85831">
        <ele>332.75</ele>
        <time>2013-08-09T14:56:58Z</time>
      </trkpt>
      <trkpt lat="43.82738" lon="3.85816">
        <ele>332.75</ele>
        <time>2013-08-09T14:56:59Z</time>
      </trkpt>
      <trkpt lat="43.82722" lon="3.85798">
        <ele>333.23</ele>
        <time>2013-08-09T14:57:00Z</time>
      </trkpt>
      <trkpt lat="43.82707" lon="3.85781">
        <ele>332.75</ele>
        <time>2013-08-09T14:57:01Z</time>
      </trkpt>
      <trkpt lat="43.82692" lon="3.85764">
        <ele>333.23</ele>
        <time>2013-08-09T14:57:02Z</time>
      </trkpt>
      <trkpt lat="43.82677" lon="3.85749">
        <ele>333.23</ele>
        <time>2013-08-09T14:57:03Z</time>
      </trkpt>
      <trkpt lat="43.8266" lon="3.85738">
        <ele>333.71</ele>
        <time>2013-08-09T14:57:04Z</time>
      </trkpt>
      <trkpt lat="43.82642" lon="3.85731">
        <ele>333.71</ele>
        <time>2013-08-09T14:57:05Z</time>
      </trkpt>
      <trkpt lat="43.82621" lon="3.85727">
        <ele>334.2</ele>
        <time>2013-08-09T14:57:06Z</time>
      </trkpt>
      <trkpt lat="43.82599" lon="3.85725">
        <ele>334.2</ele>
        <time>2013-08-09T14:57:07Z</time>
      </trkpt>
      <trkpt lat="43.82575" lon="3.85723">
        <ele>334.68</ele>
        <time>2013-08-09T14:57:08Z</time>
      </trkpt>
      <trkpt lat="43.82388" lon="3.85691">
        <ele>337.08</ele>
        <time>2013-08-09T14:57:16Z</time>
      </trkpt>
      <trkpt lat="43.82366" lon="3.85675">
        <ele>337.08</ele>
        <time>2013-08-09T14:57:17Z</time>
      </trkpt>
      <trkpt lat="43.82152" lon="3.85512">
        <ele>336.12</ele>
        <time>2013-08-09T14:57:26Z</time>
      </trkpt>
      <trkpt lat="43.81934" lon="3.85349">
        <ele>333.71</ele>
        <time>2013-08-09T14:57:36Z</time>
      </trkpt>
      <trkpt lat="43.81806" lon="3.85251">
        <ele>329.39</ele>
        <time>2013-08-09T14:57:43Z</time>
      </trkpt>
      <trkpt lat="43.81734" lon="3.85199">
        <ele>328.91</ele>
        <time>2013-08-09T14:57:49Z</time>
      </trkpt>
      <trkpt lat="43.81725" lon="3.85197">
        <ele>329.39</ele>
        <time>2013-08-09T14:57:50Z</time>
      </trkpt>
      <trkpt lat="43.81717" lon="3.85197">
        <ele>329.87</ele>
        <time>2013-08-09T14:57:51Z</time>
      </trkpt>
      <trkpt lat="43.81712" lon="3.85198">
        <ele>329.87</ele>
        <time>2013-08-09T14:57:52Z</time>
      </trkpt>
      <trkpt lat="43.8171" lon="3.852">
        <ele>329.87</ele>
        <time>2013-08-09T14:57:53Z</time>
      </trkpt>
      <trkpt lat="43.81709" lon="3.85202">
        <ele>329.87</ele>
        <time>2013-08-09T14:57:54Z</time>
      </trkpt>
      <trkpt lat="43.81707" lon="3.85203">
        <ele>329.87</ele>
        <time>2013-08-09T14:57:55Z</time>
      </trkpt>
      <trkpt lat="43.81705" lon="3.85208">
        <ele>329.87</ele>
        <time>2013-08-09T14:57:56Z</time>
      </trkpt>
      <trkpt lat="43.817" lon="3.85216">
        <ele>329.87</ele>
        <time>2013-08-09T14:57:57Z</time>
      </trkpt>
      <trkpt lat="43.81694" lon="3.85228">
        <ele>329.39</ele>
        <time>2013-08-09T14:57:58Z</time>
      </trkpt>
      <trkpt lat="43.81688" lon="3.85241">
        <ele>329.39</ele>
        <time>2013-08-09T14:57:59Z</time>
      </trkpt>
      <trkpt lat="43.81683" lon="3.85256">
        <ele>328.91</ele>
        <time>2013-08-09T14:58:00Z</time>
      </trkpt>
      <trkpt lat="43.81679" lon="3.85272">
        <ele>328.91</ele>
        <time>2013-08-09T14:58:01Z</time>
      </trkpt>
      <trkpt lat="43.81676" lon="3.85288">
        <ele>328.43</ele>
        <time>2013-08-09T14:58:02Z</time>
      </trkpt>
      <trkpt lat="43.81674" lon="3.85304">
        <ele>328.43</ele>
        <time>2013-08-09T14:58:03Z</time>
      </trkpt>
      <trkpt lat="43.81673" lon="3.8532">
        <ele>327.95</ele>
        <time>2013-08-09T14:58:04Z</time>
      </trkpt>
      <trkpt lat="43.81674" lon="3.85334">
        <ele>327.95</ele>
        <time>2013-08-09T14:58:05Z</time>
      </trkpt>
      <trkpt lat="43.81678" lon="3.85344">
        <ele>327.47</ele>
        <time>2013-08-09T14:58:06Z</time>
      </trkpt>
      <trkpt lat="43.81683" lon="3.85353">
        <ele>327.47</ele>
        <time>2013-08-09T14:58:07Z</time>
      </trkpt>
      <trkpt lat="43.8169" lon="3.85359">
        <ele>326.99</ele>
        <time>2013-08-09T14:58:08Z</time>
      </trkpt>
      <trkpt lat="43.817" lon="3.85364">
        <ele>326.02</ele>
        <time>2013-08-09T14:58:09Z</time>
      </trkpt>
      <trkpt lat="43.8171" lon="3.85366">
        <ele>325.54</ele>
        <time>2013-08-09T14:58:10Z</time>
      </trkpt>
      <trkpt lat="43.81722" lon="3.85362">
        <ele>325.06</ele>
        <time>2013-08-09T14:58:11Z</time>
      </trkpt>
      <trkpt lat="43.81732" lon="3.85357">
        <ele>324.58</ele>
        <time>2013-08-09T14:58:12Z</time>
      </trkpt>
      <trkpt lat="43.81741" lon="3.85351">
        <ele>323.62</ele>
        <time>2013-08-09T14:58:13Z</time>
      </trkpt>
      <trkpt lat="43.81752" lon="3.85349">
        <ele>323.14</ele>
        <time>2013-08-09T14:58:14Z</time>
      </trkpt>
      <trkpt lat="43.8176" lon="3.85351">
        <ele>323.14</ele>
        <time>2013-08-09T14:58:15Z</time>
      </trkpt>
      <trkpt lat="43.8177" lon="3.85361">
        <ele>321.7</ele>
        <time>2013-08-09T14:58:16Z</time>
      </trkpt>
      <trkpt lat="43.8178" lon="3.85376">
        <ele>321.22</ele>
        <time>2013-08-09T14:58:17Z</time>
      </trkpt>
      <trkpt lat="43.8179" lon="3.85391">
        <ele>320.26</ele>
        <time>2013-08-09T14:58:18Z</time>
      </trkpt>
      <trkpt lat="43.819" lon="3.85513">
        <ele>311.12</ele>
        <time>2013-08-09T14:58:27Z</time>
      </trkpt>
      <trkpt lat="43.81913" lon="3.85528">
        <ele>310.16</ele>
        <time>2013-08-09T14:58:28Z</time>
      </trkpt>
      <trkpt lat="43.81924" lon="3.85544">
        <ele>309.2</ele>
        <time>2013-08-09T14:58:29Z</time>
      </trkpt>
      <trkpt lat="43.81953" lon="3.85585">
        <ele>306.32</ele>
        <time>2013-08-09T14:58:33Z</time>
      </trkpt>
      <trkpt lat="43.81954" lon="3.8559">
        <ele>305.36</ele>
        <time>2013-08-09T14:58:34Z</time>
      </trkpt>
      <trkpt lat="43.81952" lon="3.85595">
        <ele>304.88</ele>
        <time>2013-08-09T14:58:35Z</time>
      </trkpt>
      <trkpt lat="43.81948" lon="3.85596">
        <ele>304.39</ele>
        <time>2013-08-09T14:58:36Z</time>
      </trkpt>
      <trkpt lat="43.81943" lon="3.85591">
        <ele>302.95</ele>
        <time>2013-08-09T14:58:37Z</time>
      </trkpt>
      <trkpt lat="43.81937" lon="3.85584">
        <ele>302.47</ele>
        <time>2013-08-09T14:58:38Z</time>
      </trkpt>
      <trkpt lat="43.81928" lon="3.85575">
        <ele>301.99</ele>
        <time>2013-08-09T14:58:39Z</time>
      </trkpt>
      <trkpt lat="43.81856" lon="3.85523">
        <ele>299.11</ele>
        <time>2013-08-09T14:58:45Z</time>
      </trkpt>
      <trkpt lat="43.81837" lon="3.85514">
        <ele>297.67</ele>
        <time>2013-08-09T14:58:47Z</time>
      </trkpt>
      <trkpt lat="43.8183" lon="3.85513">
        <ele>297.18</ele>
        <time>2013-08-09T14:58:48Z</time>
      </trkpt>
      <trkpt lat="43.81825" lon="3.8552">
        <ele>296.7</ele>
        <time>2013-08-09T14:58:49Z</time>
      </trkpt>
      <trkpt lat="43.81822" lon="3.85528">
        <ele>296.22</ele>
        <time>2013-08-09T14:58:50Z</time>
      </trkpt>
      <trkpt lat="43.81824" lon="3.85538">
        <ele>296.22</ele>
        <time>2013-08-09T14:58:51Z</time>
      </trkpt>
      <trkpt lat="43.81829" lon="3.85548">
        <ele>295.74</ele>
        <time>2013-08-09T14:58:52Z</time>
      </trkpt>
      <trkpt lat="43.81834" lon="3.8556">
        <ele>295.26</ele>
        <time>2013-08-09T14:58:53Z</time>
      </trkpt>
      <trkpt lat="43.81836" lon="3.85575">
        <ele>295.26</ele>
        <time>2013-08-09T14:58:54Z</time>
      </trkpt>
      <trkpt lat="43.81835" lon="3.85589">
        <ele>294.78</ele>
        <time>2013-08-09T14:58:55Z</time>
      </trkpt>
      <trkpt lat="43.8183" lon="3.85603">
        <ele>293.82</ele>
        <time>2013-08-09T14:58:56Z</time>
      </trkpt>
      <trkpt lat="43.81821" lon="3.85616">
        <ele>293.34</ele>
        <time>2013-08-09T14:58:57Z</time>
      </trkpt>
      <trkpt lat="43.81809" lon="3.85627">
        <ele>292.86</ele>
        <time>2013-08-09T14:58:58Z</time>
      </trkpt>
      <trkpt lat="43.81794" lon="3.85634">
        <ele>292.38</ele>
        <time>2013-08-09T14:58:59Z</time>
      </trkpt>
      <trkpt lat="43.81778" lon="3.85641">
        <ele>291.42</ele>
        <time>2013-08-09T14:59:00Z</time>
      </trkpt>
      <trkpt lat="43.81761" lon="3.85648">
        <ele>290.46</ele>
        <time>2013-08-09T14:59:01Z</time>
      </trkpt>
      <trkpt lat="43.81698" lon="3.85668">
        <ele>287.09</ele>
        <time>2013-08-09T14:59:05Z</time>
      </trkpt>
      <trkpt lat="43.81682" lon="3.85669">
        <ele>286.61</ele>
        <time>2013-08-09T14:59:06Z</time>
      </trkpt>
      <trkpt lat="43.81665" lon="3.85667">
        <ele>285.17</ele>
        <time>2013-08-09T14:59:07Z</time>
      </trkpt>
      <trkpt lat="43.81571" lon="3.85642">
        <ele>280.36</ele>
        <time>2013-08-09T14:59:13Z</time>
      </trkpt>
      <trkpt lat="43.81558" lon="3.85633">
        <ele>278.92</ele>
        <time>2013-08-09T14:59:14Z</time>
      </trkpt>
      <trkpt lat="43.81545" lon="3.85621">
        <ele>277.96</ele>
        <time>2013-08-09T14:59:15Z</time>
      </trkpt>
      <trkpt lat="43.81532" lon="3.85608">
        <ele>276.52</ele>
        <time>2013-08-09T14:59:16Z</time>
      </trkpt>
      <trkpt lat="43.81519" lon="3.85594">
        <ele>275.07</ele>
        <time>2013-08-09T14:59:17Z</time>
      </trkpt>
      <trkpt lat="43.81508" lon="3.85578">
        <ele>273.15</ele>
        <time>2013-08-09T14:59:18Z</time>
      </trkpt>
      <trkpt lat="43.81404" lon="3.85433">
        <ele>264.02</ele>
        <time>2013-08-09T14:59:26Z</time>
      </trkpt>
      <trkpt lat="43.81334" lon="3.85328">
        <ele>255.37</ele>
        <time>2013-08-09T14:59:33Z</time>
      </trkpt>
      <trkpt lat="43.81328" lon="3.85319">
        <ele>253.93</ele>
        <time>2013-08-09T14:59:35Z</time>
      </trkpt>
      <trkpt lat="43.81322" lon="3.85325">
        <ele>252.96</ele>
        <time>2013-08-09T14:59:36Z</time>
      </trkpt>
      <trkpt lat="43.81318" lon="3.85346">
        <ele>252.96</ele>
        <time>2013-08-09T14:59:38Z</time>
      </trkpt>
      <trkpt lat="43.81322" lon="3.85357">
        <ele>252.96</ele>
        <time>2013-08-09T14:59:39Z</time>
      </trkpt>
      <trkpt lat="43.81327" lon="3.85371">
        <ele>253.44</ele>
        <time>2013-08-09T14:59:40Z</time>
      </trkpt>
      <trkpt lat="43.81339" lon="3.85388">
        <ele>252.96</ele>
        <time>2013-08-09T14:59:41Z</time>
      </trkpt>
      <trkpt lat="43.81351" lon="3.85407">
        <ele>252</ele>
        <time>2013-08-09T14:59:42Z</time>
      </trkpt>
      <trkpt lat="43.81438" lon="3.85586">
        <ele>244.31</ele>
        <time>2013-08-09T14:59:50Z</time>
      </trkpt>
      <trkpt lat="43.81518" lon="3.85735">
        <ele>236.14</ele>
        <time>2013-08-09T14:59:57Z</time>
      </trkpt>
      <trkpt lat="43.81624" lon="3.85828">
        <ele>227.97</ele>
        <time>2013-08-09T15:00:04Z</time>
      </trkpt>
      <trkpt lat="43.81639" lon="3.8583">
        <ele>226.53</ele>
        <time>2013-08-09T15:00:05Z</time>
      </trkpt>
      <trkpt lat="43.81655" lon="3.8583">
        <ele>225.09</ele>
        <time>2013-08-09T15:00:06Z</time>
      </trkpt>
      <trkpt lat="43.81709" lon="3.85842">
        <ele>222.2</ele>
        <time>2013-08-09T15:00:10Z</time>
      </trkpt>
      <trkpt lat="43.81717" lon="3.85847">
        <ele>221.72</ele>
        <time>2013-08-09T15:00:11Z</time>
      </trkpt>
      <trkpt lat="43.81722" lon="3.85851">
        <ele>221.24</ele>
        <time>2013-08-09T15:00:12Z</time>
      </trkpt>
      <trkpt lat="43.81724" lon="3.85856">
        <ele>220.76</ele>
        <time>2013-08-09T15:00:13Z</time>
      </trkpt>
      <trkpt lat="43.81719" lon="3.85862">
        <ele>219.32</ele>
        <time>2013-08-09T15:00:14Z</time>
      </trkpt>
      <trkpt lat="43.81714" lon="3.85866">
        <ele>218.36</ele>
        <time>2013-08-09T15:00:15Z</time>
      </trkpt>
      <trkpt lat="43.81708" lon="3.85867">
        <ele>217.4</ele>
        <time>2013-08-09T15:00:16Z</time>
      </trkpt>
      <trkpt lat="43.81701" lon="3.85865">
        <ele>216.91</ele>
        <time>2013-08-09T15:00:17Z</time>
      </trkpt>
      <trkpt lat="43.81691" lon="3.85861">
        <ele>216.43</ele>
        <time>2013-08-09T15:00:18Z</time>
      </trkpt>
      <trkpt lat="43.81678" lon="3.85859">
        <ele>215.95</ele>
        <time>2013-08-09T15:00:19Z</time>
      </trkpt>
      <trkpt lat="43.81664" lon="3.85862">
        <ele>214.99</ele>
        <time>2013-08-09T15:00:20Z</time>
      </trkpt>
      <trkpt lat="43.81651" lon="3.85867">
        <ele>214.51</ele>
        <time>2013-08-09T15:00:21Z</time>
      </trkpt>
      <trkpt lat="43.81639" lon="3.85875">
        <ele>214.03</ele>
        <time>2013-08-09T15:00:22Z</time>
      </trkpt>
      <trkpt lat="43.81628" lon="3.85881">
        <ele>213.07</ele>
        <time>2013-08-09T15:00:23Z</time>
      </trkpt>
      <trkpt lat="43.81616" lon="3.85882">
        <ele>212.11</ele>
        <time>2013-08-09T15:00:24Z</time>
      </trkpt>
      <trkpt lat="43.81604" lon="3.85881">
        <ele>211.15</ele>
        <time>2013-08-09T15:00:25Z</time>
      </trkpt>
      <trkpt lat="43.8159" lon="3.85877">
        <ele>210.67</ele>
        <time>2013-08-09T15:00:26Z</time>
      </trkpt>
      <trkpt lat="43.81575" lon="3.85875">
        <ele>209.7</ele>
        <time>2013-08-09T15:00:27Z</time>
      </trkpt>
      <trkpt lat="43.81547" lon="3.85869">
        <ele>208.26</ele>
        <time>2013-08-09T15:00:29Z</time>
      </trkpt>
      <trkpt lat="43.81505" lon="3.85857">
        <ele>205.86</ele>
        <time>2013-08-09T15:00:32Z</time>
      </trkpt>
      <trkpt lat="43.8149" lon="3.85859">
        <ele>204.9</ele>
        <time>2013-08-09T15:00:33Z</time>
      </trkpt>
      <trkpt lat="43.81459" lon="3.85861">
        <ele>203.46</ele>
        <time>2013-08-09T15:00:35Z</time>
      </trkpt>
      <trkpt lat="43.81443" lon="3.85859">
        <ele>202.49</ele>
        <time>2013-08-09T15:00:36Z</time>
      </trkpt>
      <trkpt lat="43.8143" lon="3.85854">
        <ele>201.53</ele>
        <time>2013-08-09T15:00:37Z</time>
      </trkpt>
      <trkpt lat="43.8142" lon="3.85845">
        <ele>200.57</ele>
        <time>2013-08-09T15:00:38Z</time>
      </trkpt>
      <trkpt lat="43.8141" lon="3.85836">
        <ele>200.09</ele>
        <time>2013-08-09T15:00:39Z</time>
      </trkpt>
      <trkpt lat="43.81403" lon="3.85828">
        <ele>199.13</ele>
        <time>2013-08-09T15:00:40Z</time>
      </trkpt>
      <trkpt lat="43.81398" lon="3.85824">
        <ele>199.13</ele>
        <time>2013-08-09T15:00:41Z</time>
      </trkpt>
      <trkpt lat="43.81393" lon="3.85826">
        <ele>199.13</ele>
        <time>2013-08-09T15:00:42Z</time>
      </trkpt>
      <trkpt lat="43.81391" lon="3.85832">
        <ele>198.65</ele>
        <time>2013-08-09T15:00:43Z</time>
      </trkpt>
      <trkpt lat="43.81391" lon="3.8584">
        <ele>197.69</ele>
        <time>2013-08-09T15:00:44Z</time>
      </trkpt>
      <trkpt lat="43.81394" lon="3.8585">
        <ele>197.69</ele>
        <time>2013-08-09T15:00:45Z</time>
      </trkpt>
      <trkpt lat="43.81401" lon="3.85862">
        <ele>197.21</ele>
        <time>2013-08-09T15:00:46Z</time>
      </trkpt>
      <trkpt lat="43.81412" lon="3.85876">
        <ele>196.73</ele>
        <time>2013-08-09T15:00:47Z</time>
      </trkpt>
      <trkpt lat="43.81427" lon="3.85893">
        <ele>196.25</ele>
        <time>2013-08-09T15:00:48Z</time>
      </trkpt>
      <trkpt lat="43.81441" lon="3.85912">
        <ele>195.28</ele>
        <time>2013-08-09T15:00:49Z</time>
      </trkpt>
      <trkpt lat="43.81452" lon="3.85932">
        <ele>194.8</ele>
        <time>2013-08-09T15:00:50Z</time>
      </trkpt>
      <trkpt lat="43.81463" lon="3.85953">
        <ele>193.84</ele>
        <time>2013-08-09T15:00:51Z</time>
      </trkpt>
      <trkpt lat="43.81472" lon="3.85976">
        <ele>193.36</ele>
        <time>2013-08-09T15:00:52Z</time>
      </trkpt>
      <trkpt lat="43.8152" lon="3.86114">
        <ele>190.48</ele>
        <time>2013-08-09T15:00:59Z</time>
      </trkpt>
      <trkpt lat="43.81521" lon="3.86129">
        <ele>189.52</ele>
        <time>2013-08-09T15:01:00Z</time>
      </trkpt>
      <trkpt lat="43.81518" lon="3.86143">
        <ele>188.56</ele>
        <time>2013-08-09T15:01:01Z</time>
      </trkpt>
      <trkpt lat="43.81509" lon="3.86155">
        <ele>188.08</ele>
        <time>2013-08-09T15:01:02Z</time>
      </trkpt>
      <trkpt lat="43.81496" lon="3.86167">
        <ele>186.63</ele>
        <time>2013-08-09T15:01:03Z</time>
      </trkpt>
      <trkpt lat="43.81482" lon="3.86177">
        <ele>185.67</ele>
        <time>2013-08-09T15:01:04Z</time>
      </trkpt>
      <trkpt lat="43.81465" lon="3.86186">
        <ele>184.71</ele>
        <time>2013-08-09T15:01:05Z</time>
      </trkpt>
      <trkpt lat="43.81449" lon="3.86193">
        <ele>184.23</ele>
        <time>2013-08-09T15:01:06Z</time>
      </trkpt>
      <trkpt lat="43.81431" lon="3.86197">
        <ele>183.27</ele>
        <time>2013-08-09T15:01:07Z</time>
      </trkpt>
      <trkpt lat="43.81415" lon="3.86201">
        <ele>183.27</ele>
        <time>2013-08-09T15:01:08Z</time>
      </trkpt>
      <trkpt lat="43.81353" lon="3.86221">
        <ele>180.87</ele>
        <time>2013-08-09T15:01:12Z</time>
      </trkpt>
      <trkpt lat="43.81338" lon="3.86231">
        <ele>180.38</ele>
        <time>2013-08-09T15:01:13Z</time>
      </trkpt>
      <trkpt lat="43.81324" lon="3.86245">
        <ele>179.9</ele>
        <time>2013-08-09T15:01:14Z</time>
      </trkpt>
      <trkpt lat="43.81308" lon="3.86264">
        <ele>179.42</ele>
        <time>2013-08-09T15:01:15Z</time>
      </trkpt>
      <trkpt lat="43.81292" lon="3.86284">
        <ele>178.94</ele>
        <time>2013-08-09T15:01:16Z</time>
      </trkpt>
      <trkpt lat="43.81134" lon="3.86467">
        <ele>171.73</ele>
        <time>2013-08-09T15:01:24Z</time>
      </trkpt>
      <trkpt lat="43.81031" lon="3.86595">
        <ele>166.93</ele>
        <time>2013-08-09T15:01:30Z</time>
      </trkpt>
      <trkpt lat="43.81017" lon="3.86619">
        <ele>166.93</ele>
        <time>2013-08-09T15:01:31Z</time>
      </trkpt>
      <trkpt lat="43.80912" lon="3.86844">
        <ele>161.16</ele>
        <time>2013-08-09T15:01:39Z</time>
      </trkpt>
      <trkpt lat="43.80856" lon="3.86958">
        <ele>159.24</ele>
        <time>2013-08-09T15:01:44Z</time>
      </trkpt>
      <trkpt lat="43.80844" lon="3.86975">
        <ele>158.27</ele>
        <time>2013-08-09T15:01:45Z</time>
      </trkpt>
      <trkpt lat="43.8083" lon="3.86989">
        <ele>157.31</ele>
        <time>2013-08-09T15:01:46Z</time>
      </trkpt>
      <trkpt lat="43.80814" lon="3.87001">
        <ele>156.35</ele>
        <time>2013-08-09T15:01:47Z</time>
      </trkpt>
      <trkpt lat="43.80796" lon="3.87011">
        <ele>155.39</ele>
        <time>2013-08-09T15:01:48Z</time>
      </trkpt>
      <trkpt lat="43.80777" lon="3.87022">
        <ele>156.35</ele>
        <time>2013-08-09T15:01:49Z</time>
      </trkpt>
      <trkpt lat="43.80633" lon="3.87111">
        <ele>154.43</ele>
        <time>2013-08-09T15:01:57Z</time>
      </trkpt>
      <trkpt lat="43.80459" lon="3.8722">
        <ele>150.1</ele>
        <time>2013-08-09T15:02:07Z</time>
      </trkpt>
      <trkpt lat="43.80395" lon="3.87262">
        <ele>149.62</ele>
        <time>2013-08-09T15:02:13Z</time>
      </trkpt>
      <trkpt lat="43.8039" lon="3.87268">
        <ele>149.62</ele>
        <time>2013-08-09T15:02:14Z</time>
      </trkpt>
      <trkpt lat="43.8039" lon="3.87274">
        <ele>149.62</ele>
        <time>2013-08-09T15:02:15Z</time>
      </trkpt>
      <trkpt lat="43.80387" lon="3.87283">
        <ele>150.1</ele>
        <time>2013-08-09T15:02:16Z</time>
      </trkpt>
      <trkpt lat="43.80391" lon="3.87294">
        <ele>150.1</ele>
        <time>2013-08-09T15:02:17Z</time>
      </trkpt>
      <trkpt lat="43.80393" lon="3.8731">
        <ele>150.1</ele>
        <time>2013-08-09T15:02:18Z</time>
      </trkpt>
      <trkpt lat="43.80385" lon="3.87433">
        <ele>153.95</ele>
        <time>2013-08-09T15:02:23Z</time>
      </trkpt>
      <trkpt lat="43.80345" lon="3.87656">
        <ele>152.03</ele>
        <time>2013-08-09T15:02:32Z</time>
      </trkpt>
      <trkpt lat="43.80299" lon="3.87885">
        <ele>147.22</ele>
        <time>2013-08-09T15:02:42Z</time>
      </trkpt>
      <trkpt lat="43.80294" lon="3.87896">
        <ele>146.74</ele>
        <time>2013-08-09T15:02:43Z</time>
      </trkpt>
      <trkpt lat="43.80288" lon="3.87904">
        <ele>146.74</ele>
        <time>2013-08-09T15:02:44Z</time>
      </trkpt>
      <trkpt lat="43.80281" lon="3.87907">
        <ele>146.74</ele>
        <time>2013-08-09T15:02:45Z</time>
      </trkpt>
      <trkpt lat="43.80272" lon="3.87906">
        <ele>146.26</ele>
        <time>2013-08-09T15:02:46Z</time>
      </trkpt>
      <trkpt lat="43.80261" lon="3.879">
        <ele>145.3</ele>
        <time>2013-08-09T15:02:47Z</time>
      </trkpt>
      <trkpt lat="43.80247" lon="3.87893">
        <ele>145.3</ele>
        <time>2013-08-09T15:02:48Z</time>
      </trkpt>
      <trkpt lat="43.8023" lon="3.87883">
        <ele>145.78</ele>
        <time>2013-08-09T15:02:49Z</time>
      </trkpt>
      <trkpt lat="43.80124" lon="3.87819">
        <ele>147.7</ele>
        <time>2013-08-09T15:02:54Z</time>
      </trkpt>
      <trkpt lat="43.799" lon="3.87688">
        <ele>154.91</ele>
        <time>2013-08-09T15:03:03Z</time>
      </trkpt>
      <trkpt lat="43.79707" lon="3.87646">
        <ele>155.87</ele>
        <time>2013-08-09T15:03:10Z</time>
      </trkpt>
      <trkpt lat="43.79443" lon="3.87588">
        <ele>148.18</ele>
        <time>2013-08-09T15:03:21Z</time>
      </trkpt>
      <trkpt lat="43.79241" lon="3.87543">
        <ele>142.89</ele>
        <time>2013-08-09T15:03:30Z</time>
      </trkpt>
      <trkpt lat="43.78899" lon="3.87446">
        <ele>139.05</ele>
        <time>2013-08-09T15:03:46Z</time>
      </trkpt>
      <trkpt lat="43.78657" lon="3.8737">
        <ele>137.13</ele>
        <time>2013-08-09T15:03:58Z</time>
      </trkpt>
      <trkpt lat="43.78415" lon="3.87296">
        <ele>134.24</ele>
        <time>2013-08-09T15:04:08Z</time>
      </trkpt>
      <trkpt lat="43.78087" lon="3.87191">
        <ele>127.51</ele>
        <time>2013-08-09T15:04:21Z</time>
      </trkpt>
      <trkpt lat="43.77846" lon="3.87115">
        <ele>123.67</ele>
        <time>2013-08-09T15:04:31Z</time>
      </trkpt>
      <trkpt lat="43.77649" lon="3.87053">
        <ele>121.26</ele>
        <time>2013-08-09T15:04:40Z</time>
      </trkpt>
      <trkpt lat="43.77522" lon="3.8701">
        <ele>117.42</ele>
        <time>2013-08-09T15:04:48Z</time>
      </trkpt>
      <trkpt lat="43.77467" lon="3.86995">
        <ele>115.5</ele>
        <time>2013-08-09T15:04:54Z</time>
      </trkpt>
      <trkpt lat="43.77463" lon="3.86993">
        <ele>115.98</ele>
        <time>2013-08-09T15:04:55Z</time>
      </trkpt>
      <trkpt lat="43.7746" lon="3.86988">
        <ele>115.98</ele>
        <time>2013-08-09T15:04:56Z</time>
      </trkpt>
      <trkpt lat="43.77457" lon="3.86981">
        <ele>115.98</ele>
        <time>2013-08-09T15:04:57Z</time>
      </trkpt>
      <trkpt lat="43.77454" lon="3.8697">
        <ele>115.98</ele>
        <time>2013-08-09T15:04:58Z</time>
      </trkpt>
      <trkpt lat="43.7745" lon="3.86959">
        <ele>115.01</ele>
        <time>2013-08-09T15:04:59Z</time>
      </trkpt>
      <trkpt lat="43.77445" lon="3.86948">
        <ele>115.01</ele>
        <time>2013-08-09T15:05:00Z</time>
      </trkpt>
      <trkpt lat="43.77438" lon="3.86939">
        <ele>115.01</ele>
        <time>2013-08-09T15:05:01Z</time>
      </trkpt>
      <trkpt lat="43.77429" lon="3.86936">
        <ele>115.01</ele>
        <time>2013-08-09T15:05:02Z</time>
      </trkpt>
      <trkpt lat="43.77418" lon="3.86938">
        <ele>115.01</ele>
        <time>2013-08-09T15:05:03Z</time>
      </trkpt>
      <trkpt lat="43.77407" lon="3.86942">
        <ele>115.01</ele>
        <time>2013-08-09T15:05:04Z</time>
      </trkpt>
      <trkpt lat="43.77396" lon="3.86946">
        <ele>114.53</ele>
        <time>2013-08-09T15:05:05Z</time>
      </trkpt>
      <trkpt lat="43.77384" lon="3.86947">
        <ele>114.53</ele>
        <time>2013-08-09T15:05:06Z</time>
      </trkpt>
      <trkpt lat="43.77371" lon="3.86946">
        <ele>114.05</ele>
        <time>2013-08-09T15:05:07Z</time>
      </trkpt>
      <trkpt lat="43.77358" lon="3.86944">
        <ele>113.57</ele>
        <time>2013-08-09T15:05:08Z</time>
      </trkpt>
      <trkpt lat="43.77249" lon="3.8691">
        <ele>110.69</ele>
        <time>2013-08-09T15:05:17Z</time>
      </trkpt>
      <trkpt lat="43.77155" lon="3.86876">
        <ele>105.88</ele>
        <time>2013-08-09T15:05:28Z</time>
      </trkpt>
      <trkpt lat="43.7703" lon="3.8683">
        <ele>102.52</ele>
        <time>2013-08-09T15:05:41Z</time>
      </trkpt>
      <trkpt lat="43.76987" lon="3.86814">
        <ele>101.56</ele>
        <time>2013-08-09T15:05:50Z</time>
      </trkpt>
      <trkpt lat="43.76928" lon="3.8679">
        <ele>102.04</ele>
        <time>2013-08-09T15:06:00Z</time>
      </trkpt>
      <trkpt lat="43.76855" lon="3.86765">
        <ele>105.88</ele>
        <time>2013-08-09T15:06:13Z</time>
      </trkpt>
      <trkpt lat="43.76773" lon="3.86734">
        <ele>108.29</ele>
        <time>2013-08-09T15:06:28Z</time>
      </trkpt>
      <trkpt lat="43.767" lon="3.86706">
        <ele>109.25</ele>
        <time>2013-08-09T15:06:41Z</time>
      </trkpt>
      <trkpt lat="43.76639" lon="3.86671">
        <ele>105.4</ele>
        <time>2013-08-09T15:06:52Z</time>
      </trkpt>
      <trkpt lat="43.76605" lon="3.86647">
        <ele>103.96</ele>
        <time>2013-08-09T15:06:59Z</time>
      </trkpt>
      <trkpt lat="43.76601" lon="3.86642">
        <ele>105.4</ele>
        <time>2013-08-09T15:07:00Z</time>
      </trkpt>
      <trkpt lat="43.76597" lon="3.86638">
        <ele>105.88</ele>
        <time>2013-08-09T15:07:01Z</time>
      </trkpt>
      <trkpt lat="43.76593" lon="3.86634">
        <ele>105.88</ele>
        <time>2013-08-09T15:07:02Z</time>
      </trkpt>
      <trkpt lat="43.76589" lon="3.86631">
        <ele>105.4</ele>
        <time>2013-08-09T15:07:03Z</time>
      </trkpt>
      <trkpt lat="43.76584" lon="3.8663">
        <ele>104.92</ele>
        <time>2013-08-09T15:07:04Z</time>
      </trkpt>
      <trkpt lat="43.76578" lon="3.86628">
        <ele>104.44</ele>
        <time>2013-08-09T15:07:05Z</time>
      </trkpt>
      <trkpt lat="43.76572" lon="3.86625">
        <ele>104.44</ele>
        <time>2013-08-09T15:07:06Z</time>
      </trkpt>
      <trkpt lat="43.76566" lon="3.86622">
        <ele>103.96</ele>
        <time>2013-08-09T15:07:07Z</time>
      </trkpt>
      <trkpt lat="43.7656" lon="3.86618">
        <ele>103.96</ele>
        <time>2013-08-09T15:07:08Z</time>
      </trkpt>
      <trkpt lat="43.76478" lon="3.86563">
        <ele>102.04</ele>
        <time>2013-08-09T15:07:19Z</time>
      </trkpt>
      <trkpt lat="43.7642" lon="3.86525">
        <ele>101.08</ele>
        <time>2013-08-09T15:07:29Z</time>
      </trkpt>
      <trkpt lat="43.76403" lon="3.86513">
        <ele>100.6</ele>
        <time>2013-08-09T15:07:40Z</time>
      </trkpt>
      <trkpt lat="43.76338" lon="3.8647">
        <ele>98.67</ele>
        <time>2013-08-09T15:07:49Z</time>
      </trkpt>
      <trkpt lat="43.76231" lon="3.864">
        <ele>97.23</ele>
        <time>2013-08-09T15:08:01Z</time>
      </trkpt>
      <trkpt lat="43.76168" lon="3.86358">
        <ele>97.23</ele>
        <time>2013-08-09T15:08:11Z</time>
      </trkpt>
      <trkpt lat="43.76162" lon="3.8635">
        <ele>97.23</ele>
        <time>2013-08-09T15:08:13Z</time>
      </trkpt>
      <trkpt lat="43.76159" lon="3.86342">
        <ele>97.23</ele>
        <time>2013-08-09T15:08:14Z</time>
      </trkpt>
      <trkpt lat="43.76151" lon="3.86324">
        <ele>97.23</ele>
        <time>2013-08-09T15:08:16Z</time>
      </trkpt>
      <trkpt lat="43.76145" lon="3.86317">
        <ele>97.23</ele>
        <time>2013-08-09T15:08:17Z</time>
      </trkpt>
      <trkpt lat="43.76139" lon="3.86313">
        <ele>97.23</ele>
        <time>2013-08-09T15:08:18Z</time>
      </trkpt>
      <trkpt lat="43.76132" lon="3.86312">
        <ele>97.23</ele>
        <time>2013-08-09T15:08:19Z</time>
      </trkpt>
      <trkpt lat="43.76125" lon="3.86313">
        <ele>97.23</ele>
        <time>2013-08-09T15:08:20Z</time>
      </trkpt>
      <trkpt lat="43.76119" lon="3.86315">
        <ele>97.23</ele>
        <time>2013-08-09T15:08:21Z</time>
      </trkpt>
      <trkpt lat="43.76111" lon="3.86315">
        <ele>97.23</ele>
        <time>2013-08-09T15:08:22Z</time>
      </trkpt>
      <trkpt lat="43.76103" lon="3.86313">
        <ele>96.75</ele>
        <time>2013-08-09T15:08:23Z</time>
      </trkpt>
      <trkpt lat="43.76095" lon="3.86309">
        <ele>96.75</ele>
        <time>2013-08-09T15:08:24Z</time>
      </trkpt>
      <trkpt lat="43.76086" lon="3.86303">
        <ele>96.75</ele>
        <time>2013-08-09T15:08:25Z</time>
      </trkpt>
      <trkpt lat="43.75992" lon="3.86241">
        <ele>96.27</ele>
        <time>2013-08-09T15:08:33Z</time>
      </trkpt>
      <trkpt lat="43.75819" lon="3.86124">
        <ele>94.35</ele>
        <time>2013-08-09T15:08:45Z</time>
      </trkpt>
      <trkpt lat="43.7563" lon="3.86007">
        <ele>92.42</ele>
        <time>2013-08-09T15:08:57Z</time>
      </trkpt>
      <trkpt lat="43.75477" lon="3.85974">
        <ele>93.39</ele>
        <time>2013-08-09T15:09:06Z</time>
      </trkpt>
      <trkpt lat="43.7534" lon="3.8595">
        <ele>92.9</ele>
        <time>2013-08-09T15:09:13Z</time>
      </trkpt>
      <trkpt lat="43.75148" lon="3.85912">
        <ele>90.5</ele>
        <time>2013-08-09T15:09:22Z</time>
      </trkpt>
      <trkpt lat="43.74888" lon="3.85864">
        <ele>89.06</ele>
        <time>2013-08-09T15:09:35Z</time>
      </trkpt>
      <trkpt lat="43.74781" lon="3.85885">
        <ele>89.06</ele>
        <time>2013-08-09T15:09:41Z</time>
      </trkpt>
      <trkpt lat="43.7468" lon="3.8597">
        <ele>88.1</ele>
        <time>2013-08-09T15:09:47Z</time>
      </trkpt>
      <trkpt lat="43.74541" lon="3.86107">
        <ele>86.66</ele>
        <time>2013-08-09T15:09:53Z</time>
      </trkpt>
      <trkpt lat="43.74256" lon="3.86383">
        <ele>87.62</ele>
        <time>2013-08-09T15:10:04Z</time>
      </trkpt>
      <trkpt lat="43.74116" lon="3.86507">
        <ele>87.62</ele>
        <time>2013-08-09T15:10:10Z</time>
      </trkpt>
      <trkpt lat="43.73808" lon="3.86708">
        <ele>82.33</ele>
        <time>2013-08-09T15:10:22Z</time>
      </trkpt>
      <trkpt lat="43.73662" lon="3.86739">
        <ele>80.89</ele>
        <time>2013-08-09T15:10:27Z</time>
      </trkpt>
      <trkpt lat="43.73339" lon="3.86766">
        <ele>82.81</ele>
        <time>2013-08-09T15:10:38Z</time>
      </trkpt>
      <trkpt lat="43.7331" lon="3.86779">
        <ele>82.33</ele>
        <time>2013-08-09T15:10:39Z</time>
      </trkpt>
      <trkpt lat="43.73282" lon="3.86796">
        <ele>82.33</ele>
        <time>2013-08-09T15:10:40Z</time>
      </trkpt>
      <trkpt lat="43.73109" lon="3.86911">
        <ele>84.73</ele>
        <time>2013-08-09T15:10:47Z</time>
      </trkpt>
      <trkpt lat="43.73057" lon="3.86935">
        <ele>87.14</ele>
        <time>2013-08-09T15:10:51Z</time>
      </trkpt>
      <trkpt lat="43.73047" lon="3.86935">
        <ele>87.62</ele>
        <time>2013-08-09T15:10:52Z</time>
      </trkpt>
      <trkpt lat="43.73037" lon="3.86935">
        <ele>88.1</ele>
        <time>2013-08-09T15:10:53Z</time>
      </trkpt>
      <trkpt lat="43.73028" lon="3.86938">
        <ele>88.58</ele>
        <time>2013-08-09T15:10:54Z</time>
      </trkpt>
      <trkpt lat="43.7302" lon="3.86946">
        <ele>88.58</ele>
        <time>2013-08-09T15:10:55Z</time>
      </trkpt>
      <trkpt lat="43.73011" lon="3.86954">
        <ele>88.58</ele>
        <time>2013-08-09T15:10:56Z</time>
      </trkpt>
      <trkpt lat="43.73" lon="3.86961">
        <ele>89.06</ele>
        <time>2013-08-09T15:10:57Z</time>
      </trkpt>
      <trkpt lat="43.72988" lon="3.86966">
        <ele>89.06</ele>
        <time>2013-08-09T15:10:58Z</time>
      </trkpt>
      <trkpt lat="43.72974" lon="3.86969">
        <ele>89.54</ele>
        <time>2013-08-09T15:10:59Z</time>
      </trkpt>
      <trkpt lat="43.72959" lon="3.86972">
        <ele>89.54</ele>
        <time>2013-08-09T15:11:00Z</time>
      </trkpt>
      <trkpt lat="43.72863" lon="3.86988">
        <ele>89.06</ele>
        <time>2013-08-09T15:11:06Z</time>
      </trkpt>
      <trkpt lat="43.7285" lon="3.86985">
        <ele>89.06</ele>
        <time>2013-08-09T15:11:07Z</time>
      </trkpt>
      <trkpt lat="43.72838" lon="3.86984">
        <ele>89.06</ele>
        <time>2013-08-09T15:11:08Z</time>
      </trkpt>
      <trkpt lat="43.72829" lon="3.86985">
        <ele>88.58</ele>
        <time>2013-08-09T15:11:09Z</time>
      </trkpt>
      <trkpt lat="43.72818" lon="3.86991">
        <ele>88.1</ele>
        <time>2013-08-09T15:11:10Z</time>
      </trkpt>
      <trkpt lat="43.72806" lon="3.86997">
        <ele>87.62</ele>
        <time>2013-08-09T15:11:11Z</time>
      </trkpt>
      <trkpt lat="43.72791" lon="3.87003">
        <ele>86.66</ele>
        <time>2013-08-09T15:11:12Z</time>
      </trkpt>
      <trkpt lat="43.72773" lon="3.87006">
        <ele>86.18</ele>
        <time>2013-08-09T15:11:13Z</time>
      </trkpt>
      <trkpt lat="43.72752" lon="3.87006">
        <ele>85.21</ele>
        <time>2013-08-09T15:11:14Z</time>
      </trkpt>
      <trkpt lat="43.72727" lon="3.87002">
        <ele>84.25</ele>
        <time>2013-08-09T15:11:15Z</time>
      </trkpt>
      <trkpt lat="43.72702" lon="3.86993">
        <ele>82.81</ele>
        <time>2013-08-09T15:11:16Z</time>
      </trkpt>
      <trkpt lat="43.72675" lon="3.8698">
        <ele>81.85</ele>
        <time>2013-08-09T15:11:17Z</time>
      </trkpt>
      <trkpt lat="43.7265" lon="3.86964">
        <ele>81.37</ele>
        <time>2013-08-09T15:11:18Z</time>
      </trkpt>
      <trkpt lat="43.72624" lon="3.86947">
        <ele>80.89</ele>
        <time>2013-08-09T15:11:19Z</time>
      </trkpt>
      <trkpt lat="43.72487" lon="3.86894">
        <ele>78.48</ele>
        <time>2013-08-09T15:11:24Z</time>
      </trkpt>
      <trkpt lat="43.72223" lon="3.86851">
        <ele>74.64</ele>
        <time>2013-08-09T15:11:33Z</time>
      </trkpt>
      <trkpt lat="43.72198" lon="3.86856">
        <ele>74.64</ele>
        <time>2013-08-09T15:11:34Z</time>
      </trkpt>
      <trkpt lat="43.72174" lon="3.86866">
        <ele>75.12</ele>
        <time>2013-08-09T15:11:35Z</time>
      </trkpt>
      <trkpt lat="43.72149" lon="3.86879">
        <ele>75.12</ele>
        <time>2013-08-09T15:11:36Z</time>
      </trkpt>
      <trkpt lat="43.72099" lon="3.86901">
        <ele>74.64</ele>
        <time>2013-08-09T15:11:38Z</time>
      </trkpt>
      <trkpt lat="43.72074" lon="3.86904">
        <ele>74.16</ele>
        <time>2013-08-09T15:11:39Z</time>
      </trkpt>
      <trkpt lat="43.72047" lon="3.86902">
        <ele>73.2</ele>
        <time>2013-08-09T15:11:40Z</time>
      </trkpt>
      <trkpt lat="43.72017" lon="3.86892">
        <ele>72.72</ele>
        <time>2013-08-09T15:11:41Z</time>
      </trkpt>
      <trkpt lat="43.71986" lon="3.86881">
        <ele>73.2</ele>
        <time>2013-08-09T15:11:42Z</time>
      </trkpt>
      <trkpt lat="43.71766" lon="3.8678">
        <ele>72.24</ele>
        <time>2013-08-09T15:11:49Z</time>
      </trkpt>
      <trkpt lat="43.71553" lon="3.86679">
        <ele>70.79</ele>
        <time>2013-08-09T15:11:56Z</time>
      </trkpt>
      <trkpt lat="43.71437" lon="3.86658">
        <ele>71.27</ele>
        <time>2013-08-09T15:12:00Z</time>
      </trkpt>
      <trkpt lat="43.71406" lon="3.86661">
        <ele>71.27</ele>
        <time>2013-08-09T15:12:01Z</time>
      </trkpt>
      <trkpt lat="43.71158" lon="3.86712">
        <ele>71.27</ele>
        <time>2013-08-09T15:12:09Z</time>
      </trkpt>
      <trkpt lat="43.70813" lon="3.86787">
        <ele>71.27</ele>
        <time>2013-08-09T15:12:20Z</time>
      </trkpt>
      <trkpt lat="43.70627" lon="3.8679">
        <ele>70.79</ele>
        <time>2013-08-09T15:12:26Z</time>
      </trkpt>
      <trkpt lat="43.70461" lon="3.868">
        <ele>72.24</ele>
        <time>2013-08-09T15:12:32Z</time>
      </trkpt>
      <trkpt lat="43.7044" lon="3.86793">
        <ele>72.24</ele>
        <time>2013-08-09T15:12:33Z</time>
      </trkpt>
      <trkpt lat="43.70421" lon="3.86785">
        <ele>72.24</ele>
        <time>2013-08-09T15:12:34Z</time>
      </trkpt>
      <trkpt lat="43.70403" lon="3.86773">
        <ele>72.24</ele>
        <time>2013-08-09T15:12:35Z</time>
      </trkpt>
      <trkpt lat="43.70386" lon="3.8676">
        <ele>72.72</ele>
        <time>2013-08-09T15:12:36Z</time>
      </trkpt>
      <trkpt lat="43.70371" lon="3.86745">
        <ele>72.72</ele>
        <time>2013-08-09T15:12:37Z</time>
      </trkpt>
      <trkpt lat="43.70359" lon="3.86728">
        <ele>72.72</ele>
        <time>2013-08-09T15:12:38Z</time>
      </trkpt>
      <trkpt lat="43.70347" lon="3.86711">
        <ele>73.2</ele>
        <time>2013-08-09T15:12:39Z</time>
      </trkpt>
      <trkpt lat="43.70337" lon="3.86693">
        <ele>72.72</ele>
        <time>2013-08-09T15:12:40Z</time>
      </trkpt>
      <trkpt lat="43.70328" lon="3.86674">
        <ele>72.24</ele>
        <time>2013-08-09T15:12:41Z</time>
      </trkpt>
      <trkpt lat="43.7032" lon="3.86655">
        <ele>71.76</ele>
        <time>2013-08-09T15:12:42Z</time>
      </trkpt>
      <trkpt lat="43.70313" lon="3.86637">
        <ele>71.76</ele>
        <time>2013-08-09T15:12:43Z</time>
      </trkpt>
      <trkpt lat="43.70284" lon="3.86567">
        <ele>72.24</ele>
        <time>2013-08-09T15:12:49Z</time>
      </trkpt>
      <trkpt lat="43.70258" lon="3.8649">
        <ele>71.76</ele>
        <time>2013-08-09T15:12:57Z</time>
      </trkpt>
      <trkpt lat="43.70233" lon="3.8641">
        <ele>70.31</ele>
        <time>2013-08-09T15:13:04Z</time>
      </trkpt>
      <trkpt lat="43.70182" lon="3.86315">
        <ele>68.87</ele>
        <time>2013-08-09T15:13:13Z</time>
      </trkpt>
      <trkpt lat="43.70115" lon="3.86268">
        <ele>66.95</ele>
        <time>2013-08-09T15:13:20Z</time>
      </trkpt>
      <trkpt lat="43.70087" lon="3.86257">
        <ele>66.95</ele>
        <time>2013-08-09T15:13:26Z</time>
      </trkpt>
      <trkpt lat="43.7007" lon="3.86237">
        <ele>68.39</ele>
        <time>2013-08-09T15:13:33Z</time>
      </trkpt>
      <trkpt lat="43.70066" lon="3.86237">
        <ele>68.39</ele>
        <time>2013-08-09T15:13:34Z</time>
      </trkpt>
      <trkpt lat="43.70061" lon="3.8624">
        <ele>68.39</ele>
        <time>2013-08-09T15:13:35Z</time>
      </trkpt>
      <trkpt lat="43.70056" lon="3.86243">
        <ele>68.87</ele>
        <time>2013-08-09T15:13:36Z</time>
      </trkpt>
      <trkpt lat="43.70049" lon="3.86245">
        <ele>68.87</ele>
        <time>2013-08-09T15:13:37Z</time>
      </trkpt>
      <trkpt lat="43.70041" lon="3.86246">
        <ele>68.87</ele>
        <time>2013-08-09T15:13:38Z</time>
      </trkpt>
      <trkpt lat="43.70033" lon="3.86246">
        <ele>68.39</ele>
        <time>2013-08-09T15:13:39Z</time>
      </trkpt>
      <trkpt lat="43.70023" lon="3.86245">
        <ele>69.35</ele>
        <time>2013-08-09T15:13:40Z</time>
      </trkpt>
      <trkpt lat="43.69904" lon="3.86236">
        <ele>69.83</ele>
        <time>2013-08-09T15:13:53Z</time>
      </trkpt>
      <trkpt lat="43.69886" lon="3.86243">
        <ele>69.83</ele>
        <time>2013-08-09T15:13:55Z</time>
      </trkpt>
      <trkpt lat="43.69855" lon="3.86263">
        <ele>71.27</ele>
        <time>2013-08-09T15:14:02Z</time>
      </trkpt>
      <trkpt lat="43.69808" lon="3.86293">
        <ele>70.31</ele>
        <time>2013-08-09T15:14:10Z</time>
      </trkpt>
      <trkpt lat="43.6979" lon="3.863">
        <ele>69.35</ele>
        <time>2013-08-09T15:14:13Z</time>
      </trkpt>
      <trkpt lat="43.69785" lon="3.863">
        <ele>71.27</ele>
        <time>2013-08-09T15:14:14Z</time>
      </trkpt>
      <trkpt lat="43.69781" lon="3.86301">
        <ele>72.72</ele>
        <time>2013-08-09T15:14:15Z</time>
      </trkpt>
      <trkpt lat="43.69779" lon="3.863">
        <ele>72.72</ele>
        <time>2013-08-09T15:14:16Z</time>
      </trkpt>
      <trkpt lat="43.69776" lon="3.86298">
        <ele>78.97</ele>
        <time>2013-08-09T15:14:27Z</time>
      </trkpt>
      <trkpt lat="43.69766" lon="3.86297">
        <ele>83.29</ele>
        <time>2013-08-09T15:14:40Z</time>
      </trkpt>
      <trkpt lat="43.69723" lon="3.86289">
        <ele>76.08</ele>
        <time>2013-08-09T15:14:51Z</time>
      </trkpt>
      <trkpt lat="43.69663" lon="3.8628">
        <ele>73.68</ele>
        <time>2013-08-09T15:14:57Z</time>
      </trkpt>
      <trkpt lat="43.69579" lon="3.86266">
        <ele>72.72</ele>
        <time>2013-08-09T15:15:06Z</time>
      </trkpt>
      <trkpt lat="43.6948" lon="3.86251">
        <ele>70.31</ele>
        <time>2013-08-09T15:15:17Z</time>
      </trkpt>
      <trkpt lat="43.6935" lon="3.86251">
        <ele>71.27</ele>
        <time>2013-08-09T15:15:29Z</time>
      </trkpt>
      <trkpt lat="43.69226" lon="3.86275">
        <ele>70.31</ele>
        <time>2013-08-09T15:15:40Z</time>
      </trkpt>
      <trkpt lat="43.69102" lon="3.8628">
        <ele>68.39</ele>
        <time>2013-08-09T15:15:50Z</time>
      </trkpt>
      <trkpt lat="43.6898" lon="3.86279">
        <ele>65.99</ele>
        <time>2013-08-09T15:15:59Z</time>
      </trkpt>
      <trkpt lat="43.68885" lon="3.86301">
        <ele>65.03</ele>
        <time>2013-08-09T15:16:07Z</time>
      </trkpt>
      <trkpt lat="43.68762" lon="3.86347">
        <ele>62.62</ele>
        <time>2013-08-09T15:16:16Z</time>
      </trkpt>
      <trkpt lat="43.68678" lon="3.8638">
        <ele>62.62</ele>
        <time>2013-08-09T15:16:25Z</time>
      </trkpt>
      <trkpt lat="43.68622" lon="3.86393">
        <ele>62.62</ele>
        <time>2013-08-09T15:16:32Z</time>
      </trkpt>
      <trkpt lat="43.68552" lon="3.86396">
        <ele>62.62</ele>
        <time>2013-08-09T15:16:38Z</time>
      </trkpt>
      <trkpt lat="43.6844" lon="3.86362">
        <ele>62.14</ele>
        <time>2013-08-09T15:16:47Z</time>
      </trkpt>
      <trkpt lat="43.6843" lon="3.86358">
        <ele>62.14</ele>
        <time>2013-08-09T15:16:48Z</time>
      </trkpt>
      <trkpt lat="43.68421" lon="3.86352">
        <ele>62.14</ele>
        <time>2013-08-09T15:16:49Z</time>
      </trkpt>
      <trkpt lat="43.68414" lon="3.86345">
        <ele>62.14</ele>
        <time>2013-08-09T15:16:50Z</time>
      </trkpt>
      <trkpt lat="43.68408" lon="3.86336">
        <ele>62.14</ele>
        <time>2013-08-09T15:16:51Z</time>
      </trkpt>
      <trkpt lat="43.68402" lon="3.86327">
        <ele>62.14</ele>
        <time>2013-08-09T15:16:52Z</time>
      </trkpt>
      <trkpt lat="43.68396" lon="3.86319">
        <ele>62.14</ele>
        <time>2013-08-09T15:16:53Z</time>
      </trkpt>
      <trkpt lat="43.68389" lon="3.86313">
        <ele>62.14</ele>
        <time>2013-08-09T15:16:54Z</time>
      </trkpt>
      <trkpt lat="43.68379" lon="3.86311">
        <ele>62.14</ele>
        <time>2013-08-09T15:16:55Z</time>
      </trkpt>
      <trkpt lat="43.68367" lon="3.86315">
        <ele>62.62</ele>
        <time>2013-08-09T15:16:56Z</time>
      </trkpt>
      <trkpt lat="43.68357" lon="3.86321">
        <ele>62.14</ele>
        <time>2013-08-09T15:16:57Z</time>
      </trkpt>
      <trkpt lat="43.68347" lon="3.86329">
        <ele>62.14</ele>
        <time>2013-08-09T15:16:58Z</time>
      </trkpt>
      <trkpt lat="43.68338" lon="3.86338">
        <ele>61.66</ele>
        <time>2013-08-09T15:16:59Z</time>
      </trkpt>
      <trkpt lat="43.68329" lon="3.86348">
        <ele>61.66</ele>
        <time>2013-08-09T15:17:00Z</time>
      </trkpt>
      <trkpt lat="43.68321" lon="3.8636">
        <ele>61.66</ele>
        <time>2013-08-09T15:17:01Z</time>
      </trkpt>
      <trkpt lat="43.68315" lon="3.86373">
        <ele>61.66</ele>
        <time>2013-08-09T15:17:02Z</time>
      </trkpt>
      <trkpt lat="43.68309" lon="3.86389">
        <ele>61.18</ele>
        <time>2013-08-09T15:17:03Z</time>
      </trkpt>
      <trkpt lat="43.68303" lon="3.86405">
        <ele>61.18</ele>
        <time>2013-08-09T15:17:04Z</time>
      </trkpt>
      <trkpt lat="43.68295" lon="3.86421">
        <ele>60.7</ele>
        <time>2013-08-09T15:17:05Z</time>
      </trkpt>
      <trkpt lat="43.68285" lon="3.86437">
        <ele>60.22</ele>
        <time>2013-08-09T15:17:06Z</time>
      </trkpt>
      <trkpt lat="43.68273" lon="3.86451">
        <ele>59.74</ele>
        <time>2013-08-09T15:17:07Z</time>
      </trkpt>
      <trkpt lat="43.6826" lon="3.86463">
        <ele>59.26</ele>
        <time>2013-08-09T15:17:08Z</time>
      </trkpt>
      <trkpt lat="43.68248" lon="3.86475">
        <ele>59.26</ele>
        <time>2013-08-09T15:17:09Z</time>
      </trkpt>
      <trkpt lat="43.68185" lon="3.8652">
        <ele>58.78</ele>
        <time>2013-08-09T15:17:14Z</time>
      </trkpt>
      <trkpt lat="43.68171" lon="3.86525">
        <ele>59.26</ele>
        <time>2013-08-09T15:17:15Z</time>
      </trkpt>
      <trkpt lat="43.68043" lon="3.86579">
        <ele>59.74</ele>
        <time>2013-08-09T15:17:22Z</time>
      </trkpt>
      <trkpt lat="43.67815" lon="3.867">
        <ele>62.14</ele>
        <time>2013-08-09T15:17:32Z</time>
      </trkpt>
      <trkpt lat="43.67777" lon="3.86713">
        <ele>62.14</ele>
        <time>2013-08-09T15:17:34Z</time>
      </trkpt>
      <trkpt lat="43.67759" lon="3.86713">
        <ele>62.14</ele>
        <time>2013-08-09T15:17:35Z</time>
      </trkpt>
      <trkpt lat="43.67743" lon="3.86709">
        <ele>62.14</ele>
        <time>2013-08-09T15:17:36Z</time>
      </trkpt>
      <trkpt lat="43.6773" lon="3.86704">
        <ele>62.14</ele>
        <time>2013-08-09T15:17:37Z</time>
      </trkpt>
      <trkpt lat="43.6772" lon="3.86701">
        <ele>61.66</ele>
        <time>2013-08-09T15:17:38Z</time>
      </trkpt>
      <trkpt lat="43.67715" lon="3.86697">
        <ele>62.14</ele>
        <time>2013-08-09T15:17:39Z</time>
      </trkpt>
      <trkpt lat="43.67712" lon="3.86696">
        <ele>62.62</ele>
        <time>2013-08-09T15:17:40Z</time>
      </trkpt>
      <trkpt lat="43.67711" lon="3.86691">
        <ele>61.66</ele>
        <time>2013-08-09T15:17:45Z</time>
      </trkpt>
      <trkpt lat="43.67698" lon="3.86672">
        <ele>61.66</ele>
        <time>2013-08-09T15:17:47Z</time>
      </trkpt>
      <trkpt lat="43.67687" lon="3.86663">
        <ele>61.18</ele>
        <time>2013-08-09T15:17:48Z</time>
      </trkpt>
      <trkpt lat="43.67675" lon="3.86659">
        <ele>61.18</ele>
        <time>2013-08-09T15:17:49Z</time>
      </trkpt>
      <trkpt lat="43.67662" lon="3.86661">
        <ele>60.7</ele>
        <time>2013-08-09T15:17:50Z</time>
      </trkpt>
      <trkpt lat="43.6765" lon="3.86668">
        <ele>60.22</ele>
        <time>2013-08-09T15:17:51Z</time>
      </trkpt>
      <trkpt lat="43.6764" lon="3.86678">
        <ele>60.22</ele>
        <time>2013-08-09T15:17:52Z</time>
      </trkpt>
      <trkpt lat="43.67631" lon="3.8669">
        <ele>60.7</ele>
        <time>2013-08-09T15:17:53Z</time>
      </trkpt>
      <trkpt lat="43.67623" lon="3.86701">
        <ele>60.7</ele>
        <time>2013-08-09T15:17:54Z</time>
      </trkpt>
      <trkpt lat="43.67613" lon="3.86709">
        <ele>60.22</ele>
        <time>2013-08-09T15:17:55Z</time>
      </trkpt>
      <trkpt lat="43.67601" lon="3.86713">
        <ele>60.22</ele>
        <time>2013-08-09T15:17:56Z</time>
      </trkpt>
      <trkpt lat="43.67588" lon="3.86714">
        <ele>60.22</ele>
        <time>2013-08-09T15:17:57Z</time>
      </trkpt>
      <trkpt lat="43.67574" lon="3.86714">
        <ele>59.74</ele>
        <time>2013-08-09T15:17:58Z</time>
      </trkpt>
      <trkpt lat="43.6756" lon="3.86716">
        <ele>59.74</ele>
        <time>2013-08-09T15:17:59Z</time>
      </trkpt>
      <trkpt lat="43.67545" lon="3.8672">
        <ele>60.22</ele>
        <time>2013-08-09T15:18:00Z</time>
      </trkpt>
      <trkpt lat="43.6753" lon="3.86726">
        <ele>59.74</ele>
        <time>2013-08-09T15:18:01Z</time>
      </trkpt>
      <trkpt lat="43.67421" lon="3.86768">
        <ele>61.66</ele>
        <time>2013-08-09T15:18:08Z</time>
      </trkpt>
      <trkpt lat="43.67403" lon="3.86769">
        <ele>62.14</ele>
        <time>2013-08-09T15:18:09Z</time>
      </trkpt>
      <trkpt lat="43.67386" lon="3.86767">
        <ele>62.62</ele>
        <time>2013-08-09T15:18:10Z</time>
      </trkpt>
      <trkpt lat="43.6724" lon="3.86773">
        <ele>61.66</ele>
        <time>2013-08-09T15:18:17Z</time>
      </trkpt>
      <trkpt lat="43.67002" lon="3.86831">
        <ele>58.78</ele>
        <time>2013-08-09T15:18:26Z</time>
      </trkpt>
      <trkpt lat="43.66921" lon="3.86845">
        <ele>59.74</ele>
        <time>2013-08-09T15:18:29Z</time>
      </trkpt>
      <trkpt lat="43.66894" lon="3.86841">
        <ele>59.74</ele>
        <time>2013-08-09T15:18:30Z</time>
      </trkpt>
      <trkpt lat="43.66867" lon="3.86833">
        <ele>59.74</ele>
        <time>2013-08-09T15:18:31Z</time>
      </trkpt>
      <trkpt lat="43.66841" lon="3.8682">
        <ele>59.74</ele>
        <time>2013-08-09T15:18:32Z</time>
      </trkpt>
      <trkpt lat="43.66816" lon="3.86803">
        <ele>59.26</ele>
        <time>2013-08-09T15:18:33Z</time>
      </trkpt>
      <trkpt lat="43.66793" lon="3.86783">
        <ele>59.26</ele>
        <time>2013-08-09T15:18:34Z</time>
      </trkpt>
      <trkpt lat="43.66771" lon="3.8676">
        <ele>58.78</ele>
        <time>2013-08-09T15:18:35Z</time>
      </trkpt>
      <trkpt lat="43.66751" lon="3.86735">
        <ele>58.3</ele>
        <time>2013-08-09T15:18:36Z</time>
      </trkpt>
      <trkpt lat="43.66731" lon="3.8671">
        <ele>58.3</ele>
        <time>2013-08-09T15:18:37Z</time>
      </trkpt>
      <trkpt lat="43.66626" lon="3.86622">
        <ele>55.41</ele>
        <time>2013-08-09T15:18:42Z</time>
      </trkpt>
      <trkpt lat="43.66601" lon="3.86617">
        <ele>54.93</ele>
        <time>2013-08-09T15:18:43Z</time>
      </trkpt>
      <trkpt lat="43.66574" lon="3.86616">
        <ele>54.93</ele>
        <time>2013-08-09T15:18:44Z</time>
      </trkpt>
      <trkpt lat="43.66547" lon="3.8662">
        <ele>54.93</ele>
        <time>2013-08-09T15:18:45Z</time>
      </trkpt>
      <trkpt lat="43.6652" lon="3.86626">
        <ele>55.89</ele>
        <time>2013-08-09T15:18:46Z</time>
      </trkpt>
      <trkpt lat="43.66492" lon="3.86632">
        <ele>56.86</ele>
        <time>2013-08-09T15:18:47Z</time>
      </trkpt>
      <trkpt lat="43.66288" lon="3.86636">
        <ele>63.58</ele>
        <time>2013-08-09T15:18:54Z</time>
      </trkpt>
      <trkpt lat="43.66066" lon="3.86637">
        <ele>58.3</ele>
        <time>2013-08-09T15:19:02Z</time>
      </trkpt>
      <trkpt lat="43.66039" lon="3.86647">
        <ele>57.34</ele>
        <time>2013-08-09T15:19:03Z</time>
      </trkpt>
      <trkpt lat="43.66013" lon="3.86662">
        <ele>56.37</ele>
        <time>2013-08-09T15:19:04Z</time>
      </trkpt>
      <trkpt lat="43.65989" lon="3.86683">
        <ele>54.45</ele>
        <time>2013-08-09T15:19:05Z</time>
      </trkpt>
      <trkpt lat="43.65965" lon="3.86707">
        <ele>53.49</ele>
        <time>2013-08-09T15:19:06Z</time>
      </trkpt>
      <trkpt lat="43.65942" lon="3.86734">
        <ele>52.05</ele>
        <time>2013-08-09T15:19:07Z</time>
      </trkpt>
      <trkpt lat="43.65787" lon="3.86921">
        <ele>49.16</ele>
        <time>2013-08-09T15:19:14Z</time>
      </trkpt>
      <trkpt lat="43.65576" lon="3.87124">
        <ele>47.72</ele>
        <time>2013-08-09T15:19:23Z</time>
      </trkpt>
      <trkpt lat="43.6556" lon="3.87149">
        <ele>48.2</ele>
        <time>2013-08-09T15:19:24Z</time>
      </trkpt>
      <trkpt lat="43.65521" lon="3.87213">
        <ele>50.13</ele>
        <time>2013-08-09T15:19:28Z</time>
      </trkpt>
      <trkpt lat="43.65514" lon="3.87219">
        <ele>51.09</ele>
        <time>2013-08-09T15:19:29Z</time>
      </trkpt>
      <trkpt lat="43.65509" lon="3.87223">
        <ele>51.09</ele>
        <time>2013-08-09T15:19:30Z</time>
      </trkpt>
      <trkpt lat="43.65505" lon="3.87225">
        <ele>51.09</ele>
        <time>2013-08-09T15:19:31Z</time>
      </trkpt>
      <trkpt lat="43.65502" lon="3.87225">
        <ele>51.09</ele>
        <time>2013-08-09T15:19:32Z</time>
      </trkpt>
      <trkpt lat="43.655" lon="3.87225">
        <ele>51.57</ele>
        <time>2013-08-09T15:19:33Z</time>
      </trkpt>
      <trkpt lat="43.65498" lon="3.87225">
        <ele>51.57</ele>
        <time>2013-08-09T15:19:34Z</time>
      </trkpt>
      <trkpt lat="43.65494" lon="3.87222">
        <ele>51.57</ele>
        <time>2013-08-09T15:19:43Z</time>
      </trkpt>
      <trkpt lat="43.65488" lon="3.87218">
        <ele>51.57</ele>
        <time>2013-08-09T15:19:44Z</time>
      </trkpt>
      <trkpt lat="43.65478" lon="3.87212">
        <ele>51.09</ele>
        <time>2013-08-09T15:19:45Z</time>
      </trkpt>
      <trkpt lat="43.65467" lon="3.87206">
        <ele>51.09</ele>
        <time>2013-08-09T15:19:46Z</time>
      </trkpt>
      <trkpt lat="43.65455" lon="3.87203">
        <ele>50.61</ele>
        <time>2013-08-09T15:19:47Z</time>
      </trkpt>
      <trkpt lat="43.65443" lon="3.872">
        <ele>50.61</ele>
        <time>2013-08-09T15:19:48Z</time>
      </trkpt>
      <trkpt lat="43.65431" lon="3.872">
        <ele>50.61</ele>
        <time>2013-08-09T15:19:49Z</time>
      </trkpt>
      <trkpt lat="43.65419" lon="3.872">
        <ele>50.61</ele>
        <time>2013-08-09T15:19:50Z</time>
      </trkpt>
      <trkpt lat="43.65407" lon="3.87203">
        <ele>50.61</ele>
        <time>2013-08-09T15:19:51Z</time>
      </trkpt>
      <trkpt lat="43.65394" lon="3.87206">
        <ele>50.61</ele>
        <time>2013-08-09T15:19:52Z</time>
      </trkpt>
      <trkpt lat="43.65383" lon="3.87212">
        <ele>50.61</ele>
        <time>2013-08-09T15:19:53Z</time>
      </trkpt>
      <trkpt lat="43.65372" lon="3.87218">
        <ele>50.61</ele>
        <time>2013-08-09T15:19:54Z</time>
      </trkpt>
      <trkpt lat="43.65363" lon="3.87225">
        <ele>50.61</ele>
        <time>2013-08-09T15:19:55Z</time>
      </trkpt>
      <trkpt lat="43.65355" lon="3.87232">
        <ele>50.61</ele>
        <time>2013-08-09T15:19:56Z</time>
      </trkpt>
      <trkpt lat="43.65347" lon="3.87236">
        <ele>50.61</ele>
        <time>2013-08-09T15:19:57Z</time>
      </trkpt>
      <trkpt lat="43.65337" lon="3.87238">
        <ele>50.61</ele>
        <time>2013-08-09T15:19:58Z</time>
      </trkpt>
      <trkpt lat="43.65325" lon="3.87235">
        <ele>50.61</ele>
        <time>2013-08-09T15:19:59Z</time>
      </trkpt>
      <trkpt lat="43.65311" lon="3.87227">
        <ele>50.13</ele>
        <time>2013-08-09T15:20:00Z</time>
      </trkpt>
      <trkpt lat="43.65294" lon="3.87217">
        <ele>49.65</ele>
        <time>2013-08-09T15:20:01Z</time>
      </trkpt>
      <trkpt lat="43.65276" lon="3.872">
        <ele>48.68</ele>
        <time>2013-08-09T15:20:02Z</time>
      </trkpt>
      <trkpt lat="43.65259" lon="3.8718">
        <ele>48.2</ele>
        <time>2013-08-09T15:20:03Z</time>
      </trkpt>
      <trkpt lat="43.65242" lon="3.87158">
        <ele>47.72</ele>
        <time>2013-08-09T15:20:04Z</time>
      </trkpt>
      <trkpt lat="43.65226" lon="3.87134">
        <ele>47.72</ele>
        <time>2013-08-09T15:20:05Z</time>
      </trkpt>
      <trkpt lat="43.65212" lon="3.87108">
        <ele>47.72</ele>
        <time>2013-08-09T15:20:06Z</time>
      </trkpt>
      <trkpt lat="43.65199" lon="3.8708">
        <ele>47.72</ele>
        <time>2013-08-09T15:20:07Z</time>
      </trkpt>
      <trkpt lat="43.65187" lon="3.87051">
        <ele>48.2</ele>
        <time>2013-08-09T15:20:08Z</time>
      </trkpt>
      <trkpt lat="43.65114" lon="3.86832">
        <ele>49.65</ele>
        <time>2013-08-09T15:20:16Z</time>
      </trkpt>
      <trkpt lat="43.65099" lon="3.86704">
        <ele>49.65</ele>
        <time>2013-08-09T15:20:23Z</time>
      </trkpt>
      <trkpt lat="43.65098" lon="3.86678">
        <ele>49.65</ele>
        <time>2013-08-09T15:20:25Z</time>
      </trkpt>
      <trkpt lat="43.65099" lon="3.86668">
        <ele>49.16</ele>
        <time>2013-08-09T15:20:26Z</time>
      </trkpt>
      <trkpt lat="43.65102" lon="3.86659">
        <ele>49.16</ele>
        <time>2013-08-09T15:20:27Z</time>
      </trkpt>
      <trkpt lat="43.65108" lon="3.86649">
        <ele>48.68</ele>
        <time>2013-08-09T15:20:28Z</time>
      </trkpt>
      <trkpt lat="43.65116" lon="3.86639">
        <ele>48.68</ele>
        <time>2013-08-09T15:20:29Z</time>
      </trkpt>
      <trkpt lat="43.65124" lon="3.86629">
        <ele>48.68</ele>
        <time>2013-08-09T15:20:30Z</time>
      </trkpt>
      <trkpt lat="43.6513" lon="3.86618">
        <ele>48.68</ele>
        <time>2013-08-09T15:20:31Z</time>
      </trkpt>
      <trkpt lat="43.65134" lon="3.86606">
        <ele>48.68</ele>
        <time>2013-08-09T15:20:32Z</time>
      </trkpt>
      <trkpt lat="43.65136" lon="3.86593">
        <ele>48.68</ele>
        <time>2013-08-09T15:20:33Z</time>
      </trkpt>
      <trkpt lat="43.65136" lon="3.86581">
        <ele>48.68</ele>
        <time>2013-08-09T15:20:34Z</time>
      </trkpt>
      <trkpt lat="43.65132" lon="3.86568">
        <ele>49.16</ele>
        <time>2013-08-09T15:20:35Z</time>
      </trkpt>
      <trkpt lat="43.65128" lon="3.86557">
        <ele>48.68</ele>
        <time>2013-08-09T15:20:36Z</time>
      </trkpt>
      <trkpt lat="43.65121" lon="3.86547">
        <ele>48.68</ele>
        <time>2013-08-09T15:20:37Z</time>
      </trkpt>
      <trkpt lat="43.65114" lon="3.8654">
        <ele>48.2</ele>
        <time>2013-08-09T15:20:38Z</time>
      </trkpt>
      <trkpt lat="43.65107" lon="3.86535">
        <ele>47.24</ele>
        <time>2013-08-09T15:20:39Z</time>
      </trkpt>
      <trkpt lat="43.65101" lon="3.86531">
        <ele>47.24</ele>
        <time>2013-08-09T15:20:40Z</time>
      </trkpt>
      <trkpt lat="43.65095" lon="3.86527">
        <ele>46.76</ele>
        <time>2013-08-09T15:20:41Z</time>
      </trkpt>
      <trkpt lat="43.65088" lon="3.8652">
        <ele>46.76</ele>
        <time>2013-08-09T15:20:42Z</time>
      </trkpt>
      <trkpt lat="43.65083" lon="3.86509">
        <ele>46.28</ele>
        <time>2013-08-09T15:20:43Z</time>
      </trkpt>
      <trkpt lat="43.6508" lon="3.86497">
        <ele>46.28</ele>
        <time>2013-08-09T15:20:44Z</time>
      </trkpt>
      <trkpt lat="43.65078" lon="3.86483">
        <ele>46.28</ele>
        <time>2013-08-09T15:20:45Z</time>
      </trkpt>
      <trkpt lat="43.65077" lon="3.86468">
        <ele>45.8</ele>
        <time>2013-08-09T15:20:46Z</time>
      </trkpt>
      <trkpt lat="43.65066" lon="3.86346">
        <ele>46.28</ele>
        <time>2013-08-09T15:20:53Z</time>
      </trkpt>
      <trkpt lat="43.65056" lon="3.86211">
        <ele>49.65</ele>
        <time>2013-08-09T15:21:03Z</time>
      </trkpt>
      <trkpt lat="43.65037" lon="3.86037">
        <ele>55.41</ele>
        <time>2013-08-09T15:21:14Z</time>
      </trkpt>
      <trkpt lat="43.65024" lon="3.85932">
        <ele>58.78</ele>
        <time>2013-08-09T15:21:23Z</time>
      </trkpt>
      <trkpt lat="43.64991" lon="3.85781">
        <ele>61.18</ele>
        <time>2013-08-09T15:21:33Z</time>
      </trkpt>
      <trkpt lat="43.6493" lon="3.85617">
        <ele>61.18</ele>
        <time>2013-08-09T15:21:44Z</time>
      </trkpt>
      <trkpt lat="43.64841" lon="3.85501">
        <ele>62.14</ele>
        <time>2013-08-09T15:21:53Z</time>
      </trkpt>
      <trkpt lat="43.64735" lon="3.85433">
        <ele>67.43</ele>
        <time>2013-08-09T15:22:02Z</time>
      </trkpt>
      <trkpt lat="43.64645" lon="3.85391">
        <ele>71.27</ele>
        <time>2013-08-09T15:22:12Z</time>
      </trkpt>
      <trkpt lat="43.64562" lon="3.85325">
        <ele>76.08</ele>
        <time>2013-08-09T15:22:22Z</time>
      </trkpt>
      <trkpt lat="43.64536" lon="3.85281">
        <ele>78.48</ele>
        <time>2013-08-09T15:22:31Z</time>
      </trkpt>
      <trkpt lat="43.64534" lon="3.85273">
        <ele>78.48</ele>
        <time>2013-08-09T15:22:32Z</time>
      </trkpt>
      <trkpt lat="43.64534" lon="3.85264">
        <ele>78</ele>
        <time>2013-08-09T15:22:33Z</time>
      </trkpt>
      <trkpt lat="43.64533" lon="3.85242">
        <ele>77.52</ele>
        <time>2013-08-09T15:22:35Z</time>
      </trkpt>
      <trkpt lat="43.64531" lon="3.85232">
        <ele>77.52</ele>
        <time>2013-08-09T15:22:36Z</time>
      </trkpt>
      <trkpt lat="43.64526" lon="3.85225">
        <ele>77.04</ele>
        <time>2013-08-09T15:22:37Z</time>
      </trkpt>
      <trkpt lat="43.64518" lon="3.8522">
        <ele>77.04</ele>
        <time>2013-08-09T15:22:38Z</time>
      </trkpt>
      <trkpt lat="43.64508" lon="3.85216">
        <ele>77.04</ele>
        <time>2013-08-09T15:22:39Z</time>
      </trkpt>
      <trkpt lat="43.64498" lon="3.85211">
        <ele>77.04</ele>
        <time>2013-08-09T15:22:40Z</time>
      </trkpt>
      <trkpt lat="43.6449" lon="3.85201">
        <ele>77.04</ele>
        <time>2013-08-09T15:22:41Z</time>
      </trkpt>
      <trkpt lat="43.64482" lon="3.85189">
        <ele>76.56</ele>
        <time>2013-08-09T15:22:42Z</time>
      </trkpt>
      <trkpt lat="43.64474" lon="3.85176">
        <ele>76.56</ele>
        <time>2013-08-09T15:22:43Z</time>
      </trkpt>
      <trkpt lat="43.64385" lon="3.85017">
        <ele>78.97</ele>
        <time>2013-08-09T15:22:55Z</time>
      </trkpt>
      <trkpt lat="43.64336" lon="3.84893">
        <ele>79.93</ele>
        <time>2013-08-09T15:23:04Z</time>
      </trkpt>
      <trkpt lat="43.64258" lon="3.84779">
        <ele>76.08</ele>
        <time>2013-08-09T15:23:13Z</time>
      </trkpt>
      <trkpt lat="43.64162" lon="3.84718">
        <ele>71.27</ele>
        <time>2013-08-09T15:23:21Z</time>
      </trkpt>
      <trkpt lat="43.64152" lon="3.84713">
        <ele>71.27</ele>
        <time>2013-08-09T15:23:22Z</time>
      </trkpt>
      <trkpt lat="43.64144" lon="3.84707">
        <ele>70.79</ele>
        <time>2013-08-09T15:23:23Z</time>
      </trkpt>
      <trkpt lat="43.64138" lon="3.84699">
        <ele>70.31</ele>
        <time>2013-08-09T15:23:24Z</time>
      </trkpt>
      <trkpt lat="43.64134" lon="3.84689">
        <ele>69.83</ele>
        <time>2013-08-09T15:23:25Z</time>
      </trkpt>
      <trkpt lat="43.64134" lon="3.84678">
        <ele>68.87</ele>
        <time>2013-08-09T15:23:26Z</time>
      </trkpt>
      <trkpt lat="43.64137" lon="3.84667">
        <ele>68.39</ele>
        <time>2013-08-09T15:23:27Z</time>
      </trkpt>
      <trkpt lat="43.64144" lon="3.84656">
        <ele>67.91</ele>
        <time>2013-08-09T15:23:28Z</time>
      </trkpt>
      <trkpt lat="43.64153" lon="3.84646">
        <ele>67.91</ele>
        <time>2013-08-09T15:23:29Z</time>
      </trkpt>
      <trkpt lat="43.64165" lon="3.84635">
        <ele>67.43</ele>
        <time>2013-08-09T15:23:30Z</time>
      </trkpt>
      <trkpt lat="43.64184" lon="3.84622">
        <ele>67.91</ele>
        <time>2013-08-09T15:23:31Z</time>
      </trkpt>
      <trkpt lat="43.64284" lon="3.8454">
        <ele>69.83</ele>
        <time>2013-08-09T15:23:36Z</time>
      </trkpt>
      <trkpt lat="43.64425" lon="3.84381">
        <ele>74.16</ele>
        <time>2013-08-09T15:23:44Z</time>
      </trkpt>
      <trkpt lat="43.64526" lon="3.84304">
        <ele>76.56</ele>
        <time>2013-08-09T15:23:50Z</time>
      </trkpt>
      <trkpt lat="43.64564" lon="3.84287">
        <ele>77.52</ele>
        <time>2013-08-09T15:23:53Z</time>
      </trkpt>
      <trkpt lat="43.64572" lon="3.8429">
        <ele>78</ele>
        <time>2013-08-09T15:23:54Z</time>
      </trkpt>
      <trkpt lat="43.64578" lon="3.84297">
        <ele>78.48</ele>
        <time>2013-08-09T15:23:55Z</time>
      </trkpt>
      <trkpt lat="43.64583" lon="3.84309">
        <ele>78.97</ele>
        <time>2013-08-09T15:23:56Z</time>
      </trkpt>
      <trkpt lat="43.64585" lon="3.84324">
        <ele>78.97</ele>
        <time>2013-08-09T15:23:57Z</time>
      </trkpt>
      <trkpt lat="43.64584" lon="3.84338">
        <ele>79.45</ele>
        <time>2013-08-09T15:23:58Z</time>
      </trkpt>
      <trkpt lat="43.64579" lon="3.8435">
        <ele>79.45</ele>
        <time>2013-08-09T15:23:59Z</time>
      </trkpt>
      <trkpt lat="43.64571" lon="3.84358">
        <ele>79.93</ele>
        <time>2013-08-09T15:24:00Z</time>
      </trkpt>
      <trkpt lat="43.64559" lon="3.84356">
        <ele>79.93</ele>
        <time>2013-08-09T15:24:01Z</time>
      </trkpt>
      <trkpt lat="43.6455" lon="3.8435">
        <ele>79.93</ele>
        <time>2013-08-09T15:24:02Z</time>
      </trkpt>
      <trkpt lat="43.64543" lon="3.84343">
        <ele>79.93</ele>
        <time>2013-08-09T15:24:03Z</time>
      </trkpt>
      <trkpt lat="43.64538" lon="3.84336">
        <ele>80.41</ele>
        <time>2013-08-09T15:24:04Z</time>
      </trkpt>
      <trkpt lat="43.64534" lon="3.8433">
        <ele>80.41</ele>
        <time>2013-08-09T15:24:05Z</time>
      </trkpt>
      <trkpt lat="43.64504" lon="3.84268">
        <ele>80.41</ele>
        <time>2013-08-09T15:24:10Z</time>
      </trkpt>
      <trkpt lat="43.64473" lon="3.84189">
        <ele>77.04</ele>
        <time>2013-08-09T15:24:16Z</time>
      </trkpt>
      <trkpt lat="43.64472" lon="3.84177">
        <ele>77.52</ele>
        <time>2013-08-09T15:24:17Z</time>
      </trkpt>
      <trkpt lat="43.64474" lon="3.84166">
        <ele>77.04</ele>
        <time>2013-08-09T15:24:18Z</time>
      </trkpt>
      <trkpt lat="43.64478" lon="3.84156">
        <ele>77.04</ele>
        <time>2013-08-09T15:24:19Z</time>
      </trkpt>
      <trkpt lat="43.64488" lon="3.84147">
        <ele>77.04</ele>
        <time>2013-08-09T15:24:20Z</time>
      </trkpt>
      <trkpt lat="43.64501" lon="3.84137">
        <ele>77.52</ele>
        <time>2013-08-09T15:24:21Z</time>
      </trkpt>
      <trkpt lat="43.64515" lon="3.84127">
        <ele>78</ele>
        <time>2013-08-09T15:24:22Z</time>
      </trkpt>
      <trkpt lat="43.64623" lon="3.84008">
        <ele>84.25</ele>
        <time>2013-08-09T15:24:30Z</time>
      </trkpt>
      <trkpt lat="43.64665" lon="3.83944">
        <ele>86.66</ele>
        <time>2013-08-09T15:24:35Z</time>
      </trkpt>
      <trkpt lat="43.64666" lon="3.83937">
        <ele>86.66</ele>
        <time>2013-08-09T15:24:36Z</time>
      </trkpt>
      <trkpt lat="43.64666" lon="3.83931">
        <ele>87.14</ele>
        <time>2013-08-09T15:24:37Z</time>
      </trkpt>
      <trkpt lat="43.64662" lon="3.83926">
        <ele>86.66</ele>
        <time>2013-08-09T15:24:38Z</time>
      </trkpt>
      <trkpt lat="43.64656" lon="3.8392">
        <ele>86.66</ele>
        <time>2013-08-09T15:24:39Z</time>
      </trkpt>
      <trkpt lat="43.64648" lon="3.83912">
        <ele>86.18</ele>
        <time>2013-08-09T15:24:40Z</time>
      </trkpt>
      <trkpt lat="43.64568" lon="3.8383">
        <ele>80.41</ele>
        <time>2013-08-09T15:24:49Z</time>
      </trkpt>
      <trkpt lat="43.64529" lon="3.83789">
        <ele>77.04</ele>
        <time>2013-08-09T15:24:54Z</time>
      </trkpt>
      <trkpt lat="43.64525" lon="3.83786">
        <ele>77.04</ele>
        <time>2013-08-09T15:24:55Z</time>
      </trkpt>
      <trkpt lat="43.6452" lon="3.83787">
        <ele>77.04</ele>
        <time>2013-08-09T15:24:56Z</time>
      </trkpt>
      <trkpt lat="43.64501" lon="3.83824">
        <ele>77.52</ele>
        <time>2013-08-09T15:25:02Z</time>
      </trkpt>
      <trkpt lat="43.64494" lon="3.83863">
        <ele>82.81</ele>
        <time>2013-08-09T15:25:11Z</time>
      </trkpt>
      <trkpt lat="43.64493" lon="3.83863">
        <ele>84.25</ele>
        <time>2013-08-09T15:25:21Z</time>
      </trkpt>
      <trkpt lat="43.6449" lon="3.83857">
        <ele>83.29</ele>
        <time>2013-08-09T15:25:25Z</time>
      </trkpt>
      <trkpt lat="43.64492" lon="3.83852">
        <ele>82.33</ele>
        <time>2013-08-09T15:25:37Z</time>
      </trkpt>
      <trkpt lat="43.64489" lon="3.8385">
        <ele>80.41</ele>
        <time>2013-08-09T15:28:26Z</time>
      </trkpt>
      <trkpt lat="43.64498" lon="3.83843">
        <ele>80.89</ele>
        <time>2013-08-09T15:28:30Z</time>
      </trkpt>
      <trkpt lat="43.64507" lon="3.83831">
        <ele>80.41</ele>
        <time>2013-08-09T15:28:33Z</time>
      </trkpt>
      <trkpt lat="43.64512" lon="3.83832">
        <ele>80.41</ele>
        <time>2013-08-09T15:28:34Z</time>
      </trkpt>
      <trkpt lat="43.64517" lon="3.83834">
        <ele>80.41</ele>
        <time>2013-08-09T15:28:35Z</time>
      </trkpt>
      <trkpt lat="43.64523" lon="3.83838">
        <ele>80.41</ele>
        <time>2013-08-09T15:28:36Z</time>
      </trkpt>
      <trkpt lat="43.64593" lon="3.83879">
        <ele>82.33</ele>
        <time>2013-08-09T15:28:46Z</time>
      </trkpt>
      <trkpt lat="43.64596" lon="3.83879">
        <ele>82.81</ele>
        <time>2013-08-09T15:28:47Z</time>
      </trkpt>
      <trkpt lat="43.64599" lon="3.83878">
        <ele>82.81</ele>
        <time>2013-08-09T15:28:48Z</time>
      </trkpt>
      <trkpt lat="43.64603" lon="3.83877">
        <ele>82.81</ele>
        <time>2013-08-09T15:28:49Z</time>
      </trkpt>
      <trkpt lat="43.64607" lon="3.83878">
        <ele>82.81</ele>
        <time>2013-08-09T15:28:50Z</time>
      </trkpt>
      <trkpt lat="43.64611" lon="3.83882">
        <ele>83.29</ele>
        <time>2013-08-09T15:28:51Z</time>
      </trkpt>
      <trkpt lat="43.64616" lon="3.83888">
        <ele>83.77</ele>
        <time>2013-08-09T15:28:52Z</time>
      </trkpt>
      <trkpt lat="43.64622" lon="3.83895">
        <ele>84.25</ele>
        <time>2013-08-09T15:28:53Z</time>
      </trkpt>
      <trkpt lat="43.6465" lon="3.83929">
        <ele>87.14</ele>
        <time>2013-08-09T15:28:58Z</time>
      </trkpt>
      <trkpt lat="43.64653" lon="3.83938">
        <ele>87.14</ele>
        <time>2013-08-09T15:28:59Z</time>
      </trkpt>
      <trkpt lat="43.64653" lon="3.8395">
        <ele>87.62</ele>
        <time>2013-08-09T15:29:00Z</time>
      </trkpt>
      <trkpt lat="43.6465" lon="3.8396">
        <ele>87.62</ele>
        <time>2013-08-09T15:29:01Z</time>
      </trkpt>
      <trkpt lat="43.64645" lon="3.8397">
        <ele>88.1</ele>
        <time>2013-08-09T15:29:02Z</time>
      </trkpt>
      <trkpt lat="43.64638" lon="3.8398">
        <ele>88.1</ele>
        <time>2013-08-09T15:29:03Z</time>
      </trkpt>
      <trkpt lat="43.6463" lon="3.83991">
        <ele>87.62</ele>
        <time>2013-08-09T15:29:04Z</time>
      </trkpt>
      <trkpt lat="43.6452" lon="3.84127">
        <ele>80.89</ele>
        <time>2013-08-09T15:29:16Z</time>
      </trkpt>
      <trkpt lat="43.64471" lon="3.84165">
        <ele>78</ele>
        <time>2013-08-09T15:29:22Z</time>
      </trkpt>
      <trkpt lat="43.64466" lon="3.84167">
        <ele>77.52</ele>
        <time>2013-08-09T15:29:23Z</time>
      </trkpt>
      <trkpt lat="43.64454" lon="3.84171">
        <ele>77.04</ele>
        <time>2013-08-09T15:29:25Z</time>
      </trkpt>
      <trkpt lat="43.64449" lon="3.84174">
        <ele>76.56</ele>
        <time>2013-08-09T15:29:26Z</time>
      </trkpt>
      <trkpt lat="43.64444" lon="3.84179">
        <ele>76.56</ele>
        <time>2013-08-09T15:29:27Z</time>
      </trkpt>
      <trkpt lat="43.6444" lon="3.84186">
        <ele>76.08</ele>
        <time>2013-08-09T15:29:28Z</time>
      </trkpt>
      <trkpt lat="43.64435" lon="3.84194">
        <ele>76.08</ele>
        <time>2013-08-09T15:29:29Z</time>
      </trkpt>
      <trkpt lat="43.64429" lon="3.84202">
        <ele>76.08</ele>
        <time>2013-08-09T15:29:30Z</time>
      </trkpt>
      <trkpt lat="43.64422" lon="3.84212">
        <ele>75.6</ele>
        <time>2013-08-09T15:29:31Z</time>
      </trkpt>
      <trkpt lat="43.6431" lon="3.84311">
        <ele>71.76</ele>
        <time>2013-08-09T15:29:42Z</time>
      </trkpt>
      <trkpt lat="43.642" lon="3.84389">
        <ele>71.76</ele>
        <time>2013-08-09T15:29:54Z</time>
      </trkpt>
      <trkpt lat="43.64195" lon="3.84394">
        <ele>72.72</ele>
        <time>2013-08-09T15:29:56Z</time>
      </trkpt>
      <trkpt lat="43.64194" lon="3.844">
        <ele>72.24</ele>
        <time>2013-08-09T15:29:57Z</time>
      </trkpt>
      <trkpt lat="43.64195" lon="3.84408">
        <ele>72.24</ele>
        <time>2013-08-09T15:29:58Z</time>
      </trkpt>
      <trkpt lat="43.64197" lon="3.84418">
        <ele>71.76</ele>
        <time>2013-08-09T15:29:59Z</time>
      </trkpt>
      <trkpt lat="43.642" lon="3.84429">
        <ele>71.76</ele>
        <time>2013-08-09T15:30:00Z</time>
      </trkpt>
      <trkpt lat="43.64203" lon="3.84453">
        <ele>70.31</ele>
        <time>2013-08-09T15:30:02Z</time>
      </trkpt>
      <trkpt lat="43.64206" lon="3.84492">
        <ele>69.35</ele>
        <time>2013-08-09T15:30:05Z</time>
      </trkpt>
      <trkpt lat="43.64208" lon="3.84505">
        <ele>68.87</ele>
        <time>2013-08-09T15:30:06Z</time>
      </trkpt>
      <trkpt lat="43.64211" lon="3.84516">
        <ele>68.87</ele>
        <time>2013-08-09T15:30:07Z</time>
      </trkpt>
      <trkpt lat="43.64214" lon="3.84527">
        <ele>68.87</ele>
        <time>2013-08-09T15:30:08Z</time>
      </trkpt>
      <trkpt lat="43.64217" lon="3.84537">
        <ele>68.39</ele>
        <time>2013-08-09T15:30:09Z</time>
      </trkpt>
      <trkpt lat="43.64219" lon="3.84546">
        <ele>68.39</ele>
        <time>2013-08-09T15:30:10Z</time>
      </trkpt>
      <trkpt lat="43.64219" lon="3.84554">
        <ele>68.39</ele>
        <time>2013-08-09T15:30:11Z</time>
      </trkpt>
      <trkpt lat="43.64218" lon="3.8456">
        <ele>68.39</ele>
        <time>2013-08-09T15:30:12Z</time>
      </trkpt>
      <trkpt lat="43.64215" lon="3.84563">
        <ele>67.91</ele>
        <time>2013-08-09T15:30:13Z</time>
      </trkpt>
      <trkpt lat="43.64212" lon="3.84563">
        <ele>67.43</ele>
        <time>2013-08-09T15:30:14Z</time>
      </trkpt>
      <trkpt lat="43.64208" lon="3.84562">
        <ele>66.95</ele>
        <time>2013-08-09T15:30:15Z</time>
      </trkpt>
      <trkpt lat="43.64205" lon="3.84559">
        <ele>66.47</ele>
        <time>2013-08-09T15:30:16Z</time>
      </trkpt>
      <trkpt lat="43.64201" lon="3.84555">
        <ele>66.47</ele>
        <time>2013-08-09T15:30:17Z</time>
      </trkpt>
      <trkpt lat="43.64198" lon="3.84553">
        <ele>66.47</ele>
        <time>2013-08-09T15:30:18Z</time>
      </trkpt>
      <trkpt lat="43.64195" lon="3.84552">
        <ele>66.47</ele>
        <time>2013-08-09T15:30:19Z</time>
      </trkpt>
      <trkpt lat="43.64191" lon="3.84553">
        <ele>66.47</ele>
        <time>2013-08-09T15:30:20Z</time>
      </trkpt>
      <trkpt lat="43.64188" lon="3.84554">
        <ele>66.47</ele>
        <time>2013-08-09T15:30:21Z</time>
      </trkpt>
      <trkpt lat="43.64185" lon="3.84555">
        <ele>66.47</ele>
        <time>2013-08-09T15:30:22Z</time>
      </trkpt>
      <trkpt lat="43.64167" lon="3.84555">
        <ele>66.95</ele>
        <time>2013-08-09T15:30:32Z</time>
      </trkpt>
      <trkpt lat="43.64154" lon="3.84556">
        <ele>79.93</ele>
        <time>2013-08-09T15:31:41Z</time>
      </trkpt>
      <trkpt lat="43.64158" lon="3.84555">
        <ele>76.56</ele>
        <time>2013-08-09T15:32:18Z</time>
      </trkpt>
      <trkpt lat="43.64155" lon="3.84567">
        <ele>103.48</ele>
        <time>2013-08-09T15:39:24Z</time>
      </trkpt>
      <trkpt lat="43.64164" lon="3.84564">
        <ele>87.62</ele>
        <time>2013-08-09T15:40:25Z</time>
      </trkpt>
      <trkpt lat="43.64164" lon="3.84564">
        <ele>84.73</ele>
        <time>2013-08-09T15:40:28Z</time>
      </trkpt>
      <trkpt lat="43.64158" lon="3.84568">
        <ele>79.45</ele>
        <time>2013-08-09T15:40:32Z</time>
      </trkpt>
      <trkpt lat="43.64129" lon="3.84581">
        <ele>73.2</ele>
        <time>2013-08-09T15:40:42Z</time>
      </trkpt>
      <trkpt lat="43.64086" lon="3.84585">
        <ele>68.87</ele>
        <time>2013-08-09T15:40:54Z</time>
      </trkpt>
      <trkpt lat="43.64084" lon="3.84591">
        <ele>68.87</ele>
        <time>2013-08-09T15:40:55Z</time>
      </trkpt>
      <trkpt lat="43.64081" lon="3.84598">
        <ele>68.39</ele>
        <time>2013-08-09T15:40:56Z</time>
      </trkpt>
      <trkpt lat="43.64079" lon="3.84607">
        <ele>67.91</ele>
        <time>2013-08-09T15:40:57Z</time>
      </trkpt>
      <trkpt lat="43.64077" lon="3.84616">
        <ele>67.43</ele>
        <time>2013-08-09T15:40:58Z</time>
      </trkpt>
      <trkpt lat="43.64067" lon="3.84658">
        <ele>66.95</ele>
        <time>2013-08-09T15:41:06Z</time>
      </trkpt>
      <trkpt lat="43.64062" lon="3.84665">
        <ele>66.47</ele>
        <time>2013-08-09T15:41:14Z</time>
      </trkpt>
      <trkpt lat="43.64057" lon="3.8467">
        <ele>66.47</ele>
        <time>2013-08-09T15:41:15Z</time>
      </trkpt>
      <trkpt lat="43.64049" lon="3.84674">
        <ele>66.47</ele>
        <time>2013-08-09T15:41:16Z</time>
      </trkpt>
      <trkpt lat="43.64039" lon="3.84676">
        <ele>65.99</ele>
        <time>2013-08-09T15:41:17Z</time>
      </trkpt>
      <trkpt lat="43.64028" lon="3.84675">
        <ele>65.51</ele>
        <time>2013-08-09T15:41:18Z</time>
      </trkpt>
      <trkpt lat="43.64018" lon="3.84673">
        <ele>65.51</ele>
        <time>2013-08-09T15:41:19Z</time>
      </trkpt>
      <trkpt lat="43.64007" lon="3.8467">
        <ele>65.03</ele>
        <time>2013-08-09T15:41:20Z</time>
      </trkpt>
      <trkpt lat="43.63851" lon="3.84629">
        <ele>59.74</ele>
        <time>2013-08-09T15:41:33Z</time>
      </trkpt>
      <trkpt lat="43.63799" lon="3.84598">
        <ele>59.74</ele>
        <time>2013-08-09T15:41:41Z</time>
      </trkpt>
      <trkpt lat="43.6375" lon="3.84557">
        <ele>60.7</ele>
        <time>2013-08-09T15:41:50Z</time>
      </trkpt>
      <trkpt lat="43.63741" lon="3.84547">
        <ele>61.18</ele>
        <time>2013-08-09T15:41:57Z</time>
      </trkpt>
      <trkpt lat="43.63732" lon="3.84537">
        <ele>61.66</ele>
        <time>2013-08-09T15:42:41Z</time>
      </trkpt>
      <trkpt lat="43.6365" lon="3.84462">
        <ele>58.3</ele>
        <time>2013-08-09T15:42:52Z</time>
      </trkpt>
      <trkpt lat="43.63546" lon="3.84405">
        <ele>58.3</ele>
        <time>2013-08-09T15:43:01Z</time>
      </trkpt>
      <trkpt lat="43.63457" lon="3.84354">
        <ele>62.14</ele>
        <time>2013-08-09T15:43:12Z</time>
      </trkpt>
      <trkpt lat="43.63437" lon="3.84345">
        <ele>63.1</ele>
        <time>2013-08-09T15:43:20Z</time>
      </trkpt>
      <trkpt lat="43.63413" lon="3.84334">
        <ele>64.07</ele>
        <time>2013-08-09T15:43:43Z</time>
      </trkpt>
      <trkpt lat="43.63336" lon="3.84311">
        <ele>62.14</ele>
        <time>2013-08-09T15:43:51Z</time>
      </trkpt>
      <trkpt lat="43.63229" lon="3.84274">
        <ele>60.22</ele>
        <time>2013-08-09T15:44:01Z</time>
      </trkpt>
      <trkpt lat="43.63206" lon="3.84258">
        <ele>60.7</ele>
        <time>2013-08-09T15:44:07Z</time>
      </trkpt>
      <trkpt lat="43.63183" lon="3.84239">
        <ele>62.14</ele>
        <time>2013-08-09T15:44:18Z</time>
      </trkpt>
      <trkpt lat="43.63173" lon="3.84229">
        <ele>61.18</ele>
        <time>2013-08-09T15:44:26Z</time>
      </trkpt>
      <trkpt lat="43.63169" lon="3.84223">
        <ele>61.18</ele>
        <time>2013-08-09T15:44:29Z</time>
      </trkpt>
      <trkpt lat="43.63167" lon="3.84215">
        <ele>61.18</ele>
        <time>2013-08-09T15:44:30Z</time>
      </trkpt>
      <trkpt lat="43.63163" lon="3.84194">
        <ele>61.18</ele>
        <time>2013-08-09T15:44:32Z</time>
      </trkpt>
      <trkpt lat="43.63159" lon="3.84184">
        <ele>61.66</ele>
        <time>2013-08-09T15:44:33Z</time>
      </trkpt>
      <trkpt lat="43.63155" lon="3.84175">
        <ele>61.66</ele>
        <time>2013-08-09T15:44:34Z</time>
      </trkpt>
      <trkpt lat="43.63149" lon="3.84167">
        <ele>61.66</ele>
        <time>2013-08-09T15:44:35Z</time>
      </trkpt>
      <trkpt lat="43.63142" lon="3.84161">
        <ele>61.66</ele>
        <time>2013-08-09T15:44:36Z</time>
      </trkpt>
      <trkpt lat="43.63133" lon="3.84157">
        <ele>62.14</ele>
        <time>2013-08-09T15:44:37Z</time>
      </trkpt>
      <trkpt lat="43.63126" lon="3.84155">
        <ele>62.62</ele>
        <time>2013-08-09T15:44:38Z</time>
      </trkpt>
      <trkpt lat="43.63118" lon="3.84155">
        <ele>62.62</ele>
        <time>2013-08-09T15:44:39Z</time>
      </trkpt>
      <trkpt lat="43.63111" lon="3.84156">
        <ele>62.62</ele>
        <time>2013-08-09T15:44:40Z</time>
      </trkpt>
      <trkpt lat="43.63102" lon="3.84159">
        <ele>62.62</ele>
        <time>2013-08-09T15:44:41Z</time>
      </trkpt>
      <trkpt lat="43.63094" lon="3.84165">
        <ele>62.62</ele>
        <time>2013-08-09T15:44:42Z</time>
      </trkpt>
      <trkpt lat="43.63086" lon="3.84172">
        <ele>62.62</ele>
        <time>2013-08-09T15:44:43Z</time>
      </trkpt>
      <trkpt lat="43.63077" lon="3.84178">
        <ele>62.14</ele>
        <time>2013-08-09T15:44:44Z</time>
      </trkpt>
      <trkpt lat="43.63066" lon="3.84182">
        <ele>62.14</ele>
        <time>2013-08-09T15:44:45Z</time>
      </trkpt>
      <trkpt lat="43.63054" lon="3.84183">
        <ele>62.14</ele>
        <time>2013-08-09T15:44:46Z</time>
      </trkpt>
      <trkpt lat="43.63041" lon="3.84182">
        <ele>62.14</ele>
        <time>2013-08-09T15:44:47Z</time>
      </trkpt>
      <trkpt lat="43.63028" lon="3.84179">
        <ele>62.14</ele>
        <time>2013-08-09T15:44:48Z</time>
      </trkpt>
      <trkpt lat="43.629" lon="3.84138">
        <ele>62.62</ele>
        <time>2013-08-09T15:44:56Z</time>
      </trkpt>
      <trkpt lat="43.62769" lon="3.84013">
        <ele>67.43</ele>
        <time>2013-08-09T15:45:05Z</time>
      </trkpt>
      <trkpt lat="43.62652" lon="3.8384">
        <ele>72.72</ele>
        <time>2013-08-09T15:45:15Z</time>
      </trkpt>
      <trkpt lat="43.62561" lon="3.8369">
        <ele>77.52</ele>
        <time>2013-08-09T15:45:25Z</time>
      </trkpt>
      <trkpt lat="43.62557" lon="3.8368">
        <ele>78</ele>
        <time>2013-08-09T15:45:26Z</time>
      </trkpt>
      <trkpt lat="43.62554" lon="3.83669">
        <ele>78.48</ele>
        <time>2013-08-09T15:45:27Z</time>
      </trkpt>
      <trkpt lat="43.62554" lon="3.83656">
        <ele>78.97</ele>
        <time>2013-08-09T15:45:28Z</time>
      </trkpt>
      <trkpt lat="43.62555" lon="3.83643">
        <ele>78.97</ele>
        <time>2013-08-09T15:45:29Z</time>
      </trkpt>
      <trkpt lat="43.62556" lon="3.83629">
        <ele>79.45</ele>
        <time>2013-08-09T15:45:30Z</time>
      </trkpt>
      <trkpt lat="43.62554" lon="3.83615">
        <ele>79.45</ele>
        <time>2013-08-09T15:45:31Z</time>
      </trkpt>
      <trkpt lat="43.62551" lon="3.83603">
        <ele>79.93</ele>
        <time>2013-08-09T15:45:32Z</time>
      </trkpt>
      <trkpt lat="43.62545" lon="3.83591">
        <ele>80.41</ele>
        <time>2013-08-09T15:45:33Z</time>
      </trkpt>
      <trkpt lat="43.62535" lon="3.83585">
        <ele>80.41</ele>
        <time>2013-08-09T15:45:34Z</time>
      </trkpt>
      <trkpt lat="43.62524" lon="3.83581">
        <ele>80.41</ele>
        <time>2013-08-09T15:45:35Z</time>
      </trkpt>
      <trkpt lat="43.62513" lon="3.8358">
        <ele>80.41</ele>
        <time>2013-08-09T15:45:36Z</time>
      </trkpt>
      <trkpt lat="43.62502" lon="3.83583">
        <ele>80.41</ele>
        <time>2013-08-09T15:45:37Z</time>
      </trkpt>
      <trkpt lat="43.62492" lon="3.8359">
        <ele>80.41</ele>
        <time>2013-08-09T15:45:38Z</time>
      </trkpt>
      <trkpt lat="43.62484" lon="3.83599">
        <ele>79.93</ele>
        <time>2013-08-09T15:45:39Z</time>
      </trkpt>
      <trkpt lat="43.62478" lon="3.83611">
        <ele>79.93</ele>
        <time>2013-08-09T15:45:40Z</time>
      </trkpt>
      <trkpt lat="43.62473" lon="3.83623">
        <ele>79.45</ele>
        <time>2013-08-09T15:45:41Z</time>
      </trkpt>
      <trkpt lat="43.62468" lon="3.83635">
        <ele>79.45</ele>
        <time>2013-08-09T15:45:42Z</time>
      </trkpt>
      <trkpt lat="43.62462" lon="3.83644">
        <ele>79.45</ele>
        <time>2013-08-09T15:45:43Z</time>
      </trkpt>
      <trkpt lat="43.62455" lon="3.8365">
        <ele>78.97</ele>
        <time>2013-08-09T15:45:44Z</time>
      </trkpt>
      <trkpt lat="43.62448" lon="3.83651">
        <ele>79.45</ele>
        <time>2013-08-09T15:45:45Z</time>
      </trkpt>
      <trkpt lat="43.62441" lon="3.83651">
        <ele>79.45</ele>
        <time>2013-08-09T15:45:46Z</time>
      </trkpt>
      <trkpt lat="43.62435" lon="3.83651">
        <ele>79.45</ele>
        <time>2013-08-09T15:45:47Z</time>
      </trkpt>
      <trkpt lat="43.62429" lon="3.8365">
        <ele>79.45</ele>
        <time>2013-08-09T15:45:48Z</time>
      </trkpt>
      <trkpt lat="43.62423" lon="3.83652">
        <ele>79.93</ele>
        <time>2013-08-09T15:45:49Z</time>
      </trkpt>
      <trkpt lat="43.62418" lon="3.83655">
        <ele>79.93</ele>
        <time>2013-08-09T15:45:50Z</time>
      </trkpt>
      <trkpt lat="43.62414" lon="3.8366">
        <ele>80.41</ele>
        <time>2013-08-09T15:45:51Z</time>
      </trkpt>
      <trkpt lat="43.62412" lon="3.83664">
        <ele>80.89</ele>
        <time>2013-08-09T15:45:52Z</time>
      </trkpt>
      <trkpt lat="43.6241" lon="3.83668">
        <ele>80.89</ele>
        <time>2013-08-09T15:45:53Z</time>
      </trkpt>
      <trkpt lat="43.62409" lon="3.83672">
        <ele>80.89</ele>
        <time>2013-08-09T15:45:54Z</time>
      </trkpt>
      <trkpt lat="43.62409" lon="3.83676">
        <ele>80.89</ele>
        <time>2013-08-09T15:45:55Z</time>
      </trkpt>
      <trkpt lat="43.62409" lon="3.8368">
        <ele>80.89</ele>
        <time>2013-08-09T15:45:56Z</time>
      </trkpt>
      <trkpt lat="43.6241" lon="3.83684">
        <ele>80.41</ele>
        <time>2013-08-09T15:45:57Z</time>
      </trkpt>
      <trkpt lat="43.62412" lon="3.83688">
        <ele>79.93</ele>
        <time>2013-08-09T15:45:58Z</time>
      </trkpt>
      <trkpt lat="43.62415" lon="3.83692">
        <ele>79.93</ele>
        <time>2013-08-09T15:45:59Z</time>
      </trkpt>
      <trkpt lat="43.62418" lon="3.83695">
        <ele>79.93</ele>
        <time>2013-08-09T15:46:00Z</time>
      </trkpt>
      <trkpt lat="43.6242" lon="3.83697">
        <ele>79.45</ele>
        <time>2013-08-09T15:46:01Z</time>
      </trkpt>
      <trkpt lat="43.62423" lon="3.83699">
        <ele>79.45</ele>
        <time>2013-08-09T15:46:02Z</time>
      </trkpt>
      <trkpt lat="43.62425" lon="3.83704">
        <ele>78.97</ele>
        <time>2013-08-09T15:46:03Z</time>
      </trkpt>
      <trkpt lat="43.62427" lon="3.8371">
        <ele>79.45</ele>
        <time>2013-08-09T15:46:04Z</time>
      </trkpt>
      <trkpt lat="43.6243" lon="3.83718">
        <ele>78.97</ele>
        <time>2013-08-09T15:46:05Z</time>
      </trkpt>
      <trkpt lat="43.62432" lon="3.83728">
        <ele>78.97</ele>
        <time>2013-08-09T15:46:06Z</time>
      </trkpt>
      <trkpt lat="43.62439" lon="3.83765">
        <ele>79.45</ele>
        <time>2013-08-09T15:46:10Z</time>
      </trkpt>
      <trkpt lat="43.62438" lon="3.83773">
        <ele>79.45</ele>
        <time>2013-08-09T15:46:11Z</time>
      </trkpt>
      <trkpt lat="43.62437" lon="3.83779">
        <ele>79.45</ele>
        <time>2013-08-09T15:46:12Z</time>
      </trkpt>
      <trkpt lat="43.62417" lon="3.83798">
        <ele>80.41</ele>
        <time>2013-08-09T15:46:19Z</time>
      </trkpt>
      <trkpt lat="43.62414" lon="3.8381">
        <ele>82.81</ele>
        <time>2013-08-09T15:46:28Z</time>
      </trkpt>
      <trkpt lat="43.62411" lon="3.83844">
        <ele>106.84</ele>
        <time>2013-08-09T15:47:06Z</time>
      </trkpt>
    </trkseg>
  </trk>
</gpx>